<?xml version="1.0" encoding="UTF-8" standalone="no" ?>
<gpx xmlns="http://www.topografix.com/GPX/1/1" xmlns:xsi="http://www.w3.org/2001/XMLSchema-instance" xsi:schemaLocation="http://www.topografix.com/GPX/1/1 http://www.topografix.com/GPX/1/1/gpx.xsd" version="1.1" creator="VisuGPX - https://www.visugpx.com">
  <metadata>
    <name>Mtp_Oppidum_Murviel</name>
  </metadata>
  <trk>
    <name><![CDATA[Mtp_Oppidum_Murviel_1]]></name>
    <trkseg>
      <trkpt lat="43.6087" lon="3.86852">
        <ele>32.9</ele>
        <time>2021-05-14T12:02:28Z</time>
      </trkpt>
      <trkpt lat="43.60871" lon="3.86849">
        <ele>33</ele>
        <time>2021-05-14T12:02:29Z</time>
      </trkpt>
      <trkpt lat="43.60873" lon="3.86841">
        <ele>33.3</ele>
        <time>2021-05-14T12:02:31Z</time>
      </trkpt>
      <trkpt lat="43.60874" lon="3.86832">
        <ele>33.4</ele>
        <time>2021-05-14T12:02:33Z</time>
      </trkpt>
      <trkpt lat="43.60874" lon="3.86828">
        <ele>33.4</ele>
        <time>2021-05-14T12:02:34Z</time>
      </trkpt>
      <trkpt lat="43.60875" lon="3.8682">
        <ele>33.3</ele>
        <time>2021-05-14T12:02:36Z</time>
      </trkpt>
      <trkpt lat="43.60876" lon="3.86815">
        <ele>37</ele>
        <time>2021-05-14T12:02:37Z</time>
      </trkpt>
      <trkpt lat="43.60877" lon="3.86811">
        <ele>37</ele>
        <time>2021-05-14T12:02:38Z</time>
      </trkpt>
      <trkpt lat="43.60879" lon="3.86802">
        <ele>37</ele>
        <time>2021-05-14T12:02:40Z</time>
      </trkpt>
      <trkpt lat="43.6088" lon="3.86797">
        <ele>37</ele>
        <time>2021-05-14T12:02:41Z</time>
      </trkpt>
      <trkpt lat="43.60881" lon="3.86792">
        <ele>37</ele>
        <time>2021-05-14T12:02:42Z</time>
      </trkpt>
      <trkpt lat="43.60882" lon="3.86787">
        <ele>37</ele>
        <time>2021-05-14T12:02:43Z</time>
      </trkpt>
      <trkpt lat="43.60883" lon="3.86782">
        <ele>37</ele>
        <time>2021-05-14T12:02:44Z</time>
      </trkpt>
      <trkpt lat="43.60884" lon="3.86777">
        <ele>37</ele>
        <time>2021-05-14T12:02:45Z</time>
      </trkpt>
      <trkpt lat="43.60885" lon="3.86773">
        <ele>37</ele>
        <time>2021-05-14T12:02:46Z</time>
      </trkpt>
      <trkpt lat="43.60886" lon="3.86768">
        <ele>36</ele>
        <time>2021-05-14T12:02:47Z</time>
      </trkpt>
      <trkpt lat="43.60888" lon="3.86763">
        <ele>36</ele>
        <time>2021-05-14T12:02:48Z</time>
      </trkpt>
      <trkpt lat="43.60889" lon="3.86758">
        <ele>36</ele>
        <time>2021-05-14T12:02:49Z</time>
      </trkpt>
      <trkpt lat="43.60891" lon="3.86754">
        <ele>36</ele>
        <time>2021-05-14T12:02:50Z</time>
      </trkpt>
      <trkpt lat="43.60892" lon="3.86749">
        <ele>36</ele>
        <time>2021-05-14T12:02:51Z</time>
      </trkpt>
      <trkpt lat="43.60894" lon="3.86745">
        <ele>36</ele>
        <time>2021-05-14T12:02:52Z</time>
      </trkpt>
      <trkpt lat="43.60896" lon="3.8674">
        <ele>36</ele>
        <time>2021-05-14T12:02:53Z</time>
      </trkpt>
      <trkpt lat="43.60898" lon="3.86736">
        <ele>36</ele>
        <time>2021-05-14T12:02:54Z</time>
      </trkpt>
      <trkpt lat="43.60899" lon="3.86732">
        <ele>36</ele>
        <time>2021-05-14T12:02:55Z</time>
      </trkpt>
      <trkpt lat="43.60901" lon="3.86729">
        <ele>36</ele>
        <time>2021-05-14T12:02:56Z</time>
      </trkpt>
      <trkpt lat="43.60903" lon="3.86726">
        <ele>36</ele>
        <time>2021-05-14T12:02:57Z</time>
      </trkpt>
      <trkpt lat="43.60904" lon="3.86722">
        <ele>36</ele>
        <time>2021-05-14T12:02:58Z</time>
      </trkpt>
      <trkpt lat="43.60905" lon="3.86719">
        <ele>36</ele>
        <time>2021-05-14T12:02:59Z</time>
      </trkpt>
      <trkpt lat="43.60906" lon="3.86715">
        <ele>36</ele>
        <time>2021-05-14T12:03:00Z</time>
      </trkpt>
      <trkpt lat="43.60907" lon="3.86712">
        <ele>36</ele>
        <time>2021-05-14T12:03:01Z</time>
      </trkpt>
      <trkpt lat="43.60908" lon="3.86709">
        <ele>36</ele>
        <time>2021-05-14T12:03:03Z</time>
      </trkpt>
      <trkpt lat="43.6091" lon="3.86706">
        <ele>36</ele>
        <time>2021-05-14T12:03:04Z</time>
      </trkpt>
      <trkpt lat="43.60911" lon="3.86703">
        <ele>36</ele>
        <time>2021-05-14T12:03:06Z</time>
      </trkpt>
      <trkpt lat="43.60913" lon="3.86701">
        <ele>36</ele>
        <time>2021-05-14T12:03:08Z</time>
      </trkpt>
      <trkpt lat="43.60915" lon="3.86697">
        <ele>36</ele>
        <time>2021-05-14T12:03:10Z</time>
      </trkpt>
      <trkpt lat="43.60917" lon="3.86694">
        <ele>36</ele>
        <time>2021-05-14T12:03:12Z</time>
      </trkpt>
      <trkpt lat="43.60918" lon="3.8669">
        <ele>36</ele>
        <time>2021-05-14T12:03:14Z</time>
      </trkpt>
      <trkpt lat="43.60918" lon="3.86687">
        <ele>36</ele>
        <time>2021-05-14T12:03:15Z</time>
      </trkpt>
      <trkpt lat="43.60917" lon="3.86682">
        <ele>36</ele>
        <time>2021-05-14T12:03:16Z</time>
      </trkpt>
      <trkpt lat="43.60918" lon="3.86672">
        <ele>36</ele>
        <time>2021-05-14T12:03:18Z</time>
      </trkpt>
      <trkpt lat="43.60919" lon="3.86667">
        <ele>36</ele>
        <time>2021-05-14T12:03:19Z</time>
      </trkpt>
      <trkpt lat="43.6092" lon="3.86662">
        <ele>36</ele>
        <time>2021-05-14T12:03:20Z</time>
      </trkpt>
      <trkpt lat="43.60921" lon="3.86657">
        <ele>36</ele>
        <time>2021-05-14T12:03:21Z</time>
      </trkpt>
      <trkpt lat="43.60922" lon="3.86652">
        <ele>36</ele>
        <time>2021-05-14T12:03:22Z</time>
      </trkpt>
      <trkpt lat="43.60922" lon="3.86647">
        <ele>36</ele>
        <time>2021-05-14T12:03:23Z</time>
      </trkpt>
      <trkpt lat="43.60923" lon="3.86642">
        <ele>36</ele>
        <time>2021-05-14T12:03:24Z</time>
      </trkpt>
      <trkpt lat="43.60924" lon="3.86637">
        <ele>36</ele>
        <time>2021-05-14T12:03:25Z</time>
      </trkpt>
      <trkpt lat="43.60924" lon="3.86632">
        <ele>36</ele>
        <time>2021-05-14T12:03:26Z</time>
      </trkpt>
      <trkpt lat="43.60925" lon="3.86628">
        <ele>39</ele>
        <time>2021-05-14T12:03:27Z</time>
      </trkpt>
      <trkpt lat="43.60926" lon="3.86623">
        <ele>39</ele>
        <time>2021-05-14T12:03:28Z</time>
      </trkpt>
      <trkpt lat="43.60927" lon="3.86618">
        <ele>39</ele>
        <time>2021-05-14T12:03:29Z</time>
      </trkpt>
      <trkpt lat="43.60928" lon="3.86614">
        <ele>39</ele>
        <time>2021-05-14T12:03:30Z</time>
      </trkpt>
      <trkpt lat="43.60929" lon="3.86609">
        <ele>39</ele>
        <time>2021-05-14T12:03:31Z</time>
      </trkpt>
      <trkpt lat="43.6093" lon="3.86604">
        <ele>39</ele>
        <time>2021-05-14T12:03:32Z</time>
      </trkpt>
      <trkpt lat="43.60931" lon="3.86599">
        <ele>39</ele>
        <time>2021-05-14T12:03:33Z</time>
      </trkpt>
      <trkpt lat="43.60932" lon="3.86595">
        <ele>39</ele>
        <time>2021-05-14T12:03:34Z</time>
      </trkpt>
      <trkpt lat="43.60933" lon="3.8659">
        <ele>39</ele>
        <time>2021-05-14T12:03:35Z</time>
      </trkpt>
      <trkpt lat="43.60934" lon="3.86585">
        <ele>39</ele>
        <time>2021-05-14T12:03:36Z</time>
      </trkpt>
      <trkpt lat="43.60935" lon="3.8658">
        <ele>39</ele>
        <time>2021-05-14T12:03:37Z</time>
      </trkpt>
      <trkpt lat="43.60936" lon="3.86576">
        <ele>39</ele>
        <time>2021-05-14T12:03:38Z</time>
      </trkpt>
      <trkpt lat="43.60937" lon="3.86571">
        <ele>39</ele>
        <time>2021-05-14T12:03:39Z</time>
      </trkpt>
      <trkpt lat="43.60937" lon="3.86566">
        <ele>39</ele>
        <time>2021-05-14T12:03:40Z</time>
      </trkpt>
      <trkpt lat="43.60938" lon="3.86561">
        <ele>39</ele>
        <time>2021-05-14T12:03:41Z</time>
      </trkpt>
      <trkpt lat="43.60939" lon="3.86556">
        <ele>39</ele>
        <time>2021-05-14T12:03:42Z</time>
      </trkpt>
      <trkpt lat="43.6094" lon="3.86551">
        <ele>39</ele>
        <time>2021-05-14T12:03:43Z</time>
      </trkpt>
      <trkpt lat="43.60941" lon="3.86548">
        <ele>39</ele>
        <time>2021-05-14T12:03:44Z</time>
      </trkpt>
      <trkpt lat="43.60942" lon="3.86544">
        <ele>39</ele>
        <time>2021-05-14T12:03:45Z</time>
      </trkpt>
      <trkpt lat="43.60943" lon="3.86539">
        <ele>39</ele>
        <time>2021-05-14T12:03:46Z</time>
      </trkpt>
      <trkpt lat="43.60944" lon="3.86534">
        <ele>39</ele>
        <time>2021-05-14T12:03:47Z</time>
      </trkpt>
      <trkpt lat="43.60944" lon="3.86529">
        <ele>39</ele>
        <time>2021-05-14T12:03:48Z</time>
      </trkpt>
      <trkpt lat="43.60945" lon="3.86524">
        <ele>39</ele>
        <time>2021-05-14T12:03:49Z</time>
      </trkpt>
      <trkpt lat="43.60946" lon="3.86519">
        <ele>39</ele>
        <time>2021-05-14T12:03:50Z</time>
      </trkpt>
      <trkpt lat="43.60946" lon="3.86513">
        <ele>39</ele>
        <time>2021-05-14T12:03:51Z</time>
      </trkpt>
      <trkpt lat="43.60947" lon="3.86508">
        <ele>39</ele>
        <time>2021-05-14T12:03:52Z</time>
      </trkpt>
      <trkpt lat="43.60948" lon="3.86503">
        <ele>39</ele>
        <time>2021-05-14T12:03:53Z</time>
      </trkpt>
      <trkpt lat="43.60949" lon="3.86498">
        <ele>39</ele>
        <time>2021-05-14T12:03:54Z</time>
      </trkpt>
      <trkpt lat="43.6095" lon="3.86493">
        <ele>39</ele>
        <time>2021-05-14T12:03:55Z</time>
      </trkpt>
      <trkpt lat="43.60951" lon="3.86488">
        <ele>39</ele>
        <time>2021-05-14T12:03:56Z</time>
      </trkpt>
      <trkpt lat="43.60952" lon="3.86483">
        <ele>39</ele>
        <time>2021-05-14T12:03:57Z</time>
      </trkpt>
      <trkpt lat="43.60953" lon="3.86478">
        <ele>39</ele>
        <time>2021-05-14T12:03:58Z</time>
      </trkpt>
      <trkpt lat="43.60954" lon="3.86473">
        <ele>39</ele>
        <time>2021-05-14T12:03:59Z</time>
      </trkpt>
      <trkpt lat="43.60955" lon="3.86469">
        <ele>39</ele>
        <time>2021-05-14T12:04:00Z</time>
      </trkpt>
      <trkpt lat="43.60956" lon="3.86464">
        <ele>39</ele>
        <time>2021-05-14T12:04:01Z</time>
      </trkpt>
      <trkpt lat="43.60957" lon="3.86459">
        <ele>39</ele>
        <time>2021-05-14T12:04:02Z</time>
      </trkpt>
      <trkpt lat="43.60957" lon="3.86455">
        <ele>39</ele>
        <time>2021-05-14T12:04:03Z</time>
      </trkpt>
      <trkpt lat="43.60958" lon="3.8645">
        <ele>39</ele>
        <time>2021-05-14T12:04:04Z</time>
      </trkpt>
      <trkpt lat="43.60959" lon="3.86446">
        <ele>39</ele>
        <time>2021-05-14T12:04:05Z</time>
      </trkpt>
      <trkpt lat="43.6096" lon="3.86441">
        <ele>39</ele>
        <time>2021-05-14T12:04:06Z</time>
      </trkpt>
      <trkpt lat="43.6096" lon="3.86437">
        <ele>40</ele>
        <time>2021-05-14T12:04:07Z</time>
      </trkpt>
      <trkpt lat="43.60961" lon="3.86432">
        <ele>40</ele>
        <time>2021-05-14T12:04:08Z</time>
      </trkpt>
      <trkpt lat="43.60962" lon="3.86423">
        <ele>40</ele>
        <time>2021-05-14T12:04:10Z</time>
      </trkpt>
      <trkpt lat="43.60962" lon="3.86419">
        <ele>40</ele>
        <time>2021-05-14T12:04:11Z</time>
      </trkpt>
      <trkpt lat="43.60962" lon="3.86414">
        <ele>40</ele>
        <time>2021-05-14T12:04:12Z</time>
      </trkpt>
      <trkpt lat="43.60963" lon="3.8641">
        <ele>40</ele>
        <time>2021-05-14T12:04:13Z</time>
      </trkpt>
      <trkpt lat="43.60964" lon="3.86406">
        <ele>40</ele>
        <time>2021-05-14T12:04:14Z</time>
      </trkpt>
      <trkpt lat="43.60965" lon="3.86402">
        <ele>40</ele>
        <time>2021-05-14T12:04:15Z</time>
      </trkpt>
      <trkpt lat="43.60966" lon="3.86398">
        <ele>40</ele>
        <time>2021-05-14T12:04:16Z</time>
      </trkpt>
      <trkpt lat="43.60967" lon="3.86394">
        <ele>42</ele>
        <time>2021-05-14T12:04:17Z</time>
      </trkpt>
      <trkpt lat="43.60968" lon="3.86391">
        <ele>42</ele>
        <time>2021-05-14T12:04:18Z</time>
      </trkpt>
      <trkpt lat="43.60968" lon="3.86387">
        <ele>42</ele>
        <time>2021-05-14T12:04:19Z</time>
      </trkpt>
      <trkpt lat="43.60969" lon="3.86383">
        <ele>42</ele>
        <time>2021-05-14T12:04:20Z</time>
      </trkpt>
      <trkpt lat="43.6097" lon="3.8638">
        <ele>42</ele>
        <time>2021-05-14T12:04:21Z</time>
      </trkpt>
      <trkpt lat="43.6097" lon="3.86376">
        <ele>42</ele>
        <time>2021-05-14T12:04:22Z</time>
      </trkpt>
      <trkpt lat="43.60971" lon="3.86372">
        <ele>42</ele>
        <time>2021-05-14T12:04:23Z</time>
      </trkpt>
      <trkpt lat="43.60972" lon="3.86368">
        <ele>42</ele>
        <time>2021-05-14T12:04:24Z</time>
      </trkpt>
      <trkpt lat="43.60973" lon="3.86363">
        <ele>42</ele>
        <time>2021-05-14T12:04:25Z</time>
      </trkpt>
      <trkpt lat="43.60974" lon="3.86359">
        <ele>42</ele>
        <time>2021-05-14T12:04:26Z</time>
      </trkpt>
      <trkpt lat="43.60975" lon="3.86355">
        <ele>43</ele>
        <time>2021-05-14T12:04:27Z</time>
      </trkpt>
      <trkpt lat="43.60976" lon="3.86351">
        <ele>43</ele>
        <time>2021-05-14T12:04:28Z</time>
      </trkpt>
      <trkpt lat="43.60976" lon="3.86347">
        <ele>43</ele>
        <time>2021-05-14T12:04:29Z</time>
      </trkpt>
      <trkpt lat="43.60977" lon="3.86343">
        <ele>43</ele>
        <time>2021-05-14T12:04:30Z</time>
      </trkpt>
      <trkpt lat="43.60978" lon="3.86339">
        <ele>43</ele>
        <time>2021-05-14T12:04:31Z</time>
      </trkpt>
      <trkpt lat="43.60978" lon="3.86335">
        <ele>43</ele>
        <time>2021-05-14T12:04:32Z</time>
      </trkpt>
      <trkpt lat="43.60979" lon="3.86331">
        <ele>43</ele>
        <time>2021-05-14T12:04:33Z</time>
      </trkpt>
      <trkpt lat="43.6098" lon="3.86327">
        <ele>43</ele>
        <time>2021-05-14T12:04:34Z</time>
      </trkpt>
      <trkpt lat="43.6098" lon="3.86323">
        <ele>43</ele>
        <time>2021-05-14T12:04:35Z</time>
      </trkpt>
      <trkpt lat="43.60981" lon="3.86319">
        <ele>43</ele>
        <time>2021-05-14T12:04:36Z</time>
      </trkpt>
      <trkpt lat="43.60982" lon="3.86315">
        <ele>44</ele>
        <time>2021-05-14T12:04:37Z</time>
      </trkpt>
      <trkpt lat="43.60982" lon="3.86311">
        <ele>44</ele>
        <time>2021-05-14T12:04:38Z</time>
      </trkpt>
      <trkpt lat="43.60983" lon="3.86308">
        <ele>44</ele>
        <time>2021-05-14T12:04:39Z</time>
      </trkpt>
      <trkpt lat="43.60983" lon="3.86304">
        <ele>44</ele>
        <time>2021-05-14T12:04:40Z</time>
      </trkpt>
      <trkpt lat="43.60983" lon="3.86301">
        <ele>44</ele>
        <time>2021-05-14T12:04:41Z</time>
      </trkpt>
      <trkpt lat="43.60984" lon="3.86297">
        <ele>44</ele>
        <time>2021-05-14T12:04:42Z</time>
      </trkpt>
      <trkpt lat="43.60984" lon="3.86294">
        <ele>44</ele>
        <time>2021-05-14T12:04:43Z</time>
      </trkpt>
      <trkpt lat="43.60984" lon="3.8629">
        <ele>44</ele>
        <time>2021-05-14T12:04:44Z</time>
      </trkpt>
      <trkpt lat="43.60984" lon="3.86287">
        <ele>44</ele>
        <time>2021-05-14T12:04:45Z</time>
      </trkpt>
      <trkpt lat="43.60985" lon="3.86283">
        <ele>44</ele>
        <time>2021-05-14T12:04:46Z</time>
      </trkpt>
      <trkpt lat="43.60985" lon="3.8628">
        <ele>44</ele>
        <time>2021-05-14T12:04:47Z</time>
      </trkpt>
      <trkpt lat="43.60985" lon="3.86276">
        <ele>44</ele>
        <time>2021-05-14T12:04:48Z</time>
      </trkpt>
      <trkpt lat="43.60985" lon="3.86272">
        <ele>44</ele>
        <time>2021-05-14T12:04:49Z</time>
      </trkpt>
      <trkpt lat="43.60985" lon="3.86269">
        <ele>44</ele>
        <time>2021-05-14T12:04:50Z</time>
      </trkpt>
      <trkpt lat="43.60985" lon="3.86266">
        <ele>44</ele>
        <time>2021-05-14T12:04:51Z</time>
      </trkpt>
      <trkpt lat="43.60986" lon="3.86263">
        <ele>44</ele>
        <time>2021-05-14T12:04:52Z</time>
      </trkpt>
      <trkpt lat="43.60986" lon="3.8626">
        <ele>44</ele>
        <time>2021-05-14T12:04:53Z</time>
      </trkpt>
      <trkpt lat="43.60987" lon="3.86256">
        <ele>44</ele>
        <time>2021-05-14T12:04:54Z</time>
      </trkpt>
      <trkpt lat="43.60988" lon="3.86249">
        <ele>44</ele>
        <time>2021-05-14T12:04:56Z</time>
      </trkpt>
      <trkpt lat="43.60988" lon="3.86246">
        <ele>45</ele>
        <time>2021-05-14T12:04:57Z</time>
      </trkpt>
      <trkpt lat="43.60989" lon="3.86242">
        <ele>45</ele>
        <time>2021-05-14T12:04:58Z</time>
      </trkpt>
      <trkpt lat="43.6099" lon="3.86239">
        <ele>45</ele>
        <time>2021-05-14T12:04:59Z</time>
      </trkpt>
      <trkpt lat="43.60991" lon="3.86235">
        <ele>45</ele>
        <time>2021-05-14T12:05:00Z</time>
      </trkpt>
      <trkpt lat="43.60992" lon="3.86232">
        <ele>45</ele>
        <time>2021-05-14T12:05:01Z</time>
      </trkpt>
      <trkpt lat="43.60992" lon="3.86228">
        <ele>45</ele>
        <time>2021-05-14T12:05:02Z</time>
      </trkpt>
      <trkpt lat="43.60993" lon="3.86225">
        <ele>45</ele>
        <time>2021-05-14T12:05:03Z</time>
      </trkpt>
      <trkpt lat="43.60993" lon="3.86221">
        <ele>45</ele>
        <time>2021-05-14T12:05:04Z</time>
      </trkpt>
      <trkpt lat="43.60994" lon="3.86217">
        <ele>45</ele>
        <time>2021-05-14T12:05:05Z</time>
      </trkpt>
      <trkpt lat="43.60994" lon="3.86214">
        <ele>45</ele>
        <time>2021-05-14T12:05:06Z</time>
      </trkpt>
      <trkpt lat="43.60995" lon="3.8621">
        <ele>47</ele>
        <time>2021-05-14T12:05:07Z</time>
      </trkpt>
      <trkpt lat="43.60995" lon="3.86206">
        <ele>47</ele>
        <time>2021-05-14T12:05:08Z</time>
      </trkpt>
      <trkpt lat="43.60996" lon="3.86202">
        <ele>47</ele>
        <time>2021-05-14T12:05:09Z</time>
      </trkpt>
      <trkpt lat="43.60997" lon="3.86199">
        <ele>47</ele>
        <time>2021-05-14T12:05:10Z</time>
      </trkpt>
      <trkpt lat="43.60998" lon="3.86195">
        <ele>47</ele>
        <time>2021-05-14T12:05:11Z</time>
      </trkpt>
      <trkpt lat="43.60999" lon="3.86192">
        <ele>47</ele>
        <time>2021-05-14T12:05:12Z</time>
      </trkpt>
      <trkpt lat="43.61" lon="3.86189">
        <ele>47</ele>
        <time>2021-05-14T12:05:13Z</time>
      </trkpt>
      <trkpt lat="43.61001" lon="3.86185">
        <ele>47</ele>
        <time>2021-05-14T12:05:14Z</time>
      </trkpt>
      <trkpt lat="43.61001" lon="3.86182">
        <ele>47</ele>
        <time>2021-05-14T12:05:15Z</time>
      </trkpt>
      <trkpt lat="43.61002" lon="3.86178">
        <ele>47</ele>
        <time>2021-05-14T12:05:16Z</time>
      </trkpt>
      <trkpt lat="43.61002" lon="3.86175">
        <ele>47</ele>
        <time>2021-05-14T12:05:17Z</time>
      </trkpt>
      <trkpt lat="43.61003" lon="3.86172">
        <ele>47</ele>
        <time>2021-05-14T12:05:18Z</time>
      </trkpt>
      <trkpt lat="43.61004" lon="3.86168">
        <ele>47</ele>
        <time>2021-05-14T12:05:19Z</time>
      </trkpt>
      <trkpt lat="43.61004" lon="3.86165">
        <ele>47</ele>
        <time>2021-05-14T12:05:20Z</time>
      </trkpt>
      <trkpt lat="43.61005" lon="3.86162">
        <ele>47</ele>
        <time>2021-05-14T12:05:21Z</time>
      </trkpt>
      <trkpt lat="43.61005" lon="3.86158">
        <ele>47</ele>
        <time>2021-05-14T12:05:22Z</time>
      </trkpt>
      <trkpt lat="43.61005" lon="3.86155">
        <ele>47</ele>
        <time>2021-05-14T12:05:23Z</time>
      </trkpt>
      <trkpt lat="43.61006" lon="3.86152">
        <ele>47</ele>
        <time>2021-05-14T12:05:24Z</time>
      </trkpt>
      <trkpt lat="43.61006" lon="3.86148">
        <ele>47</ele>
        <time>2021-05-14T12:05:25Z</time>
      </trkpt>
      <trkpt lat="43.61007" lon="3.86144">
        <ele>47</ele>
        <time>2021-05-14T12:05:26Z</time>
      </trkpt>
      <trkpt lat="43.61007" lon="3.86141">
        <ele>49</ele>
        <time>2021-05-14T12:05:27Z</time>
      </trkpt>
      <trkpt lat="43.61008" lon="3.86137">
        <ele>49</ele>
        <time>2021-05-14T12:05:28Z</time>
      </trkpt>
      <trkpt lat="43.61008" lon="3.86133">
        <ele>49</ele>
        <time>2021-05-14T12:05:29Z</time>
      </trkpt>
      <trkpt lat="43.61008" lon="3.86129">
        <ele>49</ele>
        <time>2021-05-14T12:05:30Z</time>
      </trkpt>
      <trkpt lat="43.61008" lon="3.86126">
        <ele>49</ele>
        <time>2021-05-14T12:05:31Z</time>
      </trkpt>
      <trkpt lat="43.61008" lon="3.86122">
        <ele>49</ele>
        <time>2021-05-14T12:05:32Z</time>
      </trkpt>
      <trkpt lat="43.61008" lon="3.86118">
        <ele>49</ele>
        <time>2021-05-14T12:05:33Z</time>
      </trkpt>
      <trkpt lat="43.61008" lon="3.86114">
        <ele>49</ele>
        <time>2021-05-14T12:05:34Z</time>
      </trkpt>
      <trkpt lat="43.61008" lon="3.86111">
        <ele>49</ele>
        <time>2021-05-14T12:05:35Z</time>
      </trkpt>
      <trkpt lat="43.61008" lon="3.86108">
        <ele>49</ele>
        <time>2021-05-14T12:05:36Z</time>
      </trkpt>
      <trkpt lat="43.61008" lon="3.86104">
        <ele>49</ele>
        <time>2021-05-14T12:05:37Z</time>
      </trkpt>
      <trkpt lat="43.61008" lon="3.861">
        <ele>49</ele>
        <time>2021-05-14T12:05:38Z</time>
      </trkpt>
      <trkpt lat="43.61009" lon="3.86097">
        <ele>49</ele>
        <time>2021-05-14T12:05:39Z</time>
      </trkpt>
      <trkpt lat="43.61009" lon="3.86093">
        <ele>49</ele>
        <time>2021-05-14T12:05:40Z</time>
      </trkpt>
      <trkpt lat="43.6101" lon="3.86089">
        <ele>49</ele>
        <time>2021-05-14T12:05:41Z</time>
      </trkpt>
      <trkpt lat="43.61011" lon="3.86085">
        <ele>49</ele>
        <time>2021-05-14T12:05:42Z</time>
      </trkpt>
      <trkpt lat="43.61011" lon="3.86081">
        <ele>49</ele>
        <time>2021-05-14T12:05:43Z</time>
      </trkpt>
      <trkpt lat="43.61011" lon="3.86078">
        <ele>49</ele>
        <time>2021-05-14T12:05:44Z</time>
      </trkpt>
      <trkpt lat="43.61011" lon="3.86074">
        <ele>49</ele>
        <time>2021-05-14T12:05:45Z</time>
      </trkpt>
      <trkpt lat="43.61012" lon="3.8607">
        <ele>49</ele>
        <time>2021-05-14T12:05:46Z</time>
      </trkpt>
      <trkpt lat="43.61012" lon="3.86066">
        <ele>51</ele>
        <time>2021-05-14T12:05:47Z</time>
      </trkpt>
      <trkpt lat="43.61013" lon="3.86063">
        <ele>51</ele>
        <time>2021-05-14T12:05:48Z</time>
      </trkpt>
      <trkpt lat="43.61013" lon="3.86059">
        <ele>51</ele>
        <time>2021-05-14T12:05:49Z</time>
      </trkpt>
      <trkpt lat="43.61013" lon="3.86055">
        <ele>51</ele>
        <time>2021-05-14T12:05:50Z</time>
      </trkpt>
      <trkpt lat="43.61013" lon="3.86051">
        <ele>51</ele>
        <time>2021-05-14T12:05:51Z</time>
      </trkpt>
      <trkpt lat="43.61014" lon="3.86048">
        <ele>51</ele>
        <time>2021-05-14T12:05:52Z</time>
      </trkpt>
      <trkpt lat="43.61015" lon="3.86044">
        <ele>51</ele>
        <time>2021-05-14T12:05:53Z</time>
      </trkpt>
      <trkpt lat="43.61015" lon="3.86041">
        <ele>51</ele>
        <time>2021-05-14T12:05:54Z</time>
      </trkpt>
      <trkpt lat="43.61016" lon="3.86037">
        <ele>51</ele>
        <time>2021-05-14T12:05:55Z</time>
      </trkpt>
      <trkpt lat="43.61016" lon="3.86033">
        <ele>51</ele>
        <time>2021-05-14T12:05:56Z</time>
      </trkpt>
      <trkpt lat="43.61017" lon="3.86029">
        <ele>52</ele>
        <time>2021-05-14T12:05:57Z</time>
      </trkpt>
      <trkpt lat="43.61017" lon="3.86026">
        <ele>52</ele>
        <time>2021-05-14T12:05:58Z</time>
      </trkpt>
      <trkpt lat="43.61017" lon="3.86022">
        <ele>52</ele>
        <time>2021-05-14T12:05:59Z</time>
      </trkpt>
      <trkpt lat="43.61018" lon="3.86019">
        <ele>52</ele>
        <time>2021-05-14T12:06:00Z</time>
      </trkpt>
      <trkpt lat="43.61018" lon="3.86016">
        <ele>52</ele>
        <time>2021-05-14T12:06:01Z</time>
      </trkpt>
      <trkpt lat="43.61018" lon="3.86013">
        <ele>52</ele>
        <time>2021-05-14T12:06:02Z</time>
      </trkpt>
      <trkpt lat="43.61019" lon="3.8601">
        <ele>52</ele>
        <time>2021-05-14T12:06:03Z</time>
      </trkpt>
      <trkpt lat="43.61019" lon="3.86007">
        <ele>52</ele>
        <time>2021-05-14T12:06:04Z</time>
      </trkpt>
      <trkpt lat="43.61019" lon="3.86004">
        <ele>52</ele>
        <time>2021-05-14T12:06:05Z</time>
      </trkpt>
      <trkpt lat="43.61019" lon="3.86001">
        <ele>52</ele>
        <time>2021-05-14T12:06:06Z</time>
      </trkpt>
      <trkpt lat="43.61019" lon="3.85998">
        <ele>53</ele>
        <time>2021-05-14T12:06:07Z</time>
      </trkpt>
      <trkpt lat="43.61019" lon="3.85995">
        <ele>53</ele>
        <time>2021-05-14T12:06:08Z</time>
      </trkpt>
      <trkpt lat="43.6102" lon="3.85992">
        <ele>53</ele>
        <time>2021-05-14T12:06:09Z</time>
      </trkpt>
      <trkpt lat="43.6102" lon="3.85989">
        <ele>53</ele>
        <time>2021-05-14T12:06:10Z</time>
      </trkpt>
      <trkpt lat="43.61021" lon="3.85982">
        <ele>53</ele>
        <time>2021-05-14T12:06:12Z</time>
      </trkpt>
      <trkpt lat="43.61022" lon="3.85979">
        <ele>53</ele>
        <time>2021-05-14T12:06:13Z</time>
      </trkpt>
      <trkpt lat="43.61022" lon="3.85976">
        <ele>53</ele>
        <time>2021-05-14T12:06:14Z</time>
      </trkpt>
      <trkpt lat="43.61023" lon="3.85973">
        <ele>53</ele>
        <time>2021-05-14T12:06:15Z</time>
      </trkpt>
      <trkpt lat="43.61024" lon="3.85971">
        <ele>53</ele>
        <time>2021-05-14T12:06:16Z</time>
      </trkpt>
      <trkpt lat="43.61025" lon="3.85968">
        <ele>55</ele>
        <time>2021-05-14T12:06:17Z</time>
      </trkpt>
      <trkpt lat="43.61026" lon="3.85965">
        <ele>55</ele>
        <time>2021-05-14T12:06:18Z</time>
      </trkpt>
      <trkpt lat="43.61027" lon="3.85962">
        <ele>55</ele>
        <time>2021-05-14T12:06:19Z</time>
      </trkpt>
      <trkpt lat="43.61028" lon="3.85959">
        <ele>55</ele>
        <time>2021-05-14T12:06:20Z</time>
      </trkpt>
      <trkpt lat="43.61029" lon="3.85956">
        <ele>55</ele>
        <time>2021-05-14T12:06:21Z</time>
      </trkpt>
      <trkpt lat="43.61029" lon="3.85953">
        <ele>55</ele>
        <time>2021-05-14T12:06:22Z</time>
      </trkpt>
      <trkpt lat="43.6103" lon="3.8595">
        <ele>55</ele>
        <time>2021-05-14T12:06:23Z</time>
      </trkpt>
      <trkpt lat="43.61031" lon="3.85947">
        <ele>55</ele>
        <time>2021-05-14T12:06:24Z</time>
      </trkpt>
      <trkpt lat="43.61031" lon="3.85944">
        <ele>55</ele>
        <time>2021-05-14T12:06:25Z</time>
      </trkpt>
      <trkpt lat="43.61032" lon="3.85941">
        <ele>55</ele>
        <time>2021-05-14T12:06:26Z</time>
      </trkpt>
      <trkpt lat="43.61033" lon="3.85937">
        <ele>56</ele>
        <time>2021-05-14T12:06:27Z</time>
      </trkpt>
      <trkpt lat="43.61033" lon="3.85934">
        <ele>56</ele>
        <time>2021-05-14T12:06:28Z</time>
      </trkpt>
      <trkpt lat="43.61034" lon="3.85931">
        <ele>56</ele>
        <time>2021-05-14T12:06:29Z</time>
      </trkpt>
      <trkpt lat="43.61034" lon="3.85928">
        <ele>56</ele>
        <time>2021-05-14T12:06:30Z</time>
      </trkpt>
      <trkpt lat="43.61035" lon="3.85924">
        <ele>56</ele>
        <time>2021-05-14T12:06:31Z</time>
      </trkpt>
      <trkpt lat="43.61035" lon="3.85921">
        <ele>56</ele>
        <time>2021-05-14T12:06:32Z</time>
      </trkpt>
      <trkpt lat="43.61035" lon="3.85918">
        <ele>56</ele>
        <time>2021-05-14T12:06:33Z</time>
      </trkpt>
      <trkpt lat="43.61036" lon="3.85915">
        <ele>56</ele>
        <time>2021-05-14T12:06:34Z</time>
      </trkpt>
      <trkpt lat="43.61037" lon="3.85911">
        <ele>56</ele>
        <time>2021-05-14T12:06:35Z</time>
      </trkpt>
      <trkpt lat="43.61037" lon="3.85908">
        <ele>56</ele>
        <time>2021-05-14T12:06:36Z</time>
      </trkpt>
      <trkpt lat="43.61037" lon="3.85904">
        <ele>56</ele>
        <time>2021-05-14T12:06:37Z</time>
      </trkpt>
      <trkpt lat="43.61038" lon="3.85901">
        <ele>56</ele>
        <time>2021-05-14T12:06:38Z</time>
      </trkpt>
      <trkpt lat="43.61038" lon="3.85898">
        <ele>56</ele>
        <time>2021-05-14T12:06:39Z</time>
      </trkpt>
      <trkpt lat="43.61038" lon="3.85896">
        <ele>56</ele>
        <time>2021-05-14T12:06:40Z</time>
      </trkpt>
      <trkpt lat="43.61039" lon="3.85892">
        <ele>56</ele>
        <time>2021-05-14T12:06:41Z</time>
      </trkpt>
      <trkpt lat="43.6104" lon="3.85889">
        <ele>56</ele>
        <time>2021-05-14T12:06:42Z</time>
      </trkpt>
      <trkpt lat="43.61041" lon="3.85885">
        <ele>56</ele>
        <time>2021-05-14T12:06:43Z</time>
      </trkpt>
      <trkpt lat="43.61041" lon="3.85882">
        <ele>56</ele>
        <time>2021-05-14T12:06:44Z</time>
      </trkpt>
      <trkpt lat="43.61042" lon="3.85879">
        <ele>56</ele>
        <time>2021-05-14T12:06:45Z</time>
      </trkpt>
      <trkpt lat="43.61042" lon="3.85875">
        <ele>56</ele>
        <time>2021-05-14T12:06:46Z</time>
      </trkpt>
      <trkpt lat="43.61043" lon="3.85872">
        <ele>56</ele>
        <time>2021-05-14T12:06:47Z</time>
      </trkpt>
      <trkpt lat="43.61043" lon="3.85868">
        <ele>56</ele>
        <time>2021-05-14T12:06:48Z</time>
      </trkpt>
      <trkpt lat="43.61044" lon="3.85865">
        <ele>56</ele>
        <time>2021-05-14T12:06:49Z</time>
      </trkpt>
      <trkpt lat="43.61045" lon="3.85862">
        <ele>56</ele>
        <time>2021-05-14T12:06:50Z</time>
      </trkpt>
      <trkpt lat="43.61045" lon="3.85858">
        <ele>56</ele>
        <time>2021-05-14T12:06:51Z</time>
      </trkpt>
      <trkpt lat="43.61046" lon="3.85855">
        <ele>56</ele>
        <time>2021-05-14T12:06:52Z</time>
      </trkpt>
      <trkpt lat="43.61047" lon="3.85847">
        <ele>56</ele>
        <time>2021-05-14T12:06:54Z</time>
      </trkpt>
      <trkpt lat="43.61048" lon="3.85843">
        <ele>56</ele>
        <time>2021-05-14T12:06:55Z</time>
      </trkpt>
      <trkpt lat="43.61049" lon="3.8584">
        <ele>56</ele>
        <time>2021-05-14T12:06:56Z</time>
      </trkpt>
      <trkpt lat="43.61049" lon="3.85836">
        <ele>57</ele>
        <time>2021-05-14T12:06:57Z</time>
      </trkpt>
      <trkpt lat="43.61048" lon="3.85832">
        <ele>57</ele>
        <time>2021-05-14T12:06:58Z</time>
      </trkpt>
      <trkpt lat="43.61048" lon="3.85829">
        <ele>57</ele>
        <time>2021-05-14T12:06:59Z</time>
      </trkpt>
      <trkpt lat="43.61047" lon="3.85825">
        <ele>57</ele>
        <time>2021-05-14T12:07:00Z</time>
      </trkpt>
      <trkpt lat="43.61046" lon="3.85822">
        <ele>57</ele>
        <time>2021-05-14T12:07:01Z</time>
      </trkpt>
      <trkpt lat="43.61046" lon="3.85818">
        <ele>57</ele>
        <time>2021-05-14T12:07:02Z</time>
      </trkpt>
      <trkpt lat="43.61046" lon="3.85814">
        <ele>57</ele>
        <time>2021-05-14T12:07:03Z</time>
      </trkpt>
      <trkpt lat="43.61046" lon="3.8581">
        <ele>57</ele>
        <time>2021-05-14T12:07:04Z</time>
      </trkpt>
      <trkpt lat="43.61047" lon="3.85806">
        <ele>57</ele>
        <time>2021-05-14T12:07:05Z</time>
      </trkpt>
      <trkpt lat="43.61047" lon="3.85803">
        <ele>57</ele>
        <time>2021-05-14T12:07:06Z</time>
      </trkpt>
      <trkpt lat="43.61048" lon="3.85799">
        <ele>59</ele>
        <time>2021-05-14T12:07:07Z</time>
      </trkpt>
      <trkpt lat="43.61049" lon="3.85795">
        <ele>59</ele>
        <time>2021-05-14T12:07:08Z</time>
      </trkpt>
      <trkpt lat="43.6105" lon="3.85791">
        <ele>59</ele>
        <time>2021-05-14T12:07:09Z</time>
      </trkpt>
      <trkpt lat="43.6105" lon="3.85783">
        <ele>59</ele>
        <time>2021-05-14T12:07:11Z</time>
      </trkpt>
      <trkpt lat="43.6105" lon="3.85777">
        <ele>59</ele>
        <time>2021-05-14T12:07:12Z</time>
      </trkpt>
      <trkpt lat="43.61049" lon="3.85771">
        <ele>59</ele>
        <time>2021-05-14T12:07:13Z</time>
      </trkpt>
      <trkpt lat="43.61048" lon="3.85766">
        <ele>59</ele>
        <time>2021-05-14T12:07:14Z</time>
      </trkpt>
      <trkpt lat="43.61047" lon="3.8576">
        <ele>59</ele>
        <time>2021-05-14T12:07:15Z</time>
      </trkpt>
      <trkpt lat="43.61046" lon="3.85755">
        <ele>59</ele>
        <time>2021-05-14T12:07:16Z</time>
      </trkpt>
      <trkpt lat="43.61046" lon="3.85749">
        <ele>59</ele>
        <time>2021-05-14T12:07:17Z</time>
      </trkpt>
      <trkpt lat="43.61046" lon="3.85744">
        <ele>59</ele>
        <time>2021-05-14T12:07:18Z</time>
      </trkpt>
      <trkpt lat="43.61046" lon="3.85739">
        <ele>59</ele>
        <time>2021-05-14T12:07:19Z</time>
      </trkpt>
      <trkpt lat="43.61045" lon="3.85733">
        <ele>59</ele>
        <time>2021-05-14T12:07:20Z</time>
      </trkpt>
      <trkpt lat="43.61044" lon="3.85728">
        <ele>59</ele>
        <time>2021-05-14T12:07:21Z</time>
      </trkpt>
      <trkpt lat="43.61044" lon="3.85723">
        <ele>59</ele>
        <time>2021-05-14T12:07:22Z</time>
      </trkpt>
      <trkpt lat="43.61043" lon="3.85718">
        <ele>59</ele>
        <time>2021-05-14T12:07:23Z</time>
      </trkpt>
      <trkpt lat="43.61042" lon="3.85713">
        <ele>59</ele>
        <time>2021-05-14T12:07:24Z</time>
      </trkpt>
      <trkpt lat="43.61041" lon="3.85708">
        <ele>59</ele>
        <time>2021-05-14T12:07:25Z</time>
      </trkpt>
      <trkpt lat="43.6104" lon="3.85702">
        <ele>59</ele>
        <time>2021-05-14T12:07:26Z</time>
      </trkpt>
      <trkpt lat="43.6104" lon="3.85697">
        <ele>59</ele>
        <time>2021-05-14T12:07:27Z</time>
      </trkpt>
      <trkpt lat="43.61039" lon="3.85691">
        <ele>59</ele>
        <time>2021-05-14T12:07:28Z</time>
      </trkpt>
      <trkpt lat="43.61038" lon="3.85685">
        <ele>59</ele>
        <time>2021-05-14T12:07:29Z</time>
      </trkpt>
      <trkpt lat="43.61037" lon="3.8568">
        <ele>59</ele>
        <time>2021-05-14T12:07:30Z</time>
      </trkpt>
      <trkpt lat="43.61037" lon="3.85675">
        <ele>59</ele>
        <time>2021-05-14T12:07:31Z</time>
      </trkpt>
      <trkpt lat="43.61036" lon="3.85669">
        <ele>59</ele>
        <time>2021-05-14T12:07:32Z</time>
      </trkpt>
      <trkpt lat="43.61035" lon="3.85663">
        <ele>59</ele>
        <time>2021-05-14T12:07:33Z</time>
      </trkpt>
      <trkpt lat="43.61035" lon="3.85657">
        <ele>59</ele>
        <time>2021-05-14T12:07:34Z</time>
      </trkpt>
      <trkpt lat="43.61034" lon="3.85651">
        <ele>59</ele>
        <time>2021-05-14T12:07:35Z</time>
      </trkpt>
      <trkpt lat="43.61033" lon="3.85645">
        <ele>59</ele>
        <time>2021-05-14T12:07:36Z</time>
      </trkpt>
      <trkpt lat="43.61033" lon="3.85639">
        <ele>59</ele>
        <time>2021-05-14T12:07:37Z</time>
      </trkpt>
      <trkpt lat="43.61032" lon="3.85633">
        <ele>59</ele>
        <time>2021-05-14T12:07:38Z</time>
      </trkpt>
      <trkpt lat="43.61032" lon="3.85627">
        <ele>59</ele>
        <time>2021-05-14T12:07:39Z</time>
      </trkpt>
      <trkpt lat="43.61031" lon="3.85621">
        <ele>59</ele>
        <time>2021-05-14T12:07:40Z</time>
      </trkpt>
      <trkpt lat="43.6103" lon="3.85614">
        <ele>59</ele>
        <time>2021-05-14T12:07:41Z</time>
      </trkpt>
      <trkpt lat="43.6103" lon="3.85609">
        <ele>59</ele>
        <time>2021-05-14T12:07:42Z</time>
      </trkpt>
      <trkpt lat="43.61029" lon="3.85603">
        <ele>59</ele>
        <time>2021-05-14T12:07:43Z</time>
      </trkpt>
      <trkpt lat="43.61028" lon="3.85598">
        <ele>59</ele>
        <time>2021-05-14T12:07:44Z</time>
      </trkpt>
      <trkpt lat="43.61028" lon="3.85592">
        <ele>59</ele>
        <time>2021-05-14T12:07:45Z</time>
      </trkpt>
      <trkpt lat="43.61027" lon="3.85587">
        <ele>59</ele>
        <time>2021-05-14T12:07:46Z</time>
      </trkpt>
      <trkpt lat="43.61026" lon="3.85581">
        <ele>60</ele>
        <time>2021-05-14T12:07:47Z</time>
      </trkpt>
      <trkpt lat="43.61026" lon="3.85575">
        <ele>60</ele>
        <time>2021-05-14T12:07:48Z</time>
      </trkpt>
      <trkpt lat="43.61025" lon="3.85569">
        <ele>60</ele>
        <time>2021-05-14T12:07:49Z</time>
      </trkpt>
      <trkpt lat="43.61024" lon="3.85563">
        <ele>60</ele>
        <time>2021-05-14T12:07:50Z</time>
      </trkpt>
      <trkpt lat="43.61024" lon="3.85557">
        <ele>60</ele>
        <time>2021-05-14T12:07:51Z</time>
      </trkpt>
      <trkpt lat="43.61023" lon="3.85551">
        <ele>60</ele>
        <time>2021-05-14T12:07:52Z</time>
      </trkpt>
      <trkpt lat="43.61022" lon="3.85545">
        <ele>60</ele>
        <time>2021-05-14T12:07:53Z</time>
      </trkpt>
      <trkpt lat="43.61022" lon="3.85539">
        <ele>60</ele>
        <time>2021-05-14T12:07:54Z</time>
      </trkpt>
      <trkpt lat="43.61021" lon="3.85533">
        <ele>60</ele>
        <time>2021-05-14T12:07:55Z</time>
      </trkpt>
      <trkpt lat="43.61021" lon="3.85527">
        <ele>60</ele>
        <time>2021-05-14T12:07:56Z</time>
      </trkpt>
      <trkpt lat="43.6102" lon="3.85522">
        <ele>60</ele>
        <time>2021-05-14T12:07:57Z</time>
      </trkpt>
      <trkpt lat="43.61019" lon="3.85516">
        <ele>60</ele>
        <time>2021-05-14T12:07:58Z</time>
      </trkpt>
      <trkpt lat="43.61019" lon="3.85511">
        <ele>60</ele>
        <time>2021-05-14T12:07:59Z</time>
      </trkpt>
      <trkpt lat="43.61019" lon="3.85506">
        <ele>60</ele>
        <time>2021-05-14T12:08:00Z</time>
      </trkpt>
      <trkpt lat="43.61018" lon="3.85501">
        <ele>60</ele>
        <time>2021-05-14T12:08:01Z</time>
      </trkpt>
      <trkpt lat="43.61018" lon="3.85496">
        <ele>60</ele>
        <time>2021-05-14T12:08:02Z</time>
      </trkpt>
      <trkpt lat="43.61017" lon="3.8549">
        <ele>60</ele>
        <time>2021-05-14T12:08:03Z</time>
      </trkpt>
      <trkpt lat="43.61017" lon="3.85485">
        <ele>60</ele>
        <time>2021-05-14T12:08:04Z</time>
      </trkpt>
      <trkpt lat="43.61016" lon="3.85481">
        <ele>60</ele>
        <time>2021-05-14T12:08:05Z</time>
      </trkpt>
      <trkpt lat="43.61015" lon="3.85475">
        <ele>60</ele>
        <time>2021-05-14T12:08:06Z</time>
      </trkpt>
      <trkpt lat="43.61015" lon="3.8547">
        <ele>61</ele>
        <time>2021-05-14T12:08:07Z</time>
      </trkpt>
      <trkpt lat="43.61014" lon="3.85465">
        <ele>61</ele>
        <time>2021-05-14T12:08:08Z</time>
      </trkpt>
      <trkpt lat="43.61014" lon="3.8546">
        <ele>61</ele>
        <time>2021-05-14T12:08:09Z</time>
      </trkpt>
      <trkpt lat="43.61013" lon="3.85455">
        <ele>61</ele>
        <time>2021-05-14T12:08:10Z</time>
      </trkpt>
      <trkpt lat="43.61013" lon="3.8545">
        <ele>61</ele>
        <time>2021-05-14T12:08:11Z</time>
      </trkpt>
      <trkpt lat="43.61012" lon="3.85444">
        <ele>61</ele>
        <time>2021-05-14T12:08:12Z</time>
      </trkpt>
      <trkpt lat="43.61012" lon="3.85439">
        <ele>61</ele>
        <time>2021-05-14T12:08:13Z</time>
      </trkpt>
      <trkpt lat="43.61011" lon="3.85434">
        <ele>61</ele>
        <time>2021-05-14T12:08:14Z</time>
      </trkpt>
      <trkpt lat="43.61011" lon="3.8543">
        <ele>61</ele>
        <time>2021-05-14T12:08:15Z</time>
      </trkpt>
      <trkpt lat="43.6101" lon="3.85425">
        <ele>61</ele>
        <time>2021-05-14T12:08:16Z</time>
      </trkpt>
      <trkpt lat="43.6101" lon="3.85419">
        <ele>62</ele>
        <time>2021-05-14T12:08:17Z</time>
      </trkpt>
      <trkpt lat="43.6101" lon="3.85414">
        <ele>62</ele>
        <time>2021-05-14T12:08:18Z</time>
      </trkpt>
      <trkpt lat="43.6101" lon="3.85409">
        <ele>62</ele>
        <time>2021-05-14T12:08:19Z</time>
      </trkpt>
      <trkpt lat="43.61009" lon="3.85404">
        <ele>62</ele>
        <time>2021-05-14T12:08:20Z</time>
      </trkpt>
      <trkpt lat="43.61009" lon="3.85399">
        <ele>62</ele>
        <time>2021-05-14T12:08:21Z</time>
      </trkpt>
      <trkpt lat="43.61009" lon="3.85394">
        <ele>62</ele>
        <time>2021-05-14T12:08:22Z</time>
      </trkpt>
      <trkpt lat="43.61009" lon="3.85388">
        <ele>62</ele>
        <time>2021-05-14T12:08:23Z</time>
      </trkpt>
      <trkpt lat="43.61009" lon="3.85383">
        <ele>62</ele>
        <time>2021-05-14T12:08:24Z</time>
      </trkpt>
      <trkpt lat="43.61009" lon="3.85378">
        <ele>62</ele>
        <time>2021-05-14T12:08:25Z</time>
      </trkpt>
      <trkpt lat="43.61009" lon="3.85372">
        <ele>62</ele>
        <time>2021-05-14T12:08:26Z</time>
      </trkpt>
      <trkpt lat="43.61009" lon="3.85367">
        <ele>64</ele>
        <time>2021-05-14T12:08:27Z</time>
      </trkpt>
      <trkpt lat="43.6101" lon="3.85362">
        <ele>64</ele>
        <time>2021-05-14T12:08:28Z</time>
      </trkpt>
      <trkpt lat="43.6101" lon="3.85357">
        <ele>64</ele>
        <time>2021-05-14T12:08:29Z</time>
      </trkpt>
      <trkpt lat="43.6101" lon="3.85346">
        <ele>64</ele>
        <time>2021-05-14T12:08:31Z</time>
      </trkpt>
      <trkpt lat="43.6101" lon="3.85342">
        <ele>64</ele>
        <time>2021-05-14T12:08:32Z</time>
      </trkpt>
      <trkpt lat="43.6101" lon="3.85339">
        <ele>64</ele>
        <time>2021-05-14T12:08:33Z</time>
      </trkpt>
      <trkpt lat="43.61009" lon="3.85336">
        <ele>64</ele>
        <time>2021-05-14T12:08:35Z</time>
      </trkpt>
      <trkpt lat="43.6101" lon="3.85329">
        <ele>67</ele>
        <time>2021-05-14T12:09:02Z</time>
      </trkpt>
      <trkpt lat="43.61011" lon="3.85322">
        <ele>67</ele>
        <time>2021-05-14T12:09:03Z</time>
      </trkpt>
      <trkpt lat="43.6101" lon="3.85313">
        <ele>67</ele>
        <time>2021-05-14T12:09:05Z</time>
      </trkpt>
      <trkpt lat="43.6101" lon="3.85308">
        <ele>67</ele>
        <time>2021-05-14T12:09:06Z</time>
      </trkpt>
      <trkpt lat="43.6101" lon="3.85304">
        <ele>67</ele>
        <time>2021-05-14T12:09:07Z</time>
      </trkpt>
      <trkpt lat="43.6101" lon="3.85299">
        <ele>67</ele>
        <time>2021-05-14T12:09:08Z</time>
      </trkpt>
      <trkpt lat="43.61011" lon="3.85294">
        <ele>67</ele>
        <time>2021-05-14T12:09:09Z</time>
      </trkpt>
      <trkpt lat="43.61011" lon="3.85289">
        <ele>67</ele>
        <time>2021-05-14T12:09:10Z</time>
      </trkpt>
      <trkpt lat="43.61011" lon="3.85284">
        <ele>67</ele>
        <time>2021-05-14T12:09:11Z</time>
      </trkpt>
      <trkpt lat="43.61012" lon="3.85279">
        <ele>68</ele>
        <time>2021-05-14T12:09:12Z</time>
      </trkpt>
      <trkpt lat="43.61012" lon="3.85269">
        <ele>68</ele>
        <time>2021-05-14T12:09:14Z</time>
      </trkpt>
      <trkpt lat="43.61013" lon="3.85264">
        <ele>68</ele>
        <time>2021-05-14T12:09:15Z</time>
      </trkpt>
      <trkpt lat="43.61013" lon="3.8526">
        <ele>68</ele>
        <time>2021-05-14T12:09:16Z</time>
      </trkpt>
      <trkpt lat="43.61014" lon="3.85255">
        <ele>68</ele>
        <time>2021-05-14T12:09:17Z</time>
      </trkpt>
      <trkpt lat="43.61015" lon="3.8525">
        <ele>68</ele>
        <time>2021-05-14T12:09:18Z</time>
      </trkpt>
      <trkpt lat="43.61015" lon="3.85245">
        <ele>68</ele>
        <time>2021-05-14T12:09:19Z</time>
      </trkpt>
      <trkpt lat="43.61015" lon="3.8524">
        <ele>68</ele>
        <time>2021-05-14T12:09:20Z</time>
      </trkpt>
      <trkpt lat="43.61016" lon="3.85235">
        <ele>68</ele>
        <time>2021-05-14T12:09:21Z</time>
      </trkpt>
      <trkpt lat="43.61017" lon="3.85225">
        <ele>68</ele>
        <time>2021-05-14T12:09:23Z</time>
      </trkpt>
      <trkpt lat="43.61018" lon="3.8522">
        <ele>68</ele>
        <time>2021-05-14T12:09:24Z</time>
      </trkpt>
      <trkpt lat="43.61019" lon="3.85215">
        <ele>68</ele>
        <time>2021-05-14T12:09:25Z</time>
      </trkpt>
      <trkpt lat="43.61019" lon="3.8521">
        <ele>68</ele>
        <time>2021-05-14T12:09:26Z</time>
      </trkpt>
      <trkpt lat="43.61019" lon="3.85205">
        <ele>68</ele>
        <time>2021-05-14T12:09:27Z</time>
      </trkpt>
      <trkpt lat="43.61019" lon="3.85198">
        <ele>68</ele>
        <time>2021-05-14T12:09:28Z</time>
      </trkpt>
      <trkpt lat="43.6102" lon="3.85193">
        <ele>68</ele>
        <time>2021-05-14T12:09:29Z</time>
      </trkpt>
      <trkpt lat="43.6102" lon="3.85187">
        <ele>68</ele>
        <time>2021-05-14T12:09:30Z</time>
      </trkpt>
      <trkpt lat="43.61021" lon="3.85175">
        <ele>71</ele>
        <time>2021-05-14T12:09:32Z</time>
      </trkpt>
      <trkpt lat="43.61021" lon="3.8517">
        <ele>71</ele>
        <time>2021-05-14T12:09:33Z</time>
      </trkpt>
      <trkpt lat="43.61022" lon="3.85164">
        <ele>71</ele>
        <time>2021-05-14T12:09:34Z</time>
      </trkpt>
      <trkpt lat="43.61022" lon="3.85158">
        <ele>71</ele>
        <time>2021-05-14T12:09:35Z</time>
      </trkpt>
      <trkpt lat="43.61022" lon="3.85152">
        <ele>71</ele>
        <time>2021-05-14T12:09:36Z</time>
      </trkpt>
      <trkpt lat="43.61023" lon="3.85146">
        <ele>71</ele>
        <time>2021-05-14T12:09:37Z</time>
      </trkpt>
      <trkpt lat="43.61024" lon="3.85141">
        <ele>71</ele>
        <time>2021-05-14T12:09:38Z</time>
      </trkpt>
      <trkpt lat="43.61024" lon="3.85135">
        <ele>71</ele>
        <time>2021-05-14T12:09:39Z</time>
      </trkpt>
      <trkpt lat="43.61025" lon="3.85129">
        <ele>71</ele>
        <time>2021-05-14T12:09:40Z</time>
      </trkpt>
      <trkpt lat="43.61026" lon="3.85123">
        <ele>71</ele>
        <time>2021-05-14T12:09:41Z</time>
      </trkpt>
      <trkpt lat="43.61027" lon="3.85117">
        <ele>71</ele>
        <time>2021-05-14T12:09:42Z</time>
      </trkpt>
      <trkpt lat="43.61028" lon="3.85112">
        <ele>71</ele>
        <time>2021-05-14T12:09:43Z</time>
      </trkpt>
      <trkpt lat="43.61027" lon="3.85107">
        <ele>71</ele>
        <time>2021-05-14T12:09:44Z</time>
      </trkpt>
      <trkpt lat="43.61028" lon="3.85103">
        <ele>71</ele>
        <time>2021-05-14T12:09:45Z</time>
      </trkpt>
      <trkpt lat="43.61027" lon="3.85099">
        <ele>71</ele>
        <time>2021-05-14T12:09:46Z</time>
      </trkpt>
      <trkpt lat="43.61027" lon="3.85096">
        <ele>71</ele>
        <time>2021-05-14T12:09:47Z</time>
      </trkpt>
      <trkpt lat="43.61028" lon="3.85092">
        <ele>71</ele>
        <time>2021-05-14T12:09:48Z</time>
      </trkpt>
      <trkpt lat="43.61028" lon="3.85088">
        <ele>71</ele>
        <time>2021-05-14T12:09:49Z</time>
      </trkpt>
      <trkpt lat="43.61029" lon="3.85083">
        <ele>71</ele>
        <time>2021-05-14T12:09:50Z</time>
      </trkpt>
      <trkpt lat="43.61029" lon="3.85078">
        <ele>71</ele>
        <time>2021-05-14T12:09:51Z</time>
      </trkpt>
      <trkpt lat="43.6103" lon="3.85073">
        <ele>70</ele>
        <time>2021-05-14T12:09:52Z</time>
      </trkpt>
      <trkpt lat="43.61031" lon="3.85067">
        <ele>70</ele>
        <time>2021-05-14T12:09:53Z</time>
      </trkpt>
      <trkpt lat="43.61032" lon="3.85062">
        <ele>70</ele>
        <time>2021-05-14T12:09:54Z</time>
      </trkpt>
      <trkpt lat="43.61033" lon="3.85057">
        <ele>70</ele>
        <time>2021-05-14T12:09:55Z</time>
      </trkpt>
      <trkpt lat="43.61034" lon="3.85053">
        <ele>70</ele>
        <time>2021-05-14T12:09:56Z</time>
      </trkpt>
      <trkpt lat="43.61035" lon="3.85048">
        <ele>70</ele>
        <time>2021-05-14T12:09:57Z</time>
      </trkpt>
      <trkpt lat="43.61036" lon="3.85043">
        <ele>70</ele>
        <time>2021-05-14T12:09:58Z</time>
      </trkpt>
      <trkpt lat="43.61037" lon="3.85038">
        <ele>70</ele>
        <time>2021-05-14T12:09:59Z</time>
      </trkpt>
      <trkpt lat="43.61038" lon="3.85032">
        <ele>70</ele>
        <time>2021-05-14T12:10:00Z</time>
      </trkpt>
      <trkpt lat="43.61038" lon="3.85027">
        <ele>70</ele>
        <time>2021-05-14T12:10:01Z</time>
      </trkpt>
      <trkpt lat="43.61039" lon="3.85021">
        <ele>70</ele>
        <time>2021-05-14T12:10:02Z</time>
      </trkpt>
      <trkpt lat="43.61039" lon="3.85016">
        <ele>70</ele>
        <time>2021-05-14T12:10:03Z</time>
      </trkpt>
      <trkpt lat="43.61041" lon="3.85012">
        <ele>70</ele>
        <time>2021-05-14T12:10:04Z</time>
      </trkpt>
      <trkpt lat="43.61041" lon="3.85006">
        <ele>70</ele>
        <time>2021-05-14T12:10:05Z</time>
      </trkpt>
      <trkpt lat="43.61043" lon="3.85002">
        <ele>70</ele>
        <time>2021-05-14T12:10:06Z</time>
      </trkpt>
      <trkpt lat="43.61043" lon="3.84997">
        <ele>70</ele>
        <time>2021-05-14T12:10:07Z</time>
      </trkpt>
      <trkpt lat="43.61045" lon="3.84992">
        <ele>70</ele>
        <time>2021-05-14T12:10:08Z</time>
      </trkpt>
      <trkpt lat="43.61045" lon="3.84987">
        <ele>70</ele>
        <time>2021-05-14T12:10:09Z</time>
      </trkpt>
      <trkpt lat="43.61046" lon="3.84983">
        <ele>70</ele>
        <time>2021-05-14T12:10:10Z</time>
      </trkpt>
      <trkpt lat="43.61045" lon="3.84979">
        <ele>70</ele>
        <time>2021-05-14T12:10:11Z</time>
      </trkpt>
      <trkpt lat="43.61043" lon="3.84975">
        <ele>72</ele>
        <time>2021-05-14T12:10:12Z</time>
      </trkpt>
      <trkpt lat="43.61039" lon="3.84971">
        <ele>72</ele>
        <time>2021-05-14T12:10:13Z</time>
      </trkpt>
      <trkpt lat="43.61036" lon="3.84967">
        <ele>72</ele>
        <time>2021-05-14T12:10:14Z</time>
      </trkpt>
      <trkpt lat="43.61032" lon="3.84964">
        <ele>72</ele>
        <time>2021-05-14T12:10:15Z</time>
      </trkpt>
      <trkpt lat="43.61028" lon="3.8496">
        <ele>72</ele>
        <time>2021-05-14T12:10:16Z</time>
      </trkpt>
      <trkpt lat="43.61024" lon="3.84957">
        <ele>72</ele>
        <time>2021-05-14T12:10:17Z</time>
      </trkpt>
      <trkpt lat="43.6102" lon="3.84954">
        <ele>72</ele>
        <time>2021-05-14T12:10:18Z</time>
      </trkpt>
      <trkpt lat="43.61016" lon="3.84951">
        <ele>72</ele>
        <time>2021-05-14T12:10:19Z</time>
      </trkpt>
      <trkpt lat="43.61012" lon="3.84947">
        <ele>72</ele>
        <time>2021-05-14T12:10:20Z</time>
      </trkpt>
      <trkpt lat="43.61008" lon="3.84944">
        <ele>72</ele>
        <time>2021-05-14T12:10:21Z</time>
      </trkpt>
      <trkpt lat="43.61005" lon="3.84941">
        <ele>73</ele>
        <time>2021-05-14T12:10:22Z</time>
      </trkpt>
      <trkpt lat="43.61001" lon="3.84938">
        <ele>73</ele>
        <time>2021-05-14T12:10:23Z</time>
      </trkpt>
      <trkpt lat="43.60997" lon="3.84936">
        <ele>73</ele>
        <time>2021-05-14T12:10:24Z</time>
      </trkpt>
      <trkpt lat="43.60994" lon="3.84933">
        <ele>73</ele>
        <time>2021-05-14T12:10:25Z</time>
      </trkpt>
      <trkpt lat="43.60991" lon="3.84931">
        <ele>73</ele>
        <time>2021-05-14T12:10:26Z</time>
      </trkpt>
      <trkpt lat="43.60988" lon="3.84928">
        <ele>73</ele>
        <time>2021-05-14T12:10:27Z</time>
      </trkpt>
      <trkpt lat="43.60981" lon="3.84924">
        <ele>73</ele>
        <time>2021-05-14T12:10:29Z</time>
      </trkpt>
      <trkpt lat="43.60977" lon="3.84921">
        <ele>73</ele>
        <time>2021-05-14T12:10:30Z</time>
      </trkpt>
      <trkpt lat="43.60974" lon="3.84918">
        <ele>73</ele>
        <time>2021-05-14T12:10:31Z</time>
      </trkpt>
      <trkpt lat="43.60971" lon="3.84916">
        <ele>75</ele>
        <time>2021-05-14T12:10:32Z</time>
      </trkpt>
      <trkpt lat="43.60968" lon="3.84912">
        <ele>75</ele>
        <time>2021-05-14T12:10:33Z</time>
      </trkpt>
      <trkpt lat="43.60965" lon="3.84908">
        <ele>75</ele>
        <time>2021-05-14T12:10:34Z</time>
      </trkpt>
      <trkpt lat="43.60963" lon="3.84904">
        <ele>75</ele>
        <time>2021-05-14T12:10:35Z</time>
      </trkpt>
      <trkpt lat="43.6096" lon="3.84901">
        <ele>75</ele>
        <time>2021-05-14T12:10:36Z</time>
      </trkpt>
      <trkpt lat="43.60958" lon="3.84896">
        <ele>75</ele>
        <time>2021-05-14T12:10:37Z</time>
      </trkpt>
      <trkpt lat="43.60956" lon="3.84892">
        <ele>75</ele>
        <time>2021-05-14T12:10:38Z</time>
      </trkpt>
      <trkpt lat="43.60953" lon="3.84889">
        <ele>75</ele>
        <time>2021-05-14T12:10:39Z</time>
      </trkpt>
      <trkpt lat="43.60951" lon="3.84885">
        <ele>75</ele>
        <time>2021-05-14T12:10:40Z</time>
      </trkpt>
      <trkpt lat="43.60949" lon="3.8488">
        <ele>75</ele>
        <time>2021-05-14T12:10:41Z</time>
      </trkpt>
      <trkpt lat="43.60947" lon="3.84875">
        <ele>75</ele>
        <time>2021-05-14T12:10:42Z</time>
      </trkpt>
      <trkpt lat="43.60946" lon="3.84871">
        <ele>75</ele>
        <time>2021-05-14T12:10:43Z</time>
      </trkpt>
      <trkpt lat="43.60944" lon="3.84866">
        <ele>75</ele>
        <time>2021-05-14T12:10:44Z</time>
      </trkpt>
      <trkpt lat="43.60942" lon="3.84862">
        <ele>75</ele>
        <time>2021-05-14T12:10:45Z</time>
      </trkpt>
      <trkpt lat="43.6094" lon="3.84857">
        <ele>75</ele>
        <time>2021-05-14T12:10:46Z</time>
      </trkpt>
      <trkpt lat="43.60937" lon="3.84852">
        <ele>75</ele>
        <time>2021-05-14T12:10:47Z</time>
      </trkpt>
      <trkpt lat="43.60935" lon="3.84847">
        <ele>75</ele>
        <time>2021-05-14T12:10:48Z</time>
      </trkpt>
      <trkpt lat="43.60932" lon="3.84842">
        <ele>75</ele>
        <time>2021-05-14T12:10:49Z</time>
      </trkpt>
      <trkpt lat="43.60929" lon="3.84837">
        <ele>75</ele>
        <time>2021-05-14T12:10:50Z</time>
      </trkpt>
      <trkpt lat="43.60926" lon="3.84832">
        <ele>75</ele>
        <time>2021-05-14T12:10:51Z</time>
      </trkpt>
      <trkpt lat="43.60923" lon="3.84828">
        <ele>74</ele>
        <time>2021-05-14T12:10:52Z</time>
      </trkpt>
      <trkpt lat="43.6092" lon="3.84823">
        <ele>74</ele>
        <time>2021-05-14T12:10:53Z</time>
      </trkpt>
      <trkpt lat="43.60914" lon="3.84814">
        <ele>74</ele>
        <time>2021-05-14T12:10:55Z</time>
      </trkpt>
      <trkpt lat="43.6091" lon="3.84809">
        <ele>74</ele>
        <time>2021-05-14T12:10:56Z</time>
      </trkpt>
      <trkpt lat="43.60907" lon="3.84805">
        <ele>74</ele>
        <time>2021-05-14T12:10:57Z</time>
      </trkpt>
      <trkpt lat="43.60904" lon="3.848">
        <ele>74</ele>
        <time>2021-05-14T12:10:58Z</time>
      </trkpt>
      <trkpt lat="43.60901" lon="3.84795">
        <ele>74</ele>
        <time>2021-05-14T12:10:59Z</time>
      </trkpt>
      <trkpt lat="43.60898" lon="3.8479">
        <ele>74</ele>
        <time>2021-05-14T12:11:00Z</time>
      </trkpt>
      <trkpt lat="43.60897" lon="3.84785">
        <ele>74</ele>
        <time>2021-05-14T12:11:01Z</time>
      </trkpt>
      <trkpt lat="43.60896" lon="3.8478">
        <ele>73</ele>
        <time>2021-05-14T12:11:02Z</time>
      </trkpt>
      <trkpt lat="43.60894" lon="3.84769">
        <ele>73</ele>
        <time>2021-05-14T12:11:04Z</time>
      </trkpt>
      <trkpt lat="43.60892" lon="3.84764">
        <ele>73</ele>
        <time>2021-05-14T12:11:05Z</time>
      </trkpt>
      <trkpt lat="43.6089" lon="3.84759">
        <ele>73</ele>
        <time>2021-05-14T12:11:06Z</time>
      </trkpt>
      <trkpt lat="43.60888" lon="3.84754">
        <ele>73</ele>
        <time>2021-05-14T12:11:07Z</time>
      </trkpt>
      <trkpt lat="43.60887" lon="3.84749">
        <ele>73</ele>
        <time>2021-05-14T12:11:08Z</time>
      </trkpt>
      <trkpt lat="43.60886" lon="3.84743">
        <ele>73</ele>
        <time>2021-05-14T12:11:09Z</time>
      </trkpt>
      <trkpt lat="43.60887" lon="3.84736">
        <ele>73</ele>
        <time>2021-05-14T12:11:10Z</time>
      </trkpt>
      <trkpt lat="43.60887" lon="3.8473">
        <ele>73</ele>
        <time>2021-05-14T12:11:11Z</time>
      </trkpt>
      <trkpt lat="43.60887" lon="3.84724">
        <ele>71</ele>
        <time>2021-05-14T12:11:12Z</time>
      </trkpt>
      <trkpt lat="43.60888" lon="3.84717">
        <ele>71</ele>
        <time>2021-05-14T12:11:13Z</time>
      </trkpt>
      <trkpt lat="43.60888" lon="3.84711">
        <ele>71</ele>
        <time>2021-05-14T12:11:14Z</time>
      </trkpt>
      <trkpt lat="43.60888" lon="3.84704">
        <ele>71</ele>
        <time>2021-05-14T12:11:15Z</time>
      </trkpt>
      <trkpt lat="43.60888" lon="3.84697">
        <ele>71</ele>
        <time>2021-05-14T12:11:16Z</time>
      </trkpt>
      <trkpt lat="43.60889" lon="3.8469">
        <ele>71</ele>
        <time>2021-05-14T12:11:17Z</time>
      </trkpt>
      <trkpt lat="43.60889" lon="3.84683">
        <ele>71</ele>
        <time>2021-05-14T12:11:18Z</time>
      </trkpt>
      <trkpt lat="43.60889" lon="3.84676">
        <ele>71</ele>
        <time>2021-05-14T12:11:19Z</time>
      </trkpt>
      <trkpt lat="43.60889" lon="3.84669">
        <ele>71</ele>
        <time>2021-05-14T12:11:20Z</time>
      </trkpt>
      <trkpt lat="43.60889" lon="3.84662">
        <ele>71</ele>
        <time>2021-05-14T12:11:21Z</time>
      </trkpt>
      <trkpt lat="43.6089" lon="3.84654">
        <ele>70</ele>
        <time>2021-05-14T12:11:22Z</time>
      </trkpt>
      <trkpt lat="43.6089" lon="3.84646">
        <ele>70</ele>
        <time>2021-05-14T12:11:23Z</time>
      </trkpt>
      <trkpt lat="43.6089" lon="3.84639">
        <ele>70</ele>
        <time>2021-05-14T12:11:24Z</time>
      </trkpt>
      <trkpt lat="43.60891" lon="3.84623">
        <ele>70</ele>
        <time>2021-05-14T12:11:26Z</time>
      </trkpt>
      <trkpt lat="43.60892" lon="3.84615">
        <ele>70</ele>
        <time>2021-05-14T12:11:27Z</time>
      </trkpt>
      <trkpt lat="43.60893" lon="3.84607">
        <ele>70</ele>
        <time>2021-05-14T12:11:28Z</time>
      </trkpt>
      <trkpt lat="43.60895" lon="3.846">
        <ele>70</ele>
        <time>2021-05-14T12:11:29Z</time>
      </trkpt>
      <trkpt lat="43.60896" lon="3.84592">
        <ele>70</ele>
        <time>2021-05-14T12:11:30Z</time>
      </trkpt>
      <trkpt lat="43.60897" lon="3.84584">
        <ele>70</ele>
        <time>2021-05-14T12:11:31Z</time>
      </trkpt>
      <trkpt lat="43.60897" lon="3.84576">
        <ele>68</ele>
        <time>2021-05-14T12:11:32Z</time>
      </trkpt>
      <trkpt lat="43.60897" lon="3.84568">
        <ele>68</ele>
        <time>2021-05-14T12:11:33Z</time>
      </trkpt>
      <trkpt lat="43.60897" lon="3.8456">
        <ele>68</ele>
        <time>2021-05-14T12:11:34Z</time>
      </trkpt>
      <trkpt lat="43.60897" lon="3.84551">
        <ele>68</ele>
        <time>2021-05-14T12:11:35Z</time>
      </trkpt>
      <trkpt lat="43.60896" lon="3.84543">
        <ele>68</ele>
        <time>2021-05-14T12:11:36Z</time>
      </trkpt>
      <trkpt lat="43.60896" lon="3.84534">
        <ele>68</ele>
        <time>2021-05-14T12:11:37Z</time>
      </trkpt>
      <trkpt lat="43.60895" lon="3.84526">
        <ele>68</ele>
        <time>2021-05-14T12:11:38Z</time>
      </trkpt>
      <trkpt lat="43.60895" lon="3.84517">
        <ele>68</ele>
        <time>2021-05-14T12:11:39Z</time>
      </trkpt>
      <trkpt lat="43.60894" lon="3.84509">
        <ele>68</ele>
        <time>2021-05-14T12:11:40Z</time>
      </trkpt>
      <trkpt lat="43.60894" lon="3.845">
        <ele>68</ele>
        <time>2021-05-14T12:11:41Z</time>
      </trkpt>
      <trkpt lat="43.60893" lon="3.84482">
        <ele>68</ele>
        <time>2021-05-14T12:11:43Z</time>
      </trkpt>
      <trkpt lat="43.60893" lon="3.84473">
        <ele>68</ele>
        <time>2021-05-14T12:11:44Z</time>
      </trkpt>
      <trkpt lat="43.60893" lon="3.84463">
        <ele>68</ele>
        <time>2021-05-14T12:11:45Z</time>
      </trkpt>
      <trkpt lat="43.60893" lon="3.84454">
        <ele>68</ele>
        <time>2021-05-14T12:11:46Z</time>
      </trkpt>
      <trkpt lat="43.60894" lon="3.84445">
        <ele>68</ele>
        <time>2021-05-14T12:11:47Z</time>
      </trkpt>
      <trkpt lat="43.60895" lon="3.84436">
        <ele>68</ele>
        <time>2021-05-14T12:11:48Z</time>
      </trkpt>
      <trkpt lat="43.60895" lon="3.84426">
        <ele>68</ele>
        <time>2021-05-14T12:11:49Z</time>
      </trkpt>
      <trkpt lat="43.60896" lon="3.84417">
        <ele>68</ele>
        <time>2021-05-14T12:11:50Z</time>
      </trkpt>
      <trkpt lat="43.60897" lon="3.84407">
        <ele>68</ele>
        <time>2021-05-14T12:11:51Z</time>
      </trkpt>
      <trkpt lat="43.60897" lon="3.84398">
        <ele>65</ele>
        <time>2021-05-14T12:11:52Z</time>
      </trkpt>
      <trkpt lat="43.60897" lon="3.84388">
        <ele>65</ele>
        <time>2021-05-14T12:11:53Z</time>
      </trkpt>
      <trkpt lat="43.60896" lon="3.84379">
        <ele>65</ele>
        <time>2021-05-14T12:11:54Z</time>
      </trkpt>
      <trkpt lat="43.60895" lon="3.84359">
        <ele>65</ele>
        <time>2021-05-14T12:11:56Z</time>
      </trkpt>
      <trkpt lat="43.60895" lon="3.84349">
        <ele>65</ele>
        <time>2021-05-14T12:11:57Z</time>
      </trkpt>
      <trkpt lat="43.60896" lon="3.84338">
        <ele>65</ele>
        <time>2021-05-14T12:11:58Z</time>
      </trkpt>
      <trkpt lat="43.60897" lon="3.84328">
        <ele>65</ele>
        <time>2021-05-14T12:11:59Z</time>
      </trkpt>
      <trkpt lat="43.60898" lon="3.84318">
        <ele>65</ele>
        <time>2021-05-14T12:12:00Z</time>
      </trkpt>
      <trkpt lat="43.60899" lon="3.84308">
        <ele>65</ele>
        <time>2021-05-14T12:12:01Z</time>
      </trkpt>
      <trkpt lat="43.609" lon="3.84299">
        <ele>64</ele>
        <time>2021-05-14T12:12:02Z</time>
      </trkpt>
      <trkpt lat="43.609" lon="3.84289">
        <ele>64</ele>
        <time>2021-05-14T12:12:03Z</time>
      </trkpt>
      <trkpt lat="43.60901" lon="3.8428">
        <ele>64</ele>
        <time>2021-05-14T12:12:04Z</time>
      </trkpt>
      <trkpt lat="43.60902" lon="3.8427">
        <ele>64</ele>
        <time>2021-05-14T12:12:05Z</time>
      </trkpt>
      <trkpt lat="43.60902" lon="3.84261">
        <ele>64</ele>
        <time>2021-05-14T12:12:06Z</time>
      </trkpt>
      <trkpt lat="43.60902" lon="3.84251">
        <ele>64</ele>
        <time>2021-05-14T12:12:07Z</time>
      </trkpt>
      <trkpt lat="43.60901" lon="3.84242">
        <ele>64</ele>
        <time>2021-05-14T12:12:08Z</time>
      </trkpt>
      <trkpt lat="43.609" lon="3.84233">
        <ele>64</ele>
        <time>2021-05-14T12:12:09Z</time>
      </trkpt>
      <trkpt lat="43.609" lon="3.84224">
        <ele>64</ele>
        <time>2021-05-14T12:12:10Z</time>
      </trkpt>
      <trkpt lat="43.60899" lon="3.84215">
        <ele>64</ele>
        <time>2021-05-14T12:12:11Z</time>
      </trkpt>
      <trkpt lat="43.60899" lon="3.84206">
        <ele>63</ele>
        <time>2021-05-14T12:12:12Z</time>
      </trkpt>
      <trkpt lat="43.60899" lon="3.84198">
        <ele>63</ele>
        <time>2021-05-14T12:12:13Z</time>
      </trkpt>
      <trkpt lat="43.60899" lon="3.8419">
        <ele>63</ele>
        <time>2021-05-14T12:12:14Z</time>
      </trkpt>
      <trkpt lat="43.60898" lon="3.84182">
        <ele>63</ele>
        <time>2021-05-14T12:12:15Z</time>
      </trkpt>
      <trkpt lat="43.60898" lon="3.84167">
        <ele>63</ele>
        <time>2021-05-14T12:12:17Z</time>
      </trkpt>
      <trkpt lat="43.60898" lon="3.84159">
        <ele>63</ele>
        <time>2021-05-14T12:12:18Z</time>
      </trkpt>
      <trkpt lat="43.60899" lon="3.84152">
        <ele>63</ele>
        <time>2021-05-14T12:12:19Z</time>
      </trkpt>
      <trkpt lat="43.609" lon="3.84144">
        <ele>63</ele>
        <time>2021-05-14T12:12:20Z</time>
      </trkpt>
      <trkpt lat="43.60902" lon="3.84137">
        <ele>63</ele>
        <time>2021-05-14T12:12:21Z</time>
      </trkpt>
      <trkpt lat="43.60904" lon="3.8413">
        <ele>62</ele>
        <time>2021-05-14T12:12:22Z</time>
      </trkpt>
      <trkpt lat="43.60906" lon="3.84123">
        <ele>62</ele>
        <time>2021-05-14T12:12:23Z</time>
      </trkpt>
      <trkpt lat="43.60907" lon="3.84115">
        <ele>62</ele>
        <time>2021-05-14T12:12:24Z</time>
      </trkpt>
      <trkpt lat="43.60909" lon="3.84108">
        <ele>62</ele>
        <time>2021-05-14T12:12:25Z</time>
      </trkpt>
      <trkpt lat="43.6091" lon="3.84101">
        <ele>62</ele>
        <time>2021-05-14T12:12:26Z</time>
      </trkpt>
      <trkpt lat="43.60912" lon="3.84093">
        <ele>62</ele>
        <time>2021-05-14T12:12:27Z</time>
      </trkpt>
      <trkpt lat="43.60914" lon="3.84086">
        <ele>62</ele>
        <time>2021-05-14T12:12:28Z</time>
      </trkpt>
      <trkpt lat="43.60915" lon="3.84079">
        <ele>62</ele>
        <time>2021-05-14T12:12:29Z</time>
      </trkpt>
      <trkpt lat="43.60917" lon="3.84072">
        <ele>62</ele>
        <time>2021-05-14T12:12:30Z</time>
      </trkpt>
      <trkpt lat="43.60918" lon="3.84065">
        <ele>62</ele>
        <time>2021-05-14T12:12:31Z</time>
      </trkpt>
      <trkpt lat="43.6092" lon="3.84058">
        <ele>62</ele>
        <time>2021-05-14T12:12:32Z</time>
      </trkpt>
      <trkpt lat="43.60921" lon="3.84051">
        <ele>62</ele>
        <time>2021-05-14T12:12:33Z</time>
      </trkpt>
      <trkpt lat="43.60923" lon="3.84044">
        <ele>62</ele>
        <time>2021-05-14T12:12:34Z</time>
      </trkpt>
      <trkpt lat="43.60925" lon="3.84038">
        <ele>62</ele>
        <time>2021-05-14T12:12:35Z</time>
      </trkpt>
      <trkpt lat="43.60928" lon="3.84032">
        <ele>62</ele>
        <time>2021-05-14T12:12:36Z</time>
      </trkpt>
      <trkpt lat="43.60931" lon="3.84027">
        <ele>62</ele>
        <time>2021-05-14T12:12:37Z</time>
      </trkpt>
      <trkpt lat="43.60932" lon="3.84022">
        <ele>62</ele>
        <time>2021-05-14T12:12:38Z</time>
      </trkpt>
      <trkpt lat="43.60933" lon="3.84019">
        <ele>62</ele>
        <time>2021-05-14T12:12:39Z</time>
      </trkpt>
      <trkpt lat="43.60933" lon="3.84015">
        <ele>62</ele>
        <time>2021-05-14T12:12:40Z</time>
      </trkpt>
      <trkpt lat="43.60933" lon="3.84011">
        <ele>62</ele>
        <time>2021-05-14T12:12:41Z</time>
      </trkpt>
      <trkpt lat="43.60933" lon="3.84006">
        <ele>62</ele>
        <time>2021-05-14T12:12:42Z</time>
      </trkpt>
      <trkpt lat="43.60933" lon="3.84002">
        <ele>62</ele>
        <time>2021-05-14T12:12:43Z</time>
      </trkpt>
      <trkpt lat="43.60933" lon="3.83999">
        <ele>62</ele>
        <time>2021-05-14T12:12:44Z</time>
      </trkpt>
      <trkpt lat="43.60932" lon="3.83996">
        <ele>62</ele>
        <time>2021-05-14T12:12:45Z</time>
      </trkpt>
      <trkpt lat="43.60931" lon="3.83993">
        <ele>62</ele>
        <time>2021-05-14T12:12:46Z</time>
      </trkpt>
      <trkpt lat="43.60931" lon="3.83989">
        <ele>62</ele>
        <time>2021-05-14T12:12:47Z</time>
      </trkpt>
      <trkpt lat="43.60933" lon="3.83984">
        <ele>62</ele>
        <time>2021-05-14T12:12:48Z</time>
      </trkpt>
      <trkpt lat="43.60934" lon="3.83979">
        <ele>62</ele>
        <time>2021-05-14T12:12:49Z</time>
      </trkpt>
      <trkpt lat="43.60935" lon="3.83973">
        <ele>62</ele>
        <time>2021-05-14T12:12:50Z</time>
      </trkpt>
      <trkpt lat="43.60936" lon="3.83967">
        <ele>62</ele>
        <time>2021-05-14T12:12:51Z</time>
      </trkpt>
      <trkpt lat="43.60937" lon="3.83961">
        <ele>61</ele>
        <time>2021-05-14T12:12:52Z</time>
      </trkpt>
      <trkpt lat="43.60939" lon="3.83955">
        <ele>61</ele>
        <time>2021-05-14T12:12:53Z</time>
      </trkpt>
      <trkpt lat="43.6094" lon="3.83949">
        <ele>61</ele>
        <time>2021-05-14T12:12:54Z</time>
      </trkpt>
      <trkpt lat="43.60941" lon="3.83943">
        <ele>61</ele>
        <time>2021-05-14T12:12:55Z</time>
      </trkpt>
      <trkpt lat="43.60942" lon="3.83938">
        <ele>61</ele>
        <time>2021-05-14T12:12:56Z</time>
      </trkpt>
      <trkpt lat="43.60943" lon="3.83932">
        <ele>61</ele>
        <time>2021-05-14T12:12:57Z</time>
      </trkpt>
      <trkpt lat="43.60944" lon="3.83926">
        <ele>61</ele>
        <time>2021-05-14T12:12:58Z</time>
      </trkpt>
      <trkpt lat="43.60945" lon="3.8392">
        <ele>61</ele>
        <time>2021-05-14T12:12:59Z</time>
      </trkpt>
      <trkpt lat="43.60947" lon="3.83914">
        <ele>61</ele>
        <time>2021-05-14T12:13:00Z</time>
      </trkpt>
      <trkpt lat="43.60948" lon="3.83907">
        <ele>61</ele>
        <time>2021-05-14T12:13:01Z</time>
      </trkpt>
      <trkpt lat="43.6095" lon="3.83894">
        <ele>61</ele>
        <time>2021-05-14T12:13:03Z</time>
      </trkpt>
      <trkpt lat="43.60952" lon="3.83888">
        <ele>61</ele>
        <time>2021-05-14T12:13:04Z</time>
      </trkpt>
      <trkpt lat="43.60953" lon="3.83881">
        <ele>61</ele>
        <time>2021-05-14T12:13:05Z</time>
      </trkpt>
      <trkpt lat="43.60954" lon="3.83875">
        <ele>61</ele>
        <time>2021-05-14T12:13:06Z</time>
      </trkpt>
      <trkpt lat="43.60955" lon="3.83868">
        <ele>61</ele>
        <time>2021-05-14T12:13:07Z</time>
      </trkpt>
      <trkpt lat="43.60957" lon="3.83862">
        <ele>61</ele>
        <time>2021-05-14T12:13:08Z</time>
      </trkpt>
      <trkpt lat="43.60958" lon="3.83856">
        <ele>61</ele>
        <time>2021-05-14T12:13:09Z</time>
      </trkpt>
      <trkpt lat="43.6096" lon="3.8385">
        <ele>61</ele>
        <time>2021-05-14T12:13:10Z</time>
      </trkpt>
      <trkpt lat="43.60961" lon="3.83844">
        <ele>61</ele>
        <time>2021-05-14T12:13:11Z</time>
      </trkpt>
      <trkpt lat="43.60962" lon="3.83837">
        <ele>61</ele>
        <time>2021-05-14T12:13:12Z</time>
      </trkpt>
      <trkpt lat="43.60963" lon="3.8383">
        <ele>61</ele>
        <time>2021-05-14T12:13:13Z</time>
      </trkpt>
      <trkpt lat="43.60965" lon="3.83824">
        <ele>61</ele>
        <time>2021-05-14T12:13:14Z</time>
      </trkpt>
      <trkpt lat="43.60966" lon="3.83817">
        <ele>61</ele>
        <time>2021-05-14T12:13:15Z</time>
      </trkpt>
      <trkpt lat="43.60967" lon="3.8381">
        <ele>61</ele>
        <time>2021-05-14T12:13:16Z</time>
      </trkpt>
      <trkpt lat="43.60968" lon="3.83803">
        <ele>61</ele>
        <time>2021-05-14T12:13:17Z</time>
      </trkpt>
      <trkpt lat="43.6097" lon="3.83796">
        <ele>61</ele>
        <time>2021-05-14T12:13:18Z</time>
      </trkpt>
      <trkpt lat="43.60971" lon="3.8379">
        <ele>61</ele>
        <time>2021-05-14T12:13:19Z</time>
      </trkpt>
      <trkpt lat="43.60972" lon="3.83783">
        <ele>61</ele>
        <time>2021-05-14T12:13:20Z</time>
      </trkpt>
      <trkpt lat="43.60973" lon="3.83777">
        <ele>61</ele>
        <time>2021-05-14T12:13:21Z</time>
      </trkpt>
      <trkpt lat="43.60974" lon="3.8377">
        <ele>61</ele>
        <time>2021-05-14T12:13:22Z</time>
      </trkpt>
      <trkpt lat="43.60974" lon="3.83764">
        <ele>61</ele>
        <time>2021-05-14T12:13:23Z</time>
      </trkpt>
      <trkpt lat="43.60973" lon="3.83758">
        <ele>61</ele>
        <time>2021-05-14T12:13:24Z</time>
      </trkpt>
      <trkpt lat="43.60974" lon="3.83753">
        <ele>61</ele>
        <time>2021-05-14T12:13:25Z</time>
      </trkpt>
      <trkpt lat="43.60975" lon="3.83747">
        <ele>61</ele>
        <time>2021-05-14T12:13:26Z</time>
      </trkpt>
      <trkpt lat="43.60976" lon="3.83741">
        <ele>61</ele>
        <time>2021-05-14T12:13:27Z</time>
      </trkpt>
      <trkpt lat="43.60978" lon="3.83735">
        <ele>61</ele>
        <time>2021-05-14T12:13:28Z</time>
      </trkpt>
      <trkpt lat="43.60979" lon="3.83729">
        <ele>61</ele>
        <time>2021-05-14T12:13:29Z</time>
      </trkpt>
      <trkpt lat="43.60981" lon="3.83723">
        <ele>61</ele>
        <time>2021-05-14T12:13:30Z</time>
      </trkpt>
      <trkpt lat="43.60982" lon="3.83717">
        <ele>61</ele>
        <time>2021-05-14T12:13:31Z</time>
      </trkpt>
      <trkpt lat="43.60984" lon="3.83711">
        <ele>61</ele>
        <time>2021-05-14T12:13:32Z</time>
      </trkpt>
      <trkpt lat="43.60985" lon="3.83705">
        <ele>61</ele>
        <time>2021-05-14T12:13:33Z</time>
      </trkpt>
      <trkpt lat="43.60987" lon="3.83699">
        <ele>61</ele>
        <time>2021-05-14T12:13:34Z</time>
      </trkpt>
      <trkpt lat="43.60988" lon="3.83693">
        <ele>61</ele>
        <time>2021-05-14T12:13:35Z</time>
      </trkpt>
      <trkpt lat="43.6099" lon="3.83688">
        <ele>61</ele>
        <time>2021-05-14T12:13:36Z</time>
      </trkpt>
      <trkpt lat="43.60991" lon="3.83684">
        <ele>61</ele>
        <time>2021-05-14T12:13:37Z</time>
      </trkpt>
      <trkpt lat="43.60992" lon="3.83681">
        <ele>61</ele>
        <time>2021-05-14T12:13:38Z</time>
      </trkpt>
      <trkpt lat="43.60992" lon="3.83678">
        <ele>61</ele>
        <time>2021-05-14T12:13:39Z</time>
      </trkpt>
      <trkpt lat="43.60993" lon="3.83675">
        <ele>61</ele>
        <time>2021-05-14T12:13:40Z</time>
      </trkpt>
      <trkpt lat="43.60994" lon="3.83672">
        <ele>61</ele>
        <time>2021-05-14T12:13:41Z</time>
      </trkpt>
      <trkpt lat="43.60994" lon="3.8367">
        <ele>61</ele>
        <time>2021-05-14T12:13:42Z</time>
      </trkpt>
      <trkpt lat="43.60995" lon="3.83667">
        <ele>61</ele>
        <time>2021-05-14T12:13:43Z</time>
      </trkpt>
      <trkpt lat="43.60996" lon="3.83661">
        <ele>61</ele>
        <time>2021-05-14T12:13:45Z</time>
      </trkpt>
      <trkpt lat="43.60997" lon="3.83658">
        <ele>61</ele>
        <time>2021-05-14T12:13:46Z</time>
      </trkpt>
      <trkpt lat="43.60998" lon="3.83655">
        <ele>61</ele>
        <time>2021-05-14T12:13:47Z</time>
      </trkpt>
      <trkpt lat="43.60999" lon="3.83652">
        <ele>61</ele>
        <time>2021-05-14T12:13:48Z</time>
      </trkpt>
      <trkpt lat="43.60999" lon="3.83648">
        <ele>61</ele>
        <time>2021-05-14T12:13:49Z</time>
      </trkpt>
      <trkpt lat="43.61" lon="3.83644">
        <ele>61</ele>
        <time>2021-05-14T12:13:50Z</time>
      </trkpt>
      <trkpt lat="43.61001" lon="3.8364">
        <ele>61</ele>
        <time>2021-05-14T12:13:51Z</time>
      </trkpt>
      <trkpt lat="43.61002" lon="3.83638">
        <ele>61</ele>
        <time>2021-05-14T12:13:52Z</time>
      </trkpt>
      <trkpt lat="43.61002" lon="3.83635">
        <ele>61</ele>
        <time>2021-05-14T12:13:54Z</time>
      </trkpt>
      <trkpt lat="43.61003" lon="3.83633">
        <ele>61</ele>
        <time>2021-05-14T12:13:55Z</time>
      </trkpt>
      <trkpt lat="43.61003" lon="3.8363">
        <ele>61</ele>
        <time>2021-05-14T12:13:56Z</time>
      </trkpt>
      <trkpt lat="43.61005" lon="3.83626">
        <ele>61</ele>
        <time>2021-05-14T12:13:57Z</time>
      </trkpt>
      <trkpt lat="43.61005" lon="3.83622">
        <ele>61</ele>
        <time>2021-05-14T12:13:58Z</time>
      </trkpt>
      <trkpt lat="43.61006" lon="3.83618">
        <ele>61</ele>
        <time>2021-05-14T12:13:59Z</time>
      </trkpt>
      <trkpt lat="43.61007" lon="3.83613">
        <ele>61</ele>
        <time>2021-05-14T12:14:00Z</time>
      </trkpt>
      <trkpt lat="43.61009" lon="3.83608">
        <ele>61</ele>
        <time>2021-05-14T12:14:01Z</time>
      </trkpt>
      <trkpt lat="43.6101" lon="3.83602">
        <ele>61</ele>
        <time>2021-05-14T12:14:02Z</time>
      </trkpt>
      <trkpt lat="43.61012" lon="3.83597">
        <ele>61</ele>
        <time>2021-05-14T12:14:03Z</time>
      </trkpt>
      <trkpt lat="43.61013" lon="3.83591">
        <ele>61</ele>
        <time>2021-05-14T12:14:04Z</time>
      </trkpt>
      <trkpt lat="43.61014" lon="3.83585">
        <ele>61</ele>
        <time>2021-05-14T12:14:05Z</time>
      </trkpt>
      <trkpt lat="43.61014" lon="3.83578">
        <ele>61</ele>
        <time>2021-05-14T12:14:06Z</time>
      </trkpt>
      <trkpt lat="43.61015" lon="3.83572">
        <ele>61</ele>
        <time>2021-05-14T12:14:07Z</time>
      </trkpt>
      <trkpt lat="43.61016" lon="3.83566">
        <ele>61</ele>
        <time>2021-05-14T12:14:08Z</time>
      </trkpt>
      <trkpt lat="43.61016" lon="3.8356">
        <ele>61</ele>
        <time>2021-05-14T12:14:09Z</time>
      </trkpt>
      <trkpt lat="43.61017" lon="3.83553">
        <ele>61</ele>
        <time>2021-05-14T12:14:10Z</time>
      </trkpt>
      <trkpt lat="43.61019" lon="3.83547">
        <ele>61</ele>
        <time>2021-05-14T12:14:11Z</time>
      </trkpt>
      <trkpt lat="43.6102" lon="3.83541">
        <ele>61</ele>
        <time>2021-05-14T12:14:12Z</time>
      </trkpt>
      <trkpt lat="43.61021" lon="3.83535">
        <ele>61</ele>
        <time>2021-05-14T12:14:13Z</time>
      </trkpt>
      <trkpt lat="43.61023" lon="3.83529">
        <ele>61</ele>
        <time>2021-05-14T12:14:14Z</time>
      </trkpt>
      <trkpt lat="43.61024" lon="3.83523">
        <ele>61</ele>
        <time>2021-05-14T12:14:15Z</time>
      </trkpt>
      <trkpt lat="43.61025" lon="3.83517">
        <ele>61</ele>
        <time>2021-05-14T12:14:16Z</time>
      </trkpt>
      <trkpt lat="43.61027" lon="3.83511">
        <ele>61</ele>
        <time>2021-05-14T12:14:17Z</time>
      </trkpt>
      <trkpt lat="43.61028" lon="3.83505">
        <ele>61</ele>
        <time>2021-05-14T12:14:18Z</time>
      </trkpt>
      <trkpt lat="43.6103" lon="3.83499">
        <ele>61</ele>
        <time>2021-05-14T12:14:19Z</time>
      </trkpt>
      <trkpt lat="43.61031" lon="3.83493">
        <ele>61</ele>
        <time>2021-05-14T12:14:20Z</time>
      </trkpt>
      <trkpt lat="43.61032" lon="3.83487">
        <ele>61</ele>
        <time>2021-05-14T12:14:21Z</time>
      </trkpt>
      <trkpt lat="43.61034" lon="3.83481">
        <ele>60</ele>
        <time>2021-05-14T12:14:22Z</time>
      </trkpt>
      <trkpt lat="43.61035" lon="3.83474">
        <ele>60</ele>
        <time>2021-05-14T12:14:23Z</time>
      </trkpt>
      <trkpt lat="43.61035" lon="3.83468">
        <ele>60</ele>
        <time>2021-05-14T12:14:24Z</time>
      </trkpt>
      <trkpt lat="43.61036" lon="3.83462">
        <ele>60</ele>
        <time>2021-05-14T12:14:25Z</time>
      </trkpt>
      <trkpt lat="43.61037" lon="3.83456">
        <ele>60</ele>
        <time>2021-05-14T12:14:26Z</time>
      </trkpt>
      <trkpt lat="43.61038" lon="3.83451">
        <ele>60</ele>
        <time>2021-05-14T12:14:27Z</time>
      </trkpt>
      <trkpt lat="43.61042" lon="3.83449">
        <ele>60</ele>
        <time>2021-05-14T12:14:28Z</time>
      </trkpt>
      <trkpt lat="43.61046" lon="3.83447">
        <ele>60</ele>
        <time>2021-05-14T12:14:29Z</time>
      </trkpt>
      <trkpt lat="43.6105" lon="3.83445">
        <ele>60</ele>
        <time>2021-05-14T12:14:30Z</time>
      </trkpt>
      <trkpt lat="43.61053" lon="3.83442">
        <ele>60</ele>
        <time>2021-05-14T12:14:31Z</time>
      </trkpt>
      <trkpt lat="43.61055" lon="3.83437">
        <ele>61</ele>
        <time>2021-05-14T12:14:32Z</time>
      </trkpt>
      <trkpt lat="43.61057" lon="3.83432">
        <ele>61</ele>
        <time>2021-05-14T12:14:33Z</time>
      </trkpt>
      <trkpt lat="43.61059" lon="3.83426">
        <ele>61</ele>
        <time>2021-05-14T12:14:34Z</time>
      </trkpt>
      <trkpt lat="43.6106" lon="3.8342">
        <ele>61</ele>
        <time>2021-05-14T12:14:35Z</time>
      </trkpt>
      <trkpt lat="43.61062" lon="3.83414">
        <ele>61</ele>
        <time>2021-05-14T12:14:36Z</time>
      </trkpt>
      <trkpt lat="43.61064" lon="3.83408">
        <ele>61</ele>
        <time>2021-05-14T12:14:37Z</time>
      </trkpt>
      <trkpt lat="43.61066" lon="3.83401">
        <ele>61</ele>
        <time>2021-05-14T12:14:38Z</time>
      </trkpt>
      <trkpt lat="43.61069" lon="3.83389">
        <ele>61</ele>
        <time>2021-05-14T12:14:40Z</time>
      </trkpt>
      <trkpt lat="43.6107" lon="3.83383">
        <ele>61</ele>
        <time>2021-05-14T12:14:41Z</time>
      </trkpt>
      <trkpt lat="43.61072" lon="3.83377">
        <ele>62</ele>
        <time>2021-05-14T12:14:42Z</time>
      </trkpt>
      <trkpt lat="43.61074" lon="3.83372">
        <ele>62</ele>
        <time>2021-05-14T12:14:43Z</time>
      </trkpt>
      <trkpt lat="43.61077" lon="3.83367">
        <ele>62</ele>
        <time>2021-05-14T12:14:44Z</time>
      </trkpt>
      <trkpt lat="43.61078" lon="3.83361">
        <ele>62</ele>
        <time>2021-05-14T12:14:45Z</time>
      </trkpt>
      <trkpt lat="43.61079" lon="3.83355">
        <ele>62</ele>
        <time>2021-05-14T12:14:46Z</time>
      </trkpt>
      <trkpt lat="43.6108" lon="3.83349">
        <ele>62</ele>
        <time>2021-05-14T12:14:47Z</time>
      </trkpt>
      <trkpt lat="43.61082" lon="3.83343">
        <ele>62</ele>
        <time>2021-05-14T12:14:48Z</time>
      </trkpt>
      <trkpt lat="43.61083" lon="3.83337">
        <ele>62</ele>
        <time>2021-05-14T12:14:49Z</time>
      </trkpt>
      <trkpt lat="43.61085" lon="3.83332">
        <ele>62</ele>
        <time>2021-05-14T12:14:50Z</time>
      </trkpt>
      <trkpt lat="43.61086" lon="3.83326">
        <ele>62</ele>
        <time>2021-05-14T12:14:51Z</time>
      </trkpt>
      <trkpt lat="43.61088" lon="3.8332">
        <ele>63</ele>
        <time>2021-05-14T12:14:52Z</time>
      </trkpt>
      <trkpt lat="43.6109" lon="3.83314">
        <ele>63</ele>
        <time>2021-05-14T12:14:53Z</time>
      </trkpt>
      <trkpt lat="43.61092" lon="3.83308">
        <ele>63</ele>
        <time>2021-05-14T12:14:54Z</time>
      </trkpt>
      <trkpt lat="43.61094" lon="3.83303">
        <ele>63</ele>
        <time>2021-05-14T12:14:55Z</time>
      </trkpt>
      <trkpt lat="43.61098" lon="3.8329">
        <ele>63</ele>
        <time>2021-05-14T12:14:57Z</time>
      </trkpt>
      <trkpt lat="43.611" lon="3.83284">
        <ele>63</ele>
        <time>2021-05-14T12:14:58Z</time>
      </trkpt>
      <trkpt lat="43.61103" lon="3.83278">
        <ele>63</ele>
        <time>2021-05-14T12:14:59Z</time>
      </trkpt>
      <trkpt lat="43.61106" lon="3.83273">
        <ele>63</ele>
        <time>2021-05-14T12:15:00Z</time>
      </trkpt>
      <trkpt lat="43.61108" lon="3.83267">
        <ele>63</ele>
        <time>2021-05-14T12:15:01Z</time>
      </trkpt>
      <trkpt lat="43.6111" lon="3.8326">
        <ele>63</ele>
        <time>2021-05-14T12:15:02Z</time>
      </trkpt>
      <trkpt lat="43.61112" lon="3.83253">
        <ele>63</ele>
        <time>2021-05-14T12:15:03Z</time>
      </trkpt>
      <trkpt lat="43.61114" lon="3.83247">
        <ele>63</ele>
        <time>2021-05-14T12:15:04Z</time>
      </trkpt>
      <trkpt lat="43.61115" lon="3.8324">
        <ele>63</ele>
        <time>2021-05-14T12:15:05Z</time>
      </trkpt>
      <trkpt lat="43.61117" lon="3.83233">
        <ele>63</ele>
        <time>2021-05-14T12:15:06Z</time>
      </trkpt>
      <trkpt lat="43.61119" lon="3.83227">
        <ele>63</ele>
        <time>2021-05-14T12:15:07Z</time>
      </trkpt>
      <trkpt lat="43.61121" lon="3.8322">
        <ele>63</ele>
        <time>2021-05-14T12:15:08Z</time>
      </trkpt>
      <trkpt lat="43.61123" lon="3.83213">
        <ele>63</ele>
        <time>2021-05-14T12:15:09Z</time>
      </trkpt>
      <trkpt lat="43.61125" lon="3.83207">
        <ele>63</ele>
        <time>2021-05-14T12:15:10Z</time>
      </trkpt>
      <trkpt lat="43.61127" lon="3.832">
        <ele>63</ele>
        <time>2021-05-14T12:15:11Z</time>
      </trkpt>
      <trkpt lat="43.61129" lon="3.83194">
        <ele>63</ele>
        <time>2021-05-14T12:15:12Z</time>
      </trkpt>
      <trkpt lat="43.61132" lon="3.83188">
        <ele>63</ele>
        <time>2021-05-14T12:15:13Z</time>
      </trkpt>
      <trkpt lat="43.61134" lon="3.83181">
        <ele>63</ele>
        <time>2021-05-14T12:15:14Z</time>
      </trkpt>
      <trkpt lat="43.61135" lon="3.83174">
        <ele>63</ele>
        <time>2021-05-14T12:15:15Z</time>
      </trkpt>
      <trkpt lat="43.61137" lon="3.83165">
        <ele>63</ele>
        <time>2021-05-14T12:15:16Z</time>
      </trkpt>
      <trkpt lat="43.61139" lon="3.83149">
        <ele>63</ele>
        <time>2021-05-14T12:15:18Z</time>
      </trkpt>
      <trkpt lat="43.6114" lon="3.83142">
        <ele>63</ele>
        <time>2021-05-14T12:15:19Z</time>
      </trkpt>
      <trkpt lat="43.61141" lon="3.83136">
        <ele>63</ele>
        <time>2021-05-14T12:15:20Z</time>
      </trkpt>
      <trkpt lat="43.61142" lon="3.8313">
        <ele>63</ele>
        <time>2021-05-14T12:15:21Z</time>
      </trkpt>
      <trkpt lat="43.61143" lon="3.83125">
        <ele>63</ele>
        <time>2021-05-14T12:15:22Z</time>
      </trkpt>
      <trkpt lat="43.61145" lon="3.83118">
        <ele>63</ele>
        <time>2021-05-14T12:15:23Z</time>
      </trkpt>
      <trkpt lat="43.61147" lon="3.8311">
        <ele>63</ele>
        <time>2021-05-14T12:15:24Z</time>
      </trkpt>
      <trkpt lat="43.61148" lon="3.83102">
        <ele>63</ele>
        <time>2021-05-14T12:15:25Z</time>
      </trkpt>
      <trkpt lat="43.6115" lon="3.83095">
        <ele>63</ele>
        <time>2021-05-14T12:15:26Z</time>
      </trkpt>
      <trkpt lat="43.61152" lon="3.83087">
        <ele>63</ele>
        <time>2021-05-14T12:15:27Z</time>
      </trkpt>
      <trkpt lat="43.61154" lon="3.8308">
        <ele>63</ele>
        <time>2021-05-14T12:15:28Z</time>
      </trkpt>
      <trkpt lat="43.61156" lon="3.83073">
        <ele>63</ele>
        <time>2021-05-14T12:15:29Z</time>
      </trkpt>
      <trkpt lat="43.61158" lon="3.83066">
        <ele>63</ele>
        <time>2021-05-14T12:15:30Z</time>
      </trkpt>
      <trkpt lat="43.61161" lon="3.8306">
        <ele>63</ele>
        <time>2021-05-14T12:15:31Z</time>
      </trkpt>
      <trkpt lat="43.61164" lon="3.83053">
        <ele>62</ele>
        <time>2021-05-14T12:15:32Z</time>
      </trkpt>
      <trkpt lat="43.61167" lon="3.83046">
        <ele>62</ele>
        <time>2021-05-14T12:15:33Z</time>
      </trkpt>
      <trkpt lat="43.61173" lon="3.83031">
        <ele>62</ele>
        <time>2021-05-14T12:15:35Z</time>
      </trkpt>
      <trkpt lat="43.61176" lon="3.83024">
        <ele>62</ele>
        <time>2021-05-14T12:15:36Z</time>
      </trkpt>
      <trkpt lat="43.61179" lon="3.83017">
        <ele>62</ele>
        <time>2021-05-14T12:15:37Z</time>
      </trkpt>
      <trkpt lat="43.61182" lon="3.8301">
        <ele>62</ele>
        <time>2021-05-14T12:15:38Z</time>
      </trkpt>
      <trkpt lat="43.61185" lon="3.83002">
        <ele>62</ele>
        <time>2021-05-14T12:15:39Z</time>
      </trkpt>
      <trkpt lat="43.61188" lon="3.82994">
        <ele>62</ele>
        <time>2021-05-14T12:15:40Z</time>
      </trkpt>
      <trkpt lat="43.6119" lon="3.82987">
        <ele>62</ele>
        <time>2021-05-14T12:15:41Z</time>
      </trkpt>
      <trkpt lat="43.61192" lon="3.82979">
        <ele>62</ele>
        <time>2021-05-14T12:15:42Z</time>
      </trkpt>
      <trkpt lat="43.61194" lon="3.82972">
        <ele>62</ele>
        <time>2021-05-14T12:15:43Z</time>
      </trkpt>
      <trkpt lat="43.61193" lon="3.82963">
        <ele>62</ele>
        <time>2021-05-14T12:15:44Z</time>
      </trkpt>
      <trkpt lat="43.61192" lon="3.82954">
        <ele>62</ele>
        <time>2021-05-14T12:15:45Z</time>
      </trkpt>
      <trkpt lat="43.6119" lon="3.82946">
        <ele>62</ele>
        <time>2021-05-14T12:15:46Z</time>
      </trkpt>
      <trkpt lat="43.61189" lon="3.82939">
        <ele>62</ele>
        <time>2021-05-14T12:15:47Z</time>
      </trkpt>
      <trkpt lat="43.61188" lon="3.82932">
        <ele>62</ele>
        <time>2021-05-14T12:15:48Z</time>
      </trkpt>
      <trkpt lat="43.61187" lon="3.82927">
        <ele>62</ele>
        <time>2021-05-14T12:15:49Z</time>
      </trkpt>
      <trkpt lat="43.61186" lon="3.82924">
        <ele>62</ele>
        <time>2021-05-14T12:15:50Z</time>
      </trkpt>
      <trkpt lat="43.61186" lon="3.82921">
        <ele>60</ele>
        <time>2021-05-14T12:15:52Z</time>
      </trkpt>
      <trkpt lat="43.61184" lon="3.82918">
        <ele>60</ele>
        <time>2021-05-14T12:15:54Z</time>
      </trkpt>
      <trkpt lat="43.61183" lon="3.82916">
        <ele>60</ele>
        <time>2021-05-14T12:15:55Z</time>
      </trkpt>
      <trkpt lat="43.61182" lon="3.82912">
        <ele>60</ele>
        <time>2021-05-14T12:15:56Z</time>
      </trkpt>
      <trkpt lat="43.61181" lon="3.82908">
        <ele>60</ele>
        <time>2021-05-14T12:15:57Z</time>
      </trkpt>
      <trkpt lat="43.6118" lon="3.82904">
        <ele>60</ele>
        <time>2021-05-14T12:15:58Z</time>
      </trkpt>
      <trkpt lat="43.61179" lon="3.82899">
        <ele>60</ele>
        <time>2021-05-14T12:15:59Z</time>
      </trkpt>
      <trkpt lat="43.61179" lon="3.82894">
        <ele>60</ele>
        <time>2021-05-14T12:16:00Z</time>
      </trkpt>
      <trkpt lat="43.61179" lon="3.82889">
        <ele>60</ele>
        <time>2021-05-14T12:16:01Z</time>
      </trkpt>
      <trkpt lat="43.61178" lon="3.82884">
        <ele>60</ele>
        <time>2021-05-14T12:16:02Z</time>
      </trkpt>
      <trkpt lat="43.61176" lon="3.82879">
        <ele>60</ele>
        <time>2021-05-14T12:16:03Z</time>
      </trkpt>
      <trkpt lat="43.61175" lon="3.82873">
        <ele>60</ele>
        <time>2021-05-14T12:16:04Z</time>
      </trkpt>
      <trkpt lat="43.61173" lon="3.82867">
        <ele>60</ele>
        <time>2021-05-14T12:16:05Z</time>
      </trkpt>
      <trkpt lat="43.61172" lon="3.8286">
        <ele>60</ele>
        <time>2021-05-14T12:16:06Z</time>
      </trkpt>
      <trkpt lat="43.6117" lon="3.82854">
        <ele>60</ele>
        <time>2021-05-14T12:16:07Z</time>
      </trkpt>
      <trkpt lat="43.61169" lon="3.82848">
        <ele>60</ele>
        <time>2021-05-14T12:16:08Z</time>
      </trkpt>
      <trkpt lat="43.61165" lon="3.82834">
        <ele>60</ele>
        <time>2021-05-14T12:16:10Z</time>
      </trkpt>
      <trkpt lat="43.61164" lon="3.82827">
        <ele>60</ele>
        <time>2021-05-14T12:16:11Z</time>
      </trkpt>
      <trkpt lat="43.61163" lon="3.82821">
        <ele>60</ele>
        <time>2021-05-14T12:16:12Z</time>
      </trkpt>
      <trkpt lat="43.61162" lon="3.82814">
        <ele>60</ele>
        <time>2021-05-14T12:16:13Z</time>
      </trkpt>
      <trkpt lat="43.61161" lon="3.82807">
        <ele>60</ele>
        <time>2021-05-14T12:16:14Z</time>
      </trkpt>
      <trkpt lat="43.61161" lon="3.82801">
        <ele>60</ele>
        <time>2021-05-14T12:16:15Z</time>
      </trkpt>
      <trkpt lat="43.61162" lon="3.82795">
        <ele>60</ele>
        <time>2021-05-14T12:16:16Z</time>
      </trkpt>
      <trkpt lat="43.61163" lon="3.82789">
        <ele>60</ele>
        <time>2021-05-14T12:16:17Z</time>
      </trkpt>
      <trkpt lat="43.61164" lon="3.82783">
        <ele>60</ele>
        <time>2021-05-14T12:16:18Z</time>
      </trkpt>
      <trkpt lat="43.61165" lon="3.82778">
        <ele>60</ele>
        <time>2021-05-14T12:16:19Z</time>
      </trkpt>
      <trkpt lat="43.61166" lon="3.82773">
        <ele>60</ele>
        <time>2021-05-14T12:16:20Z</time>
      </trkpt>
      <trkpt lat="43.61167" lon="3.82768">
        <ele>60</ele>
        <time>2021-05-14T12:16:21Z</time>
      </trkpt>
      <trkpt lat="43.61168" lon="3.82764">
        <ele>59</ele>
        <time>2021-05-14T12:16:22Z</time>
      </trkpt>
      <trkpt lat="43.61169" lon="3.8276">
        <ele>59</ele>
        <time>2021-05-14T12:16:23Z</time>
      </trkpt>
      <trkpt lat="43.6117" lon="3.82757">
        <ele>59</ele>
        <time>2021-05-14T12:16:24Z</time>
      </trkpt>
      <trkpt lat="43.6117" lon="3.82754">
        <ele>59</ele>
        <time>2021-05-14T12:16:25Z</time>
      </trkpt>
      <trkpt lat="43.6117" lon="3.82741">
        <ele>59</ele>
        <time>2021-05-14T12:20:59Z</time>
      </trkpt>
      <trkpt lat="43.61171" lon="3.82734">
        <ele>59</ele>
        <time>2021-05-14T12:21:01Z</time>
      </trkpt>
      <trkpt lat="43.61172" lon="3.82731">
        <ele>59</ele>
        <time>2021-05-14T12:21:02Z</time>
      </trkpt>
      <trkpt lat="43.61172" lon="3.82727">
        <ele>59</ele>
        <time>2021-05-14T12:21:03Z</time>
      </trkpt>
      <trkpt lat="43.61174" lon="3.82719">
        <ele>59</ele>
        <time>2021-05-14T12:21:05Z</time>
      </trkpt>
      <trkpt lat="43.61175" lon="3.82714">
        <ele>59</ele>
        <time>2021-05-14T12:21:06Z</time>
      </trkpt>
      <trkpt lat="43.61175" lon="3.8271">
        <ele>59</ele>
        <time>2021-05-14T12:21:07Z</time>
      </trkpt>
      <trkpt lat="43.61176" lon="3.82706">
        <ele>59</ele>
        <time>2021-05-14T12:21:08Z</time>
      </trkpt>
      <trkpt lat="43.61176" lon="3.82701">
        <ele>59</ele>
        <time>2021-05-14T12:21:09Z</time>
      </trkpt>
      <trkpt lat="43.61176" lon="3.82697">
        <ele>59</ele>
        <time>2021-05-14T12:21:10Z</time>
      </trkpt>
      <trkpt lat="43.61177" lon="3.82692">
        <ele>59</ele>
        <time>2021-05-14T12:21:11Z</time>
      </trkpt>
      <trkpt lat="43.61178" lon="3.82688">
        <ele>59</ele>
        <time>2021-05-14T12:21:12Z</time>
      </trkpt>
      <trkpt lat="43.61179" lon="3.82683">
        <ele>59</ele>
        <time>2021-05-14T12:21:13Z</time>
      </trkpt>
      <trkpt lat="43.61179" lon="3.82678">
        <ele>59</ele>
        <time>2021-05-14T12:21:14Z</time>
      </trkpt>
      <trkpt lat="43.6118" lon="3.82673">
        <ele>59</ele>
        <time>2021-05-14T12:21:15Z</time>
      </trkpt>
      <trkpt lat="43.61181" lon="3.82669">
        <ele>59</ele>
        <time>2021-05-14T12:21:16Z</time>
      </trkpt>
      <trkpt lat="43.61182" lon="3.82664">
        <ele>59</ele>
        <time>2021-05-14T12:21:17Z</time>
      </trkpt>
      <trkpt lat="43.61182" lon="3.82659">
        <ele>59</ele>
        <time>2021-05-14T12:21:18Z</time>
      </trkpt>
      <trkpt lat="43.61183" lon="3.82654">
        <ele>58</ele>
        <time>2021-05-14T12:21:19Z</time>
      </trkpt>
      <trkpt lat="43.61184" lon="3.82649">
        <ele>58</ele>
        <time>2021-05-14T12:21:20Z</time>
      </trkpt>
      <trkpt lat="43.61184" lon="3.82645">
        <ele>58</ele>
        <time>2021-05-14T12:21:21Z</time>
      </trkpt>
      <trkpt lat="43.61185" lon="3.82639">
        <ele>58</ele>
        <time>2021-05-14T12:21:22Z</time>
      </trkpt>
      <trkpt lat="43.61186" lon="3.82634">
        <ele>58</ele>
        <time>2021-05-14T12:21:23Z</time>
      </trkpt>
      <trkpt lat="43.61187" lon="3.82629">
        <ele>58</ele>
        <time>2021-05-14T12:21:24Z</time>
      </trkpt>
      <trkpt lat="43.61187" lon="3.82624">
        <ele>58</ele>
        <time>2021-05-14T12:21:25Z</time>
      </trkpt>
      <trkpt lat="43.61188" lon="3.8262">
        <ele>58</ele>
        <time>2021-05-14T12:21:26Z</time>
      </trkpt>
      <trkpt lat="43.61189" lon="3.82615">
        <ele>58</ele>
        <time>2021-05-14T12:21:27Z</time>
      </trkpt>
      <trkpt lat="43.6119" lon="3.8261">
        <ele>58</ele>
        <time>2021-05-14T12:21:28Z</time>
      </trkpt>
      <trkpt lat="43.61191" lon="3.82605">
        <ele>58</ele>
        <time>2021-05-14T12:21:29Z</time>
      </trkpt>
      <trkpt lat="43.61192" lon="3.826">
        <ele>58</ele>
        <time>2021-05-14T12:21:30Z</time>
      </trkpt>
      <trkpt lat="43.61193" lon="3.82595">
        <ele>58</ele>
        <time>2021-05-14T12:21:31Z</time>
      </trkpt>
      <trkpt lat="43.61193" lon="3.8259">
        <ele>58</ele>
        <time>2021-05-14T12:21:32Z</time>
      </trkpt>
      <trkpt lat="43.61194" lon="3.82585">
        <ele>58</ele>
        <time>2021-05-14T12:21:33Z</time>
      </trkpt>
      <trkpt lat="43.61195" lon="3.8258">
        <ele>58</ele>
        <time>2021-05-14T12:21:34Z</time>
      </trkpt>
      <trkpt lat="43.61196" lon="3.82575">
        <ele>58</ele>
        <time>2021-05-14T12:21:35Z</time>
      </trkpt>
      <trkpt lat="43.61197" lon="3.82571">
        <ele>58</ele>
        <time>2021-05-14T12:21:36Z</time>
      </trkpt>
      <trkpt lat="43.61198" lon="3.82567">
        <ele>58</ele>
        <time>2021-05-14T12:21:37Z</time>
      </trkpt>
      <trkpt lat="43.61199" lon="3.82562">
        <ele>58</ele>
        <time>2021-05-14T12:21:38Z</time>
      </trkpt>
      <trkpt lat="43.612" lon="3.82558">
        <ele>58</ele>
        <time>2021-05-14T12:21:39Z</time>
      </trkpt>
      <trkpt lat="43.61201" lon="3.82553">
        <ele>58</ele>
        <time>2021-05-14T12:21:40Z</time>
      </trkpt>
      <trkpt lat="43.61202" lon="3.82549">
        <ele>58</ele>
        <time>2021-05-14T12:21:41Z</time>
      </trkpt>
      <trkpt lat="43.61203" lon="3.82546">
        <ele>58</ele>
        <time>2021-05-14T12:21:42Z</time>
      </trkpt>
      <trkpt lat="43.61204" lon="3.82543">
        <ele>58</ele>
        <time>2021-05-14T12:21:43Z</time>
      </trkpt>
      <trkpt lat="43.61206" lon="3.8254">
        <ele>58</ele>
        <time>2021-05-14T12:21:44Z</time>
      </trkpt>
      <trkpt lat="43.61209" lon="3.82538">
        <ele>58</ele>
        <time>2021-05-14T12:21:45Z</time>
      </trkpt>
      <trkpt lat="43.61212" lon="3.82538">
        <ele>58</ele>
        <time>2021-05-14T12:21:46Z</time>
      </trkpt>
      <trkpt lat="43.61216" lon="3.82537">
        <ele>58</ele>
        <time>2021-05-14T12:21:47Z</time>
      </trkpt>
      <trkpt lat="43.61219" lon="3.82535">
        <ele>58</ele>
        <time>2021-05-14T12:21:48Z</time>
      </trkpt>
      <trkpt lat="43.61223" lon="3.82533">
        <ele>57</ele>
        <time>2021-05-14T12:21:49Z</time>
      </trkpt>
      <trkpt lat="43.61226" lon="3.82531">
        <ele>57</ele>
        <time>2021-05-14T12:21:50Z</time>
      </trkpt>
      <trkpt lat="43.6123" lon="3.82529">
        <ele>57</ele>
        <time>2021-05-14T12:21:51Z</time>
      </trkpt>
      <trkpt lat="43.61233" lon="3.82526">
        <ele>57</ele>
        <time>2021-05-14T12:21:52Z</time>
      </trkpt>
      <trkpt lat="43.61235" lon="3.82525">
        <ele>57</ele>
        <time>2021-05-14T12:21:53Z</time>
      </trkpt>
      <trkpt lat="43.61239" lon="3.82524">
        <ele>57</ele>
        <time>2021-05-14T12:21:54Z</time>
      </trkpt>
      <trkpt lat="43.61244" lon="3.82523">
        <ele>57</ele>
        <time>2021-05-14T12:21:55Z</time>
      </trkpt>
      <trkpt lat="43.61248" lon="3.82523">
        <ele>57</ele>
        <time>2021-05-14T12:21:56Z</time>
      </trkpt>
      <trkpt lat="43.61253" lon="3.82521">
        <ele>57</ele>
        <time>2021-05-14T12:21:57Z</time>
      </trkpt>
      <trkpt lat="43.61257" lon="3.82519">
        <ele>57</ele>
        <time>2021-05-14T12:21:58Z</time>
      </trkpt>
      <trkpt lat="43.61262" lon="3.82516">
        <ele>56</ele>
        <time>2021-05-14T12:21:59Z</time>
      </trkpt>
      <trkpt lat="43.61265" lon="3.82513">
        <ele>56</ele>
        <time>2021-05-14T12:22:00Z</time>
      </trkpt>
      <trkpt lat="43.6127" lon="3.82509">
        <ele>56</ele>
        <time>2021-05-14T12:22:01Z</time>
      </trkpt>
      <trkpt lat="43.61274" lon="3.82505">
        <ele>56</ele>
        <time>2021-05-14T12:22:02Z</time>
      </trkpt>
      <trkpt lat="43.61279" lon="3.82501">
        <ele>56</ele>
        <time>2021-05-14T12:22:03Z</time>
      </trkpt>
      <trkpt lat="43.61283" lon="3.82497">
        <ele>56</ele>
        <time>2021-05-14T12:22:04Z</time>
      </trkpt>
      <trkpt lat="43.61287" lon="3.82492">
        <ele>56</ele>
        <time>2021-05-14T12:22:05Z</time>
      </trkpt>
      <trkpt lat="43.61291" lon="3.82487">
        <ele>56</ele>
        <time>2021-05-14T12:22:06Z</time>
      </trkpt>
      <trkpt lat="43.61294" lon="3.82483">
        <ele>56</ele>
        <time>2021-05-14T12:22:07Z</time>
      </trkpt>
      <trkpt lat="43.61295" lon="3.82478">
        <ele>56</ele>
        <time>2021-05-14T12:22:08Z</time>
      </trkpt>
      <trkpt lat="43.61297" lon="3.82474">
        <ele>55</ele>
        <time>2021-05-14T12:22:09Z</time>
      </trkpt>
      <trkpt lat="43.61299" lon="3.8247">
        <ele>55</ele>
        <time>2021-05-14T12:22:10Z</time>
      </trkpt>
      <trkpt lat="43.61301" lon="3.82465">
        <ele>55</ele>
        <time>2021-05-14T12:22:11Z</time>
      </trkpt>
      <trkpt lat="43.61303" lon="3.82462">
        <ele>55</ele>
        <time>2021-05-14T12:22:12Z</time>
      </trkpt>
      <trkpt lat="43.61304" lon="3.82456">
        <ele>55</ele>
        <time>2021-05-14T12:22:13Z</time>
      </trkpt>
      <trkpt lat="43.61306" lon="3.82452">
        <ele>55</ele>
        <time>2021-05-14T12:22:14Z</time>
      </trkpt>
      <trkpt lat="43.61307" lon="3.82447">
        <ele>55</ele>
        <time>2021-05-14T12:22:15Z</time>
      </trkpt>
      <trkpt lat="43.61309" lon="3.82442">
        <ele>55</ele>
        <time>2021-05-14T12:22:16Z</time>
      </trkpt>
      <trkpt lat="43.61311" lon="3.82433">
        <ele>55</ele>
        <time>2021-05-14T12:22:18Z</time>
      </trkpt>
      <trkpt lat="43.61311" lon="3.82429">
        <ele>55</ele>
        <time>2021-05-14T12:22:19Z</time>
      </trkpt>
      <trkpt lat="43.61312" lon="3.82424">
        <ele>55</ele>
        <time>2021-05-14T12:22:20Z</time>
      </trkpt>
      <trkpt lat="43.61312" lon="3.82413">
        <ele>55</ele>
        <time>2021-05-14T12:22:22Z</time>
      </trkpt>
      <trkpt lat="43.61312" lon="3.82406">
        <ele>55</ele>
        <time>2021-05-14T12:22:23Z</time>
      </trkpt>
      <trkpt lat="43.61312" lon="3.82401">
        <ele>55</ele>
        <time>2021-05-14T12:22:24Z</time>
      </trkpt>
      <trkpt lat="43.61311" lon="3.82395">
        <ele>55</ele>
        <time>2021-05-14T12:22:25Z</time>
      </trkpt>
      <trkpt lat="43.6131" lon="3.82389">
        <ele>55</ele>
        <time>2021-05-14T12:22:26Z</time>
      </trkpt>
      <trkpt lat="43.61309" lon="3.82384">
        <ele>55</ele>
        <time>2021-05-14T12:22:27Z</time>
      </trkpt>
      <trkpt lat="43.61308" lon="3.82378">
        <ele>55</ele>
        <time>2021-05-14T12:22:28Z</time>
      </trkpt>
      <trkpt lat="43.61307" lon="3.82371">
        <ele>54</ele>
        <time>2021-05-14T12:22:29Z</time>
      </trkpt>
      <trkpt lat="43.61307" lon="3.82365">
        <ele>54</ele>
        <time>2021-05-14T12:22:30Z</time>
      </trkpt>
      <trkpt lat="43.61306" lon="3.82358">
        <ele>54</ele>
        <time>2021-05-14T12:22:31Z</time>
      </trkpt>
      <trkpt lat="43.61304" lon="3.82352">
        <ele>54</ele>
        <time>2021-05-14T12:22:32Z</time>
      </trkpt>
      <trkpt lat="43.61303" lon="3.82347">
        <ele>54</ele>
        <time>2021-05-14T12:22:33Z</time>
      </trkpt>
      <trkpt lat="43.61303" lon="3.82343">
        <ele>54</ele>
        <time>2021-05-14T12:22:34Z</time>
      </trkpt>
      <trkpt lat="43.61303" lon="3.82338">
        <ele>54</ele>
        <time>2021-05-14T12:22:35Z</time>
      </trkpt>
      <trkpt lat="43.61303" lon="3.82333">
        <ele>54</ele>
        <time>2021-05-14T12:22:36Z</time>
      </trkpt>
      <trkpt lat="43.61304" lon="3.82327">
        <ele>54</ele>
        <time>2021-05-14T12:22:37Z</time>
      </trkpt>
      <trkpt lat="43.61309" lon="3.82317">
        <ele>53</ele>
        <time>2021-05-14T12:22:39Z</time>
      </trkpt>
      <trkpt lat="43.61312" lon="3.82312">
        <ele>53</ele>
        <time>2021-05-14T12:22:40Z</time>
      </trkpt>
      <trkpt lat="43.61315" lon="3.82309">
        <ele>53</ele>
        <time>2021-05-14T12:22:41Z</time>
      </trkpt>
      <trkpt lat="43.61318" lon="3.82306">
        <ele>53</ele>
        <time>2021-05-14T12:22:42Z</time>
      </trkpt>
      <trkpt lat="43.61321" lon="3.82303">
        <ele>53</ele>
        <time>2021-05-14T12:22:43Z</time>
      </trkpt>
      <trkpt lat="43.61324" lon="3.82302">
        <ele>53</ele>
        <time>2021-05-14T12:22:44Z</time>
      </trkpt>
      <trkpt lat="43.61327" lon="3.82299">
        <ele>53</ele>
        <time>2021-05-14T12:22:45Z</time>
      </trkpt>
      <trkpt lat="43.61329" lon="3.82297">
        <ele>53</ele>
        <time>2021-05-14T12:22:46Z</time>
      </trkpt>
      <trkpt lat="43.61332" lon="3.82294">
        <ele>53</ele>
        <time>2021-05-14T12:22:47Z</time>
      </trkpt>
      <trkpt lat="43.61335" lon="3.82291">
        <ele>53</ele>
        <time>2021-05-14T12:22:48Z</time>
      </trkpt>
      <trkpt lat="43.61339" lon="3.82287">
        <ele>53</ele>
        <time>2021-05-14T12:22:49Z</time>
      </trkpt>
      <trkpt lat="43.61343" lon="3.82284">
        <ele>53</ele>
        <time>2021-05-14T12:22:50Z</time>
      </trkpt>
      <trkpt lat="43.61347" lon="3.8228">
        <ele>53</ele>
        <time>2021-05-14T12:22:51Z</time>
      </trkpt>
      <trkpt lat="43.61352" lon="3.82276">
        <ele>53</ele>
        <time>2021-05-14T12:22:52Z</time>
      </trkpt>
      <trkpt lat="43.61357" lon="3.82273">
        <ele>53</ele>
        <time>2021-05-14T12:22:53Z</time>
      </trkpt>
      <trkpt lat="43.61362" lon="3.8227">
        <ele>53</ele>
        <time>2021-05-14T12:22:54Z</time>
      </trkpt>
      <trkpt lat="43.61367" lon="3.82266">
        <ele>53</ele>
        <time>2021-05-14T12:22:55Z</time>
      </trkpt>
      <trkpt lat="43.61373" lon="3.82263">
        <ele>53</ele>
        <time>2021-05-14T12:22:56Z</time>
      </trkpt>
      <trkpt lat="43.61379" lon="3.82261">
        <ele>53</ele>
        <time>2021-05-14T12:22:57Z</time>
      </trkpt>
      <trkpt lat="43.61385" lon="3.82259">
        <ele>53</ele>
        <time>2021-05-14T12:22:58Z</time>
      </trkpt>
      <trkpt lat="43.6139" lon="3.82258">
        <ele>52</ele>
        <time>2021-05-14T12:22:59Z</time>
      </trkpt>
      <trkpt lat="43.61395" lon="3.82255">
        <ele>52</ele>
        <time>2021-05-14T12:23:00Z</time>
      </trkpt>
      <trkpt lat="43.614" lon="3.82251">
        <ele>52</ele>
        <time>2021-05-14T12:23:01Z</time>
      </trkpt>
      <trkpt lat="43.61404" lon="3.82246">
        <ele>52</ele>
        <time>2021-05-14T12:23:02Z</time>
      </trkpt>
      <trkpt lat="43.61414" lon="3.82239">
        <ele>52</ele>
        <time>2021-05-14T12:23:04Z</time>
      </trkpt>
      <trkpt lat="43.61418" lon="3.82236">
        <ele>52</ele>
        <time>2021-05-14T12:23:05Z</time>
      </trkpt>
      <trkpt lat="43.61423" lon="3.82232">
        <ele>52</ele>
        <time>2021-05-14T12:23:06Z</time>
      </trkpt>
      <trkpt lat="43.61427" lon="3.82229">
        <ele>52</ele>
        <time>2021-05-14T12:23:07Z</time>
      </trkpt>
      <trkpt lat="43.61432" lon="3.82227">
        <ele>52</ele>
        <time>2021-05-14T12:23:08Z</time>
      </trkpt>
      <trkpt lat="43.61436" lon="3.82224">
        <ele>50</ele>
        <time>2021-05-14T12:23:09Z</time>
      </trkpt>
      <trkpt lat="43.61441" lon="3.82221">
        <ele>50</ele>
        <time>2021-05-14T12:23:10Z</time>
      </trkpt>
      <trkpt lat="43.61447" lon="3.82217">
        <ele>50</ele>
        <time>2021-05-14T12:23:11Z</time>
      </trkpt>
      <trkpt lat="43.61453" lon="3.82214">
        <ele>50</ele>
        <time>2021-05-14T12:23:12Z</time>
      </trkpt>
      <trkpt lat="43.61458" lon="3.82211">
        <ele>50</ele>
        <time>2021-05-14T12:23:13Z</time>
      </trkpt>
      <trkpt lat="43.61463" lon="3.82209">
        <ele>50</ele>
        <time>2021-05-14T12:23:14Z</time>
      </trkpt>
      <trkpt lat="43.61467" lon="3.82208">
        <ele>50</ele>
        <time>2021-05-14T12:23:15Z</time>
      </trkpt>
      <trkpt lat="43.61476" lon="3.82206">
        <ele>50</ele>
        <time>2021-05-14T12:23:17Z</time>
      </trkpt>
      <trkpt lat="43.6148" lon="3.82205">
        <ele>50</ele>
        <time>2021-05-14T12:23:18Z</time>
      </trkpt>
      <trkpt lat="43.61484" lon="3.82205">
        <ele>48</ele>
        <time>2021-05-14T12:23:19Z</time>
      </trkpt>
      <trkpt lat="43.61489" lon="3.82205">
        <ele>48</ele>
        <time>2021-05-14T12:23:20Z</time>
      </trkpt>
      <trkpt lat="43.61493" lon="3.82205">
        <ele>48</ele>
        <time>2021-05-14T12:23:21Z</time>
      </trkpt>
      <trkpt lat="43.61497" lon="3.82206">
        <ele>48</ele>
        <time>2021-05-14T12:23:22Z</time>
      </trkpt>
      <trkpt lat="43.61501" lon="3.82206">
        <ele>48</ele>
        <time>2021-05-14T12:23:23Z</time>
      </trkpt>
      <trkpt lat="43.61507" lon="3.82205">
        <ele>48</ele>
        <time>2021-05-14T12:23:25Z</time>
      </trkpt>
      <trkpt lat="43.6151" lon="3.82203">
        <ele>48</ele>
        <time>2021-05-14T12:23:26Z</time>
      </trkpt>
      <trkpt lat="43.61513" lon="3.822">
        <ele>48</ele>
        <time>2021-05-14T12:23:27Z</time>
      </trkpt>
      <trkpt lat="43.61515" lon="3.82197">
        <ele>48</ele>
        <time>2021-05-14T12:23:28Z</time>
      </trkpt>
      <trkpt lat="43.61516" lon="3.82193">
        <ele>47</ele>
        <time>2021-05-14T12:23:29Z</time>
      </trkpt>
      <trkpt lat="43.61517" lon="3.82189">
        <ele>47</ele>
        <time>2021-05-14T12:23:30Z</time>
      </trkpt>
      <trkpt lat="43.61517" lon="3.82184">
        <ele>47</ele>
        <time>2021-05-14T12:23:31Z</time>
      </trkpt>
      <trkpt lat="43.61518" lon="3.82179">
        <ele>47</ele>
        <time>2021-05-14T12:23:32Z</time>
      </trkpt>
      <trkpt lat="43.61518" lon="3.82173">
        <ele>47</ele>
        <time>2021-05-14T12:23:33Z</time>
      </trkpt>
      <trkpt lat="43.61519" lon="3.82168">
        <ele>47</ele>
        <time>2021-05-14T12:23:34Z</time>
      </trkpt>
      <trkpt lat="43.61519" lon="3.82162">
        <ele>47</ele>
        <time>2021-05-14T12:23:35Z</time>
      </trkpt>
      <trkpt lat="43.61519" lon="3.82156">
        <ele>47</ele>
        <time>2021-05-14T12:23:36Z</time>
      </trkpt>
      <trkpt lat="43.61519" lon="3.82145">
        <ele>47</ele>
        <time>2021-05-14T12:23:38Z</time>
      </trkpt>
      <trkpt lat="43.6152" lon="3.82139">
        <ele>45</ele>
        <time>2021-05-14T12:23:39Z</time>
      </trkpt>
      <trkpt lat="43.6152" lon="3.82133">
        <ele>45</ele>
        <time>2021-05-14T12:23:40Z</time>
      </trkpt>
      <trkpt lat="43.61522" lon="3.82127">
        <ele>45</ele>
        <time>2021-05-14T12:23:41Z</time>
      </trkpt>
      <trkpt lat="43.61523" lon="3.82122">
        <ele>45</ele>
        <time>2021-05-14T12:23:42Z</time>
      </trkpt>
      <trkpt lat="43.61524" lon="3.82117">
        <ele>45</ele>
        <time>2021-05-14T12:23:43Z</time>
      </trkpt>
      <trkpt lat="43.61524" lon="3.82112">
        <ele>45</ele>
        <time>2021-05-14T12:23:44Z</time>
      </trkpt>
      <trkpt lat="43.61525" lon="3.82107">
        <ele>45</ele>
        <time>2021-05-14T12:23:45Z</time>
      </trkpt>
      <trkpt lat="43.61525" lon="3.82101">
        <ele>45</ele>
        <time>2021-05-14T12:23:46Z</time>
      </trkpt>
      <trkpt lat="43.61525" lon="3.82093">
        <ele>45</ele>
        <time>2021-05-14T12:23:47Z</time>
      </trkpt>
      <trkpt lat="43.61525" lon="3.82087">
        <ele>45</ele>
        <time>2021-05-14T12:23:48Z</time>
      </trkpt>
      <trkpt lat="43.61526" lon="3.8208">
        <ele>44</ele>
        <time>2021-05-14T12:23:49Z</time>
      </trkpt>
      <trkpt lat="43.61527" lon="3.82065">
        <ele>44</ele>
        <time>2021-05-14T12:23:51Z</time>
      </trkpt>
      <trkpt lat="43.61527" lon="3.82058">
        <ele>44</ele>
        <time>2021-05-14T12:23:52Z</time>
      </trkpt>
      <trkpt lat="43.61528" lon="3.82051">
        <ele>44</ele>
        <time>2021-05-14T12:23:53Z</time>
      </trkpt>
      <trkpt lat="43.61529" lon="3.82044">
        <ele>44</ele>
        <time>2021-05-14T12:23:54Z</time>
      </trkpt>
      <trkpt lat="43.61529" lon="3.82038">
        <ele>44</ele>
        <time>2021-05-14T12:23:55Z</time>
      </trkpt>
      <trkpt lat="43.6153" lon="3.82031">
        <ele>44</ele>
        <time>2021-05-14T12:23:56Z</time>
      </trkpt>
      <trkpt lat="43.61531" lon="3.82025">
        <ele>44</ele>
        <time>2021-05-14T12:23:57Z</time>
      </trkpt>
      <trkpt lat="43.61531" lon="3.82018">
        <ele>44</ele>
        <time>2021-05-14T12:23:58Z</time>
      </trkpt>
      <trkpt lat="43.61532" lon="3.82012">
        <ele>43</ele>
        <time>2021-05-14T12:23:59Z</time>
      </trkpt>
      <trkpt lat="43.61534" lon="3.82006">
        <ele>43</ele>
        <time>2021-05-14T12:24:00Z</time>
      </trkpt>
      <trkpt lat="43.61535" lon="3.82">
        <ele>43</ele>
        <time>2021-05-14T12:24:01Z</time>
      </trkpt>
      <trkpt lat="43.61536" lon="3.81994">
        <ele>43</ele>
        <time>2021-05-14T12:24:02Z</time>
      </trkpt>
      <trkpt lat="43.61537" lon="3.81988">
        <ele>43</ele>
        <time>2021-05-14T12:24:03Z</time>
      </trkpt>
      <trkpt lat="43.61538" lon="3.81983">
        <ele>43</ele>
        <time>2021-05-14T12:24:04Z</time>
      </trkpt>
      <trkpt lat="43.61538" lon="3.81977">
        <ele>43</ele>
        <time>2021-05-14T12:24:05Z</time>
      </trkpt>
      <trkpt lat="43.61539" lon="3.81972">
        <ele>43</ele>
        <time>2021-05-14T12:24:06Z</time>
      </trkpt>
      <trkpt lat="43.6154" lon="3.81966">
        <ele>43</ele>
        <time>2021-05-14T12:24:07Z</time>
      </trkpt>
      <trkpt lat="43.61541" lon="3.81961">
        <ele>43</ele>
        <time>2021-05-14T12:24:08Z</time>
      </trkpt>
      <trkpt lat="43.61542" lon="3.81955">
        <ele>41</ele>
        <time>2021-05-14T12:24:09Z</time>
      </trkpt>
      <trkpt lat="43.61544" lon="3.81949">
        <ele>41</ele>
        <time>2021-05-14T12:24:10Z</time>
      </trkpt>
      <trkpt lat="43.61545" lon="3.81944">
        <ele>41</ele>
        <time>2021-05-14T12:24:11Z</time>
      </trkpt>
      <trkpt lat="43.61546" lon="3.81937">
        <ele>41</ele>
        <time>2021-05-14T12:24:12Z</time>
      </trkpt>
      <trkpt lat="43.61547" lon="3.81931">
        <ele>41</ele>
        <time>2021-05-14T12:24:13Z</time>
      </trkpt>
      <trkpt lat="43.61548" lon="3.81925">
        <ele>41</ele>
        <time>2021-05-14T12:24:14Z</time>
      </trkpt>
      <trkpt lat="43.61549" lon="3.81919">
        <ele>41</ele>
        <time>2021-05-14T12:24:15Z</time>
      </trkpt>
      <trkpt lat="43.6155" lon="3.81913">
        <ele>41</ele>
        <time>2021-05-14T12:24:16Z</time>
      </trkpt>
      <trkpt lat="43.6155" lon="3.81907">
        <ele>41</ele>
        <time>2021-05-14T12:24:17Z</time>
      </trkpt>
      <trkpt lat="43.61551" lon="3.81902">
        <ele>41</ele>
        <time>2021-05-14T12:24:18Z</time>
      </trkpt>
      <trkpt lat="43.61551" lon="3.81896">
        <ele>40</ele>
        <time>2021-05-14T12:24:19Z</time>
      </trkpt>
      <trkpt lat="43.61552" lon="3.81884">
        <ele>40</ele>
        <time>2021-05-14T12:24:21Z</time>
      </trkpt>
      <trkpt lat="43.61552" lon="3.81878">
        <ele>40</ele>
        <time>2021-05-14T12:24:22Z</time>
      </trkpt>
      <trkpt lat="43.61552" lon="3.81872">
        <ele>40</ele>
        <time>2021-05-14T12:24:23Z</time>
      </trkpt>
      <trkpt lat="43.61551" lon="3.81866">
        <ele>40</ele>
        <time>2021-05-14T12:24:24Z</time>
      </trkpt>
      <trkpt lat="43.6155" lon="3.8186">
        <ele>40</ele>
        <time>2021-05-14T12:24:25Z</time>
      </trkpt>
      <trkpt lat="43.61549" lon="3.81855">
        <ele>40</ele>
        <time>2021-05-14T12:24:26Z</time>
      </trkpt>
      <trkpt lat="43.61548" lon="3.81849">
        <ele>40</ele>
        <time>2021-05-14T12:24:27Z</time>
      </trkpt>
      <trkpt lat="43.61546" lon="3.81845">
        <ele>40</ele>
        <time>2021-05-14T12:24:28Z</time>
      </trkpt>
      <trkpt lat="43.61544" lon="3.8184">
        <ele>40</ele>
        <time>2021-05-14T12:24:29Z</time>
      </trkpt>
      <trkpt lat="43.61543" lon="3.81834">
        <ele>40</ele>
        <time>2021-05-14T12:24:30Z</time>
      </trkpt>
      <trkpt lat="43.61541" lon="3.81829">
        <ele>40</ele>
        <time>2021-05-14T12:24:31Z</time>
      </trkpt>
      <trkpt lat="43.6154" lon="3.81824">
        <ele>40</ele>
        <time>2021-05-14T12:24:32Z</time>
      </trkpt>
      <trkpt lat="43.61538" lon="3.81818">
        <ele>40</ele>
        <time>2021-05-14T12:24:33Z</time>
      </trkpt>
      <trkpt lat="43.61537" lon="3.81813">
        <ele>40</ele>
        <time>2021-05-14T12:24:34Z</time>
      </trkpt>
      <trkpt lat="43.61536" lon="3.81808">
        <ele>40</ele>
        <time>2021-05-14T12:24:35Z</time>
      </trkpt>
      <trkpt lat="43.61534" lon="3.81803">
        <ele>40</ele>
        <time>2021-05-14T12:24:36Z</time>
      </trkpt>
      <trkpt lat="43.61533" lon="3.81797">
        <ele>40</ele>
        <time>2021-05-14T12:24:37Z</time>
      </trkpt>
      <trkpt lat="43.61532" lon="3.81792">
        <ele>40</ele>
        <time>2021-05-14T12:24:38Z</time>
      </trkpt>
      <trkpt lat="43.6153" lon="3.81787">
        <ele>39</ele>
        <time>2021-05-14T12:24:39Z</time>
      </trkpt>
      <trkpt lat="43.61529" lon="3.81782">
        <ele>39</ele>
        <time>2021-05-14T12:24:40Z</time>
      </trkpt>
      <trkpt lat="43.61528" lon="3.81777">
        <ele>39</ele>
        <time>2021-05-14T12:24:41Z</time>
      </trkpt>
      <trkpt lat="43.61526" lon="3.81772">
        <ele>39</ele>
        <time>2021-05-14T12:24:42Z</time>
      </trkpt>
      <trkpt lat="43.61525" lon="3.81767">
        <ele>39</ele>
        <time>2021-05-14T12:24:43Z</time>
      </trkpt>
      <trkpt lat="43.61524" lon="3.81762">
        <ele>39</ele>
        <time>2021-05-14T12:24:44Z</time>
      </trkpt>
      <trkpt lat="43.61523" lon="3.81756">
        <ele>39</ele>
        <time>2021-05-14T12:24:45Z</time>
      </trkpt>
      <trkpt lat="43.61521" lon="3.81751">
        <ele>39</ele>
        <time>2021-05-14T12:24:46Z</time>
      </trkpt>
      <trkpt lat="43.6152" lon="3.81746">
        <ele>39</ele>
        <time>2021-05-14T12:24:47Z</time>
      </trkpt>
      <trkpt lat="43.61518" lon="3.8174">
        <ele>39</ele>
        <time>2021-05-14T12:24:48Z</time>
      </trkpt>
      <trkpt lat="43.61517" lon="3.81735">
        <ele>40</ele>
        <time>2021-05-14T12:24:49Z</time>
      </trkpt>
      <trkpt lat="43.61515" lon="3.81729">
        <ele>40</ele>
        <time>2021-05-14T12:24:50Z</time>
      </trkpt>
      <trkpt lat="43.61514" lon="3.81723">
        <ele>40</ele>
        <time>2021-05-14T12:24:51Z</time>
      </trkpt>
      <trkpt lat="43.61512" lon="3.81718">
        <ele>40</ele>
        <time>2021-05-14T12:24:52Z</time>
      </trkpt>
      <trkpt lat="43.61511" lon="3.81712">
        <ele>40</ele>
        <time>2021-05-14T12:24:53Z</time>
      </trkpt>
      <trkpt lat="43.61509" lon="3.81706">
        <ele>40</ele>
        <time>2021-05-14T12:24:54Z</time>
      </trkpt>
      <trkpt lat="43.61508" lon="3.817">
        <ele>40</ele>
        <time>2021-05-14T12:24:55Z</time>
      </trkpt>
      <trkpt lat="43.61506" lon="3.81694">
        <ele>40</ele>
        <time>2021-05-14T12:24:56Z</time>
      </trkpt>
      <trkpt lat="43.61504" lon="3.81688">
        <ele>40</ele>
        <time>2021-05-14T12:24:57Z</time>
      </trkpt>
      <trkpt lat="43.61502" lon="3.81682">
        <ele>40</ele>
        <time>2021-05-14T12:24:58Z</time>
      </trkpt>
      <trkpt lat="43.615" lon="3.81677">
        <ele>40</ele>
        <time>2021-05-14T12:24:59Z</time>
      </trkpt>
      <trkpt lat="43.61499" lon="3.81671">
        <ele>40</ele>
        <time>2021-05-14T12:25:00Z</time>
      </trkpt>
      <trkpt lat="43.61497" lon="3.81665">
        <ele>40</ele>
        <time>2021-05-14T12:25:01Z</time>
      </trkpt>
      <trkpt lat="43.61496" lon="3.8166">
        <ele>40</ele>
        <time>2021-05-14T12:25:02Z</time>
      </trkpt>
      <trkpt lat="43.61494" lon="3.81653">
        <ele>40</ele>
        <time>2021-05-14T12:25:03Z</time>
      </trkpt>
      <trkpt lat="43.61492" lon="3.81646">
        <ele>40</ele>
        <time>2021-05-14T12:25:04Z</time>
      </trkpt>
      <trkpt lat="43.6149" lon="3.81639">
        <ele>40</ele>
        <time>2021-05-14T12:25:05Z</time>
      </trkpt>
      <trkpt lat="43.61488" lon="3.81632">
        <ele>40</ele>
        <time>2021-05-14T12:25:06Z</time>
      </trkpt>
      <trkpt lat="43.61486" lon="3.81625">
        <ele>40</ele>
        <time>2021-05-14T12:25:07Z</time>
      </trkpt>
      <trkpt lat="43.61484" lon="3.81618">
        <ele>40</ele>
        <time>2021-05-14T12:25:08Z</time>
      </trkpt>
      <trkpt lat="43.61482" lon="3.81612">
        <ele>40</ele>
        <time>2021-05-14T12:25:09Z</time>
      </trkpt>
      <trkpt lat="43.61481" lon="3.81605">
        <ele>40</ele>
        <time>2021-05-14T12:25:10Z</time>
      </trkpt>
      <trkpt lat="43.61477" lon="3.81593">
        <ele>40</ele>
        <time>2021-05-14T12:25:12Z</time>
      </trkpt>
      <trkpt lat="43.61476" lon="3.81588">
        <ele>40</ele>
        <time>2021-05-14T12:25:13Z</time>
      </trkpt>
      <trkpt lat="43.61474" lon="3.81584">
        <ele>40</ele>
        <time>2021-05-14T12:25:14Z</time>
      </trkpt>
      <trkpt lat="43.61474" lon="3.81581">
        <ele>40</ele>
        <time>2021-05-14T12:25:15Z</time>
      </trkpt>
      <trkpt lat="43.61473" lon="3.81579">
        <ele>40</ele>
        <time>2021-05-14T12:25:16Z</time>
      </trkpt>
      <trkpt lat="43.61472" lon="3.81575">
        <ele>40</ele>
        <time>2021-05-14T12:25:18Z</time>
      </trkpt>
      <trkpt lat="43.61471" lon="3.81572">
        <ele>40</ele>
        <time>2021-05-14T12:25:20Z</time>
      </trkpt>
      <trkpt lat="43.6147" lon="3.81569">
        <ele>40</ele>
        <time>2021-05-14T12:25:22Z</time>
      </trkpt>
      <trkpt lat="43.61471" lon="3.81566">
        <ele>40</ele>
        <time>2021-05-14T12:25:24Z</time>
      </trkpt>
      <trkpt lat="43.61472" lon="3.81563">
        <ele>40</ele>
        <time>2021-05-14T12:25:26Z</time>
      </trkpt>
      <trkpt lat="43.6147" lon="3.81557">
        <ele>40</ele>
        <time>2021-05-14T12:25:28Z</time>
      </trkpt>
      <trkpt lat="43.61469" lon="3.81553">
        <ele>40</ele>
        <time>2021-05-14T12:25:29Z</time>
      </trkpt>
      <trkpt lat="43.61468" lon="3.81549">
        <ele>40</ele>
        <time>2021-05-14T12:25:30Z</time>
      </trkpt>
      <trkpt lat="43.61468" lon="3.81544">
        <ele>40</ele>
        <time>2021-05-14T12:25:31Z</time>
      </trkpt>
      <trkpt lat="43.61468" lon="3.8154">
        <ele>40</ele>
        <time>2021-05-14T12:25:32Z</time>
      </trkpt>
      <trkpt lat="43.61469" lon="3.81535">
        <ele>40</ele>
        <time>2021-05-14T12:25:33Z</time>
      </trkpt>
      <trkpt lat="43.61469" lon="3.8153">
        <ele>40</ele>
        <time>2021-05-14T12:25:34Z</time>
      </trkpt>
      <trkpt lat="43.61468" lon="3.81525">
        <ele>40</ele>
        <time>2021-05-14T12:25:35Z</time>
      </trkpt>
      <trkpt lat="43.61468" lon="3.8152">
        <ele>40</ele>
        <time>2021-05-14T12:25:36Z</time>
      </trkpt>
      <trkpt lat="43.61467" lon="3.81515">
        <ele>40</ele>
        <time>2021-05-14T12:25:37Z</time>
      </trkpt>
      <trkpt lat="43.61466" lon="3.81511">
        <ele>40</ele>
        <time>2021-05-14T12:25:38Z</time>
      </trkpt>
      <trkpt lat="43.61465" lon="3.81506">
        <ele>41</ele>
        <time>2021-05-14T12:25:39Z</time>
      </trkpt>
      <trkpt lat="43.61464" lon="3.81502">
        <ele>41</ele>
        <time>2021-05-14T12:25:40Z</time>
      </trkpt>
      <trkpt lat="43.61463" lon="3.81497">
        <ele>41</ele>
        <time>2021-05-14T12:25:41Z</time>
      </trkpt>
      <trkpt lat="43.61462" lon="3.81493">
        <ele>41</ele>
        <time>2021-05-14T12:25:42Z</time>
      </trkpt>
      <trkpt lat="43.6146" lon="3.81489">
        <ele>41</ele>
        <time>2021-05-14T12:25:43Z</time>
      </trkpt>
      <trkpt lat="43.61459" lon="3.81485">
        <ele>41</ele>
        <time>2021-05-14T12:25:44Z</time>
      </trkpt>
      <trkpt lat="43.61458" lon="3.81481">
        <ele>41</ele>
        <time>2021-05-14T12:25:45Z</time>
      </trkpt>
      <trkpt lat="43.61457" lon="3.81477">
        <ele>41</ele>
        <time>2021-05-14T12:25:46Z</time>
      </trkpt>
      <trkpt lat="43.61455" lon="3.81472">
        <ele>41</ele>
        <time>2021-05-14T12:25:47Z</time>
      </trkpt>
      <trkpt lat="43.61453" lon="3.81467">
        <ele>41</ele>
        <time>2021-05-14T12:25:48Z</time>
      </trkpt>
      <trkpt lat="43.61451" lon="3.81462">
        <ele>42</ele>
        <time>2021-05-14T12:25:49Z</time>
      </trkpt>
      <trkpt lat="43.61449" lon="3.81458">
        <ele>42</ele>
        <time>2021-05-14T12:25:50Z</time>
      </trkpt>
      <trkpt lat="43.61448" lon="3.81453">
        <ele>42</ele>
        <time>2021-05-14T12:25:51Z</time>
      </trkpt>
      <trkpt lat="43.61446" lon="3.81448">
        <ele>42</ele>
        <time>2021-05-14T12:25:52Z</time>
      </trkpt>
      <trkpt lat="43.61445" lon="3.81444">
        <ele>42</ele>
        <time>2021-05-14T12:25:53Z</time>
      </trkpt>
      <trkpt lat="43.61443" lon="3.8144">
        <ele>42</ele>
        <time>2021-05-14T12:25:54Z</time>
      </trkpt>
      <trkpt lat="43.61442" lon="3.81435">
        <ele>42</ele>
        <time>2021-05-14T12:25:55Z</time>
      </trkpt>
      <trkpt lat="43.61442" lon="3.81431">
        <ele>42</ele>
        <time>2021-05-14T12:25:56Z</time>
      </trkpt>
      <trkpt lat="43.6144" lon="3.81427">
        <ele>42</ele>
        <time>2021-05-14T12:25:57Z</time>
      </trkpt>
      <trkpt lat="43.61439" lon="3.81422">
        <ele>42</ele>
        <time>2021-05-14T12:25:58Z</time>
      </trkpt>
      <trkpt lat="43.61439" lon="3.81418">
        <ele>42</ele>
        <time>2021-05-14T12:25:59Z</time>
      </trkpt>
      <trkpt lat="43.61437" lon="3.81414">
        <ele>42</ele>
        <time>2021-05-14T12:26:00Z</time>
      </trkpt>
      <trkpt lat="43.61436" lon="3.8141">
        <ele>42</ele>
        <time>2021-05-14T12:26:01Z</time>
      </trkpt>
      <trkpt lat="43.61435" lon="3.81406">
        <ele>42</ele>
        <time>2021-05-14T12:26:02Z</time>
      </trkpt>
      <trkpt lat="43.61434" lon="3.81402">
        <ele>42</ele>
        <time>2021-05-14T12:26:03Z</time>
      </trkpt>
      <trkpt lat="43.61433" lon="3.81398">
        <ele>42</ele>
        <time>2021-05-14T12:26:04Z</time>
      </trkpt>
      <trkpt lat="43.61431" lon="3.81393">
        <ele>42</ele>
        <time>2021-05-14T12:26:05Z</time>
      </trkpt>
      <trkpt lat="43.6143" lon="3.81389">
        <ele>42</ele>
        <time>2021-05-14T12:26:06Z</time>
      </trkpt>
      <trkpt lat="43.61429" lon="3.81385">
        <ele>42</ele>
        <time>2021-05-14T12:26:07Z</time>
      </trkpt>
      <trkpt lat="43.61428" lon="3.8138">
        <ele>42</ele>
        <time>2021-05-14T12:26:08Z</time>
      </trkpt>
      <trkpt lat="43.61427" lon="3.81376">
        <ele>43</ele>
        <time>2021-05-14T12:26:09Z</time>
      </trkpt>
      <trkpt lat="43.61426" lon="3.81372">
        <ele>43</ele>
        <time>2021-05-14T12:26:10Z</time>
      </trkpt>
      <trkpt lat="43.61424" lon="3.81368">
        <ele>43</ele>
        <time>2021-05-14T12:26:11Z</time>
      </trkpt>
      <trkpt lat="43.61422" lon="3.81364">
        <ele>43</ele>
        <time>2021-05-14T12:26:12Z</time>
      </trkpt>
      <trkpt lat="43.61421" lon="3.81359">
        <ele>43</ele>
        <time>2021-05-14T12:26:13Z</time>
      </trkpt>
      <trkpt lat="43.61421" lon="3.81354">
        <ele>43</ele>
        <time>2021-05-14T12:26:14Z</time>
      </trkpt>
      <trkpt lat="43.6142" lon="3.81345">
        <ele>43</ele>
        <time>2021-05-14T12:26:16Z</time>
      </trkpt>
      <trkpt lat="43.61419" lon="3.8134">
        <ele>43</ele>
        <time>2021-05-14T12:26:17Z</time>
      </trkpt>
      <trkpt lat="43.61418" lon="3.81336">
        <ele>43</ele>
        <time>2021-05-14T12:26:18Z</time>
      </trkpt>
      <trkpt lat="43.61417" lon="3.81332">
        <ele>44</ele>
        <time>2021-05-14T12:26:19Z</time>
      </trkpt>
      <trkpt lat="43.61416" lon="3.81327">
        <ele>44</ele>
        <time>2021-05-14T12:26:20Z</time>
      </trkpt>
      <trkpt lat="43.61415" lon="3.81323">
        <ele>44</ele>
        <time>2021-05-14T12:26:21Z</time>
      </trkpt>
      <trkpt lat="43.61414" lon="3.81318">
        <ele>44</ele>
        <time>2021-05-14T12:26:22Z</time>
      </trkpt>
      <trkpt lat="43.61413" lon="3.81314">
        <ele>44</ele>
        <time>2021-05-14T12:26:23Z</time>
      </trkpt>
      <trkpt lat="43.61412" lon="3.8131">
        <ele>44</ele>
        <time>2021-05-14T12:26:24Z</time>
      </trkpt>
      <trkpt lat="43.61412" lon="3.81306">
        <ele>44</ele>
        <time>2021-05-14T12:26:25Z</time>
      </trkpt>
      <trkpt lat="43.61411" lon="3.81301">
        <ele>44</ele>
        <time>2021-05-14T12:26:26Z</time>
      </trkpt>
      <trkpt lat="43.6141" lon="3.81297">
        <ele>44</ele>
        <time>2021-05-14T12:26:27Z</time>
      </trkpt>
      <trkpt lat="43.61409" lon="3.81293">
        <ele>44</ele>
        <time>2021-05-14T12:26:28Z</time>
      </trkpt>
      <trkpt lat="43.61408" lon="3.81288">
        <ele>44</ele>
        <time>2021-05-14T12:26:29Z</time>
      </trkpt>
      <trkpt lat="43.61407" lon="3.81284">
        <ele>44</ele>
        <time>2021-05-14T12:26:30Z</time>
      </trkpt>
      <trkpt lat="43.61406" lon="3.81279">
        <ele>44</ele>
        <time>2021-05-14T12:26:31Z</time>
      </trkpt>
      <trkpt lat="43.61406" lon="3.81275">
        <ele>44</ele>
        <time>2021-05-14T12:26:32Z</time>
      </trkpt>
      <trkpt lat="43.61406" lon="3.8127">
        <ele>44</ele>
        <time>2021-05-14T12:26:33Z</time>
      </trkpt>
      <trkpt lat="43.61405" lon="3.81266">
        <ele>44</ele>
        <time>2021-05-14T12:26:34Z</time>
      </trkpt>
      <trkpt lat="43.61405" lon="3.81261">
        <ele>44</ele>
        <time>2021-05-14T12:26:35Z</time>
      </trkpt>
      <trkpt lat="43.61405" lon="3.81257">
        <ele>44</ele>
        <time>2021-05-14T12:26:36Z</time>
      </trkpt>
      <trkpt lat="43.61405" lon="3.81252">
        <ele>44</ele>
        <time>2021-05-14T12:26:37Z</time>
      </trkpt>
      <trkpt lat="43.61404" lon="3.81248">
        <ele>44</ele>
        <time>2021-05-14T12:26:38Z</time>
      </trkpt>
      <trkpt lat="43.61404" lon="3.81243">
        <ele>45</ele>
        <time>2021-05-14T12:26:39Z</time>
      </trkpt>
      <trkpt lat="43.61404" lon="3.81234">
        <ele>45</ele>
        <time>2021-05-14T12:26:41Z</time>
      </trkpt>
      <trkpt lat="43.61404" lon="3.8123">
        <ele>45</ele>
        <time>2021-05-14T12:26:42Z</time>
      </trkpt>
      <trkpt lat="43.61404" lon="3.81225">
        <ele>45</ele>
        <time>2021-05-14T12:26:43Z</time>
      </trkpt>
      <trkpt lat="43.61404" lon="3.8122">
        <ele>45</ele>
        <time>2021-05-14T12:26:44Z</time>
      </trkpt>
      <trkpt lat="43.61404" lon="3.81216">
        <ele>45</ele>
        <time>2021-05-14T12:26:45Z</time>
      </trkpt>
      <trkpt lat="43.61404" lon="3.81211">
        <ele>45</ele>
        <time>2021-05-14T12:26:46Z</time>
      </trkpt>
      <trkpt lat="43.61404" lon="3.81207">
        <ele>45</ele>
        <time>2021-05-14T12:26:47Z</time>
      </trkpt>
      <trkpt lat="43.61404" lon="3.81202">
        <ele>45</ele>
        <time>2021-05-14T12:26:48Z</time>
      </trkpt>
      <trkpt lat="43.61404" lon="3.81198">
        <ele>46</ele>
        <time>2021-05-14T12:26:49Z</time>
      </trkpt>
      <trkpt lat="43.61404" lon="3.81193">
        <ele>46</ele>
        <time>2021-05-14T12:26:50Z</time>
      </trkpt>
      <trkpt lat="43.61404" lon="3.81188">
        <ele>46</ele>
        <time>2021-05-14T12:26:51Z</time>
      </trkpt>
      <trkpt lat="43.61404" lon="3.81184">
        <ele>46</ele>
        <time>2021-05-14T12:26:52Z</time>
      </trkpt>
      <trkpt lat="43.61404" lon="3.81179">
        <ele>46</ele>
        <time>2021-05-14T12:26:53Z</time>
      </trkpt>
      <trkpt lat="43.61404" lon="3.81175">
        <ele>46</ele>
        <time>2021-05-14T12:26:54Z</time>
      </trkpt>
      <trkpt lat="43.61404" lon="3.8117">
        <ele>46</ele>
        <time>2021-05-14T12:26:55Z</time>
      </trkpt>
      <trkpt lat="43.61404" lon="3.81166">
        <ele>46</ele>
        <time>2021-05-14T12:26:56Z</time>
      </trkpt>
      <trkpt lat="43.61404" lon="3.81161">
        <ele>46</ele>
        <time>2021-05-14T12:26:57Z</time>
      </trkpt>
      <trkpt lat="43.61404" lon="3.81156">
        <ele>46</ele>
        <time>2021-05-14T12:26:58Z</time>
      </trkpt>
      <trkpt lat="43.61404" lon="3.81152">
        <ele>48</ele>
        <time>2021-05-14T12:26:59Z</time>
      </trkpt>
      <trkpt lat="43.61404" lon="3.81147">
        <ele>48</ele>
        <time>2021-05-14T12:27:00Z</time>
      </trkpt>
      <trkpt lat="43.61405" lon="3.81143">
        <ele>48</ele>
        <time>2021-05-14T12:27:01Z</time>
      </trkpt>
      <trkpt lat="43.61405" lon="3.81139">
        <ele>48</ele>
        <time>2021-05-14T12:27:02Z</time>
      </trkpt>
      <trkpt lat="43.61404" lon="3.81134">
        <ele>48</ele>
        <time>2021-05-14T12:27:03Z</time>
      </trkpt>
      <trkpt lat="43.61404" lon="3.8113">
        <ele>48</ele>
        <time>2021-05-14T12:27:04Z</time>
      </trkpt>
      <trkpt lat="43.61404" lon="3.81125">
        <ele>48</ele>
        <time>2021-05-14T12:27:05Z</time>
      </trkpt>
      <trkpt lat="43.61404" lon="3.81121">
        <ele>48</ele>
        <time>2021-05-14T12:27:06Z</time>
      </trkpt>
      <trkpt lat="43.61404" lon="3.81117">
        <ele>48</ele>
        <time>2021-05-14T12:27:07Z</time>
      </trkpt>
      <trkpt lat="43.61404" lon="3.81113">
        <ele>48</ele>
        <time>2021-05-14T12:27:08Z</time>
      </trkpt>
      <trkpt lat="43.61403" lon="3.81108">
        <ele>49</ele>
        <time>2021-05-14T12:27:09Z</time>
      </trkpt>
      <trkpt lat="43.61403" lon="3.81104">
        <ele>49</ele>
        <time>2021-05-14T12:27:10Z</time>
      </trkpt>
      <trkpt lat="43.61403" lon="3.81099">
        <ele>49</ele>
        <time>2021-05-14T12:27:11Z</time>
      </trkpt>
      <trkpt lat="43.61403" lon="3.81094">
        <ele>49</ele>
        <time>2021-05-14T12:27:12Z</time>
      </trkpt>
      <trkpt lat="43.61404" lon="3.8109">
        <ele>49</ele>
        <time>2021-05-14T12:27:13Z</time>
      </trkpt>
      <trkpt lat="43.61405" lon="3.81086">
        <ele>49</ele>
        <time>2021-05-14T12:27:14Z</time>
      </trkpt>
      <trkpt lat="43.61406" lon="3.81082">
        <ele>49</ele>
        <time>2021-05-14T12:27:15Z</time>
      </trkpt>
      <trkpt lat="43.61407" lon="3.81078">
        <ele>49</ele>
        <time>2021-05-14T12:27:16Z</time>
      </trkpt>
      <trkpt lat="43.61409" lon="3.81075">
        <ele>49</ele>
        <time>2021-05-14T12:27:17Z</time>
      </trkpt>
      <trkpt lat="43.61411" lon="3.81072">
        <ele>49</ele>
        <time>2021-05-14T12:27:18Z</time>
      </trkpt>
      <trkpt lat="43.61415" lon="3.81068">
        <ele>49</ele>
        <time>2021-05-14T12:27:20Z</time>
      </trkpt>
      <trkpt lat="43.61417" lon="3.81066">
        <ele>49</ele>
        <time>2021-05-14T12:27:22Z</time>
      </trkpt>
      <trkpt lat="43.61418" lon="3.81062">
        <ele>49</ele>
        <time>2021-05-14T12:27:24Z</time>
      </trkpt>
      <trkpt lat="43.61417" lon="3.8106">
        <ele>49</ele>
        <time>2021-05-14T12:27:25Z</time>
      </trkpt>
      <trkpt lat="43.61415" lon="3.81058">
        <ele>49</ele>
        <time>2021-05-14T12:27:26Z</time>
      </trkpt>
      <trkpt lat="43.61412" lon="3.81055">
        <ele>49</ele>
        <time>2021-05-14T12:27:27Z</time>
      </trkpt>
      <trkpt lat="43.61409" lon="3.81053">
        <ele>49</ele>
        <time>2021-05-14T12:27:28Z</time>
      </trkpt>
      <trkpt lat="43.61407" lon="3.8105">
        <ele>51</ele>
        <time>2021-05-14T12:27:29Z</time>
      </trkpt>
      <trkpt lat="43.61404" lon="3.81047">
        <ele>51</ele>
        <time>2021-05-14T12:27:30Z</time>
      </trkpt>
      <trkpt lat="43.61402" lon="3.81044">
        <ele>51</ele>
        <time>2021-05-14T12:27:31Z</time>
      </trkpt>
      <trkpt lat="43.614" lon="3.8104">
        <ele>51</ele>
        <time>2021-05-14T12:27:32Z</time>
      </trkpt>
      <trkpt lat="43.61398" lon="3.81035">
        <ele>51</ele>
        <time>2021-05-14T12:27:33Z</time>
      </trkpt>
      <trkpt lat="43.61398" lon="3.81031">
        <ele>51</ele>
        <time>2021-05-14T12:27:34Z</time>
      </trkpt>
      <trkpt lat="43.61397" lon="3.81026">
        <ele>51</ele>
        <time>2021-05-14T12:27:35Z</time>
      </trkpt>
      <trkpt lat="43.61396" lon="3.81017">
        <ele>51</ele>
        <time>2021-05-14T12:27:37Z</time>
      </trkpt>
      <trkpt lat="43.61395" lon="3.81012">
        <ele>51</ele>
        <time>2021-05-14T12:27:38Z</time>
      </trkpt>
      <trkpt lat="43.61395" lon="3.81008">
        <ele>52</ele>
        <time>2021-05-14T12:27:39Z</time>
      </trkpt>
      <trkpt lat="43.61394" lon="3.81003">
        <ele>52</ele>
        <time>2021-05-14T12:27:40Z</time>
      </trkpt>
      <trkpt lat="43.61394" lon="3.80999">
        <ele>52</ele>
        <time>2021-05-14T12:27:41Z</time>
      </trkpt>
      <trkpt lat="43.61393" lon="3.80994">
        <ele>52</ele>
        <time>2021-05-14T12:27:42Z</time>
      </trkpt>
      <trkpt lat="43.61393" lon="3.8099">
        <ele>52</ele>
        <time>2021-05-14T12:27:43Z</time>
      </trkpt>
      <trkpt lat="43.61392" lon="3.80987">
        <ele>52</ele>
        <time>2021-05-14T12:27:44Z</time>
      </trkpt>
      <trkpt lat="43.61392" lon="3.80983">
        <ele>52</ele>
        <time>2021-05-14T12:27:45Z</time>
      </trkpt>
      <trkpt lat="43.61392" lon="3.8098">
        <ele>52</ele>
        <time>2021-05-14T12:27:46Z</time>
      </trkpt>
      <trkpt lat="43.61391" lon="3.80975">
        <ele>52</ele>
        <time>2021-05-14T12:27:47Z</time>
      </trkpt>
      <trkpt lat="43.61391" lon="3.8097">
        <ele>52</ele>
        <time>2021-05-14T12:27:48Z</time>
      </trkpt>
      <trkpt lat="43.61391" lon="3.80966">
        <ele>52</ele>
        <time>2021-05-14T12:27:49Z</time>
      </trkpt>
      <trkpt lat="43.6139" lon="3.80963">
        <ele>52</ele>
        <time>2021-05-14T12:27:50Z</time>
      </trkpt>
      <trkpt lat="43.6139" lon="3.80959">
        <ele>52</ele>
        <time>2021-05-14T12:27:51Z</time>
      </trkpt>
      <trkpt lat="43.61389" lon="3.80954">
        <ele>52</ele>
        <time>2021-05-14T12:27:52Z</time>
      </trkpt>
      <trkpt lat="43.61389" lon="3.80944">
        <ele>52</ele>
        <time>2021-05-14T12:27:54Z</time>
      </trkpt>
      <trkpt lat="43.61388" lon="3.80938">
        <ele>52</ele>
        <time>2021-05-14T12:27:55Z</time>
      </trkpt>
      <trkpt lat="43.61388" lon="3.80934">
        <ele>52</ele>
        <time>2021-05-14T12:27:56Z</time>
      </trkpt>
      <trkpt lat="43.61387" lon="3.80929">
        <ele>52</ele>
        <time>2021-05-14T12:27:57Z</time>
      </trkpt>
      <trkpt lat="43.61387" lon="3.80924">
        <ele>52</ele>
        <time>2021-05-14T12:27:58Z</time>
      </trkpt>
      <trkpt lat="43.61386" lon="3.80919">
        <ele>53</ele>
        <time>2021-05-14T12:27:59Z</time>
      </trkpt>
      <trkpt lat="43.61386" lon="3.80914">
        <ele>53</ele>
        <time>2021-05-14T12:28:00Z</time>
      </trkpt>
      <trkpt lat="43.61385" lon="3.8091">
        <ele>53</ele>
        <time>2021-05-14T12:28:01Z</time>
      </trkpt>
      <trkpt lat="43.61385" lon="3.80905">
        <ele>53</ele>
        <time>2021-05-14T12:28:02Z</time>
      </trkpt>
      <trkpt lat="43.61385" lon="3.809">
        <ele>53</ele>
        <time>2021-05-14T12:28:03Z</time>
      </trkpt>
      <trkpt lat="43.61384" lon="3.80896">
        <ele>53</ele>
        <time>2021-05-14T12:28:04Z</time>
      </trkpt>
      <trkpt lat="43.61384" lon="3.80891">
        <ele>53</ele>
        <time>2021-05-14T12:28:05Z</time>
      </trkpt>
      <trkpt lat="43.61383" lon="3.80887">
        <ele>53</ele>
        <time>2021-05-14T12:28:06Z</time>
      </trkpt>
      <trkpt lat="43.61383" lon="3.80882">
        <ele>53</ele>
        <time>2021-05-14T12:28:07Z</time>
      </trkpt>
      <trkpt lat="43.61383" lon="3.80877">
        <ele>53</ele>
        <time>2021-05-14T12:28:08Z</time>
      </trkpt>
      <trkpt lat="43.61383" lon="3.80872">
        <ele>54</ele>
        <time>2021-05-14T12:28:09Z</time>
      </trkpt>
      <trkpt lat="43.61382" lon="3.80868">
        <ele>54</ele>
        <time>2021-05-14T12:28:10Z</time>
      </trkpt>
      <trkpt lat="43.61382" lon="3.80863">
        <ele>54</ele>
        <time>2021-05-14T12:28:11Z</time>
      </trkpt>
      <trkpt lat="43.61382" lon="3.80858">
        <ele>54</ele>
        <time>2021-05-14T12:28:12Z</time>
      </trkpt>
      <trkpt lat="43.61381" lon="3.80853">
        <ele>54</ele>
        <time>2021-05-14T12:28:13Z</time>
      </trkpt>
      <trkpt lat="43.61381" lon="3.80848">
        <ele>54</ele>
        <time>2021-05-14T12:28:14Z</time>
      </trkpt>
      <trkpt lat="43.61381" lon="3.80843">
        <ele>54</ele>
        <time>2021-05-14T12:28:15Z</time>
      </trkpt>
      <trkpt lat="43.6138" lon="3.80838">
        <ele>54</ele>
        <time>2021-05-14T12:28:16Z</time>
      </trkpt>
      <trkpt lat="43.6138" lon="3.80833">
        <ele>54</ele>
        <time>2021-05-14T12:28:17Z</time>
      </trkpt>
      <trkpt lat="43.6138" lon="3.80828">
        <ele>54</ele>
        <time>2021-05-14T12:28:18Z</time>
      </trkpt>
      <trkpt lat="43.61379" lon="3.80823">
        <ele>55</ele>
        <time>2021-05-14T12:28:19Z</time>
      </trkpt>
      <trkpt lat="43.61379" lon="3.80818">
        <ele>55</ele>
        <time>2021-05-14T12:28:20Z</time>
      </trkpt>
      <trkpt lat="43.61379" lon="3.80813">
        <ele>55</ele>
        <time>2021-05-14T12:28:21Z</time>
      </trkpt>
      <trkpt lat="43.61379" lon="3.80807">
        <ele>55</ele>
        <time>2021-05-14T12:28:22Z</time>
      </trkpt>
      <trkpt lat="43.61379" lon="3.80802">
        <ele>55</ele>
        <time>2021-05-14T12:28:23Z</time>
      </trkpt>
      <trkpt lat="43.61379" lon="3.80797">
        <ele>55</ele>
        <time>2021-05-14T12:28:24Z</time>
      </trkpt>
      <trkpt lat="43.61379" lon="3.80792">
        <ele>55</ele>
        <time>2021-05-14T12:28:25Z</time>
      </trkpt>
      <trkpt lat="43.61379" lon="3.80786">
        <ele>55</ele>
        <time>2021-05-14T12:28:26Z</time>
      </trkpt>
      <trkpt lat="43.61379" lon="3.80781">
        <ele>55</ele>
        <time>2021-05-14T12:28:27Z</time>
      </trkpt>
      <trkpt lat="43.61379" lon="3.80775">
        <ele>55</ele>
        <time>2021-05-14T12:28:28Z</time>
      </trkpt>
      <trkpt lat="43.61379" lon="3.8077">
        <ele>55</ele>
        <time>2021-05-14T12:28:29Z</time>
      </trkpt>
      <trkpt lat="43.61379" lon="3.80764">
        <ele>55</ele>
        <time>2021-05-14T12:28:30Z</time>
      </trkpt>
      <trkpt lat="43.61379" lon="3.80759">
        <ele>55</ele>
        <time>2021-05-14T12:28:31Z</time>
      </trkpt>
      <trkpt lat="43.61379" lon="3.80754">
        <ele>55</ele>
        <time>2021-05-14T12:28:32Z</time>
      </trkpt>
      <trkpt lat="43.6138" lon="3.80749">
        <ele>55</ele>
        <time>2021-05-14T12:28:33Z</time>
      </trkpt>
      <trkpt lat="43.6138" lon="3.80743">
        <ele>55</ele>
        <time>2021-05-14T12:28:34Z</time>
      </trkpt>
      <trkpt lat="43.61381" lon="3.80738">
        <ele>55</ele>
        <time>2021-05-14T12:28:35Z</time>
      </trkpt>
      <trkpt lat="43.61381" lon="3.80733">
        <ele>55</ele>
        <time>2021-05-14T12:28:36Z</time>
      </trkpt>
      <trkpt lat="43.61381" lon="3.80728">
        <ele>55</ele>
        <time>2021-05-14T12:28:37Z</time>
      </trkpt>
      <trkpt lat="43.61382" lon="3.80723">
        <ele>55</ele>
        <time>2021-05-14T12:28:38Z</time>
      </trkpt>
      <trkpt lat="43.61383" lon="3.80717">
        <ele>56</ele>
        <time>2021-05-14T12:28:39Z</time>
      </trkpt>
      <trkpt lat="43.61383" lon="3.80712">
        <ele>56</ele>
        <time>2021-05-14T12:28:40Z</time>
      </trkpt>
      <trkpt lat="43.61384" lon="3.80707">
        <ele>56</ele>
        <time>2021-05-14T12:28:41Z</time>
      </trkpt>
      <trkpt lat="43.61385" lon="3.80702">
        <ele>56</ele>
        <time>2021-05-14T12:28:42Z</time>
      </trkpt>
      <trkpt lat="43.61386" lon="3.80697">
        <ele>56</ele>
        <time>2021-05-14T12:28:43Z</time>
      </trkpt>
      <trkpt lat="43.61387" lon="3.80692">
        <ele>56</ele>
        <time>2021-05-14T12:28:44Z</time>
      </trkpt>
      <trkpt lat="43.61387" lon="3.80687">
        <ele>56</ele>
        <time>2021-05-14T12:28:45Z</time>
      </trkpt>
      <trkpt lat="43.61388" lon="3.80681">
        <ele>56</ele>
        <time>2021-05-14T12:28:46Z</time>
      </trkpt>
      <trkpt lat="43.61388" lon="3.80676">
        <ele>56</ele>
        <time>2021-05-14T12:28:47Z</time>
      </trkpt>
      <trkpt lat="43.61388" lon="3.8067">
        <ele>56</ele>
        <time>2021-05-14T12:28:48Z</time>
      </trkpt>
      <trkpt lat="43.61389" lon="3.80659">
        <ele>56</ele>
        <time>2021-05-14T12:28:50Z</time>
      </trkpt>
      <trkpt lat="43.61389" lon="3.80654">
        <ele>56</ele>
        <time>2021-05-14T12:28:51Z</time>
      </trkpt>
      <trkpt lat="43.61389" lon="3.80649">
        <ele>56</ele>
        <time>2021-05-14T12:28:52Z</time>
      </trkpt>
      <trkpt lat="43.6139" lon="3.80644">
        <ele>56</ele>
        <time>2021-05-14T12:28:53Z</time>
      </trkpt>
      <trkpt lat="43.6139" lon="3.80639">
        <ele>56</ele>
        <time>2021-05-14T12:28:54Z</time>
      </trkpt>
      <trkpt lat="43.6139" lon="3.80634">
        <ele>56</ele>
        <time>2021-05-14T12:28:55Z</time>
      </trkpt>
      <trkpt lat="43.61392" lon="3.8063">
        <ele>56</ele>
        <time>2021-05-14T12:28:56Z</time>
      </trkpt>
      <trkpt lat="43.61393" lon="3.80625">
        <ele>56</ele>
        <time>2021-05-14T12:28:57Z</time>
      </trkpt>
      <trkpt lat="43.61395" lon="3.80615">
        <ele>58</ele>
        <time>2021-05-14T12:28:59Z</time>
      </trkpt>
      <trkpt lat="43.61396" lon="3.8061">
        <ele>58</ele>
        <time>2021-05-14T12:29:00Z</time>
      </trkpt>
      <trkpt lat="43.61396" lon="3.80605">
        <ele>58</ele>
        <time>2021-05-14T12:29:01Z</time>
      </trkpt>
      <trkpt lat="43.61396" lon="3.806">
        <ele>58</ele>
        <time>2021-05-14T12:29:02Z</time>
      </trkpt>
      <trkpt lat="43.61395" lon="3.80595">
        <ele>58</ele>
        <time>2021-05-14T12:29:03Z</time>
      </trkpt>
      <trkpt lat="43.61394" lon="3.8059">
        <ele>58</ele>
        <time>2021-05-14T12:29:04Z</time>
      </trkpt>
      <trkpt lat="43.61393" lon="3.80585">
        <ele>58</ele>
        <time>2021-05-14T12:29:05Z</time>
      </trkpt>
      <trkpt lat="43.61393" lon="3.8058">
        <ele>58</ele>
        <time>2021-05-14T12:29:06Z</time>
      </trkpt>
      <trkpt lat="43.61393" lon="3.80576">
        <ele>58</ele>
        <time>2021-05-14T12:29:07Z</time>
      </trkpt>
      <trkpt lat="43.61394" lon="3.80571">
        <ele>58</ele>
        <time>2021-05-14T12:29:08Z</time>
      </trkpt>
      <trkpt lat="43.61395" lon="3.80567">
        <ele>59</ele>
        <time>2021-05-14T12:29:09Z</time>
      </trkpt>
      <trkpt lat="43.61397" lon="3.80563">
        <ele>59</ele>
        <time>2021-05-14T12:29:10Z</time>
      </trkpt>
      <trkpt lat="43.61398" lon="3.80559">
        <ele>59</ele>
        <time>2021-05-14T12:29:11Z</time>
      </trkpt>
      <trkpt lat="43.61399" lon="3.80555">
        <ele>59</ele>
        <time>2021-05-14T12:29:12Z</time>
      </trkpt>
      <trkpt lat="43.61399" lon="3.8055">
        <ele>59</ele>
        <time>2021-05-14T12:29:13Z</time>
      </trkpt>
      <trkpt lat="43.61399" lon="3.80546">
        <ele>59</ele>
        <time>2021-05-14T12:29:14Z</time>
      </trkpt>
      <trkpt lat="43.614" lon="3.80537">
        <ele>59</ele>
        <time>2021-05-14T12:29:16Z</time>
      </trkpt>
      <trkpt lat="43.614" lon="3.80533">
        <ele>59</ele>
        <time>2021-05-14T12:29:17Z</time>
      </trkpt>
      <trkpt lat="43.61401" lon="3.80528">
        <ele>59</ele>
        <time>2021-05-14T12:29:18Z</time>
      </trkpt>
      <trkpt lat="43.61401" lon="3.80524">
        <ele>60</ele>
        <time>2021-05-14T12:29:19Z</time>
      </trkpt>
      <trkpt lat="43.61402" lon="3.80519">
        <ele>60</ele>
        <time>2021-05-14T12:29:20Z</time>
      </trkpt>
      <trkpt lat="43.61402" lon="3.80514">
        <ele>60</ele>
        <time>2021-05-14T12:29:21Z</time>
      </trkpt>
      <trkpt lat="43.61403" lon="3.80509">
        <ele>60</ele>
        <time>2021-05-14T12:29:22Z</time>
      </trkpt>
      <trkpt lat="43.61403" lon="3.80504">
        <ele>60</ele>
        <time>2021-05-14T12:29:23Z</time>
      </trkpt>
      <trkpt lat="43.61404" lon="3.80499">
        <ele>60</ele>
        <time>2021-05-14T12:29:24Z</time>
      </trkpt>
      <trkpt lat="43.61404" lon="3.80493">
        <ele>60</ele>
        <time>2021-05-14T12:29:25Z</time>
      </trkpt>
      <trkpt lat="43.61404" lon="3.80488">
        <ele>60</ele>
        <time>2021-05-14T12:29:26Z</time>
      </trkpt>
      <trkpt lat="43.61405" lon="3.80483">
        <ele>60</ele>
        <time>2021-05-14T12:29:27Z</time>
      </trkpt>
      <trkpt lat="43.61405" lon="3.80477">
        <ele>60</ele>
        <time>2021-05-14T12:29:28Z</time>
      </trkpt>
      <trkpt lat="43.61405" lon="3.80473">
        <ele>60</ele>
        <time>2021-05-14T12:29:29Z</time>
      </trkpt>
      <trkpt lat="43.61406" lon="3.80469">
        <ele>60</ele>
        <time>2021-05-14T12:29:30Z</time>
      </trkpt>
      <trkpt lat="43.61406" lon="3.80465">
        <ele>60</ele>
        <time>2021-05-14T12:29:31Z</time>
      </trkpt>
      <trkpt lat="43.61406" lon="3.8046">
        <ele>60</ele>
        <time>2021-05-14T12:29:32Z</time>
      </trkpt>
      <trkpt lat="43.61406" lon="3.80455">
        <ele>60</ele>
        <time>2021-05-14T12:29:33Z</time>
      </trkpt>
      <trkpt lat="43.61405" lon="3.80451">
        <ele>60</ele>
        <time>2021-05-14T12:29:34Z</time>
      </trkpt>
      <trkpt lat="43.61405" lon="3.80447">
        <ele>60</ele>
        <time>2021-05-14T12:29:35Z</time>
      </trkpt>
      <trkpt lat="43.61405" lon="3.80443">
        <ele>60</ele>
        <time>2021-05-14T12:29:36Z</time>
      </trkpt>
      <trkpt lat="43.61406" lon="3.80439">
        <ele>60</ele>
        <time>2021-05-14T12:29:37Z</time>
      </trkpt>
      <trkpt lat="43.61406" lon="3.80434">
        <ele>60</ele>
        <time>2021-05-14T12:29:38Z</time>
      </trkpt>
      <trkpt lat="43.61406" lon="3.80429">
        <ele>60</ele>
        <time>2021-05-14T12:29:39Z</time>
      </trkpt>
      <trkpt lat="43.61407" lon="3.80418">
        <ele>60</ele>
        <time>2021-05-14T12:29:41Z</time>
      </trkpt>
      <trkpt lat="43.61407" lon="3.80413">
        <ele>60</ele>
        <time>2021-05-14T12:29:42Z</time>
      </trkpt>
      <trkpt lat="43.61407" lon="3.80408">
        <ele>60</ele>
        <time>2021-05-14T12:29:43Z</time>
      </trkpt>
      <trkpt lat="43.61408" lon="3.80398">
        <ele>60</ele>
        <time>2021-05-14T12:29:45Z</time>
      </trkpt>
      <trkpt lat="43.61409" lon="3.80394">
        <ele>60</ele>
        <time>2021-05-14T12:29:46Z</time>
      </trkpt>
      <trkpt lat="43.61409" lon="3.80389">
        <ele>60</ele>
        <time>2021-05-14T12:29:47Z</time>
      </trkpt>
      <trkpt lat="43.61409" lon="3.80385">
        <ele>60</ele>
        <time>2021-05-14T12:29:48Z</time>
      </trkpt>
      <trkpt lat="43.61407" lon="3.80381">
        <ele>61</ele>
        <time>2021-05-14T12:29:49Z</time>
      </trkpt>
      <trkpt lat="43.61406" lon="3.80379">
        <ele>61</ele>
        <time>2021-05-14T12:29:50Z</time>
      </trkpt>
      <trkpt lat="43.61405" lon="3.80378">
        <ele>61</ele>
        <time>2021-05-14T12:29:51Z</time>
      </trkpt>
      <trkpt lat="43.61404" lon="3.80375">
        <ele>61</ele>
        <time>2021-05-14T12:29:52Z</time>
      </trkpt>
      <trkpt lat="43.61404" lon="3.80371">
        <ele>61</ele>
        <time>2021-05-14T12:29:53Z</time>
      </trkpt>
      <trkpt lat="43.61405" lon="3.80367">
        <ele>61</ele>
        <time>2021-05-14T12:29:54Z</time>
      </trkpt>
      <trkpt lat="43.61405" lon="3.80362">
        <ele>61</ele>
        <time>2021-05-14T12:29:55Z</time>
      </trkpt>
      <trkpt lat="43.61405" lon="3.80358">
        <ele>61</ele>
        <time>2021-05-14T12:29:56Z</time>
      </trkpt>
      <trkpt lat="43.61406" lon="3.80354">
        <ele>61</ele>
        <time>2021-05-14T12:29:57Z</time>
      </trkpt>
      <trkpt lat="43.61407" lon="3.8035">
        <ele>61</ele>
        <time>2021-05-14T12:29:58Z</time>
      </trkpt>
      <trkpt lat="43.61407" lon="3.80345">
        <ele>62</ele>
        <time>2021-05-14T12:29:59Z</time>
      </trkpt>
      <trkpt lat="43.61408" lon="3.80341">
        <ele>62</ele>
        <time>2021-05-14T12:30:00Z</time>
      </trkpt>
      <trkpt lat="43.61408" lon="3.80336">
        <ele>62</ele>
        <time>2021-05-14T12:30:01Z</time>
      </trkpt>
      <trkpt lat="43.61408" lon="3.80331">
        <ele>62</ele>
        <time>2021-05-14T12:30:02Z</time>
      </trkpt>
      <trkpt lat="43.61408" lon="3.80327">
        <ele>62</ele>
        <time>2021-05-14T12:30:03Z</time>
      </trkpt>
      <trkpt lat="43.61408" lon="3.80322">
        <ele>62</ele>
        <time>2021-05-14T12:30:04Z</time>
      </trkpt>
      <trkpt lat="43.61409" lon="3.80318">
        <ele>62</ele>
        <time>2021-05-14T12:30:05Z</time>
      </trkpt>
      <trkpt lat="43.61409" lon="3.80313">
        <ele>62</ele>
        <time>2021-05-14T12:30:06Z</time>
      </trkpt>
      <trkpt lat="43.61409" lon="3.80309">
        <ele>62</ele>
        <time>2021-05-14T12:30:07Z</time>
      </trkpt>
      <trkpt lat="43.6141" lon="3.80304">
        <ele>62</ele>
        <time>2021-05-14T12:30:08Z</time>
      </trkpt>
      <trkpt lat="43.6141" lon="3.803">
        <ele>63</ele>
        <time>2021-05-14T12:30:09Z</time>
      </trkpt>
      <trkpt lat="43.6141" lon="3.80295">
        <ele>63</ele>
        <time>2021-05-14T12:30:10Z</time>
      </trkpt>
      <trkpt lat="43.61411" lon="3.8029">
        <ele>63</ele>
        <time>2021-05-14T12:30:11Z</time>
      </trkpt>
      <trkpt lat="43.61411" lon="3.80285">
        <ele>63</ele>
        <time>2021-05-14T12:30:12Z</time>
      </trkpt>
      <trkpt lat="43.61412" lon="3.80281">
        <ele>63</ele>
        <time>2021-05-14T12:30:13Z</time>
      </trkpt>
      <trkpt lat="43.61413" lon="3.80271">
        <ele>63</ele>
        <time>2021-05-14T12:30:15Z</time>
      </trkpt>
      <trkpt lat="43.61413" lon="3.80267">
        <ele>63</ele>
        <time>2021-05-14T12:30:16Z</time>
      </trkpt>
      <trkpt lat="43.61414" lon="3.80262">
        <ele>63</ele>
        <time>2021-05-14T12:30:17Z</time>
      </trkpt>
      <trkpt lat="43.61414" lon="3.80257">
        <ele>63</ele>
        <time>2021-05-14T12:30:18Z</time>
      </trkpt>
      <trkpt lat="43.61415" lon="3.80253">
        <ele>65</ele>
        <time>2021-05-14T12:30:19Z</time>
      </trkpt>
      <trkpt lat="43.61415" lon="3.80248">
        <ele>65</ele>
        <time>2021-05-14T12:30:20Z</time>
      </trkpt>
      <trkpt lat="43.61416" lon="3.80244">
        <ele>65</ele>
        <time>2021-05-14T12:30:21Z</time>
      </trkpt>
      <trkpt lat="43.61417" lon="3.80239">
        <ele>65</ele>
        <time>2021-05-14T12:30:22Z</time>
      </trkpt>
      <trkpt lat="43.61418" lon="3.80235">
        <ele>65</ele>
        <time>2021-05-14T12:30:23Z</time>
      </trkpt>
      <trkpt lat="43.61418" lon="3.8023">
        <ele>65</ele>
        <time>2021-05-14T12:30:24Z</time>
      </trkpt>
      <trkpt lat="43.61419" lon="3.80225">
        <ele>65</ele>
        <time>2021-05-14T12:30:25Z</time>
      </trkpt>
      <trkpt lat="43.6142" lon="3.80221">
        <ele>65</ele>
        <time>2021-05-14T12:30:26Z</time>
      </trkpt>
      <trkpt lat="43.6142" lon="3.80216">
        <ele>65</ele>
        <time>2021-05-14T12:30:27Z</time>
      </trkpt>
      <trkpt lat="43.61421" lon="3.80211">
        <ele>65</ele>
        <time>2021-05-14T12:30:28Z</time>
      </trkpt>
      <trkpt lat="43.61422" lon="3.80206">
        <ele>66</ele>
        <time>2021-05-14T12:30:29Z</time>
      </trkpt>
      <trkpt lat="43.61423" lon="3.80202">
        <ele>66</ele>
        <time>2021-05-14T12:30:30Z</time>
      </trkpt>
      <trkpt lat="43.61424" lon="3.80197">
        <ele>66</ele>
        <time>2021-05-14T12:30:31Z</time>
      </trkpt>
      <trkpt lat="43.61425" lon="3.80192">
        <ele>66</ele>
        <time>2021-05-14T12:30:32Z</time>
      </trkpt>
      <trkpt lat="43.61426" lon="3.80188">
        <ele>66</ele>
        <time>2021-05-14T12:30:33Z</time>
      </trkpt>
      <trkpt lat="43.61426" lon="3.80183">
        <ele>66</ele>
        <time>2021-05-14T12:30:34Z</time>
      </trkpt>
      <trkpt lat="43.61427" lon="3.80178">
        <ele>66</ele>
        <time>2021-05-14T12:30:35Z</time>
      </trkpt>
      <trkpt lat="43.61428" lon="3.80174">
        <ele>66</ele>
        <time>2021-05-14T12:30:36Z</time>
      </trkpt>
      <trkpt lat="43.61429" lon="3.80169">
        <ele>66</ele>
        <time>2021-05-14T12:30:37Z</time>
      </trkpt>
      <trkpt lat="43.6143" lon="3.80165">
        <ele>66</ele>
        <time>2021-05-14T12:30:38Z</time>
      </trkpt>
      <trkpt lat="43.61431" lon="3.8016">
        <ele>67</ele>
        <time>2021-05-14T12:30:39Z</time>
      </trkpt>
      <trkpt lat="43.61432" lon="3.80155">
        <ele>67</ele>
        <time>2021-05-14T12:30:40Z</time>
      </trkpt>
      <trkpt lat="43.61433" lon="3.80151">
        <ele>67</ele>
        <time>2021-05-14T12:30:41Z</time>
      </trkpt>
      <trkpt lat="43.61434" lon="3.80146">
        <ele>67</ele>
        <time>2021-05-14T12:30:42Z</time>
      </trkpt>
      <trkpt lat="43.61434" lon="3.80142">
        <ele>67</ele>
        <time>2021-05-14T12:30:43Z</time>
      </trkpt>
      <trkpt lat="43.61436" lon="3.80137">
        <ele>67</ele>
        <time>2021-05-14T12:30:44Z</time>
      </trkpt>
      <trkpt lat="43.61436" lon="3.80133">
        <ele>67</ele>
        <time>2021-05-14T12:30:45Z</time>
      </trkpt>
      <trkpt lat="43.61438" lon="3.80129">
        <ele>67</ele>
        <time>2021-05-14T12:30:46Z</time>
      </trkpt>
      <trkpt lat="43.61439" lon="3.80124">
        <ele>67</ele>
        <time>2021-05-14T12:30:47Z</time>
      </trkpt>
      <trkpt lat="43.6144" lon="3.8012">
        <ele>67</ele>
        <time>2021-05-14T12:30:48Z</time>
      </trkpt>
      <trkpt lat="43.6144" lon="3.80116">
        <ele>68</ele>
        <time>2021-05-14T12:30:49Z</time>
      </trkpt>
      <trkpt lat="43.61442" lon="3.80111">
        <ele>68</ele>
        <time>2021-05-14T12:30:50Z</time>
      </trkpt>
      <trkpt lat="43.61443" lon="3.80107">
        <ele>68</ele>
        <time>2021-05-14T12:30:51Z</time>
      </trkpt>
      <trkpt lat="43.61444" lon="3.80103">
        <ele>68</ele>
        <time>2021-05-14T12:30:52Z</time>
      </trkpt>
      <trkpt lat="43.61445" lon="3.80098">
        <ele>68</ele>
        <time>2021-05-14T12:30:53Z</time>
      </trkpt>
      <trkpt lat="43.61446" lon="3.80094">
        <ele>68</ele>
        <time>2021-05-14T12:30:54Z</time>
      </trkpt>
      <trkpt lat="43.61447" lon="3.8009">
        <ele>68</ele>
        <time>2021-05-14T12:30:55Z</time>
      </trkpt>
      <trkpt lat="43.61448" lon="3.80085">
        <ele>68</ele>
        <time>2021-05-14T12:30:56Z</time>
      </trkpt>
      <trkpt lat="43.61449" lon="3.80081">
        <ele>68</ele>
        <time>2021-05-14T12:30:57Z</time>
      </trkpt>
      <trkpt lat="43.6145" lon="3.80077">
        <ele>68</ele>
        <time>2021-05-14T12:30:58Z</time>
      </trkpt>
      <trkpt lat="43.61451" lon="3.80073">
        <ele>68</ele>
        <time>2021-05-14T12:30:59Z</time>
      </trkpt>
      <trkpt lat="43.61453" lon="3.80069">
        <ele>68</ele>
        <time>2021-05-14T12:31:00Z</time>
      </trkpt>
      <trkpt lat="43.61456" lon="3.80062">
        <ele>68</ele>
        <time>2021-05-14T12:31:02Z</time>
      </trkpt>
      <trkpt lat="43.61459" lon="3.8006">
        <ele>68</ele>
        <time>2021-05-14T12:31:03Z</time>
      </trkpt>
      <trkpt lat="43.61462" lon="3.8006">
        <ele>68</ele>
        <time>2021-05-14T12:31:04Z</time>
      </trkpt>
      <trkpt lat="43.61465" lon="3.80058">
        <ele>68</ele>
        <time>2021-05-14T12:31:05Z</time>
      </trkpt>
      <trkpt lat="43.61467" lon="3.80055">
        <ele>68</ele>
        <time>2021-05-14T12:31:06Z</time>
      </trkpt>
      <trkpt lat="43.61468" lon="3.80052">
        <ele>68</ele>
        <time>2021-05-14T12:31:07Z</time>
      </trkpt>
      <trkpt lat="43.61467" lon="3.80048">
        <ele>68</ele>
        <time>2021-05-14T12:31:08Z</time>
      </trkpt>
      <trkpt lat="43.61466" lon="3.80045">
        <ele>68</ele>
        <time>2021-05-14T12:31:09Z</time>
      </trkpt>
      <trkpt lat="43.61463" lon="3.80039">
        <ele>68</ele>
        <time>2021-05-14T12:31:11Z</time>
      </trkpt>
      <trkpt lat="43.61462" lon="3.80037">
        <ele>68</ele>
        <time>2021-05-14T12:31:12Z</time>
      </trkpt>
      <trkpt lat="43.61459" lon="3.80034">
        <ele>68</ele>
        <time>2021-05-14T12:31:13Z</time>
      </trkpt>
      <trkpt lat="43.61454" lon="3.80031">
        <ele>68</ele>
        <time>2021-05-14T12:31:15Z</time>
      </trkpt>
      <trkpt lat="43.61451" lon="3.8003">
        <ele>68</ele>
        <time>2021-05-14T12:31:16Z</time>
      </trkpt>
      <trkpt lat="43.61448" lon="3.8003">
        <ele>68</ele>
        <time>2021-05-14T12:31:17Z</time>
      </trkpt>
      <trkpt lat="43.61445" lon="3.80029">
        <ele>68</ele>
        <time>2021-05-14T12:31:18Z</time>
      </trkpt>
      <trkpt lat="43.61442" lon="3.80027">
        <ele>68</ele>
        <time>2021-05-14T12:31:19Z</time>
      </trkpt>
      <trkpt lat="43.61438" lon="3.80024">
        <ele>68</ele>
        <time>2021-05-14T12:31:20Z</time>
      </trkpt>
      <trkpt lat="43.61436" lon="3.80018">
        <ele>68</ele>
        <time>2021-05-14T12:31:21Z</time>
      </trkpt>
      <trkpt lat="43.61434" lon="3.80012">
        <ele>68</ele>
        <time>2021-05-14T12:31:22Z</time>
      </trkpt>
      <trkpt lat="43.61432" lon="3.80005">
        <ele>68</ele>
        <time>2021-05-14T12:31:23Z</time>
      </trkpt>
      <trkpt lat="43.6143" lon="3.79995">
        <ele>68</ele>
        <time>2021-05-14T12:31:24Z</time>
      </trkpt>
      <trkpt lat="43.61427" lon="3.79986">
        <ele>68</ele>
        <time>2021-05-14T12:31:25Z</time>
      </trkpt>
      <trkpt lat="43.61424" lon="3.79976">
        <ele>68</ele>
        <time>2021-05-14T12:31:26Z</time>
      </trkpt>
      <trkpt lat="43.61415" lon="3.79956">
        <ele>68</ele>
        <time>2021-05-14T12:31:28Z</time>
      </trkpt>
      <trkpt lat="43.61411" lon="3.79947">
        <ele>64</ele>
        <time>2021-05-14T12:31:29Z</time>
      </trkpt>
      <trkpt lat="43.61407" lon="3.79938">
        <ele>64</ele>
        <time>2021-05-14T12:31:30Z</time>
      </trkpt>
      <trkpt lat="43.614" lon="3.79923">
        <ele>64</ele>
        <time>2021-05-14T12:31:32Z</time>
      </trkpt>
      <trkpt lat="43.61396" lon="3.79916">
        <ele>64</ele>
        <time>2021-05-14T12:31:33Z</time>
      </trkpt>
      <trkpt lat="43.61394" lon="3.79911">
        <ele>64</ele>
        <time>2021-05-14T12:31:34Z</time>
      </trkpt>
      <trkpt lat="43.61391" lon="3.79906">
        <ele>64</ele>
        <time>2021-05-14T12:31:35Z</time>
      </trkpt>
      <trkpt lat="43.61389" lon="3.79903">
        <ele>64</ele>
        <time>2021-05-14T12:31:36Z</time>
      </trkpt>
      <trkpt lat="43.61386" lon="3.79899">
        <ele>64</ele>
        <time>2021-05-14T12:31:37Z</time>
      </trkpt>
      <trkpt lat="43.61384" lon="3.79895">
        <ele>64</ele>
        <time>2021-05-14T12:31:38Z</time>
      </trkpt>
      <trkpt lat="43.61382" lon="3.79891">
        <ele>64</ele>
        <time>2021-05-14T12:31:39Z</time>
      </trkpt>
      <trkpt lat="43.61381" lon="3.79888">
        <ele>64</ele>
        <time>2021-05-14T12:31:40Z</time>
      </trkpt>
      <trkpt lat="43.6138" lon="3.79884">
        <ele>64</ele>
        <time>2021-05-14T12:31:41Z</time>
      </trkpt>
      <trkpt lat="43.61379" lon="3.79879">
        <ele>64</ele>
        <time>2021-05-14T12:31:42Z</time>
      </trkpt>
      <trkpt lat="43.61379" lon="3.79874">
        <ele>64</ele>
        <time>2021-05-14T12:31:43Z</time>
      </trkpt>
      <trkpt lat="43.6138" lon="3.79869">
        <ele>64</ele>
        <time>2021-05-14T12:31:44Z</time>
      </trkpt>
      <trkpt lat="43.61382" lon="3.79864">
        <ele>64</ele>
        <time>2021-05-14T12:31:45Z</time>
      </trkpt>
      <trkpt lat="43.61384" lon="3.79858">
        <ele>64</ele>
        <time>2021-05-14T12:31:46Z</time>
      </trkpt>
      <trkpt lat="43.61386" lon="3.79853">
        <ele>64</ele>
        <time>2021-05-14T12:31:47Z</time>
      </trkpt>
      <trkpt lat="43.61388" lon="3.79847">
        <ele>64</ele>
        <time>2021-05-14T12:31:48Z</time>
      </trkpt>
      <trkpt lat="43.6139" lon="3.79841">
        <ele>63</ele>
        <time>2021-05-14T12:31:49Z</time>
      </trkpt>
      <trkpt lat="43.61391" lon="3.79836">
        <ele>63</ele>
        <time>2021-05-14T12:31:50Z</time>
      </trkpt>
      <trkpt lat="43.61392" lon="3.7983">
        <ele>63</ele>
        <time>2021-05-14T12:31:51Z</time>
      </trkpt>
      <trkpt lat="43.61393" lon="3.79824">
        <ele>63</ele>
        <time>2021-05-14T12:31:52Z</time>
      </trkpt>
      <trkpt lat="43.61394" lon="3.79817">
        <ele>63</ele>
        <time>2021-05-14T12:31:53Z</time>
      </trkpt>
      <trkpt lat="43.61395" lon="3.79811">
        <ele>63</ele>
        <time>2021-05-14T12:31:54Z</time>
      </trkpt>
      <trkpt lat="43.61395" lon="3.79804">
        <ele>63</ele>
        <time>2021-05-14T12:31:55Z</time>
      </trkpt>
      <trkpt lat="43.61396" lon="3.79797">
        <ele>63</ele>
        <time>2021-05-14T12:31:56Z</time>
      </trkpt>
      <trkpt lat="43.61397" lon="3.79791">
        <ele>63</ele>
        <time>2021-05-14T12:31:57Z</time>
      </trkpt>
      <trkpt lat="43.61399" lon="3.79784">
        <ele>63</ele>
        <time>2021-05-14T12:31:58Z</time>
      </trkpt>
      <trkpt lat="43.61401" lon="3.79777">
        <ele>61</ele>
        <time>2021-05-14T12:31:59Z</time>
      </trkpt>
      <trkpt lat="43.61402" lon="3.79771">
        <ele>61</ele>
        <time>2021-05-14T12:32:00Z</time>
      </trkpt>
      <trkpt lat="43.61404" lon="3.79764">
        <ele>61</ele>
        <time>2021-05-14T12:32:01Z</time>
      </trkpt>
      <trkpt lat="43.61406" lon="3.79758">
        <ele>61</ele>
        <time>2021-05-14T12:32:02Z</time>
      </trkpt>
      <trkpt lat="43.61408" lon="3.79751">
        <ele>61</ele>
        <time>2021-05-14T12:32:03Z</time>
      </trkpt>
      <trkpt lat="43.6141" lon="3.79745">
        <ele>61</ele>
        <time>2021-05-14T12:32:04Z</time>
      </trkpt>
      <trkpt lat="43.61412" lon="3.79738">
        <ele>61</ele>
        <time>2021-05-14T12:32:05Z</time>
      </trkpt>
      <trkpt lat="43.61414" lon="3.79732">
        <ele>61</ele>
        <time>2021-05-14T12:32:06Z</time>
      </trkpt>
      <trkpt lat="43.61415" lon="3.79726">
        <ele>61</ele>
        <time>2021-05-14T12:32:07Z</time>
      </trkpt>
      <trkpt lat="43.61417" lon="3.79719">
        <ele>61</ele>
        <time>2021-05-14T12:32:08Z</time>
      </trkpt>
      <trkpt lat="43.61418" lon="3.79712">
        <ele>60</ele>
        <time>2021-05-14T12:32:09Z</time>
      </trkpt>
      <trkpt lat="43.6142" lon="3.79705">
        <ele>60</ele>
        <time>2021-05-14T12:32:10Z</time>
      </trkpt>
      <trkpt lat="43.61422" lon="3.79698">
        <ele>60</ele>
        <time>2021-05-14T12:32:11Z</time>
      </trkpt>
      <trkpt lat="43.61424" lon="3.79691">
        <ele>60</ele>
        <time>2021-05-14T12:32:12Z</time>
      </trkpt>
      <trkpt lat="43.61426" lon="3.79684">
        <ele>60</ele>
        <time>2021-05-14T12:32:13Z</time>
      </trkpt>
      <trkpt lat="43.61432" lon="3.7967">
        <ele>60</ele>
        <time>2021-05-14T12:32:15Z</time>
      </trkpt>
      <trkpt lat="43.61434" lon="3.79662">
        <ele>60</ele>
        <time>2021-05-14T12:32:16Z</time>
      </trkpt>
      <trkpt lat="43.61436" lon="3.79655">
        <ele>60</ele>
        <time>2021-05-14T12:32:17Z</time>
      </trkpt>
      <trkpt lat="43.61438" lon="3.79648">
        <ele>60</ele>
        <time>2021-05-14T12:32:18Z</time>
      </trkpt>
      <trkpt lat="43.6144" lon="3.7964">
        <ele>58</ele>
        <time>2021-05-14T12:32:19Z</time>
      </trkpt>
      <trkpt lat="43.61442" lon="3.79633">
        <ele>58</ele>
        <time>2021-05-14T12:32:20Z</time>
      </trkpt>
      <trkpt lat="43.61443" lon="3.79625">
        <ele>58</ele>
        <time>2021-05-14T12:32:21Z</time>
      </trkpt>
      <trkpt lat="43.61444" lon="3.79617">
        <ele>58</ele>
        <time>2021-05-14T12:32:22Z</time>
      </trkpt>
      <trkpt lat="43.61446" lon="3.79609">
        <ele>58</ele>
        <time>2021-05-14T12:32:23Z</time>
      </trkpt>
      <trkpt lat="43.61447" lon="3.79601">
        <ele>58</ele>
        <time>2021-05-14T12:32:24Z</time>
      </trkpt>
      <trkpt lat="43.61447" lon="3.79594">
        <ele>58</ele>
        <time>2021-05-14T12:32:25Z</time>
      </trkpt>
      <trkpt lat="43.61448" lon="3.79587">
        <ele>58</ele>
        <time>2021-05-14T12:32:26Z</time>
      </trkpt>
      <trkpt lat="43.61449" lon="3.7958">
        <ele>58</ele>
        <time>2021-05-14T12:32:27Z</time>
      </trkpt>
      <trkpt lat="43.6145" lon="3.79574">
        <ele>58</ele>
        <time>2021-05-14T12:32:28Z</time>
      </trkpt>
      <trkpt lat="43.6145" lon="3.79568">
        <ele>56</ele>
        <time>2021-05-14T12:32:29Z</time>
      </trkpt>
      <trkpt lat="43.6145" lon="3.79561">
        <ele>56</ele>
        <time>2021-05-14T12:32:30Z</time>
      </trkpt>
      <trkpt lat="43.6145" lon="3.79555">
        <ele>56</ele>
        <time>2021-05-14T12:32:31Z</time>
      </trkpt>
      <trkpt lat="43.61451" lon="3.79549">
        <ele>56</ele>
        <time>2021-05-14T12:32:32Z</time>
      </trkpt>
      <trkpt lat="43.6145" lon="3.79543">
        <ele>56</ele>
        <time>2021-05-14T12:32:33Z</time>
      </trkpt>
      <trkpt lat="43.6145" lon="3.79536">
        <ele>56</ele>
        <time>2021-05-14T12:32:34Z</time>
      </trkpt>
      <trkpt lat="43.61451" lon="3.79529">
        <ele>56</ele>
        <time>2021-05-14T12:32:35Z</time>
      </trkpt>
      <trkpt lat="43.61452" lon="3.79523">
        <ele>56</ele>
        <time>2021-05-14T12:32:36Z</time>
      </trkpt>
      <trkpt lat="43.61453" lon="3.79517">
        <ele>56</ele>
        <time>2021-05-14T12:32:37Z</time>
      </trkpt>
      <trkpt lat="43.61453" lon="3.7951">
        <ele>56</ele>
        <time>2021-05-14T12:32:38Z</time>
      </trkpt>
      <trkpt lat="43.61454" lon="3.79504">
        <ele>55</ele>
        <time>2021-05-14T12:32:39Z</time>
      </trkpt>
      <trkpt lat="43.61454" lon="3.79498">
        <ele>55</ele>
        <time>2021-05-14T12:32:40Z</time>
      </trkpt>
      <trkpt lat="43.61454" lon="3.79492">
        <ele>55</ele>
        <time>2021-05-14T12:32:41Z</time>
      </trkpt>
      <trkpt lat="43.61455" lon="3.79486">
        <ele>55</ele>
        <time>2021-05-14T12:32:42Z</time>
      </trkpt>
      <trkpt lat="43.61455" lon="3.79481">
        <ele>55</ele>
        <time>2021-05-14T12:32:43Z</time>
      </trkpt>
      <trkpt lat="43.61456" lon="3.79475">
        <ele>55</ele>
        <time>2021-05-14T12:32:44Z</time>
      </trkpt>
      <trkpt lat="43.61456" lon="3.79469">
        <ele>55</ele>
        <time>2021-05-14T12:32:45Z</time>
      </trkpt>
      <trkpt lat="43.61457" lon="3.79463">
        <ele>55</ele>
        <time>2021-05-14T12:32:46Z</time>
      </trkpt>
      <trkpt lat="43.61457" lon="3.79458">
        <ele>55</ele>
        <time>2021-05-14T12:32:47Z</time>
      </trkpt>
      <trkpt lat="43.61458" lon="3.79452">
        <ele>55</ele>
        <time>2021-05-14T12:32:48Z</time>
      </trkpt>
      <trkpt lat="43.61459" lon="3.79447">
        <ele>55</ele>
        <time>2021-05-14T12:32:49Z</time>
      </trkpt>
      <trkpt lat="43.61459" lon="3.79442">
        <ele>55</ele>
        <time>2021-05-14T12:32:50Z</time>
      </trkpt>
      <trkpt lat="43.6146" lon="3.79436">
        <ele>55</ele>
        <time>2021-05-14T12:32:51Z</time>
      </trkpt>
      <trkpt lat="43.61461" lon="3.7943">
        <ele>55</ele>
        <time>2021-05-14T12:32:52Z</time>
      </trkpt>
      <trkpt lat="43.61462" lon="3.79425">
        <ele>55</ele>
        <time>2021-05-14T12:32:53Z</time>
      </trkpt>
      <trkpt lat="43.61463" lon="3.79419">
        <ele>55</ele>
        <time>2021-05-14T12:32:54Z</time>
      </trkpt>
      <trkpt lat="43.61464" lon="3.79413">
        <ele>55</ele>
        <time>2021-05-14T12:32:55Z</time>
      </trkpt>
      <trkpt lat="43.61465" lon="3.79407">
        <ele>55</ele>
        <time>2021-05-14T12:32:56Z</time>
      </trkpt>
      <trkpt lat="43.61467" lon="3.79395">
        <ele>55</ele>
        <time>2021-05-14T12:32:58Z</time>
      </trkpt>
      <trkpt lat="43.61469" lon="3.79389">
        <ele>55</ele>
        <time>2021-05-14T12:32:59Z</time>
      </trkpt>
      <trkpt lat="43.61471" lon="3.79383">
        <ele>55</ele>
        <time>2021-05-14T12:33:00Z</time>
      </trkpt>
      <trkpt lat="43.61472" lon="3.79377">
        <ele>55</ele>
        <time>2021-05-14T12:33:01Z</time>
      </trkpt>
      <trkpt lat="43.61475" lon="3.79371">
        <ele>55</ele>
        <time>2021-05-14T12:33:02Z</time>
      </trkpt>
      <trkpt lat="43.61477" lon="3.79366">
        <ele>55</ele>
        <time>2021-05-14T12:33:03Z</time>
      </trkpt>
      <trkpt lat="43.61478" lon="3.7936">
        <ele>55</ele>
        <time>2021-05-14T12:33:04Z</time>
      </trkpt>
      <trkpt lat="43.6148" lon="3.79355">
        <ele>55</ele>
        <time>2021-05-14T12:33:05Z</time>
      </trkpt>
      <trkpt lat="43.61481" lon="3.79349">
        <ele>55</ele>
        <time>2021-05-14T12:33:06Z</time>
      </trkpt>
      <trkpt lat="43.61483" lon="3.79343">
        <ele>55</ele>
        <time>2021-05-14T12:33:07Z</time>
      </trkpt>
      <trkpt lat="43.61485" lon="3.79338">
        <ele>55</ele>
        <time>2021-05-14T12:33:08Z</time>
      </trkpt>
      <trkpt lat="43.61487" lon="3.79332">
        <ele>55</ele>
        <time>2021-05-14T12:33:09Z</time>
      </trkpt>
      <trkpt lat="43.61489" lon="3.79327">
        <ele>55</ele>
        <time>2021-05-14T12:33:10Z</time>
      </trkpt>
      <trkpt lat="43.6149" lon="3.79322">
        <ele>55</ele>
        <time>2021-05-14T12:33:11Z</time>
      </trkpt>
      <trkpt lat="43.61492" lon="3.79317">
        <ele>55</ele>
        <time>2021-05-14T12:33:12Z</time>
      </trkpt>
      <trkpt lat="43.61494" lon="3.79311">
        <ele>55</ele>
        <time>2021-05-14T12:33:13Z</time>
      </trkpt>
      <trkpt lat="43.61495" lon="3.79306">
        <ele>55</ele>
        <time>2021-05-14T12:33:14Z</time>
      </trkpt>
      <trkpt lat="43.61496" lon="3.79301">
        <ele>55</ele>
        <time>2021-05-14T12:33:15Z</time>
      </trkpt>
      <trkpt lat="43.61498" lon="3.79296">
        <ele>55</ele>
        <time>2021-05-14T12:33:16Z</time>
      </trkpt>
      <trkpt lat="43.61499" lon="3.79291">
        <ele>55</ele>
        <time>2021-05-14T12:33:17Z</time>
      </trkpt>
      <trkpt lat="43.61501" lon="3.79286">
        <ele>55</ele>
        <time>2021-05-14T12:33:18Z</time>
      </trkpt>
      <trkpt lat="43.61503" lon="3.79281">
        <ele>55</ele>
        <time>2021-05-14T12:33:19Z</time>
      </trkpt>
      <trkpt lat="43.61504" lon="3.79276">
        <ele>55</ele>
        <time>2021-05-14T12:33:20Z</time>
      </trkpt>
      <trkpt lat="43.61505" lon="3.79271">
        <ele>55</ele>
        <time>2021-05-14T12:33:21Z</time>
      </trkpt>
      <trkpt lat="43.61506" lon="3.79266">
        <ele>55</ele>
        <time>2021-05-14T12:33:22Z</time>
      </trkpt>
      <trkpt lat="43.61508" lon="3.7926">
        <ele>55</ele>
        <time>2021-05-14T12:33:23Z</time>
      </trkpt>
      <trkpt lat="43.6151" lon="3.79255">
        <ele>55</ele>
        <time>2021-05-14T12:33:24Z</time>
      </trkpt>
      <trkpt lat="43.61511" lon="3.7925">
        <ele>55</ele>
        <time>2021-05-14T12:33:25Z</time>
      </trkpt>
      <trkpt lat="43.61513" lon="3.79244">
        <ele>55</ele>
        <time>2021-05-14T12:33:26Z</time>
      </trkpt>
      <trkpt lat="43.61514" lon="3.79239">
        <ele>55</ele>
        <time>2021-05-14T12:33:27Z</time>
      </trkpt>
      <trkpt lat="43.61516" lon="3.79234">
        <ele>55</ele>
        <time>2021-05-14T12:33:28Z</time>
      </trkpt>
      <trkpt lat="43.61517" lon="3.79228">
        <ele>55</ele>
        <time>2021-05-14T12:33:29Z</time>
      </trkpt>
      <trkpt lat="43.61518" lon="3.79223">
        <ele>55</ele>
        <time>2021-05-14T12:33:30Z</time>
      </trkpt>
      <trkpt lat="43.6152" lon="3.79218">
        <ele>55</ele>
        <time>2021-05-14T12:33:31Z</time>
      </trkpt>
      <trkpt lat="43.61521" lon="3.79213">
        <ele>55</ele>
        <time>2021-05-14T12:33:32Z</time>
      </trkpt>
      <trkpt lat="43.61523" lon="3.79208">
        <ele>55</ele>
        <time>2021-05-14T12:33:33Z</time>
      </trkpt>
      <trkpt lat="43.61524" lon="3.79203">
        <ele>55</ele>
        <time>2021-05-14T12:33:34Z</time>
      </trkpt>
      <trkpt lat="43.61525" lon="3.79198">
        <ele>55</ele>
        <time>2021-05-14T12:33:35Z</time>
      </trkpt>
      <trkpt lat="43.61526" lon="3.79193">
        <ele>55</ele>
        <time>2021-05-14T12:33:36Z</time>
      </trkpt>
      <trkpt lat="43.61527" lon="3.79188">
        <ele>55</ele>
        <time>2021-05-14T12:33:37Z</time>
      </trkpt>
      <trkpt lat="43.61529" lon="3.79184">
        <ele>55</ele>
        <time>2021-05-14T12:33:38Z</time>
      </trkpt>
      <trkpt lat="43.61531" lon="3.79175">
        <ele>55</ele>
        <time>2021-05-14T12:33:40Z</time>
      </trkpt>
      <trkpt lat="43.61532" lon="3.79171">
        <ele>55</ele>
        <time>2021-05-14T12:33:41Z</time>
      </trkpt>
      <trkpt lat="43.61534" lon="3.79166">
        <ele>55</ele>
        <time>2021-05-14T12:33:42Z</time>
      </trkpt>
      <trkpt lat="43.61535" lon="3.79162">
        <ele>55</ele>
        <time>2021-05-14T12:33:43Z</time>
      </trkpt>
      <trkpt lat="43.61537" lon="3.79158">
        <ele>55</ele>
        <time>2021-05-14T12:33:44Z</time>
      </trkpt>
      <trkpt lat="43.61539" lon="3.79154">
        <ele>55</ele>
        <time>2021-05-14T12:33:45Z</time>
      </trkpt>
      <trkpt lat="43.61541" lon="3.7915">
        <ele>55</ele>
        <time>2021-05-14T12:33:46Z</time>
      </trkpt>
      <trkpt lat="43.61541" lon="3.79146">
        <ele>55</ele>
        <time>2021-05-14T12:33:47Z</time>
      </trkpt>
      <trkpt lat="43.61542" lon="3.79142">
        <ele>55</ele>
        <time>2021-05-14T12:33:48Z</time>
      </trkpt>
      <trkpt lat="43.61542" lon="3.79137">
        <ele>56</ele>
        <time>2021-05-14T12:33:49Z</time>
      </trkpt>
      <trkpt lat="43.61542" lon="3.79133">
        <ele>56</ele>
        <time>2021-05-14T12:33:50Z</time>
      </trkpt>
      <trkpt lat="43.61543" lon="3.79128">
        <ele>56</ele>
        <time>2021-05-14T12:33:51Z</time>
      </trkpt>
      <trkpt lat="43.61544" lon="3.79124">
        <ele>56</ele>
        <time>2021-05-14T12:33:52Z</time>
      </trkpt>
      <trkpt lat="43.61546" lon="3.7912">
        <ele>56</ele>
        <time>2021-05-14T12:33:53Z</time>
      </trkpt>
      <trkpt lat="43.61547" lon="3.79116">
        <ele>56</ele>
        <time>2021-05-14T12:33:54Z</time>
      </trkpt>
      <trkpt lat="43.61548" lon="3.79111">
        <ele>56</ele>
        <time>2021-05-14T12:33:55Z</time>
      </trkpt>
      <trkpt lat="43.61548" lon="3.79106">
        <ele>56</ele>
        <time>2021-05-14T12:33:56Z</time>
      </trkpt>
      <trkpt lat="43.61549" lon="3.79102">
        <ele>56</ele>
        <time>2021-05-14T12:33:57Z</time>
      </trkpt>
      <trkpt lat="43.6155" lon="3.79098">
        <ele>56</ele>
        <time>2021-05-14T12:33:58Z</time>
      </trkpt>
      <trkpt lat="43.61551" lon="3.79094">
        <ele>57</ele>
        <time>2021-05-14T12:33:59Z</time>
      </trkpt>
      <trkpt lat="43.61552" lon="3.7909">
        <ele>57</ele>
        <time>2021-05-14T12:34:00Z</time>
      </trkpt>
      <trkpt lat="43.61553" lon="3.79086">
        <ele>57</ele>
        <time>2021-05-14T12:34:01Z</time>
      </trkpt>
      <trkpt lat="43.61553" lon="3.79083">
        <ele>57</ele>
        <time>2021-05-14T12:34:02Z</time>
      </trkpt>
      <trkpt lat="43.61554" lon="3.79079">
        <ele>57</ele>
        <time>2021-05-14T12:34:03Z</time>
      </trkpt>
      <trkpt lat="43.61555" lon="3.79075">
        <ele>57</ele>
        <time>2021-05-14T12:34:04Z</time>
      </trkpt>
      <trkpt lat="43.61555" lon="3.79072">
        <ele>57</ele>
        <time>2021-05-14T12:34:05Z</time>
      </trkpt>
      <trkpt lat="43.61556" lon="3.79068">
        <ele>57</ele>
        <time>2021-05-14T12:34:06Z</time>
      </trkpt>
      <trkpt lat="43.61557" lon="3.79065">
        <ele>57</ele>
        <time>2021-05-14T12:34:07Z</time>
      </trkpt>
      <trkpt lat="43.61558" lon="3.79061">
        <ele>57</ele>
        <time>2021-05-14T12:34:08Z</time>
      </trkpt>
      <trkpt lat="43.61559" lon="3.79058">
        <ele>57</ele>
        <time>2021-05-14T12:34:09Z</time>
      </trkpt>
      <trkpt lat="43.6156" lon="3.79054">
        <ele>57</ele>
        <time>2021-05-14T12:34:10Z</time>
      </trkpt>
      <trkpt lat="43.6156" lon="3.7905">
        <ele>57</ele>
        <time>2021-05-14T12:34:11Z</time>
      </trkpt>
      <trkpt lat="43.61561" lon="3.79047">
        <ele>57</ele>
        <time>2021-05-14T12:34:12Z</time>
      </trkpt>
      <trkpt lat="43.61562" lon="3.79039">
        <ele>57</ele>
        <time>2021-05-14T12:34:14Z</time>
      </trkpt>
      <trkpt lat="43.61563" lon="3.79035">
        <ele>57</ele>
        <time>2021-05-14T12:34:15Z</time>
      </trkpt>
      <trkpt lat="43.61564" lon="3.79032">
        <ele>57</ele>
        <time>2021-05-14T12:34:16Z</time>
      </trkpt>
      <trkpt lat="43.61564" lon="3.79024">
        <ele>57</ele>
        <time>2021-05-14T12:34:18Z</time>
      </trkpt>
      <trkpt lat="43.61564" lon="3.7902">
        <ele>58</ele>
        <time>2021-05-14T12:34:19Z</time>
      </trkpt>
      <trkpt lat="43.61564" lon="3.79016">
        <ele>58</ele>
        <time>2021-05-14T12:34:20Z</time>
      </trkpt>
      <trkpt lat="43.61564" lon="3.79012">
        <ele>58</ele>
        <time>2021-05-14T12:34:21Z</time>
      </trkpt>
      <trkpt lat="43.61564" lon="3.79008">
        <ele>58</ele>
        <time>2021-05-14T12:34:22Z</time>
      </trkpt>
      <trkpt lat="43.61564" lon="3.79003">
        <ele>58</ele>
        <time>2021-05-14T12:34:23Z</time>
      </trkpt>
      <trkpt lat="43.61564" lon="3.78999">
        <ele>58</ele>
        <time>2021-05-14T12:34:24Z</time>
      </trkpt>
      <trkpt lat="43.61564" lon="3.78994">
        <ele>58</ele>
        <time>2021-05-14T12:34:25Z</time>
      </trkpt>
      <trkpt lat="43.61564" lon="3.78989">
        <ele>58</ele>
        <time>2021-05-14T12:34:26Z</time>
      </trkpt>
      <trkpt lat="43.61563" lon="3.78984">
        <ele>58</ele>
        <time>2021-05-14T12:34:27Z</time>
      </trkpt>
      <trkpt lat="43.61563" lon="3.78979">
        <ele>58</ele>
        <time>2021-05-14T12:34:28Z</time>
      </trkpt>
      <trkpt lat="43.61563" lon="3.78974">
        <ele>58</ele>
        <time>2021-05-14T12:34:29Z</time>
      </trkpt>
      <trkpt lat="43.61563" lon="3.78969">
        <ele>58</ele>
        <time>2021-05-14T12:34:30Z</time>
      </trkpt>
      <trkpt lat="43.61562" lon="3.78964">
        <ele>58</ele>
        <time>2021-05-14T12:34:31Z</time>
      </trkpt>
      <trkpt lat="43.61562" lon="3.78959">
        <ele>58</ele>
        <time>2021-05-14T12:34:32Z</time>
      </trkpt>
      <trkpt lat="43.61562" lon="3.78953">
        <ele>58</ele>
        <time>2021-05-14T12:34:33Z</time>
      </trkpt>
      <trkpt lat="43.61561" lon="3.78943">
        <ele>58</ele>
        <time>2021-05-14T12:34:35Z</time>
      </trkpt>
      <trkpt lat="43.6156" lon="3.7894">
        <ele>58</ele>
        <time>2021-05-14T12:34:36Z</time>
      </trkpt>
      <trkpt lat="43.61559" lon="3.78939">
        <ele>58</ele>
        <time>2021-05-14T12:34:42Z</time>
      </trkpt>
      <trkpt lat="43.61556" lon="3.78931">
        <ele>58</ele>
        <time>2021-05-14T12:34:45Z</time>
      </trkpt>
      <trkpt lat="43.61556" lon="3.78927">
        <ele>58</ele>
        <time>2021-05-14T12:34:46Z</time>
      </trkpt>
      <trkpt lat="43.61556" lon="3.78923">
        <ele>58</ele>
        <time>2021-05-14T12:34:47Z</time>
      </trkpt>
      <trkpt lat="43.61557" lon="3.7892">
        <ele>58</ele>
        <time>2021-05-14T12:34:48Z</time>
      </trkpt>
      <trkpt lat="43.61558" lon="3.78916">
        <ele>58</ele>
        <time>2021-05-14T12:34:49Z</time>
      </trkpt>
      <trkpt lat="43.61557" lon="3.78914">
        <ele>58</ele>
        <time>2021-05-14T12:34:50Z</time>
      </trkpt>
      <trkpt lat="43.61556" lon="3.78911">
        <ele>58</ele>
        <time>2021-05-14T12:34:51Z</time>
      </trkpt>
      <trkpt lat="43.61556" lon="3.78908">
        <ele>58</ele>
        <time>2021-05-14T12:34:52Z</time>
      </trkpt>
      <trkpt lat="43.61555" lon="3.78905">
        <ele>58</ele>
        <time>2021-05-14T12:34:53Z</time>
      </trkpt>
      <trkpt lat="43.61554" lon="3.78902">
        <ele>58</ele>
        <time>2021-05-14T12:34:54Z</time>
      </trkpt>
      <trkpt lat="43.61552" lon="3.789">
        <ele>58</ele>
        <time>2021-05-14T12:34:55Z</time>
      </trkpt>
      <trkpt lat="43.61551" lon="3.78897">
        <ele>58</ele>
        <time>2021-05-14T12:34:56Z</time>
      </trkpt>
      <trkpt lat="43.6155" lon="3.78894">
        <ele>58</ele>
        <time>2021-05-14T12:34:57Z</time>
      </trkpt>
      <trkpt lat="43.61549" lon="3.78892">
        <ele>58</ele>
        <time>2021-05-14T12:34:58Z</time>
      </trkpt>
      <trkpt lat="43.61548" lon="3.78888">
        <ele>58</ele>
        <time>2021-05-14T12:34:59Z</time>
      </trkpt>
      <trkpt lat="43.61547" lon="3.78885">
        <ele>58</ele>
        <time>2021-05-14T12:35:00Z</time>
      </trkpt>
      <trkpt lat="43.61546" lon="3.78882">
        <ele>58</ele>
        <time>2021-05-14T12:35:01Z</time>
      </trkpt>
      <trkpt lat="43.61546" lon="3.78878">
        <ele>58</ele>
        <time>2021-05-14T12:35:02Z</time>
      </trkpt>
      <trkpt lat="43.61548" lon="3.78876">
        <ele>58</ele>
        <time>2021-05-14T12:35:03Z</time>
      </trkpt>
      <trkpt lat="43.6155" lon="3.78874">
        <ele>58</ele>
        <time>2021-05-14T12:35:04Z</time>
      </trkpt>
      <trkpt lat="43.61552" lon="3.78872">
        <ele>59</ele>
        <time>2021-05-14T12:35:05Z</time>
      </trkpt>
      <trkpt lat="43.61554" lon="3.7887">
        <ele>59</ele>
        <time>2021-05-14T12:35:06Z</time>
      </trkpt>
      <trkpt lat="43.61556" lon="3.78868">
        <ele>59</ele>
        <time>2021-05-14T12:35:07Z</time>
      </trkpt>
      <trkpt lat="43.61557" lon="3.78865">
        <ele>59</ele>
        <time>2021-05-14T12:35:08Z</time>
      </trkpt>
      <trkpt lat="43.61559" lon="3.78863">
        <ele>59</ele>
        <time>2021-05-14T12:35:09Z</time>
      </trkpt>
      <trkpt lat="43.61561" lon="3.78861">
        <ele>59</ele>
        <time>2021-05-14T12:35:10Z</time>
      </trkpt>
      <trkpt lat="43.61564" lon="3.78859">
        <ele>59</ele>
        <time>2021-05-14T12:35:12Z</time>
      </trkpt>
      <trkpt lat="43.61567" lon="3.78857">
        <ele>59</ele>
        <time>2021-05-14T12:35:14Z</time>
      </trkpt>
      <trkpt lat="43.61569" lon="3.78855">
        <ele>59</ele>
        <time>2021-05-14T12:35:16Z</time>
      </trkpt>
      <trkpt lat="43.6157" lon="3.78851">
        <ele>59</ele>
        <time>2021-05-14T12:35:18Z</time>
      </trkpt>
      <trkpt lat="43.61572" lon="3.78849">
        <ele>59</ele>
        <time>2021-05-14T12:35:20Z</time>
      </trkpt>
      <trkpt lat="43.61571" lon="3.78845">
        <ele>59</ele>
        <time>2021-05-14T12:35:22Z</time>
      </trkpt>
      <trkpt lat="43.61569" lon="3.78842">
        <ele>59</ele>
        <time>2021-05-14T12:35:24Z</time>
      </trkpt>
      <trkpt lat="43.61566" lon="3.7884">
        <ele>59</ele>
        <time>2021-05-14T12:35:26Z</time>
      </trkpt>
      <trkpt lat="43.61564" lon="3.78841">
        <ele>59</ele>
        <time>2021-05-14T12:35:27Z</time>
      </trkpt>
      <trkpt lat="43.61559" lon="3.78842">
        <ele>59</ele>
        <time>2021-05-14T12:35:29Z</time>
      </trkpt>
      <trkpt lat="43.61557" lon="3.78842">
        <ele>59</ele>
        <time>2021-05-14T12:35:30Z</time>
      </trkpt>
      <trkpt lat="43.61554" lon="3.78843">
        <ele>59</ele>
        <time>2021-05-14T12:35:31Z</time>
      </trkpt>
      <trkpt lat="43.61547" lon="3.78843">
        <ele>59</ele>
        <time>2021-05-14T12:35:33Z</time>
      </trkpt>
      <trkpt lat="43.61545" lon="3.78841">
        <ele>59</ele>
        <time>2021-05-14T12:35:34Z</time>
      </trkpt>
      <trkpt lat="43.61544" lon="3.78838">
        <ele>61</ele>
        <time>2021-05-14T12:35:35Z</time>
      </trkpt>
      <trkpt lat="43.61543" lon="3.78834">
        <ele>61</ele>
        <time>2021-05-14T12:35:36Z</time>
      </trkpt>
      <trkpt lat="43.61543" lon="3.7883">
        <ele>61</ele>
        <time>2021-05-14T12:35:37Z</time>
      </trkpt>
      <trkpt lat="43.61543" lon="3.78826">
        <ele>61</ele>
        <time>2021-05-14T12:35:38Z</time>
      </trkpt>
      <trkpt lat="43.61543" lon="3.78822">
        <ele>61</ele>
        <time>2021-05-14T12:35:39Z</time>
      </trkpt>
      <trkpt lat="43.61543" lon="3.78818">
        <ele>61</ele>
        <time>2021-05-14T12:35:40Z</time>
      </trkpt>
      <trkpt lat="43.61544" lon="3.78814">
        <ele>61</ele>
        <time>2021-05-14T12:35:41Z</time>
      </trkpt>
      <trkpt lat="43.61545" lon="3.7881">
        <ele>61</ele>
        <time>2021-05-14T12:35:42Z</time>
      </trkpt>
      <trkpt lat="43.61546" lon="3.78806">
        <ele>61</ele>
        <time>2021-05-14T12:35:43Z</time>
      </trkpt>
      <trkpt lat="43.61548" lon="3.78802">
        <ele>61</ele>
        <time>2021-05-14T12:35:44Z</time>
      </trkpt>
      <trkpt lat="43.6155" lon="3.78799">
        <ele>61</ele>
        <time>2021-05-14T12:35:45Z</time>
      </trkpt>
      <trkpt lat="43.61552" lon="3.78797">
        <ele>61</ele>
        <time>2021-05-14T12:35:46Z</time>
      </trkpt>
      <trkpt lat="43.61554" lon="3.78794">
        <ele>61</ele>
        <time>2021-05-14T12:35:47Z</time>
      </trkpt>
      <trkpt lat="43.61556" lon="3.7879">
        <ele>61</ele>
        <time>2021-05-14T12:35:48Z</time>
      </trkpt>
      <trkpt lat="43.61558" lon="3.78786">
        <ele>61</ele>
        <time>2021-05-14T12:35:49Z</time>
      </trkpt>
      <trkpt lat="43.6156" lon="3.78782">
        <ele>61</ele>
        <time>2021-05-14T12:35:50Z</time>
      </trkpt>
      <trkpt lat="43.61563" lon="3.78777">
        <ele>61</ele>
        <time>2021-05-14T12:35:51Z</time>
      </trkpt>
      <trkpt lat="43.61565" lon="3.78772">
        <ele>61</ele>
        <time>2021-05-14T12:35:52Z</time>
      </trkpt>
      <trkpt lat="43.61568" lon="3.78768">
        <ele>61</ele>
        <time>2021-05-14T12:35:53Z</time>
      </trkpt>
      <trkpt lat="43.6157" lon="3.78764">
        <ele>61</ele>
        <time>2021-05-14T12:35:54Z</time>
      </trkpt>
      <trkpt lat="43.61572" lon="3.78761">
        <ele>61</ele>
        <time>2021-05-14T12:35:55Z</time>
      </trkpt>
      <trkpt lat="43.61573" lon="3.78757">
        <ele>61</ele>
        <time>2021-05-14T12:35:56Z</time>
      </trkpt>
      <trkpt lat="43.61575" lon="3.78754">
        <ele>61</ele>
        <time>2021-05-14T12:35:57Z</time>
      </trkpt>
      <trkpt lat="43.61576" lon="3.78752">
        <ele>61</ele>
        <time>2021-05-14T12:35:58Z</time>
      </trkpt>
      <trkpt lat="43.61577" lon="3.78749">
        <ele>61</ele>
        <time>2021-05-14T12:35:59Z</time>
      </trkpt>
      <trkpt lat="43.61578" lon="3.78747">
        <ele>61</ele>
        <time>2021-05-14T12:36:00Z</time>
      </trkpt>
      <trkpt lat="43.61579" lon="3.78742">
        <ele>61</ele>
        <time>2021-05-14T12:36:02Z</time>
      </trkpt>
      <trkpt lat="43.61579" lon="3.78739">
        <ele>61</ele>
        <time>2021-05-14T12:36:03Z</time>
      </trkpt>
      <trkpt lat="43.61581" lon="3.78737">
        <ele>61</ele>
        <time>2021-05-14T12:36:04Z</time>
      </trkpt>
      <trkpt lat="43.61582" lon="3.78734">
        <ele>62</ele>
        <time>2021-05-14T12:36:05Z</time>
      </trkpt>
      <trkpt lat="43.61583" lon="3.78731">
        <ele>62</ele>
        <time>2021-05-14T12:36:07Z</time>
      </trkpt>
      <trkpt lat="43.61586" lon="3.78728">
        <ele>62</ele>
        <time>2021-05-14T12:36:08Z</time>
      </trkpt>
      <trkpt lat="43.61588" lon="3.78725">
        <ele>62</ele>
        <time>2021-05-14T12:36:11Z</time>
      </trkpt>
      <trkpt lat="43.6159" lon="3.78722">
        <ele>62</ele>
        <time>2021-05-14T12:36:12Z</time>
      </trkpt>
      <trkpt lat="43.61592" lon="3.78718">
        <ele>62</ele>
        <time>2021-05-14T12:36:14Z</time>
      </trkpt>
      <trkpt lat="43.61595" lon="3.78715">
        <ele>62</ele>
        <time>2021-05-14T12:36:16Z</time>
      </trkpt>
      <trkpt lat="43.61597" lon="3.78712">
        <ele>62</ele>
        <time>2021-05-14T12:36:18Z</time>
      </trkpt>
      <trkpt lat="43.61599" lon="3.7871">
        <ele>62</ele>
        <time>2021-05-14T12:36:19Z</time>
      </trkpt>
      <trkpt lat="43.616" lon="3.78709">
        <ele>62</ele>
        <time>2021-05-14T12:36:20Z</time>
      </trkpt>
      <trkpt lat="43.61602" lon="3.78705">
        <ele>62</ele>
        <time>2021-05-14T12:36:22Z</time>
      </trkpt>
      <trkpt lat="43.61605" lon="3.78702">
        <ele>62</ele>
        <time>2021-05-14T12:36:24Z</time>
      </trkpt>
      <trkpt lat="43.61607" lon="3.78699">
        <ele>62</ele>
        <time>2021-05-14T12:36:26Z</time>
      </trkpt>
      <trkpt lat="43.6161" lon="3.78695">
        <ele>62</ele>
        <time>2021-05-14T12:36:28Z</time>
      </trkpt>
      <trkpt lat="43.61612" lon="3.78692">
        <ele>62</ele>
        <time>2021-05-14T12:36:30Z</time>
      </trkpt>
      <trkpt lat="43.61614" lon="3.78689">
        <ele>62</ele>
        <time>2021-05-14T12:36:32Z</time>
      </trkpt>
      <trkpt lat="43.61616" lon="3.78686">
        <ele>62</ele>
        <time>2021-05-14T12:36:34Z</time>
      </trkpt>
      <trkpt lat="43.61618" lon="3.78683">
        <ele>62</ele>
        <time>2021-05-14T12:36:36Z</time>
      </trkpt>
      <trkpt lat="43.6162" lon="3.78679">
        <ele>62</ele>
        <time>2021-05-14T12:36:38Z</time>
      </trkpt>
      <trkpt lat="43.61622" lon="3.78675">
        <ele>62</ele>
        <time>2021-05-14T12:36:40Z</time>
      </trkpt>
      <trkpt lat="43.61625" lon="3.78672">
        <ele>62</ele>
        <time>2021-05-14T12:36:42Z</time>
      </trkpt>
      <trkpt lat="43.61627" lon="3.78669">
        <ele>62</ele>
        <time>2021-05-14T12:36:44Z</time>
      </trkpt>
      <trkpt lat="43.61628" lon="3.78665">
        <ele>62</ele>
        <time>2021-05-14T12:36:46Z</time>
      </trkpt>
      <trkpt lat="43.6163" lon="3.78662">
        <ele>62</ele>
        <time>2021-05-14T12:36:48Z</time>
      </trkpt>
      <trkpt lat="43.61631" lon="3.78659">
        <ele>62</ele>
        <time>2021-05-14T12:36:50Z</time>
      </trkpt>
      <trkpt lat="43.61634" lon="3.78657">
        <ele>62</ele>
        <time>2021-05-14T12:36:52Z</time>
      </trkpt>
      <trkpt lat="43.61637" lon="3.78654">
        <ele>62</ele>
        <time>2021-05-14T12:36:54Z</time>
      </trkpt>
      <trkpt lat="43.61638" lon="3.78653">
        <ele>66</ele>
        <time>2021-05-14T12:36:55Z</time>
      </trkpt>
      <trkpt lat="43.6164" lon="3.78652">
        <ele>66</ele>
        <time>2021-05-14T12:36:56Z</time>
      </trkpt>
      <trkpt lat="43.61642" lon="3.7865">
        <ele>66</ele>
        <time>2021-05-14T12:36:57Z</time>
      </trkpt>
      <trkpt lat="43.61643" lon="3.78649">
        <ele>66</ele>
        <time>2021-05-14T12:36:58Z</time>
      </trkpt>
      <trkpt lat="43.61646" lon="3.78646">
        <ele>66</ele>
        <time>2021-05-14T12:37:00Z</time>
      </trkpt>
      <trkpt lat="43.61647" lon="3.78645">
        <ele>66</ele>
        <time>2021-05-14T12:37:01Z</time>
      </trkpt>
      <trkpt lat="43.61649" lon="3.78642">
        <ele>66</ele>
        <time>2021-05-14T12:37:02Z</time>
      </trkpt>
      <trkpt lat="43.6165" lon="3.7864">
        <ele>66</ele>
        <time>2021-05-14T12:37:03Z</time>
      </trkpt>
      <trkpt lat="43.61652" lon="3.78638">
        <ele>66</ele>
        <time>2021-05-14T12:37:04Z</time>
      </trkpt>
      <trkpt lat="43.61653" lon="3.78636">
        <ele>66</ele>
        <time>2021-05-14T12:37:05Z</time>
      </trkpt>
      <trkpt lat="43.61655" lon="3.78634">
        <ele>66</ele>
        <time>2021-05-14T12:37:06Z</time>
      </trkpt>
      <trkpt lat="43.61656" lon="3.78632">
        <ele>66</ele>
        <time>2021-05-14T12:37:07Z</time>
      </trkpt>
      <trkpt lat="43.61658" lon="3.7863">
        <ele>66</ele>
        <time>2021-05-14T12:37:08Z</time>
      </trkpt>
      <trkpt lat="43.61659" lon="3.78628">
        <ele>66</ele>
        <time>2021-05-14T12:37:09Z</time>
      </trkpt>
      <trkpt lat="43.6166" lon="3.78626">
        <ele>66</ele>
        <time>2021-05-14T12:37:10Z</time>
      </trkpt>
      <trkpt lat="43.61662" lon="3.78624">
        <ele>66</ele>
        <time>2021-05-14T12:37:11Z</time>
      </trkpt>
      <trkpt lat="43.61663" lon="3.78622">
        <ele>66</ele>
        <time>2021-05-14T12:37:12Z</time>
      </trkpt>
      <trkpt lat="43.61664" lon="3.7862">
        <ele>66</ele>
        <time>2021-05-14T12:37:13Z</time>
      </trkpt>
      <trkpt lat="43.61666" lon="3.78618">
        <ele>66</ele>
        <time>2021-05-14T12:37:14Z</time>
      </trkpt>
      <trkpt lat="43.61668" lon="3.78615">
        <ele>66</ele>
        <time>2021-05-14T12:37:16Z</time>
      </trkpt>
      <trkpt lat="43.6167" lon="3.78612">
        <ele>66</ele>
        <time>2021-05-14T12:37:18Z</time>
      </trkpt>
      <trkpt lat="43.61672" lon="3.78609">
        <ele>66</ele>
        <time>2021-05-14T12:37:20Z</time>
      </trkpt>
      <trkpt lat="43.61673" lon="3.78605">
        <ele>66</ele>
        <time>2021-05-14T12:37:22Z</time>
      </trkpt>
      <trkpt lat="43.61675" lon="3.78602">
        <ele>66</ele>
        <time>2021-05-14T12:37:24Z</time>
      </trkpt>
      <trkpt lat="43.61676" lon="3.78599">
        <ele>66</ele>
        <time>2021-05-14T12:37:26Z</time>
      </trkpt>
      <trkpt lat="43.61677" lon="3.78596">
        <ele>66</ele>
        <time>2021-05-14T12:37:28Z</time>
      </trkpt>
      <trkpt lat="43.61679" lon="3.78593">
        <ele>66</ele>
        <time>2021-05-14T12:37:30Z</time>
      </trkpt>
      <trkpt lat="43.6168" lon="3.78589">
        <ele>66</ele>
        <time>2021-05-14T12:37:32Z</time>
      </trkpt>
      <trkpt lat="43.61682" lon="3.78586">
        <ele>66</ele>
        <time>2021-05-14T12:37:34Z</time>
      </trkpt>
      <trkpt lat="43.61684" lon="3.78583">
        <ele>66</ele>
        <time>2021-05-14T12:37:36Z</time>
      </trkpt>
      <trkpt lat="43.61686" lon="3.7858">
        <ele>66</ele>
        <time>2021-05-14T12:37:38Z</time>
      </trkpt>
      <trkpt lat="43.61688" lon="3.78576">
        <ele>66</ele>
        <time>2021-05-14T12:37:40Z</time>
      </trkpt>
      <trkpt lat="43.61689" lon="3.78572">
        <ele>66</ele>
        <time>2021-05-14T12:37:42Z</time>
      </trkpt>
      <trkpt lat="43.61692" lon="3.78569">
        <ele>66</ele>
        <time>2021-05-14T12:37:44Z</time>
      </trkpt>
      <trkpt lat="43.61694" lon="3.78565">
        <ele>66</ele>
        <time>2021-05-14T12:37:46Z</time>
      </trkpt>
      <trkpt lat="43.61695" lon="3.78561">
        <ele>66</ele>
        <time>2021-05-14T12:37:48Z</time>
      </trkpt>
      <trkpt lat="43.61697" lon="3.78558">
        <ele>66</ele>
        <time>2021-05-14T12:37:50Z</time>
      </trkpt>
      <trkpt lat="43.61698" lon="3.78554">
        <ele>66</ele>
        <time>2021-05-14T12:37:52Z</time>
      </trkpt>
      <trkpt lat="43.617" lon="3.78551">
        <ele>66</ele>
        <time>2021-05-14T12:37:54Z</time>
      </trkpt>
      <trkpt lat="43.61702" lon="3.78547">
        <ele>66</ele>
        <time>2021-05-14T12:37:56Z</time>
      </trkpt>
      <trkpt lat="43.61703" lon="3.78543">
        <ele>66</ele>
        <time>2021-05-14T12:37:58Z</time>
      </trkpt>
      <trkpt lat="43.61705" lon="3.7854">
        <ele>66</ele>
        <time>2021-05-14T12:38:00Z</time>
      </trkpt>
      <trkpt lat="43.61707" lon="3.78536">
        <ele>66</ele>
        <time>2021-05-14T12:38:02Z</time>
      </trkpt>
      <trkpt lat="43.61709" lon="3.78533">
        <ele>66</ele>
        <time>2021-05-14T12:38:04Z</time>
      </trkpt>
      <trkpt lat="43.6171" lon="3.78529">
        <ele>66</ele>
        <time>2021-05-14T12:38:06Z</time>
      </trkpt>
      <trkpt lat="43.61712" lon="3.78525">
        <ele>66</ele>
        <time>2021-05-14T12:38:08Z</time>
      </trkpt>
      <trkpt lat="43.61713" lon="3.78521">
        <ele>66</ele>
        <time>2021-05-14T12:38:11Z</time>
      </trkpt>
      <trkpt lat="43.61714" lon="3.78517">
        <ele>66</ele>
        <time>2021-05-14T12:38:12Z</time>
      </trkpt>
      <trkpt lat="43.61715" lon="3.78512">
        <ele>66</ele>
        <time>2021-05-14T12:38:14Z</time>
      </trkpt>
      <trkpt lat="43.61716" lon="3.78508">
        <ele>66</ele>
        <time>2021-05-14T12:38:16Z</time>
      </trkpt>
      <trkpt lat="43.61718" lon="3.78504">
        <ele>66</ele>
        <time>2021-05-14T12:38:18Z</time>
      </trkpt>
      <trkpt lat="43.61719" lon="3.78499">
        <ele>66</ele>
        <time>2021-05-14T12:38:20Z</time>
      </trkpt>
      <trkpt lat="43.61721" lon="3.78495">
        <ele>66</ele>
        <time>2021-05-14T12:38:22Z</time>
      </trkpt>
      <trkpt lat="43.61722" lon="3.7849">
        <ele>66</ele>
        <time>2021-05-14T12:38:24Z</time>
      </trkpt>
      <trkpt lat="43.61723" lon="3.78488">
        <ele>79</ele>
        <time>2021-05-14T12:38:25Z</time>
      </trkpt>
      <trkpt lat="43.61724" lon="3.78485">
        <ele>79</ele>
        <time>2021-05-14T12:38:26Z</time>
      </trkpt>
      <trkpt lat="43.61725" lon="3.78481">
        <ele>79</ele>
        <time>2021-05-14T12:38:28Z</time>
      </trkpt>
      <trkpt lat="43.61726" lon="3.78478">
        <ele>79</ele>
        <time>2021-05-14T12:38:29Z</time>
      </trkpt>
      <trkpt lat="43.61727" lon="3.78476">
        <ele>79</ele>
        <time>2021-05-14T12:38:30Z</time>
      </trkpt>
      <trkpt lat="43.61727" lon="3.78473">
        <ele>79</ele>
        <time>2021-05-14T12:38:31Z</time>
      </trkpt>
      <trkpt lat="43.61728" lon="3.7847">
        <ele>79</ele>
        <time>2021-05-14T12:38:32Z</time>
      </trkpt>
      <trkpt lat="43.61728" lon="3.78467">
        <ele>79</ele>
        <time>2021-05-14T12:38:33Z</time>
      </trkpt>
      <trkpt lat="43.61729" lon="3.78464">
        <ele>79</ele>
        <time>2021-05-14T12:38:34Z</time>
      </trkpt>
      <trkpt lat="43.61729" lon="3.78461">
        <ele>79</ele>
        <time>2021-05-14T12:38:35Z</time>
      </trkpt>
      <trkpt lat="43.61728" lon="3.78454">
        <ele>79</ele>
        <time>2021-05-14T12:38:37Z</time>
      </trkpt>
      <trkpt lat="43.61728" lon="3.78451">
        <ele>79</ele>
        <time>2021-05-14T12:38:38Z</time>
      </trkpt>
      <trkpt lat="43.61728" lon="3.78448">
        <ele>79</ele>
        <time>2021-05-14T12:38:39Z</time>
      </trkpt>
      <trkpt lat="43.61728" lon="3.78444">
        <ele>79</ele>
        <time>2021-05-14T12:38:40Z</time>
      </trkpt>
      <trkpt lat="43.61728" lon="3.78441">
        <ele>79</ele>
        <time>2021-05-14T12:38:41Z</time>
      </trkpt>
      <trkpt lat="43.61728" lon="3.78437">
        <ele>79</ele>
        <time>2021-05-14T12:38:42Z</time>
      </trkpt>
      <trkpt lat="43.61728" lon="3.78433">
        <ele>79</ele>
        <time>2021-05-14T12:38:43Z</time>
      </trkpt>
      <trkpt lat="43.61727" lon="3.7843">
        <ele>79</ele>
        <time>2021-05-14T12:38:44Z</time>
      </trkpt>
      <trkpt lat="43.61727" lon="3.78426">
        <ele>80</ele>
        <time>2021-05-14T12:38:45Z</time>
      </trkpt>
      <trkpt lat="43.61727" lon="3.78423">
        <ele>80</ele>
        <time>2021-05-14T12:38:46Z</time>
      </trkpt>
      <trkpt lat="43.61726" lon="3.78419">
        <ele>80</ele>
        <time>2021-05-14T12:38:47Z</time>
      </trkpt>
      <trkpt lat="43.61725" lon="3.78415">
        <ele>80</ele>
        <time>2021-05-14T12:38:48Z</time>
      </trkpt>
      <trkpt lat="43.61725" lon="3.78411">
        <ele>80</ele>
        <time>2021-05-14T12:38:49Z</time>
      </trkpt>
      <trkpt lat="43.61724" lon="3.78407">
        <ele>80</ele>
        <time>2021-05-14T12:38:50Z</time>
      </trkpt>
      <trkpt lat="43.61723" lon="3.78402">
        <ele>80</ele>
        <time>2021-05-14T12:38:51Z</time>
      </trkpt>
      <trkpt lat="43.61722" lon="3.78398">
        <ele>80</ele>
        <time>2021-05-14T12:38:52Z</time>
      </trkpt>
      <trkpt lat="43.61721" lon="3.78393">
        <ele>80</ele>
        <time>2021-05-14T12:38:53Z</time>
      </trkpt>
      <trkpt lat="43.6172" lon="3.78388">
        <ele>80</ele>
        <time>2021-05-14T12:38:54Z</time>
      </trkpt>
      <trkpt lat="43.61718" lon="3.78383">
        <ele>81</ele>
        <time>2021-05-14T12:38:55Z</time>
      </trkpt>
      <trkpt lat="43.61717" lon="3.78377">
        <ele>81</ele>
        <time>2021-05-14T12:38:56Z</time>
      </trkpt>
      <trkpt lat="43.61716" lon="3.78371">
        <ele>81</ele>
        <time>2021-05-14T12:38:57Z</time>
      </trkpt>
      <trkpt lat="43.61715" lon="3.78365">
        <ele>81</ele>
        <time>2021-05-14T12:38:58Z</time>
      </trkpt>
      <trkpt lat="43.61714" lon="3.78358">
        <ele>81</ele>
        <time>2021-05-14T12:38:59Z</time>
      </trkpt>
      <trkpt lat="43.61714" lon="3.78352">
        <ele>81</ele>
        <time>2021-05-14T12:39:00Z</time>
      </trkpt>
      <trkpt lat="43.61714" lon="3.78339">
        <ele>81</ele>
        <time>2021-05-14T12:39:02Z</time>
      </trkpt>
      <trkpt lat="43.61714" lon="3.78334">
        <ele>81</ele>
        <time>2021-05-14T12:39:03Z</time>
      </trkpt>
      <trkpt lat="43.61714" lon="3.78329">
        <ele>81</ele>
        <time>2021-05-14T12:39:04Z</time>
      </trkpt>
      <trkpt lat="43.61715" lon="3.78319">
        <ele>81</ele>
        <time>2021-05-14T12:39:06Z</time>
      </trkpt>
      <trkpt lat="43.61716" lon="3.78314">
        <ele>81</ele>
        <time>2021-05-14T12:39:07Z</time>
      </trkpt>
      <trkpt lat="43.61717" lon="3.7831">
        <ele>81</ele>
        <time>2021-05-14T12:39:08Z</time>
      </trkpt>
      <trkpt lat="43.61718" lon="3.78306">
        <ele>81</ele>
        <time>2021-05-14T12:39:09Z</time>
      </trkpt>
      <trkpt lat="43.61718" lon="3.78301">
        <ele>81</ele>
        <time>2021-05-14T12:39:10Z</time>
      </trkpt>
      <trkpt lat="43.61719" lon="3.78297">
        <ele>81</ele>
        <time>2021-05-14T12:39:11Z</time>
      </trkpt>
      <trkpt lat="43.61719" lon="3.78293">
        <ele>81</ele>
        <time>2021-05-14T12:39:12Z</time>
      </trkpt>
      <trkpt lat="43.6172" lon="3.78288">
        <ele>81</ele>
        <time>2021-05-14T12:39:13Z</time>
      </trkpt>
      <trkpt lat="43.61721" lon="3.78284">
        <ele>81</ele>
        <time>2021-05-14T12:39:14Z</time>
      </trkpt>
      <trkpt lat="43.61722" lon="3.78279">
        <ele>81</ele>
        <time>2021-05-14T12:39:15Z</time>
      </trkpt>
      <trkpt lat="43.61723" lon="3.78275">
        <ele>81</ele>
        <time>2021-05-14T12:39:16Z</time>
      </trkpt>
      <trkpt lat="43.61724" lon="3.78271">
        <ele>81</ele>
        <time>2021-05-14T12:39:17Z</time>
      </trkpt>
      <trkpt lat="43.61725" lon="3.78267">
        <ele>81</ele>
        <time>2021-05-14T12:39:18Z</time>
      </trkpt>
      <trkpt lat="43.61726" lon="3.78263">
        <ele>81</ele>
        <time>2021-05-14T12:39:19Z</time>
      </trkpt>
      <trkpt lat="43.61727" lon="3.78259">
        <ele>81</ele>
        <time>2021-05-14T12:39:20Z</time>
      </trkpt>
      <trkpt lat="43.61727" lon="3.78255">
        <ele>81</ele>
        <time>2021-05-14T12:39:21Z</time>
      </trkpt>
      <trkpt lat="43.61728" lon="3.7825">
        <ele>81</ele>
        <time>2021-05-14T12:39:22Z</time>
      </trkpt>
      <trkpt lat="43.61729" lon="3.78246">
        <ele>81</ele>
        <time>2021-05-14T12:39:23Z</time>
      </trkpt>
      <trkpt lat="43.6173" lon="3.78242">
        <ele>81</ele>
        <time>2021-05-14T12:39:24Z</time>
      </trkpt>
      <trkpt lat="43.6173" lon="3.78238">
        <ele>83</ele>
        <time>2021-05-14T12:39:25Z</time>
      </trkpt>
      <trkpt lat="43.61732" lon="3.78229">
        <ele>83</ele>
        <time>2021-05-14T12:39:27Z</time>
      </trkpt>
      <trkpt lat="43.61733" lon="3.78225">
        <ele>83</ele>
        <time>2021-05-14T12:39:28Z</time>
      </trkpt>
      <trkpt lat="43.61734" lon="3.78221">
        <ele>83</ele>
        <time>2021-05-14T12:39:29Z</time>
      </trkpt>
      <trkpt lat="43.61735" lon="3.78216">
        <ele>83</ele>
        <time>2021-05-14T12:39:30Z</time>
      </trkpt>
      <trkpt lat="43.61736" lon="3.78212">
        <ele>83</ele>
        <time>2021-05-14T12:39:31Z</time>
      </trkpt>
      <trkpt lat="43.61738" lon="3.78207">
        <ele>83</ele>
        <time>2021-05-14T12:39:32Z</time>
      </trkpt>
      <trkpt lat="43.61739" lon="3.78203">
        <ele>83</ele>
        <time>2021-05-14T12:39:33Z</time>
      </trkpt>
      <trkpt lat="43.6174" lon="3.78198">
        <ele>83</ele>
        <time>2021-05-14T12:39:34Z</time>
      </trkpt>
      <trkpt lat="43.61741" lon="3.78193">
        <ele>83</ele>
        <time>2021-05-14T12:39:35Z</time>
      </trkpt>
      <trkpt lat="43.61742" lon="3.78189">
        <ele>83</ele>
        <time>2021-05-14T12:39:36Z</time>
      </trkpt>
      <trkpt lat="43.61743" lon="3.78184">
        <ele>83</ele>
        <time>2021-05-14T12:39:37Z</time>
      </trkpt>
      <trkpt lat="43.61744" lon="3.7818">
        <ele>83</ele>
        <time>2021-05-14T12:39:38Z</time>
      </trkpt>
      <trkpt lat="43.61745" lon="3.78175">
        <ele>83</ele>
        <time>2021-05-14T12:39:39Z</time>
      </trkpt>
      <trkpt lat="43.61746" lon="3.78171">
        <ele>83</ele>
        <time>2021-05-14T12:39:40Z</time>
      </trkpt>
      <trkpt lat="43.61747" lon="3.78167">
        <ele>83</ele>
        <time>2021-05-14T12:39:41Z</time>
      </trkpt>
      <trkpt lat="43.61749" lon="3.78163">
        <ele>83</ele>
        <time>2021-05-14T12:39:42Z</time>
      </trkpt>
      <trkpt lat="43.6175" lon="3.78158">
        <ele>83</ele>
        <time>2021-05-14T12:39:43Z</time>
      </trkpt>
      <trkpt lat="43.61751" lon="3.78154">
        <ele>83</ele>
        <time>2021-05-14T12:39:44Z</time>
      </trkpt>
      <trkpt lat="43.61752" lon="3.78149">
        <ele>84</ele>
        <time>2021-05-14T12:39:45Z</time>
      </trkpt>
      <trkpt lat="43.61753" lon="3.78145">
        <ele>84</ele>
        <time>2021-05-14T12:39:46Z</time>
      </trkpt>
      <trkpt lat="43.61754" lon="3.7814">
        <ele>84</ele>
        <time>2021-05-14T12:39:47Z</time>
      </trkpt>
      <trkpt lat="43.61755" lon="3.78136">
        <ele>84</ele>
        <time>2021-05-14T12:39:48Z</time>
      </trkpt>
      <trkpt lat="43.61757" lon="3.78131">
        <ele>84</ele>
        <time>2021-05-14T12:39:49Z</time>
      </trkpt>
      <trkpt lat="43.61758" lon="3.78127">
        <ele>84</ele>
        <time>2021-05-14T12:39:50Z</time>
      </trkpt>
      <trkpt lat="43.61761" lon="3.78119">
        <ele>84</ele>
        <time>2021-05-14T12:39:52Z</time>
      </trkpt>
      <trkpt lat="43.61763" lon="3.78115">
        <ele>84</ele>
        <time>2021-05-14T12:39:53Z</time>
      </trkpt>
      <trkpt lat="43.61764" lon="3.78111">
        <ele>84</ele>
        <time>2021-05-14T12:39:54Z</time>
      </trkpt>
      <trkpt lat="43.61766" lon="3.78107">
        <ele>84</ele>
        <time>2021-05-14T12:39:55Z</time>
      </trkpt>
      <trkpt lat="43.61768" lon="3.78102">
        <ele>84</ele>
        <time>2021-05-14T12:39:56Z</time>
      </trkpt>
      <trkpt lat="43.6177" lon="3.78098">
        <ele>84</ele>
        <time>2021-05-14T12:39:57Z</time>
      </trkpt>
      <trkpt lat="43.61771" lon="3.78094">
        <ele>84</ele>
        <time>2021-05-14T12:39:58Z</time>
      </trkpt>
      <trkpt lat="43.61773" lon="3.7809">
        <ele>84</ele>
        <time>2021-05-14T12:39:59Z</time>
      </trkpt>
      <trkpt lat="43.61776" lon="3.78087">
        <ele>84</ele>
        <time>2021-05-14T12:40:00Z</time>
      </trkpt>
      <trkpt lat="43.61778" lon="3.78083">
        <ele>84</ele>
        <time>2021-05-14T12:40:01Z</time>
      </trkpt>
      <trkpt lat="43.61781" lon="3.7808">
        <ele>84</ele>
        <time>2021-05-14T12:40:02Z</time>
      </trkpt>
      <trkpt lat="43.61784" lon="3.78077">
        <ele>84</ele>
        <time>2021-05-14T12:40:03Z</time>
      </trkpt>
      <trkpt lat="43.61786" lon="3.78074">
        <ele>84</ele>
        <time>2021-05-14T12:40:04Z</time>
      </trkpt>
      <trkpt lat="43.61789" lon="3.78071">
        <ele>85</ele>
        <time>2021-05-14T12:40:05Z</time>
      </trkpt>
      <trkpt lat="43.61792" lon="3.78068">
        <ele>85</ele>
        <time>2021-05-14T12:40:06Z</time>
      </trkpt>
      <trkpt lat="43.61795" lon="3.78065">
        <ele>85</ele>
        <time>2021-05-14T12:40:07Z</time>
      </trkpt>
      <trkpt lat="43.61797" lon="3.78063">
        <ele>85</ele>
        <time>2021-05-14T12:40:08Z</time>
      </trkpt>
      <trkpt lat="43.618" lon="3.7806">
        <ele>85</ele>
        <time>2021-05-14T12:40:09Z</time>
      </trkpt>
      <trkpt lat="43.61803" lon="3.78057">
        <ele>85</ele>
        <time>2021-05-14T12:40:10Z</time>
      </trkpt>
      <trkpt lat="43.61806" lon="3.78054">
        <ele>85</ele>
        <time>2021-05-14T12:40:11Z</time>
      </trkpt>
      <trkpt lat="43.61812" lon="3.78046">
        <ele>85</ele>
        <time>2021-05-14T12:40:13Z</time>
      </trkpt>
      <trkpt lat="43.61815" lon="3.78042">
        <ele>85</ele>
        <time>2021-05-14T12:40:14Z</time>
      </trkpt>
      <trkpt lat="43.61817" lon="3.78038">
        <ele>85</ele>
        <time>2021-05-14T12:40:15Z</time>
      </trkpt>
      <trkpt lat="43.61821" lon="3.7803">
        <ele>85</ele>
        <time>2021-05-14T12:40:17Z</time>
      </trkpt>
      <trkpt lat="43.61823" lon="3.78026">
        <ele>85</ele>
        <time>2021-05-14T12:40:18Z</time>
      </trkpt>
      <trkpt lat="43.61824" lon="3.78022">
        <ele>85</ele>
        <time>2021-05-14T12:40:19Z</time>
      </trkpt>
      <trkpt lat="43.61825" lon="3.78018">
        <ele>85</ele>
        <time>2021-05-14T12:40:20Z</time>
      </trkpt>
      <trkpt lat="43.61826" lon="3.78014">
        <ele>85</ele>
        <time>2021-05-14T12:40:21Z</time>
      </trkpt>
      <trkpt lat="43.61827" lon="3.7801">
        <ele>85</ele>
        <time>2021-05-14T12:40:22Z</time>
      </trkpt>
      <trkpt lat="43.61828" lon="3.78006">
        <ele>85</ele>
        <time>2021-05-14T12:40:23Z</time>
      </trkpt>
      <trkpt lat="43.61829" lon="3.78002">
        <ele>85</ele>
        <time>2021-05-14T12:40:24Z</time>
      </trkpt>
      <trkpt lat="43.6183" lon="3.77998">
        <ele>86</ele>
        <time>2021-05-14T12:40:25Z</time>
      </trkpt>
      <trkpt lat="43.61831" lon="3.77994">
        <ele>86</ele>
        <time>2021-05-14T12:40:26Z</time>
      </trkpt>
      <trkpt lat="43.61832" lon="3.7799">
        <ele>86</ele>
        <time>2021-05-14T12:40:27Z</time>
      </trkpt>
      <trkpt lat="43.61833" lon="3.77985">
        <ele>86</ele>
        <time>2021-05-14T12:40:28Z</time>
      </trkpt>
      <trkpt lat="43.61834" lon="3.77981">
        <ele>86</ele>
        <time>2021-05-14T12:40:29Z</time>
      </trkpt>
      <trkpt lat="43.61835" lon="3.77977">
        <ele>86</ele>
        <time>2021-05-14T12:40:30Z</time>
      </trkpt>
      <trkpt lat="43.61836" lon="3.77973">
        <ele>86</ele>
        <time>2021-05-14T12:40:31Z</time>
      </trkpt>
      <trkpt lat="43.61836" lon="3.77969">
        <ele>86</ele>
        <time>2021-05-14T12:40:32Z</time>
      </trkpt>
      <trkpt lat="43.61837" lon="3.77965">
        <ele>86</ele>
        <time>2021-05-14T12:40:33Z</time>
      </trkpt>
      <trkpt lat="43.61837" lon="3.77961">
        <ele>86</ele>
        <time>2021-05-14T12:40:34Z</time>
      </trkpt>
      <trkpt lat="43.61838" lon="3.77957">
        <ele>87</ele>
        <time>2021-05-14T12:40:35Z</time>
      </trkpt>
      <trkpt lat="43.61838" lon="3.77952">
        <ele>87</ele>
        <time>2021-05-14T12:40:36Z</time>
      </trkpt>
      <trkpt lat="43.61838" lon="3.77948">
        <ele>87</ele>
        <time>2021-05-14T12:40:37Z</time>
      </trkpt>
      <trkpt lat="43.61838" lon="3.77944">
        <ele>87</ele>
        <time>2021-05-14T12:40:38Z</time>
      </trkpt>
      <trkpt lat="43.61838" lon="3.7794">
        <ele>87</ele>
        <time>2021-05-14T12:40:39Z</time>
      </trkpt>
      <trkpt lat="43.61838" lon="3.77937">
        <ele>87</ele>
        <time>2021-05-14T12:40:40Z</time>
      </trkpt>
      <trkpt lat="43.61838" lon="3.77929">
        <ele>87</ele>
        <time>2021-05-14T12:40:42Z</time>
      </trkpt>
      <trkpt lat="43.61838" lon="3.77925">
        <ele>87</ele>
        <time>2021-05-14T12:40:43Z</time>
      </trkpt>
      <trkpt lat="43.61838" lon="3.77921">
        <ele>87</ele>
        <time>2021-05-14T12:40:44Z</time>
      </trkpt>
      <trkpt lat="43.61838" lon="3.77913">
        <ele>87</ele>
        <time>2021-05-14T12:40:46Z</time>
      </trkpt>
      <trkpt lat="43.61838" lon="3.77909">
        <ele>87</ele>
        <time>2021-05-14T12:40:47Z</time>
      </trkpt>
      <trkpt lat="43.61837" lon="3.77905">
        <ele>87</ele>
        <time>2021-05-14T12:40:48Z</time>
      </trkpt>
      <trkpt lat="43.61837" lon="3.77901">
        <ele>87</ele>
        <time>2021-05-14T12:40:49Z</time>
      </trkpt>
      <trkpt lat="43.61837" lon="3.77896">
        <ele>87</ele>
        <time>2021-05-14T12:40:50Z</time>
      </trkpt>
      <trkpt lat="43.61837" lon="3.77892">
        <ele>87</ele>
        <time>2021-05-14T12:40:51Z</time>
      </trkpt>
      <trkpt lat="43.61837" lon="3.77888">
        <ele>87</ele>
        <time>2021-05-14T12:40:52Z</time>
      </trkpt>
      <trkpt lat="43.61837" lon="3.77884">
        <ele>87</ele>
        <time>2021-05-14T12:40:53Z</time>
      </trkpt>
      <trkpt lat="43.61837" lon="3.7788">
        <ele>87</ele>
        <time>2021-05-14T12:40:54Z</time>
      </trkpt>
      <trkpt lat="43.61836" lon="3.77876">
        <ele>89</ele>
        <time>2021-05-14T12:40:55Z</time>
      </trkpt>
      <trkpt lat="43.61836" lon="3.77873">
        <ele>89</ele>
        <time>2021-05-14T12:40:56Z</time>
      </trkpt>
      <trkpt lat="43.61836" lon="3.77869">
        <ele>89</ele>
        <time>2021-05-14T12:40:57Z</time>
      </trkpt>
      <trkpt lat="43.61835" lon="3.77865">
        <ele>89</ele>
        <time>2021-05-14T12:40:58Z</time>
      </trkpt>
      <trkpt lat="43.61834" lon="3.77862">
        <ele>89</ele>
        <time>2021-05-14T12:40:59Z</time>
      </trkpt>
      <trkpt lat="43.61832" lon="3.77861">
        <ele>89</ele>
        <time>2021-05-14T12:41:00Z</time>
      </trkpt>
      <trkpt lat="43.6183" lon="3.77861">
        <ele>89</ele>
        <time>2021-05-14T12:41:01Z</time>
      </trkpt>
      <trkpt lat="43.61827" lon="3.77862">
        <ele>89</ele>
        <time>2021-05-14T12:41:02Z</time>
      </trkpt>
      <trkpt lat="43.61825" lon="3.77862">
        <ele>89</ele>
        <time>2021-05-14T12:41:03Z</time>
      </trkpt>
      <trkpt lat="43.61823" lon="3.77862">
        <ele>89</ele>
        <time>2021-05-14T12:41:04Z</time>
      </trkpt>
      <trkpt lat="43.61821" lon="3.77862">
        <ele>90</ele>
        <time>2021-05-14T12:41:05Z</time>
      </trkpt>
      <trkpt lat="43.61819" lon="3.77862">
        <ele>90</ele>
        <time>2021-05-14T12:41:06Z</time>
      </trkpt>
      <trkpt lat="43.61817" lon="3.77862">
        <ele>90</ele>
        <time>2021-05-14T12:41:07Z</time>
      </trkpt>
      <trkpt lat="43.61814" lon="3.77862">
        <ele>90</ele>
        <time>2021-05-14T12:41:08Z</time>
      </trkpt>
      <trkpt lat="43.61812" lon="3.77862">
        <ele>90</ele>
        <time>2021-05-14T12:41:09Z</time>
      </trkpt>
      <trkpt lat="43.6181" lon="3.77863">
        <ele>90</ele>
        <time>2021-05-14T12:41:10Z</time>
      </trkpt>
      <trkpt lat="43.61805" lon="3.77863">
        <ele>90</ele>
        <time>2021-05-14T12:41:12Z</time>
      </trkpt>
      <trkpt lat="43.61802" lon="3.77863">
        <ele>90</ele>
        <time>2021-05-14T12:41:13Z</time>
      </trkpt>
      <trkpt lat="43.618" lon="3.77863">
        <ele>90</ele>
        <time>2021-05-14T12:41:14Z</time>
      </trkpt>
      <trkpt lat="43.61795" lon="3.77861">
        <ele>90</ele>
        <time>2021-05-14T12:41:16Z</time>
      </trkpt>
      <trkpt lat="43.61793" lon="3.77859">
        <ele>90</ele>
        <time>2021-05-14T12:41:17Z</time>
      </trkpt>
      <trkpt lat="43.61791" lon="3.77856">
        <ele>90</ele>
        <time>2021-05-14T12:41:18Z</time>
      </trkpt>
      <trkpt lat="43.6179" lon="3.77853">
        <ele>90</ele>
        <time>2021-05-14T12:41:19Z</time>
      </trkpt>
      <trkpt lat="43.61789" lon="3.7785">
        <ele>90</ele>
        <time>2021-05-14T12:41:20Z</time>
      </trkpt>
      <trkpt lat="43.61788" lon="3.77847">
        <ele>90</ele>
        <time>2021-05-14T12:41:21Z</time>
      </trkpt>
      <trkpt lat="43.61788" lon="3.77843">
        <ele>90</ele>
        <time>2021-05-14T12:41:22Z</time>
      </trkpt>
      <trkpt lat="43.61789" lon="3.7784">
        <ele>90</ele>
        <time>2021-05-14T12:41:23Z</time>
      </trkpt>
      <trkpt lat="43.6179" lon="3.77837">
        <ele>90</ele>
        <time>2021-05-14T12:41:24Z</time>
      </trkpt>
      <trkpt lat="43.61791" lon="3.77834">
        <ele>94</ele>
        <time>2021-05-14T12:41:25Z</time>
      </trkpt>
      <trkpt lat="43.61791" lon="3.77831">
        <ele>94</ele>
        <time>2021-05-14T12:41:26Z</time>
      </trkpt>
      <trkpt lat="43.61792" lon="3.77828">
        <ele>94</ele>
        <time>2021-05-14T12:41:27Z</time>
      </trkpt>
      <trkpt lat="43.61792" lon="3.77824">
        <ele>94</ele>
        <time>2021-05-14T12:41:28Z</time>
      </trkpt>
      <trkpt lat="43.61793" lon="3.77821">
        <ele>94</ele>
        <time>2021-05-14T12:41:29Z</time>
      </trkpt>
      <trkpt lat="43.61794" lon="3.77818">
        <ele>94</ele>
        <time>2021-05-14T12:41:30Z</time>
      </trkpt>
      <trkpt lat="43.61795" lon="3.77815">
        <ele>94</ele>
        <time>2021-05-14T12:41:31Z</time>
      </trkpt>
      <trkpt lat="43.61796" lon="3.77811">
        <ele>94</ele>
        <time>2021-05-14T12:41:32Z</time>
      </trkpt>
      <trkpt lat="43.61796" lon="3.77808">
        <ele>94</ele>
        <time>2021-05-14T12:41:33Z</time>
      </trkpt>
      <trkpt lat="43.61797" lon="3.77804">
        <ele>94</ele>
        <time>2021-05-14T12:41:34Z</time>
      </trkpt>
      <trkpt lat="43.61798" lon="3.77801">
        <ele>95</ele>
        <time>2021-05-14T12:41:35Z</time>
      </trkpt>
      <trkpt lat="43.61799" lon="3.77797">
        <ele>95</ele>
        <time>2021-05-14T12:41:36Z</time>
      </trkpt>
      <trkpt lat="43.618" lon="3.77793">
        <ele>95</ele>
        <time>2021-05-14T12:41:37Z</time>
      </trkpt>
      <trkpt lat="43.61801" lon="3.77789">
        <ele>95</ele>
        <time>2021-05-14T12:41:38Z</time>
      </trkpt>
      <trkpt lat="43.61802" lon="3.77785">
        <ele>95</ele>
        <time>2021-05-14T12:41:39Z</time>
      </trkpt>
      <trkpt lat="43.61803" lon="3.77782">
        <ele>95</ele>
        <time>2021-05-14T12:41:40Z</time>
      </trkpt>
      <trkpt lat="43.61804" lon="3.77778">
        <ele>95</ele>
        <time>2021-05-14T12:41:41Z</time>
      </trkpt>
      <trkpt lat="43.61804" lon="3.77774">
        <ele>95</ele>
        <time>2021-05-14T12:41:42Z</time>
      </trkpt>
      <trkpt lat="43.61805" lon="3.7777">
        <ele>95</ele>
        <time>2021-05-14T12:41:43Z</time>
      </trkpt>
      <trkpt lat="43.61806" lon="3.77766">
        <ele>95</ele>
        <time>2021-05-14T12:41:44Z</time>
      </trkpt>
      <trkpt lat="43.61807" lon="3.77762">
        <ele>97</ele>
        <time>2021-05-14T12:41:45Z</time>
      </trkpt>
      <trkpt lat="43.61808" lon="3.77758">
        <ele>97</ele>
        <time>2021-05-14T12:41:46Z</time>
      </trkpt>
      <trkpt lat="43.61809" lon="3.77755">
        <ele>97</ele>
        <time>2021-05-14T12:41:47Z</time>
      </trkpt>
      <trkpt lat="43.6181" lon="3.77751">
        <ele>97</ele>
        <time>2021-05-14T12:41:48Z</time>
      </trkpt>
      <trkpt lat="43.61811" lon="3.77747">
        <ele>97</ele>
        <time>2021-05-14T12:41:49Z</time>
      </trkpt>
      <trkpt lat="43.61812" lon="3.77743">
        <ele>97</ele>
        <time>2021-05-14T12:41:50Z</time>
      </trkpt>
      <trkpt lat="43.61813" lon="3.77739">
        <ele>97</ele>
        <time>2021-05-14T12:41:51Z</time>
      </trkpt>
      <trkpt lat="43.61814" lon="3.77735">
        <ele>97</ele>
        <time>2021-05-14T12:41:52Z</time>
      </trkpt>
      <trkpt lat="43.61815" lon="3.77732">
        <ele>97</ele>
        <time>2021-05-14T12:41:53Z</time>
      </trkpt>
      <trkpt lat="43.61816" lon="3.77728">
        <ele>97</ele>
        <time>2021-05-14T12:41:54Z</time>
      </trkpt>
      <trkpt lat="43.61817" lon="3.77724">
        <ele>97</ele>
        <time>2021-05-14T12:41:55Z</time>
      </trkpt>
      <trkpt lat="43.61818" lon="3.77721">
        <ele>97</ele>
        <time>2021-05-14T12:41:56Z</time>
      </trkpt>
      <trkpt lat="43.6182" lon="3.77718">
        <ele>97</ele>
        <time>2021-05-14T12:41:57Z</time>
      </trkpt>
      <trkpt lat="43.61821" lon="3.77714">
        <ele>97</ele>
        <time>2021-05-14T12:41:58Z</time>
      </trkpt>
      <trkpt lat="43.61822" lon="3.77711">
        <ele>97</ele>
        <time>2021-05-14T12:41:59Z</time>
      </trkpt>
      <trkpt lat="43.61823" lon="3.77707">
        <ele>97</ele>
        <time>2021-05-14T12:42:00Z</time>
      </trkpt>
      <trkpt lat="43.61824" lon="3.77704">
        <ele>97</ele>
        <time>2021-05-14T12:42:01Z</time>
      </trkpt>
      <trkpt lat="43.61825" lon="3.777">
        <ele>97</ele>
        <time>2021-05-14T12:42:02Z</time>
      </trkpt>
      <trkpt lat="43.61827" lon="3.77696">
        <ele>97</ele>
        <time>2021-05-14T12:42:03Z</time>
      </trkpt>
      <trkpt lat="43.61827" lon="3.77693">
        <ele>97</ele>
        <time>2021-05-14T12:42:04Z</time>
      </trkpt>
      <trkpt lat="43.61828" lon="3.77689">
        <ele>98</ele>
        <time>2021-05-14T12:42:05Z</time>
      </trkpt>
      <trkpt lat="43.6183" lon="3.77681">
        <ele>98</ele>
        <time>2021-05-14T12:42:07Z</time>
      </trkpt>
      <trkpt lat="43.6183" lon="3.77677">
        <ele>98</ele>
        <time>2021-05-14T12:42:08Z</time>
      </trkpt>
      <trkpt lat="43.61831" lon="3.77673">
        <ele>98</ele>
        <time>2021-05-14T12:42:09Z</time>
      </trkpt>
      <trkpt lat="43.61831" lon="3.77669">
        <ele>98</ele>
        <time>2021-05-14T12:42:10Z</time>
      </trkpt>
      <trkpt lat="43.61832" lon="3.77665">
        <ele>98</ele>
        <time>2021-05-14T12:42:11Z</time>
      </trkpt>
      <trkpt lat="43.61833" lon="3.77661">
        <ele>98</ele>
        <time>2021-05-14T12:42:12Z</time>
      </trkpt>
      <trkpt lat="43.61835" lon="3.77657">
        <ele>98</ele>
        <time>2021-05-14T12:42:13Z</time>
      </trkpt>
      <trkpt lat="43.61836" lon="3.77653">
        <ele>98</ele>
        <time>2021-05-14T12:42:14Z</time>
      </trkpt>
      <trkpt lat="43.61837" lon="3.77649">
        <ele>99</ele>
        <time>2021-05-14T12:42:15Z</time>
      </trkpt>
      <trkpt lat="43.61838" lon="3.77645">
        <ele>99</ele>
        <time>2021-05-14T12:42:16Z</time>
      </trkpt>
      <trkpt lat="43.61839" lon="3.77643">
        <ele>99</ele>
        <time>2021-05-14T12:42:17Z</time>
      </trkpt>
      <trkpt lat="43.6184" lon="3.7764">
        <ele>99</ele>
        <time>2021-05-14T12:42:18Z</time>
      </trkpt>
      <trkpt lat="43.61841" lon="3.77637">
        <ele>99</ele>
        <time>2021-05-14T12:42:19Z</time>
      </trkpt>
      <trkpt lat="43.61842" lon="3.77634">
        <ele>99</ele>
        <time>2021-05-14T12:42:20Z</time>
      </trkpt>
      <trkpt lat="43.61843" lon="3.77631">
        <ele>99</ele>
        <time>2021-05-14T12:42:21Z</time>
      </trkpt>
      <trkpt lat="43.61844" lon="3.77628">
        <ele>99</ele>
        <time>2021-05-14T12:42:22Z</time>
      </trkpt>
      <trkpt lat="43.61845" lon="3.77625">
        <ele>99</ele>
        <time>2021-05-14T12:42:23Z</time>
      </trkpt>
      <trkpt lat="43.61846" lon="3.77622">
        <ele>99</ele>
        <time>2021-05-14T12:42:24Z</time>
      </trkpt>
      <trkpt lat="43.61847" lon="3.77618">
        <ele>99</ele>
        <time>2021-05-14T12:42:25Z</time>
      </trkpt>
      <trkpt lat="43.61848" lon="3.77615">
        <ele>99</ele>
        <time>2021-05-14T12:42:26Z</time>
      </trkpt>
      <trkpt lat="43.61849" lon="3.77611">
        <ele>99</ele>
        <time>2021-05-14T12:42:27Z</time>
      </trkpt>
      <trkpt lat="43.6185" lon="3.77607">
        <ele>99</ele>
        <time>2021-05-14T12:42:28Z</time>
      </trkpt>
      <trkpt lat="43.61851" lon="3.77604">
        <ele>99</ele>
        <time>2021-05-14T12:42:29Z</time>
      </trkpt>
      <trkpt lat="43.61852" lon="3.77601">
        <ele>99</ele>
        <time>2021-05-14T12:42:30Z</time>
      </trkpt>
      <trkpt lat="43.61853" lon="3.77597">
        <ele>99</ele>
        <time>2021-05-14T12:42:31Z</time>
      </trkpt>
      <trkpt lat="43.61855" lon="3.7759">
        <ele>99</ele>
        <time>2021-05-14T12:42:33Z</time>
      </trkpt>
      <trkpt lat="43.61856" lon="3.77587">
        <ele>99</ele>
        <time>2021-05-14T12:42:34Z</time>
      </trkpt>
      <trkpt lat="43.61857" lon="3.77584">
        <ele>100</ele>
        <time>2021-05-14T12:42:35Z</time>
      </trkpt>
      <trkpt lat="43.61857" lon="3.77581">
        <ele>100</ele>
        <time>2021-05-14T12:42:36Z</time>
      </trkpt>
      <trkpt lat="43.61858" lon="3.77577">
        <ele>100</ele>
        <time>2021-05-14T12:42:37Z</time>
      </trkpt>
      <trkpt lat="43.61859" lon="3.77574">
        <ele>100</ele>
        <time>2021-05-14T12:42:38Z</time>
      </trkpt>
      <trkpt lat="43.6186" lon="3.77572">
        <ele>100</ele>
        <time>2021-05-14T12:42:39Z</time>
      </trkpt>
      <trkpt lat="43.61861" lon="3.77568">
        <ele>100</ele>
        <time>2021-05-14T12:42:40Z</time>
      </trkpt>
      <trkpt lat="43.61862" lon="3.77565">
        <ele>100</ele>
        <time>2021-05-14T12:42:41Z</time>
      </trkpt>
      <trkpt lat="43.61863" lon="3.77562">
        <ele>100</ele>
        <time>2021-05-14T12:42:42Z</time>
      </trkpt>
      <trkpt lat="43.61864" lon="3.77559">
        <ele>100</ele>
        <time>2021-05-14T12:42:43Z</time>
      </trkpt>
      <trkpt lat="43.61866" lon="3.77555">
        <ele>100</ele>
        <time>2021-05-14T12:42:44Z</time>
      </trkpt>
      <trkpt lat="43.61866" lon="3.77552">
        <ele>100</ele>
        <time>2021-05-14T12:42:45Z</time>
      </trkpt>
      <trkpt lat="43.61867" lon="3.77548">
        <ele>100</ele>
        <time>2021-05-14T12:42:46Z</time>
      </trkpt>
      <trkpt lat="43.61868" lon="3.77544">
        <ele>100</ele>
        <time>2021-05-14T12:42:47Z</time>
      </trkpt>
      <trkpt lat="43.6187" lon="3.77541">
        <ele>100</ele>
        <time>2021-05-14T12:42:48Z</time>
      </trkpt>
      <trkpt lat="43.61871" lon="3.77537">
        <ele>100</ele>
        <time>2021-05-14T12:42:49Z</time>
      </trkpt>
      <trkpt lat="43.61872" lon="3.77534">
        <ele>100</ele>
        <time>2021-05-14T12:42:50Z</time>
      </trkpt>
      <trkpt lat="43.61873" lon="3.7753">
        <ele>100</ele>
        <time>2021-05-14T12:42:51Z</time>
      </trkpt>
      <trkpt lat="43.61874" lon="3.77527">
        <ele>100</ele>
        <time>2021-05-14T12:42:52Z</time>
      </trkpt>
      <trkpt lat="43.61875" lon="3.77523">
        <ele>100</ele>
        <time>2021-05-14T12:42:53Z</time>
      </trkpt>
      <trkpt lat="43.61877" lon="3.7752">
        <ele>100</ele>
        <time>2021-05-14T12:42:54Z</time>
      </trkpt>
      <trkpt lat="43.61878" lon="3.77516">
        <ele>101</ele>
        <time>2021-05-14T12:42:55Z</time>
      </trkpt>
      <trkpt lat="43.61879" lon="3.77513">
        <ele>101</ele>
        <time>2021-05-14T12:42:56Z</time>
      </trkpt>
      <trkpt lat="43.6188" lon="3.77509">
        <ele>101</ele>
        <time>2021-05-14T12:42:57Z</time>
      </trkpt>
      <trkpt lat="43.61881" lon="3.77505">
        <ele>101</ele>
        <time>2021-05-14T12:42:58Z</time>
      </trkpt>
      <trkpt lat="43.61882" lon="3.77502">
        <ele>101</ele>
        <time>2021-05-14T12:42:59Z</time>
      </trkpt>
      <trkpt lat="43.61883" lon="3.77498">
        <ele>101</ele>
        <time>2021-05-14T12:43:00Z</time>
      </trkpt>
      <trkpt lat="43.61884" lon="3.77494">
        <ele>101</ele>
        <time>2021-05-14T12:43:01Z</time>
      </trkpt>
      <trkpt lat="43.61886" lon="3.77487">
        <ele>101</ele>
        <time>2021-05-14T12:43:03Z</time>
      </trkpt>
      <trkpt lat="43.61887" lon="3.77483">
        <ele>101</ele>
        <time>2021-05-14T12:43:04Z</time>
      </trkpt>
      <trkpt lat="43.61888" lon="3.7748">
        <ele>101</ele>
        <time>2021-05-14T12:43:05Z</time>
      </trkpt>
      <trkpt lat="43.61889" lon="3.77476">
        <ele>101</ele>
        <time>2021-05-14T12:43:06Z</time>
      </trkpt>
      <trkpt lat="43.6189" lon="3.77472">
        <ele>101</ele>
        <time>2021-05-14T12:43:07Z</time>
      </trkpt>
      <trkpt lat="43.61892" lon="3.77469">
        <ele>101</ele>
        <time>2021-05-14T12:43:08Z</time>
      </trkpt>
      <trkpt lat="43.61893" lon="3.77465">
        <ele>101</ele>
        <time>2021-05-14T12:43:09Z</time>
      </trkpt>
      <trkpt lat="43.61894" lon="3.77462">
        <ele>101</ele>
        <time>2021-05-14T12:43:10Z</time>
      </trkpt>
      <trkpt lat="43.61895" lon="3.77458">
        <ele>101</ele>
        <time>2021-05-14T12:43:11Z</time>
      </trkpt>
      <trkpt lat="43.61897" lon="3.77454">
        <ele>101</ele>
        <time>2021-05-14T12:43:12Z</time>
      </trkpt>
      <trkpt lat="43.61898" lon="3.77451">
        <ele>101</ele>
        <time>2021-05-14T12:43:13Z</time>
      </trkpt>
      <trkpt lat="43.61899" lon="3.77447">
        <ele>101</ele>
        <time>2021-05-14T12:43:14Z</time>
      </trkpt>
      <trkpt lat="43.61901" lon="3.77444">
        <ele>102</ele>
        <time>2021-05-14T12:43:15Z</time>
      </trkpt>
      <trkpt lat="43.61902" lon="3.77441">
        <ele>102</ele>
        <time>2021-05-14T12:43:16Z</time>
      </trkpt>
      <trkpt lat="43.61902" lon="3.77438">
        <ele>102</ele>
        <time>2021-05-14T12:43:17Z</time>
      </trkpt>
      <trkpt lat="43.61902" lon="3.77435">
        <ele>102</ele>
        <time>2021-05-14T12:43:18Z</time>
      </trkpt>
      <trkpt lat="43.61903" lon="3.77431">
        <ele>102</ele>
        <time>2021-05-14T12:43:19Z</time>
      </trkpt>
      <trkpt lat="43.61904" lon="3.77428">
        <ele>102</ele>
        <time>2021-05-14T12:43:20Z</time>
      </trkpt>
      <trkpt lat="43.61906" lon="3.77426">
        <ele>102</ele>
        <time>2021-05-14T12:43:21Z</time>
      </trkpt>
      <trkpt lat="43.61908" lon="3.77423">
        <ele>102</ele>
        <time>2021-05-14T12:43:22Z</time>
      </trkpt>
      <trkpt lat="43.61909" lon="3.77419">
        <ele>102</ele>
        <time>2021-05-14T12:43:23Z</time>
      </trkpt>
      <trkpt lat="43.6191" lon="3.77416">
        <ele>102</ele>
        <time>2021-05-14T12:43:24Z</time>
      </trkpt>
      <trkpt lat="43.61911" lon="3.77412">
        <ele>103</ele>
        <time>2021-05-14T12:43:25Z</time>
      </trkpt>
      <trkpt lat="43.61913" lon="3.77409">
        <ele>103</ele>
        <time>2021-05-14T12:43:26Z</time>
      </trkpt>
      <trkpt lat="43.61916" lon="3.77402">
        <ele>103</ele>
        <time>2021-05-14T12:43:28Z</time>
      </trkpt>
      <trkpt lat="43.61918" lon="3.77398">
        <ele>103</ele>
        <time>2021-05-14T12:43:29Z</time>
      </trkpt>
      <trkpt lat="43.61919" lon="3.77395">
        <ele>103</ele>
        <time>2021-05-14T12:43:30Z</time>
      </trkpt>
      <trkpt lat="43.6192" lon="3.77391">
        <ele>103</ele>
        <time>2021-05-14T12:43:31Z</time>
      </trkpt>
      <trkpt lat="43.61921" lon="3.77388">
        <ele>103</ele>
        <time>2021-05-14T12:43:32Z</time>
      </trkpt>
      <trkpt lat="43.61923" lon="3.77385">
        <ele>103</ele>
        <time>2021-05-14T12:43:33Z</time>
      </trkpt>
      <trkpt lat="43.61924" lon="3.77381">
        <ele>103</ele>
        <time>2021-05-14T12:43:34Z</time>
      </trkpt>
      <trkpt lat="43.61925" lon="3.77378">
        <ele>103</ele>
        <time>2021-05-14T12:43:35Z</time>
      </trkpt>
      <trkpt lat="43.61927" lon="3.77374">
        <ele>103</ele>
        <time>2021-05-14T12:43:36Z</time>
      </trkpt>
      <trkpt lat="43.61928" lon="3.77371">
        <ele>103</ele>
        <time>2021-05-14T12:43:37Z</time>
      </trkpt>
      <trkpt lat="43.61929" lon="3.77367">
        <ele>103</ele>
        <time>2021-05-14T12:43:38Z</time>
      </trkpt>
      <trkpt lat="43.61931" lon="3.77364">
        <ele>103</ele>
        <time>2021-05-14T12:43:39Z</time>
      </trkpt>
      <trkpt lat="43.61932" lon="3.7736">
        <ele>103</ele>
        <time>2021-05-14T12:43:40Z</time>
      </trkpt>
      <trkpt lat="43.61933" lon="3.77357">
        <ele>103</ele>
        <time>2021-05-14T12:43:41Z</time>
      </trkpt>
      <trkpt lat="43.61935" lon="3.77353">
        <ele>103</ele>
        <time>2021-05-14T12:43:42Z</time>
      </trkpt>
      <trkpt lat="43.61936" lon="3.7735">
        <ele>103</ele>
        <time>2021-05-14T12:43:43Z</time>
      </trkpt>
      <trkpt lat="43.61937" lon="3.77347">
        <ele>103</ele>
        <time>2021-05-14T12:43:44Z</time>
      </trkpt>
      <trkpt lat="43.61939" lon="3.77343">
        <ele>105</ele>
        <time>2021-05-14T12:43:45Z</time>
      </trkpt>
      <trkpt lat="43.6194" lon="3.7734">
        <ele>105</ele>
        <time>2021-05-14T12:43:46Z</time>
      </trkpt>
      <trkpt lat="43.61941" lon="3.77337">
        <ele>105</ele>
        <time>2021-05-14T12:43:47Z</time>
      </trkpt>
      <trkpt lat="43.61944" lon="3.77329">
        <ele>105</ele>
        <time>2021-05-14T12:43:49Z</time>
      </trkpt>
      <trkpt lat="43.61945" lon="3.77326">
        <ele>105</ele>
        <time>2021-05-14T12:43:50Z</time>
      </trkpt>
      <trkpt lat="43.61947" lon="3.77322">
        <ele>105</ele>
        <time>2021-05-14T12:43:51Z</time>
      </trkpt>
      <trkpt lat="43.6195" lon="3.77314">
        <ele>105</ele>
        <time>2021-05-14T12:43:53Z</time>
      </trkpt>
      <trkpt lat="43.61952" lon="3.7731">
        <ele>105</ele>
        <time>2021-05-14T12:43:54Z</time>
      </trkpt>
      <trkpt lat="43.61953" lon="3.77307">
        <ele>106</ele>
        <time>2021-05-14T12:43:55Z</time>
      </trkpt>
      <trkpt lat="43.61955" lon="3.77303">
        <ele>106</ele>
        <time>2021-05-14T12:43:56Z</time>
      </trkpt>
      <trkpt lat="43.61957" lon="3.773">
        <ele>106</ele>
        <time>2021-05-14T12:43:57Z</time>
      </trkpt>
      <trkpt lat="43.61958" lon="3.77296">
        <ele>106</ele>
        <time>2021-05-14T12:43:58Z</time>
      </trkpt>
      <trkpt lat="43.6196" lon="3.77293">
        <ele>106</ele>
        <time>2021-05-14T12:43:59Z</time>
      </trkpt>
      <trkpt lat="43.61961" lon="3.77289">
        <ele>106</ele>
        <time>2021-05-14T12:44:00Z</time>
      </trkpt>
      <trkpt lat="43.61963" lon="3.77286">
        <ele>106</ele>
        <time>2021-05-14T12:44:01Z</time>
      </trkpt>
      <trkpt lat="43.61964" lon="3.77282">
        <ele>106</ele>
        <time>2021-05-14T12:44:02Z</time>
      </trkpt>
      <trkpt lat="43.61966" lon="3.77278">
        <ele>106</ele>
        <time>2021-05-14T12:44:03Z</time>
      </trkpt>
      <trkpt lat="43.61967" lon="3.77275">
        <ele>106</ele>
        <time>2021-05-14T12:44:04Z</time>
      </trkpt>
      <trkpt lat="43.61969" lon="3.77272">
        <ele>107</ele>
        <time>2021-05-14T12:44:05Z</time>
      </trkpt>
      <trkpt lat="43.6197" lon="3.77268">
        <ele>107</ele>
        <time>2021-05-14T12:44:06Z</time>
      </trkpt>
      <trkpt lat="43.61972" lon="3.77265">
        <ele>107</ele>
        <time>2021-05-14T12:44:07Z</time>
      </trkpt>
      <trkpt lat="43.61973" lon="3.77261">
        <ele>107</ele>
        <time>2021-05-14T12:44:08Z</time>
      </trkpt>
      <trkpt lat="43.61974" lon="3.77258">
        <ele>107</ele>
        <time>2021-05-14T12:44:09Z</time>
      </trkpt>
      <trkpt lat="43.61975" lon="3.77254">
        <ele>107</ele>
        <time>2021-05-14T12:44:10Z</time>
      </trkpt>
      <trkpt lat="43.61977" lon="3.77251">
        <ele>107</ele>
        <time>2021-05-14T12:44:11Z</time>
      </trkpt>
      <trkpt lat="43.61978" lon="3.77247">
        <ele>107</ele>
        <time>2021-05-14T12:44:12Z</time>
      </trkpt>
      <trkpt lat="43.61979" lon="3.77244">
        <ele>107</ele>
        <time>2021-05-14T12:44:13Z</time>
      </trkpt>
      <trkpt lat="43.61981" lon="3.77241">
        <ele>107</ele>
        <time>2021-05-14T12:44:14Z</time>
      </trkpt>
      <trkpt lat="43.61983" lon="3.77238">
        <ele>108</ele>
        <time>2021-05-14T12:44:15Z</time>
      </trkpt>
      <trkpt lat="43.61984" lon="3.77235">
        <ele>108</ele>
        <time>2021-05-14T12:44:16Z</time>
      </trkpt>
      <trkpt lat="43.61985" lon="3.77231">
        <ele>108</ele>
        <time>2021-05-14T12:44:17Z</time>
      </trkpt>
      <trkpt lat="43.61987" lon="3.77228">
        <ele>108</ele>
        <time>2021-05-14T12:44:18Z</time>
      </trkpt>
      <trkpt lat="43.61988" lon="3.77224">
        <ele>108</ele>
        <time>2021-05-14T12:44:19Z</time>
      </trkpt>
      <trkpt lat="43.61989" lon="3.7722">
        <ele>108</ele>
        <time>2021-05-14T12:44:20Z</time>
      </trkpt>
      <trkpt lat="43.61991" lon="3.77217">
        <ele>108</ele>
        <time>2021-05-14T12:44:21Z</time>
      </trkpt>
      <trkpt lat="43.61992" lon="3.77213">
        <ele>108</ele>
        <time>2021-05-14T12:44:22Z</time>
      </trkpt>
      <trkpt lat="43.61994" lon="3.7721">
        <ele>108</ele>
        <time>2021-05-14T12:44:23Z</time>
      </trkpt>
      <trkpt lat="43.61995" lon="3.77207">
        <ele>108</ele>
        <time>2021-05-14T12:44:24Z</time>
      </trkpt>
      <trkpt lat="43.61997" lon="3.77203">
        <ele>109</ele>
        <time>2021-05-14T12:44:25Z</time>
      </trkpt>
      <trkpt lat="43.61998" lon="3.772">
        <ele>109</ele>
        <time>2021-05-14T12:44:26Z</time>
      </trkpt>
      <trkpt lat="43.61999" lon="3.77196">
        <ele>109</ele>
        <time>2021-05-14T12:44:27Z</time>
      </trkpt>
      <trkpt lat="43.62001" lon="3.77193">
        <ele>109</ele>
        <time>2021-05-14T12:44:28Z</time>
      </trkpt>
      <trkpt lat="43.62002" lon="3.77189">
        <ele>109</ele>
        <time>2021-05-14T12:44:29Z</time>
      </trkpt>
      <trkpt lat="43.62003" lon="3.77185">
        <ele>109</ele>
        <time>2021-05-14T12:44:30Z</time>
      </trkpt>
      <trkpt lat="43.62004" lon="3.77181">
        <ele>109</ele>
        <time>2021-05-14T12:44:31Z</time>
      </trkpt>
      <trkpt lat="43.62006" lon="3.77178">
        <ele>109</ele>
        <time>2021-05-14T12:44:32Z</time>
      </trkpt>
      <trkpt lat="43.62008" lon="3.77174">
        <ele>109</ele>
        <time>2021-05-14T12:44:33Z</time>
      </trkpt>
      <trkpt lat="43.62009" lon="3.77171">
        <ele>109</ele>
        <time>2021-05-14T12:44:34Z</time>
      </trkpt>
      <trkpt lat="43.62011" lon="3.77167">
        <ele>109</ele>
        <time>2021-05-14T12:44:35Z</time>
      </trkpt>
      <trkpt lat="43.62012" lon="3.77164">
        <ele>109</ele>
        <time>2021-05-14T12:44:36Z</time>
      </trkpt>
      <trkpt lat="43.62014" lon="3.7716">
        <ele>109</ele>
        <time>2021-05-14T12:44:37Z</time>
      </trkpt>
      <trkpt lat="43.62016" lon="3.77156">
        <ele>109</ele>
        <time>2021-05-14T12:44:38Z</time>
      </trkpt>
      <trkpt lat="43.62017" lon="3.77153">
        <ele>109</ele>
        <time>2021-05-14T12:44:39Z</time>
      </trkpt>
      <trkpt lat="43.62019" lon="3.77149">
        <ele>109</ele>
        <time>2021-05-14T12:44:40Z</time>
      </trkpt>
      <trkpt lat="43.62021" lon="3.77145">
        <ele>109</ele>
        <time>2021-05-14T12:44:41Z</time>
      </trkpt>
      <trkpt lat="43.62022" lon="3.77141">
        <ele>109</ele>
        <time>2021-05-14T12:44:42Z</time>
      </trkpt>
      <trkpt lat="43.62024" lon="3.77137">
        <ele>109</ele>
        <time>2021-05-14T12:44:43Z</time>
      </trkpt>
      <trkpt lat="43.62025" lon="3.77133">
        <ele>109</ele>
        <time>2021-05-14T12:44:44Z</time>
      </trkpt>
      <trkpt lat="43.62027" lon="3.77129">
        <ele>109</ele>
        <time>2021-05-14T12:44:45Z</time>
      </trkpt>
      <trkpt lat="43.62029" lon="3.77126">
        <ele>109</ele>
        <time>2021-05-14T12:44:46Z</time>
      </trkpt>
      <trkpt lat="43.6203" lon="3.77122">
        <ele>109</ele>
        <time>2021-05-14T12:44:47Z</time>
      </trkpt>
      <trkpt lat="43.62032" lon="3.77118">
        <ele>109</ele>
        <time>2021-05-14T12:44:48Z</time>
      </trkpt>
      <trkpt lat="43.62034" lon="3.77114">
        <ele>109</ele>
        <time>2021-05-14T12:44:49Z</time>
      </trkpt>
      <trkpt lat="43.62036" lon="3.7711">
        <ele>109</ele>
        <time>2021-05-14T12:44:50Z</time>
      </trkpt>
      <trkpt lat="43.62039" lon="3.77102">
        <ele>109</ele>
        <time>2021-05-14T12:44:52Z</time>
      </trkpt>
      <trkpt lat="43.6204" lon="3.77099">
        <ele>109</ele>
        <time>2021-05-14T12:44:53Z</time>
      </trkpt>
      <trkpt lat="43.62042" lon="3.77095">
        <ele>109</ele>
        <time>2021-05-14T12:44:54Z</time>
      </trkpt>
      <trkpt lat="43.62044" lon="3.77091">
        <ele>109</ele>
        <time>2021-05-14T12:44:55Z</time>
      </trkpt>
      <trkpt lat="43.62046" lon="3.77088">
        <ele>109</ele>
        <time>2021-05-14T12:44:56Z</time>
      </trkpt>
      <trkpt lat="43.62047" lon="3.77084">
        <ele>109</ele>
        <time>2021-05-14T12:44:57Z</time>
      </trkpt>
      <trkpt lat="43.62048" lon="3.77081">
        <ele>109</ele>
        <time>2021-05-14T12:44:58Z</time>
      </trkpt>
      <trkpt lat="43.6205" lon="3.77077">
        <ele>109</ele>
        <time>2021-05-14T12:44:59Z</time>
      </trkpt>
      <trkpt lat="43.62051" lon="3.77073">
        <ele>109</ele>
        <time>2021-05-14T12:45:00Z</time>
      </trkpt>
      <trkpt lat="43.62053" lon="3.7707">
        <ele>109</ele>
        <time>2021-05-14T12:45:01Z</time>
      </trkpt>
      <trkpt lat="43.62054" lon="3.77066">
        <ele>109</ele>
        <time>2021-05-14T12:45:02Z</time>
      </trkpt>
      <trkpt lat="43.62056" lon="3.77063">
        <ele>109</ele>
        <time>2021-05-14T12:45:03Z</time>
      </trkpt>
      <trkpt lat="43.62057" lon="3.77059">
        <ele>109</ele>
        <time>2021-05-14T12:45:04Z</time>
      </trkpt>
      <trkpt lat="43.62059" lon="3.77055">
        <ele>109</ele>
        <time>2021-05-14T12:45:05Z</time>
      </trkpt>
      <trkpt lat="43.6206" lon="3.77052">
        <ele>109</ele>
        <time>2021-05-14T12:45:06Z</time>
      </trkpt>
      <trkpt lat="43.62062" lon="3.77048">
        <ele>109</ele>
        <time>2021-05-14T12:45:07Z</time>
      </trkpt>
      <trkpt lat="43.62064" lon="3.77044">
        <ele>109</ele>
        <time>2021-05-14T12:45:08Z</time>
      </trkpt>
      <trkpt lat="43.62065" lon="3.77041">
        <ele>109</ele>
        <time>2021-05-14T12:45:09Z</time>
      </trkpt>
      <trkpt lat="43.62067" lon="3.77037">
        <ele>109</ele>
        <time>2021-05-14T12:45:10Z</time>
      </trkpt>
      <trkpt lat="43.62068" lon="3.77033">
        <ele>109</ele>
        <time>2021-05-14T12:45:11Z</time>
      </trkpt>
      <trkpt lat="43.6207" lon="3.77029">
        <ele>109</ele>
        <time>2021-05-14T12:45:12Z</time>
      </trkpt>
      <trkpt lat="43.62071" lon="3.77025">
        <ele>109</ele>
        <time>2021-05-14T12:45:13Z</time>
      </trkpt>
      <trkpt lat="43.62073" lon="3.77021">
        <ele>109</ele>
        <time>2021-05-14T12:45:14Z</time>
      </trkpt>
      <trkpt lat="43.62074" lon="3.77017">
        <ele>110</ele>
        <time>2021-05-14T12:45:15Z</time>
      </trkpt>
      <trkpt lat="43.62076" lon="3.77013">
        <ele>110</ele>
        <time>2021-05-14T12:45:16Z</time>
      </trkpt>
      <trkpt lat="43.62077" lon="3.77009">
        <ele>110</ele>
        <time>2021-05-14T12:45:17Z</time>
      </trkpt>
      <trkpt lat="43.62079" lon="3.77005">
        <ele>110</ele>
        <time>2021-05-14T12:45:18Z</time>
      </trkpt>
      <trkpt lat="43.62081" lon="3.77001">
        <ele>110</ele>
        <time>2021-05-14T12:45:19Z</time>
      </trkpt>
      <trkpt lat="43.62082" lon="3.76998">
        <ele>110</ele>
        <time>2021-05-14T12:45:20Z</time>
      </trkpt>
      <trkpt lat="43.62084" lon="3.76994">
        <ele>110</ele>
        <time>2021-05-14T12:45:21Z</time>
      </trkpt>
      <trkpt lat="43.62085" lon="3.7699">
        <ele>110</ele>
        <time>2021-05-14T12:45:22Z</time>
      </trkpt>
      <trkpt lat="43.62087" lon="3.76986">
        <ele>110</ele>
        <time>2021-05-14T12:45:23Z</time>
      </trkpt>
      <trkpt lat="43.62089" lon="3.76982">
        <ele>110</ele>
        <time>2021-05-14T12:45:24Z</time>
      </trkpt>
      <trkpt lat="43.62091" lon="3.76978">
        <ele>111</ele>
        <time>2021-05-14T12:45:25Z</time>
      </trkpt>
      <trkpt lat="43.62093" lon="3.76975">
        <ele>111</ele>
        <time>2021-05-14T12:45:26Z</time>
      </trkpt>
      <trkpt lat="43.62094" lon="3.76971">
        <ele>111</ele>
        <time>2021-05-14T12:45:27Z</time>
      </trkpt>
      <trkpt lat="43.62096" lon="3.76967">
        <ele>111</ele>
        <time>2021-05-14T12:45:28Z</time>
      </trkpt>
      <trkpt lat="43.62097" lon="3.76964">
        <ele>111</ele>
        <time>2021-05-14T12:45:29Z</time>
      </trkpt>
      <trkpt lat="43.62099" lon="3.7696">
        <ele>111</ele>
        <time>2021-05-14T12:45:30Z</time>
      </trkpt>
      <trkpt lat="43.621" lon="3.76956">
        <ele>111</ele>
        <time>2021-05-14T12:45:31Z</time>
      </trkpt>
      <trkpt lat="43.62102" lon="3.76953">
        <ele>111</ele>
        <time>2021-05-14T12:45:32Z</time>
      </trkpt>
      <trkpt lat="43.62105" lon="3.76945">
        <ele>111</ele>
        <time>2021-05-14T12:45:34Z</time>
      </trkpt>
      <trkpt lat="43.62107" lon="3.76942">
        <ele>112</ele>
        <time>2021-05-14T12:45:35Z</time>
      </trkpt>
      <trkpt lat="43.62108" lon="3.76938">
        <ele>112</ele>
        <time>2021-05-14T12:45:36Z</time>
      </trkpt>
      <trkpt lat="43.6211" lon="3.76935">
        <ele>112</ele>
        <time>2021-05-14T12:45:37Z</time>
      </trkpt>
      <trkpt lat="43.62112" lon="3.76931">
        <ele>112</ele>
        <time>2021-05-14T12:45:38Z</time>
      </trkpt>
      <trkpt lat="43.62114" lon="3.76928">
        <ele>112</ele>
        <time>2021-05-14T12:45:39Z</time>
      </trkpt>
      <trkpt lat="43.62115" lon="3.76924">
        <ele>112</ele>
        <time>2021-05-14T12:45:40Z</time>
      </trkpt>
      <trkpt lat="43.62116" lon="3.7692">
        <ele>112</ele>
        <time>2021-05-14T12:45:41Z</time>
      </trkpt>
      <trkpt lat="43.62117" lon="3.76916">
        <ele>112</ele>
        <time>2021-05-14T12:45:42Z</time>
      </trkpt>
      <trkpt lat="43.62118" lon="3.76912">
        <ele>112</ele>
        <time>2021-05-14T12:45:43Z</time>
      </trkpt>
      <trkpt lat="43.6212" lon="3.76908">
        <ele>112</ele>
        <time>2021-05-14T12:45:44Z</time>
      </trkpt>
      <trkpt lat="43.62121" lon="3.76904">
        <ele>114</ele>
        <time>2021-05-14T12:45:45Z</time>
      </trkpt>
      <trkpt lat="43.62122" lon="3.76901">
        <ele>114</ele>
        <time>2021-05-14T12:45:46Z</time>
      </trkpt>
      <trkpt lat="43.62123" lon="3.76897">
        <ele>114</ele>
        <time>2021-05-14T12:45:47Z</time>
      </trkpt>
      <trkpt lat="43.62124" lon="3.76893">
        <ele>114</ele>
        <time>2021-05-14T12:45:48Z</time>
      </trkpt>
      <trkpt lat="43.62125" lon="3.76889">
        <ele>114</ele>
        <time>2021-05-14T12:45:49Z</time>
      </trkpt>
      <trkpt lat="43.62127" lon="3.76885">
        <ele>114</ele>
        <time>2021-05-14T12:45:50Z</time>
      </trkpt>
      <trkpt lat="43.62128" lon="3.76882">
        <ele>114</ele>
        <time>2021-05-14T12:45:51Z</time>
      </trkpt>
      <trkpt lat="43.62129" lon="3.76878">
        <ele>114</ele>
        <time>2021-05-14T12:45:52Z</time>
      </trkpt>
      <trkpt lat="43.62131" lon="3.76874">
        <ele>114</ele>
        <time>2021-05-14T12:45:53Z</time>
      </trkpt>
      <trkpt lat="43.62132" lon="3.7687">
        <ele>114</ele>
        <time>2021-05-14T12:45:54Z</time>
      </trkpt>
      <trkpt lat="43.62133" lon="3.76867">
        <ele>115</ele>
        <time>2021-05-14T12:45:55Z</time>
      </trkpt>
      <trkpt lat="43.62134" lon="3.76863">
        <ele>115</ele>
        <time>2021-05-14T12:45:56Z</time>
      </trkpt>
      <trkpt lat="43.62136" lon="3.76859">
        <ele>115</ele>
        <time>2021-05-14T12:45:57Z</time>
      </trkpt>
      <trkpt lat="43.62138" lon="3.76855">
        <ele>115</ele>
        <time>2021-05-14T12:45:58Z</time>
      </trkpt>
      <trkpt lat="43.62139" lon="3.76852">
        <ele>115</ele>
        <time>2021-05-14T12:45:59Z</time>
      </trkpt>
      <trkpt lat="43.6214" lon="3.76848">
        <ele>115</ele>
        <time>2021-05-14T12:46:00Z</time>
      </trkpt>
      <trkpt lat="43.62141" lon="3.76844">
        <ele>115</ele>
        <time>2021-05-14T12:46:01Z</time>
      </trkpt>
      <trkpt lat="43.62142" lon="3.7684">
        <ele>115</ele>
        <time>2021-05-14T12:46:02Z</time>
      </trkpt>
      <trkpt lat="43.62143" lon="3.76837">
        <ele>115</ele>
        <time>2021-05-14T12:46:03Z</time>
      </trkpt>
      <trkpt lat="43.62144" lon="3.76834">
        <ele>115</ele>
        <time>2021-05-14T12:46:04Z</time>
      </trkpt>
      <trkpt lat="43.62146" lon="3.7683">
        <ele>117</ele>
        <time>2021-05-14T12:46:05Z</time>
      </trkpt>
      <trkpt lat="43.62147" lon="3.76827">
        <ele>117</ele>
        <time>2021-05-14T12:46:06Z</time>
      </trkpt>
      <trkpt lat="43.62148" lon="3.76823">
        <ele>117</ele>
        <time>2021-05-14T12:46:07Z</time>
      </trkpt>
      <trkpt lat="43.62149" lon="3.7682">
        <ele>117</ele>
        <time>2021-05-14T12:46:08Z</time>
      </trkpt>
      <trkpt lat="43.6215" lon="3.76816">
        <ele>117</ele>
        <time>2021-05-14T12:46:09Z</time>
      </trkpt>
      <trkpt lat="43.62151" lon="3.76812">
        <ele>117</ele>
        <time>2021-05-14T12:46:10Z</time>
      </trkpt>
      <trkpt lat="43.62153" lon="3.76804">
        <ele>117</ele>
        <time>2021-05-14T12:46:12Z</time>
      </trkpt>
      <trkpt lat="43.62154" lon="3.768">
        <ele>117</ele>
        <time>2021-05-14T12:46:13Z</time>
      </trkpt>
      <trkpt lat="43.62155" lon="3.76796">
        <ele>117</ele>
        <time>2021-05-14T12:46:14Z</time>
      </trkpt>
      <trkpt lat="43.62156" lon="3.76792">
        <ele>117</ele>
        <time>2021-05-14T12:46:15Z</time>
      </trkpt>
      <trkpt lat="43.62157" lon="3.76787">
        <ele>117</ele>
        <time>2021-05-14T12:46:16Z</time>
      </trkpt>
      <trkpt lat="43.62158" lon="3.76783">
        <ele>117</ele>
        <time>2021-05-14T12:46:17Z</time>
      </trkpt>
      <trkpt lat="43.62159" lon="3.76779">
        <ele>117</ele>
        <time>2021-05-14T12:46:18Z</time>
      </trkpt>
      <trkpt lat="43.62161" lon="3.76775">
        <ele>117</ele>
        <time>2021-05-14T12:46:19Z</time>
      </trkpt>
      <trkpt lat="43.62162" lon="3.76772">
        <ele>117</ele>
        <time>2021-05-14T12:46:20Z</time>
      </trkpt>
      <trkpt lat="43.62163" lon="3.76767">
        <ele>117</ele>
        <time>2021-05-14T12:46:21Z</time>
      </trkpt>
      <trkpt lat="43.62164" lon="3.76763">
        <ele>117</ele>
        <time>2021-05-14T12:46:22Z</time>
      </trkpt>
      <trkpt lat="43.62165" lon="3.76759">
        <ele>117</ele>
        <time>2021-05-14T12:46:23Z</time>
      </trkpt>
      <trkpt lat="43.62166" lon="3.76755">
        <ele>117</ele>
        <time>2021-05-14T12:46:24Z</time>
      </trkpt>
      <trkpt lat="43.62167" lon="3.76751">
        <ele>117</ele>
        <time>2021-05-14T12:46:25Z</time>
      </trkpt>
      <trkpt lat="43.62168" lon="3.76747">
        <ele>117</ele>
        <time>2021-05-14T12:46:26Z</time>
      </trkpt>
      <trkpt lat="43.6217" lon="3.76743">
        <ele>117</ele>
        <time>2021-05-14T12:46:27Z</time>
      </trkpt>
      <trkpt lat="43.62171" lon="3.76739">
        <ele>117</ele>
        <time>2021-05-14T12:46:28Z</time>
      </trkpt>
      <trkpt lat="43.62172" lon="3.76735">
        <ele>117</ele>
        <time>2021-05-14T12:46:29Z</time>
      </trkpt>
      <trkpt lat="43.62173" lon="3.76731">
        <ele>117</ele>
        <time>2021-05-14T12:46:30Z</time>
      </trkpt>
      <trkpt lat="43.62174" lon="3.76727">
        <ele>117</ele>
        <time>2021-05-14T12:46:31Z</time>
      </trkpt>
      <trkpt lat="43.62176" lon="3.7672">
        <ele>117</ele>
        <time>2021-05-14T12:46:33Z</time>
      </trkpt>
      <trkpt lat="43.62177" lon="3.76716">
        <ele>117</ele>
        <time>2021-05-14T12:46:34Z</time>
      </trkpt>
      <trkpt lat="43.62178" lon="3.76712">
        <ele>118</ele>
        <time>2021-05-14T12:46:35Z</time>
      </trkpt>
      <trkpt lat="43.62179" lon="3.76708">
        <ele>118</ele>
        <time>2021-05-14T12:46:36Z</time>
      </trkpt>
      <trkpt lat="43.6218" lon="3.76704">
        <ele>118</ele>
        <time>2021-05-14T12:46:37Z</time>
      </trkpt>
      <trkpt lat="43.62182" lon="3.767">
        <ele>118</ele>
        <time>2021-05-14T12:46:38Z</time>
      </trkpt>
      <trkpt lat="43.62183" lon="3.76696">
        <ele>118</ele>
        <time>2021-05-14T12:46:39Z</time>
      </trkpt>
      <trkpt lat="43.62184" lon="3.76692">
        <ele>118</ele>
        <time>2021-05-14T12:46:40Z</time>
      </trkpt>
      <trkpt lat="43.62185" lon="3.76688">
        <ele>118</ele>
        <time>2021-05-14T12:46:41Z</time>
      </trkpt>
      <trkpt lat="43.62187" lon="3.76684">
        <ele>118</ele>
        <time>2021-05-14T12:46:42Z</time>
      </trkpt>
      <trkpt lat="43.62188" lon="3.7668">
        <ele>118</ele>
        <time>2021-05-14T12:46:43Z</time>
      </trkpt>
      <trkpt lat="43.62189" lon="3.76676">
        <ele>118</ele>
        <time>2021-05-14T12:46:44Z</time>
      </trkpt>
      <trkpt lat="43.6219" lon="3.76672">
        <ele>119</ele>
        <time>2021-05-14T12:46:45Z</time>
      </trkpt>
      <trkpt lat="43.62192" lon="3.76667">
        <ele>119</ele>
        <time>2021-05-14T12:46:46Z</time>
      </trkpt>
      <trkpt lat="43.62193" lon="3.76663">
        <ele>119</ele>
        <time>2021-05-14T12:46:47Z</time>
      </trkpt>
      <trkpt lat="43.62194" lon="3.76659">
        <ele>119</ele>
        <time>2021-05-14T12:46:48Z</time>
      </trkpt>
      <trkpt lat="43.62196" lon="3.76655">
        <ele>119</ele>
        <time>2021-05-14T12:46:49Z</time>
      </trkpt>
      <trkpt lat="43.62197" lon="3.76651">
        <ele>119</ele>
        <time>2021-05-14T12:46:50Z</time>
      </trkpt>
      <trkpt lat="43.62198" lon="3.76647">
        <ele>119</ele>
        <time>2021-05-14T12:46:51Z</time>
      </trkpt>
      <trkpt lat="43.62199" lon="3.76643">
        <ele>119</ele>
        <time>2021-05-14T12:46:52Z</time>
      </trkpt>
      <trkpt lat="43.622" lon="3.7664">
        <ele>119</ele>
        <time>2021-05-14T12:46:53Z</time>
      </trkpt>
      <trkpt lat="43.62201" lon="3.76636">
        <ele>119</ele>
        <time>2021-05-14T12:46:54Z</time>
      </trkpt>
      <trkpt lat="43.62202" lon="3.76632">
        <ele>119</ele>
        <time>2021-05-14T12:46:55Z</time>
      </trkpt>
      <trkpt lat="43.62203" lon="3.76628">
        <ele>119</ele>
        <time>2021-05-14T12:46:56Z</time>
      </trkpt>
      <trkpt lat="43.62206" lon="3.7662">
        <ele>119</ele>
        <time>2021-05-14T12:46:58Z</time>
      </trkpt>
      <trkpt lat="43.62207" lon="3.76616">
        <ele>119</ele>
        <time>2021-05-14T12:46:59Z</time>
      </trkpt>
      <trkpt lat="43.62208" lon="3.76612">
        <ele>119</ele>
        <time>2021-05-14T12:47:00Z</time>
      </trkpt>
      <trkpt lat="43.62209" lon="3.76608">
        <ele>119</ele>
        <time>2021-05-14T12:47:01Z</time>
      </trkpt>
      <trkpt lat="43.6221" lon="3.76604">
        <ele>119</ele>
        <time>2021-05-14T12:47:02Z</time>
      </trkpt>
      <trkpt lat="43.62211" lon="3.76599">
        <ele>119</ele>
        <time>2021-05-14T12:47:03Z</time>
      </trkpt>
      <trkpt lat="43.62212" lon="3.76595">
        <ele>119</ele>
        <time>2021-05-14T12:47:04Z</time>
      </trkpt>
      <trkpt lat="43.62213" lon="3.76591">
        <ele>119</ele>
        <time>2021-05-14T12:47:05Z</time>
      </trkpt>
      <trkpt lat="43.62214" lon="3.76586">
        <ele>119</ele>
        <time>2021-05-14T12:47:06Z</time>
      </trkpt>
      <trkpt lat="43.62215" lon="3.76582">
        <ele>119</ele>
        <time>2021-05-14T12:47:07Z</time>
      </trkpt>
      <trkpt lat="43.62216" lon="3.76578">
        <ele>119</ele>
        <time>2021-05-14T12:47:08Z</time>
      </trkpt>
      <trkpt lat="43.62217" lon="3.76574">
        <ele>119</ele>
        <time>2021-05-14T12:47:09Z</time>
      </trkpt>
      <trkpt lat="43.62218" lon="3.7657">
        <ele>119</ele>
        <time>2021-05-14T12:47:10Z</time>
      </trkpt>
      <trkpt lat="43.62219" lon="3.76566">
        <ele>119</ele>
        <time>2021-05-14T12:47:11Z</time>
      </trkpt>
      <trkpt lat="43.6222" lon="3.76562">
        <ele>119</ele>
        <time>2021-05-14T12:47:12Z</time>
      </trkpt>
      <trkpt lat="43.62221" lon="3.76558">
        <ele>119</ele>
        <time>2021-05-14T12:47:13Z</time>
      </trkpt>
      <trkpt lat="43.62222" lon="3.76554">
        <ele>119</ele>
        <time>2021-05-14T12:47:14Z</time>
      </trkpt>
      <trkpt lat="43.62223" lon="3.7655">
        <ele>120</ele>
        <time>2021-05-14T12:47:15Z</time>
      </trkpt>
      <trkpt lat="43.62223" lon="3.76546">
        <ele>120</ele>
        <time>2021-05-14T12:47:16Z</time>
      </trkpt>
      <trkpt lat="43.62224" lon="3.76542">
        <ele>120</ele>
        <time>2021-05-14T12:47:17Z</time>
      </trkpt>
      <trkpt lat="43.62226" lon="3.76539">
        <ele>120</ele>
        <time>2021-05-14T12:47:18Z</time>
      </trkpt>
      <trkpt lat="43.62226" lon="3.76534">
        <ele>120</ele>
        <time>2021-05-14T12:47:19Z</time>
      </trkpt>
      <trkpt lat="43.62227" lon="3.7653">
        <ele>120</ele>
        <time>2021-05-14T12:47:20Z</time>
      </trkpt>
      <trkpt lat="43.62228" lon="3.76526">
        <ele>120</ele>
        <time>2021-05-14T12:47:21Z</time>
      </trkpt>
      <trkpt lat="43.62229" lon="3.76522">
        <ele>120</ele>
        <time>2021-05-14T12:47:22Z</time>
      </trkpt>
      <trkpt lat="43.6223" lon="3.76518">
        <ele>120</ele>
        <time>2021-05-14T12:47:23Z</time>
      </trkpt>
      <trkpt lat="43.62231" lon="3.76513">
        <ele>120</ele>
        <time>2021-05-14T12:47:24Z</time>
      </trkpt>
      <trkpt lat="43.62232" lon="3.76509">
        <ele>121</ele>
        <time>2021-05-14T12:47:25Z</time>
      </trkpt>
      <trkpt lat="43.62233" lon="3.76505">
        <ele>121</ele>
        <time>2021-05-14T12:47:26Z</time>
      </trkpt>
      <trkpt lat="43.62234" lon="3.765">
        <ele>121</ele>
        <time>2021-05-14T12:47:27Z</time>
      </trkpt>
      <trkpt lat="43.62236" lon="3.76495">
        <ele>121</ele>
        <time>2021-05-14T12:47:28Z</time>
      </trkpt>
      <trkpt lat="43.62237" lon="3.76491">
        <ele>121</ele>
        <time>2021-05-14T12:47:29Z</time>
      </trkpt>
      <trkpt lat="43.62238" lon="3.76486">
        <ele>121</ele>
        <time>2021-05-14T12:47:30Z</time>
      </trkpt>
      <trkpt lat="43.62239" lon="3.76481">
        <ele>121</ele>
        <time>2021-05-14T12:47:31Z</time>
      </trkpt>
      <trkpt lat="43.6224" lon="3.76477">
        <ele>121</ele>
        <time>2021-05-14T12:47:32Z</time>
      </trkpt>
      <trkpt lat="43.62241" lon="3.76472">
        <ele>121</ele>
        <time>2021-05-14T12:47:33Z</time>
      </trkpt>
      <trkpt lat="43.62242" lon="3.76467">
        <ele>121</ele>
        <time>2021-05-14T12:47:34Z</time>
      </trkpt>
      <trkpt lat="43.62243" lon="3.76463">
        <ele>121</ele>
        <time>2021-05-14T12:47:35Z</time>
      </trkpt>
      <trkpt lat="43.62245" lon="3.76454">
        <ele>121</ele>
        <time>2021-05-14T12:47:37Z</time>
      </trkpt>
      <trkpt lat="43.62246" lon="3.76449">
        <ele>121</ele>
        <time>2021-05-14T12:47:38Z</time>
      </trkpt>
      <trkpt lat="43.62247" lon="3.76445">
        <ele>121</ele>
        <time>2021-05-14T12:47:39Z</time>
      </trkpt>
      <trkpt lat="43.62248" lon="3.7644">
        <ele>121</ele>
        <time>2021-05-14T12:47:40Z</time>
      </trkpt>
      <trkpt lat="43.62248" lon="3.76435">
        <ele>121</ele>
        <time>2021-05-14T12:47:41Z</time>
      </trkpt>
      <trkpt lat="43.6225" lon="3.76431">
        <ele>121</ele>
        <time>2021-05-14T12:47:42Z</time>
      </trkpt>
      <trkpt lat="43.62251" lon="3.76426">
        <ele>121</ele>
        <time>2021-05-14T12:47:43Z</time>
      </trkpt>
      <trkpt lat="43.62252" lon="3.76422">
        <ele>121</ele>
        <time>2021-05-14T12:47:44Z</time>
      </trkpt>
      <trkpt lat="43.62253" lon="3.76417">
        <ele>122</ele>
        <time>2021-05-14T12:47:45Z</time>
      </trkpt>
      <trkpt lat="43.62255" lon="3.76412">
        <ele>122</ele>
        <time>2021-05-14T12:47:46Z</time>
      </trkpt>
      <trkpt lat="43.62255" lon="3.76408">
        <ele>122</ele>
        <time>2021-05-14T12:47:47Z</time>
      </trkpt>
      <trkpt lat="43.62256" lon="3.76403">
        <ele>122</ele>
        <time>2021-05-14T12:47:48Z</time>
      </trkpt>
      <trkpt lat="43.62257" lon="3.76399">
        <ele>122</ele>
        <time>2021-05-14T12:47:49Z</time>
      </trkpt>
      <trkpt lat="43.62258" lon="3.76394">
        <ele>122</ele>
        <time>2021-05-14T12:47:50Z</time>
      </trkpt>
      <trkpt lat="43.62258" lon="3.7639">
        <ele>122</ele>
        <time>2021-05-14T12:47:51Z</time>
      </trkpt>
      <trkpt lat="43.62258" lon="3.76385">
        <ele>122</ele>
        <time>2021-05-14T12:47:52Z</time>
      </trkpt>
      <trkpt lat="43.62259" lon="3.76381">
        <ele>122</ele>
        <time>2021-05-14T12:47:53Z</time>
      </trkpt>
      <trkpt lat="43.6226" lon="3.76376">
        <ele>122</ele>
        <time>2021-05-14T12:47:54Z</time>
      </trkpt>
      <trkpt lat="43.6226" lon="3.76371">
        <ele>122</ele>
        <time>2021-05-14T12:47:55Z</time>
      </trkpt>
      <trkpt lat="43.6226" lon="3.76366">
        <ele>122</ele>
        <time>2021-05-14T12:47:56Z</time>
      </trkpt>
      <trkpt lat="43.62261" lon="3.76362">
        <ele>122</ele>
        <time>2021-05-14T12:47:57Z</time>
      </trkpt>
      <trkpt lat="43.62262" lon="3.76357">
        <ele>122</ele>
        <time>2021-05-14T12:47:58Z</time>
      </trkpt>
      <trkpt lat="43.62262" lon="3.76352">
        <ele>122</ele>
        <time>2021-05-14T12:47:59Z</time>
      </trkpt>
      <trkpt lat="43.62263" lon="3.76347">
        <ele>122</ele>
        <time>2021-05-14T12:48:00Z</time>
      </trkpt>
      <trkpt lat="43.62263" lon="3.76343">
        <ele>122</ele>
        <time>2021-05-14T12:48:01Z</time>
      </trkpt>
      <trkpt lat="43.62263" lon="3.76338">
        <ele>122</ele>
        <time>2021-05-14T12:48:02Z</time>
      </trkpt>
      <trkpt lat="43.62264" lon="3.76333">
        <ele>122</ele>
        <time>2021-05-14T12:48:03Z</time>
      </trkpt>
      <trkpt lat="43.62264" lon="3.76329">
        <ele>122</ele>
        <time>2021-05-14T12:48:04Z</time>
      </trkpt>
      <trkpt lat="43.62265" lon="3.76324">
        <ele>122</ele>
        <time>2021-05-14T12:48:05Z</time>
      </trkpt>
      <trkpt lat="43.62265" lon="3.76319">
        <ele>122</ele>
        <time>2021-05-14T12:48:06Z</time>
      </trkpt>
      <trkpt lat="43.62266" lon="3.76314">
        <ele>122</ele>
        <time>2021-05-14T12:48:07Z</time>
      </trkpt>
      <trkpt lat="43.62266" lon="3.7631">
        <ele>122</ele>
        <time>2021-05-14T12:48:08Z</time>
      </trkpt>
      <trkpt lat="43.62267" lon="3.76305">
        <ele>122</ele>
        <time>2021-05-14T12:48:09Z</time>
      </trkpt>
      <trkpt lat="43.62268" lon="3.763">
        <ele>122</ele>
        <time>2021-05-14T12:48:10Z</time>
      </trkpt>
      <trkpt lat="43.62268" lon="3.76295">
        <ele>122</ele>
        <time>2021-05-14T12:48:11Z</time>
      </trkpt>
      <trkpt lat="43.62269" lon="3.76291">
        <ele>122</ele>
        <time>2021-05-14T12:48:12Z</time>
      </trkpt>
      <trkpt lat="43.6227" lon="3.76286">
        <ele>122</ele>
        <time>2021-05-14T12:48:13Z</time>
      </trkpt>
      <trkpt lat="43.62272" lon="3.76277">
        <ele>122</ele>
        <time>2021-05-14T12:48:15Z</time>
      </trkpt>
      <trkpt lat="43.62273" lon="3.76273">
        <ele>122</ele>
        <time>2021-05-14T12:48:16Z</time>
      </trkpt>
      <trkpt lat="43.62273" lon="3.76268">
        <ele>122</ele>
        <time>2021-05-14T12:48:17Z</time>
      </trkpt>
      <trkpt lat="43.62274" lon="3.7626">
        <ele>122</ele>
        <time>2021-05-14T12:48:19Z</time>
      </trkpt>
      <trkpt lat="43.62274" lon="3.76255">
        <ele>122</ele>
        <time>2021-05-14T12:48:20Z</time>
      </trkpt>
      <trkpt lat="43.62274" lon="3.76251">
        <ele>122</ele>
        <time>2021-05-14T12:48:21Z</time>
      </trkpt>
      <trkpt lat="43.62274" lon="3.76246">
        <ele>122</ele>
        <time>2021-05-14T12:48:22Z</time>
      </trkpt>
      <trkpt lat="43.62274" lon="3.76242">
        <ele>122</ele>
        <time>2021-05-14T12:48:23Z</time>
      </trkpt>
      <trkpt lat="43.62274" lon="3.76238">
        <ele>122</ele>
        <time>2021-05-14T12:48:24Z</time>
      </trkpt>
      <trkpt lat="43.62274" lon="3.76234">
        <ele>123</ele>
        <time>2021-05-14T12:48:25Z</time>
      </trkpt>
      <trkpt lat="43.62274" lon="3.76231">
        <ele>123</ele>
        <time>2021-05-14T12:48:26Z</time>
      </trkpt>
      <trkpt lat="43.62274" lon="3.76227">
        <ele>123</ele>
        <time>2021-05-14T12:48:27Z</time>
      </trkpt>
      <trkpt lat="43.62274" lon="3.76223">
        <ele>123</ele>
        <time>2021-05-14T12:48:28Z</time>
      </trkpt>
      <trkpt lat="43.62274" lon="3.76218">
        <ele>123</ele>
        <time>2021-05-14T12:48:29Z</time>
      </trkpt>
      <trkpt lat="43.62275" lon="3.76214">
        <ele>123</ele>
        <time>2021-05-14T12:48:30Z</time>
      </trkpt>
      <trkpt lat="43.62275" lon="3.7621">
        <ele>123</ele>
        <time>2021-05-14T12:48:31Z</time>
      </trkpt>
      <trkpt lat="43.62276" lon="3.76206">
        <ele>123</ele>
        <time>2021-05-14T12:48:32Z</time>
      </trkpt>
      <trkpt lat="43.62276" lon="3.76202">
        <ele>123</ele>
        <time>2021-05-14T12:48:33Z</time>
      </trkpt>
      <trkpt lat="43.62276" lon="3.76198">
        <ele>123</ele>
        <time>2021-05-14T12:48:34Z</time>
      </trkpt>
      <trkpt lat="43.62276" lon="3.76195">
        <ele>124</ele>
        <time>2021-05-14T12:48:35Z</time>
      </trkpt>
      <trkpt lat="43.62276" lon="3.76191">
        <ele>124</ele>
        <time>2021-05-14T12:48:36Z</time>
      </trkpt>
      <trkpt lat="43.62276" lon="3.76187">
        <ele>124</ele>
        <time>2021-05-14T12:48:37Z</time>
      </trkpt>
      <trkpt lat="43.62276" lon="3.76182">
        <ele>124</ele>
        <time>2021-05-14T12:48:38Z</time>
      </trkpt>
      <trkpt lat="43.62276" lon="3.76178">
        <ele>124</ele>
        <time>2021-05-14T12:48:39Z</time>
      </trkpt>
      <trkpt lat="43.62276" lon="3.76174">
        <ele>124</ele>
        <time>2021-05-14T12:48:40Z</time>
      </trkpt>
      <trkpt lat="43.62276" lon="3.76169">
        <ele>124</ele>
        <time>2021-05-14T12:48:41Z</time>
      </trkpt>
      <trkpt lat="43.62275" lon="3.76165">
        <ele>124</ele>
        <time>2021-05-14T12:48:42Z</time>
      </trkpt>
      <trkpt lat="43.62275" lon="3.76157">
        <ele>124</ele>
        <time>2021-05-14T12:48:44Z</time>
      </trkpt>
      <trkpt lat="43.62275" lon="3.76153">
        <ele>124</ele>
        <time>2021-05-14T12:48:45Z</time>
      </trkpt>
      <trkpt lat="43.62275" lon="3.76148">
        <ele>124</ele>
        <time>2021-05-14T12:48:46Z</time>
      </trkpt>
      <trkpt lat="43.62275" lon="3.76144">
        <ele>124</ele>
        <time>2021-05-14T12:48:47Z</time>
      </trkpt>
      <trkpt lat="43.62275" lon="3.76139">
        <ele>124</ele>
        <time>2021-05-14T12:48:48Z</time>
      </trkpt>
      <trkpt lat="43.62275" lon="3.76134">
        <ele>124</ele>
        <time>2021-05-14T12:48:49Z</time>
      </trkpt>
      <trkpt lat="43.62275" lon="3.7613">
        <ele>124</ele>
        <time>2021-05-14T12:48:50Z</time>
      </trkpt>
      <trkpt lat="43.62275" lon="3.76125">
        <ele>124</ele>
        <time>2021-05-14T12:48:51Z</time>
      </trkpt>
      <trkpt lat="43.62275" lon="3.76121">
        <ele>124</ele>
        <time>2021-05-14T12:48:52Z</time>
      </trkpt>
      <trkpt lat="43.62275" lon="3.76116">
        <ele>124</ele>
        <time>2021-05-14T12:48:53Z</time>
      </trkpt>
      <trkpt lat="43.62275" lon="3.76112">
        <ele>124</ele>
        <time>2021-05-14T12:48:54Z</time>
      </trkpt>
      <trkpt lat="43.62275" lon="3.76107">
        <ele>124</ele>
        <time>2021-05-14T12:48:55Z</time>
      </trkpt>
      <trkpt lat="43.62275" lon="3.76102">
        <ele>124</ele>
        <time>2021-05-14T12:48:56Z</time>
      </trkpt>
      <trkpt lat="43.62275" lon="3.76098">
        <ele>124</ele>
        <time>2021-05-14T12:48:57Z</time>
      </trkpt>
      <trkpt lat="43.62276" lon="3.76093">
        <ele>124</ele>
        <time>2021-05-14T12:48:58Z</time>
      </trkpt>
      <trkpt lat="43.62276" lon="3.76089">
        <ele>124</ele>
        <time>2021-05-14T12:48:59Z</time>
      </trkpt>
      <trkpt lat="43.62276" lon="3.76084">
        <ele>124</ele>
        <time>2021-05-14T12:49:00Z</time>
      </trkpt>
      <trkpt lat="43.62277" lon="3.7608">
        <ele>124</ele>
        <time>2021-05-14T12:49:01Z</time>
      </trkpt>
      <trkpt lat="43.62277" lon="3.76075">
        <ele>124</ele>
        <time>2021-05-14T12:49:02Z</time>
      </trkpt>
      <trkpt lat="43.62277" lon="3.76071">
        <ele>124</ele>
        <time>2021-05-14T12:49:03Z</time>
      </trkpt>
      <trkpt lat="43.62277" lon="3.76067">
        <ele>124</ele>
        <time>2021-05-14T12:49:04Z</time>
      </trkpt>
      <trkpt lat="43.62277" lon="3.76062">
        <ele>124</ele>
        <time>2021-05-14T12:49:05Z</time>
      </trkpt>
      <trkpt lat="43.62277" lon="3.76058">
        <ele>124</ele>
        <time>2021-05-14T12:49:06Z</time>
      </trkpt>
      <trkpt lat="43.62277" lon="3.76053">
        <ele>124</ele>
        <time>2021-05-14T12:49:07Z</time>
      </trkpt>
      <trkpt lat="43.62278" lon="3.76049">
        <ele>124</ele>
        <time>2021-05-14T12:49:08Z</time>
      </trkpt>
      <trkpt lat="43.62277" lon="3.76044">
        <ele>124</ele>
        <time>2021-05-14T12:49:09Z</time>
      </trkpt>
      <trkpt lat="43.62277" lon="3.7604">
        <ele>124</ele>
        <time>2021-05-14T12:49:10Z</time>
      </trkpt>
      <trkpt lat="43.62277" lon="3.76035">
        <ele>124</ele>
        <time>2021-05-14T12:49:11Z</time>
      </trkpt>
      <trkpt lat="43.62278" lon="3.76031">
        <ele>124</ele>
        <time>2021-05-14T12:49:12Z</time>
      </trkpt>
      <trkpt lat="43.62278" lon="3.76026">
        <ele>124</ele>
        <time>2021-05-14T12:49:13Z</time>
      </trkpt>
      <trkpt lat="43.62278" lon="3.76022">
        <ele>124</ele>
        <time>2021-05-14T12:49:14Z</time>
      </trkpt>
      <trkpt lat="43.62278" lon="3.76017">
        <ele>126</ele>
        <time>2021-05-14T12:49:15Z</time>
      </trkpt>
      <trkpt lat="43.62278" lon="3.76013">
        <ele>126</ele>
        <time>2021-05-14T12:49:16Z</time>
      </trkpt>
      <trkpt lat="43.62277" lon="3.76008">
        <ele>126</ele>
        <time>2021-05-14T12:49:17Z</time>
      </trkpt>
      <trkpt lat="43.62278" lon="3.76004">
        <ele>126</ele>
        <time>2021-05-14T12:49:18Z</time>
      </trkpt>
      <trkpt lat="43.62278" lon="3.76">
        <ele>126</ele>
        <time>2021-05-14T12:49:19Z</time>
      </trkpt>
      <trkpt lat="43.62278" lon="3.75995">
        <ele>126</ele>
        <time>2021-05-14T12:49:20Z</time>
      </trkpt>
      <trkpt lat="43.62278" lon="3.75987">
        <ele>126</ele>
        <time>2021-05-14T12:49:22Z</time>
      </trkpt>
      <trkpt lat="43.62277" lon="3.75983">
        <ele>126</ele>
        <time>2021-05-14T12:49:23Z</time>
      </trkpt>
      <trkpt lat="43.62277" lon="3.75978">
        <ele>126</ele>
        <time>2021-05-14T12:49:24Z</time>
      </trkpt>
      <trkpt lat="43.62277" lon="3.7597">
        <ele>126</ele>
        <time>2021-05-14T12:49:26Z</time>
      </trkpt>
      <trkpt lat="43.62278" lon="3.75966">
        <ele>126</ele>
        <time>2021-05-14T12:49:27Z</time>
      </trkpt>
      <trkpt lat="43.62278" lon="3.75962">
        <ele>126</ele>
        <time>2021-05-14T12:49:28Z</time>
      </trkpt>
      <trkpt lat="43.62278" lon="3.75958">
        <ele>126</ele>
        <time>2021-05-14T12:49:29Z</time>
      </trkpt>
      <trkpt lat="43.62278" lon="3.75954">
        <ele>126</ele>
        <time>2021-05-14T12:49:30Z</time>
      </trkpt>
      <trkpt lat="43.62278" lon="3.7595">
        <ele>126</ele>
        <time>2021-05-14T12:49:31Z</time>
      </trkpt>
      <trkpt lat="43.62278" lon="3.75946">
        <ele>126</ele>
        <time>2021-05-14T12:49:32Z</time>
      </trkpt>
      <trkpt lat="43.62278" lon="3.75942">
        <ele>126</ele>
        <time>2021-05-14T12:49:33Z</time>
      </trkpt>
      <trkpt lat="43.62278" lon="3.75937">
        <ele>126</ele>
        <time>2021-05-14T12:49:34Z</time>
      </trkpt>
      <trkpt lat="43.62277" lon="3.75933">
        <ele>127</ele>
        <time>2021-05-14T12:49:35Z</time>
      </trkpt>
      <trkpt lat="43.62277" lon="3.75928">
        <ele>127</ele>
        <time>2021-05-14T12:49:36Z</time>
      </trkpt>
      <trkpt lat="43.62277" lon="3.75924">
        <ele>127</ele>
        <time>2021-05-14T12:49:37Z</time>
      </trkpt>
      <trkpt lat="43.62277" lon="3.75919">
        <ele>127</ele>
        <time>2021-05-14T12:49:38Z</time>
      </trkpt>
      <trkpt lat="43.62277" lon="3.75915">
        <ele>127</ele>
        <time>2021-05-14T12:49:39Z</time>
      </trkpt>
      <trkpt lat="43.62277" lon="3.7591">
        <ele>127</ele>
        <time>2021-05-14T12:49:40Z</time>
      </trkpt>
      <trkpt lat="43.62277" lon="3.75906">
        <ele>127</ele>
        <time>2021-05-14T12:49:41Z</time>
      </trkpt>
      <trkpt lat="43.62277" lon="3.75901">
        <ele>127</ele>
        <time>2021-05-14T12:49:42Z</time>
      </trkpt>
      <trkpt lat="43.62277" lon="3.75897">
        <ele>127</ele>
        <time>2021-05-14T12:49:43Z</time>
      </trkpt>
      <trkpt lat="43.62277" lon="3.75892">
        <ele>127</ele>
        <time>2021-05-14T12:49:44Z</time>
      </trkpt>
      <trkpt lat="43.62278" lon="3.75888">
        <ele>127</ele>
        <time>2021-05-14T12:49:45Z</time>
      </trkpt>
      <trkpt lat="43.62278" lon="3.75883">
        <ele>127</ele>
        <time>2021-05-14T12:49:46Z</time>
      </trkpt>
      <trkpt lat="43.62279" lon="3.75879">
        <ele>127</ele>
        <time>2021-05-14T12:49:47Z</time>
      </trkpt>
      <trkpt lat="43.62279" lon="3.75875">
        <ele>127</ele>
        <time>2021-05-14T12:49:48Z</time>
      </trkpt>
      <trkpt lat="43.62279" lon="3.75871">
        <ele>127</ele>
        <time>2021-05-14T12:49:49Z</time>
      </trkpt>
      <trkpt lat="43.6228" lon="3.75866">
        <ele>127</ele>
        <time>2021-05-14T12:49:50Z</time>
      </trkpt>
      <trkpt lat="43.6228" lon="3.75862">
        <ele>127</ele>
        <time>2021-05-14T12:49:51Z</time>
      </trkpt>
      <trkpt lat="43.6228" lon="3.75857">
        <ele>127</ele>
        <time>2021-05-14T12:49:52Z</time>
      </trkpt>
      <trkpt lat="43.62279" lon="3.75852">
        <ele>127</ele>
        <time>2021-05-14T12:49:53Z</time>
      </trkpt>
      <trkpt lat="43.62279" lon="3.75847">
        <ele>127</ele>
        <time>2021-05-14T12:49:54Z</time>
      </trkpt>
      <trkpt lat="43.62279" lon="3.75841">
        <ele>127</ele>
        <time>2021-05-14T12:49:55Z</time>
      </trkpt>
      <trkpt lat="43.62279" lon="3.75836">
        <ele>127</ele>
        <time>2021-05-14T12:49:56Z</time>
      </trkpt>
      <trkpt lat="43.62279" lon="3.75831">
        <ele>127</ele>
        <time>2021-05-14T12:49:57Z</time>
      </trkpt>
      <trkpt lat="43.6228" lon="3.75827">
        <ele>127</ele>
        <time>2021-05-14T12:49:58Z</time>
      </trkpt>
      <trkpt lat="43.6228" lon="3.75822">
        <ele>127</ele>
        <time>2021-05-14T12:49:59Z</time>
      </trkpt>
      <trkpt lat="43.6228" lon="3.75818">
        <ele>127</ele>
        <time>2021-05-14T12:50:00Z</time>
      </trkpt>
      <trkpt lat="43.6228" lon="3.75813">
        <ele>127</ele>
        <time>2021-05-14T12:50:01Z</time>
      </trkpt>
      <trkpt lat="43.6228" lon="3.75808">
        <ele>127</ele>
        <time>2021-05-14T12:50:02Z</time>
      </trkpt>
      <trkpt lat="43.62281" lon="3.75804">
        <ele>127</ele>
        <time>2021-05-14T12:50:03Z</time>
      </trkpt>
      <trkpt lat="43.62281" lon="3.75799">
        <ele>127</ele>
        <time>2021-05-14T12:50:04Z</time>
      </trkpt>
      <trkpt lat="43.62281" lon="3.75795">
        <ele>127</ele>
        <time>2021-05-14T12:50:05Z</time>
      </trkpt>
      <trkpt lat="43.62281" lon="3.7579">
        <ele>127</ele>
        <time>2021-05-14T12:50:06Z</time>
      </trkpt>
      <trkpt lat="43.62281" lon="3.75786">
        <ele>127</ele>
        <time>2021-05-14T12:50:07Z</time>
      </trkpt>
      <trkpt lat="43.62281" lon="3.75781">
        <ele>127</ele>
        <time>2021-05-14T12:50:08Z</time>
      </trkpt>
      <trkpt lat="43.62281" lon="3.75777">
        <ele>127</ele>
        <time>2021-05-14T12:50:09Z</time>
      </trkpt>
      <trkpt lat="43.62281" lon="3.75772">
        <ele>127</ele>
        <time>2021-05-14T12:50:10Z</time>
      </trkpt>
      <trkpt lat="43.62281" lon="3.75768">
        <ele>127</ele>
        <time>2021-05-14T12:50:11Z</time>
      </trkpt>
      <trkpt lat="43.62281" lon="3.75763">
        <ele>127</ele>
        <time>2021-05-14T12:50:12Z</time>
      </trkpt>
      <trkpt lat="43.62281" lon="3.75759">
        <ele>127</ele>
        <time>2021-05-14T12:50:13Z</time>
      </trkpt>
      <trkpt lat="43.62281" lon="3.75754">
        <ele>127</ele>
        <time>2021-05-14T12:50:14Z</time>
      </trkpt>
      <trkpt lat="43.6228" lon="3.7575">
        <ele>127</ele>
        <time>2021-05-14T12:50:15Z</time>
      </trkpt>
      <trkpt lat="43.6228" lon="3.75745">
        <ele>127</ele>
        <time>2021-05-14T12:50:16Z</time>
      </trkpt>
      <trkpt lat="43.6228" lon="3.7574">
        <ele>127</ele>
        <time>2021-05-14T12:50:17Z</time>
      </trkpt>
      <trkpt lat="43.6228" lon="3.75736">
        <ele>127</ele>
        <time>2021-05-14T12:50:18Z</time>
      </trkpt>
      <trkpt lat="43.6228" lon="3.75731">
        <ele>127</ele>
        <time>2021-05-14T12:50:19Z</time>
      </trkpt>
      <trkpt lat="43.6228" lon="3.75723">
        <ele>127</ele>
        <time>2021-05-14T12:50:21Z</time>
      </trkpt>
      <trkpt lat="43.6228" lon="3.75718">
        <ele>127</ele>
        <time>2021-05-14T12:50:22Z</time>
      </trkpt>
      <trkpt lat="43.62279" lon="3.75714">
        <ele>127</ele>
        <time>2021-05-14T12:50:23Z</time>
      </trkpt>
      <trkpt lat="43.62279" lon="3.75709">
        <ele>127</ele>
        <time>2021-05-14T12:50:24Z</time>
      </trkpt>
      <trkpt lat="43.62278" lon="3.75704">
        <ele>127</ele>
        <time>2021-05-14T12:50:25Z</time>
      </trkpt>
      <trkpt lat="43.62277" lon="3.75699">
        <ele>127</ele>
        <time>2021-05-14T12:50:26Z</time>
      </trkpt>
      <trkpt lat="43.62277" lon="3.75694">
        <ele>127</ele>
        <time>2021-05-14T12:50:27Z</time>
      </trkpt>
      <trkpt lat="43.62276" lon="3.75689">
        <ele>127</ele>
        <time>2021-05-14T12:50:28Z</time>
      </trkpt>
      <trkpt lat="43.62275" lon="3.75684">
        <ele>127</ele>
        <time>2021-05-14T12:50:29Z</time>
      </trkpt>
      <trkpt lat="43.62274" lon="3.75679">
        <ele>127</ele>
        <time>2021-05-14T12:50:30Z</time>
      </trkpt>
      <trkpt lat="43.62273" lon="3.75673">
        <ele>127</ele>
        <time>2021-05-14T12:50:31Z</time>
      </trkpt>
      <trkpt lat="43.62272" lon="3.75668">
        <ele>127</ele>
        <time>2021-05-14T12:50:32Z</time>
      </trkpt>
      <trkpt lat="43.62271" lon="3.75663">
        <ele>127</ele>
        <time>2021-05-14T12:50:33Z</time>
      </trkpt>
      <trkpt lat="43.62269" lon="3.75658">
        <ele>127</ele>
        <time>2021-05-14T12:50:34Z</time>
      </trkpt>
      <trkpt lat="43.62268" lon="3.75653">
        <ele>127</ele>
        <time>2021-05-14T12:50:35Z</time>
      </trkpt>
      <trkpt lat="43.62267" lon="3.75649">
        <ele>127</ele>
        <time>2021-05-14T12:50:36Z</time>
      </trkpt>
      <trkpt lat="43.62265" lon="3.75644">
        <ele>127</ele>
        <time>2021-05-14T12:50:37Z</time>
      </trkpt>
      <trkpt lat="43.62264" lon="3.7564">
        <ele>127</ele>
        <time>2021-05-14T12:50:38Z</time>
      </trkpt>
      <trkpt lat="43.62263" lon="3.75635">
        <ele>127</ele>
        <time>2021-05-14T12:50:39Z</time>
      </trkpt>
      <trkpt lat="43.62262" lon="3.7563">
        <ele>127</ele>
        <time>2021-05-14T12:50:40Z</time>
      </trkpt>
      <trkpt lat="43.62261" lon="3.75626">
        <ele>127</ele>
        <time>2021-05-14T12:50:41Z</time>
      </trkpt>
      <trkpt lat="43.62259" lon="3.75621">
        <ele>127</ele>
        <time>2021-05-14T12:50:42Z</time>
      </trkpt>
      <trkpt lat="43.62257" lon="3.75617">
        <ele>127</ele>
        <time>2021-05-14T12:50:43Z</time>
      </trkpt>
      <trkpt lat="43.62255" lon="3.75612">
        <ele>127</ele>
        <time>2021-05-14T12:50:44Z</time>
      </trkpt>
      <trkpt lat="43.62251" lon="3.75603">
        <ele>127</ele>
        <time>2021-05-14T12:50:46Z</time>
      </trkpt>
      <trkpt lat="43.62249" lon="3.75599">
        <ele>127</ele>
        <time>2021-05-14T12:50:47Z</time>
      </trkpt>
      <trkpt lat="43.62247" lon="3.75595">
        <ele>127</ele>
        <time>2021-05-14T12:50:48Z</time>
      </trkpt>
      <trkpt lat="43.62245" lon="3.7559">
        <ele>127</ele>
        <time>2021-05-14T12:50:49Z</time>
      </trkpt>
      <trkpt lat="43.62244" lon="3.75585">
        <ele>127</ele>
        <time>2021-05-14T12:50:50Z</time>
      </trkpt>
      <trkpt lat="43.62242" lon="3.7558">
        <ele>127</ele>
        <time>2021-05-14T12:50:51Z</time>
      </trkpt>
      <trkpt lat="43.62241" lon="3.75576">
        <ele>127</ele>
        <time>2021-05-14T12:50:52Z</time>
      </trkpt>
      <trkpt lat="43.62239" lon="3.75572">
        <ele>127</ele>
        <time>2021-05-14T12:50:53Z</time>
      </trkpt>
      <trkpt lat="43.62237" lon="3.75568">
        <ele>127</ele>
        <time>2021-05-14T12:50:54Z</time>
      </trkpt>
      <trkpt lat="43.62235" lon="3.75564">
        <ele>126</ele>
        <time>2021-05-14T12:50:55Z</time>
      </trkpt>
      <trkpt lat="43.62233" lon="3.7556">
        <ele>126</ele>
        <time>2021-05-14T12:50:56Z</time>
      </trkpt>
      <trkpt lat="43.62231" lon="3.75556">
        <ele>126</ele>
        <time>2021-05-14T12:50:57Z</time>
      </trkpt>
      <trkpt lat="43.62229" lon="3.75552">
        <ele>126</ele>
        <time>2021-05-14T12:50:58Z</time>
      </trkpt>
      <trkpt lat="43.62226" lon="3.75548">
        <ele>126</ele>
        <time>2021-05-14T12:50:59Z</time>
      </trkpt>
      <trkpt lat="43.62224" lon="3.75544">
        <ele>126</ele>
        <time>2021-05-14T12:51:00Z</time>
      </trkpt>
      <trkpt lat="43.62221" lon="3.7554">
        <ele>126</ele>
        <time>2021-05-14T12:51:01Z</time>
      </trkpt>
      <trkpt lat="43.62219" lon="3.75536">
        <ele>126</ele>
        <time>2021-05-14T12:51:02Z</time>
      </trkpt>
      <trkpt lat="43.62217" lon="3.75532">
        <ele>126</ele>
        <time>2021-05-14T12:51:03Z</time>
      </trkpt>
      <trkpt lat="43.62214" lon="3.75528">
        <ele>126</ele>
        <time>2021-05-14T12:51:04Z</time>
      </trkpt>
      <trkpt lat="43.62212" lon="3.75524">
        <ele>125</ele>
        <time>2021-05-14T12:51:05Z</time>
      </trkpt>
      <trkpt lat="43.62209" lon="3.75521">
        <ele>125</ele>
        <time>2021-05-14T12:51:06Z</time>
      </trkpt>
      <trkpt lat="43.62204" lon="3.75513">
        <ele>125</ele>
        <time>2021-05-14T12:51:08Z</time>
      </trkpt>
      <trkpt lat="43.62202" lon="3.75509">
        <ele>125</ele>
        <time>2021-05-14T12:51:09Z</time>
      </trkpt>
      <trkpt lat="43.622" lon="3.75506">
        <ele>125</ele>
        <time>2021-05-14T12:51:10Z</time>
      </trkpt>
      <trkpt lat="43.62198" lon="3.75502">
        <ele>125</ele>
        <time>2021-05-14T12:51:11Z</time>
      </trkpt>
      <trkpt lat="43.62195" lon="3.75498">
        <ele>125</ele>
        <time>2021-05-14T12:51:12Z</time>
      </trkpt>
      <trkpt lat="43.62193" lon="3.75495">
        <ele>125</ele>
        <time>2021-05-14T12:51:13Z</time>
      </trkpt>
      <trkpt lat="43.6219" lon="3.75491">
        <ele>125</ele>
        <time>2021-05-14T12:51:14Z</time>
      </trkpt>
      <trkpt lat="43.62188" lon="3.75487">
        <ele>124</ele>
        <time>2021-05-14T12:51:15Z</time>
      </trkpt>
      <trkpt lat="43.62186" lon="3.75484">
        <ele>124</ele>
        <time>2021-05-14T12:51:16Z</time>
      </trkpt>
      <trkpt lat="43.62184" lon="3.75481">
        <ele>124</ele>
        <time>2021-05-14T12:51:17Z</time>
      </trkpt>
      <trkpt lat="43.62182" lon="3.75478">
        <ele>124</ele>
        <time>2021-05-14T12:51:18Z</time>
      </trkpt>
      <trkpt lat="43.6218" lon="3.75474">
        <ele>124</ele>
        <time>2021-05-14T12:51:19Z</time>
      </trkpt>
      <trkpt lat="43.62178" lon="3.75471">
        <ele>124</ele>
        <time>2021-05-14T12:51:20Z</time>
      </trkpt>
      <trkpt lat="43.62176" lon="3.75468">
        <ele>124</ele>
        <time>2021-05-14T12:51:21Z</time>
      </trkpt>
      <trkpt lat="43.62174" lon="3.75465">
        <ele>124</ele>
        <time>2021-05-14T12:51:22Z</time>
      </trkpt>
      <trkpt lat="43.62172" lon="3.75462">
        <ele>124</ele>
        <time>2021-05-14T12:51:23Z</time>
      </trkpt>
      <trkpt lat="43.6217" lon="3.75458">
        <ele>124</ele>
        <time>2021-05-14T12:51:24Z</time>
      </trkpt>
      <trkpt lat="43.62168" lon="3.75455">
        <ele>123</ele>
        <time>2021-05-14T12:51:25Z</time>
      </trkpt>
      <trkpt lat="43.62166" lon="3.75452">
        <ele>123</ele>
        <time>2021-05-14T12:51:26Z</time>
      </trkpt>
      <trkpt lat="43.62165" lon="3.75448">
        <ele>123</ele>
        <time>2021-05-14T12:51:27Z</time>
      </trkpt>
      <trkpt lat="43.62163" lon="3.75445">
        <ele>123</ele>
        <time>2021-05-14T12:51:29Z</time>
      </trkpt>
      <trkpt lat="43.6216" lon="3.75438">
        <ele>123</ele>
        <time>2021-05-14T12:51:30Z</time>
      </trkpt>
      <trkpt lat="43.62158" lon="3.75435">
        <ele>123</ele>
        <time>2021-05-14T12:51:31Z</time>
      </trkpt>
      <trkpt lat="43.62156" lon="3.75431">
        <ele>123</ele>
        <time>2021-05-14T12:51:32Z</time>
      </trkpt>
      <trkpt lat="43.62153" lon="3.75424">
        <ele>123</ele>
        <time>2021-05-14T12:51:34Z</time>
      </trkpt>
      <trkpt lat="43.62152" lon="3.75421">
        <ele>122</ele>
        <time>2021-05-14T12:51:35Z</time>
      </trkpt>
      <trkpt lat="43.6215" lon="3.75418">
        <ele>122</ele>
        <time>2021-05-14T12:51:36Z</time>
      </trkpt>
      <trkpt lat="43.62149" lon="3.75415">
        <ele>122</ele>
        <time>2021-05-14T12:51:37Z</time>
      </trkpt>
      <trkpt lat="43.62147" lon="3.75413">
        <ele>122</ele>
        <time>2021-05-14T12:51:38Z</time>
      </trkpt>
      <trkpt lat="43.62146" lon="3.75409">
        <ele>122</ele>
        <time>2021-05-14T12:51:39Z</time>
      </trkpt>
      <trkpt lat="43.62144" lon="3.75406">
        <ele>122</ele>
        <time>2021-05-14T12:51:40Z</time>
      </trkpt>
      <trkpt lat="43.62143" lon="3.75402">
        <ele>122</ele>
        <time>2021-05-14T12:51:41Z</time>
      </trkpt>
      <trkpt lat="43.62141" lon="3.75399">
        <ele>122</ele>
        <time>2021-05-14T12:51:42Z</time>
      </trkpt>
      <trkpt lat="43.6214" lon="3.75395">
        <ele>122</ele>
        <time>2021-05-14T12:51:43Z</time>
      </trkpt>
      <trkpt lat="43.62138" lon="3.75391">
        <ele>122</ele>
        <time>2021-05-14T12:51:44Z</time>
      </trkpt>
      <trkpt lat="43.62137" lon="3.75388">
        <ele>121</ele>
        <time>2021-05-14T12:51:45Z</time>
      </trkpt>
      <trkpt lat="43.62135" lon="3.75384">
        <ele>121</ele>
        <time>2021-05-14T12:51:46Z</time>
      </trkpt>
      <trkpt lat="43.62134" lon="3.7538">
        <ele>121</ele>
        <time>2021-05-14T12:51:47Z</time>
      </trkpt>
      <trkpt lat="43.62132" lon="3.75376">
        <ele>121</ele>
        <time>2021-05-14T12:51:48Z</time>
      </trkpt>
      <trkpt lat="43.6213" lon="3.75372">
        <ele>121</ele>
        <time>2021-05-14T12:51:49Z</time>
      </trkpt>
      <trkpt lat="43.62128" lon="3.75368">
        <ele>121</ele>
        <time>2021-05-14T12:51:50Z</time>
      </trkpt>
      <trkpt lat="43.62126" lon="3.75364">
        <ele>121</ele>
        <time>2021-05-14T12:51:51Z</time>
      </trkpt>
      <trkpt lat="43.62125" lon="3.7536">
        <ele>121</ele>
        <time>2021-05-14T12:51:52Z</time>
      </trkpt>
      <trkpt lat="43.62123" lon="3.75356">
        <ele>121</ele>
        <time>2021-05-14T12:51:53Z</time>
      </trkpt>
      <trkpt lat="43.62121" lon="3.75352">
        <ele>121</ele>
        <time>2021-05-14T12:51:54Z</time>
      </trkpt>
      <trkpt lat="43.6212" lon="3.75347">
        <ele>121</ele>
        <time>2021-05-14T12:51:55Z</time>
      </trkpt>
      <trkpt lat="43.62118" lon="3.75343">
        <ele>121</ele>
        <time>2021-05-14T12:51:56Z</time>
      </trkpt>
      <trkpt lat="43.62116" lon="3.75339">
        <ele>121</ele>
        <time>2021-05-14T12:51:57Z</time>
      </trkpt>
      <trkpt lat="43.62114" lon="3.75335">
        <ele>121</ele>
        <time>2021-05-14T12:51:58Z</time>
      </trkpt>
      <trkpt lat="43.62113" lon="3.75331">
        <ele>121</ele>
        <time>2021-05-14T12:51:59Z</time>
      </trkpt>
      <trkpt lat="43.62111" lon="3.75326">
        <ele>121</ele>
        <time>2021-05-14T12:52:00Z</time>
      </trkpt>
      <trkpt lat="43.62109" lon="3.75322">
        <ele>121</ele>
        <time>2021-05-14T12:52:01Z</time>
      </trkpt>
      <trkpt lat="43.62108" lon="3.75318">
        <ele>121</ele>
        <time>2021-05-14T12:52:02Z</time>
      </trkpt>
      <trkpt lat="43.62106" lon="3.75313">
        <ele>121</ele>
        <time>2021-05-14T12:52:03Z</time>
      </trkpt>
      <trkpt lat="43.62105" lon="3.75309">
        <ele>121</ele>
        <time>2021-05-14T12:52:04Z</time>
      </trkpt>
      <trkpt lat="43.62103" lon="3.75305">
        <ele>120</ele>
        <time>2021-05-14T12:52:05Z</time>
      </trkpt>
      <trkpt lat="43.62101" lon="3.753">
        <ele>120</ele>
        <time>2021-05-14T12:52:06Z</time>
      </trkpt>
      <trkpt lat="43.62099" lon="3.75295">
        <ele>120</ele>
        <time>2021-05-14T12:52:07Z</time>
      </trkpt>
      <trkpt lat="43.62098" lon="3.75291">
        <ele>120</ele>
        <time>2021-05-14T12:52:08Z</time>
      </trkpt>
      <trkpt lat="43.62096" lon="3.75287">
        <ele>120</ele>
        <time>2021-05-14T12:52:09Z</time>
      </trkpt>
      <trkpt lat="43.62095" lon="3.75282">
        <ele>120</ele>
        <time>2021-05-14T12:52:10Z</time>
      </trkpt>
      <trkpt lat="43.62093" lon="3.75278">
        <ele>120</ele>
        <time>2021-05-14T12:52:11Z</time>
      </trkpt>
      <trkpt lat="43.62091" lon="3.75274">
        <ele>120</ele>
        <time>2021-05-14T12:52:12Z</time>
      </trkpt>
      <trkpt lat="43.6209" lon="3.75269">
        <ele>120</ele>
        <time>2021-05-14T12:52:13Z</time>
      </trkpt>
      <trkpt lat="43.62088" lon="3.75265">
        <ele>120</ele>
        <time>2021-05-14T12:52:14Z</time>
      </trkpt>
      <trkpt lat="43.62086" lon="3.7526">
        <ele>119</ele>
        <time>2021-05-14T12:52:15Z</time>
      </trkpt>
      <trkpt lat="43.62085" lon="3.75256">
        <ele>119</ele>
        <time>2021-05-14T12:52:16Z</time>
      </trkpt>
      <trkpt lat="43.62083" lon="3.75251">
        <ele>119</ele>
        <time>2021-05-14T12:52:17Z</time>
      </trkpt>
      <trkpt lat="43.62082" lon="3.75247">
        <ele>119</ele>
        <time>2021-05-14T12:52:18Z</time>
      </trkpt>
      <trkpt lat="43.62081" lon="3.75243">
        <ele>119</ele>
        <time>2021-05-14T12:52:19Z</time>
      </trkpt>
      <trkpt lat="43.6208" lon="3.75239">
        <ele>119</ele>
        <time>2021-05-14T12:52:20Z</time>
      </trkpt>
      <trkpt lat="43.62079" lon="3.75236">
        <ele>119</ele>
        <time>2021-05-14T12:52:21Z</time>
      </trkpt>
      <trkpt lat="43.62078" lon="3.75234">
        <ele>119</ele>
        <time>2021-05-14T12:52:22Z</time>
      </trkpt>
      <trkpt lat="43.62077" lon="3.75231">
        <ele>119</ele>
        <time>2021-05-14T12:52:24Z</time>
      </trkpt>
      <trkpt lat="43.62076" lon="3.75229">
        <ele>119</ele>
        <time>2021-05-14T12:52:26Z</time>
      </trkpt>
      <trkpt lat="43.62073" lon="3.75232">
        <ele>119</ele>
        <time>2021-05-14T12:52:28Z</time>
      </trkpt>
      <trkpt lat="43.62072" lon="3.75236">
        <ele>119</ele>
        <time>2021-05-14T12:52:29Z</time>
      </trkpt>
      <trkpt lat="43.62069" lon="3.75241">
        <ele>119</ele>
        <time>2021-05-14T12:52:30Z</time>
      </trkpt>
      <trkpt lat="43.62067" lon="3.75247">
        <ele>119</ele>
        <time>2021-05-14T12:52:31Z</time>
      </trkpt>
      <trkpt lat="43.62065" lon="3.75253">
        <ele>119</ele>
        <time>2021-05-14T12:52:32Z</time>
      </trkpt>
      <trkpt lat="43.62063" lon="3.75259">
        <ele>119</ele>
        <time>2021-05-14T12:52:33Z</time>
      </trkpt>
      <trkpt lat="43.62061" lon="3.75269">
        <ele>116</ele>
        <time>2021-05-14T12:52:35Z</time>
      </trkpt>
      <trkpt lat="43.62058" lon="3.75273">
        <ele>116</ele>
        <time>2021-05-14T12:52:36Z</time>
      </trkpt>
      <trkpt lat="43.62056" lon="3.75277">
        <ele>116</ele>
        <time>2021-05-14T12:52:37Z</time>
      </trkpt>
      <trkpt lat="43.62053" lon="3.75282">
        <ele>116</ele>
        <time>2021-05-14T12:52:38Z</time>
      </trkpt>
      <trkpt lat="43.62051" lon="3.75287">
        <ele>116</ele>
        <time>2021-05-14T12:52:39Z</time>
      </trkpt>
      <trkpt lat="43.62049" lon="3.75293">
        <ele>116</ele>
        <time>2021-05-14T12:52:40Z</time>
      </trkpt>
      <trkpt lat="43.62048" lon="3.75299">
        <ele>116</ele>
        <time>2021-05-14T12:52:41Z</time>
      </trkpt>
      <trkpt lat="43.62048" lon="3.75305">
        <ele>116</ele>
        <time>2021-05-14T12:52:42Z</time>
      </trkpt>
      <trkpt lat="43.62049" lon="3.75312">
        <ele>116</ele>
        <time>2021-05-14T12:52:43Z</time>
      </trkpt>
      <trkpt lat="43.6205" lon="3.75319">
        <ele>116</ele>
        <time>2021-05-14T12:52:44Z</time>
      </trkpt>
      <trkpt lat="43.6205" lon="3.75326">
        <ele>113</ele>
        <time>2021-05-14T12:52:45Z</time>
      </trkpt>
      <trkpt lat="43.62051" lon="3.75332">
        <ele>113</ele>
        <time>2021-05-14T12:52:46Z</time>
      </trkpt>
      <trkpt lat="43.62052" lon="3.75343">
        <ele>113</ele>
        <time>2021-05-14T12:52:48Z</time>
      </trkpt>
      <trkpt lat="43.62053" lon="3.75348">
        <ele>113</ele>
        <time>2021-05-14T12:52:49Z</time>
      </trkpt>
      <trkpt lat="43.62054" lon="3.75353">
        <ele>113</ele>
        <time>2021-05-14T12:52:50Z</time>
      </trkpt>
      <trkpt lat="43.62055" lon="3.75359">
        <ele>113</ele>
        <time>2021-05-14T12:52:51Z</time>
      </trkpt>
      <trkpt lat="43.62056" lon="3.75364">
        <ele>113</ele>
        <time>2021-05-14T12:52:52Z</time>
      </trkpt>
      <trkpt lat="43.62056" lon="3.75371">
        <ele>113</ele>
        <time>2021-05-14T12:52:53Z</time>
      </trkpt>
      <trkpt lat="43.62057" lon="3.75377">
        <ele>113</ele>
        <time>2021-05-14T12:52:54Z</time>
      </trkpt>
      <trkpt lat="43.62058" lon="3.75384">
        <ele>111</ele>
        <time>2021-05-14T12:52:55Z</time>
      </trkpt>
      <trkpt lat="43.6206" lon="3.7539">
        <ele>111</ele>
        <time>2021-05-14T12:52:56Z</time>
      </trkpt>
      <trkpt lat="43.62061" lon="3.75397">
        <ele>111</ele>
        <time>2021-05-14T12:52:57Z</time>
      </trkpt>
      <trkpt lat="43.62062" lon="3.75402">
        <ele>111</ele>
        <time>2021-05-14T12:52:58Z</time>
      </trkpt>
      <trkpt lat="43.62062" lon="3.75408">
        <ele>111</ele>
        <time>2021-05-14T12:52:59Z</time>
      </trkpt>
      <trkpt lat="43.62062" lon="3.75414">
        <ele>111</ele>
        <time>2021-05-14T12:53:00Z</time>
      </trkpt>
      <trkpt lat="43.62063" lon="3.75419">
        <ele>111</ele>
        <time>2021-05-14T12:53:01Z</time>
      </trkpt>
      <trkpt lat="43.62063" lon="3.75425">
        <ele>111</ele>
        <time>2021-05-14T12:53:02Z</time>
      </trkpt>
      <trkpt lat="43.62064" lon="3.7543">
        <ele>111</ele>
        <time>2021-05-14T12:53:03Z</time>
      </trkpt>
      <trkpt lat="43.62064" lon="3.75436">
        <ele>111</ele>
        <time>2021-05-14T12:53:04Z</time>
      </trkpt>
      <trkpt lat="43.62064" lon="3.75441">
        <ele>108</ele>
        <time>2021-05-14T12:53:05Z</time>
      </trkpt>
      <trkpt lat="43.62064" lon="3.75447">
        <ele>108</ele>
        <time>2021-05-14T12:53:06Z</time>
      </trkpt>
      <trkpt lat="43.62064" lon="3.75452">
        <ele>108</ele>
        <time>2021-05-14T12:53:07Z</time>
      </trkpt>
      <trkpt lat="43.62064" lon="3.75457">
        <ele>108</ele>
        <time>2021-05-14T12:53:08Z</time>
      </trkpt>
      <trkpt lat="43.62064" lon="3.75463">
        <ele>108</ele>
        <time>2021-05-14T12:53:09Z</time>
      </trkpt>
      <trkpt lat="43.62065" lon="3.75467">
        <ele>108</ele>
        <time>2021-05-14T12:53:10Z</time>
      </trkpt>
      <trkpt lat="43.62065" lon="3.75472">
        <ele>108</ele>
        <time>2021-05-14T12:53:11Z</time>
      </trkpt>
      <trkpt lat="43.62064" lon="3.75475">
        <ele>108</ele>
        <time>2021-05-14T12:53:12Z</time>
      </trkpt>
      <trkpt lat="43.62064" lon="3.75477">
        <ele>108</ele>
        <time>2021-05-14T12:53:13Z</time>
      </trkpt>
      <trkpt lat="43.62063" lon="3.7548">
        <ele>108</ele>
        <time>2021-05-14T12:53:14Z</time>
      </trkpt>
      <trkpt lat="43.62062" lon="3.75482">
        <ele>106</ele>
        <time>2021-05-14T12:53:15Z</time>
      </trkpt>
      <trkpt lat="43.62061" lon="3.75485">
        <ele>106</ele>
        <time>2021-05-14T12:53:16Z</time>
      </trkpt>
      <trkpt lat="43.6206" lon="3.75489">
        <ele>106</ele>
        <time>2021-05-14T12:53:17Z</time>
      </trkpt>
      <trkpt lat="43.6206" lon="3.75492">
        <ele>106</ele>
        <time>2021-05-14T12:53:18Z</time>
      </trkpt>
      <trkpt lat="43.62059" lon="3.75497">
        <ele>106</ele>
        <time>2021-05-14T12:53:19Z</time>
      </trkpt>
      <trkpt lat="43.62058" lon="3.75501">
        <ele>106</ele>
        <time>2021-05-14T12:53:20Z</time>
      </trkpt>
      <trkpt lat="43.62057" lon="3.75504">
        <ele>106</ele>
        <time>2021-05-14T12:53:21Z</time>
      </trkpt>
      <trkpt lat="43.62056" lon="3.75508">
        <ele>106</ele>
        <time>2021-05-14T12:53:22Z</time>
      </trkpt>
      <trkpt lat="43.62055" lon="3.75512">
        <ele>106</ele>
        <time>2021-05-14T12:53:23Z</time>
      </trkpt>
      <trkpt lat="43.62054" lon="3.75516">
        <ele>106</ele>
        <time>2021-05-14T12:53:24Z</time>
      </trkpt>
      <trkpt lat="43.62053" lon="3.75519">
        <ele>103</ele>
        <time>2021-05-14T12:53:25Z</time>
      </trkpt>
      <trkpt lat="43.62051" lon="3.75521">
        <ele>103</ele>
        <time>2021-05-14T12:53:26Z</time>
      </trkpt>
      <trkpt lat="43.62049" lon="3.75522">
        <ele>103</ele>
        <time>2021-05-14T12:53:27Z</time>
      </trkpt>
      <trkpt lat="43.62047" lon="3.75522">
        <ele>103</ele>
        <time>2021-05-14T12:53:28Z</time>
      </trkpt>
      <trkpt lat="43.62045" lon="3.75521">
        <ele>103</ele>
        <time>2021-05-14T12:53:29Z</time>
      </trkpt>
      <trkpt lat="43.62043" lon="3.7552">
        <ele>103</ele>
        <time>2021-05-14T12:53:30Z</time>
      </trkpt>
      <trkpt lat="43.62041" lon="3.75519">
        <ele>103</ele>
        <time>2021-05-14T12:53:31Z</time>
      </trkpt>
      <trkpt lat="43.62038" lon="3.75516">
        <ele>103</ele>
        <time>2021-05-14T12:53:33Z</time>
      </trkpt>
      <trkpt lat="43.62037" lon="3.75516">
        <ele>101</ele>
        <time>2021-05-14T12:53:38Z</time>
      </trkpt>
      <trkpt lat="43.62043" lon="3.75516">
        <ele>99</ele>
        <time>2021-05-14T12:54:03Z</time>
      </trkpt>
      <trkpt lat="43.62045" lon="3.75517">
        <ele>99</ele>
        <time>2021-05-14T12:54:05Z</time>
      </trkpt>
      <trkpt lat="43.62048" lon="3.75518">
        <ele>99</ele>
        <time>2021-05-14T12:54:07Z</time>
      </trkpt>
      <trkpt lat="43.62043" lon="3.75518">
        <ele>98</ele>
        <time>2021-05-14T12:54:17Z</time>
      </trkpt>
      <trkpt lat="43.62041" lon="3.75517">
        <ele>98</ele>
        <time>2021-05-14T12:54:18Z</time>
      </trkpt>
      <trkpt lat="43.62039" lon="3.75516">
        <ele>98</ele>
        <time>2021-05-14T12:54:19Z</time>
      </trkpt>
      <trkpt lat="43.62037" lon="3.75514">
        <ele>98</ele>
        <time>2021-05-14T12:54:20Z</time>
      </trkpt>
      <trkpt lat="43.62035" lon="3.75513">
        <ele>98</ele>
        <time>2021-05-14T12:54:22Z</time>
      </trkpt>
      <trkpt lat="43.62035" lon="3.75513">
        <ele>98</ele>
        <time>2021-05-14T12:54:26Z</time>
      </trkpt>
      <trkpt lat="43.6203" lon="3.75516">
        <ele>98</ele>
        <time>2021-05-14T12:54:53Z</time>
      </trkpt>
      <trkpt lat="43.62028" lon="3.75516">
        <ele>98</ele>
        <time>2021-05-14T12:54:54Z</time>
      </trkpt>
      <trkpt lat="43.62025" lon="3.75516">
        <ele>98</ele>
        <time>2021-05-14T12:54:56Z</time>
      </trkpt>
      <trkpt lat="43.62022" lon="3.75517">
        <ele>98</ele>
        <time>2021-05-14T12:54:58Z</time>
      </trkpt>
      <trkpt lat="43.62019" lon="3.75518">
        <ele>98</ele>
        <time>2021-05-14T12:55:00Z</time>
      </trkpt>
      <trkpt lat="43.62017" lon="3.75518">
        <ele>98</ele>
        <time>2021-05-14T12:55:01Z</time>
      </trkpt>
      <trkpt lat="43.62014" lon="3.75518">
        <ele>98</ele>
        <time>2021-05-14T12:55:02Z</time>
      </trkpt>
      <trkpt lat="43.62013" lon="3.75517">
        <ele>99</ele>
        <time>2021-05-14T12:55:03Z</time>
      </trkpt>
      <trkpt lat="43.62011" lon="3.75515">
        <ele>99</ele>
        <time>2021-05-14T12:55:05Z</time>
      </trkpt>
      <trkpt lat="43.62009" lon="3.75515">
        <ele>99</ele>
        <time>2021-05-14T12:55:11Z</time>
      </trkpt>
      <trkpt lat="43.62007" lon="3.75515">
        <ele>99</ele>
        <time>2021-05-14T12:55:14Z</time>
      </trkpt>
      <trkpt lat="43.62005" lon="3.75514">
        <ele>99</ele>
        <time>2021-05-14T12:55:19Z</time>
      </trkpt>
      <trkpt lat="43.61999" lon="3.75515">
        <ele>101</ele>
        <time>2021-05-14T12:55:35Z</time>
      </trkpt>
      <trkpt lat="43.61995" lon="3.75518">
        <ele>101</ele>
        <time>2021-05-14T12:55:36Z</time>
      </trkpt>
      <trkpt lat="43.61993" lon="3.75525">
        <ele>101</ele>
        <time>2021-05-14T12:55:38Z</time>
      </trkpt>
      <trkpt lat="43.61992" lon="3.75527">
        <ele>101</ele>
        <time>2021-05-14T12:55:39Z</time>
      </trkpt>
      <trkpt lat="43.6199" lon="3.75529">
        <ele>101</ele>
        <time>2021-05-14T12:55:40Z</time>
      </trkpt>
      <trkpt lat="43.61988" lon="3.75532">
        <ele>101</ele>
        <time>2021-05-14T12:55:41Z</time>
      </trkpt>
      <trkpt lat="43.61986" lon="3.75534">
        <ele>101</ele>
        <time>2021-05-14T12:55:42Z</time>
      </trkpt>
      <trkpt lat="43.61983" lon="3.75537">
        <ele>101</ele>
        <time>2021-05-14T12:55:43Z</time>
      </trkpt>
      <trkpt lat="43.6198" lon="3.75539">
        <ele>101</ele>
        <time>2021-05-14T12:55:44Z</time>
      </trkpt>
      <trkpt lat="43.61976" lon="3.7554">
        <ele>100</ele>
        <time>2021-05-14T12:55:45Z</time>
      </trkpt>
      <trkpt lat="43.61974" lon="3.7554">
        <ele>100</ele>
        <time>2021-05-14T12:55:46Z</time>
      </trkpt>
      <trkpt lat="43.61971" lon="3.7554">
        <ele>100</ele>
        <time>2021-05-14T12:55:47Z</time>
      </trkpt>
      <trkpt lat="43.61969" lon="3.7554">
        <ele>100</ele>
        <time>2021-05-14T12:55:49Z</time>
      </trkpt>
      <trkpt lat="43.61964" lon="3.75541">
        <ele>99</ele>
        <time>2021-05-14T12:56:08Z</time>
      </trkpt>
      <trkpt lat="43.61962" lon="3.75542">
        <ele>99</ele>
        <time>2021-05-14T12:56:09Z</time>
      </trkpt>
      <trkpt lat="43.61962" lon="3.75545">
        <ele>99</ele>
        <time>2021-05-14T12:56:11Z</time>
      </trkpt>
      <trkpt lat="43.61963" lon="3.75548">
        <ele>99</ele>
        <time>2021-05-14T12:56:13Z</time>
      </trkpt>
      <trkpt lat="43.61965" lon="3.75549">
        <ele>99</ele>
        <time>2021-05-14T12:56:15Z</time>
      </trkpt>
      <trkpt lat="43.61968" lon="3.7555">
        <ele>99</ele>
        <time>2021-05-14T12:56:18Z</time>
      </trkpt>
      <trkpt lat="43.61971" lon="3.75553">
        <ele>99</ele>
        <time>2021-05-14T12:56:19Z</time>
      </trkpt>
      <trkpt lat="43.61969" lon="3.7556">
        <ele>99</ele>
        <time>2021-05-14T12:56:22Z</time>
      </trkpt>
      <trkpt lat="43.61967" lon="3.75562">
        <ele>99</ele>
        <time>2021-05-14T12:56:23Z</time>
      </trkpt>
      <trkpt lat="43.61964" lon="3.75562">
        <ele>99</ele>
        <time>2021-05-14T12:56:24Z</time>
      </trkpt>
      <trkpt lat="43.61961" lon="3.75563">
        <ele>99</ele>
        <time>2021-05-14T12:56:25Z</time>
      </trkpt>
      <trkpt lat="43.61959" lon="3.75563">
        <ele>99</ele>
        <time>2021-05-14T12:56:26Z</time>
      </trkpt>
      <trkpt lat="43.61956" lon="3.75565">
        <ele>95</ele>
        <time>2021-05-14T12:56:27Z</time>
      </trkpt>
      <trkpt lat="43.61954" lon="3.75566">
        <ele>95</ele>
        <time>2021-05-14T12:56:28Z</time>
      </trkpt>
      <trkpt lat="43.61952" lon="3.75568">
        <ele>95</ele>
        <time>2021-05-14T12:56:29Z</time>
      </trkpt>
      <trkpt lat="43.61949" lon="3.7557">
        <ele>95</ele>
        <time>2021-05-14T12:56:30Z</time>
      </trkpt>
      <trkpt lat="43.61947" lon="3.75571">
        <ele>95</ele>
        <time>2021-05-14T12:56:31Z</time>
      </trkpt>
      <trkpt lat="43.61945" lon="3.75573">
        <ele>95</ele>
        <time>2021-05-14T12:56:32Z</time>
      </trkpt>
      <trkpt lat="43.61943" lon="3.75574">
        <ele>95</ele>
        <time>2021-05-14T12:56:33Z</time>
      </trkpt>
      <trkpt lat="43.6194" lon="3.75576">
        <ele>95</ele>
        <time>2021-05-14T12:56:34Z</time>
      </trkpt>
      <trkpt lat="43.61938" lon="3.75578">
        <ele>95</ele>
        <time>2021-05-14T12:56:35Z</time>
      </trkpt>
      <trkpt lat="43.61936" lon="3.7558">
        <ele>95</ele>
        <time>2021-05-14T12:56:36Z</time>
      </trkpt>
      <trkpt lat="43.61933" lon="3.75582">
        <ele>95</ele>
        <time>2021-05-14T12:56:37Z</time>
      </trkpt>
      <trkpt lat="43.61931" lon="3.75584">
        <ele>95</ele>
        <time>2021-05-14T12:56:38Z</time>
      </trkpt>
      <trkpt lat="43.61929" lon="3.75587">
        <ele>95</ele>
        <time>2021-05-14T12:56:39Z</time>
      </trkpt>
      <trkpt lat="43.61927" lon="3.75589">
        <ele>95</ele>
        <time>2021-05-14T12:56:40Z</time>
      </trkpt>
      <trkpt lat="43.61925" lon="3.75592">
        <ele>95</ele>
        <time>2021-05-14T12:56:41Z</time>
      </trkpt>
      <trkpt lat="43.61923" lon="3.75594">
        <ele>95</ele>
        <time>2021-05-14T12:56:42Z</time>
      </trkpt>
      <trkpt lat="43.61921" lon="3.75597">
        <ele>95</ele>
        <time>2021-05-14T12:56:43Z</time>
      </trkpt>
      <trkpt lat="43.61919" lon="3.756">
        <ele>95</ele>
        <time>2021-05-14T12:56:44Z</time>
      </trkpt>
      <trkpt lat="43.61917" lon="3.75603">
        <ele>95</ele>
        <time>2021-05-14T12:56:45Z</time>
      </trkpt>
      <trkpt lat="43.61915" lon="3.75605">
        <ele>95</ele>
        <time>2021-05-14T12:56:46Z</time>
      </trkpt>
      <trkpt lat="43.61913" lon="3.75608">
        <ele>94</ele>
        <time>2021-05-14T12:56:47Z</time>
      </trkpt>
      <trkpt lat="43.6191" lon="3.7561">
        <ele>94</ele>
        <time>2021-05-14T12:56:48Z</time>
      </trkpt>
      <trkpt lat="43.61908" lon="3.75612">
        <ele>94</ele>
        <time>2021-05-14T12:56:49Z</time>
      </trkpt>
      <trkpt lat="43.61905" lon="3.75614">
        <ele>94</ele>
        <time>2021-05-14T12:56:50Z</time>
      </trkpt>
      <trkpt lat="43.61902" lon="3.75615">
        <ele>94</ele>
        <time>2021-05-14T12:56:51Z</time>
      </trkpt>
      <trkpt lat="43.61899" lon="3.75615">
        <ele>94</ele>
        <time>2021-05-14T12:56:52Z</time>
      </trkpt>
      <trkpt lat="43.61897" lon="3.75614">
        <ele>94</ele>
        <time>2021-05-14T12:56:53Z</time>
      </trkpt>
      <trkpt lat="43.61894" lon="3.75614">
        <ele>94</ele>
        <time>2021-05-14T12:56:54Z</time>
      </trkpt>
      <trkpt lat="43.61891" lon="3.75613">
        <ele>94</ele>
        <time>2021-05-14T12:56:55Z</time>
      </trkpt>
      <trkpt lat="43.61888" lon="3.75612">
        <ele>94</ele>
        <time>2021-05-14T12:56:56Z</time>
      </trkpt>
      <trkpt lat="43.61885" lon="3.75611">
        <ele>94</ele>
        <time>2021-05-14T12:56:57Z</time>
      </trkpt>
      <trkpt lat="43.61882" lon="3.75611">
        <ele>94</ele>
        <time>2021-05-14T12:56:58Z</time>
      </trkpt>
      <trkpt lat="43.61879" lon="3.75611">
        <ele>94</ele>
        <time>2021-05-14T12:56:59Z</time>
      </trkpt>
      <trkpt lat="43.61876" lon="3.7561">
        <ele>94</ele>
        <time>2021-05-14T12:57:00Z</time>
      </trkpt>
      <trkpt lat="43.61872" lon="3.7561">
        <ele>94</ele>
        <time>2021-05-14T12:57:01Z</time>
      </trkpt>
      <trkpt lat="43.61869" lon="3.7561">
        <ele>94</ele>
        <time>2021-05-14T12:57:02Z</time>
      </trkpt>
      <trkpt lat="43.61866" lon="3.75609">
        <ele>94</ele>
        <time>2021-05-14T12:57:03Z</time>
      </trkpt>
      <trkpt lat="43.6186" lon="3.75608">
        <ele>94</ele>
        <time>2021-05-14T12:57:05Z</time>
      </trkpt>
      <trkpt lat="43.61857" lon="3.75607">
        <ele>94</ele>
        <time>2021-05-14T12:57:06Z</time>
      </trkpt>
      <trkpt lat="43.61854" lon="3.75605">
        <ele>93</ele>
        <time>2021-05-14T12:57:07Z</time>
      </trkpt>
      <trkpt lat="43.61852" lon="3.75604">
        <ele>93</ele>
        <time>2021-05-14T12:57:08Z</time>
      </trkpt>
      <trkpt lat="43.61849" lon="3.75602">
        <ele>93</ele>
        <time>2021-05-14T12:57:09Z</time>
      </trkpt>
      <trkpt lat="43.61846" lon="3.756">
        <ele>93</ele>
        <time>2021-05-14T12:57:10Z</time>
      </trkpt>
      <trkpt lat="43.61844" lon="3.75597">
        <ele>93</ele>
        <time>2021-05-14T12:57:11Z</time>
      </trkpt>
      <trkpt lat="43.61841" lon="3.75595">
        <ele>93</ele>
        <time>2021-05-14T12:57:12Z</time>
      </trkpt>
      <trkpt lat="43.61839" lon="3.75592">
        <ele>93</ele>
        <time>2021-05-14T12:57:13Z</time>
      </trkpt>
      <trkpt lat="43.61837" lon="3.75589">
        <ele>93</ele>
        <time>2021-05-14T12:57:14Z</time>
      </trkpt>
      <trkpt lat="43.61835" lon="3.75585">
        <ele>93</ele>
        <time>2021-05-14T12:57:15Z</time>
      </trkpt>
      <trkpt lat="43.61833" lon="3.75582">
        <ele>93</ele>
        <time>2021-05-14T12:57:16Z</time>
      </trkpt>
      <trkpt lat="43.61831" lon="3.75578">
        <ele>92</ele>
        <time>2021-05-14T12:57:17Z</time>
      </trkpt>
      <trkpt lat="43.6183" lon="3.75574">
        <ele>92</ele>
        <time>2021-05-14T12:57:18Z</time>
      </trkpt>
      <trkpt lat="43.61828" lon="3.7557">
        <ele>92</ele>
        <time>2021-05-14T12:57:19Z</time>
      </trkpt>
      <trkpt lat="43.61827" lon="3.75566">
        <ele>92</ele>
        <time>2021-05-14T12:57:20Z</time>
      </trkpt>
      <trkpt lat="43.61825" lon="3.75563">
        <ele>92</ele>
        <time>2021-05-14T12:57:21Z</time>
      </trkpt>
      <trkpt lat="43.61824" lon="3.75559">
        <ele>92</ele>
        <time>2021-05-14T12:57:22Z</time>
      </trkpt>
      <trkpt lat="43.61823" lon="3.75556">
        <ele>92</ele>
        <time>2021-05-14T12:57:23Z</time>
      </trkpt>
      <trkpt lat="43.61821" lon="3.75552">
        <ele>92</ele>
        <time>2021-05-14T12:57:24Z</time>
      </trkpt>
      <trkpt lat="43.61818" lon="3.75546">
        <ele>92</ele>
        <time>2021-05-14T12:57:26Z</time>
      </trkpt>
      <trkpt lat="43.61816" lon="3.75543">
        <ele>93</ele>
        <time>2021-05-14T12:57:27Z</time>
      </trkpt>
      <trkpt lat="43.61813" lon="3.7554">
        <ele>93</ele>
        <time>2021-05-14T12:57:28Z</time>
      </trkpt>
      <trkpt lat="43.61812" lon="3.75537">
        <ele>93</ele>
        <time>2021-05-14T12:57:29Z</time>
      </trkpt>
      <trkpt lat="43.61809" lon="3.75533">
        <ele>93</ele>
        <time>2021-05-14T12:57:30Z</time>
      </trkpt>
      <trkpt lat="43.61806" lon="3.7553">
        <ele>93</ele>
        <time>2021-05-14T12:57:31Z</time>
      </trkpt>
      <trkpt lat="43.61804" lon="3.75527">
        <ele>93</ele>
        <time>2021-05-14T12:57:32Z</time>
      </trkpt>
      <trkpt lat="43.61801" lon="3.75524">
        <ele>93</ele>
        <time>2021-05-14T12:57:33Z</time>
      </trkpt>
      <trkpt lat="43.61799" lon="3.75521">
        <ele>93</ele>
        <time>2021-05-14T12:57:34Z</time>
      </trkpt>
      <trkpt lat="43.61797" lon="3.75517">
        <ele>93</ele>
        <time>2021-05-14T12:57:35Z</time>
      </trkpt>
      <trkpt lat="43.61795" lon="3.75514">
        <ele>93</ele>
        <time>2021-05-14T12:57:36Z</time>
      </trkpt>
      <trkpt lat="43.61792" lon="3.75511">
        <ele>93</ele>
        <time>2021-05-14T12:57:37Z</time>
      </trkpt>
      <trkpt lat="43.6179" lon="3.75507">
        <ele>93</ele>
        <time>2021-05-14T12:57:38Z</time>
      </trkpt>
      <trkpt lat="43.61788" lon="3.75504">
        <ele>93</ele>
        <time>2021-05-14T12:57:39Z</time>
      </trkpt>
      <trkpt lat="43.61786" lon="3.75501">
        <ele>93</ele>
        <time>2021-05-14T12:57:40Z</time>
      </trkpt>
      <trkpt lat="43.61785" lon="3.75498">
        <ele>93</ele>
        <time>2021-05-14T12:57:41Z</time>
      </trkpt>
      <trkpt lat="43.61782" lon="3.75495">
        <ele>93</ele>
        <time>2021-05-14T12:57:42Z</time>
      </trkpt>
      <trkpt lat="43.6178" lon="3.75492">
        <ele>93</ele>
        <time>2021-05-14T12:57:43Z</time>
      </trkpt>
      <trkpt lat="43.61778" lon="3.75488">
        <ele>93</ele>
        <time>2021-05-14T12:57:44Z</time>
      </trkpt>
      <trkpt lat="43.61776" lon="3.75485">
        <ele>93</ele>
        <time>2021-05-14T12:57:45Z</time>
      </trkpt>
      <trkpt lat="43.61771" lon="3.75477">
        <ele>93</ele>
        <time>2021-05-14T12:57:47Z</time>
      </trkpt>
      <trkpt lat="43.61769" lon="3.75473">
        <ele>93</ele>
        <time>2021-05-14T12:57:48Z</time>
      </trkpt>
      <trkpt lat="43.61766" lon="3.7547">
        <ele>93</ele>
        <time>2021-05-14T12:57:49Z</time>
      </trkpt>
      <trkpt lat="43.61761" lon="3.75461">
        <ele>93</ele>
        <time>2021-05-14T12:57:51Z</time>
      </trkpt>
      <trkpt lat="43.61759" lon="3.75457">
        <ele>93</ele>
        <time>2021-05-14T12:57:52Z</time>
      </trkpt>
      <trkpt lat="43.61757" lon="3.75453">
        <ele>93</ele>
        <time>2021-05-14T12:57:53Z</time>
      </trkpt>
      <trkpt lat="43.61755" lon="3.7545">
        <ele>93</ele>
        <time>2021-05-14T12:57:54Z</time>
      </trkpt>
      <trkpt lat="43.61753" lon="3.75446">
        <ele>93</ele>
        <time>2021-05-14T12:57:55Z</time>
      </trkpt>
      <trkpt lat="43.6175" lon="3.75443">
        <ele>93</ele>
        <time>2021-05-14T12:57:56Z</time>
      </trkpt>
      <trkpt lat="43.61748" lon="3.75439">
        <ele>93</ele>
        <time>2021-05-14T12:57:57Z</time>
      </trkpt>
      <trkpt lat="43.61745" lon="3.75436">
        <ele>93</ele>
        <time>2021-05-14T12:57:58Z</time>
      </trkpt>
      <trkpt lat="43.61743" lon="3.75433">
        <ele>93</ele>
        <time>2021-05-14T12:57:59Z</time>
      </trkpt>
      <trkpt lat="43.6174" lon="3.75429">
        <ele>93</ele>
        <time>2021-05-14T12:58:00Z</time>
      </trkpt>
      <trkpt lat="43.61738" lon="3.75426">
        <ele>93</ele>
        <time>2021-05-14T12:58:01Z</time>
      </trkpt>
      <trkpt lat="43.61735" lon="3.75422">
        <ele>93</ele>
        <time>2021-05-14T12:58:02Z</time>
      </trkpt>
      <trkpt lat="43.61733" lon="3.75419">
        <ele>93</ele>
        <time>2021-05-14T12:58:03Z</time>
      </trkpt>
      <trkpt lat="43.6173" lon="3.75415">
        <ele>93</ele>
        <time>2021-05-14T12:58:04Z</time>
      </trkpt>
      <trkpt lat="43.61728" lon="3.75412">
        <ele>93</ele>
        <time>2021-05-14T12:58:05Z</time>
      </trkpt>
      <trkpt lat="43.61725" lon="3.75408">
        <ele>93</ele>
        <time>2021-05-14T12:58:06Z</time>
      </trkpt>
      <trkpt lat="43.61723" lon="3.75405">
        <ele>93</ele>
        <time>2021-05-14T12:58:07Z</time>
      </trkpt>
      <trkpt lat="43.61721" lon="3.75401">
        <ele>93</ele>
        <time>2021-05-14T12:58:08Z</time>
      </trkpt>
      <trkpt lat="43.61718" lon="3.75398">
        <ele>93</ele>
        <time>2021-05-14T12:58:09Z</time>
      </trkpt>
      <trkpt lat="43.61716" lon="3.75395">
        <ele>93</ele>
        <time>2021-05-14T12:58:10Z</time>
      </trkpt>
      <trkpt lat="43.61713" lon="3.75391">
        <ele>93</ele>
        <time>2021-05-14T12:58:11Z</time>
      </trkpt>
      <trkpt lat="43.6171" lon="3.75388">
        <ele>93</ele>
        <time>2021-05-14T12:58:12Z</time>
      </trkpt>
      <trkpt lat="43.61708" lon="3.75385">
        <ele>93</ele>
        <time>2021-05-14T12:58:13Z</time>
      </trkpt>
      <trkpt lat="43.61705" lon="3.75381">
        <ele>93</ele>
        <time>2021-05-14T12:58:14Z</time>
      </trkpt>
      <trkpt lat="43.61703" lon="3.75377">
        <ele>93</ele>
        <time>2021-05-14T12:58:15Z</time>
      </trkpt>
      <trkpt lat="43.61702" lon="3.75373">
        <ele>93</ele>
        <time>2021-05-14T12:58:16Z</time>
      </trkpt>
      <trkpt lat="43.617" lon="3.75369">
        <ele>94</ele>
        <time>2021-05-14T12:58:17Z</time>
      </trkpt>
      <trkpt lat="43.61699" lon="3.75364">
        <ele>94</ele>
        <time>2021-05-14T12:58:18Z</time>
      </trkpt>
      <trkpt lat="43.61698" lon="3.7536">
        <ele>94</ele>
        <time>2021-05-14T12:58:19Z</time>
      </trkpt>
      <trkpt lat="43.61698" lon="3.75356">
        <ele>94</ele>
        <time>2021-05-14T12:58:20Z</time>
      </trkpt>
      <trkpt lat="43.61698" lon="3.75352">
        <ele>94</ele>
        <time>2021-05-14T12:58:21Z</time>
      </trkpt>
      <trkpt lat="43.61697" lon="3.75348">
        <ele>94</ele>
        <time>2021-05-14T12:58:22Z</time>
      </trkpt>
      <trkpt lat="43.61697" lon="3.75345">
        <ele>94</ele>
        <time>2021-05-14T12:58:23Z</time>
      </trkpt>
      <trkpt lat="43.61696" lon="3.75341">
        <ele>94</ele>
        <time>2021-05-14T12:58:24Z</time>
      </trkpt>
      <trkpt lat="43.61695" lon="3.75337">
        <ele>94</ele>
        <time>2021-05-14T12:58:25Z</time>
      </trkpt>
      <trkpt lat="43.61694" lon="3.75334">
        <ele>94</ele>
        <time>2021-05-14T12:58:26Z</time>
      </trkpt>
      <trkpt lat="43.61692" lon="3.7533">
        <ele>95</ele>
        <time>2021-05-14T12:58:27Z</time>
      </trkpt>
      <trkpt lat="43.6169" lon="3.75325">
        <ele>95</ele>
        <time>2021-05-14T12:58:28Z</time>
      </trkpt>
      <trkpt lat="43.61685" lon="3.75318">
        <ele>95</ele>
        <time>2021-05-14T12:58:30Z</time>
      </trkpt>
      <trkpt lat="43.61683" lon="3.75314">
        <ele>95</ele>
        <time>2021-05-14T12:58:31Z</time>
      </trkpt>
      <trkpt lat="43.61681" lon="3.75311">
        <ele>95</ele>
        <time>2021-05-14T12:58:32Z</time>
      </trkpt>
      <trkpt lat="43.61676" lon="3.75303">
        <ele>95</ele>
        <time>2021-05-14T12:58:34Z</time>
      </trkpt>
      <trkpt lat="43.61674" lon="3.753">
        <ele>95</ele>
        <time>2021-05-14T12:58:35Z</time>
      </trkpt>
      <trkpt lat="43.61671" lon="3.75297">
        <ele>95</ele>
        <time>2021-05-14T12:58:36Z</time>
      </trkpt>
      <trkpt lat="43.61669" lon="3.75293">
        <ele>95</ele>
        <time>2021-05-14T12:58:37Z</time>
      </trkpt>
      <trkpt lat="43.61667" lon="3.7529">
        <ele>95</ele>
        <time>2021-05-14T12:58:38Z</time>
      </trkpt>
      <trkpt lat="43.61665" lon="3.75287">
        <ele>95</ele>
        <time>2021-05-14T12:58:39Z</time>
      </trkpt>
      <trkpt lat="43.61664" lon="3.75284">
        <ele>95</ele>
        <time>2021-05-14T12:58:40Z</time>
      </trkpt>
      <trkpt lat="43.61663" lon="3.75281">
        <ele>95</ele>
        <time>2021-05-14T12:58:41Z</time>
      </trkpt>
      <trkpt lat="43.61661" lon="3.75273">
        <ele>95</ele>
        <time>2021-05-14T12:58:43Z</time>
      </trkpt>
      <trkpt lat="43.6166" lon="3.75268">
        <ele>95</ele>
        <time>2021-05-14T12:58:44Z</time>
      </trkpt>
      <trkpt lat="43.6166" lon="3.75263">
        <ele>95</ele>
        <time>2021-05-14T12:58:45Z</time>
      </trkpt>
      <trkpt lat="43.6166" lon="3.75258">
        <ele>95</ele>
        <time>2021-05-14T12:58:46Z</time>
      </trkpt>
      <trkpt lat="43.61661" lon="3.75253">
        <ele>96</ele>
        <time>2021-05-14T12:58:47Z</time>
      </trkpt>
      <trkpt lat="43.61662" lon="3.75247">
        <ele>96</ele>
        <time>2021-05-14T12:58:48Z</time>
      </trkpt>
      <trkpt lat="43.61663" lon="3.75241">
        <ele>96</ele>
        <time>2021-05-14T12:58:49Z</time>
      </trkpt>
      <trkpt lat="43.61663" lon="3.75235">
        <ele>96</ele>
        <time>2021-05-14T12:58:50Z</time>
      </trkpt>
      <trkpt lat="43.61663" lon="3.7523">
        <ele>96</ele>
        <time>2021-05-14T12:58:51Z</time>
      </trkpt>
      <trkpt lat="43.61663" lon="3.75225">
        <ele>96</ele>
        <time>2021-05-14T12:58:52Z</time>
      </trkpt>
      <trkpt lat="43.61664" lon="3.7522">
        <ele>96</ele>
        <time>2021-05-14T12:58:53Z</time>
      </trkpt>
      <trkpt lat="43.61666" lon="3.75215">
        <ele>96</ele>
        <time>2021-05-14T12:58:54Z</time>
      </trkpt>
      <trkpt lat="43.61668" lon="3.75211">
        <ele>96</ele>
        <time>2021-05-14T12:58:55Z</time>
      </trkpt>
      <trkpt lat="43.6167" lon="3.75207">
        <ele>96</ele>
        <time>2021-05-14T12:58:56Z</time>
      </trkpt>
      <trkpt lat="43.61673" lon="3.75204">
        <ele>97</ele>
        <time>2021-05-14T12:58:57Z</time>
      </trkpt>
      <trkpt lat="43.61676" lon="3.75201">
        <ele>97</ele>
        <time>2021-05-14T12:58:58Z</time>
      </trkpt>
      <trkpt lat="43.61679" lon="3.75198">
        <ele>97</ele>
        <time>2021-05-14T12:58:59Z</time>
      </trkpt>
      <trkpt lat="43.61681" lon="3.75194">
        <ele>97</ele>
        <time>2021-05-14T12:59:00Z</time>
      </trkpt>
      <trkpt lat="43.61684" lon="3.7519">
        <ele>97</ele>
        <time>2021-05-14T12:59:01Z</time>
      </trkpt>
      <trkpt lat="43.61687" lon="3.75187">
        <ele>97</ele>
        <time>2021-05-14T12:59:02Z</time>
      </trkpt>
      <trkpt lat="43.6169" lon="3.75184">
        <ele>97</ele>
        <time>2021-05-14T12:59:03Z</time>
      </trkpt>
      <trkpt lat="43.61693" lon="3.7518">
        <ele>97</ele>
        <time>2021-05-14T12:59:04Z</time>
      </trkpt>
      <trkpt lat="43.61696" lon="3.75177">
        <ele>97</ele>
        <time>2021-05-14T12:59:05Z</time>
      </trkpt>
      <trkpt lat="43.61698" lon="3.75173">
        <ele>97</ele>
        <time>2021-05-14T12:59:06Z</time>
      </trkpt>
      <trkpt lat="43.61699" lon="3.75169">
        <ele>98</ele>
        <time>2021-05-14T12:59:07Z</time>
      </trkpt>
      <trkpt lat="43.61701" lon="3.75165">
        <ele>98</ele>
        <time>2021-05-14T12:59:08Z</time>
      </trkpt>
      <trkpt lat="43.61702" lon="3.7516">
        <ele>98</ele>
        <time>2021-05-14T12:59:09Z</time>
      </trkpt>
      <trkpt lat="43.61702" lon="3.75156">
        <ele>98</ele>
        <time>2021-05-14T12:59:10Z</time>
      </trkpt>
      <trkpt lat="43.61702" lon="3.75152">
        <ele>98</ele>
        <time>2021-05-14T12:59:11Z</time>
      </trkpt>
      <trkpt lat="43.61702" lon="3.75148">
        <ele>98</ele>
        <time>2021-05-14T12:59:12Z</time>
      </trkpt>
      <trkpt lat="43.61703" lon="3.75144">
        <ele>98</ele>
        <time>2021-05-14T12:59:13Z</time>
      </trkpt>
      <trkpt lat="43.61704" lon="3.75141">
        <ele>98</ele>
        <time>2021-05-14T12:59:14Z</time>
      </trkpt>
      <trkpt lat="43.61704" lon="3.75138">
        <ele>98</ele>
        <time>2021-05-14T12:59:15Z</time>
      </trkpt>
      <trkpt lat="43.61705" lon="3.75135">
        <ele>98</ele>
        <time>2021-05-14T12:59:16Z</time>
      </trkpt>
      <trkpt lat="43.61707" lon="3.75131">
        <ele>98</ele>
        <time>2021-05-14T12:59:18Z</time>
      </trkpt>
      <trkpt lat="43.61709" lon="3.75128">
        <ele>98</ele>
        <time>2021-05-14T12:59:20Z</time>
      </trkpt>
      <trkpt lat="43.61711" lon="3.75127">
        <ele>98</ele>
        <time>2021-05-14T12:59:21Z</time>
      </trkpt>
      <trkpt lat="43.61713" lon="3.75126">
        <ele>98</ele>
        <time>2021-05-14T12:59:22Z</time>
      </trkpt>
      <trkpt lat="43.61716" lon="3.75126">
        <ele>98</ele>
        <time>2021-05-14T12:59:23Z</time>
      </trkpt>
      <trkpt lat="43.61718" lon="3.75125">
        <ele>98</ele>
        <time>2021-05-14T12:59:24Z</time>
      </trkpt>
      <trkpt lat="43.6172" lon="3.75125">
        <ele>98</ele>
        <time>2021-05-14T12:59:25Z</time>
      </trkpt>
      <trkpt lat="43.61723" lon="3.75124">
        <ele>98</ele>
        <time>2021-05-14T12:59:26Z</time>
      </trkpt>
      <trkpt lat="43.61725" lon="3.75123">
        <ele>103</ele>
        <time>2021-05-14T12:59:27Z</time>
      </trkpt>
      <trkpt lat="43.61727" lon="3.75121">
        <ele>103</ele>
        <time>2021-05-14T12:59:28Z</time>
      </trkpt>
      <trkpt lat="43.61729" lon="3.75119">
        <ele>103</ele>
        <time>2021-05-14T12:59:29Z</time>
      </trkpt>
      <trkpt lat="43.61731" lon="3.75117">
        <ele>103</ele>
        <time>2021-05-14T12:59:30Z</time>
      </trkpt>
      <trkpt lat="43.61733" lon="3.75115">
        <ele>103</ele>
        <time>2021-05-14T12:59:31Z</time>
      </trkpt>
      <trkpt lat="43.61735" lon="3.75112">
        <ele>103</ele>
        <time>2021-05-14T12:59:32Z</time>
      </trkpt>
      <trkpt lat="43.61737" lon="3.75109">
        <ele>103</ele>
        <time>2021-05-14T12:59:33Z</time>
      </trkpt>
      <trkpt lat="43.6174" lon="3.75106">
        <ele>103</ele>
        <time>2021-05-14T12:59:34Z</time>
      </trkpt>
      <trkpt lat="43.61742" lon="3.75103">
        <ele>103</ele>
        <time>2021-05-14T12:59:35Z</time>
      </trkpt>
      <trkpt lat="43.61743" lon="3.75099">
        <ele>103</ele>
        <time>2021-05-14T12:59:36Z</time>
      </trkpt>
      <trkpt lat="43.61746" lon="3.75096">
        <ele>104</ele>
        <time>2021-05-14T12:59:37Z</time>
      </trkpt>
      <trkpt lat="43.61748" lon="3.75093">
        <ele>104</ele>
        <time>2021-05-14T12:59:38Z</time>
      </trkpt>
      <trkpt lat="43.6175" lon="3.7509">
        <ele>104</ele>
        <time>2021-05-14T12:59:39Z</time>
      </trkpt>
      <trkpt lat="43.61752" lon="3.75088">
        <ele>104</ele>
        <time>2021-05-14T12:59:40Z</time>
      </trkpt>
      <trkpt lat="43.61754" lon="3.75085">
        <ele>104</ele>
        <time>2021-05-14T12:59:41Z</time>
      </trkpt>
      <trkpt lat="43.61757" lon="3.75083">
        <ele>104</ele>
        <time>2021-05-14T12:59:42Z</time>
      </trkpt>
      <trkpt lat="43.61759" lon="3.75081">
        <ele>104</ele>
        <time>2021-05-14T12:59:43Z</time>
      </trkpt>
      <trkpt lat="43.61761" lon="3.75078">
        <ele>104</ele>
        <time>2021-05-14T12:59:44Z</time>
      </trkpt>
      <trkpt lat="43.61764" lon="3.75076">
        <ele>104</ele>
        <time>2021-05-14T12:59:45Z</time>
      </trkpt>
      <trkpt lat="43.61766" lon="3.75073">
        <ele>104</ele>
        <time>2021-05-14T12:59:46Z</time>
      </trkpt>
      <trkpt lat="43.61768" lon="3.75071">
        <ele>106</ele>
        <time>2021-05-14T12:59:47Z</time>
      </trkpt>
      <trkpt lat="43.6177" lon="3.7507">
        <ele>106</ele>
        <time>2021-05-14T12:59:48Z</time>
      </trkpt>
      <trkpt lat="43.61773" lon="3.75068">
        <ele>106</ele>
        <time>2021-05-14T12:59:50Z</time>
      </trkpt>
      <trkpt lat="43.61776" lon="3.75066">
        <ele>106</ele>
        <time>2021-05-14T12:59:51Z</time>
      </trkpt>
      <trkpt lat="43.61778" lon="3.75065">
        <ele>106</ele>
        <time>2021-05-14T12:59:52Z</time>
      </trkpt>
      <trkpt lat="43.61781" lon="3.75064">
        <ele>106</ele>
        <time>2021-05-14T12:59:53Z</time>
      </trkpt>
      <trkpt lat="43.61784" lon="3.75061">
        <ele>106</ele>
        <time>2021-05-14T12:59:54Z</time>
      </trkpt>
      <trkpt lat="43.61787" lon="3.75057">
        <ele>106</ele>
        <time>2021-05-14T12:59:55Z</time>
      </trkpt>
      <trkpt lat="43.61792" lon="3.75052">
        <ele>107</ele>
        <time>2021-05-14T12:59:57Z</time>
      </trkpt>
      <trkpt lat="43.61796" lon="3.75047">
        <ele>107</ele>
        <time>2021-05-14T12:59:59Z</time>
      </trkpt>
      <trkpt lat="43.61798" lon="3.75043">
        <ele>107</ele>
        <time>2021-05-14T13:00:00Z</time>
      </trkpt>
      <trkpt lat="43.618" lon="3.7504">
        <ele>107</ele>
        <time>2021-05-14T13:00:01Z</time>
      </trkpt>
      <trkpt lat="43.61801" lon="3.75037">
        <ele>107</ele>
        <time>2021-05-14T13:00:02Z</time>
      </trkpt>
      <trkpt lat="43.61803" lon="3.75034">
        <ele>107</ele>
        <time>2021-05-14T13:00:03Z</time>
      </trkpt>
      <trkpt lat="43.61804" lon="3.75031">
        <ele>107</ele>
        <time>2021-05-14T13:00:04Z</time>
      </trkpt>
      <trkpt lat="43.61805" lon="3.75027">
        <ele>107</ele>
        <time>2021-05-14T13:00:05Z</time>
      </trkpt>
      <trkpt lat="43.61806" lon="3.75022">
        <ele>107</ele>
        <time>2021-05-14T13:00:06Z</time>
      </trkpt>
      <trkpt lat="43.61806" lon="3.75017">
        <ele>107</ele>
        <time>2021-05-14T13:00:07Z</time>
      </trkpt>
      <trkpt lat="43.61806" lon="3.75012">
        <ele>107</ele>
        <time>2021-05-14T13:00:08Z</time>
      </trkpt>
      <trkpt lat="43.61806" lon="3.75007">
        <ele>107</ele>
        <time>2021-05-14T13:00:09Z</time>
      </trkpt>
      <trkpt lat="43.61806" lon="3.74999">
        <ele>107</ele>
        <time>2021-05-14T13:00:11Z</time>
      </trkpt>
      <trkpt lat="43.61806" lon="3.74995">
        <ele>107</ele>
        <time>2021-05-14T13:00:12Z</time>
      </trkpt>
      <trkpt lat="43.61805" lon="3.74991">
        <ele>107</ele>
        <time>2021-05-14T13:00:13Z</time>
      </trkpt>
      <trkpt lat="43.61802" lon="3.74981">
        <ele>107</ele>
        <time>2021-05-14T13:00:15Z</time>
      </trkpt>
      <trkpt lat="43.61801" lon="3.74976">
        <ele>107</ele>
        <time>2021-05-14T13:00:16Z</time>
      </trkpt>
      <trkpt lat="43.618" lon="3.74972">
        <ele>106</ele>
        <time>2021-05-14T13:00:17Z</time>
      </trkpt>
      <trkpt lat="43.61798" lon="3.74968">
        <ele>106</ele>
        <time>2021-05-14T13:00:18Z</time>
      </trkpt>
      <trkpt lat="43.61797" lon="3.74964">
        <ele>106</ele>
        <time>2021-05-14T13:00:19Z</time>
      </trkpt>
      <trkpt lat="43.61795" lon="3.74961">
        <ele>106</ele>
        <time>2021-05-14T13:00:20Z</time>
      </trkpt>
      <trkpt lat="43.61794" lon="3.74958">
        <ele>106</ele>
        <time>2021-05-14T13:00:21Z</time>
      </trkpt>
      <trkpt lat="43.61793" lon="3.74955">
        <ele>106</ele>
        <time>2021-05-14T13:00:22Z</time>
      </trkpt>
      <trkpt lat="43.61791" lon="3.74951">
        <ele>106</ele>
        <time>2021-05-14T13:00:23Z</time>
      </trkpt>
      <trkpt lat="43.61789" lon="3.74946">
        <ele>106</ele>
        <time>2021-05-14T13:00:24Z</time>
      </trkpt>
      <trkpt lat="43.61787" lon="3.74943">
        <ele>106</ele>
        <time>2021-05-14T13:00:25Z</time>
      </trkpt>
      <trkpt lat="43.61785" lon="3.7494">
        <ele>106</ele>
        <time>2021-05-14T13:00:26Z</time>
      </trkpt>
      <trkpt lat="43.61783" lon="3.74937">
        <ele>106</ele>
        <time>2021-05-14T13:00:27Z</time>
      </trkpt>
      <trkpt lat="43.61781" lon="3.74934">
        <ele>106</ele>
        <time>2021-05-14T13:00:28Z</time>
      </trkpt>
      <trkpt lat="43.6178" lon="3.74932">
        <ele>106</ele>
        <time>2021-05-14T13:00:29Z</time>
      </trkpt>
      <trkpt lat="43.61778" lon="3.74929">
        <ele>106</ele>
        <time>2021-05-14T13:00:30Z</time>
      </trkpt>
      <trkpt lat="43.61775" lon="3.74927">
        <ele>106</ele>
        <time>2021-05-14T13:00:31Z</time>
      </trkpt>
      <trkpt lat="43.61773" lon="3.74924">
        <ele>106</ele>
        <time>2021-05-14T13:00:32Z</time>
      </trkpt>
      <trkpt lat="43.61771" lon="3.74922">
        <ele>106</ele>
        <time>2021-05-14T13:00:33Z</time>
      </trkpt>
      <trkpt lat="43.61769" lon="3.74919">
        <ele>106</ele>
        <time>2021-05-14T13:00:34Z</time>
      </trkpt>
      <trkpt lat="43.61767" lon="3.74916">
        <ele>106</ele>
        <time>2021-05-14T13:00:35Z</time>
      </trkpt>
      <trkpt lat="43.61765" lon="3.74915">
        <ele>106</ele>
        <time>2021-05-14T13:00:36Z</time>
      </trkpt>
      <trkpt lat="43.61763" lon="3.74913">
        <ele>107</ele>
        <time>2021-05-14T13:00:37Z</time>
      </trkpt>
      <trkpt lat="43.6176" lon="3.74911">
        <ele>107</ele>
        <time>2021-05-14T13:00:38Z</time>
      </trkpt>
      <trkpt lat="43.61757" lon="3.74908">
        <ele>107</ele>
        <time>2021-05-14T13:00:39Z</time>
      </trkpt>
      <trkpt lat="43.61754" lon="3.74907">
        <ele>107</ele>
        <time>2021-05-14T13:00:40Z</time>
      </trkpt>
      <trkpt lat="43.61752" lon="3.74905">
        <ele>107</ele>
        <time>2021-05-14T13:00:41Z</time>
      </trkpt>
      <trkpt lat="43.6175" lon="3.74903">
        <ele>107</ele>
        <time>2021-05-14T13:00:42Z</time>
      </trkpt>
      <trkpt lat="43.61747" lon="3.74902">
        <ele>107</ele>
        <time>2021-05-14T13:00:43Z</time>
      </trkpt>
      <trkpt lat="43.61744" lon="3.74901">
        <ele>107</ele>
        <time>2021-05-14T13:00:44Z</time>
      </trkpt>
      <trkpt lat="43.61742" lon="3.749">
        <ele>107</ele>
        <time>2021-05-14T13:00:45Z</time>
      </trkpt>
      <trkpt lat="43.61739" lon="3.74899">
        <ele>107</ele>
        <time>2021-05-14T13:00:46Z</time>
      </trkpt>
      <trkpt lat="43.61737" lon="3.74898">
        <ele>108</ele>
        <time>2021-05-14T13:00:47Z</time>
      </trkpt>
      <trkpt lat="43.61735" lon="3.74898">
        <ele>108</ele>
        <time>2021-05-14T13:00:48Z</time>
      </trkpt>
      <trkpt lat="43.61733" lon="3.74896">
        <ele>108</ele>
        <time>2021-05-14T13:00:49Z</time>
      </trkpt>
      <trkpt lat="43.61731" lon="3.74894">
        <ele>108</ele>
        <time>2021-05-14T13:00:50Z</time>
      </trkpt>
      <trkpt lat="43.61728" lon="3.74892">
        <ele>108</ele>
        <time>2021-05-14T13:00:51Z</time>
      </trkpt>
      <trkpt lat="43.61724" lon="3.7489">
        <ele>108</ele>
        <time>2021-05-14T13:00:52Z</time>
      </trkpt>
      <trkpt lat="43.61722" lon="3.74888">
        <ele>108</ele>
        <time>2021-05-14T13:00:53Z</time>
      </trkpt>
      <trkpt lat="43.61719" lon="3.74886">
        <ele>108</ele>
        <time>2021-05-14T13:00:54Z</time>
      </trkpt>
      <trkpt lat="43.61717" lon="3.74884">
        <ele>108</ele>
        <time>2021-05-14T13:00:55Z</time>
      </trkpt>
      <trkpt lat="43.61715" lon="3.74881">
        <ele>108</ele>
        <time>2021-05-14T13:00:56Z</time>
      </trkpt>
      <trkpt lat="43.61713" lon="3.74878">
        <ele>109</ele>
        <time>2021-05-14T13:00:57Z</time>
      </trkpt>
      <trkpt lat="43.61709" lon="3.74871">
        <ele>109</ele>
        <time>2021-05-14T13:00:59Z</time>
      </trkpt>
      <trkpt lat="43.61707" lon="3.74867">
        <ele>109</ele>
        <time>2021-05-14T13:01:00Z</time>
      </trkpt>
      <trkpt lat="43.61705" lon="3.74862">
        <ele>109</ele>
        <time>2021-05-14T13:01:01Z</time>
      </trkpt>
      <trkpt lat="43.61703" lon="3.74853">
        <ele>109</ele>
        <time>2021-05-14T13:01:03Z</time>
      </trkpt>
      <trkpt lat="43.61702" lon="3.7485">
        <ele>109</ele>
        <time>2021-05-14T13:01:04Z</time>
      </trkpt>
      <trkpt lat="43.61702" lon="3.74846">
        <ele>109</ele>
        <time>2021-05-14T13:01:05Z</time>
      </trkpt>
      <trkpt lat="43.61702" lon="3.74842">
        <ele>109</ele>
        <time>2021-05-14T13:01:06Z</time>
      </trkpt>
      <trkpt lat="43.61701" lon="3.74838">
        <ele>110</ele>
        <time>2021-05-14T13:01:07Z</time>
      </trkpt>
      <trkpt lat="43.61701" lon="3.74835">
        <ele>110</ele>
        <time>2021-05-14T13:01:08Z</time>
      </trkpt>
      <trkpt lat="43.617" lon="3.7483">
        <ele>110</ele>
        <time>2021-05-14T13:01:09Z</time>
      </trkpt>
      <trkpt lat="43.617" lon="3.74827">
        <ele>110</ele>
        <time>2021-05-14T13:01:10Z</time>
      </trkpt>
      <trkpt lat="43.61699" lon="3.74822">
        <ele>110</ele>
        <time>2021-05-14T13:01:11Z</time>
      </trkpt>
      <trkpt lat="43.61698" lon="3.74818">
        <ele>110</ele>
        <time>2021-05-14T13:01:12Z</time>
      </trkpt>
      <trkpt lat="43.61697" lon="3.74815">
        <ele>110</ele>
        <time>2021-05-14T13:01:13Z</time>
      </trkpt>
      <trkpt lat="43.61696" lon="3.7481">
        <ele>110</ele>
        <time>2021-05-14T13:01:14Z</time>
      </trkpt>
      <trkpt lat="43.61695" lon="3.74805">
        <ele>110</ele>
        <time>2021-05-14T13:01:15Z</time>
      </trkpt>
      <trkpt lat="43.61694" lon="3.74801">
        <ele>110</ele>
        <time>2021-05-14T13:01:16Z</time>
      </trkpt>
      <trkpt lat="43.61692" lon="3.74798">
        <ele>112</ele>
        <time>2021-05-14T13:01:17Z</time>
      </trkpt>
      <trkpt lat="43.61691" lon="3.74794">
        <ele>112</ele>
        <time>2021-05-14T13:01:18Z</time>
      </trkpt>
      <trkpt lat="43.6169" lon="3.7479">
        <ele>112</ele>
        <time>2021-05-14T13:01:19Z</time>
      </trkpt>
      <trkpt lat="43.61689" lon="3.74787">
        <ele>112</ele>
        <time>2021-05-14T13:01:20Z</time>
      </trkpt>
      <trkpt lat="43.61689" lon="3.74784">
        <ele>112</ele>
        <time>2021-05-14T13:01:21Z</time>
      </trkpt>
      <trkpt lat="43.61688" lon="3.74781">
        <ele>112</ele>
        <time>2021-05-14T13:01:22Z</time>
      </trkpt>
      <trkpt lat="43.61686" lon="3.74775">
        <ele>112</ele>
        <time>2021-05-14T13:01:24Z</time>
      </trkpt>
      <trkpt lat="43.61685" lon="3.74772">
        <ele>112</ele>
        <time>2021-05-14T13:01:25Z</time>
      </trkpt>
      <trkpt lat="43.61683" lon="3.74768">
        <ele>112</ele>
        <time>2021-05-14T13:01:26Z</time>
      </trkpt>
      <trkpt lat="43.61681" lon="3.74761">
        <ele>112</ele>
        <time>2021-05-14T13:01:28Z</time>
      </trkpt>
      <trkpt lat="43.6168" lon="3.74758">
        <ele>112</ele>
        <time>2021-05-14T13:01:29Z</time>
      </trkpt>
      <trkpt lat="43.61679" lon="3.74755">
        <ele>112</ele>
        <time>2021-05-14T13:01:30Z</time>
      </trkpt>
      <trkpt lat="43.61677" lon="3.74752">
        <ele>112</ele>
        <time>2021-05-14T13:01:31Z</time>
      </trkpt>
      <trkpt lat="43.61675" lon="3.74749">
        <ele>112</ele>
        <time>2021-05-14T13:01:32Z</time>
      </trkpt>
      <trkpt lat="43.61674" lon="3.74746">
        <ele>112</ele>
        <time>2021-05-14T13:01:33Z</time>
      </trkpt>
      <trkpt lat="43.61672" lon="3.74743">
        <ele>112</ele>
        <time>2021-05-14T13:01:34Z</time>
      </trkpt>
      <trkpt lat="43.61671" lon="3.7474">
        <ele>112</ele>
        <time>2021-05-14T13:01:35Z</time>
      </trkpt>
      <trkpt lat="43.6167" lon="3.74737">
        <ele>112</ele>
        <time>2021-05-14T13:01:36Z</time>
      </trkpt>
      <trkpt lat="43.61669" lon="3.74734">
        <ele>112</ele>
        <time>2021-05-14T13:01:37Z</time>
      </trkpt>
      <trkpt lat="43.61668" lon="3.7473">
        <ele>112</ele>
        <time>2021-05-14T13:01:38Z</time>
      </trkpt>
      <trkpt lat="43.61667" lon="3.74727">
        <ele>112</ele>
        <time>2021-05-14T13:01:39Z</time>
      </trkpt>
      <trkpt lat="43.61666" lon="3.74724">
        <ele>112</ele>
        <time>2021-05-14T13:01:40Z</time>
      </trkpt>
      <trkpt lat="43.61666" lon="3.74721">
        <ele>112</ele>
        <time>2021-05-14T13:01:41Z</time>
      </trkpt>
      <trkpt lat="43.61665" lon="3.74717">
        <ele>112</ele>
        <time>2021-05-14T13:01:42Z</time>
      </trkpt>
      <trkpt lat="43.61664" lon="3.74714">
        <ele>112</ele>
        <time>2021-05-14T13:01:43Z</time>
      </trkpt>
      <trkpt lat="43.61663" lon="3.74711">
        <ele>112</ele>
        <time>2021-05-14T13:01:44Z</time>
      </trkpt>
      <trkpt lat="43.61662" lon="3.74708">
        <ele>112</ele>
        <time>2021-05-14T13:01:45Z</time>
      </trkpt>
      <trkpt lat="43.61661" lon="3.74705">
        <ele>112</ele>
        <time>2021-05-14T13:01:46Z</time>
      </trkpt>
      <trkpt lat="43.6166" lon="3.74702">
        <ele>112</ele>
        <time>2021-05-14T13:01:47Z</time>
      </trkpt>
      <trkpt lat="43.61658" lon="3.74699">
        <ele>112</ele>
        <time>2021-05-14T13:01:48Z</time>
      </trkpt>
      <trkpt lat="43.61657" lon="3.74695">
        <ele>112</ele>
        <time>2021-05-14T13:01:49Z</time>
      </trkpt>
      <trkpt lat="43.61656" lon="3.74693">
        <ele>112</ele>
        <time>2021-05-14T13:01:50Z</time>
      </trkpt>
      <trkpt lat="43.61655" lon="3.74689">
        <ele>112</ele>
        <time>2021-05-14T13:01:51Z</time>
      </trkpt>
      <trkpt lat="43.61654" lon="3.74686">
        <ele>112</ele>
        <time>2021-05-14T13:01:52Z</time>
      </trkpt>
      <trkpt lat="43.61653" lon="3.74684">
        <ele>112</ele>
        <time>2021-05-14T13:01:53Z</time>
      </trkpt>
      <trkpt lat="43.61651" lon="3.74681">
        <ele>112</ele>
        <time>2021-05-14T13:01:54Z</time>
      </trkpt>
      <trkpt lat="43.6165" lon="3.74678">
        <ele>112</ele>
        <time>2021-05-14T13:01:55Z</time>
      </trkpt>
      <trkpt lat="43.61649" lon="3.74676">
        <ele>112</ele>
        <time>2021-05-14T13:01:56Z</time>
      </trkpt>
      <trkpt lat="43.61647" lon="3.74673">
        <ele>113</ele>
        <time>2021-05-14T13:01:57Z</time>
      </trkpt>
      <trkpt lat="43.61645" lon="3.74671">
        <ele>113</ele>
        <time>2021-05-14T13:01:58Z</time>
      </trkpt>
      <trkpt lat="43.61644" lon="3.74668">
        <ele>113</ele>
        <time>2021-05-14T13:01:59Z</time>
      </trkpt>
      <trkpt lat="43.61642" lon="3.74666">
        <ele>113</ele>
        <time>2021-05-14T13:02:00Z</time>
      </trkpt>
      <trkpt lat="43.61639" lon="3.74663">
        <ele>113</ele>
        <time>2021-05-14T13:02:01Z</time>
      </trkpt>
      <trkpt lat="43.61637" lon="3.74659">
        <ele>113</ele>
        <time>2021-05-14T13:02:02Z</time>
      </trkpt>
      <trkpt lat="43.61635" lon="3.74656">
        <ele>113</ele>
        <time>2021-05-14T13:02:03Z</time>
      </trkpt>
      <trkpt lat="43.61634" lon="3.74653">
        <ele>113</ele>
        <time>2021-05-14T13:02:04Z</time>
      </trkpt>
      <trkpt lat="43.61632" lon="3.7465">
        <ele>113</ele>
        <time>2021-05-14T13:02:05Z</time>
      </trkpt>
      <trkpt lat="43.61631" lon="3.74647">
        <ele>113</ele>
        <time>2021-05-14T13:02:06Z</time>
      </trkpt>
      <trkpt lat="43.61629" lon="3.74644">
        <ele>114</ele>
        <time>2021-05-14T13:02:07Z</time>
      </trkpt>
      <trkpt lat="43.61627" lon="3.7464">
        <ele>114</ele>
        <time>2021-05-14T13:02:08Z</time>
      </trkpt>
      <trkpt lat="43.61625" lon="3.74637">
        <ele>114</ele>
        <time>2021-05-14T13:02:09Z</time>
      </trkpt>
      <trkpt lat="43.61624" lon="3.74635">
        <ele>114</ele>
        <time>2021-05-14T13:02:10Z</time>
      </trkpt>
      <trkpt lat="43.61622" lon="3.74632">
        <ele>114</ele>
        <time>2021-05-14T13:02:11Z</time>
      </trkpt>
      <trkpt lat="43.61621" lon="3.74629">
        <ele>114</ele>
        <time>2021-05-14T13:02:12Z</time>
      </trkpt>
      <trkpt lat="43.6162" lon="3.74626">
        <ele>114</ele>
        <time>2021-05-14T13:02:13Z</time>
      </trkpt>
      <trkpt lat="43.61619" lon="3.74624">
        <ele>114</ele>
        <time>2021-05-14T13:02:14Z</time>
      </trkpt>
      <trkpt lat="43.61618" lon="3.74621">
        <ele>114</ele>
        <time>2021-05-14T13:02:15Z</time>
      </trkpt>
      <trkpt lat="43.61617" lon="3.74618">
        <ele>114</ele>
        <time>2021-05-14T13:02:16Z</time>
      </trkpt>
      <trkpt lat="43.61616" lon="3.74615">
        <ele>114</ele>
        <time>2021-05-14T13:02:17Z</time>
      </trkpt>
      <trkpt lat="43.61614" lon="3.74612">
        <ele>114</ele>
        <time>2021-05-14T13:02:18Z</time>
      </trkpt>
      <trkpt lat="43.61613" lon="3.74609">
        <ele>114</ele>
        <time>2021-05-14T13:02:19Z</time>
      </trkpt>
      <trkpt lat="43.61612" lon="3.74605">
        <ele>114</ele>
        <time>2021-05-14T13:02:20Z</time>
      </trkpt>
      <trkpt lat="43.61611" lon="3.74601">
        <ele>114</ele>
        <time>2021-05-14T13:02:21Z</time>
      </trkpt>
      <trkpt lat="43.61609" lon="3.74598">
        <ele>114</ele>
        <time>2021-05-14T13:02:22Z</time>
      </trkpt>
      <trkpt lat="43.61608" lon="3.74595">
        <ele>114</ele>
        <time>2021-05-14T13:02:23Z</time>
      </trkpt>
      <trkpt lat="43.61607" lon="3.74592">
        <ele>114</ele>
        <time>2021-05-14T13:02:24Z</time>
      </trkpt>
      <trkpt lat="43.61605" lon="3.7459">
        <ele>114</ele>
        <time>2021-05-14T13:02:25Z</time>
      </trkpt>
      <trkpt lat="43.61604" lon="3.74587">
        <ele>114</ele>
        <time>2021-05-14T13:02:26Z</time>
      </trkpt>
      <trkpt lat="43.61602" lon="3.74584">
        <ele>115</ele>
        <time>2021-05-14T13:02:27Z</time>
      </trkpt>
      <trkpt lat="43.616" lon="3.74581">
        <ele>115</ele>
        <time>2021-05-14T13:02:28Z</time>
      </trkpt>
      <trkpt lat="43.61599" lon="3.74578">
        <ele>115</ele>
        <time>2021-05-14T13:02:29Z</time>
      </trkpt>
      <trkpt lat="43.61597" lon="3.74575">
        <ele>115</ele>
        <time>2021-05-14T13:02:30Z</time>
      </trkpt>
      <trkpt lat="43.61595" lon="3.74572">
        <ele>115</ele>
        <time>2021-05-14T13:02:31Z</time>
      </trkpt>
      <trkpt lat="43.61593" lon="3.74569">
        <ele>115</ele>
        <time>2021-05-14T13:02:32Z</time>
      </trkpt>
      <trkpt lat="43.61592" lon="3.74566">
        <ele>115</ele>
        <time>2021-05-14T13:02:33Z</time>
      </trkpt>
      <trkpt lat="43.6159" lon="3.74564">
        <ele>115</ele>
        <time>2021-05-14T13:02:34Z</time>
      </trkpt>
      <trkpt lat="43.61589" lon="3.74561">
        <ele>115</ele>
        <time>2021-05-14T13:02:35Z</time>
      </trkpt>
      <trkpt lat="43.61589" lon="3.74558">
        <ele>115</ele>
        <time>2021-05-14T13:02:36Z</time>
      </trkpt>
      <trkpt lat="43.6159" lon="3.74555">
        <ele>115</ele>
        <time>2021-05-14T13:02:37Z</time>
      </trkpt>
      <trkpt lat="43.61592" lon="3.74554">
        <ele>115</ele>
        <time>2021-05-14T13:02:38Z</time>
      </trkpt>
      <trkpt lat="43.61595" lon="3.74553">
        <ele>115</ele>
        <time>2021-05-14T13:02:39Z</time>
      </trkpt>
      <trkpt lat="43.61599" lon="3.74551">
        <ele>115</ele>
        <time>2021-05-14T13:02:40Z</time>
      </trkpt>
      <trkpt lat="43.61601" lon="3.74549">
        <ele>115</ele>
        <time>2021-05-14T13:02:41Z</time>
      </trkpt>
      <trkpt lat="43.61612" lon="3.7454">
        <ele>115</ele>
        <time>2021-05-14T13:02:45Z</time>
      </trkpt>
      <trkpt lat="43.61618" lon="3.7454">
        <ele>115</ele>
        <time>2021-05-14T13:02:46Z</time>
      </trkpt>
      <trkpt lat="43.61624" lon="3.74542">
        <ele>115</ele>
        <time>2021-05-14T13:02:47Z</time>
      </trkpt>
      <trkpt lat="43.61629" lon="3.74544">
        <ele>115</ele>
        <time>2021-05-14T13:02:48Z</time>
      </trkpt>
      <trkpt lat="43.61635" lon="3.74546">
        <ele>115</ele>
        <time>2021-05-14T13:02:49Z</time>
      </trkpt>
      <trkpt lat="43.61639" lon="3.74547">
        <ele>115</ele>
        <time>2021-05-14T13:02:50Z</time>
      </trkpt>
      <trkpt lat="43.61644" lon="3.74548">
        <ele>115</ele>
        <time>2021-05-14T13:02:51Z</time>
      </trkpt>
      <trkpt lat="43.61647" lon="3.74549">
        <ele>115</ele>
        <time>2021-05-14T13:02:52Z</time>
      </trkpt>
      <trkpt lat="43.6165" lon="3.7455">
        <ele>115</ele>
        <time>2021-05-14T13:02:53Z</time>
      </trkpt>
      <trkpt lat="43.61653" lon="3.74551">
        <ele>115</ele>
        <time>2021-05-14T13:02:54Z</time>
      </trkpt>
      <trkpt lat="43.61655" lon="3.74552">
        <ele>115</ele>
        <time>2021-05-14T13:02:55Z</time>
      </trkpt>
      <trkpt lat="43.61657" lon="3.74552">
        <ele>115</ele>
        <time>2021-05-14T13:02:56Z</time>
      </trkpt>
      <trkpt lat="43.6166" lon="3.74556">
        <ele>115</ele>
        <time>2021-05-14T13:02:58Z</time>
      </trkpt>
      <trkpt lat="43.61662" lon="3.74559">
        <ele>115</ele>
        <time>2021-05-14T13:02:59Z</time>
      </trkpt>
      <trkpt lat="43.61664" lon="3.74562">
        <ele>115</ele>
        <time>2021-05-14T13:03:00Z</time>
      </trkpt>
      <trkpt lat="43.61666" lon="3.74564">
        <ele>115</ele>
        <time>2021-05-14T13:03:01Z</time>
      </trkpt>
      <trkpt lat="43.61668" lon="3.74566">
        <ele>115</ele>
        <time>2021-05-14T13:03:02Z</time>
      </trkpt>
      <trkpt lat="43.6167" lon="3.74568">
        <ele>115</ele>
        <time>2021-05-14T13:03:03Z</time>
      </trkpt>
      <trkpt lat="43.61672" lon="3.74571">
        <ele>115</ele>
        <time>2021-05-14T13:03:04Z</time>
      </trkpt>
      <trkpt lat="43.61674" lon="3.74573">
        <ele>115</ele>
        <time>2021-05-14T13:03:05Z</time>
      </trkpt>
      <trkpt lat="43.61676" lon="3.74575">
        <ele>115</ele>
        <time>2021-05-14T13:03:06Z</time>
      </trkpt>
      <trkpt lat="43.61677" lon="3.74577">
        <ele>114</ele>
        <time>2021-05-14T13:03:07Z</time>
      </trkpt>
      <trkpt lat="43.6168" lon="3.7458">
        <ele>114</ele>
        <time>2021-05-14T13:03:08Z</time>
      </trkpt>
      <trkpt lat="43.61682" lon="3.74582">
        <ele>114</ele>
        <time>2021-05-14T13:03:09Z</time>
      </trkpt>
      <trkpt lat="43.61684" lon="3.74584">
        <ele>114</ele>
        <time>2021-05-14T13:03:10Z</time>
      </trkpt>
      <trkpt lat="43.61686" lon="3.74585">
        <ele>114</ele>
        <time>2021-05-14T13:03:11Z</time>
      </trkpt>
      <trkpt lat="43.61688" lon="3.74587">
        <ele>114</ele>
        <time>2021-05-14T13:03:12Z</time>
      </trkpt>
      <trkpt lat="43.6169" lon="3.74589">
        <ele>114</ele>
        <time>2021-05-14T13:03:13Z</time>
      </trkpt>
      <trkpt lat="43.61692" lon="3.74591">
        <ele>114</ele>
        <time>2021-05-14T13:03:14Z</time>
      </trkpt>
      <trkpt lat="43.61694" lon="3.74593">
        <ele>114</ele>
        <time>2021-05-14T13:03:15Z</time>
      </trkpt>
      <trkpt lat="43.61695" lon="3.74595">
        <ele>114</ele>
        <time>2021-05-14T13:03:16Z</time>
      </trkpt>
      <trkpt lat="43.61697" lon="3.74597">
        <ele>116</ele>
        <time>2021-05-14T13:03:17Z</time>
      </trkpt>
      <trkpt lat="43.61699" lon="3.74599">
        <ele>116</ele>
        <time>2021-05-14T13:03:18Z</time>
      </trkpt>
      <trkpt lat="43.61701" lon="3.746">
        <ele>116</ele>
        <time>2021-05-14T13:03:19Z</time>
      </trkpt>
      <trkpt lat="43.61703" lon="3.74602">
        <ele>116</ele>
        <time>2021-05-14T13:03:20Z</time>
      </trkpt>
      <trkpt lat="43.61704" lon="3.74603">
        <ele>116</ele>
        <time>2021-05-14T13:03:21Z</time>
      </trkpt>
      <trkpt lat="43.61707" lon="3.74604">
        <ele>116</ele>
        <time>2021-05-14T13:03:22Z</time>
      </trkpt>
      <trkpt lat="43.61709" lon="3.74606">
        <ele>116</ele>
        <time>2021-05-14T13:03:23Z</time>
      </trkpt>
      <trkpt lat="43.61711" lon="3.74607">
        <ele>116</ele>
        <time>2021-05-14T13:03:24Z</time>
      </trkpt>
      <trkpt lat="43.61713" lon="3.74609">
        <ele>116</ele>
        <time>2021-05-14T13:03:25Z</time>
      </trkpt>
      <trkpt lat="43.61715" lon="3.7461">
        <ele>116</ele>
        <time>2021-05-14T13:03:26Z</time>
      </trkpt>
      <trkpt lat="43.61717" lon="3.74612">
        <ele>116</ele>
        <time>2021-05-14T13:03:27Z</time>
      </trkpt>
      <trkpt lat="43.61719" lon="3.74613">
        <ele>116</ele>
        <time>2021-05-14T13:03:28Z</time>
      </trkpt>
      <trkpt lat="43.61721" lon="3.74616">
        <ele>116</ele>
        <time>2021-05-14T13:03:29Z</time>
      </trkpt>
      <trkpt lat="43.61723" lon="3.74619">
        <ele>116</ele>
        <time>2021-05-14T13:03:30Z</time>
      </trkpt>
      <trkpt lat="43.61725" lon="3.74621">
        <ele>116</ele>
        <time>2021-05-14T13:03:31Z</time>
      </trkpt>
      <trkpt lat="43.61727" lon="3.74624">
        <ele>116</ele>
        <time>2021-05-14T13:03:32Z</time>
      </trkpt>
      <trkpt lat="43.61729" lon="3.74627">
        <ele>116</ele>
        <time>2021-05-14T13:03:33Z</time>
      </trkpt>
      <trkpt lat="43.61731" lon="3.7463">
        <ele>116</ele>
        <time>2021-05-14T13:03:34Z</time>
      </trkpt>
      <trkpt lat="43.61732" lon="3.74632">
        <ele>116</ele>
        <time>2021-05-14T13:03:35Z</time>
      </trkpt>
      <trkpt lat="43.61734" lon="3.74634">
        <ele>116</ele>
        <time>2021-05-14T13:03:36Z</time>
      </trkpt>
      <trkpt lat="43.61736" lon="3.74636">
        <ele>116</ele>
        <time>2021-05-14T13:03:37Z</time>
      </trkpt>
      <trkpt lat="43.61739" lon="3.74637">
        <ele>116</ele>
        <time>2021-05-14T13:03:38Z</time>
      </trkpt>
      <trkpt lat="43.61742" lon="3.74639">
        <ele>116</ele>
        <time>2021-05-14T13:03:39Z</time>
      </trkpt>
      <trkpt lat="43.61744" lon="3.7464">
        <ele>116</ele>
        <time>2021-05-14T13:03:40Z</time>
      </trkpt>
      <trkpt lat="43.61746" lon="3.74642">
        <ele>116</ele>
        <time>2021-05-14T13:03:41Z</time>
      </trkpt>
      <trkpt lat="43.61749" lon="3.74642">
        <ele>116</ele>
        <time>2021-05-14T13:03:42Z</time>
      </trkpt>
      <trkpt lat="43.61752" lon="3.74642">
        <ele>116</ele>
        <time>2021-05-14T13:03:43Z</time>
      </trkpt>
      <trkpt lat="43.61754" lon="3.74643">
        <ele>116</ele>
        <time>2021-05-14T13:03:44Z</time>
      </trkpt>
      <trkpt lat="43.61756" lon="3.74643">
        <ele>116</ele>
        <time>2021-05-14T13:03:45Z</time>
      </trkpt>
      <trkpt lat="43.61759" lon="3.74642">
        <ele>116</ele>
        <time>2021-05-14T13:03:46Z</time>
      </trkpt>
      <trkpt lat="43.61762" lon="3.74641">
        <ele>117</ele>
        <time>2021-05-14T13:03:47Z</time>
      </trkpt>
      <trkpt lat="43.61764" lon="3.7464">
        <ele>117</ele>
        <time>2021-05-14T13:03:48Z</time>
      </trkpt>
      <trkpt lat="43.61767" lon="3.74639">
        <ele>117</ele>
        <time>2021-05-14T13:03:49Z</time>
      </trkpt>
      <trkpt lat="43.61769" lon="3.74638">
        <ele>117</ele>
        <time>2021-05-14T13:03:50Z</time>
      </trkpt>
      <trkpt lat="43.61771" lon="3.74638">
        <ele>117</ele>
        <time>2021-05-14T13:03:51Z</time>
      </trkpt>
      <trkpt lat="43.61773" lon="3.74638">
        <ele>117</ele>
        <time>2021-05-14T13:03:52Z</time>
      </trkpt>
      <trkpt lat="43.61775" lon="3.74636">
        <ele>117</ele>
        <time>2021-05-14T13:03:53Z</time>
      </trkpt>
      <trkpt lat="43.61777" lon="3.74635">
        <ele>117</ele>
        <time>2021-05-14T13:03:54Z</time>
      </trkpt>
      <trkpt lat="43.61779" lon="3.74633">
        <ele>117</ele>
        <time>2021-05-14T13:03:55Z</time>
      </trkpt>
      <trkpt lat="43.61782" lon="3.74632">
        <ele>117</ele>
        <time>2021-05-14T13:03:56Z</time>
      </trkpt>
      <trkpt lat="43.61784" lon="3.74631">
        <ele>118</ele>
        <time>2021-05-14T13:03:57Z</time>
      </trkpt>
      <trkpt lat="43.61786" lon="3.7463">
        <ele>118</ele>
        <time>2021-05-14T13:03:58Z</time>
      </trkpt>
      <trkpt lat="43.61788" lon="3.74628">
        <ele>118</ele>
        <time>2021-05-14T13:03:59Z</time>
      </trkpt>
      <trkpt lat="43.61791" lon="3.74627">
        <ele>118</ele>
        <time>2021-05-14T13:04:01Z</time>
      </trkpt>
      <trkpt lat="43.61793" lon="3.74626">
        <ele>118</ele>
        <time>2021-05-14T13:04:02Z</time>
      </trkpt>
      <trkpt lat="43.61795" lon="3.74625">
        <ele>118</ele>
        <time>2021-05-14T13:04:04Z</time>
      </trkpt>
      <trkpt lat="43.61804" lon="3.74627">
        <ele>120</ele>
        <time>2021-05-14T13:04:49Z</time>
      </trkpt>
      <trkpt lat="43.61809" lon="3.74627">
        <ele>120</ele>
        <time>2021-05-14T13:04:51Z</time>
      </trkpt>
      <trkpt lat="43.61812" lon="3.74626">
        <ele>120</ele>
        <time>2021-05-14T13:04:53Z</time>
      </trkpt>
      <trkpt lat="43.61816" lon="3.74621">
        <ele>120</ele>
        <time>2021-05-14T13:04:54Z</time>
      </trkpt>
      <trkpt lat="43.61819" lon="3.74619">
        <ele>120</ele>
        <time>2021-05-14T13:04:55Z</time>
      </trkpt>
      <trkpt lat="43.61824" lon="3.74615">
        <ele>120</ele>
        <time>2021-05-14T13:04:57Z</time>
      </trkpt>
      <trkpt lat="43.61826" lon="3.74614">
        <ele>120</ele>
        <time>2021-05-14T13:04:58Z</time>
      </trkpt>
      <trkpt lat="43.61831" lon="3.74611">
        <ele>120</ele>
        <time>2021-05-14T13:05:00Z</time>
      </trkpt>
      <trkpt lat="43.61835" lon="3.74608">
        <ele>120</ele>
        <time>2021-05-14T13:05:02Z</time>
      </trkpt>
      <trkpt lat="43.61836" lon="3.74605">
        <ele>120</ele>
        <time>2021-05-14T13:05:03Z</time>
      </trkpt>
      <trkpt lat="43.61837" lon="3.74603">
        <ele>120</ele>
        <time>2021-05-14T13:05:04Z</time>
      </trkpt>
      <trkpt lat="43.61838" lon="3.74599">
        <ele>120</ele>
        <time>2021-05-14T13:05:06Z</time>
      </trkpt>
      <trkpt lat="43.61836" lon="3.74595">
        <ele>120</ele>
        <time>2021-05-14T13:05:08Z</time>
      </trkpt>
      <trkpt lat="43.61836" lon="3.74592">
        <ele>120</ele>
        <time>2021-05-14T13:05:09Z</time>
      </trkpt>
      <trkpt lat="43.61834" lon="3.74588">
        <ele>120</ele>
        <time>2021-05-14T13:05:11Z</time>
      </trkpt>
      <trkpt lat="43.61833" lon="3.74584">
        <ele>120</ele>
        <time>2021-05-14T13:05:13Z</time>
      </trkpt>
      <trkpt lat="43.61833" lon="3.74579">
        <ele>120</ele>
        <time>2021-05-14T13:05:15Z</time>
      </trkpt>
      <trkpt lat="43.61833" lon="3.74574">
        <ele>120</ele>
        <time>2021-05-14T13:05:17Z</time>
      </trkpt>
      <trkpt lat="43.61834" lon="3.74569">
        <ele>121</ele>
        <time>2021-05-14T13:05:19Z</time>
      </trkpt>
      <trkpt lat="43.61835" lon="3.74566">
        <ele>121</ele>
        <time>2021-05-14T13:05:20Z</time>
      </trkpt>
      <trkpt lat="43.61835" lon="3.74561">
        <ele>121</ele>
        <time>2021-05-14T13:05:22Z</time>
      </trkpt>
      <trkpt lat="43.61835" lon="3.74558">
        <ele>121</ele>
        <time>2021-05-14T13:05:23Z</time>
      </trkpt>
      <trkpt lat="43.61836" lon="3.74555">
        <ele>121</ele>
        <time>2021-05-14T13:05:24Z</time>
      </trkpt>
      <trkpt lat="43.61836" lon="3.74553">
        <ele>121</ele>
        <time>2021-05-14T13:05:25Z</time>
      </trkpt>
      <trkpt lat="43.61835" lon="3.74548">
        <ele>121</ele>
        <time>2021-05-14T13:05:27Z</time>
      </trkpt>
      <trkpt lat="43.61835" lon="3.74544">
        <ele>123</ele>
        <time>2021-05-14T13:05:29Z</time>
      </trkpt>
      <trkpt lat="43.61835" lon="3.74539">
        <ele>123</ele>
        <time>2021-05-14T13:05:31Z</time>
      </trkpt>
      <trkpt lat="43.61835" lon="3.74535">
        <ele>123</ele>
        <time>2021-05-14T13:05:33Z</time>
      </trkpt>
      <trkpt lat="43.61835" lon="3.74531">
        <ele>123</ele>
        <time>2021-05-14T13:05:35Z</time>
      </trkpt>
      <trkpt lat="43.61835" lon="3.74527">
        <ele>123</ele>
        <time>2021-05-14T13:05:37Z</time>
      </trkpt>
      <trkpt lat="43.61835" lon="3.74524">
        <ele>123</ele>
        <time>2021-05-14T13:05:38Z</time>
      </trkpt>
      <trkpt lat="43.61835" lon="3.74521">
        <ele>125</ele>
        <time>2021-05-14T13:05:39Z</time>
      </trkpt>
      <trkpt lat="43.61835" lon="3.74519">
        <ele>125</ele>
        <time>2021-05-14T13:05:40Z</time>
      </trkpt>
      <trkpt lat="43.61835" lon="3.74516">
        <ele>125</ele>
        <time>2021-05-14T13:05:41Z</time>
      </trkpt>
      <trkpt lat="43.61834" lon="3.74512">
        <ele>125</ele>
        <time>2021-05-14T13:05:43Z</time>
      </trkpt>
      <trkpt lat="43.61833" lon="3.74508">
        <ele>125</ele>
        <time>2021-05-14T13:05:45Z</time>
      </trkpt>
      <trkpt lat="43.61831" lon="3.74504">
        <ele>125</ele>
        <time>2021-05-14T13:05:47Z</time>
      </trkpt>
      <trkpt lat="43.6183" lon="3.74502">
        <ele>125</ele>
        <time>2021-05-14T13:05:48Z</time>
      </trkpt>
      <trkpt lat="43.61828" lon="3.74498">
        <ele>125</ele>
        <time>2021-05-14T13:05:50Z</time>
      </trkpt>
      <trkpt lat="43.61826" lon="3.74495">
        <ele>125</ele>
        <time>2021-05-14T13:05:52Z</time>
      </trkpt>
      <trkpt lat="43.61825" lon="3.74492">
        <ele>125</ele>
        <time>2021-05-14T13:05:55Z</time>
      </trkpt>
      <trkpt lat="43.61823" lon="3.74489">
        <ele>125</ele>
        <time>2021-05-14T13:05:57Z</time>
      </trkpt>
      <trkpt lat="43.61823" lon="3.74485">
        <ele>129</ele>
        <time>2021-05-14T13:05:59Z</time>
      </trkpt>
      <trkpt lat="43.61822" lon="3.74481">
        <ele>129</ele>
        <time>2021-05-14T13:06:01Z</time>
      </trkpt>
      <trkpt lat="43.61821" lon="3.74478">
        <ele>129</ele>
        <time>2021-05-14T13:06:03Z</time>
      </trkpt>
      <trkpt lat="43.61819" lon="3.74475">
        <ele>129</ele>
        <time>2021-05-14T13:06:05Z</time>
      </trkpt>
      <trkpt lat="43.61818" lon="3.74471">
        <ele>129</ele>
        <time>2021-05-14T13:06:07Z</time>
      </trkpt>
      <trkpt lat="43.61816" lon="3.74468">
        <ele>131</ele>
        <time>2021-05-14T13:06:09Z</time>
      </trkpt>
      <trkpt lat="43.61815" lon="3.74465">
        <ele>131</ele>
        <time>2021-05-14T13:06:11Z</time>
      </trkpt>
      <trkpt lat="43.61814" lon="3.74462">
        <ele>131</ele>
        <time>2021-05-14T13:06:13Z</time>
      </trkpt>
      <trkpt lat="43.61813" lon="3.74459">
        <ele>131</ele>
        <time>2021-05-14T13:06:15Z</time>
      </trkpt>
      <trkpt lat="43.61811" lon="3.74456">
        <ele>131</ele>
        <time>2021-05-14T13:06:17Z</time>
      </trkpt>
      <trkpt lat="43.61809" lon="3.74453">
        <ele>133</ele>
        <time>2021-05-14T13:06:19Z</time>
      </trkpt>
      <trkpt lat="43.61807" lon="3.74451">
        <ele>133</ele>
        <time>2021-05-14T13:06:21Z</time>
      </trkpt>
      <trkpt lat="43.61805" lon="3.74448">
        <ele>133</ele>
        <time>2021-05-14T13:06:23Z</time>
      </trkpt>
      <trkpt lat="43.61804" lon="3.74444">
        <ele>133</ele>
        <time>2021-05-14T13:06:25Z</time>
      </trkpt>
      <trkpt lat="43.61803" lon="3.74441">
        <ele>133</ele>
        <time>2021-05-14T13:06:27Z</time>
      </trkpt>
      <trkpt lat="43.61801" lon="3.74438">
        <ele>136</ele>
        <time>2021-05-14T13:06:29Z</time>
      </trkpt>
      <trkpt lat="43.618" lon="3.74435">
        <ele>136</ele>
        <time>2021-05-14T13:06:31Z</time>
      </trkpt>
      <trkpt lat="43.61798" lon="3.74432">
        <ele>136</ele>
        <time>2021-05-14T13:06:33Z</time>
      </trkpt>
      <trkpt lat="43.61797" lon="3.7443">
        <ele>136</ele>
        <time>2021-05-14T13:06:35Z</time>
      </trkpt>
      <trkpt lat="43.61795" lon="3.74422">
        <ele>141</ele>
        <time>2021-05-14T13:06:57Z</time>
      </trkpt>
      <trkpt lat="43.61795" lon="3.74422">
        <ele>141</ele>
        <time>2021-05-14T13:07:01Z</time>
      </trkpt>
      <trkpt lat="43.61798" lon="3.74422">
        <ele>141</ele>
        <time>2021-05-14T13:07:08Z</time>
      </trkpt>
      <trkpt lat="43.61794" lon="3.74421">
        <ele>141</ele>
        <time>2021-05-14T13:07:29Z</time>
      </trkpt>
      <trkpt lat="43.61792" lon="3.74422">
        <ele>141</ele>
        <time>2021-05-14T13:07:31Z</time>
      </trkpt>
      <trkpt lat="43.6179" lon="3.7442">
        <ele>141</ele>
        <time>2021-05-14T13:07:33Z</time>
      </trkpt>
      <trkpt lat="43.61789" lon="3.74418">
        <ele>141</ele>
        <time>2021-05-14T13:07:38Z</time>
      </trkpt>
      <trkpt lat="43.61787" lon="3.74406">
        <ele>144</ele>
        <time>2021-05-14T13:08:07Z</time>
      </trkpt>
      <trkpt lat="43.61788" lon="3.74404">
        <ele>144</ele>
        <time>2021-05-14T13:08:08Z</time>
      </trkpt>
      <trkpt lat="43.61786" lon="3.74402">
        <ele>144</ele>
        <time>2021-05-14T13:08:12Z</time>
      </trkpt>
      <trkpt lat="43.61784" lon="3.744">
        <ele>144</ele>
        <time>2021-05-14T13:08:17Z</time>
      </trkpt>
      <trkpt lat="43.61782" lon="3.744">
        <ele>144</ele>
        <time>2021-05-14T13:08:19Z</time>
      </trkpt>
      <trkpt lat="43.6178" lon="3.744">
        <ele>144</ele>
        <time>2021-05-14T13:08:22Z</time>
      </trkpt>
      <trkpt lat="43.61777" lon="3.74393">
        <ele>145</ele>
        <time>2021-05-14T13:08:41Z</time>
      </trkpt>
      <trkpt lat="43.61777" lon="3.74389">
        <ele>145</ele>
        <time>2021-05-14T13:08:42Z</time>
      </trkpt>
      <trkpt lat="43.61776" lon="3.74386">
        <ele>145</ele>
        <time>2021-05-14T13:08:44Z</time>
      </trkpt>
      <trkpt lat="43.61775" lon="3.74383">
        <ele>145</ele>
        <time>2021-05-14T13:08:46Z</time>
      </trkpt>
      <trkpt lat="43.61775" lon="3.74379">
        <ele>145</ele>
        <time>2021-05-14T13:08:48Z</time>
      </trkpt>
      <trkpt lat="43.61774" lon="3.74375">
        <ele>145</ele>
        <time>2021-05-14T13:08:50Z</time>
      </trkpt>
      <trkpt lat="43.61773" lon="3.7437">
        <ele>145</ele>
        <time>2021-05-14T13:08:52Z</time>
      </trkpt>
      <trkpt lat="43.61772" lon="3.74367">
        <ele>145</ele>
        <time>2021-05-14T13:08:54Z</time>
      </trkpt>
      <trkpt lat="43.61771" lon="3.74363">
        <ele>145</ele>
        <time>2021-05-14T13:08:56Z</time>
      </trkpt>
      <trkpt lat="43.61771" lon="3.74359">
        <ele>145</ele>
        <time>2021-05-14T13:08:58Z</time>
      </trkpt>
      <trkpt lat="43.6177" lon="3.74355">
        <ele>145</ele>
        <time>2021-05-14T13:09:00Z</time>
      </trkpt>
      <trkpt lat="43.61769" lon="3.74351">
        <ele>145</ele>
        <time>2021-05-14T13:09:02Z</time>
      </trkpt>
      <trkpt lat="43.61769" lon="3.74347">
        <ele>145</ele>
        <time>2021-05-14T13:09:04Z</time>
      </trkpt>
      <trkpt lat="43.61769" lon="3.74343">
        <ele>145</ele>
        <time>2021-05-14T13:09:06Z</time>
      </trkpt>
      <trkpt lat="43.61768" lon="3.7434">
        <ele>145</ele>
        <time>2021-05-14T13:09:08Z</time>
      </trkpt>
      <trkpt lat="43.61768" lon="3.74336">
        <ele>145</ele>
        <time>2021-05-14T13:09:10Z</time>
      </trkpt>
      <trkpt lat="43.61768" lon="3.74332">
        <ele>145</ele>
        <time>2021-05-14T13:09:12Z</time>
      </trkpt>
      <trkpt lat="43.61768" lon="3.74328">
        <ele>145</ele>
        <time>2021-05-14T13:09:14Z</time>
      </trkpt>
      <trkpt lat="43.61768" lon="3.74324">
        <ele>145</ele>
        <time>2021-05-14T13:09:16Z</time>
      </trkpt>
      <trkpt lat="43.6177" lon="3.7432">
        <ele>145</ele>
        <time>2021-05-14T13:09:18Z</time>
      </trkpt>
      <trkpt lat="43.61771" lon="3.74316">
        <ele>145</ele>
        <time>2021-05-14T13:09:20Z</time>
      </trkpt>
      <trkpt lat="43.61772" lon="3.74311">
        <ele>145</ele>
        <time>2021-05-14T13:09:22Z</time>
      </trkpt>
      <trkpt lat="43.61773" lon="3.74307">
        <ele>145</ele>
        <time>2021-05-14T13:09:24Z</time>
      </trkpt>
      <trkpt lat="43.61774" lon="3.74303">
        <ele>145</ele>
        <time>2021-05-14T13:09:26Z</time>
      </trkpt>
      <trkpt lat="43.61776" lon="3.74299">
        <ele>145</ele>
        <time>2021-05-14T13:09:28Z</time>
      </trkpt>
      <trkpt lat="43.61778" lon="3.74297">
        <ele>145</ele>
        <time>2021-05-14T13:09:30Z</time>
      </trkpt>
      <trkpt lat="43.61781" lon="3.74295">
        <ele>145</ele>
        <time>2021-05-14T13:09:32Z</time>
      </trkpt>
      <trkpt lat="43.61782" lon="3.74293">
        <ele>145</ele>
        <time>2021-05-14T13:09:34Z</time>
      </trkpt>
      <trkpt lat="43.61784" lon="3.7429">
        <ele>145</ele>
        <time>2021-05-14T13:09:36Z</time>
      </trkpt>
      <trkpt lat="43.61786" lon="3.74287">
        <ele>145</ele>
        <time>2021-05-14T13:09:38Z</time>
      </trkpt>
      <trkpt lat="43.61788" lon="3.74283">
        <ele>145</ele>
        <time>2021-05-14T13:09:40Z</time>
      </trkpt>
      <trkpt lat="43.6179" lon="3.74279">
        <ele>145</ele>
        <time>2021-05-14T13:09:42Z</time>
      </trkpt>
      <trkpt lat="43.61791" lon="3.74277">
        <ele>145</ele>
        <time>2021-05-14T13:09:43Z</time>
      </trkpt>
      <trkpt lat="43.61792" lon="3.74274">
        <ele>145</ele>
        <time>2021-05-14T13:09:44Z</time>
      </trkpt>
      <trkpt lat="43.61793" lon="3.74272">
        <ele>145</ele>
        <time>2021-05-14T13:09:45Z</time>
      </trkpt>
      <trkpt lat="43.61794" lon="3.74268">
        <ele>145</ele>
        <time>2021-05-14T13:09:47Z</time>
      </trkpt>
      <trkpt lat="43.61796" lon="3.74264">
        <ele>145</ele>
        <time>2021-05-14T13:09:49Z</time>
      </trkpt>
      <trkpt lat="43.61797" lon="3.74262">
        <ele>145</ele>
        <time>2021-05-14T13:09:50Z</time>
      </trkpt>
      <trkpt lat="43.61798" lon="3.74259">
        <ele>153</ele>
        <time>2021-05-14T13:09:51Z</time>
      </trkpt>
      <trkpt lat="43.61799" lon="3.74257">
        <ele>153</ele>
        <time>2021-05-14T13:09:52Z</time>
      </trkpt>
      <trkpt lat="43.61801" lon="3.74253">
        <ele>153</ele>
        <time>2021-05-14T13:09:54Z</time>
      </trkpt>
      <trkpt lat="43.61802" lon="3.7425">
        <ele>153</ele>
        <time>2021-05-14T13:09:55Z</time>
      </trkpt>
      <trkpt lat="43.61803" lon="3.74247">
        <ele>153</ele>
        <time>2021-05-14T13:09:56Z</time>
      </trkpt>
      <trkpt lat="43.61804" lon="3.74245">
        <ele>153</ele>
        <time>2021-05-14T13:09:57Z</time>
      </trkpt>
      <trkpt lat="43.61806" lon="3.74242">
        <ele>153</ele>
        <time>2021-05-14T13:09:58Z</time>
      </trkpt>
      <trkpt lat="43.61807" lon="3.74239">
        <ele>153</ele>
        <time>2021-05-14T13:09:59Z</time>
      </trkpt>
      <trkpt lat="43.61809" lon="3.74236">
        <ele>153</ele>
        <time>2021-05-14T13:10:00Z</time>
      </trkpt>
      <trkpt lat="43.61811" lon="3.74232">
        <ele>153</ele>
        <time>2021-05-14T13:10:01Z</time>
      </trkpt>
      <trkpt lat="43.61815" lon="3.74226">
        <ele>153</ele>
        <time>2021-05-14T13:10:03Z</time>
      </trkpt>
      <trkpt lat="43.61816" lon="3.74222">
        <ele>153</ele>
        <time>2021-05-14T13:10:04Z</time>
      </trkpt>
      <trkpt lat="43.61818" lon="3.74219">
        <ele>153</ele>
        <time>2021-05-14T13:10:05Z</time>
      </trkpt>
      <trkpt lat="43.61819" lon="3.74215">
        <ele>153</ele>
        <time>2021-05-14T13:10:06Z</time>
      </trkpt>
      <trkpt lat="43.61821" lon="3.74211">
        <ele>153</ele>
        <time>2021-05-14T13:10:07Z</time>
      </trkpt>
      <trkpt lat="43.61823" lon="3.74206">
        <ele>153</ele>
        <time>2021-05-14T13:10:08Z</time>
      </trkpt>
      <trkpt lat="43.61825" lon="3.74202">
        <ele>153</ele>
        <time>2021-05-14T13:10:09Z</time>
      </trkpt>
      <trkpt lat="43.61827" lon="3.74198">
        <ele>153</ele>
        <time>2021-05-14T13:10:10Z</time>
      </trkpt>
      <trkpt lat="43.61829" lon="3.74194">
        <ele>152</ele>
        <time>2021-05-14T13:10:11Z</time>
      </trkpt>
      <trkpt lat="43.6183" lon="3.74189">
        <ele>152</ele>
        <time>2021-05-14T13:10:12Z</time>
      </trkpt>
      <trkpt lat="43.61832" lon="3.74184">
        <ele>152</ele>
        <time>2021-05-14T13:10:13Z</time>
      </trkpt>
      <trkpt lat="43.61833" lon="3.7418">
        <ele>152</ele>
        <time>2021-05-14T13:10:14Z</time>
      </trkpt>
      <trkpt lat="43.61835" lon="3.74175">
        <ele>152</ele>
        <time>2021-05-14T13:10:15Z</time>
      </trkpt>
      <trkpt lat="43.61837" lon="3.74171">
        <ele>152</ele>
        <time>2021-05-14T13:10:16Z</time>
      </trkpt>
      <trkpt lat="43.6184" lon="3.74166">
        <ele>152</ele>
        <time>2021-05-14T13:10:17Z</time>
      </trkpt>
      <trkpt lat="43.61842" lon="3.74163">
        <ele>152</ele>
        <time>2021-05-14T13:10:18Z</time>
      </trkpt>
      <trkpt lat="43.61845" lon="3.7416">
        <ele>152</ele>
        <time>2021-05-14T13:10:19Z</time>
      </trkpt>
      <trkpt lat="43.61848" lon="3.74158">
        <ele>152</ele>
        <time>2021-05-14T13:10:20Z</time>
      </trkpt>
      <trkpt lat="43.61851" lon="3.74156">
        <ele>152</ele>
        <time>2021-05-14T13:10:21Z</time>
      </trkpt>
      <trkpt lat="43.61853" lon="3.74155">
        <ele>152</ele>
        <time>2021-05-14T13:10:22Z</time>
      </trkpt>
      <trkpt lat="43.61855" lon="3.74154">
        <ele>152</ele>
        <time>2021-05-14T13:10:23Z</time>
      </trkpt>
      <trkpt lat="43.61858" lon="3.74151">
        <ele>152</ele>
        <time>2021-05-14T13:10:24Z</time>
      </trkpt>
      <trkpt lat="43.61861" lon="3.7415">
        <ele>152</ele>
        <time>2021-05-14T13:10:25Z</time>
      </trkpt>
      <trkpt lat="43.61863" lon="3.74149">
        <ele>152</ele>
        <time>2021-05-14T13:10:26Z</time>
      </trkpt>
      <trkpt lat="43.61866" lon="3.74148">
        <ele>152</ele>
        <time>2021-05-14T13:10:27Z</time>
      </trkpt>
      <trkpt lat="43.61869" lon="3.74147">
        <ele>152</ele>
        <time>2021-05-14T13:10:28Z</time>
      </trkpt>
      <trkpt lat="43.61871" lon="3.74145">
        <ele>152</ele>
        <time>2021-05-14T13:10:29Z</time>
      </trkpt>
      <trkpt lat="43.61874" lon="3.74144">
        <ele>152</ele>
        <time>2021-05-14T13:10:30Z</time>
      </trkpt>
      <trkpt lat="43.61876" lon="3.74142">
        <ele>152</ele>
        <time>2021-05-14T13:10:31Z</time>
      </trkpt>
      <trkpt lat="43.61878" lon="3.7414">
        <ele>152</ele>
        <time>2021-05-14T13:10:32Z</time>
      </trkpt>
      <trkpt lat="43.61881" lon="3.74138">
        <ele>152</ele>
        <time>2021-05-14T13:10:33Z</time>
      </trkpt>
      <trkpt lat="43.61883" lon="3.74135">
        <ele>152</ele>
        <time>2021-05-14T13:10:34Z</time>
      </trkpt>
      <trkpt lat="43.61885" lon="3.74131">
        <ele>152</ele>
        <time>2021-05-14T13:10:35Z</time>
      </trkpt>
      <trkpt lat="43.61886" lon="3.74128">
        <ele>152</ele>
        <time>2021-05-14T13:10:36Z</time>
      </trkpt>
      <trkpt lat="43.61886" lon="3.74124">
        <ele>152</ele>
        <time>2021-05-14T13:10:37Z</time>
      </trkpt>
      <trkpt lat="43.61886" lon="3.74121">
        <ele>152</ele>
        <time>2021-05-14T13:10:38Z</time>
      </trkpt>
      <trkpt lat="43.61885" lon="3.74119">
        <ele>152</ele>
        <time>2021-05-14T13:10:39Z</time>
      </trkpt>
      <trkpt lat="43.61884" lon="3.74117">
        <ele>152</ele>
        <time>2021-05-14T13:10:40Z</time>
      </trkpt>
      <trkpt lat="43.61882" lon="3.74115">
        <ele>151</ele>
        <time>2021-05-14T13:10:41Z</time>
      </trkpt>
      <trkpt lat="43.61881" lon="3.74114">
        <ele>151</ele>
        <time>2021-05-14T13:10:42Z</time>
      </trkpt>
      <trkpt lat="43.61879" lon="3.74111">
        <ele>151</ele>
        <time>2021-05-14T13:10:43Z</time>
      </trkpt>
      <trkpt lat="43.61878" lon="3.74108">
        <ele>151</ele>
        <time>2021-05-14T13:10:44Z</time>
      </trkpt>
      <trkpt lat="43.61877" lon="3.74103">
        <ele>151</ele>
        <time>2021-05-14T13:10:46Z</time>
      </trkpt>
      <trkpt lat="43.61877" lon="3.741">
        <ele>151</ele>
        <time>2021-05-14T13:10:47Z</time>
      </trkpt>
      <trkpt lat="43.61877" lon="3.74096">
        <ele>151</ele>
        <time>2021-05-14T13:10:49Z</time>
      </trkpt>
      <trkpt lat="43.61874" lon="3.74092">
        <ele>151</ele>
        <time>2021-05-14T13:10:51Z</time>
      </trkpt>
      <trkpt lat="43.61872" lon="3.74091">
        <ele>151</ele>
        <time>2021-05-14T13:10:52Z</time>
      </trkpt>
      <trkpt lat="43.61869" lon="3.74091">
        <ele>151</ele>
        <time>2021-05-14T13:10:53Z</time>
      </trkpt>
      <trkpt lat="43.61867" lon="3.74091">
        <ele>151</ele>
        <time>2021-05-14T13:10:54Z</time>
      </trkpt>
      <trkpt lat="43.61864" lon="3.74092">
        <ele>151</ele>
        <time>2021-05-14T13:10:55Z</time>
      </trkpt>
      <trkpt lat="43.61861" lon="3.74091">
        <ele>151</ele>
        <time>2021-05-14T13:10:56Z</time>
      </trkpt>
      <trkpt lat="43.61859" lon="3.74091">
        <ele>151</ele>
        <time>2021-05-14T13:10:57Z</time>
      </trkpt>
      <trkpt lat="43.61856" lon="3.74089">
        <ele>151</ele>
        <time>2021-05-14T13:10:58Z</time>
      </trkpt>
      <trkpt lat="43.61854" lon="3.74087">
        <ele>151</ele>
        <time>2021-05-14T13:10:59Z</time>
      </trkpt>
      <trkpt lat="43.61852" lon="3.74085">
        <ele>151</ele>
        <time>2021-05-14T13:11:00Z</time>
      </trkpt>
      <trkpt lat="43.61849" lon="3.74082">
        <ele>151</ele>
        <time>2021-05-14T13:11:01Z</time>
      </trkpt>
      <trkpt lat="43.61847" lon="3.7408">
        <ele>151</ele>
        <time>2021-05-14T13:11:02Z</time>
      </trkpt>
      <trkpt lat="43.61845" lon="3.74077">
        <ele>151</ele>
        <time>2021-05-14T13:11:03Z</time>
      </trkpt>
      <trkpt lat="43.61843" lon="3.74074">
        <ele>151</ele>
        <time>2021-05-14T13:11:04Z</time>
      </trkpt>
      <trkpt lat="43.61841" lon="3.74071">
        <ele>151</ele>
        <time>2021-05-14T13:11:05Z</time>
      </trkpt>
      <trkpt lat="43.61839" lon="3.74069">
        <ele>151</ele>
        <time>2021-05-14T13:11:06Z</time>
      </trkpt>
      <trkpt lat="43.61837" lon="3.74066">
        <ele>151</ele>
        <time>2021-05-14T13:11:07Z</time>
      </trkpt>
      <trkpt lat="43.61835" lon="3.74063">
        <ele>151</ele>
        <time>2021-05-14T13:11:08Z</time>
      </trkpt>
      <trkpt lat="43.61833" lon="3.74059">
        <ele>151</ele>
        <time>2021-05-14T13:11:09Z</time>
      </trkpt>
      <trkpt lat="43.6183" lon="3.74056">
        <ele>151</ele>
        <time>2021-05-14T13:11:10Z</time>
      </trkpt>
      <trkpt lat="43.61827" lon="3.74053">
        <ele>151</ele>
        <time>2021-05-14T13:11:11Z</time>
      </trkpt>
      <trkpt lat="43.61825" lon="3.74049">
        <ele>151</ele>
        <time>2021-05-14T13:11:12Z</time>
      </trkpt>
      <trkpt lat="43.61822" lon="3.74046">
        <ele>151</ele>
        <time>2021-05-14T13:11:13Z</time>
      </trkpt>
      <trkpt lat="43.6182" lon="3.74043">
        <ele>151</ele>
        <time>2021-05-14T13:11:14Z</time>
      </trkpt>
      <trkpt lat="43.61818" lon="3.7404">
        <ele>151</ele>
        <time>2021-05-14T13:11:15Z</time>
      </trkpt>
      <trkpt lat="43.61816" lon="3.74037">
        <ele>151</ele>
        <time>2021-05-14T13:11:16Z</time>
      </trkpt>
      <trkpt lat="43.61813" lon="3.74034">
        <ele>151</ele>
        <time>2021-05-14T13:11:17Z</time>
      </trkpt>
      <trkpt lat="43.61812" lon="3.74031">
        <ele>151</ele>
        <time>2021-05-14T13:11:18Z</time>
      </trkpt>
      <trkpt lat="43.6181" lon="3.74029">
        <ele>151</ele>
        <time>2021-05-14T13:11:19Z</time>
      </trkpt>
      <trkpt lat="43.61809" lon="3.74026">
        <ele>151</ele>
        <time>2021-05-14T13:11:20Z</time>
      </trkpt>
      <trkpt lat="43.61807" lon="3.74024">
        <ele>151</ele>
        <time>2021-05-14T13:11:21Z</time>
      </trkpt>
      <trkpt lat="43.61805" lon="3.74021">
        <ele>151</ele>
        <time>2021-05-14T13:11:22Z</time>
      </trkpt>
      <trkpt lat="43.61804" lon="3.74017">
        <ele>151</ele>
        <time>2021-05-14T13:11:23Z</time>
      </trkpt>
      <trkpt lat="43.61802" lon="3.74014">
        <ele>151</ele>
        <time>2021-05-14T13:11:24Z</time>
      </trkpt>
      <trkpt lat="43.61799" lon="3.74011">
        <ele>151</ele>
        <time>2021-05-14T13:11:25Z</time>
      </trkpt>
      <trkpt lat="43.61796" lon="3.74008">
        <ele>151</ele>
        <time>2021-05-14T13:11:26Z</time>
      </trkpt>
      <trkpt lat="43.61793" lon="3.74004">
        <ele>151</ele>
        <time>2021-05-14T13:11:27Z</time>
      </trkpt>
      <trkpt lat="43.6179" lon="3.74001">
        <ele>151</ele>
        <time>2021-05-14T13:11:28Z</time>
      </trkpt>
      <trkpt lat="43.61787" lon="3.73997">
        <ele>151</ele>
        <time>2021-05-14T13:11:29Z</time>
      </trkpt>
      <trkpt lat="43.61781" lon="3.73992">
        <ele>151</ele>
        <time>2021-05-14T13:11:31Z</time>
      </trkpt>
      <trkpt lat="43.61778" lon="3.7399">
        <ele>151</ele>
        <time>2021-05-14T13:11:32Z</time>
      </trkpt>
      <trkpt lat="43.61775" lon="3.73988">
        <ele>151</ele>
        <time>2021-05-14T13:11:33Z</time>
      </trkpt>
      <trkpt lat="43.61772" lon="3.73987">
        <ele>151</ele>
        <time>2021-05-14T13:11:34Z</time>
      </trkpt>
      <trkpt lat="43.61769" lon="3.73985">
        <ele>151</ele>
        <time>2021-05-14T13:11:35Z</time>
      </trkpt>
      <trkpt lat="43.61766" lon="3.73983">
        <ele>151</ele>
        <time>2021-05-14T13:11:36Z</time>
      </trkpt>
      <trkpt lat="43.61763" lon="3.73981">
        <ele>151</ele>
        <time>2021-05-14T13:11:37Z</time>
      </trkpt>
      <trkpt lat="43.61761" lon="3.73978">
        <ele>151</ele>
        <time>2021-05-14T13:11:38Z</time>
      </trkpt>
      <trkpt lat="43.61758" lon="3.73976">
        <ele>151</ele>
        <time>2021-05-14T13:11:39Z</time>
      </trkpt>
      <trkpt lat="43.61756" lon="3.73973">
        <ele>151</ele>
        <time>2021-05-14T13:11:40Z</time>
      </trkpt>
      <trkpt lat="43.61754" lon="3.73969">
        <ele>151</ele>
        <time>2021-05-14T13:11:41Z</time>
      </trkpt>
      <trkpt lat="43.61752" lon="3.73965">
        <ele>151</ele>
        <time>2021-05-14T13:11:42Z</time>
      </trkpt>
      <trkpt lat="43.61751" lon="3.73961">
        <ele>151</ele>
        <time>2021-05-14T13:11:43Z</time>
      </trkpt>
      <trkpt lat="43.6175" lon="3.73957">
        <ele>151</ele>
        <time>2021-05-14T13:11:44Z</time>
      </trkpt>
      <trkpt lat="43.61749" lon="3.73953">
        <ele>151</ele>
        <time>2021-05-14T13:11:45Z</time>
      </trkpt>
      <trkpt lat="43.61748" lon="3.73949">
        <ele>151</ele>
        <time>2021-05-14T13:11:46Z</time>
      </trkpt>
      <trkpt lat="43.61747" lon="3.73945">
        <ele>151</ele>
        <time>2021-05-14T13:11:47Z</time>
      </trkpt>
      <trkpt lat="43.61747" lon="3.73941">
        <ele>151</ele>
        <time>2021-05-14T13:11:48Z</time>
      </trkpt>
      <trkpt lat="43.61747" lon="3.73937">
        <ele>151</ele>
        <time>2021-05-14T13:11:49Z</time>
      </trkpt>
      <trkpt lat="43.61747" lon="3.73934">
        <ele>151</ele>
        <time>2021-05-14T13:11:50Z</time>
      </trkpt>
      <trkpt lat="43.61747" lon="3.73931">
        <ele>151</ele>
        <time>2021-05-14T13:11:52Z</time>
      </trkpt>
      <trkpt lat="43.61749" lon="3.73925">
        <ele>151</ele>
        <time>2021-05-14T13:11:53Z</time>
      </trkpt>
      <trkpt lat="43.61749" lon="3.73922">
        <ele>151</ele>
        <time>2021-05-14T13:11:54Z</time>
      </trkpt>
      <trkpt lat="43.6175" lon="3.73918">
        <ele>151</ele>
        <time>2021-05-14T13:11:55Z</time>
      </trkpt>
      <trkpt lat="43.61751" lon="3.73915">
        <ele>151</ele>
        <time>2021-05-14T13:11:56Z</time>
      </trkpt>
      <trkpt lat="43.61752" lon="3.73912">
        <ele>151</ele>
        <time>2021-05-14T13:11:57Z</time>
      </trkpt>
      <trkpt lat="43.61752" lon="3.73908">
        <ele>151</ele>
        <time>2021-05-14T13:11:59Z</time>
      </trkpt>
      <trkpt lat="43.61753" lon="3.73905">
        <ele>151</ele>
        <time>2021-05-14T13:12:00Z</time>
      </trkpt>
      <trkpt lat="43.61754" lon="3.73901">
        <ele>151</ele>
        <time>2021-05-14T13:12:01Z</time>
      </trkpt>
      <trkpt lat="43.61755" lon="3.73897">
        <ele>151</ele>
        <time>2021-05-14T13:12:02Z</time>
      </trkpt>
      <trkpt lat="43.61755" lon="3.73894">
        <ele>151</ele>
        <time>2021-05-14T13:12:03Z</time>
      </trkpt>
      <trkpt lat="43.61755" lon="3.7389">
        <ele>151</ele>
        <time>2021-05-14T13:12:04Z</time>
      </trkpt>
      <trkpt lat="43.61755" lon="3.73887">
        <ele>151</ele>
        <time>2021-05-14T13:12:05Z</time>
      </trkpt>
      <trkpt lat="43.61755" lon="3.73883">
        <ele>151</ele>
        <time>2021-05-14T13:12:06Z</time>
      </trkpt>
      <trkpt lat="43.61755" lon="3.7388">
        <ele>151</ele>
        <time>2021-05-14T13:12:07Z</time>
      </trkpt>
      <trkpt lat="43.61755" lon="3.73872">
        <ele>151</ele>
        <time>2021-05-14T13:12:08Z</time>
      </trkpt>
      <trkpt lat="43.61754" lon="3.73869">
        <ele>151</ele>
        <time>2021-05-14T13:12:09Z</time>
      </trkpt>
      <trkpt lat="43.61754" lon="3.73861">
        <ele>151</ele>
        <time>2021-05-14T13:12:11Z</time>
      </trkpt>
      <trkpt lat="43.61753" lon="3.73858">
        <ele>151</ele>
        <time>2021-05-14T13:12:12Z</time>
      </trkpt>
      <trkpt lat="43.61753" lon="3.73855">
        <ele>151</ele>
        <time>2021-05-14T13:12:13Z</time>
      </trkpt>
      <trkpt lat="43.61752" lon="3.73851">
        <ele>151</ele>
        <time>2021-05-14T13:12:14Z</time>
      </trkpt>
      <trkpt lat="43.61751" lon="3.73848">
        <ele>151</ele>
        <time>2021-05-14T13:12:15Z</time>
      </trkpt>
      <trkpt lat="43.6175" lon="3.73845">
        <ele>151</ele>
        <time>2021-05-14T13:12:16Z</time>
      </trkpt>
      <trkpt lat="43.6175" lon="3.73842">
        <ele>151</ele>
        <time>2021-05-14T13:12:17Z</time>
      </trkpt>
      <trkpt lat="43.61749" lon="3.73838">
        <ele>151</ele>
        <time>2021-05-14T13:12:18Z</time>
      </trkpt>
      <trkpt lat="43.61748" lon="3.73834">
        <ele>151</ele>
        <time>2021-05-14T13:12:19Z</time>
      </trkpt>
      <trkpt lat="43.61747" lon="3.73831">
        <ele>151</ele>
        <time>2021-05-14T13:12:20Z</time>
      </trkpt>
      <trkpt lat="43.61746" lon="3.73828">
        <ele>151</ele>
        <time>2021-05-14T13:12:21Z</time>
      </trkpt>
      <trkpt lat="43.61746" lon="3.73825">
        <ele>151</ele>
        <time>2021-05-14T13:12:23Z</time>
      </trkpt>
      <trkpt lat="43.61746" lon="3.73822">
        <ele>151</ele>
        <time>2021-05-14T13:12:24Z</time>
      </trkpt>
      <trkpt lat="43.61746" lon="3.73818">
        <ele>151</ele>
        <time>2021-05-14T13:12:25Z</time>
      </trkpt>
      <trkpt lat="43.61745" lon="3.73814">
        <ele>151</ele>
        <time>2021-05-14T13:12:26Z</time>
      </trkpt>
      <trkpt lat="43.61744" lon="3.73811">
        <ele>151</ele>
        <time>2021-05-14T13:12:27Z</time>
      </trkpt>
      <trkpt lat="43.61743" lon="3.73809">
        <ele>151</ele>
        <time>2021-05-14T13:12:28Z</time>
      </trkpt>
      <trkpt lat="43.61741" lon="3.73806">
        <ele>151</ele>
        <time>2021-05-14T13:12:29Z</time>
      </trkpt>
      <trkpt lat="43.61739" lon="3.73804">
        <ele>151</ele>
        <time>2021-05-14T13:12:30Z</time>
      </trkpt>
      <trkpt lat="43.61737" lon="3.73802">
        <ele>151</ele>
        <time>2021-05-14T13:12:31Z</time>
      </trkpt>
      <trkpt lat="43.61736" lon="3.738">
        <ele>151</ele>
        <time>2021-05-14T13:12:32Z</time>
      </trkpt>
      <trkpt lat="43.61733" lon="3.73798">
        <ele>151</ele>
        <time>2021-05-14T13:12:33Z</time>
      </trkpt>
      <trkpt lat="43.61731" lon="3.73795">
        <ele>151</ele>
        <time>2021-05-14T13:12:34Z</time>
      </trkpt>
      <trkpt lat="43.61729" lon="3.73792">
        <ele>151</ele>
        <time>2021-05-14T13:12:35Z</time>
      </trkpt>
      <trkpt lat="43.61727" lon="3.73789">
        <ele>151</ele>
        <time>2021-05-14T13:12:36Z</time>
      </trkpt>
      <trkpt lat="43.61726" lon="3.73787">
        <ele>151</ele>
        <time>2021-05-14T13:12:37Z</time>
      </trkpt>
      <trkpt lat="43.61724" lon="3.73784">
        <ele>151</ele>
        <time>2021-05-14T13:12:38Z</time>
      </trkpt>
      <trkpt lat="43.61723" lon="3.73782">
        <ele>151</ele>
        <time>2021-05-14T13:12:39Z</time>
      </trkpt>
      <trkpt lat="43.6172" lon="3.73781">
        <ele>152</ele>
        <time>2021-05-14T13:12:41Z</time>
      </trkpt>
      <trkpt lat="43.61717" lon="3.7378">
        <ele>152</ele>
        <time>2021-05-14T13:12:43Z</time>
      </trkpt>
      <trkpt lat="43.61715" lon="3.73779">
        <ele>152</ele>
        <time>2021-05-14T13:12:44Z</time>
      </trkpt>
      <trkpt lat="43.61714" lon="3.73776">
        <ele>152</ele>
        <time>2021-05-14T13:12:45Z</time>
      </trkpt>
      <trkpt lat="43.61713" lon="3.73773">
        <ele>152</ele>
        <time>2021-05-14T13:12:46Z</time>
      </trkpt>
      <trkpt lat="43.61712" lon="3.73769">
        <ele>152</ele>
        <time>2021-05-14T13:12:47Z</time>
      </trkpt>
      <trkpt lat="43.61711" lon="3.73765">
        <ele>152</ele>
        <time>2021-05-14T13:12:48Z</time>
      </trkpt>
      <trkpt lat="43.6171" lon="3.7376">
        <ele>152</ele>
        <time>2021-05-14T13:12:49Z</time>
      </trkpt>
      <trkpt lat="43.61707" lon="3.73749">
        <ele>152</ele>
        <time>2021-05-14T13:12:50Z</time>
      </trkpt>
      <trkpt lat="43.61705" lon="3.73743">
        <ele>151</ele>
        <time>2021-05-14T13:12:51Z</time>
      </trkpt>
      <trkpt lat="43.61699" lon="3.7373">
        <ele>151</ele>
        <time>2021-05-14T13:12:53Z</time>
      </trkpt>
      <trkpt lat="43.61696" lon="3.73725">
        <ele>151</ele>
        <time>2021-05-14T13:12:54Z</time>
      </trkpt>
      <trkpt lat="43.61694" lon="3.7372">
        <ele>151</ele>
        <time>2021-05-14T13:12:55Z</time>
      </trkpt>
      <trkpt lat="43.61691" lon="3.73714">
        <ele>151</ele>
        <time>2021-05-14T13:12:56Z</time>
      </trkpt>
      <trkpt lat="43.61689" lon="3.73706">
        <ele>151</ele>
        <time>2021-05-14T13:12:57Z</time>
      </trkpt>
      <trkpt lat="43.61686" lon="3.73697">
        <ele>151</ele>
        <time>2021-05-14T13:12:58Z</time>
      </trkpt>
      <trkpt lat="43.6168" lon="3.73685">
        <ele>151</ele>
        <time>2021-05-14T13:13:00Z</time>
      </trkpt>
      <trkpt lat="43.61671" lon="3.73684">
        <ele>151</ele>
        <time>2021-05-14T13:13:03Z</time>
      </trkpt>
      <trkpt lat="43.61661" lon="3.73686">
        <ele>151</ele>
        <time>2021-05-14T13:13:05Z</time>
      </trkpt>
      <trkpt lat="43.61648" lon="3.73687">
        <ele>151</ele>
        <time>2021-05-14T13:13:06Z</time>
      </trkpt>
      <trkpt lat="43.61634" lon="3.73687">
        <ele>151</ele>
        <time>2021-05-14T13:13:08Z</time>
      </trkpt>
      <trkpt lat="43.61621" lon="3.73688">
        <ele>147</ele>
        <time>2021-05-14T13:13:11Z</time>
      </trkpt>
      <trkpt lat="43.61606" lon="3.73691">
        <ele>147</ele>
        <time>2021-05-14T13:13:13Z</time>
      </trkpt>
      <trkpt lat="43.61589" lon="3.73696">
        <ele>147</ele>
        <time>2021-05-14T13:13:15Z</time>
      </trkpt>
      <trkpt lat="43.61576" lon="3.73703">
        <ele>147</ele>
        <time>2021-05-14T13:13:16Z</time>
      </trkpt>
      <trkpt lat="43.6157" lon="3.73707">
        <ele>147</ele>
        <time>2021-05-14T13:13:17Z</time>
      </trkpt>
      <trkpt lat="43.61565" lon="3.73711">
        <ele>147</ele>
        <time>2021-05-14T13:13:18Z</time>
      </trkpt>
      <trkpt lat="43.61561" lon="3.73715">
        <ele>147</ele>
        <time>2021-05-14T13:13:20Z</time>
      </trkpt>
      <trkpt lat="43.61559" lon="3.7372">
        <ele>142</ele>
        <time>2021-05-14T13:13:21Z</time>
      </trkpt>
      <trkpt lat="43.61558" lon="3.73725">
        <ele>142</ele>
        <time>2021-05-14T13:13:22Z</time>
      </trkpt>
      <trkpt lat="43.61557" lon="3.73731">
        <ele>142</ele>
        <time>2021-05-14T13:13:23Z</time>
      </trkpt>
      <trkpt lat="43.61557" lon="3.73737">
        <ele>142</ele>
        <time>2021-05-14T13:13:24Z</time>
      </trkpt>
      <trkpt lat="43.61556" lon="3.73742">
        <ele>142</ele>
        <time>2021-05-14T13:13:25Z</time>
      </trkpt>
      <trkpt lat="43.61554" lon="3.73748">
        <ele>142</ele>
        <time>2021-05-14T13:13:26Z</time>
      </trkpt>
      <trkpt lat="43.61553" lon="3.73754">
        <ele>142</ele>
        <time>2021-05-14T13:13:27Z</time>
      </trkpt>
      <trkpt lat="43.61552" lon="3.7376">
        <ele>142</ele>
        <time>2021-05-14T13:13:28Z</time>
      </trkpt>
      <trkpt lat="43.6155" lon="3.73765">
        <ele>142</ele>
        <time>2021-05-14T13:13:29Z</time>
      </trkpt>
      <trkpt lat="43.61549" lon="3.7377">
        <ele>142</ele>
        <time>2021-05-14T13:13:30Z</time>
      </trkpt>
      <trkpt lat="43.61548" lon="3.73776">
        <ele>135</ele>
        <time>2021-05-14T13:13:31Z</time>
      </trkpt>
      <trkpt lat="43.61546" lon="3.73782">
        <ele>135</ele>
        <time>2021-05-14T13:13:32Z</time>
      </trkpt>
      <trkpt lat="43.61545" lon="3.73789">
        <ele>135</ele>
        <time>2021-05-14T13:13:33Z</time>
      </trkpt>
      <trkpt lat="43.61543" lon="3.73795">
        <ele>135</ele>
        <time>2021-05-14T13:13:34Z</time>
      </trkpt>
      <trkpt lat="43.61541" lon="3.73801">
        <ele>135</ele>
        <time>2021-05-14T13:13:35Z</time>
      </trkpt>
      <trkpt lat="43.61539" lon="3.73808">
        <ele>135</ele>
        <time>2021-05-14T13:13:36Z</time>
      </trkpt>
      <trkpt lat="43.61535" lon="3.73824">
        <ele>135</ele>
        <time>2021-05-14T13:13:37Z</time>
      </trkpt>
      <trkpt lat="43.61533" lon="3.73831">
        <ele>135</ele>
        <time>2021-05-14T13:13:38Z</time>
      </trkpt>
      <trkpt lat="43.61531" lon="3.73838">
        <ele>135</ele>
        <time>2021-05-14T13:13:39Z</time>
      </trkpt>
      <trkpt lat="43.61529" lon="3.73842">
        <ele>135</ele>
        <time>2021-05-14T13:13:40Z</time>
      </trkpt>
      <trkpt lat="43.61526" lon="3.73844">
        <ele>135</ele>
        <time>2021-05-14T13:13:42Z</time>
      </trkpt>
      <trkpt lat="43.61522" lon="3.73845">
        <ele>135</ele>
        <time>2021-05-14T13:13:43Z</time>
      </trkpt>
      <trkpt lat="43.61519" lon="3.73844">
        <ele>135</ele>
        <time>2021-05-14T13:13:44Z</time>
      </trkpt>
      <trkpt lat="43.61516" lon="3.73842">
        <ele>135</ele>
        <time>2021-05-14T13:13:45Z</time>
      </trkpt>
      <trkpt lat="43.6151" lon="3.73837">
        <ele>135</ele>
        <time>2021-05-14T13:13:46Z</time>
      </trkpt>
      <trkpt lat="43.61507" lon="3.73834">
        <ele>135</ele>
        <time>2021-05-14T13:13:47Z</time>
      </trkpt>
      <trkpt lat="43.61504" lon="3.73832">
        <ele>135</ele>
        <time>2021-05-14T13:13:48Z</time>
      </trkpt>
      <trkpt lat="43.61501" lon="3.7383">
        <ele>135</ele>
        <time>2021-05-14T13:13:49Z</time>
      </trkpt>
      <trkpt lat="43.61498" lon="3.73827">
        <ele>124</ele>
        <time>2021-05-14T13:13:51Z</time>
      </trkpt>
      <trkpt lat="43.61496" lon="3.73825">
        <ele>124</ele>
        <time>2021-05-14T13:13:52Z</time>
      </trkpt>
      <trkpt lat="43.61494" lon="3.73822">
        <ele>124</ele>
        <time>2021-05-14T13:13:53Z</time>
      </trkpt>
      <trkpt lat="43.61492" lon="3.7382">
        <ele>124</ele>
        <time>2021-05-14T13:13:54Z</time>
      </trkpt>
      <trkpt lat="43.6149" lon="3.73818">
        <ele>124</ele>
        <time>2021-05-14T13:13:55Z</time>
      </trkpt>
      <trkpt lat="43.61489" lon="3.73817">
        <ele>124</ele>
        <time>2021-05-14T13:13:56Z</time>
      </trkpt>
      <trkpt lat="43.61487" lon="3.73815">
        <ele>124</ele>
        <time>2021-05-14T13:13:57Z</time>
      </trkpt>
      <trkpt lat="43.61485" lon="3.73814">
        <ele>124</ele>
        <time>2021-05-14T13:13:58Z</time>
      </trkpt>
      <trkpt lat="43.61484" lon="3.73812">
        <ele>124</ele>
        <time>2021-05-14T13:13:59Z</time>
      </trkpt>
      <trkpt lat="43.61482" lon="3.73811">
        <ele>124</ele>
        <time>2021-05-14T13:14:00Z</time>
      </trkpt>
      <trkpt lat="43.6148" lon="3.73809">
        <ele>123</ele>
        <time>2021-05-14T13:14:01Z</time>
      </trkpt>
      <trkpt lat="43.61478" lon="3.73806">
        <ele>123</ele>
        <time>2021-05-14T13:14:03Z</time>
      </trkpt>
      <trkpt lat="43.61476" lon="3.73802">
        <ele>123</ele>
        <time>2021-05-14T13:14:04Z</time>
      </trkpt>
      <trkpt lat="43.61474" lon="3.73799">
        <ele>123</ele>
        <time>2021-05-14T13:14:06Z</time>
      </trkpt>
      <trkpt lat="43.61473" lon="3.73794">
        <ele>123</ele>
        <time>2021-05-14T13:14:08Z</time>
      </trkpt>
      <trkpt lat="43.61472" lon="3.73789">
        <ele>123</ele>
        <time>2021-05-14T13:14:10Z</time>
      </trkpt>
      <trkpt lat="43.61472" lon="3.73786">
        <ele>123</ele>
        <time>2021-05-14T13:14:12Z</time>
      </trkpt>
      <trkpt lat="43.61471" lon="3.73782">
        <ele>123</ele>
        <time>2021-05-14T13:14:14Z</time>
      </trkpt>
      <trkpt lat="43.6147" lon="3.73777">
        <ele>123</ele>
        <time>2021-05-14T13:14:16Z</time>
      </trkpt>
      <trkpt lat="43.6147" lon="3.73773">
        <ele>123</ele>
        <time>2021-05-14T13:14:18Z</time>
      </trkpt>
      <trkpt lat="43.6147" lon="3.73769">
        <ele>123</ele>
        <time>2021-05-14T13:14:20Z</time>
      </trkpt>
      <trkpt lat="43.61469" lon="3.73765">
        <ele>123</ele>
        <time>2021-05-14T13:14:22Z</time>
      </trkpt>
      <trkpt lat="43.61469" lon="3.73761">
        <ele>123</ele>
        <time>2021-05-14T13:14:24Z</time>
      </trkpt>
      <trkpt lat="43.61469" lon="3.73757">
        <ele>123</ele>
        <time>2021-05-14T13:14:26Z</time>
      </trkpt>
      <trkpt lat="43.61468" lon="3.73753">
        <ele>123</ele>
        <time>2021-05-14T13:14:28Z</time>
      </trkpt>
      <trkpt lat="43.61468" lon="3.7375">
        <ele>123</ele>
        <time>2021-05-14T13:14:29Z</time>
      </trkpt>
      <trkpt lat="43.61468" lon="3.73748">
        <ele>123</ele>
        <time>2021-05-14T13:14:30Z</time>
      </trkpt>
      <trkpt lat="43.61468" lon="3.73744">
        <ele>123</ele>
        <time>2021-05-14T13:14:32Z</time>
      </trkpt>
      <trkpt lat="43.61467" lon="3.73739">
        <ele>123</ele>
        <time>2021-05-14T13:14:34Z</time>
      </trkpt>
      <trkpt lat="43.61467" lon="3.73735">
        <ele>123</ele>
        <time>2021-05-14T13:14:36Z</time>
      </trkpt>
      <trkpt lat="43.61467" lon="3.73732">
        <ele>123</ele>
        <time>2021-05-14T13:14:37Z</time>
      </trkpt>
      <trkpt lat="43.61466" lon="3.73729">
        <ele>123</ele>
        <time>2021-05-14T13:14:39Z</time>
      </trkpt>
      <trkpt lat="43.61466" lon="3.73727">
        <ele>123</ele>
        <time>2021-05-14T13:14:40Z</time>
      </trkpt>
      <trkpt lat="43.61466" lon="3.73724">
        <ele>124</ele>
        <time>2021-05-14T13:14:41Z</time>
      </trkpt>
      <trkpt lat="43.61465" lon="3.73717">
        <ele>124</ele>
        <time>2021-05-14T13:14:42Z</time>
      </trkpt>
      <trkpt lat="43.61464" lon="3.73713">
        <ele>124</ele>
        <time>2021-05-14T13:14:43Z</time>
      </trkpt>
      <trkpt lat="43.61463" lon="3.7371">
        <ele>124</ele>
        <time>2021-05-14T13:14:44Z</time>
      </trkpt>
      <trkpt lat="43.61462" lon="3.73706">
        <ele>124</ele>
        <time>2021-05-14T13:14:45Z</time>
      </trkpt>
      <trkpt lat="43.61462" lon="3.73703">
        <ele>124</ele>
        <time>2021-05-14T13:14:46Z</time>
      </trkpt>
      <trkpt lat="43.61461" lon="3.737">
        <ele>124</ele>
        <time>2021-05-14T13:14:48Z</time>
      </trkpt>
      <trkpt lat="43.61461" lon="3.73697">
        <ele>124</ele>
        <time>2021-05-14T13:14:49Z</time>
      </trkpt>
      <trkpt lat="43.6146" lon="3.73695">
        <ele>124</ele>
        <time>2021-05-14T13:14:50Z</time>
      </trkpt>
      <trkpt lat="43.61458" lon="3.7369">
        <ele>125</ele>
        <time>2021-05-14T13:14:51Z</time>
      </trkpt>
      <trkpt lat="43.61457" lon="3.73688">
        <ele>125</ele>
        <time>2021-05-14T13:14:52Z</time>
      </trkpt>
      <trkpt lat="43.61456" lon="3.73686">
        <ele>125</ele>
        <time>2021-05-14T13:14:53Z</time>
      </trkpt>
      <trkpt lat="43.61454" lon="3.73682">
        <ele>125</ele>
        <time>2021-05-14T13:14:55Z</time>
      </trkpt>
      <trkpt lat="43.61452" lon="3.73679">
        <ele>125</ele>
        <time>2021-05-14T13:14:57Z</time>
      </trkpt>
      <trkpt lat="43.61449" lon="3.73676">
        <ele>125</ele>
        <time>2021-05-14T13:14:59Z</time>
      </trkpt>
      <trkpt lat="43.61447" lon="3.73673">
        <ele>126</ele>
        <time>2021-05-14T13:15:01Z</time>
      </trkpt>
      <trkpt lat="43.61446" lon="3.7367">
        <ele>126</ele>
        <time>2021-05-14T13:15:03Z</time>
      </trkpt>
      <trkpt lat="43.61444" lon="3.73667">
        <ele>126</ele>
        <time>2021-05-14T13:15:05Z</time>
      </trkpt>
      <trkpt lat="43.61443" lon="3.73665">
        <ele>126</ele>
        <time>2021-05-14T13:15:07Z</time>
      </trkpt>
      <trkpt lat="43.61441" lon="3.73663">
        <ele>126</ele>
        <time>2021-05-14T13:15:09Z</time>
      </trkpt>
      <trkpt lat="43.61438" lon="3.73663">
        <ele>127</ele>
        <time>2021-05-14T13:15:11Z</time>
      </trkpt>
      <trkpt lat="43.61436" lon="3.73664">
        <ele>127</ele>
        <time>2021-05-14T13:15:13Z</time>
      </trkpt>
      <trkpt lat="43.61434" lon="3.73665">
        <ele>127</ele>
        <time>2021-05-14T13:15:15Z</time>
      </trkpt>
      <trkpt lat="43.61431" lon="3.73667">
        <ele>127</ele>
        <time>2021-05-14T13:15:17Z</time>
      </trkpt>
      <trkpt lat="43.61429" lon="3.73669">
        <ele>127</ele>
        <time>2021-05-14T13:15:19Z</time>
      </trkpt>
      <trkpt lat="43.61428" lon="3.73671">
        <ele>129</ele>
        <time>2021-05-14T13:15:21Z</time>
      </trkpt>
      <trkpt lat="43.61426" lon="3.73673">
        <ele>129</ele>
        <time>2021-05-14T13:15:23Z</time>
      </trkpt>
      <trkpt lat="43.61424" lon="3.73675">
        <ele>129</ele>
        <time>2021-05-14T13:15:25Z</time>
      </trkpt>
      <trkpt lat="43.61421" lon="3.73676">
        <ele>129</ele>
        <time>2021-05-14T13:15:27Z</time>
      </trkpt>
      <trkpt lat="43.61418" lon="3.73677">
        <ele>129</ele>
        <time>2021-05-14T13:15:29Z</time>
      </trkpt>
      <trkpt lat="43.61416" lon="3.73679">
        <ele>129</ele>
        <time>2021-05-14T13:15:32Z</time>
      </trkpt>
      <trkpt lat="43.61414" lon="3.7368">
        <ele>129</ele>
        <time>2021-05-14T13:15:34Z</time>
      </trkpt>
      <trkpt lat="43.61411" lon="3.73682">
        <ele>129</ele>
        <time>2021-05-14T13:15:36Z</time>
      </trkpt>
      <trkpt lat="43.61409" lon="3.73683">
        <ele>129</ele>
        <time>2021-05-14T13:15:37Z</time>
      </trkpt>
      <trkpt lat="43.61407" lon="3.73684">
        <ele>129</ele>
        <time>2021-05-14T13:15:40Z</time>
      </trkpt>
      <trkpt lat="43.61404" lon="3.73685">
        <ele>131</ele>
        <time>2021-05-14T13:15:41Z</time>
      </trkpt>
      <trkpt lat="43.61401" lon="3.73686">
        <ele>131</ele>
        <time>2021-05-14T13:15:43Z</time>
      </trkpt>
      <trkpt lat="43.61399" lon="3.73688">
        <ele>131</ele>
        <time>2021-05-14T13:15:45Z</time>
      </trkpt>
      <trkpt lat="43.61398" lon="3.7369">
        <ele>131</ele>
        <time>2021-05-14T13:15:47Z</time>
      </trkpt>
      <trkpt lat="43.61396" lon="3.73691">
        <ele>131</ele>
        <time>2021-05-14T13:15:49Z</time>
      </trkpt>
      <trkpt lat="43.61393" lon="3.73692">
        <ele>132</ele>
        <time>2021-05-14T13:15:51Z</time>
      </trkpt>
      <trkpt lat="43.6139" lon="3.73694">
        <ele>132</ele>
        <time>2021-05-14T13:15:53Z</time>
      </trkpt>
      <trkpt lat="43.61387" lon="3.73695">
        <ele>132</ele>
        <time>2021-05-14T13:15:55Z</time>
      </trkpt>
      <trkpt lat="43.61384" lon="3.73697">
        <ele>132</ele>
        <time>2021-05-14T13:15:57Z</time>
      </trkpt>
      <trkpt lat="43.61381" lon="3.73698">
        <ele>132</ele>
        <time>2021-05-14T13:15:59Z</time>
      </trkpt>
      <trkpt lat="43.61379" lon="3.73699">
        <ele>134</ele>
        <time>2021-05-14T13:16:01Z</time>
      </trkpt>
      <trkpt lat="43.61377" lon="3.73701">
        <ele>134</ele>
        <time>2021-05-14T13:16:03Z</time>
      </trkpt>
      <trkpt lat="43.61374" lon="3.73701">
        <ele>134</ele>
        <time>2021-05-14T13:16:05Z</time>
      </trkpt>
      <trkpt lat="43.61372" lon="3.73702">
        <ele>134</ele>
        <time>2021-05-14T13:16:07Z</time>
      </trkpt>
      <trkpt lat="43.61369" lon="3.73703">
        <ele>134</ele>
        <time>2021-05-14T13:16:08Z</time>
      </trkpt>
      <trkpt lat="43.61367" lon="3.73705">
        <ele>134</ele>
        <time>2021-05-14T13:16:10Z</time>
      </trkpt>
      <trkpt lat="43.61364" lon="3.73706">
        <ele>134</ele>
        <time>2021-05-14T13:16:12Z</time>
      </trkpt>
      <trkpt lat="43.61361" lon="3.73706">
        <ele>134</ele>
        <time>2021-05-14T13:16:14Z</time>
      </trkpt>
      <trkpt lat="43.61359" lon="3.73706">
        <ele>134</ele>
        <time>2021-05-14T13:16:16Z</time>
      </trkpt>
      <trkpt lat="43.61356" lon="3.73706">
        <ele>134</ele>
        <time>2021-05-14T13:16:18Z</time>
      </trkpt>
      <trkpt lat="43.61353" lon="3.73706">
        <ele>134</ele>
        <time>2021-05-14T13:16:20Z</time>
      </trkpt>
      <trkpt lat="43.6135" lon="3.73706">
        <ele>134</ele>
        <time>2021-05-14T13:16:23Z</time>
      </trkpt>
      <trkpt lat="43.61347" lon="3.73706">
        <ele>134</ele>
        <time>2021-05-14T13:16:25Z</time>
      </trkpt>
      <trkpt lat="43.61345" lon="3.73706">
        <ele>134</ele>
        <time>2021-05-14T13:16:26Z</time>
      </trkpt>
      <trkpt lat="43.61343" lon="3.73706">
        <ele>134</ele>
        <time>2021-05-14T13:16:27Z</time>
      </trkpt>
      <trkpt lat="43.6134" lon="3.73707">
        <ele>134</ele>
        <time>2021-05-14T13:16:28Z</time>
      </trkpt>
      <trkpt lat="43.61337" lon="3.73708">
        <ele>134</ele>
        <time>2021-05-14T13:16:30Z</time>
      </trkpt>
      <trkpt lat="43.61334" lon="3.73708">
        <ele>134</ele>
        <time>2021-05-14T13:16:32Z</time>
      </trkpt>
      <trkpt lat="43.61331" lon="3.73708">
        <ele>134</ele>
        <time>2021-05-14T13:16:34Z</time>
      </trkpt>
      <trkpt lat="43.61328" lon="3.73708">
        <ele>134</ele>
        <time>2021-05-14T13:16:36Z</time>
      </trkpt>
      <trkpt lat="43.61325" lon="3.73709">
        <ele>134</ele>
        <time>2021-05-14T13:16:38Z</time>
      </trkpt>
      <trkpt lat="43.61322" lon="3.7371">
        <ele>134</ele>
        <time>2021-05-14T13:16:40Z</time>
      </trkpt>
      <trkpt lat="43.61319" lon="3.73712">
        <ele>134</ele>
        <time>2021-05-14T13:16:42Z</time>
      </trkpt>
      <trkpt lat="43.61316" lon="3.73712">
        <ele>134</ele>
        <time>2021-05-14T13:16:44Z</time>
      </trkpt>
      <trkpt lat="43.61312" lon="3.73713">
        <ele>134</ele>
        <time>2021-05-14T13:16:46Z</time>
      </trkpt>
      <trkpt lat="43.61311" lon="3.73713">
        <ele>134</ele>
        <time>2021-05-14T13:16:47Z</time>
      </trkpt>
      <trkpt lat="43.61309" lon="3.73713">
        <ele>134</ele>
        <time>2021-05-14T13:16:49Z</time>
      </trkpt>
      <trkpt lat="43.61305" lon="3.73713">
        <ele>134</ele>
        <time>2021-05-14T13:16:50Z</time>
      </trkpt>
      <trkpt lat="43.61303" lon="3.73714">
        <ele>134</ele>
        <time>2021-05-14T13:16:53Z</time>
      </trkpt>
      <trkpt lat="43.613" lon="3.73715">
        <ele>134</ele>
        <time>2021-05-14T13:16:54Z</time>
      </trkpt>
      <trkpt lat="43.61298" lon="3.73716">
        <ele>134</ele>
        <time>2021-05-14T13:16:56Z</time>
      </trkpt>
      <trkpt lat="43.61295" lon="3.73718">
        <ele>134</ele>
        <time>2021-05-14T13:16:58Z</time>
      </trkpt>
      <trkpt lat="43.61293" lon="3.7372">
        <ele>134</ele>
        <time>2021-05-14T13:17:00Z</time>
      </trkpt>
      <trkpt lat="43.6129" lon="3.73722">
        <ele>134</ele>
        <time>2021-05-14T13:17:02Z</time>
      </trkpt>
      <trkpt lat="43.61287" lon="3.73723">
        <ele>134</ele>
        <time>2021-05-14T13:17:04Z</time>
      </trkpt>
      <trkpt lat="43.61284" lon="3.73724">
        <ele>134</ele>
        <time>2021-05-14T13:17:06Z</time>
      </trkpt>
      <trkpt lat="43.61281" lon="3.73724">
        <ele>134</ele>
        <time>2021-05-14T13:17:08Z</time>
      </trkpt>
      <trkpt lat="43.61278" lon="3.73725">
        <ele>134</ele>
        <time>2021-05-14T13:17:10Z</time>
      </trkpt>
      <trkpt lat="43.61276" lon="3.73725">
        <ele>134</ele>
        <time>2021-05-14T13:17:12Z</time>
      </trkpt>
      <trkpt lat="43.61273" lon="3.73724">
        <ele>134</ele>
        <time>2021-05-14T13:17:14Z</time>
      </trkpt>
      <trkpt lat="43.6127" lon="3.73723">
        <ele>134</ele>
        <time>2021-05-14T13:17:16Z</time>
      </trkpt>
      <trkpt lat="43.61267" lon="3.73721">
        <ele>134</ele>
        <time>2021-05-14T13:17:18Z</time>
      </trkpt>
      <trkpt lat="43.61264" lon="3.7372">
        <ele>134</ele>
        <time>2021-05-14T13:17:20Z</time>
      </trkpt>
      <trkpt lat="43.61262" lon="3.73719">
        <ele>134</ele>
        <time>2021-05-14T13:17:22Z</time>
      </trkpt>
      <trkpt lat="43.61259" lon="3.73718">
        <ele>134</ele>
        <time>2021-05-14T13:17:24Z</time>
      </trkpt>
      <trkpt lat="43.61257" lon="3.73717">
        <ele>134</ele>
        <time>2021-05-14T13:17:26Z</time>
      </trkpt>
      <trkpt lat="43.61254" lon="3.73717">
        <ele>134</ele>
        <time>2021-05-14T13:17:28Z</time>
      </trkpt>
      <trkpt lat="43.61251" lon="3.73715">
        <ele>134</ele>
        <time>2021-05-14T13:17:30Z</time>
      </trkpt>
      <trkpt lat="43.61249" lon="3.73714">
        <ele>134</ele>
        <time>2021-05-14T13:17:32Z</time>
      </trkpt>
      <trkpt lat="43.61246" lon="3.73713">
        <ele>134</ele>
        <time>2021-05-14T13:17:34Z</time>
      </trkpt>
      <trkpt lat="43.61244" lon="3.73712">
        <ele>134</ele>
        <time>2021-05-14T13:17:36Z</time>
      </trkpt>
      <trkpt lat="43.61241" lon="3.73711">
        <ele>134</ele>
        <time>2021-05-14T13:17:38Z</time>
      </trkpt>
      <trkpt lat="43.61239" lon="3.73712">
        <ele>134</ele>
        <time>2021-05-14T13:17:40Z</time>
      </trkpt>
      <trkpt lat="43.61236" lon="3.73711">
        <ele>134</ele>
        <time>2021-05-14T13:17:42Z</time>
      </trkpt>
      <trkpt lat="43.61233" lon="3.7371">
        <ele>134</ele>
        <time>2021-05-14T13:17:44Z</time>
      </trkpt>
      <trkpt lat="43.61231" lon="3.73709">
        <ele>134</ele>
        <time>2021-05-14T13:17:46Z</time>
      </trkpt>
      <trkpt lat="43.61228" lon="3.73708">
        <ele>134</ele>
        <time>2021-05-14T13:17:49Z</time>
      </trkpt>
      <trkpt lat="43.61225" lon="3.73706">
        <ele>134</ele>
        <time>2021-05-14T13:17:50Z</time>
      </trkpt>
      <trkpt lat="43.61222" lon="3.73705">
        <ele>134</ele>
        <time>2021-05-14T13:17:52Z</time>
      </trkpt>
      <trkpt lat="43.6122" lon="3.73704">
        <ele>134</ele>
        <time>2021-05-14T13:17:54Z</time>
      </trkpt>
      <trkpt lat="43.61217" lon="3.73702">
        <ele>134</ele>
        <time>2021-05-14T13:17:56Z</time>
      </trkpt>
      <trkpt lat="43.61214" lon="3.73701">
        <ele>134</ele>
        <time>2021-05-14T13:17:59Z</time>
      </trkpt>
      <trkpt lat="43.61212" lon="3.737">
        <ele>151</ele>
        <time>2021-05-14T13:18:01Z</time>
      </trkpt>
      <trkpt lat="43.61209" lon="3.73699">
        <ele>151</ele>
        <time>2021-05-14T13:18:03Z</time>
      </trkpt>
      <trkpt lat="43.61206" lon="3.73698">
        <ele>151</ele>
        <time>2021-05-14T13:18:05Z</time>
      </trkpt>
      <trkpt lat="43.61203" lon="3.73697">
        <ele>151</ele>
        <time>2021-05-14T13:18:07Z</time>
      </trkpt>
      <trkpt lat="43.61201" lon="3.73696">
        <ele>151</ele>
        <time>2021-05-14T13:18:09Z</time>
      </trkpt>
      <trkpt lat="43.61198" lon="3.73695">
        <ele>152</ele>
        <time>2021-05-14T13:18:11Z</time>
      </trkpt>
      <trkpt lat="43.61195" lon="3.73694">
        <ele>152</ele>
        <time>2021-05-14T13:18:13Z</time>
      </trkpt>
      <trkpt lat="43.61193" lon="3.73692">
        <ele>152</ele>
        <time>2021-05-14T13:18:15Z</time>
      </trkpt>
      <trkpt lat="43.6119" lon="3.73691">
        <ele>152</ele>
        <time>2021-05-14T13:18:17Z</time>
      </trkpt>
      <trkpt lat="43.61187" lon="3.7369">
        <ele>152</ele>
        <time>2021-05-14T13:18:18Z</time>
      </trkpt>
      <trkpt lat="43.61184" lon="3.7369">
        <ele>152</ele>
        <time>2021-05-14T13:18:20Z</time>
      </trkpt>
      <trkpt lat="43.61181" lon="3.73689">
        <ele>152</ele>
        <time>2021-05-14T13:18:22Z</time>
      </trkpt>
      <trkpt lat="43.61179" lon="3.73686">
        <ele>152</ele>
        <time>2021-05-14T13:18:24Z</time>
      </trkpt>
      <trkpt lat="43.61176" lon="3.73683">
        <ele>152</ele>
        <time>2021-05-14T13:18:26Z</time>
      </trkpt>
      <trkpt lat="43.61174" lon="3.73679">
        <ele>152</ele>
        <time>2021-05-14T13:18:28Z</time>
      </trkpt>
      <trkpt lat="43.61173" lon="3.73675">
        <ele>152</ele>
        <time>2021-05-14T13:18:30Z</time>
      </trkpt>
      <trkpt lat="43.61171" lon="3.73671">
        <ele>152</ele>
        <time>2021-05-14T13:18:32Z</time>
      </trkpt>
      <trkpt lat="43.61169" lon="3.73668">
        <ele>152</ele>
        <time>2021-05-14T13:18:34Z</time>
      </trkpt>
      <trkpt lat="43.61167" lon="3.73666">
        <ele>152</ele>
        <time>2021-05-14T13:18:35Z</time>
      </trkpt>
      <trkpt lat="43.61166" lon="3.73663">
        <ele>152</ele>
        <time>2021-05-14T13:18:36Z</time>
      </trkpt>
      <trkpt lat="43.61165" lon="3.73659">
        <ele>152</ele>
        <time>2021-05-14T13:18:38Z</time>
      </trkpt>
      <trkpt lat="43.61163" lon="3.73656">
        <ele>152</ele>
        <time>2021-05-14T13:18:40Z</time>
      </trkpt>
      <trkpt lat="43.61161" lon="3.73652">
        <ele>152</ele>
        <time>2021-05-14T13:18:42Z</time>
      </trkpt>
      <trkpt lat="43.61159" lon="3.73651">
        <ele>152</ele>
        <time>2021-05-14T13:18:43Z</time>
      </trkpt>
      <trkpt lat="43.61158" lon="3.73649">
        <ele>152</ele>
        <time>2021-05-14T13:18:44Z</time>
      </trkpt>
      <trkpt lat="43.61156" lon="3.73648">
        <ele>152</ele>
        <time>2021-05-14T13:18:45Z</time>
      </trkpt>
      <trkpt lat="43.61155" lon="3.73647">
        <ele>152</ele>
        <time>2021-05-14T13:18:47Z</time>
      </trkpt>
      <trkpt lat="43.61151" lon="3.73645">
        <ele>152</ele>
        <time>2021-05-14T13:18:48Z</time>
      </trkpt>
      <trkpt lat="43.6115" lon="3.73644">
        <ele>152</ele>
        <time>2021-05-14T13:18:49Z</time>
      </trkpt>
      <trkpt lat="43.61148" lon="3.73643">
        <ele>152</ele>
        <time>2021-05-14T13:18:50Z</time>
      </trkpt>
      <trkpt lat="43.61144" lon="3.7364">
        <ele>152</ele>
        <time>2021-05-14T13:18:52Z</time>
      </trkpt>
      <trkpt lat="43.61142" lon="3.73638">
        <ele>152</ele>
        <time>2021-05-14T13:18:53Z</time>
      </trkpt>
      <trkpt lat="43.6114" lon="3.73636">
        <ele>152</ele>
        <time>2021-05-14T13:18:54Z</time>
      </trkpt>
      <trkpt lat="43.61136" lon="3.73632">
        <ele>152</ele>
        <time>2021-05-14T13:18:56Z</time>
      </trkpt>
      <trkpt lat="43.61134" lon="3.7363">
        <ele>152</ele>
        <time>2021-05-14T13:18:57Z</time>
      </trkpt>
      <trkpt lat="43.61133" lon="3.73628">
        <ele>152</ele>
        <time>2021-05-14T13:18:58Z</time>
      </trkpt>
      <trkpt lat="43.61131" lon="3.73626">
        <ele>152</ele>
        <time>2021-05-14T13:18:59Z</time>
      </trkpt>
      <trkpt lat="43.61129" lon="3.73624">
        <ele>152</ele>
        <time>2021-05-14T13:19:00Z</time>
      </trkpt>
      <trkpt lat="43.61126" lon="3.73622">
        <ele>156</ele>
        <time>2021-05-14T13:19:01Z</time>
      </trkpt>
      <trkpt lat="43.61124" lon="3.7362">
        <ele>156</ele>
        <time>2021-05-14T13:19:02Z</time>
      </trkpt>
      <trkpt lat="43.61122" lon="3.73617">
        <ele>156</ele>
        <time>2021-05-14T13:19:03Z</time>
      </trkpt>
      <trkpt lat="43.61119" lon="3.73615">
        <ele>156</ele>
        <time>2021-05-14T13:19:04Z</time>
      </trkpt>
      <trkpt lat="43.61117" lon="3.73613">
        <ele>156</ele>
        <time>2021-05-14T13:19:05Z</time>
      </trkpt>
      <trkpt lat="43.61115" lon="3.7361">
        <ele>156</ele>
        <time>2021-05-14T13:19:06Z</time>
      </trkpt>
      <trkpt lat="43.61114" lon="3.73608">
        <ele>156</ele>
        <time>2021-05-14T13:19:07Z</time>
      </trkpt>
      <trkpt lat="43.61115" lon="3.73604">
        <ele>156</ele>
        <time>2021-05-14T13:19:09Z</time>
      </trkpt>
      <trkpt lat="43.61116" lon="3.73601">
        <ele>156</ele>
        <time>2021-05-14T13:19:10Z</time>
      </trkpt>
      <trkpt lat="43.61117" lon="3.73599">
        <ele>156</ele>
        <time>2021-05-14T13:19:11Z</time>
      </trkpt>
      <trkpt lat="43.61118" lon="3.73596">
        <ele>156</ele>
        <time>2021-05-14T13:19:12Z</time>
      </trkpt>
      <trkpt lat="43.61119" lon="3.73593">
        <ele>156</ele>
        <time>2021-05-14T13:19:13Z</time>
      </trkpt>
      <trkpt lat="43.61121" lon="3.7359">
        <ele>156</ele>
        <time>2021-05-14T13:19:14Z</time>
      </trkpt>
      <trkpt lat="43.61122" lon="3.73587">
        <ele>156</ele>
        <time>2021-05-14T13:19:15Z</time>
      </trkpt>
      <trkpt lat="43.61124" lon="3.73584">
        <ele>156</ele>
        <time>2021-05-14T13:19:16Z</time>
      </trkpt>
      <trkpt lat="43.61126" lon="3.73581">
        <ele>156</ele>
        <time>2021-05-14T13:19:17Z</time>
      </trkpt>
      <trkpt lat="43.61127" lon="3.73578">
        <ele>156</ele>
        <time>2021-05-14T13:19:18Z</time>
      </trkpt>
      <trkpt lat="43.61129" lon="3.73575">
        <ele>156</ele>
        <time>2021-05-14T13:19:19Z</time>
      </trkpt>
      <trkpt lat="43.61131" lon="3.73573">
        <ele>156</ele>
        <time>2021-05-14T13:19:20Z</time>
      </trkpt>
      <trkpt lat="43.61132" lon="3.7357">
        <ele>155</ele>
        <time>2021-05-14T13:19:21Z</time>
      </trkpt>
      <trkpt lat="43.61134" lon="3.73567">
        <ele>155</ele>
        <time>2021-05-14T13:19:22Z</time>
      </trkpt>
      <trkpt lat="43.61135" lon="3.73564">
        <ele>155</ele>
        <time>2021-05-14T13:19:23Z</time>
      </trkpt>
      <trkpt lat="43.61137" lon="3.73561">
        <ele>155</ele>
        <time>2021-05-14T13:19:24Z</time>
      </trkpt>
      <trkpt lat="43.61139" lon="3.73557">
        <ele>155</ele>
        <time>2021-05-14T13:19:25Z</time>
      </trkpt>
      <trkpt lat="43.61142" lon="3.73554">
        <ele>155</ele>
        <time>2021-05-14T13:19:26Z</time>
      </trkpt>
      <trkpt lat="43.61144" lon="3.73549">
        <ele>155</ele>
        <time>2021-05-14T13:19:27Z</time>
      </trkpt>
      <trkpt lat="43.61146" lon="3.73545">
        <ele>155</ele>
        <time>2021-05-14T13:19:28Z</time>
      </trkpt>
      <trkpt lat="43.61148" lon="3.7354">
        <ele>155</ele>
        <time>2021-05-14T13:19:29Z</time>
      </trkpt>
      <trkpt lat="43.6115" lon="3.73535">
        <ele>155</ele>
        <time>2021-05-14T13:19:30Z</time>
      </trkpt>
      <trkpt lat="43.6115" lon="3.73529">
        <ele>153</ele>
        <time>2021-05-14T13:19:31Z</time>
      </trkpt>
      <trkpt lat="43.6115" lon="3.73524">
        <ele>153</ele>
        <time>2021-05-14T13:19:32Z</time>
      </trkpt>
      <trkpt lat="43.6115" lon="3.73519">
        <ele>153</ele>
        <time>2021-05-14T13:19:33Z</time>
      </trkpt>
      <trkpt lat="43.61148" lon="3.73516">
        <ele>153</ele>
        <time>2021-05-14T13:19:34Z</time>
      </trkpt>
      <trkpt lat="43.61147" lon="3.73512">
        <ele>153</ele>
        <time>2021-05-14T13:19:35Z</time>
      </trkpt>
      <trkpt lat="43.61146" lon="3.73509">
        <ele>153</ele>
        <time>2021-05-14T13:19:36Z</time>
      </trkpt>
      <trkpt lat="43.61145" lon="3.73506">
        <ele>153</ele>
        <time>2021-05-14T13:19:37Z</time>
      </trkpt>
      <trkpt lat="43.61144" lon="3.73503">
        <ele>153</ele>
        <time>2021-05-14T13:19:38Z</time>
      </trkpt>
      <trkpt lat="43.61143" lon="3.735">
        <ele>153</ele>
        <time>2021-05-14T13:19:39Z</time>
      </trkpt>
      <trkpt lat="43.61142" lon="3.73497">
        <ele>153</ele>
        <time>2021-05-14T13:19:40Z</time>
      </trkpt>
      <trkpt lat="43.61142" lon="3.73494">
        <ele>153</ele>
        <time>2021-05-14T13:19:41Z</time>
      </trkpt>
      <trkpt lat="43.61143" lon="3.7349">
        <ele>153</ele>
        <time>2021-05-14T13:19:42Z</time>
      </trkpt>
      <trkpt lat="43.61143" lon="3.73486">
        <ele>153</ele>
        <time>2021-05-14T13:19:43Z</time>
      </trkpt>
      <trkpt lat="43.61143" lon="3.73483">
        <ele>153</ele>
        <time>2021-05-14T13:19:44Z</time>
      </trkpt>
      <trkpt lat="43.61143" lon="3.7348">
        <ele>153</ele>
        <time>2021-05-14T13:19:45Z</time>
      </trkpt>
      <trkpt lat="43.61142" lon="3.73476">
        <ele>153</ele>
        <time>2021-05-14T13:19:47Z</time>
      </trkpt>
      <trkpt lat="43.6114" lon="3.73474">
        <ele>153</ele>
        <time>2021-05-14T13:19:50Z</time>
      </trkpt>
      <trkpt lat="43.61137" lon="3.73469">
        <ele>154</ele>
        <time>2021-05-14T13:19:51Z</time>
      </trkpt>
      <trkpt lat="43.61136" lon="3.73467">
        <ele>154</ele>
        <time>2021-05-14T13:19:52Z</time>
      </trkpt>
      <trkpt lat="43.61135" lon="3.73464">
        <ele>154</ele>
        <time>2021-05-14T13:19:53Z</time>
      </trkpt>
      <trkpt lat="43.61135" lon="3.73461">
        <ele>154</ele>
        <time>2021-05-14T13:19:54Z</time>
      </trkpt>
      <trkpt lat="43.61134" lon="3.73459">
        <ele>154</ele>
        <time>2021-05-14T13:19:55Z</time>
      </trkpt>
      <trkpt lat="43.61135" lon="3.73456">
        <ele>154</ele>
        <time>2021-05-14T13:19:56Z</time>
      </trkpt>
      <trkpt lat="43.61135" lon="3.73451">
        <ele>154</ele>
        <time>2021-05-14T13:19:58Z</time>
      </trkpt>
      <trkpt lat="43.61137" lon="3.73448">
        <ele>154</ele>
        <time>2021-05-14T13:20:00Z</time>
      </trkpt>
      <trkpt lat="43.61138" lon="3.73444">
        <ele>154</ele>
        <time>2021-05-14T13:20:02Z</time>
      </trkpt>
      <trkpt lat="43.6114" lon="3.73442">
        <ele>154</ele>
        <time>2021-05-14T13:20:04Z</time>
      </trkpt>
      <trkpt lat="43.61142" lon="3.7344">
        <ele>154</ele>
        <time>2021-05-14T13:20:06Z</time>
      </trkpt>
      <trkpt lat="43.61143" lon="3.73437">
        <ele>154</ele>
        <time>2021-05-14T13:20:08Z</time>
      </trkpt>
      <trkpt lat="43.61131" lon="3.73425">
        <ele>161</ele>
        <time>2021-05-14T13:22:57Z</time>
      </trkpt>
      <trkpt lat="43.61128" lon="3.73423">
        <ele>161</ele>
        <time>2021-05-14T13:22:59Z</time>
      </trkpt>
      <trkpt lat="43.61125" lon="3.73422">
        <ele>161</ele>
        <time>2021-05-14T13:23:01Z</time>
      </trkpt>
      <trkpt lat="43.61122" lon="3.73422">
        <ele>161</ele>
        <time>2021-05-14T13:23:04Z</time>
      </trkpt>
      <trkpt lat="43.61119" lon="3.73424">
        <ele>161</ele>
        <time>2021-05-14T13:23:06Z</time>
      </trkpt>
      <trkpt lat="43.61116" lon="3.73425">
        <ele>161</ele>
        <time>2021-05-14T13:23:07Z</time>
      </trkpt>
      <trkpt lat="43.61113" lon="3.73427">
        <ele>161</ele>
        <time>2021-05-14T13:23:09Z</time>
      </trkpt>
      <trkpt lat="43.6111" lon="3.73429">
        <ele>161</ele>
        <time>2021-05-14T13:23:11Z</time>
      </trkpt>
      <trkpt lat="43.61107" lon="3.73431">
        <ele>161</ele>
        <time>2021-05-14T13:23:13Z</time>
      </trkpt>
      <trkpt lat="43.61105" lon="3.73434">
        <ele>161</ele>
        <time>2021-05-14T13:23:15Z</time>
      </trkpt>
      <trkpt lat="43.61102" lon="3.73437">
        <ele>163</ele>
        <time>2021-05-14T13:23:17Z</time>
      </trkpt>
      <trkpt lat="43.61098" lon="3.73437">
        <ele>163</ele>
        <time>2021-05-14T13:23:19Z</time>
      </trkpt>
      <trkpt lat="43.61095" lon="3.73436">
        <ele>163</ele>
        <time>2021-05-14T13:23:21Z</time>
      </trkpt>
      <trkpt lat="43.61092" lon="3.73436">
        <ele>163</ele>
        <time>2021-05-14T13:23:23Z</time>
      </trkpt>
      <trkpt lat="43.61089" lon="3.73435">
        <ele>163</ele>
        <time>2021-05-14T13:23:25Z</time>
      </trkpt>
      <trkpt lat="43.61087" lon="3.73434">
        <ele>163</ele>
        <time>2021-05-14T13:23:26Z</time>
      </trkpt>
      <trkpt lat="43.61084" lon="3.73433">
        <ele>163</ele>
        <time>2021-05-14T13:23:28Z</time>
      </trkpt>
      <trkpt lat="43.61081" lon="3.73431">
        <ele>163</ele>
        <time>2021-05-14T13:23:31Z</time>
      </trkpt>
      <trkpt lat="43.61079" lon="3.73428">
        <ele>163</ele>
        <time>2021-05-14T13:23:33Z</time>
      </trkpt>
      <trkpt lat="43.61077" lon="3.73424">
        <ele>163</ele>
        <time>2021-05-14T13:23:35Z</time>
      </trkpt>
      <trkpt lat="43.61075" lon="3.73421">
        <ele>167</ele>
        <time>2021-05-14T13:23:37Z</time>
      </trkpt>
      <trkpt lat="43.61073" lon="3.73419">
        <ele>167</ele>
        <time>2021-05-14T13:23:39Z</time>
      </trkpt>
      <trkpt lat="43.6107" lon="3.73416">
        <ele>167</ele>
        <time>2021-05-14T13:23:41Z</time>
      </trkpt>
      <trkpt lat="43.61067" lon="3.73413">
        <ele>167</ele>
        <time>2021-05-14T13:23:43Z</time>
      </trkpt>
      <trkpt lat="43.61066" lon="3.73411">
        <ele>167</ele>
        <time>2021-05-14T13:23:44Z</time>
      </trkpt>
      <trkpt lat="43.61066" lon="3.73406">
        <ele>167</ele>
        <time>2021-05-14T13:23:46Z</time>
      </trkpt>
      <trkpt lat="43.61065" lon="3.73402">
        <ele>170</ele>
        <time>2021-05-14T13:23:47Z</time>
      </trkpt>
      <trkpt lat="43.61063" lon="3.73399">
        <ele>170</ele>
        <time>2021-05-14T13:23:49Z</time>
      </trkpt>
      <trkpt lat="43.61061" lon="3.73397">
        <ele>170</ele>
        <time>2021-05-14T13:23:51Z</time>
      </trkpt>
      <trkpt lat="43.61059" lon="3.73395">
        <ele>170</ele>
        <time>2021-05-14T13:23:53Z</time>
      </trkpt>
      <trkpt lat="43.61056" lon="3.73394">
        <ele>170</ele>
        <time>2021-05-14T13:23:55Z</time>
      </trkpt>
      <trkpt lat="43.61054" lon="3.73393">
        <ele>172</ele>
        <time>2021-05-14T13:23:57Z</time>
      </trkpt>
      <trkpt lat="43.61051" lon="3.73392">
        <ele>172</ele>
        <time>2021-05-14T13:23:59Z</time>
      </trkpt>
      <trkpt lat="43.61049" lon="3.7339">
        <ele>172</ele>
        <time>2021-05-14T13:24:01Z</time>
      </trkpt>
      <trkpt lat="43.61047" lon="3.73388">
        <ele>172</ele>
        <time>2021-05-14T13:24:03Z</time>
      </trkpt>
      <trkpt lat="43.61045" lon="3.73386">
        <ele>172</ele>
        <time>2021-05-14T13:24:05Z</time>
      </trkpt>
      <trkpt lat="43.61043" lon="3.73383">
        <ele>172</ele>
        <time>2021-05-14T13:24:08Z</time>
      </trkpt>
      <trkpt lat="43.61042" lon="3.7338">
        <ele>172</ele>
        <time>2021-05-14T13:24:10Z</time>
      </trkpt>
      <trkpt lat="43.6104" lon="3.73377">
        <ele>172</ele>
        <time>2021-05-14T13:24:12Z</time>
      </trkpt>
      <trkpt lat="43.61039" lon="3.73375">
        <ele>172</ele>
        <time>2021-05-14T13:24:14Z</time>
      </trkpt>
      <trkpt lat="43.61037" lon="3.73374">
        <ele>172</ele>
        <time>2021-05-14T13:24:16Z</time>
      </trkpt>
      <trkpt lat="43.61034" lon="3.73372">
        <ele>172</ele>
        <time>2021-05-14T13:24:18Z</time>
      </trkpt>
      <trkpt lat="43.61032" lon="3.73371">
        <ele>172</ele>
        <time>2021-05-14T13:24:20Z</time>
      </trkpt>
      <trkpt lat="43.6103" lon="3.73369">
        <ele>172</ele>
        <time>2021-05-14T13:24:22Z</time>
      </trkpt>
      <trkpt lat="43.61028" lon="3.73367">
        <ele>172</ele>
        <time>2021-05-14T13:24:24Z</time>
      </trkpt>
      <trkpt lat="43.61026" lon="3.73364">
        <ele>172</ele>
        <time>2021-05-14T13:24:26Z</time>
      </trkpt>
      <trkpt lat="43.61025" lon="3.73361">
        <ele>172</ele>
        <time>2021-05-14T13:24:28Z</time>
      </trkpt>
      <trkpt lat="43.61024" lon="3.73359">
        <ele>172</ele>
        <time>2021-05-14T13:24:30Z</time>
      </trkpt>
      <trkpt lat="43.61022" lon="3.73356">
        <ele>172</ele>
        <time>2021-05-14T13:24:32Z</time>
      </trkpt>
      <trkpt lat="43.61021" lon="3.73354">
        <ele>172</ele>
        <time>2021-05-14T13:24:34Z</time>
      </trkpt>
      <trkpt lat="43.61019" lon="3.73352">
        <ele>172</ele>
        <time>2021-05-14T13:24:35Z</time>
      </trkpt>
      <trkpt lat="43.61017" lon="3.73349">
        <ele>182</ele>
        <time>2021-05-14T13:24:37Z</time>
      </trkpt>
      <trkpt lat="43.61016" lon="3.73347">
        <ele>182</ele>
        <time>2021-05-14T13:24:39Z</time>
      </trkpt>
      <trkpt lat="43.61015" lon="3.73344">
        <ele>182</ele>
        <time>2021-05-14T13:24:41Z</time>
      </trkpt>
      <trkpt lat="43.61014" lon="3.73341">
        <ele>182</ele>
        <time>2021-05-14T13:24:43Z</time>
      </trkpt>
      <trkpt lat="43.61012" lon="3.73337">
        <ele>182</ele>
        <time>2021-05-14T13:24:45Z</time>
      </trkpt>
      <trkpt lat="43.61011" lon="3.73334">
        <ele>183</ele>
        <time>2021-05-14T13:24:47Z</time>
      </trkpt>
      <trkpt lat="43.61011" lon="3.7333">
        <ele>183</ele>
        <time>2021-05-14T13:24:49Z</time>
      </trkpt>
      <trkpt lat="43.61011" lon="3.73327">
        <ele>183</ele>
        <time>2021-05-14T13:24:51Z</time>
      </trkpt>
      <trkpt lat="43.6101" lon="3.73324">
        <ele>183</ele>
        <time>2021-05-14T13:24:53Z</time>
      </trkpt>
      <trkpt lat="43.6101" lon="3.7332">
        <ele>183</ele>
        <time>2021-05-14T13:24:55Z</time>
      </trkpt>
      <trkpt lat="43.61009" lon="3.73317">
        <ele>184</ele>
        <time>2021-05-14T13:24:57Z</time>
      </trkpt>
      <trkpt lat="43.61009" lon="3.73313">
        <ele>184</ele>
        <time>2021-05-14T13:24:59Z</time>
      </trkpt>
      <trkpt lat="43.61007" lon="3.73309">
        <ele>184</ele>
        <time>2021-05-14T13:25:01Z</time>
      </trkpt>
      <trkpt lat="43.61006" lon="3.73306">
        <ele>184</ele>
        <time>2021-05-14T13:25:02Z</time>
      </trkpt>
      <trkpt lat="43.61005" lon="3.73302">
        <ele>184</ele>
        <time>2021-05-14T13:25:04Z</time>
      </trkpt>
      <trkpt lat="43.61004" lon="3.733">
        <ele>184</ele>
        <time>2021-05-14T13:25:05Z</time>
      </trkpt>
      <trkpt lat="43.61003" lon="3.73298">
        <ele>184</ele>
        <time>2021-05-14T13:25:06Z</time>
      </trkpt>
      <trkpt lat="43.61002" lon="3.73295">
        <ele>185</ele>
        <time>2021-05-14T13:25:07Z</time>
      </trkpt>
      <trkpt lat="43.61001" lon="3.73293">
        <ele>185</ele>
        <time>2021-05-14T13:25:08Z</time>
      </trkpt>
      <trkpt lat="43.61002" lon="3.73288">
        <ele>185</ele>
        <time>2021-05-14T13:25:10Z</time>
      </trkpt>
      <trkpt lat="43.61002" lon="3.73285">
        <ele>185</ele>
        <time>2021-05-14T13:25:11Z</time>
      </trkpt>
      <trkpt lat="43.61002" lon="3.73279">
        <ele>185</ele>
        <time>2021-05-14T13:25:13Z</time>
      </trkpt>
      <trkpt lat="43.61003" lon="3.73276">
        <ele>185</ele>
        <time>2021-05-14T13:25:14Z</time>
      </trkpt>
      <trkpt lat="43.61003" lon="3.73273">
        <ele>185</ele>
        <time>2021-05-14T13:25:15Z</time>
      </trkpt>
      <trkpt lat="43.61004" lon="3.7327">
        <ele>185</ele>
        <time>2021-05-14T13:25:16Z</time>
      </trkpt>
      <trkpt lat="43.61004" lon="3.73268">
        <ele>184</ele>
        <time>2021-05-14T13:25:17Z</time>
      </trkpt>
      <trkpt lat="43.61005" lon="3.73263">
        <ele>184</ele>
        <time>2021-05-14T13:25:19Z</time>
      </trkpt>
      <trkpt lat="43.61006" lon="3.73259">
        <ele>184</ele>
        <time>2021-05-14T13:25:21Z</time>
      </trkpt>
      <trkpt lat="43.61006" lon="3.73255">
        <ele>184</ele>
        <time>2021-05-14T13:25:23Z</time>
      </trkpt>
      <trkpt lat="43.61005" lon="3.73252">
        <ele>184</ele>
        <time>2021-05-14T13:25:24Z</time>
      </trkpt>
      <trkpt lat="43.61005" lon="3.7325">
        <ele>184</ele>
        <time>2021-05-14T13:25:25Z</time>
      </trkpt>
      <trkpt lat="43.61004" lon="3.73247">
        <ele>184</ele>
        <time>2021-05-14T13:25:26Z</time>
      </trkpt>
      <trkpt lat="43.61003" lon="3.73244">
        <ele>185</ele>
        <time>2021-05-14T13:25:27Z</time>
      </trkpt>
      <trkpt lat="43.61003" lon="3.73241">
        <ele>185</ele>
        <time>2021-05-14T13:25:28Z</time>
      </trkpt>
      <trkpt lat="43.61002" lon="3.73238">
        <ele>185</ele>
        <time>2021-05-14T13:25:29Z</time>
      </trkpt>
      <trkpt lat="43.61001" lon="3.73235">
        <ele>185</ele>
        <time>2021-05-14T13:25:30Z</time>
      </trkpt>
      <trkpt lat="43.61" lon="3.73231">
        <ele>185</ele>
        <time>2021-05-14T13:25:31Z</time>
      </trkpt>
      <trkpt lat="43.61" lon="3.73228">
        <ele>185</ele>
        <time>2021-05-14T13:25:32Z</time>
      </trkpt>
      <trkpt lat="43.61" lon="3.73225">
        <ele>185</ele>
        <time>2021-05-14T13:25:33Z</time>
      </trkpt>
      <trkpt lat="43.61" lon="3.73221">
        <ele>185</ele>
        <time>2021-05-14T13:25:35Z</time>
      </trkpt>
      <trkpt lat="43.61" lon="3.73218">
        <ele>185</ele>
        <time>2021-05-14T13:25:36Z</time>
      </trkpt>
      <trkpt lat="43.61" lon="3.73214">
        <ele>185</ele>
        <time>2021-05-14T13:25:37Z</time>
      </trkpt>
      <trkpt lat="43.61" lon="3.73211">
        <ele>185</ele>
        <time>2021-05-14T13:25:38Z</time>
      </trkpt>
      <trkpt lat="43.61" lon="3.73204">
        <ele>185</ele>
        <time>2021-05-14T13:25:39Z</time>
      </trkpt>
      <trkpt lat="43.60999" lon="3.73201">
        <ele>185</ele>
        <time>2021-05-14T13:25:40Z</time>
      </trkpt>
      <trkpt lat="43.60999" lon="3.73198">
        <ele>185</ele>
        <time>2021-05-14T13:25:41Z</time>
      </trkpt>
      <trkpt lat="43.60998" lon="3.73192">
        <ele>185</ele>
        <time>2021-05-14T13:25:43Z</time>
      </trkpt>
      <trkpt lat="43.60997" lon="3.7319">
        <ele>185</ele>
        <time>2021-05-14T13:25:44Z</time>
      </trkpt>
      <trkpt lat="43.60996" lon="3.73187">
        <ele>185</ele>
        <time>2021-05-14T13:25:45Z</time>
      </trkpt>
      <trkpt lat="43.60995" lon="3.73184">
        <ele>185</ele>
        <time>2021-05-14T13:25:46Z</time>
      </trkpt>
      <trkpt lat="43.60994" lon="3.73181">
        <ele>186</ele>
        <time>2021-05-14T13:25:47Z</time>
      </trkpt>
      <trkpt lat="43.60993" lon="3.73178">
        <ele>186</ele>
        <time>2021-05-14T13:25:48Z</time>
      </trkpt>
      <trkpt lat="43.60992" lon="3.73174">
        <ele>186</ele>
        <time>2021-05-14T13:25:49Z</time>
      </trkpt>
      <trkpt lat="43.60991" lon="3.73171">
        <ele>186</ele>
        <time>2021-05-14T13:25:50Z</time>
      </trkpt>
      <trkpt lat="43.6099" lon="3.73168">
        <ele>186</ele>
        <time>2021-05-14T13:25:51Z</time>
      </trkpt>
      <trkpt lat="43.60989" lon="3.73165">
        <ele>186</ele>
        <time>2021-05-14T13:25:52Z</time>
      </trkpt>
      <trkpt lat="43.60987" lon="3.73162">
        <ele>186</ele>
        <time>2021-05-14T13:25:53Z</time>
      </trkpt>
      <trkpt lat="43.60986" lon="3.7316">
        <ele>186</ele>
        <time>2021-05-14T13:25:54Z</time>
      </trkpt>
      <trkpt lat="43.60984" lon="3.73157">
        <ele>186</ele>
        <time>2021-05-14T13:25:55Z</time>
      </trkpt>
      <trkpt lat="43.60983" lon="3.73154">
        <ele>186</ele>
        <time>2021-05-14T13:25:56Z</time>
      </trkpt>
      <trkpt lat="43.60981" lon="3.73152">
        <ele>186</ele>
        <time>2021-05-14T13:25:58Z</time>
      </trkpt>
      <trkpt lat="43.60979" lon="3.7315">
        <ele>186</ele>
        <time>2021-05-14T13:25:59Z</time>
      </trkpt>
      <trkpt lat="43.60978" lon="3.73145">
        <ele>186</ele>
        <time>2021-05-14T13:26:01Z</time>
      </trkpt>
      <trkpt lat="43.60977" lon="3.73142">
        <ele>186</ele>
        <time>2021-05-14T13:26:02Z</time>
      </trkpt>
      <trkpt lat="43.60976" lon="3.7314">
        <ele>186</ele>
        <time>2021-05-14T13:26:03Z</time>
      </trkpt>
      <trkpt lat="43.60976" lon="3.73138">
        <ele>186</ele>
        <time>2021-05-14T13:26:04Z</time>
      </trkpt>
      <trkpt lat="43.60974" lon="3.73135">
        <ele>186</ele>
        <time>2021-05-14T13:26:05Z</time>
      </trkpt>
      <trkpt lat="43.60973" lon="3.73133">
        <ele>186</ele>
        <time>2021-05-14T13:26:06Z</time>
      </trkpt>
      <trkpt lat="43.60971" lon="3.73131">
        <ele>188</ele>
        <time>2021-05-14T13:26:07Z</time>
      </trkpt>
      <trkpt lat="43.60969" lon="3.73128">
        <ele>188</ele>
        <time>2021-05-14T13:26:08Z</time>
      </trkpt>
      <trkpt lat="43.60967" lon="3.73125">
        <ele>188</ele>
        <time>2021-05-14T13:26:09Z</time>
      </trkpt>
      <trkpt lat="43.60965" lon="3.73122">
        <ele>188</ele>
        <time>2021-05-14T13:26:10Z</time>
      </trkpt>
      <trkpt lat="43.60963" lon="3.73119">
        <ele>188</ele>
        <time>2021-05-14T13:26:11Z</time>
      </trkpt>
      <trkpt lat="43.60961" lon="3.73116">
        <ele>188</ele>
        <time>2021-05-14T13:26:12Z</time>
      </trkpt>
      <trkpt lat="43.6096" lon="3.73113">
        <ele>188</ele>
        <time>2021-05-14T13:26:13Z</time>
      </trkpt>
      <trkpt lat="43.60959" lon="3.73111">
        <ele>188</ele>
        <time>2021-05-14T13:26:14Z</time>
      </trkpt>
      <trkpt lat="43.60957" lon="3.73108">
        <ele>188</ele>
        <time>2021-05-14T13:26:15Z</time>
      </trkpt>
      <trkpt lat="43.60956" lon="3.73105">
        <ele>188</ele>
        <time>2021-05-14T13:26:16Z</time>
      </trkpt>
      <trkpt lat="43.60955" lon="3.73103">
        <ele>189</ele>
        <time>2021-05-14T13:26:17Z</time>
      </trkpt>
      <trkpt lat="43.60953" lon="3.731">
        <ele>189</ele>
        <time>2021-05-14T13:26:18Z</time>
      </trkpt>
      <trkpt lat="43.60952" lon="3.73097">
        <ele>189</ele>
        <time>2021-05-14T13:26:19Z</time>
      </trkpt>
      <trkpt lat="43.6095" lon="3.73095">
        <ele>189</ele>
        <time>2021-05-14T13:26:20Z</time>
      </trkpt>
      <trkpt lat="43.60948" lon="3.73092">
        <ele>189</ele>
        <time>2021-05-14T13:26:21Z</time>
      </trkpt>
      <trkpt lat="43.60947" lon="3.7309">
        <ele>189</ele>
        <time>2021-05-14T13:26:22Z</time>
      </trkpt>
      <trkpt lat="43.60946" lon="3.73087">
        <ele>189</ele>
        <time>2021-05-14T13:26:23Z</time>
      </trkpt>
      <trkpt lat="43.60945" lon="3.73085">
        <ele>189</ele>
        <time>2021-05-14T13:26:24Z</time>
      </trkpt>
      <trkpt lat="43.60944" lon="3.73082">
        <ele>189</ele>
        <time>2021-05-14T13:26:25Z</time>
      </trkpt>
      <trkpt lat="43.60942" lon="3.73078">
        <ele>189</ele>
        <time>2021-05-14T13:26:26Z</time>
      </trkpt>
      <trkpt lat="43.60941" lon="3.73075">
        <ele>190</ele>
        <time>2021-05-14T13:26:27Z</time>
      </trkpt>
      <trkpt lat="43.60941" lon="3.73072">
        <ele>190</ele>
        <time>2021-05-14T13:26:28Z</time>
      </trkpt>
      <trkpt lat="43.6094" lon="3.73069">
        <ele>190</ele>
        <time>2021-05-14T13:26:29Z</time>
      </trkpt>
      <trkpt lat="43.60939" lon="3.73066">
        <ele>190</ele>
        <time>2021-05-14T13:26:30Z</time>
      </trkpt>
      <trkpt lat="43.60938" lon="3.73063">
        <ele>190</ele>
        <time>2021-05-14T13:26:31Z</time>
      </trkpt>
      <trkpt lat="43.60938" lon="3.73061">
        <ele>190</ele>
        <time>2021-05-14T13:26:32Z</time>
      </trkpt>
      <trkpt lat="43.60937" lon="3.73058">
        <ele>190</ele>
        <time>2021-05-14T13:26:33Z</time>
      </trkpt>
      <trkpt lat="43.60937" lon="3.73055">
        <ele>190</ele>
        <time>2021-05-14T13:26:34Z</time>
      </trkpt>
      <trkpt lat="43.60937" lon="3.73052">
        <ele>190</ele>
        <time>2021-05-14T13:26:35Z</time>
      </trkpt>
      <trkpt lat="43.60936" lon="3.73049">
        <ele>190</ele>
        <time>2021-05-14T13:26:36Z</time>
      </trkpt>
      <trkpt lat="43.60936" lon="3.73046">
        <ele>190</ele>
        <time>2021-05-14T13:26:38Z</time>
      </trkpt>
      <trkpt lat="43.60936" lon="3.7304">
        <ele>190</ele>
        <time>2021-05-14T13:26:39Z</time>
      </trkpt>
      <trkpt lat="43.60936" lon="3.73037">
        <ele>190</ele>
        <time>2021-05-14T13:26:40Z</time>
      </trkpt>
      <trkpt lat="43.60936" lon="3.73033">
        <ele>190</ele>
        <time>2021-05-14T13:26:41Z</time>
      </trkpt>
      <trkpt lat="43.60935" lon="3.73031">
        <ele>190</ele>
        <time>2021-05-14T13:26:42Z</time>
      </trkpt>
      <trkpt lat="43.60933" lon="3.73025">
        <ele>190</ele>
        <time>2021-05-14T13:26:44Z</time>
      </trkpt>
      <trkpt lat="43.60932" lon="3.73021">
        <ele>190</ele>
        <time>2021-05-14T13:26:45Z</time>
      </trkpt>
      <trkpt lat="43.60933" lon="3.73018">
        <ele>190</ele>
        <time>2021-05-14T13:26:46Z</time>
      </trkpt>
      <trkpt lat="43.60934" lon="3.73016">
        <ele>190</ele>
        <time>2021-05-14T13:26:47Z</time>
      </trkpt>
      <trkpt lat="43.60936" lon="3.73011">
        <ele>190</ele>
        <time>2021-05-14T13:26:50Z</time>
      </trkpt>
      <trkpt lat="43.60937" lon="3.73009">
        <ele>190</ele>
        <time>2021-05-14T13:26:51Z</time>
      </trkpt>
      <trkpt lat="43.60939" lon="3.73003">
        <ele>190</ele>
        <time>2021-05-14T13:26:52Z</time>
      </trkpt>
      <trkpt lat="43.60939" lon="3.72999">
        <ele>190</ele>
        <time>2021-05-14T13:26:53Z</time>
      </trkpt>
      <trkpt lat="43.6094" lon="3.72996">
        <ele>190</ele>
        <time>2021-05-14T13:26:54Z</time>
      </trkpt>
      <trkpt lat="43.60941" lon="3.72993">
        <ele>190</ele>
        <time>2021-05-14T13:26:55Z</time>
      </trkpt>
      <trkpt lat="43.60942" lon="3.7299">
        <ele>190</ele>
        <time>2021-05-14T13:26:56Z</time>
      </trkpt>
      <trkpt lat="43.60943" lon="3.72986">
        <ele>188</ele>
        <time>2021-05-14T13:26:57Z</time>
      </trkpt>
      <trkpt lat="43.60944" lon="3.72984">
        <ele>188</ele>
        <time>2021-05-14T13:26:58Z</time>
      </trkpt>
      <trkpt lat="43.60945" lon="3.72981">
        <ele>188</ele>
        <time>2021-05-14T13:26:59Z</time>
      </trkpt>
      <trkpt lat="43.60946" lon="3.72977">
        <ele>188</ele>
        <time>2021-05-14T13:27:01Z</time>
      </trkpt>
      <trkpt lat="43.60946" lon="3.72974">
        <ele>188</ele>
        <time>2021-05-14T13:27:02Z</time>
      </trkpt>
      <trkpt lat="43.60946" lon="3.7297">
        <ele>188</ele>
        <time>2021-05-14T13:27:03Z</time>
      </trkpt>
      <trkpt lat="43.60946" lon="3.72967">
        <ele>188</ele>
        <time>2021-05-14T13:27:04Z</time>
      </trkpt>
      <trkpt lat="43.60945" lon="3.72964">
        <ele>188</ele>
        <time>2021-05-14T13:27:05Z</time>
      </trkpt>
      <trkpt lat="43.60943" lon="3.72962">
        <ele>188</ele>
        <time>2021-05-14T13:27:06Z</time>
      </trkpt>
      <trkpt lat="43.6094" lon="3.7296">
        <ele>187</ele>
        <time>2021-05-14T13:27:07Z</time>
      </trkpt>
      <trkpt lat="43.60937" lon="3.72958">
        <ele>187</ele>
        <time>2021-05-14T13:27:08Z</time>
      </trkpt>
      <trkpt lat="43.60934" lon="3.72955">
        <ele>187</ele>
        <time>2021-05-14T13:27:10Z</time>
      </trkpt>
      <trkpt lat="43.60931" lon="3.72952">
        <ele>187</ele>
        <time>2021-05-14T13:27:11Z</time>
      </trkpt>
      <trkpt lat="43.60928" lon="3.72949">
        <ele>187</ele>
        <time>2021-05-14T13:27:12Z</time>
      </trkpt>
      <trkpt lat="43.60925" lon="3.72946">
        <ele>187</ele>
        <time>2021-05-14T13:27:13Z</time>
      </trkpt>
      <trkpt lat="43.60922" lon="3.72943">
        <ele>187</ele>
        <time>2021-05-14T13:27:14Z</time>
      </trkpt>
      <trkpt lat="43.6092" lon="3.72939">
        <ele>187</ele>
        <time>2021-05-14T13:27:15Z</time>
      </trkpt>
      <trkpt lat="43.60917" lon="3.72936">
        <ele>187</ele>
        <time>2021-05-14T13:27:16Z</time>
      </trkpt>
      <trkpt lat="43.60915" lon="3.72932">
        <ele>185</ele>
        <time>2021-05-14T13:27:17Z</time>
      </trkpt>
      <trkpt lat="43.60914" lon="3.72927">
        <ele>185</ele>
        <time>2021-05-14T13:27:18Z</time>
      </trkpt>
      <trkpt lat="43.60912" lon="3.72923">
        <ele>185</ele>
        <time>2021-05-14T13:27:19Z</time>
      </trkpt>
      <trkpt lat="43.6091" lon="3.72919">
        <ele>185</ele>
        <time>2021-05-14T13:27:20Z</time>
      </trkpt>
      <trkpt lat="43.60909" lon="3.72916">
        <ele>185</ele>
        <time>2021-05-14T13:27:21Z</time>
      </trkpt>
      <trkpt lat="43.60908" lon="3.72912">
        <ele>185</ele>
        <time>2021-05-14T13:27:22Z</time>
      </trkpt>
      <trkpt lat="43.60906" lon="3.72909">
        <ele>185</ele>
        <time>2021-05-14T13:27:23Z</time>
      </trkpt>
      <trkpt lat="43.60903" lon="3.72905">
        <ele>185</ele>
        <time>2021-05-14T13:27:24Z</time>
      </trkpt>
      <trkpt lat="43.60898" lon="3.72899">
        <ele>185</ele>
        <time>2021-05-14T13:27:25Z</time>
      </trkpt>
      <trkpt lat="43.60896" lon="3.72896">
        <ele>185</ele>
        <time>2021-05-14T13:27:26Z</time>
      </trkpt>
      <trkpt lat="43.60894" lon="3.72896">
        <ele>182</ele>
        <time>2021-05-14T13:27:27Z</time>
      </trkpt>
      <trkpt lat="43.60892" lon="3.72895">
        <ele>182</ele>
        <time>2021-05-14T13:27:28Z</time>
      </trkpt>
      <trkpt lat="43.6089" lon="3.72894">
        <ele>182</ele>
        <time>2021-05-14T13:27:29Z</time>
      </trkpt>
      <trkpt lat="43.60889" lon="3.72889">
        <ele>182</ele>
        <time>2021-05-14T13:27:32Z</time>
      </trkpt>
      <trkpt lat="43.60888" lon="3.72886">
        <ele>182</ele>
        <time>2021-05-14T13:27:33Z</time>
      </trkpt>
      <trkpt lat="43.60886" lon="3.72878">
        <ele>182</ele>
        <time>2021-05-14T13:27:34Z</time>
      </trkpt>
      <trkpt lat="43.60885" lon="3.72872">
        <ele>182</ele>
        <time>2021-05-14T13:27:36Z</time>
      </trkpt>
      <trkpt lat="43.60885" lon="3.72866">
        <ele>177</ele>
        <time>2021-05-14T13:27:37Z</time>
      </trkpt>
      <trkpt lat="43.60885" lon="3.72859">
        <ele>177</ele>
        <time>2021-05-14T13:27:38Z</time>
      </trkpt>
      <trkpt lat="43.60884" lon="3.72853">
        <ele>177</ele>
        <time>2021-05-14T13:27:39Z</time>
      </trkpt>
      <trkpt lat="43.60883" lon="3.72847">
        <ele>177</ele>
        <time>2021-05-14T13:27:40Z</time>
      </trkpt>
      <trkpt lat="43.60882" lon="3.72841">
        <ele>177</ele>
        <time>2021-05-14T13:27:41Z</time>
      </trkpt>
      <trkpt lat="43.60881" lon="3.72837">
        <ele>177</ele>
        <time>2021-05-14T13:27:42Z</time>
      </trkpt>
      <trkpt lat="43.60881" lon="3.72833">
        <ele>177</ele>
        <time>2021-05-14T13:27:43Z</time>
      </trkpt>
      <trkpt lat="43.60881" lon="3.72827">
        <ele>177</ele>
        <time>2021-05-14T13:27:44Z</time>
      </trkpt>
      <trkpt lat="43.60881" lon="3.72823">
        <ele>177</ele>
        <time>2021-05-14T13:27:46Z</time>
      </trkpt>
      <trkpt lat="43.6088" lon="3.72823">
        <ele>171</ele>
        <time>2021-05-14T13:27:52Z</time>
      </trkpt>
      <trkpt lat="43.60882" lon="3.72816">
        <ele>167</ele>
        <time>2021-05-14T13:28:09Z</time>
      </trkpt>
      <trkpt lat="43.60881" lon="3.72814">
        <ele>167</ele>
        <time>2021-05-14T13:28:12Z</time>
      </trkpt>
      <trkpt lat="43.60879" lon="3.72815">
        <ele>167</ele>
        <time>2021-05-14T13:28:15Z</time>
      </trkpt>
      <trkpt lat="43.60876" lon="3.72815">
        <ele>167</ele>
        <time>2021-05-14T13:28:17Z</time>
      </trkpt>
      <trkpt lat="43.60873" lon="3.72811">
        <ele>165</ele>
        <time>2021-05-14T13:28:19Z</time>
      </trkpt>
      <trkpt lat="43.60872" lon="3.72807">
        <ele>165</ele>
        <time>2021-05-14T13:28:20Z</time>
      </trkpt>
      <trkpt lat="43.60871" lon="3.72803">
        <ele>165</ele>
        <time>2021-05-14T13:28:21Z</time>
      </trkpt>
      <trkpt lat="43.60867" lon="3.72795">
        <ele>165</ele>
        <time>2021-05-14T13:28:22Z</time>
      </trkpt>
      <trkpt lat="43.60866" lon="3.72793">
        <ele>165</ele>
        <time>2021-05-14T13:28:23Z</time>
      </trkpt>
      <trkpt lat="43.60865" lon="3.72789">
        <ele>165</ele>
        <time>2021-05-14T13:28:26Z</time>
      </trkpt>
      <trkpt lat="43.60864" lon="3.72785">
        <ele>165</ele>
        <time>2021-05-14T13:28:27Z</time>
      </trkpt>
      <trkpt lat="43.60862" lon="3.72783">
        <ele>165</ele>
        <time>2021-05-14T13:28:28Z</time>
      </trkpt>
      <trkpt lat="43.60861" lon="3.72781">
        <ele>161</ele>
        <time>2021-05-14T13:28:29Z</time>
      </trkpt>
      <trkpt lat="43.60859" lon="3.7278">
        <ele>161</ele>
        <time>2021-05-14T13:28:30Z</time>
      </trkpt>
      <trkpt lat="43.60856" lon="3.72779">
        <ele>161</ele>
        <time>2021-05-14T13:28:31Z</time>
      </trkpt>
      <trkpt lat="43.60853" lon="3.72779">
        <ele>161</ele>
        <time>2021-05-14T13:28:32Z</time>
      </trkpt>
      <trkpt lat="43.6085" lon="3.72779">
        <ele>161</ele>
        <time>2021-05-14T13:28:33Z</time>
      </trkpt>
      <trkpt lat="43.60847" lon="3.72779">
        <ele>161</ele>
        <time>2021-05-14T13:28:34Z</time>
      </trkpt>
      <trkpt lat="43.60844" lon="3.7278">
        <ele>161</ele>
        <time>2021-05-14T13:28:35Z</time>
      </trkpt>
      <trkpt lat="43.60841" lon="3.72781">
        <ele>161</ele>
        <time>2021-05-14T13:28:36Z</time>
      </trkpt>
      <trkpt lat="43.60838" lon="3.72781">
        <ele>161</ele>
        <time>2021-05-14T13:28:37Z</time>
      </trkpt>
      <trkpt lat="43.60835" lon="3.72781">
        <ele>161</ele>
        <time>2021-05-14T13:28:38Z</time>
      </trkpt>
      <trkpt lat="43.60832" lon="3.7278">
        <ele>158</ele>
        <time>2021-05-14T13:28:39Z</time>
      </trkpt>
      <trkpt lat="43.60829" lon="3.72779">
        <ele>158</ele>
        <time>2021-05-14T13:28:40Z</time>
      </trkpt>
      <trkpt lat="43.60826" lon="3.72778">
        <ele>158</ele>
        <time>2021-05-14T13:28:41Z</time>
      </trkpt>
      <trkpt lat="43.60823" lon="3.72777">
        <ele>158</ele>
        <time>2021-05-14T13:28:42Z</time>
      </trkpt>
      <trkpt lat="43.6082" lon="3.72777">
        <ele>158</ele>
        <time>2021-05-14T13:28:43Z</time>
      </trkpt>
      <trkpt lat="43.60818" lon="3.72777">
        <ele>158</ele>
        <time>2021-05-14T13:28:44Z</time>
      </trkpt>
      <trkpt lat="43.60816" lon="3.72776">
        <ele>158</ele>
        <time>2021-05-14T13:28:45Z</time>
      </trkpt>
      <trkpt lat="43.60812" lon="3.72775">
        <ele>158</ele>
        <time>2021-05-14T13:28:47Z</time>
      </trkpt>
      <trkpt lat="43.60811" lon="3.72772">
        <ele>157</ele>
        <time>2021-05-14T13:28:49Z</time>
      </trkpt>
      <trkpt lat="43.60813" lon="3.72772">
        <ele>157</ele>
        <time>2021-05-14T13:28:51Z</time>
      </trkpt>
      <trkpt lat="43.60815" lon="3.72774">
        <ele>157</ele>
        <time>2021-05-14T13:28:52Z</time>
      </trkpt>
      <trkpt lat="43.60817" lon="3.72775">
        <ele>157</ele>
        <time>2021-05-14T13:28:53Z</time>
      </trkpt>
      <trkpt lat="43.6082" lon="3.72777">
        <ele>157</ele>
        <time>2021-05-14T13:28:54Z</time>
      </trkpt>
      <trkpt lat="43.60822" lon="3.72778">
        <ele>157</ele>
        <time>2021-05-14T13:28:55Z</time>
      </trkpt>
      <trkpt lat="43.60825" lon="3.72778">
        <ele>157</ele>
        <time>2021-05-14T13:28:56Z</time>
      </trkpt>
      <trkpt lat="43.60827" lon="3.72778">
        <ele>157</ele>
        <time>2021-05-14T13:28:57Z</time>
      </trkpt>
      <trkpt lat="43.6083" lon="3.72777">
        <ele>157</ele>
        <time>2021-05-14T13:28:58Z</time>
      </trkpt>
      <trkpt lat="43.60831" lon="3.72776">
        <ele>157</ele>
        <time>2021-05-14T13:28:59Z</time>
      </trkpt>
      <trkpt lat="43.60832" lon="3.72773">
        <ele>157</ele>
        <time>2021-05-14T13:29:00Z</time>
      </trkpt>
      <trkpt lat="43.60832" lon="3.7277">
        <ele>157</ele>
        <time>2021-05-14T13:29:01Z</time>
      </trkpt>
      <trkpt lat="43.60831" lon="3.72766">
        <ele>157</ele>
        <time>2021-05-14T13:29:02Z</time>
      </trkpt>
      <trkpt lat="43.6083" lon="3.72762">
        <ele>157</ele>
        <time>2021-05-14T13:29:03Z</time>
      </trkpt>
      <trkpt lat="43.6083" lon="3.72758">
        <ele>157</ele>
        <time>2021-05-14T13:29:04Z</time>
      </trkpt>
      <trkpt lat="43.60829" lon="3.72754">
        <ele>157</ele>
        <time>2021-05-14T13:29:05Z</time>
      </trkpt>
      <trkpt lat="43.60828" lon="3.7275">
        <ele>157</ele>
        <time>2021-05-14T13:29:06Z</time>
      </trkpt>
      <trkpt lat="43.60827" lon="3.72746">
        <ele>157</ele>
        <time>2021-05-14T13:29:07Z</time>
      </trkpt>
      <trkpt lat="43.60827" lon="3.72742">
        <ele>157</ele>
        <time>2021-05-14T13:29:08Z</time>
      </trkpt>
      <trkpt lat="43.60826" lon="3.72739">
        <ele>157</ele>
        <time>2021-05-14T13:29:09Z</time>
      </trkpt>
      <trkpt lat="43.60824" lon="3.72731">
        <ele>157</ele>
        <time>2021-05-14T13:29:11Z</time>
      </trkpt>
      <trkpt lat="43.60823" lon="3.72727">
        <ele>157</ele>
        <time>2021-05-14T13:29:12Z</time>
      </trkpt>
      <trkpt lat="43.60822" lon="3.72724">
        <ele>157</ele>
        <time>2021-05-14T13:29:13Z</time>
      </trkpt>
      <trkpt lat="43.60822" lon="3.72721">
        <ele>157</ele>
        <time>2021-05-14T13:29:14Z</time>
      </trkpt>
      <trkpt lat="43.60821" lon="3.72717">
        <ele>157</ele>
        <time>2021-05-14T13:29:15Z</time>
      </trkpt>
      <trkpt lat="43.6082" lon="3.72713">
        <ele>157</ele>
        <time>2021-05-14T13:29:16Z</time>
      </trkpt>
      <trkpt lat="43.60819" lon="3.7271">
        <ele>157</ele>
        <time>2021-05-14T13:29:17Z</time>
      </trkpt>
      <trkpt lat="43.60819" lon="3.72707">
        <ele>157</ele>
        <time>2021-05-14T13:29:18Z</time>
      </trkpt>
      <trkpt lat="43.60818" lon="3.72703">
        <ele>158</ele>
        <time>2021-05-14T13:29:19Z</time>
      </trkpt>
      <trkpt lat="43.60818" lon="3.727">
        <ele>158</ele>
        <time>2021-05-14T13:29:20Z</time>
      </trkpt>
      <trkpt lat="43.60818" lon="3.72696">
        <ele>158</ele>
        <time>2021-05-14T13:29:21Z</time>
      </trkpt>
      <trkpt lat="43.60817" lon="3.72693">
        <ele>158</ele>
        <time>2021-05-14T13:29:22Z</time>
      </trkpt>
      <trkpt lat="43.60817" lon="3.7269">
        <ele>158</ele>
        <time>2021-05-14T13:29:23Z</time>
      </trkpt>
      <trkpt lat="43.60817" lon="3.72686">
        <ele>158</ele>
        <time>2021-05-14T13:29:24Z</time>
      </trkpt>
      <trkpt lat="43.60816" lon="3.72683">
        <ele>158</ele>
        <time>2021-05-14T13:29:25Z</time>
      </trkpt>
      <trkpt lat="43.60816" lon="3.72679">
        <ele>158</ele>
        <time>2021-05-14T13:29:26Z</time>
      </trkpt>
      <trkpt lat="43.60815" lon="3.72675">
        <ele>158</ele>
        <time>2021-05-14T13:29:27Z</time>
      </trkpt>
      <trkpt lat="43.60814" lon="3.72672">
        <ele>158</ele>
        <time>2021-05-14T13:29:28Z</time>
      </trkpt>
      <trkpt lat="43.60814" lon="3.72668">
        <ele>159</ele>
        <time>2021-05-14T13:29:29Z</time>
      </trkpt>
      <trkpt lat="43.60813" lon="3.72664">
        <ele>159</ele>
        <time>2021-05-14T13:29:30Z</time>
      </trkpt>
      <trkpt lat="43.60813" lon="3.72661">
        <ele>159</ele>
        <time>2021-05-14T13:29:31Z</time>
      </trkpt>
      <trkpt lat="43.60812" lon="3.72657">
        <ele>159</ele>
        <time>2021-05-14T13:29:32Z</time>
      </trkpt>
      <trkpt lat="43.60811" lon="3.72654">
        <ele>159</ele>
        <time>2021-05-14T13:29:33Z</time>
      </trkpt>
      <trkpt lat="43.60811" lon="3.7265">
        <ele>159</ele>
        <time>2021-05-14T13:29:34Z</time>
      </trkpt>
      <trkpt lat="43.60809" lon="3.72643">
        <ele>159</ele>
        <time>2021-05-14T13:29:36Z</time>
      </trkpt>
      <trkpt lat="43.60809" lon="3.72639">
        <ele>159</ele>
        <time>2021-05-14T13:29:37Z</time>
      </trkpt>
      <trkpt lat="43.60808" lon="3.72636">
        <ele>159</ele>
        <time>2021-05-14T13:29:38Z</time>
      </trkpt>
      <trkpt lat="43.60806" lon="3.7263">
        <ele>159</ele>
        <time>2021-05-14T13:29:40Z</time>
      </trkpt>
      <trkpt lat="43.60805" lon="3.72626">
        <ele>159</ele>
        <time>2021-05-14T13:29:41Z</time>
      </trkpt>
      <trkpt lat="43.60805" lon="3.72623">
        <ele>159</ele>
        <time>2021-05-14T13:29:42Z</time>
      </trkpt>
      <trkpt lat="43.60804" lon="3.7262">
        <ele>159</ele>
        <time>2021-05-14T13:29:43Z</time>
      </trkpt>
      <trkpt lat="43.60804" lon="3.72616">
        <ele>159</ele>
        <time>2021-05-14T13:29:44Z</time>
      </trkpt>
      <trkpt lat="43.60803" lon="3.72613">
        <ele>159</ele>
        <time>2021-05-14T13:29:45Z</time>
      </trkpt>
      <trkpt lat="43.60802" lon="3.7261">
        <ele>159</ele>
        <time>2021-05-14T13:29:46Z</time>
      </trkpt>
      <trkpt lat="43.60802" lon="3.72607">
        <ele>159</ele>
        <time>2021-05-14T13:29:47Z</time>
      </trkpt>
      <trkpt lat="43.60801" lon="3.72603">
        <ele>159</ele>
        <time>2021-05-14T13:29:48Z</time>
      </trkpt>
      <trkpt lat="43.60801" lon="3.726">
        <ele>161</ele>
        <time>2021-05-14T13:29:49Z</time>
      </trkpt>
      <trkpt lat="43.608" lon="3.72597">
        <ele>161</ele>
        <time>2021-05-14T13:29:50Z</time>
      </trkpt>
      <trkpt lat="43.608" lon="3.72594">
        <ele>161</ele>
        <time>2021-05-14T13:29:51Z</time>
      </trkpt>
      <trkpt lat="43.60799" lon="3.72591">
        <ele>161</ele>
        <time>2021-05-14T13:29:53Z</time>
      </trkpt>
      <trkpt lat="43.60798" lon="3.72588">
        <ele>161</ele>
        <time>2021-05-14T13:29:54Z</time>
      </trkpt>
      <trkpt lat="43.60797" lon="3.72585">
        <ele>161</ele>
        <time>2021-05-14T13:29:55Z</time>
      </trkpt>
      <trkpt lat="43.60795" lon="3.7258">
        <ele>161</ele>
        <time>2021-05-14T13:29:56Z</time>
      </trkpt>
      <trkpt lat="43.60794" lon="3.72575">
        <ele>161</ele>
        <time>2021-05-14T13:29:58Z</time>
      </trkpt>
      <trkpt lat="43.60793" lon="3.72573">
        <ele>161</ele>
        <time>2021-05-14T13:30:00Z</time>
      </trkpt>
      <trkpt lat="43.60793" lon="3.7257">
        <ele>161</ele>
        <time>2021-05-14T13:30:01Z</time>
      </trkpt>
      <trkpt lat="43.60791" lon="3.72566">
        <ele>161</ele>
        <time>2021-05-14T13:30:03Z</time>
      </trkpt>
      <trkpt lat="43.60791" lon="3.72563">
        <ele>161</ele>
        <time>2021-05-14T13:30:04Z</time>
      </trkpt>
      <trkpt lat="43.6079" lon="3.72561">
        <ele>161</ele>
        <time>2021-05-14T13:30:05Z</time>
      </trkpt>
      <trkpt lat="43.60789" lon="3.72559">
        <ele>161</ele>
        <time>2021-05-14T13:30:06Z</time>
      </trkpt>
      <trkpt lat="43.60788" lon="3.72557">
        <ele>161</ele>
        <time>2021-05-14T13:30:07Z</time>
      </trkpt>
      <trkpt lat="43.60787" lon="3.72554">
        <ele>161</ele>
        <time>2021-05-14T13:30:08Z</time>
      </trkpt>
      <trkpt lat="43.60785" lon="3.7255">
        <ele>162</ele>
        <time>2021-05-14T13:30:09Z</time>
      </trkpt>
      <trkpt lat="43.60784" lon="3.72548">
        <ele>162</ele>
        <time>2021-05-14T13:30:11Z</time>
      </trkpt>
      <trkpt lat="43.60783" lon="3.72545">
        <ele>162</ele>
        <time>2021-05-14T13:30:12Z</time>
      </trkpt>
      <trkpt lat="43.60781" lon="3.72542">
        <ele>162</ele>
        <time>2021-05-14T13:30:13Z</time>
      </trkpt>
      <trkpt lat="43.60781" lon="3.72539">
        <ele>162</ele>
        <time>2021-05-14T13:30:14Z</time>
      </trkpt>
      <trkpt lat="43.6078" lon="3.72536">
        <ele>162</ele>
        <time>2021-05-14T13:30:15Z</time>
      </trkpt>
      <trkpt lat="43.60779" lon="3.72534">
        <ele>162</ele>
        <time>2021-05-14T13:30:16Z</time>
      </trkpt>
      <trkpt lat="43.60778" lon="3.72531">
        <ele>162</ele>
        <time>2021-05-14T13:30:17Z</time>
      </trkpt>
      <trkpt lat="43.60778" lon="3.72528">
        <ele>162</ele>
        <time>2021-05-14T13:30:18Z</time>
      </trkpt>
      <trkpt lat="43.60777" lon="3.72525">
        <ele>163</ele>
        <time>2021-05-14T13:30:19Z</time>
      </trkpt>
      <trkpt lat="43.60776" lon="3.72522">
        <ele>163</ele>
        <time>2021-05-14T13:30:20Z</time>
      </trkpt>
      <trkpt lat="43.60775" lon="3.72519">
        <ele>163</ele>
        <time>2021-05-14T13:30:21Z</time>
      </trkpt>
      <trkpt lat="43.60774" lon="3.72516">
        <ele>163</ele>
        <time>2021-05-14T13:30:22Z</time>
      </trkpt>
      <trkpt lat="43.60773" lon="3.7251">
        <ele>163</ele>
        <time>2021-05-14T13:30:23Z</time>
      </trkpt>
      <trkpt lat="43.60772" lon="3.72507">
        <ele>163</ele>
        <time>2021-05-14T13:30:24Z</time>
      </trkpt>
      <trkpt lat="43.60772" lon="3.72504">
        <ele>163</ele>
        <time>2021-05-14T13:30:25Z</time>
      </trkpt>
      <trkpt lat="43.60771" lon="3.72501">
        <ele>163</ele>
        <time>2021-05-14T13:30:26Z</time>
      </trkpt>
      <trkpt lat="43.6077" lon="3.72498">
        <ele>163</ele>
        <time>2021-05-14T13:30:27Z</time>
      </trkpt>
      <trkpt lat="43.60769" lon="3.72495">
        <ele>163</ele>
        <time>2021-05-14T13:30:28Z</time>
      </trkpt>
      <trkpt lat="43.60768" lon="3.72492">
        <ele>164</ele>
        <time>2021-05-14T13:30:29Z</time>
      </trkpt>
      <trkpt lat="43.60768" lon="3.7249">
        <ele>164</ele>
        <time>2021-05-14T13:30:30Z</time>
      </trkpt>
      <trkpt lat="43.60767" lon="3.72487">
        <ele>164</ele>
        <time>2021-05-14T13:30:31Z</time>
      </trkpt>
      <trkpt lat="43.60766" lon="3.72484">
        <ele>164</ele>
        <time>2021-05-14T13:30:32Z</time>
      </trkpt>
      <trkpt lat="43.60765" lon="3.72482">
        <ele>164</ele>
        <time>2021-05-14T13:30:33Z</time>
      </trkpt>
      <trkpt lat="43.60764" lon="3.7248">
        <ele>164</ele>
        <time>2021-05-14T13:30:34Z</time>
      </trkpt>
      <trkpt lat="43.60764" lon="3.72477">
        <ele>164</ele>
        <time>2021-05-14T13:30:35Z</time>
      </trkpt>
      <trkpt lat="43.60763" lon="3.72475">
        <ele>164</ele>
        <time>2021-05-14T13:30:36Z</time>
      </trkpt>
      <trkpt lat="43.60762" lon="3.72472">
        <ele>164</ele>
        <time>2021-05-14T13:30:37Z</time>
      </trkpt>
      <trkpt lat="43.60761" lon="3.72469">
        <ele>164</ele>
        <time>2021-05-14T13:30:38Z</time>
      </trkpt>
      <trkpt lat="43.60761" lon="3.72467">
        <ele>165</ele>
        <time>2021-05-14T13:30:39Z</time>
      </trkpt>
      <trkpt lat="43.6076" lon="3.72464">
        <ele>165</ele>
        <time>2021-05-14T13:30:40Z</time>
      </trkpt>
      <trkpt lat="43.60759" lon="3.72462">
        <ele>165</ele>
        <time>2021-05-14T13:30:41Z</time>
      </trkpt>
      <trkpt lat="43.60758" lon="3.72459">
        <ele>165</ele>
        <time>2021-05-14T13:30:42Z</time>
      </trkpt>
      <trkpt lat="43.60757" lon="3.72457">
        <ele>165</ele>
        <time>2021-05-14T13:30:43Z</time>
      </trkpt>
      <trkpt lat="43.60756" lon="3.72455">
        <ele>165</ele>
        <time>2021-05-14T13:30:45Z</time>
      </trkpt>
      <trkpt lat="43.60755" lon="3.72452">
        <ele>165</ele>
        <time>2021-05-14T13:30:46Z</time>
      </trkpt>
      <trkpt lat="43.60755" lon="3.7245">
        <ele>165</ele>
        <time>2021-05-14T13:30:47Z</time>
      </trkpt>
      <trkpt lat="43.60754" lon="3.72447">
        <ele>165</ele>
        <time>2021-05-14T13:30:48Z</time>
      </trkpt>
      <trkpt lat="43.60754" lon="3.72444">
        <ele>166</ele>
        <time>2021-05-14T13:30:49Z</time>
      </trkpt>
      <trkpt lat="43.60753" lon="3.72442">
        <ele>166</ele>
        <time>2021-05-14T13:30:50Z</time>
      </trkpt>
      <trkpt lat="43.60752" lon="3.72439">
        <ele>166</ele>
        <time>2021-05-14T13:30:51Z</time>
      </trkpt>
      <trkpt lat="43.60751" lon="3.72437">
        <ele>166</ele>
        <time>2021-05-14T13:30:52Z</time>
      </trkpt>
      <trkpt lat="43.6075" lon="3.72431">
        <ele>166</ele>
        <time>2021-05-14T13:30:53Z</time>
      </trkpt>
      <trkpt lat="43.60749" lon="3.72428">
        <ele>166</ele>
        <time>2021-05-14T13:30:54Z</time>
      </trkpt>
      <trkpt lat="43.60748" lon="3.72425">
        <ele>166</ele>
        <time>2021-05-14T13:30:55Z</time>
      </trkpt>
      <trkpt lat="43.60747" lon="3.72422">
        <ele>166</ele>
        <time>2021-05-14T13:30:56Z</time>
      </trkpt>
      <trkpt lat="43.60746" lon="3.7242">
        <ele>166</ele>
        <time>2021-05-14T13:30:58Z</time>
      </trkpt>
      <trkpt lat="43.60745" lon="3.72417">
        <ele>168</ele>
        <time>2021-05-14T13:30:59Z</time>
      </trkpt>
      <trkpt lat="43.60744" lon="3.72415">
        <ele>168</ele>
        <time>2021-05-14T13:31:00Z</time>
      </trkpt>
      <trkpt lat="43.60744" lon="3.72412">
        <ele>168</ele>
        <time>2021-05-14T13:31:01Z</time>
      </trkpt>
      <trkpt lat="43.60743" lon="3.7241">
        <ele>168</ele>
        <time>2021-05-14T13:31:02Z</time>
      </trkpt>
      <trkpt lat="43.60742" lon="3.72407">
        <ele>168</ele>
        <time>2021-05-14T13:31:03Z</time>
      </trkpt>
      <trkpt lat="43.60741" lon="3.72405">
        <ele>168</ele>
        <time>2021-05-14T13:31:04Z</time>
      </trkpt>
      <trkpt lat="43.6074" lon="3.72401">
        <ele>168</ele>
        <time>2021-05-14T13:31:06Z</time>
      </trkpt>
      <trkpt lat="43.60738" lon="3.72397">
        <ele>168</ele>
        <time>2021-05-14T13:31:08Z</time>
      </trkpt>
      <trkpt lat="43.60736" lon="3.72393">
        <ele>168</ele>
        <time>2021-05-14T13:31:10Z</time>
      </trkpt>
      <trkpt lat="43.60733" lon="3.7239">
        <ele>168</ele>
        <time>2021-05-14T13:31:11Z</time>
      </trkpt>
      <trkpt lat="43.60731" lon="3.72386">
        <ele>168</ele>
        <time>2021-05-14T13:31:13Z</time>
      </trkpt>
      <trkpt lat="43.6073" lon="3.72382">
        <ele>168</ele>
        <time>2021-05-14T13:31:16Z</time>
      </trkpt>
      <trkpt lat="43.60728" lon="3.72377">
        <ele>168</ele>
        <time>2021-05-14T13:31:18Z</time>
      </trkpt>
      <trkpt lat="43.60726" lon="3.72373">
        <ele>171</ele>
        <time>2021-05-14T13:31:19Z</time>
      </trkpt>
      <trkpt lat="43.60725" lon="3.72371">
        <ele>171</ele>
        <time>2021-05-14T13:31:20Z</time>
      </trkpt>
      <trkpt lat="43.60724" lon="3.72369">
        <ele>171</ele>
        <time>2021-05-14T13:31:21Z</time>
      </trkpt>
      <trkpt lat="43.60722" lon="3.72364">
        <ele>171</ele>
        <time>2021-05-14T13:31:23Z</time>
      </trkpt>
      <trkpt lat="43.60721" lon="3.7236">
        <ele>171</ele>
        <time>2021-05-14T13:31:25Z</time>
      </trkpt>
      <trkpt lat="43.60719" lon="3.72357">
        <ele>171</ele>
        <time>2021-05-14T13:31:28Z</time>
      </trkpt>
      <trkpt lat="43.60717" lon="3.72354">
        <ele>172</ele>
        <time>2021-05-14T13:31:29Z</time>
      </trkpt>
      <trkpt lat="43.60715" lon="3.72352">
        <ele>172</ele>
        <time>2021-05-14T13:31:32Z</time>
      </trkpt>
      <trkpt lat="43.60712" lon="3.7235">
        <ele>172</ele>
        <time>2021-05-14T13:31:33Z</time>
      </trkpt>
      <trkpt lat="43.60711" lon="3.72348">
        <ele>172</ele>
        <time>2021-05-14T13:31:35Z</time>
      </trkpt>
      <trkpt lat="43.60708" lon="3.72347">
        <ele>172</ele>
        <time>2021-05-14T13:31:37Z</time>
      </trkpt>
      <trkpt lat="43.60706" lon="3.72346">
        <ele>175</ele>
        <time>2021-05-14T13:31:39Z</time>
      </trkpt>
      <trkpt lat="43.60704" lon="3.72344">
        <ele>175</ele>
        <time>2021-05-14T13:31:41Z</time>
      </trkpt>
      <trkpt lat="43.60703" lon="3.7234">
        <ele>175</ele>
        <time>2021-05-14T13:31:43Z</time>
      </trkpt>
      <trkpt lat="43.60703" lon="3.72336">
        <ele>175</ele>
        <time>2021-05-14T13:31:45Z</time>
      </trkpt>
      <trkpt lat="43.60704" lon="3.72331">
        <ele>175</ele>
        <time>2021-05-14T13:31:47Z</time>
      </trkpt>
      <trkpt lat="43.60703" lon="3.72327">
        <ele>176</ele>
        <time>2021-05-14T13:31:49Z</time>
      </trkpt>
      <trkpt lat="43.60701" lon="3.72323">
        <ele>176</ele>
        <time>2021-05-14T13:31:51Z</time>
      </trkpt>
      <trkpt lat="43.60699" lon="3.72319">
        <ele>176</ele>
        <time>2021-05-14T13:31:53Z</time>
      </trkpt>
      <trkpt lat="43.60697" lon="3.72317">
        <ele>176</ele>
        <time>2021-05-14T13:31:54Z</time>
      </trkpt>
      <trkpt lat="43.60695" lon="3.72314">
        <ele>176</ele>
        <time>2021-05-14T13:31:56Z</time>
      </trkpt>
      <trkpt lat="43.60694" lon="3.7231">
        <ele>176</ele>
        <time>2021-05-14T13:31:58Z</time>
      </trkpt>
      <trkpt lat="43.60694" lon="3.72307">
        <ele>176</ele>
        <time>2021-05-14T13:32:00Z</time>
      </trkpt>
      <trkpt lat="43.60694" lon="3.72304">
        <ele>176</ele>
        <time>2021-05-14T13:32:02Z</time>
      </trkpt>
      <trkpt lat="43.60695" lon="3.72296">
        <ele>179</ele>
        <time>2021-05-14T13:32:23Z</time>
      </trkpt>
      <trkpt lat="43.60697" lon="3.72293">
        <ele>179</ele>
        <time>2021-05-14T13:32:25Z</time>
      </trkpt>
      <trkpt lat="43.60698" lon="3.7229">
        <ele>179</ele>
        <time>2021-05-14T13:32:26Z</time>
      </trkpt>
      <trkpt lat="43.607" lon="3.72287">
        <ele>179</ele>
        <time>2021-05-14T13:32:29Z</time>
      </trkpt>
      <trkpt lat="43.60702" lon="3.72283">
        <ele>179</ele>
        <time>2021-05-14T13:32:30Z</time>
      </trkpt>
      <trkpt lat="43.60704" lon="3.72279">
        <ele>179</ele>
        <time>2021-05-14T13:32:32Z</time>
      </trkpt>
      <trkpt lat="43.60705" lon="3.72277">
        <ele>180</ele>
        <time>2021-05-14T13:32:33Z</time>
      </trkpt>
      <trkpt lat="43.60706" lon="3.72275">
        <ele>180</ele>
        <time>2021-05-14T13:32:34Z</time>
      </trkpt>
      <trkpt lat="43.60707" lon="3.72273">
        <ele>180</ele>
        <time>2021-05-14T13:32:36Z</time>
      </trkpt>
      <trkpt lat="43.60709" lon="3.72268">
        <ele>180</ele>
        <time>2021-05-14T13:32:38Z</time>
      </trkpt>
      <trkpt lat="43.6071" lon="3.72266">
        <ele>180</ele>
        <time>2021-05-14T13:32:39Z</time>
      </trkpt>
      <trkpt lat="43.60711" lon="3.72264">
        <ele>180</ele>
        <time>2021-05-14T13:32:40Z</time>
      </trkpt>
      <trkpt lat="43.60714" lon="3.72261">
        <ele>180</ele>
        <time>2021-05-14T13:32:42Z</time>
      </trkpt>
      <trkpt lat="43.60716" lon="3.72257">
        <ele>181</ele>
        <time>2021-05-14T13:32:43Z</time>
      </trkpt>
      <trkpt lat="43.60719" lon="3.72254">
        <ele>181</ele>
        <time>2021-05-14T13:32:45Z</time>
      </trkpt>
      <trkpt lat="43.6072" lon="3.7225">
        <ele>181</ele>
        <time>2021-05-14T13:32:47Z</time>
      </trkpt>
      <trkpt lat="43.6072" lon="3.72245">
        <ele>181</ele>
        <time>2021-05-14T13:32:49Z</time>
      </trkpt>
      <trkpt lat="43.60719" lon="3.72242">
        <ele>181</ele>
        <time>2021-05-14T13:32:50Z</time>
      </trkpt>
      <trkpt lat="43.60719" lon="3.72239">
        <ele>181</ele>
        <time>2021-05-14T13:32:51Z</time>
      </trkpt>
      <trkpt lat="43.60719" lon="3.72236">
        <ele>181</ele>
        <time>2021-05-14T13:32:52Z</time>
      </trkpt>
      <trkpt lat="43.60719" lon="3.72233">
        <ele>181</ele>
        <time>2021-05-14T13:32:54Z</time>
      </trkpt>
      <trkpt lat="43.60719" lon="3.72229">
        <ele>181</ele>
        <time>2021-05-14T13:32:55Z</time>
      </trkpt>
      <trkpt lat="43.6072" lon="3.72226">
        <ele>181</ele>
        <time>2021-05-14T13:32:56Z</time>
      </trkpt>
      <trkpt lat="43.6072" lon="3.72223">
        <ele>181</ele>
        <time>2021-05-14T13:32:57Z</time>
      </trkpt>
      <trkpt lat="43.6072" lon="3.7222">
        <ele>181</ele>
        <time>2021-05-14T13:32:58Z</time>
      </trkpt>
      <trkpt lat="43.6072" lon="3.72218">
        <ele>181</ele>
        <time>2021-05-14T13:32:59Z</time>
      </trkpt>
      <trkpt lat="43.6072" lon="3.72215">
        <ele>181</ele>
        <time>2021-05-14T13:33:00Z</time>
      </trkpt>
      <trkpt lat="43.6072" lon="3.72212">
        <ele>181</ele>
        <time>2021-05-14T13:33:01Z</time>
      </trkpt>
      <trkpt lat="43.6072" lon="3.7221">
        <ele>181</ele>
        <time>2021-05-14T13:33:02Z</time>
      </trkpt>
      <trkpt lat="43.6072" lon="3.72207">
        <ele>185</ele>
        <time>2021-05-14T13:33:03Z</time>
      </trkpt>
      <trkpt lat="43.6072" lon="3.72205">
        <ele>185</ele>
        <time>2021-05-14T13:33:04Z</time>
      </trkpt>
      <trkpt lat="43.6072" lon="3.72202">
        <ele>185</ele>
        <time>2021-05-14T13:33:05Z</time>
      </trkpt>
      <trkpt lat="43.60721" lon="3.72199">
        <ele>185</ele>
        <time>2021-05-14T13:33:06Z</time>
      </trkpt>
      <trkpt lat="43.6072" lon="3.72194">
        <ele>185</ele>
        <time>2021-05-14T13:33:07Z</time>
      </trkpt>
      <trkpt lat="43.6072" lon="3.72192">
        <ele>185</ele>
        <time>2021-05-14T13:33:08Z</time>
      </trkpt>
      <trkpt lat="43.6072" lon="3.72189">
        <ele>185</ele>
        <time>2021-05-14T13:33:09Z</time>
      </trkpt>
      <trkpt lat="43.60719" lon="3.72187">
        <ele>185</ele>
        <time>2021-05-14T13:33:11Z</time>
      </trkpt>
      <trkpt lat="43.60719" lon="3.72182">
        <ele>185</ele>
        <time>2021-05-14T13:33:12Z</time>
      </trkpt>
      <trkpt lat="43.60718" lon="3.72177">
        <ele>185</ele>
        <time>2021-05-14T13:33:14Z</time>
      </trkpt>
      <trkpt lat="43.60718" lon="3.72173">
        <ele>185</ele>
        <time>2021-05-14T13:33:17Z</time>
      </trkpt>
      <trkpt lat="43.60717" lon="3.72166">
        <ele>185</ele>
        <time>2021-05-14T13:33:19Z</time>
      </trkpt>
      <trkpt lat="43.60717" lon="3.72163">
        <ele>185</ele>
        <time>2021-05-14T13:33:20Z</time>
      </trkpt>
      <trkpt lat="43.60716" lon="3.72159">
        <ele>185</ele>
        <time>2021-05-14T13:33:22Z</time>
      </trkpt>
      <trkpt lat="43.60715" lon="3.72154">
        <ele>185</ele>
        <time>2021-05-14T13:33:24Z</time>
      </trkpt>
      <trkpt lat="43.60714" lon="3.7215">
        <ele>185</ele>
        <time>2021-05-14T13:33:26Z</time>
      </trkpt>
      <trkpt lat="43.60713" lon="3.72146">
        <ele>185</ele>
        <time>2021-05-14T13:33:28Z</time>
      </trkpt>
      <trkpt lat="43.60713" lon="3.72142">
        <ele>185</ele>
        <time>2021-05-14T13:33:30Z</time>
      </trkpt>
      <trkpt lat="43.60713" lon="3.72138">
        <ele>185</ele>
        <time>2021-05-14T13:33:32Z</time>
      </trkpt>
      <trkpt lat="43.60712" lon="3.72134">
        <ele>185</ele>
        <time>2021-05-14T13:33:35Z</time>
      </trkpt>
      <trkpt lat="43.60712" lon="3.7213">
        <ele>185</ele>
        <time>2021-05-14T13:33:37Z</time>
      </trkpt>
      <trkpt lat="43.60712" lon="3.72127">
        <ele>185</ele>
        <time>2021-05-14T13:33:38Z</time>
      </trkpt>
      <trkpt lat="43.60712" lon="3.72122">
        <ele>185</ele>
        <time>2021-05-14T13:33:40Z</time>
      </trkpt>
      <trkpt lat="43.60712" lon="3.7212">
        <ele>185</ele>
        <time>2021-05-14T13:33:41Z</time>
      </trkpt>
      <trkpt lat="43.60712" lon="3.72117">
        <ele>185</ele>
        <time>2021-05-14T13:33:42Z</time>
      </trkpt>
      <trkpt lat="43.60712" lon="3.72113">
        <ele>185</ele>
        <time>2021-05-14T13:33:44Z</time>
      </trkpt>
      <trkpt lat="43.60713" lon="3.72108">
        <ele>185</ele>
        <time>2021-05-14T13:33:46Z</time>
      </trkpt>
      <trkpt lat="43.60713" lon="3.72104">
        <ele>185</ele>
        <time>2021-05-14T13:33:48Z</time>
      </trkpt>
      <trkpt lat="43.60713" lon="3.721">
        <ele>185</ele>
        <time>2021-05-14T13:33:50Z</time>
      </trkpt>
      <trkpt lat="43.60714" lon="3.72096">
        <ele>185</ele>
        <time>2021-05-14T13:33:52Z</time>
      </trkpt>
      <trkpt lat="43.60714" lon="3.72092">
        <ele>185</ele>
        <time>2021-05-14T13:33:54Z</time>
      </trkpt>
      <trkpt lat="43.60715" lon="3.72087">
        <ele>185</ele>
        <time>2021-05-14T13:33:56Z</time>
      </trkpt>
      <trkpt lat="43.60715" lon="3.72083">
        <ele>185</ele>
        <time>2021-05-14T13:33:58Z</time>
      </trkpt>
      <trkpt lat="43.60716" lon="3.72078">
        <ele>185</ele>
        <time>2021-05-14T13:34:00Z</time>
      </trkpt>
      <trkpt lat="43.60716" lon="3.72074">
        <ele>185</ele>
        <time>2021-05-14T13:34:02Z</time>
      </trkpt>
      <trkpt lat="43.60717" lon="3.7207">
        <ele>185</ele>
        <time>2021-05-14T13:34:04Z</time>
      </trkpt>
      <trkpt lat="43.60717" lon="3.72066">
        <ele>185</ele>
        <time>2021-05-14T13:34:06Z</time>
      </trkpt>
      <trkpt lat="43.60718" lon="3.72062">
        <ele>185</ele>
        <time>2021-05-14T13:34:08Z</time>
      </trkpt>
      <trkpt lat="43.60718" lon="3.72058">
        <ele>185</ele>
        <time>2021-05-14T13:34:10Z</time>
      </trkpt>
      <trkpt lat="43.60719" lon="3.72054">
        <ele>185</ele>
        <time>2021-05-14T13:34:12Z</time>
      </trkpt>
      <trkpt lat="43.60719" lon="3.7205">
        <ele>185</ele>
        <time>2021-05-14T13:34:14Z</time>
      </trkpt>
      <trkpt lat="43.60719" lon="3.72046">
        <ele>185</ele>
        <time>2021-05-14T13:34:16Z</time>
      </trkpt>
      <trkpt lat="43.60719" lon="3.72042">
        <ele>185</ele>
        <time>2021-05-14T13:34:18Z</time>
      </trkpt>
      <trkpt lat="43.60718" lon="3.72037">
        <ele>185</ele>
        <time>2021-05-14T13:34:21Z</time>
      </trkpt>
      <trkpt lat="43.60718" lon="3.72034">
        <ele>185</ele>
        <time>2021-05-14T13:34:22Z</time>
      </trkpt>
      <trkpt lat="43.60717" lon="3.72031">
        <ele>193</ele>
        <time>2021-05-14T13:34:23Z</time>
      </trkpt>
      <trkpt lat="43.60716" lon="3.72028">
        <ele>193</ele>
        <time>2021-05-14T13:34:24Z</time>
      </trkpt>
      <trkpt lat="43.60715" lon="3.72024">
        <ele>193</ele>
        <time>2021-05-14T13:34:26Z</time>
      </trkpt>
      <trkpt lat="43.60714" lon="3.72021">
        <ele>193</ele>
        <time>2021-05-14T13:34:28Z</time>
      </trkpt>
      <trkpt lat="43.60713" lon="3.72018">
        <ele>193</ele>
        <time>2021-05-14T13:34:30Z</time>
      </trkpt>
      <trkpt lat="43.60711" lon="3.72015">
        <ele>193</ele>
        <time>2021-05-14T13:34:32Z</time>
      </trkpt>
      <trkpt lat="43.6071" lon="3.72012">
        <ele>194</ele>
        <time>2021-05-14T13:34:33Z</time>
      </trkpt>
      <trkpt lat="43.60708" lon="3.7201">
        <ele>194</ele>
        <time>2021-05-14T13:34:35Z</time>
      </trkpt>
      <trkpt lat="43.60706" lon="3.72008">
        <ele>194</ele>
        <time>2021-05-14T13:34:37Z</time>
      </trkpt>
      <trkpt lat="43.60704" lon="3.72005">
        <ele>194</ele>
        <time>2021-05-14T13:34:39Z</time>
      </trkpt>
      <trkpt lat="43.60703" lon="3.72003">
        <ele>194</ele>
        <time>2021-05-14T13:34:41Z</time>
      </trkpt>
      <trkpt lat="43.60701" lon="3.72">
        <ele>196</ele>
        <time>2021-05-14T13:34:43Z</time>
      </trkpt>
      <trkpt lat="43.60699" lon="3.71998">
        <ele>196</ele>
        <time>2021-05-14T13:34:46Z</time>
      </trkpt>
      <trkpt lat="43.60697" lon="3.71996">
        <ele>196</ele>
        <time>2021-05-14T13:34:48Z</time>
      </trkpt>
      <trkpt lat="43.60696" lon="3.71993">
        <ele>196</ele>
        <time>2021-05-14T13:34:50Z</time>
      </trkpt>
      <trkpt lat="43.60694" lon="3.71991">
        <ele>196</ele>
        <time>2021-05-14T13:34:51Z</time>
      </trkpt>
      <trkpt lat="43.60692" lon="3.71989">
        <ele>196</ele>
        <time>2021-05-14T13:34:54Z</time>
      </trkpt>
      <trkpt lat="43.6069" lon="3.71987">
        <ele>196</ele>
        <time>2021-05-14T13:34:55Z</time>
      </trkpt>
      <trkpt lat="43.60689" lon="3.71985">
        <ele>196</ele>
        <time>2021-05-14T13:34:57Z</time>
      </trkpt>
      <trkpt lat="43.60687" lon="3.71983">
        <ele>196</ele>
        <time>2021-05-14T13:35:00Z</time>
      </trkpt>
      <trkpt lat="43.60686" lon="3.71981">
        <ele>196</ele>
        <time>2021-05-14T13:35:02Z</time>
      </trkpt>
      <trkpt lat="43.60684" lon="3.71978">
        <ele>199</ele>
        <time>2021-05-14T13:35:03Z</time>
      </trkpt>
      <trkpt lat="43.60683" lon="3.71975">
        <ele>199</ele>
        <time>2021-05-14T13:35:05Z</time>
      </trkpt>
      <trkpt lat="43.60681" lon="3.71972">
        <ele>199</ele>
        <time>2021-05-14T13:35:07Z</time>
      </trkpt>
      <trkpt lat="43.6068" lon="3.71969">
        <ele>199</ele>
        <time>2021-05-14T13:35:09Z</time>
      </trkpt>
      <trkpt lat="43.60679" lon="3.71966">
        <ele>199</ele>
        <time>2021-05-14T13:35:11Z</time>
      </trkpt>
      <trkpt lat="43.60678" lon="3.71963">
        <ele>199</ele>
        <time>2021-05-14T13:35:14Z</time>
      </trkpt>
      <trkpt lat="43.60677" lon="3.7196">
        <ele>199</ele>
        <time>2021-05-14T13:35:16Z</time>
      </trkpt>
      <trkpt lat="43.60676" lon="3.71956">
        <ele>199</ele>
        <time>2021-05-14T13:35:18Z</time>
      </trkpt>
      <trkpt lat="43.60676" lon="3.71953">
        <ele>199</ele>
        <time>2021-05-14T13:35:20Z</time>
      </trkpt>
      <trkpt lat="43.60676" lon="3.71949">
        <ele>199</ele>
        <time>2021-05-14T13:35:22Z</time>
      </trkpt>
      <trkpt lat="43.60675" lon="3.71945">
        <ele>203</ele>
        <time>2021-05-14T13:35:23Z</time>
      </trkpt>
      <trkpt lat="43.60674" lon="3.71942">
        <ele>203</ele>
        <time>2021-05-14T13:35:26Z</time>
      </trkpt>
      <trkpt lat="43.60673" lon="3.71938">
        <ele>203</ele>
        <time>2021-05-14T13:35:28Z</time>
      </trkpt>
      <trkpt lat="43.60673" lon="3.71935">
        <ele>203</ele>
        <time>2021-05-14T13:35:30Z</time>
      </trkpt>
      <trkpt lat="43.60673" lon="3.71932">
        <ele>203</ele>
        <time>2021-05-14T13:35:32Z</time>
      </trkpt>
      <trkpt lat="43.60672" lon="3.71928">
        <ele>203</ele>
        <time>2021-05-14T13:35:34Z</time>
      </trkpt>
      <trkpt lat="43.60672" lon="3.71925">
        <ele>203</ele>
        <time>2021-05-14T13:35:36Z</time>
      </trkpt>
      <trkpt lat="43.60671" lon="3.71922">
        <ele>203</ele>
        <time>2021-05-14T13:35:38Z</time>
      </trkpt>
      <trkpt lat="43.6067" lon="3.71918">
        <ele>203</ele>
        <time>2021-05-14T13:35:40Z</time>
      </trkpt>
      <trkpt lat="43.6067" lon="3.71914">
        <ele>203</ele>
        <time>2021-05-14T13:35:42Z</time>
      </trkpt>
      <trkpt lat="43.60669" lon="3.71911">
        <ele>203</ele>
        <time>2021-05-14T13:35:44Z</time>
      </trkpt>
      <trkpt lat="43.60668" lon="3.71907">
        <ele>203</ele>
        <time>2021-05-14T13:35:46Z</time>
      </trkpt>
      <trkpt lat="43.60667" lon="3.71903">
        <ele>203</ele>
        <time>2021-05-14T13:35:47Z</time>
      </trkpt>
      <trkpt lat="43.60666" lon="3.71899">
        <ele>203</ele>
        <time>2021-05-14T13:35:49Z</time>
      </trkpt>
      <trkpt lat="43.60666" lon="3.71895">
        <ele>203</ele>
        <time>2021-05-14T13:35:51Z</time>
      </trkpt>
      <trkpt lat="43.60665" lon="3.71891">
        <ele>207</ele>
        <time>2021-05-14T13:35:53Z</time>
      </trkpt>
      <trkpt lat="43.60664" lon="3.71886">
        <ele>207</ele>
        <time>2021-05-14T13:35:55Z</time>
      </trkpt>
      <trkpt lat="43.60664" lon="3.71881">
        <ele>207</ele>
        <time>2021-05-14T13:35:57Z</time>
      </trkpt>
      <trkpt lat="43.60663" lon="3.71876">
        <ele>207</ele>
        <time>2021-05-14T13:35:59Z</time>
      </trkpt>
      <trkpt lat="43.60663" lon="3.71873">
        <ele>207</ele>
        <time>2021-05-14T13:36:00Z</time>
      </trkpt>
      <trkpt lat="43.60662" lon="3.7187">
        <ele>207</ele>
        <time>2021-05-14T13:36:01Z</time>
      </trkpt>
      <trkpt lat="43.60662" lon="3.71868">
        <ele>207</ele>
        <time>2021-05-14T13:36:02Z</time>
      </trkpt>
      <trkpt lat="43.60662" lon="3.71865">
        <ele>206</ele>
        <time>2021-05-14T13:36:03Z</time>
      </trkpt>
      <trkpt lat="43.60661" lon="3.71861">
        <ele>206</ele>
        <time>2021-05-14T13:36:05Z</time>
      </trkpt>
      <trkpt lat="43.60661" lon="3.71857">
        <ele>206</ele>
        <time>2021-05-14T13:36:07Z</time>
      </trkpt>
      <trkpt lat="43.60661" lon="3.71854">
        <ele>206</ele>
        <time>2021-05-14T13:36:09Z</time>
      </trkpt>
      <trkpt lat="43.60661" lon="3.7185">
        <ele>206</ele>
        <time>2021-05-14T13:36:11Z</time>
      </trkpt>
      <trkpt lat="43.6066" lon="3.71847">
        <ele>206</ele>
        <time>2021-05-14T13:36:13Z</time>
      </trkpt>
      <trkpt lat="43.60657" lon="3.71843">
        <ele>206</ele>
        <time>2021-05-14T13:36:15Z</time>
      </trkpt>
      <trkpt lat="43.60656" lon="3.71841">
        <ele>206</ele>
        <time>2021-05-14T13:36:16Z</time>
      </trkpt>
      <trkpt lat="43.60655" lon="3.71839">
        <ele>206</ele>
        <time>2021-05-14T13:36:17Z</time>
      </trkpt>
      <trkpt lat="43.60653" lon="3.71836">
        <ele>206</ele>
        <time>2021-05-14T13:36:19Z</time>
      </trkpt>
      <trkpt lat="43.60652" lon="3.71832">
        <ele>206</ele>
        <time>2021-05-14T13:36:21Z</time>
      </trkpt>
      <trkpt lat="43.60652" lon="3.7183">
        <ele>206</ele>
        <time>2021-05-14T13:36:22Z</time>
      </trkpt>
      <trkpt lat="43.60652" lon="3.71826">
        <ele>206</ele>
        <time>2021-05-14T13:36:24Z</time>
      </trkpt>
      <trkpt lat="43.60653" lon="3.71823">
        <ele>206</ele>
        <time>2021-05-14T13:36:26Z</time>
      </trkpt>
      <trkpt lat="43.60655" lon="3.7182">
        <ele>206</ele>
        <time>2021-05-14T13:36:28Z</time>
      </trkpt>
      <trkpt lat="43.60663" lon="3.71813">
        <ele>203</ele>
        <time>2021-05-14T13:37:27Z</time>
      </trkpt>
      <trkpt lat="43.60669" lon="3.71808">
        <ele>203</ele>
        <time>2021-05-14T13:37:29Z</time>
      </trkpt>
      <trkpt lat="43.60672" lon="3.71807">
        <ele>203</ele>
        <time>2021-05-14T13:37:30Z</time>
      </trkpt>
      <trkpt lat="43.60675" lon="3.71806">
        <ele>203</ele>
        <time>2021-05-14T13:37:31Z</time>
      </trkpt>
      <trkpt lat="43.6068" lon="3.71804">
        <ele>203</ele>
        <time>2021-05-14T13:37:33Z</time>
      </trkpt>
      <trkpt lat="43.60683" lon="3.71803">
        <ele>203</ele>
        <time>2021-05-14T13:37:34Z</time>
      </trkpt>
      <trkpt lat="43.60685" lon="3.71802">
        <ele>203</ele>
        <time>2021-05-14T13:37:35Z</time>
      </trkpt>
      <trkpt lat="43.60687" lon="3.71801">
        <ele>203</ele>
        <time>2021-05-14T13:37:36Z</time>
      </trkpt>
      <trkpt lat="43.60689" lon="3.718">
        <ele>201</ele>
        <time>2021-05-14T13:37:37Z</time>
      </trkpt>
      <trkpt lat="43.60691" lon="3.718">
        <ele>201</ele>
        <time>2021-05-14T13:37:38Z</time>
      </trkpt>
      <trkpt lat="43.60693" lon="3.71798">
        <ele>201</ele>
        <time>2021-05-14T13:37:39Z</time>
      </trkpt>
      <trkpt lat="43.60696" lon="3.71797">
        <ele>201</ele>
        <time>2021-05-14T13:37:40Z</time>
      </trkpt>
      <trkpt lat="43.60698" lon="3.71796">
        <ele>201</ele>
        <time>2021-05-14T13:37:41Z</time>
      </trkpt>
      <trkpt lat="43.607" lon="3.71795">
        <ele>201</ele>
        <time>2021-05-14T13:37:42Z</time>
      </trkpt>
      <trkpt lat="43.60702" lon="3.71793">
        <ele>201</ele>
        <time>2021-05-14T13:37:43Z</time>
      </trkpt>
      <trkpt lat="43.60704" lon="3.71792">
        <ele>201</ele>
        <time>2021-05-14T13:37:44Z</time>
      </trkpt>
      <trkpt lat="43.60706" lon="3.7179">
        <ele>201</ele>
        <time>2021-05-14T13:37:45Z</time>
      </trkpt>
      <trkpt lat="43.60708" lon="3.71789">
        <ele>201</ele>
        <time>2021-05-14T13:37:46Z</time>
      </trkpt>
      <trkpt lat="43.6071" lon="3.71787">
        <ele>199</ele>
        <time>2021-05-14T13:37:47Z</time>
      </trkpt>
      <trkpt lat="43.60712" lon="3.71786">
        <ele>199</ele>
        <time>2021-05-14T13:37:48Z</time>
      </trkpt>
      <trkpt lat="43.60714" lon="3.71785">
        <ele>199</ele>
        <time>2021-05-14T13:37:49Z</time>
      </trkpt>
      <trkpt lat="43.60716" lon="3.71783">
        <ele>199</ele>
        <time>2021-05-14T13:37:50Z</time>
      </trkpt>
      <trkpt lat="43.60718" lon="3.71782">
        <ele>199</ele>
        <time>2021-05-14T13:37:51Z</time>
      </trkpt>
      <trkpt lat="43.60721" lon="3.7178">
        <ele>199</ele>
        <time>2021-05-14T13:37:53Z</time>
      </trkpt>
      <trkpt lat="43.60723" lon="3.71777">
        <ele>199</ele>
        <time>2021-05-14T13:37:55Z</time>
      </trkpt>
      <trkpt lat="43.60725" lon="3.71776">
        <ele>199</ele>
        <time>2021-05-14T13:37:56Z</time>
      </trkpt>
      <trkpt lat="43.60727" lon="3.71774">
        <ele>196</ele>
        <time>2021-05-14T13:37:57Z</time>
      </trkpt>
      <trkpt lat="43.60729" lon="3.71773">
        <ele>196</ele>
        <time>2021-05-14T13:37:59Z</time>
      </trkpt>
      <trkpt lat="43.60731" lon="3.71771">
        <ele>196</ele>
        <time>2021-05-14T13:38:00Z</time>
      </trkpt>
      <trkpt lat="43.60732" lon="3.71769">
        <ele>196</ele>
        <time>2021-05-14T13:38:01Z</time>
      </trkpt>
      <trkpt lat="43.60734" lon="3.71768">
        <ele>196</ele>
        <time>2021-05-14T13:38:02Z</time>
      </trkpt>
      <trkpt lat="43.60737" lon="3.71764">
        <ele>196</ele>
        <time>2021-05-14T13:38:03Z</time>
      </trkpt>
      <trkpt lat="43.60739" lon="3.71762">
        <ele>196</ele>
        <time>2021-05-14T13:38:04Z</time>
      </trkpt>
      <trkpt lat="43.6074" lon="3.7176">
        <ele>196</ele>
        <time>2021-05-14T13:38:05Z</time>
      </trkpt>
      <trkpt lat="43.60741" lon="3.71758">
        <ele>196</ele>
        <time>2021-05-14T13:38:06Z</time>
      </trkpt>
      <trkpt lat="43.60742" lon="3.71756">
        <ele>192</ele>
        <time>2021-05-14T13:38:07Z</time>
      </trkpt>
      <trkpt lat="43.60744" lon="3.71754">
        <ele>192</ele>
        <time>2021-05-14T13:38:08Z</time>
      </trkpt>
      <trkpt lat="43.60745" lon="3.71751">
        <ele>192</ele>
        <time>2021-05-14T13:38:10Z</time>
      </trkpt>
      <trkpt lat="43.60746" lon="3.71747">
        <ele>192</ele>
        <time>2021-05-14T13:38:12Z</time>
      </trkpt>
      <trkpt lat="43.60746" lon="3.71744">
        <ele>192</ele>
        <time>2021-05-14T13:38:14Z</time>
      </trkpt>
      <trkpt lat="43.60745" lon="3.71741">
        <ele>192</ele>
        <time>2021-05-14T13:38:16Z</time>
      </trkpt>
      <trkpt lat="43.60745" lon="3.71737">
        <ele>192</ele>
        <time>2021-05-14T13:38:19Z</time>
      </trkpt>
      <trkpt lat="43.60745" lon="3.71731">
        <ele>192</ele>
        <time>2021-05-14T13:38:20Z</time>
      </trkpt>
      <trkpt lat="43.60746" lon="3.71728">
        <ele>192</ele>
        <time>2021-05-14T13:38:21Z</time>
      </trkpt>
      <trkpt lat="43.60747" lon="3.71724">
        <ele>192</ele>
        <time>2021-05-14T13:38:22Z</time>
      </trkpt>
      <trkpt lat="43.60747" lon="3.71721">
        <ele>192</ele>
        <time>2021-05-14T13:38:23Z</time>
      </trkpt>
      <trkpt lat="43.60748" lon="3.71718">
        <ele>192</ele>
        <time>2021-05-14T13:38:25Z</time>
      </trkpt>
      <trkpt lat="43.60749" lon="3.71714">
        <ele>192</ele>
        <time>2021-05-14T13:38:26Z</time>
      </trkpt>
      <trkpt lat="43.60749" lon="3.71711">
        <ele>181</ele>
        <time>2021-05-14T13:38:27Z</time>
      </trkpt>
      <trkpt lat="43.60749" lon="3.71708">
        <ele>181</ele>
        <time>2021-05-14T13:38:28Z</time>
      </trkpt>
      <trkpt lat="43.60748" lon="3.71705">
        <ele>181</ele>
        <time>2021-05-14T13:38:30Z</time>
      </trkpt>
      <trkpt lat="43.60748" lon="3.71702">
        <ele>181</ele>
        <time>2021-05-14T13:38:31Z</time>
      </trkpt>
      <trkpt lat="43.60748" lon="3.71699">
        <ele>181</ele>
        <time>2021-05-14T13:38:32Z</time>
      </trkpt>
      <trkpt lat="43.60747" lon="3.71693">
        <ele>181</ele>
        <time>2021-05-14T13:38:33Z</time>
      </trkpt>
      <trkpt lat="43.60747" lon="3.7169">
        <ele>181</ele>
        <time>2021-05-14T13:38:34Z</time>
      </trkpt>
      <trkpt lat="43.60747" lon="3.71686">
        <ele>181</ele>
        <time>2021-05-14T13:38:36Z</time>
      </trkpt>
      <trkpt lat="43.60748" lon="3.71681">
        <ele>181</ele>
        <time>2021-05-14T13:38:38Z</time>
      </trkpt>
      <trkpt lat="43.60747" lon="3.71677">
        <ele>181</ele>
        <time>2021-05-14T13:38:40Z</time>
      </trkpt>
      <trkpt lat="43.60748" lon="3.71673">
        <ele>181</ele>
        <time>2021-05-14T13:38:42Z</time>
      </trkpt>
      <trkpt lat="43.60747" lon="3.71669">
        <ele>181</ele>
        <time>2021-05-14T13:38:44Z</time>
      </trkpt>
      <trkpt lat="43.60747" lon="3.71665">
        <ele>181</ele>
        <time>2021-05-14T13:38:46Z</time>
      </trkpt>
      <trkpt lat="43.60747" lon="3.71661">
        <ele>181</ele>
        <time>2021-05-14T13:38:48Z</time>
      </trkpt>
      <trkpt lat="43.60746" lon="3.71656">
        <ele>181</ele>
        <time>2021-05-14T13:38:51Z</time>
      </trkpt>
      <trkpt lat="43.60746" lon="3.71652">
        <ele>181</ele>
        <time>2021-05-14T13:38:53Z</time>
      </trkpt>
      <trkpt lat="43.60747" lon="3.71648">
        <ele>181</ele>
        <time>2021-05-14T13:38:55Z</time>
      </trkpt>
      <trkpt lat="43.60747" lon="3.71643">
        <ele>181</ele>
        <time>2021-05-14T13:38:56Z</time>
      </trkpt>
      <trkpt lat="43.60748" lon="3.71635">
        <ele>181</ele>
        <time>2021-05-14T13:38:59Z</time>
      </trkpt>
      <trkpt lat="43.60748" lon="3.71631">
        <ele>181</ele>
        <time>2021-05-14T13:39:00Z</time>
      </trkpt>
      <trkpt lat="43.60748" lon="3.71628">
        <ele>181</ele>
        <time>2021-05-14T13:39:01Z</time>
      </trkpt>
      <trkpt lat="43.60748" lon="3.71625">
        <ele>181</ele>
        <time>2021-05-14T13:39:02Z</time>
      </trkpt>
      <trkpt lat="43.60748" lon="3.71621">
        <ele>181</ele>
        <time>2021-05-14T13:39:03Z</time>
      </trkpt>
      <trkpt lat="43.60748" lon="3.71618">
        <ele>181</ele>
        <time>2021-05-14T13:39:04Z</time>
      </trkpt>
      <trkpt lat="43.60748" lon="3.71615">
        <ele>181</ele>
        <time>2021-05-14T13:39:05Z</time>
      </trkpt>
      <trkpt lat="43.60748" lon="3.71612">
        <ele>181</ele>
        <time>2021-05-14T13:39:06Z</time>
      </trkpt>
      <trkpt lat="43.60748" lon="3.71607">
        <ele>181</ele>
        <time>2021-05-14T13:39:08Z</time>
      </trkpt>
      <trkpt lat="43.60748" lon="3.71602">
        <ele>181</ele>
        <time>2021-05-14T13:39:10Z</time>
      </trkpt>
      <trkpt lat="43.60747" lon="3.71597">
        <ele>181</ele>
        <time>2021-05-14T13:39:12Z</time>
      </trkpt>
      <trkpt lat="43.60747" lon="3.71594">
        <ele>181</ele>
        <time>2021-05-14T13:39:13Z</time>
      </trkpt>
      <trkpt lat="43.60747" lon="3.71592">
        <ele>181</ele>
        <time>2021-05-14T13:39:14Z</time>
      </trkpt>
      <trkpt lat="43.60746" lon="3.71589">
        <ele>181</ele>
        <time>2021-05-14T13:39:15Z</time>
      </trkpt>
      <trkpt lat="43.60746" lon="3.71586">
        <ele>181</ele>
        <time>2021-05-14T13:39:16Z</time>
      </trkpt>
      <trkpt lat="43.60745" lon="3.71583">
        <ele>182</ele>
        <time>2021-05-14T13:39:17Z</time>
      </trkpt>
      <trkpt lat="43.60744" lon="3.7158">
        <ele>182</ele>
        <time>2021-05-14T13:39:18Z</time>
      </trkpt>
      <trkpt lat="43.60744" lon="3.71578">
        <ele>182</ele>
        <time>2021-05-14T13:39:19Z</time>
      </trkpt>
      <trkpt lat="43.60743" lon="3.71573">
        <ele>182</ele>
        <time>2021-05-14T13:39:21Z</time>
      </trkpt>
      <trkpt lat="43.60743" lon="3.71571">
        <ele>182</ele>
        <time>2021-05-14T13:39:22Z</time>
      </trkpt>
      <trkpt lat="43.60742" lon="3.71568">
        <ele>182</ele>
        <time>2021-05-14T13:39:23Z</time>
      </trkpt>
      <trkpt lat="43.60742" lon="3.71565">
        <ele>182</ele>
        <time>2021-05-14T13:39:24Z</time>
      </trkpt>
      <trkpt lat="43.60742" lon="3.71562">
        <ele>182</ele>
        <time>2021-05-14T13:39:25Z</time>
      </trkpt>
      <trkpt lat="43.60742" lon="3.7156">
        <ele>182</ele>
        <time>2021-05-14T13:39:26Z</time>
      </trkpt>
      <trkpt lat="43.60741" lon="3.71557">
        <ele>182</ele>
        <time>2021-05-14T13:39:27Z</time>
      </trkpt>
      <trkpt lat="43.60742" lon="3.71552">
        <ele>182</ele>
        <time>2021-05-14T13:39:29Z</time>
      </trkpt>
      <trkpt lat="43.60742" lon="3.71548">
        <ele>182</ele>
        <time>2021-05-14T13:39:31Z</time>
      </trkpt>
      <trkpt lat="43.60741" lon="3.71544">
        <ele>182</ele>
        <time>2021-05-14T13:39:33Z</time>
      </trkpt>
      <trkpt lat="43.60741" lon="3.71539">
        <ele>182</ele>
        <time>2021-05-14T13:39:35Z</time>
      </trkpt>
      <trkpt lat="43.60741" lon="3.71536">
        <ele>181</ele>
        <time>2021-05-14T13:39:37Z</time>
      </trkpt>
      <trkpt lat="43.6074" lon="3.71533">
        <ele>181</ele>
        <time>2021-05-14T13:39:38Z</time>
      </trkpt>
      <trkpt lat="43.60739" lon="3.71531">
        <ele>181</ele>
        <time>2021-05-14T13:39:39Z</time>
      </trkpt>
      <trkpt lat="43.60738" lon="3.71528">
        <ele>181</ele>
        <time>2021-05-14T13:39:40Z</time>
      </trkpt>
      <trkpt lat="43.60735" lon="3.71524">
        <ele>181</ele>
        <time>2021-05-14T13:39:41Z</time>
      </trkpt>
      <trkpt lat="43.60734" lon="3.71522">
        <ele>181</ele>
        <time>2021-05-14T13:39:42Z</time>
      </trkpt>
      <trkpt lat="43.60732" lon="3.71521">
        <ele>181</ele>
        <time>2021-05-14T13:39:43Z</time>
      </trkpt>
      <trkpt lat="43.6073" lon="3.71519">
        <ele>181</ele>
        <time>2021-05-14T13:39:44Z</time>
      </trkpt>
      <trkpt lat="43.60729" lon="3.71517">
        <ele>181</ele>
        <time>2021-05-14T13:39:45Z</time>
      </trkpt>
      <trkpt lat="43.60727" lon="3.71515">
        <ele>181</ele>
        <time>2021-05-14T13:39:46Z</time>
      </trkpt>
      <trkpt lat="43.60726" lon="3.71514">
        <ele>182</ele>
        <time>2021-05-14T13:39:47Z</time>
      </trkpt>
      <trkpt lat="43.60724" lon="3.71512">
        <ele>182</ele>
        <time>2021-05-14T13:39:48Z</time>
      </trkpt>
      <trkpt lat="43.60722" lon="3.7151">
        <ele>182</ele>
        <time>2021-05-14T13:39:49Z</time>
      </trkpt>
      <trkpt lat="43.6072" lon="3.71508">
        <ele>182</ele>
        <time>2021-05-14T13:39:50Z</time>
      </trkpt>
      <trkpt lat="43.60719" lon="3.71505">
        <ele>182</ele>
        <time>2021-05-14T13:39:51Z</time>
      </trkpt>
      <trkpt lat="43.60718" lon="3.71503">
        <ele>182</ele>
        <time>2021-05-14T13:39:52Z</time>
      </trkpt>
      <trkpt lat="43.60718" lon="3.715">
        <ele>182</ele>
        <time>2021-05-14T13:39:53Z</time>
      </trkpt>
      <trkpt lat="43.60719" lon="3.71496">
        <ele>182</ele>
        <time>2021-05-14T13:39:55Z</time>
      </trkpt>
      <trkpt lat="43.60721" lon="3.71493">
        <ele>180</ele>
        <time>2021-05-14T13:39:57Z</time>
      </trkpt>
      <trkpt lat="43.60724" lon="3.71492">
        <ele>180</ele>
        <time>2021-05-14T13:40:00Z</time>
      </trkpt>
      <trkpt lat="43.60726" lon="3.71491">
        <ele>180</ele>
        <time>2021-05-14T13:40:01Z</time>
      </trkpt>
      <trkpt lat="43.60728" lon="3.7149">
        <ele>180</ele>
        <time>2021-05-14T13:40:04Z</time>
      </trkpt>
      <trkpt lat="43.60729" lon="3.71487">
        <ele>180</ele>
        <time>2021-05-14T13:40:06Z</time>
      </trkpt>
      <trkpt lat="43.60732" lon="3.71484">
        <ele>178</ele>
        <time>2021-05-14T13:40:07Z</time>
      </trkpt>
      <trkpt lat="43.60735" lon="3.71483">
        <ele>178</ele>
        <time>2021-05-14T13:40:09Z</time>
      </trkpt>
      <trkpt lat="43.60738" lon="3.71481">
        <ele>178</ele>
        <time>2021-05-14T13:40:11Z</time>
      </trkpt>
      <trkpt lat="43.6074" lon="3.7148">
        <ele>178</ele>
        <time>2021-05-14T13:40:12Z</time>
      </trkpt>
      <trkpt lat="43.60742" lon="3.71479">
        <ele>178</ele>
        <time>2021-05-14T13:40:13Z</time>
      </trkpt>
      <trkpt lat="43.60744" lon="3.71477">
        <ele>178</ele>
        <time>2021-05-14T13:40:15Z</time>
      </trkpt>
      <trkpt lat="43.60744" lon="3.71477">
        <ele>177</ele>
        <time>2021-05-14T13:40:20Z</time>
      </trkpt>
      <trkpt lat="43.60745" lon="3.71474">
        <ele>176</ele>
        <time>2021-05-14T13:40:27Z</time>
      </trkpt>
      <trkpt lat="43.60743" lon="3.71468">
        <ele>173</ele>
        <time>2021-05-14T13:41:29Z</time>
      </trkpt>
      <trkpt lat="43.6074" lon="3.71468">
        <ele>173</ele>
        <time>2021-05-14T13:41:31Z</time>
      </trkpt>
      <trkpt lat="43.60737" lon="3.71468">
        <ele>173</ele>
        <time>2021-05-14T13:41:34Z</time>
      </trkpt>
      <trkpt lat="43.60733" lon="3.71467">
        <ele>173</ele>
        <time>2021-05-14T13:41:36Z</time>
      </trkpt>
      <trkpt lat="43.6073" lon="3.71465">
        <ele>173</ele>
        <time>2021-05-14T13:41:38Z</time>
      </trkpt>
      <trkpt lat="43.60728" lon="3.71464">
        <ele>172</ele>
        <time>2021-05-14T13:41:39Z</time>
      </trkpt>
      <trkpt lat="43.60725" lon="3.71463">
        <ele>172</ele>
        <time>2021-05-14T13:41:41Z</time>
      </trkpt>
      <trkpt lat="43.60723" lon="3.7146">
        <ele>172</ele>
        <time>2021-05-14T13:41:43Z</time>
      </trkpt>
      <trkpt lat="43.60721" lon="3.71459">
        <ele>172</ele>
        <time>2021-05-14T13:41:44Z</time>
      </trkpt>
      <trkpt lat="43.60719" lon="3.71457">
        <ele>172</ele>
        <time>2021-05-14T13:41:45Z</time>
      </trkpt>
      <trkpt lat="43.60718" lon="3.71456">
        <ele>172</ele>
        <time>2021-05-14T13:41:46Z</time>
      </trkpt>
      <trkpt lat="43.60716" lon="3.71454">
        <ele>172</ele>
        <time>2021-05-14T13:41:47Z</time>
      </trkpt>
      <trkpt lat="43.60714" lon="3.71453">
        <ele>172</ele>
        <time>2021-05-14T13:41:48Z</time>
      </trkpt>
      <trkpt lat="43.60711" lon="3.7145">
        <ele>172</ele>
        <time>2021-05-14T13:41:49Z</time>
      </trkpt>
      <trkpt lat="43.60707" lon="3.71448">
        <ele>172</ele>
        <time>2021-05-14T13:41:51Z</time>
      </trkpt>
      <trkpt lat="43.60706" lon="3.71447">
        <ele>172</ele>
        <time>2021-05-14T13:41:52Z</time>
      </trkpt>
      <trkpt lat="43.60703" lon="3.71443">
        <ele>172</ele>
        <time>2021-05-14T13:41:54Z</time>
      </trkpt>
      <trkpt lat="43.60702" lon="3.71442">
        <ele>172</ele>
        <time>2021-05-14T13:41:55Z</time>
      </trkpt>
      <trkpt lat="43.607" lon="3.7144">
        <ele>172</ele>
        <time>2021-05-14T13:41:56Z</time>
      </trkpt>
      <trkpt lat="43.60698" lon="3.71438">
        <ele>172</ele>
        <time>2021-05-14T13:41:57Z</time>
      </trkpt>
      <trkpt lat="43.60697" lon="3.71437">
        <ele>172</ele>
        <time>2021-05-14T13:41:58Z</time>
      </trkpt>
      <trkpt lat="43.60696" lon="3.71435">
        <ele>172</ele>
        <time>2021-05-14T13:41:59Z</time>
      </trkpt>
      <trkpt lat="43.60694" lon="3.71432">
        <ele>172</ele>
        <time>2021-05-14T13:42:00Z</time>
      </trkpt>
      <trkpt lat="43.60693" lon="3.7143">
        <ele>172</ele>
        <time>2021-05-14T13:42:01Z</time>
      </trkpt>
      <trkpt lat="43.60691" lon="3.71426">
        <ele>172</ele>
        <time>2021-05-14T13:42:03Z</time>
      </trkpt>
      <trkpt lat="43.60689" lon="3.71423">
        <ele>172</ele>
        <time>2021-05-14T13:42:04Z</time>
      </trkpt>
      <trkpt lat="43.60688" lon="3.71419">
        <ele>172</ele>
        <time>2021-05-14T13:42:06Z</time>
      </trkpt>
      <trkpt lat="43.60685" lon="3.71416">
        <ele>172</ele>
        <time>2021-05-14T13:42:08Z</time>
      </trkpt>
      <trkpt lat="43.60684" lon="3.71414">
        <ele>172</ele>
        <time>2021-05-14T13:42:09Z</time>
      </trkpt>
      <trkpt lat="43.60681" lon="3.71413">
        <ele>172</ele>
        <time>2021-05-14T13:42:11Z</time>
      </trkpt>
      <trkpt lat="43.60681" lon="3.71413">
        <ele>173</ele>
        <time>2021-05-14T13:42:16Z</time>
      </trkpt>
      <trkpt lat="43.60681" lon="3.7142">
        <ele>173</ele>
        <time>2021-05-14T13:42:19Z</time>
      </trkpt>
      <trkpt lat="43.60681" lon="3.71423">
        <ele>173</ele>
        <time>2021-05-14T13:42:20Z</time>
      </trkpt>
      <trkpt lat="43.60682" lon="3.71429">
        <ele>173</ele>
        <time>2021-05-14T13:42:21Z</time>
      </trkpt>
      <trkpt lat="43.60682" lon="3.71432">
        <ele>173</ele>
        <time>2021-05-14T13:42:22Z</time>
      </trkpt>
      <trkpt lat="43.60683" lon="3.71435">
        <ele>173</ele>
        <time>2021-05-14T13:42:23Z</time>
      </trkpt>
      <trkpt lat="43.60683" lon="3.71437">
        <ele>173</ele>
        <time>2021-05-14T13:42:25Z</time>
      </trkpt>
      <trkpt lat="43.60684" lon="3.71442">
        <ele>173</ele>
        <time>2021-05-14T13:42:27Z</time>
      </trkpt>
      <trkpt lat="43.60685" lon="3.71446">
        <ele>175</ele>
        <time>2021-05-14T13:42:29Z</time>
      </trkpt>
      <trkpt lat="43.60686" lon="3.71449">
        <ele>175</ele>
        <time>2021-05-14T13:42:31Z</time>
      </trkpt>
      <trkpt lat="43.60686" lon="3.71452">
        <ele>175</ele>
        <time>2021-05-14T13:42:33Z</time>
      </trkpt>
      <trkpt lat="43.60686" lon="3.71456">
        <ele>175</ele>
        <time>2021-05-14T13:42:35Z</time>
      </trkpt>
      <trkpt lat="43.60685" lon="3.71459">
        <ele>175</ele>
        <time>2021-05-14T13:42:37Z</time>
      </trkpt>
      <trkpt lat="43.60683" lon="3.71461">
        <ele>175</ele>
        <time>2021-05-14T13:42:38Z</time>
      </trkpt>
      <trkpt lat="43.6068" lon="3.71463">
        <ele>175</ele>
        <time>2021-05-14T13:42:40Z</time>
      </trkpt>
      <trkpt lat="43.60678" lon="3.71465">
        <ele>175</ele>
        <time>2021-05-14T13:42:42Z</time>
      </trkpt>
      <trkpt lat="43.60675" lon="3.71467">
        <ele>175</ele>
        <time>2021-05-14T13:42:44Z</time>
      </trkpt>
      <trkpt lat="43.60673" lon="3.71469">
        <ele>175</ele>
        <time>2021-05-14T13:42:46Z</time>
      </trkpt>
      <trkpt lat="43.6067" lon="3.71471">
        <ele>175</ele>
        <time>2021-05-14T13:42:48Z</time>
      </trkpt>
      <trkpt lat="43.60667" lon="3.71471">
        <ele>175</ele>
        <time>2021-05-14T13:42:51Z</time>
      </trkpt>
      <trkpt lat="43.60665" lon="3.71471">
        <ele>175</ele>
        <time>2021-05-14T13:42:52Z</time>
      </trkpt>
      <trkpt lat="43.60663" lon="3.7147">
        <ele>175</ele>
        <time>2021-05-14T13:42:53Z</time>
      </trkpt>
      <trkpt lat="43.60661" lon="3.71467">
        <ele>175</ele>
        <time>2021-05-14T13:42:55Z</time>
      </trkpt>
      <trkpt lat="43.60658" lon="3.71465">
        <ele>175</ele>
        <time>2021-05-14T13:42:57Z</time>
      </trkpt>
      <trkpt lat="43.60657" lon="3.71463">
        <ele>175</ele>
        <time>2021-05-14T13:42:58Z</time>
      </trkpt>
      <trkpt lat="43.60655" lon="3.7146">
        <ele>178</ele>
        <time>2021-05-14T13:42:59Z</time>
      </trkpt>
      <trkpt lat="43.60653" lon="3.71458">
        <ele>178</ele>
        <time>2021-05-14T13:43:00Z</time>
      </trkpt>
      <trkpt lat="43.60651" lon="3.71455">
        <ele>178</ele>
        <time>2021-05-14T13:43:01Z</time>
      </trkpt>
      <trkpt lat="43.60649" lon="3.71452">
        <ele>178</ele>
        <time>2021-05-14T13:43:02Z</time>
      </trkpt>
      <trkpt lat="43.60646" lon="3.7145">
        <ele>178</ele>
        <time>2021-05-14T13:43:03Z</time>
      </trkpt>
      <trkpt lat="43.60644" lon="3.71449">
        <ele>178</ele>
        <time>2021-05-14T13:43:04Z</time>
      </trkpt>
      <trkpt lat="43.60641" lon="3.71447">
        <ele>178</ele>
        <time>2021-05-14T13:43:05Z</time>
      </trkpt>
      <trkpt lat="43.60639" lon="3.71446">
        <ele>178</ele>
        <time>2021-05-14T13:43:06Z</time>
      </trkpt>
      <trkpt lat="43.60636" lon="3.71446">
        <ele>178</ele>
        <time>2021-05-14T13:43:07Z</time>
      </trkpt>
      <trkpt lat="43.60631" lon="3.71444">
        <ele>178</ele>
        <time>2021-05-14T13:43:08Z</time>
      </trkpt>
      <trkpt lat="43.60629" lon="3.71443">
        <ele>176</ele>
        <time>2021-05-14T13:43:09Z</time>
      </trkpt>
      <trkpt lat="43.60627" lon="3.71442">
        <ele>176</ele>
        <time>2021-05-14T13:43:10Z</time>
      </trkpt>
      <trkpt lat="43.60625" lon="3.7144">
        <ele>176</ele>
        <time>2021-05-14T13:43:11Z</time>
      </trkpt>
      <trkpt lat="43.60624" lon="3.71438">
        <ele>176</ele>
        <time>2021-05-14T13:43:12Z</time>
      </trkpt>
      <trkpt lat="43.60622" lon="3.71436">
        <ele>176</ele>
        <time>2021-05-14T13:43:14Z</time>
      </trkpt>
      <trkpt lat="43.60619" lon="3.71435">
        <ele>176</ele>
        <time>2021-05-14T13:43:17Z</time>
      </trkpt>
      <trkpt lat="43.60616" lon="3.71433">
        <ele>176</ele>
        <time>2021-05-14T13:43:19Z</time>
      </trkpt>
      <trkpt lat="43.60614" lon="3.7143">
        <ele>176</ele>
        <time>2021-05-14T13:43:20Z</time>
      </trkpt>
      <trkpt lat="43.60611" lon="3.71427">
        <ele>176</ele>
        <time>2021-05-14T13:43:23Z</time>
      </trkpt>
      <trkpt lat="43.6061" lon="3.71425">
        <ele>176</ele>
        <time>2021-05-14T13:43:24Z</time>
      </trkpt>
      <trkpt lat="43.60608" lon="3.7142">
        <ele>176</ele>
        <time>2021-05-14T13:43:25Z</time>
      </trkpt>
      <trkpt lat="43.60607" lon="3.71418">
        <ele>176</ele>
        <time>2021-05-14T13:43:26Z</time>
      </trkpt>
      <trkpt lat="43.60606" lon="3.71414">
        <ele>176</ele>
        <time>2021-05-14T13:43:27Z</time>
      </trkpt>
      <trkpt lat="43.60604" lon="3.7141">
        <ele>176</ele>
        <time>2021-05-14T13:43:28Z</time>
      </trkpt>
      <trkpt lat="43.60601" lon="3.71404">
        <ele>176</ele>
        <time>2021-05-14T13:43:30Z</time>
      </trkpt>
      <trkpt lat="43.606" lon="3.714">
        <ele>176</ele>
        <time>2021-05-14T13:43:31Z</time>
      </trkpt>
      <trkpt lat="43.60598" lon="3.71397">
        <ele>176</ele>
        <time>2021-05-14T13:43:32Z</time>
      </trkpt>
      <trkpt lat="43.60596" lon="3.71395">
        <ele>176</ele>
        <time>2021-05-14T13:43:33Z</time>
      </trkpt>
      <trkpt lat="43.60594" lon="3.71393">
        <ele>176</ele>
        <time>2021-05-14T13:43:35Z</time>
      </trkpt>
      <trkpt lat="43.60593" lon="3.7139">
        <ele>176</ele>
        <time>2021-05-14T13:43:36Z</time>
      </trkpt>
      <trkpt lat="43.60591" lon="3.71388">
        <ele>176</ele>
        <time>2021-05-14T13:43:37Z</time>
      </trkpt>
      <trkpt lat="43.6059" lon="3.71385">
        <ele>176</ele>
        <time>2021-05-14T13:43:38Z</time>
      </trkpt>
      <trkpt lat="43.60587" lon="3.71379">
        <ele>175</ele>
        <time>2021-05-14T13:43:39Z</time>
      </trkpt>
      <trkpt lat="43.60586" lon="3.71376">
        <ele>175</ele>
        <time>2021-05-14T13:43:40Z</time>
      </trkpt>
      <trkpt lat="43.60585" lon="3.71373">
        <ele>175</ele>
        <time>2021-05-14T13:43:41Z</time>
      </trkpt>
      <trkpt lat="43.60584" lon="3.71369">
        <ele>175</ele>
        <time>2021-05-14T13:43:43Z</time>
      </trkpt>
      <trkpt lat="43.60582" lon="3.71365">
        <ele>175</ele>
        <time>2021-05-14T13:43:45Z</time>
      </trkpt>
      <trkpt lat="43.60581" lon="3.71362">
        <ele>175</ele>
        <time>2021-05-14T13:43:46Z</time>
      </trkpt>
      <trkpt lat="43.60579" lon="3.71344">
        <ele>175</ele>
        <time>2021-05-14T13:43:50Z</time>
      </trkpt>
      <trkpt lat="43.60577" lon="3.71331">
        <ele>175</ele>
        <time>2021-05-14T13:43:52Z</time>
      </trkpt>
      <trkpt lat="43.60575" lon="3.71316">
        <ele>175</ele>
        <time>2021-05-14T13:43:55Z</time>
      </trkpt>
      <trkpt lat="43.60572" lon="3.71303">
        <ele>175</ele>
        <time>2021-05-14T13:43:58Z</time>
      </trkpt>
      <trkpt lat="43.60571" lon="3.71296">
        <ele>175</ele>
        <time>2021-05-14T13:44:00Z</time>
      </trkpt>
      <trkpt lat="43.60569" lon="3.71292">
        <ele>175</ele>
        <time>2021-05-14T13:44:01Z</time>
      </trkpt>
      <trkpt lat="43.60567" lon="3.71288">
        <ele>175</ele>
        <time>2021-05-14T13:44:02Z</time>
      </trkpt>
      <trkpt lat="43.60565" lon="3.71284">
        <ele>175</ele>
        <time>2021-05-14T13:44:03Z</time>
      </trkpt>
      <trkpt lat="43.60562" lon="3.71281">
        <ele>175</ele>
        <time>2021-05-14T13:44:04Z</time>
      </trkpt>
      <trkpt lat="43.60559" lon="3.71278">
        <ele>175</ele>
        <time>2021-05-14T13:44:05Z</time>
      </trkpt>
      <trkpt lat="43.60557" lon="3.71274">
        <ele>175</ele>
        <time>2021-05-14T13:44:06Z</time>
      </trkpt>
      <trkpt lat="43.60554" lon="3.7127">
        <ele>175</ele>
        <time>2021-05-14T13:44:07Z</time>
      </trkpt>
      <trkpt lat="43.60552" lon="3.71266">
        <ele>175</ele>
        <time>2021-05-14T13:44:08Z</time>
      </trkpt>
      <trkpt lat="43.6055" lon="3.71263">
        <ele>175</ele>
        <time>2021-05-14T13:44:10Z</time>
      </trkpt>
      <trkpt lat="43.60548" lon="3.7126">
        <ele>175</ele>
        <time>2021-05-14T13:44:11Z</time>
      </trkpt>
      <trkpt lat="43.60545" lon="3.71257">
        <ele>175</ele>
        <time>2021-05-14T13:44:12Z</time>
      </trkpt>
      <trkpt lat="43.60542" lon="3.71253">
        <ele>175</ele>
        <time>2021-05-14T13:44:13Z</time>
      </trkpt>
      <trkpt lat="43.60539" lon="3.7125">
        <ele>175</ele>
        <time>2021-05-14T13:44:14Z</time>
      </trkpt>
      <trkpt lat="43.60535" lon="3.7124">
        <ele>175</ele>
        <time>2021-05-14T13:44:15Z</time>
      </trkpt>
      <trkpt lat="43.60533" lon="3.71236">
        <ele>175</ele>
        <time>2021-05-14T13:44:16Z</time>
      </trkpt>
      <trkpt lat="43.60529" lon="3.71227">
        <ele>171</ele>
        <time>2021-05-14T13:44:19Z</time>
      </trkpt>
      <trkpt lat="43.60521" lon="3.71215">
        <ele>171</ele>
        <time>2021-05-14T13:44:21Z</time>
      </trkpt>
      <trkpt lat="43.60514" lon="3.71205">
        <ele>171</ele>
        <time>2021-05-14T13:44:24Z</time>
      </trkpt>
      <trkpt lat="43.60511" lon="3.71201">
        <ele>171</ele>
        <time>2021-05-14T13:44:25Z</time>
      </trkpt>
      <trkpt lat="43.60508" lon="3.71199">
        <ele>171</ele>
        <time>2021-05-14T13:44:26Z</time>
      </trkpt>
      <trkpt lat="43.60506" lon="3.71197">
        <ele>171</ele>
        <time>2021-05-14T13:44:27Z</time>
      </trkpt>
      <trkpt lat="43.60505" lon="3.71195">
        <ele>171</ele>
        <time>2021-05-14T13:44:28Z</time>
      </trkpt>
      <trkpt lat="43.60503" lon="3.71194">
        <ele>171</ele>
        <time>2021-05-14T13:44:30Z</time>
      </trkpt>
      <trkpt lat="43.60501" lon="3.71193">
        <ele>171</ele>
        <time>2021-05-14T13:44:31Z</time>
      </trkpt>
      <trkpt lat="43.605" lon="3.7119">
        <ele>171</ele>
        <time>2021-05-14T13:44:32Z</time>
      </trkpt>
      <trkpt lat="43.60498" lon="3.71188">
        <ele>171</ele>
        <time>2021-05-14T13:44:33Z</time>
      </trkpt>
      <trkpt lat="43.60496" lon="3.71184">
        <ele>171</ele>
        <time>2021-05-14T13:44:34Z</time>
      </trkpt>
      <trkpt lat="43.60493" lon="3.71181">
        <ele>171</ele>
        <time>2021-05-14T13:44:35Z</time>
      </trkpt>
      <trkpt lat="43.60482" lon="3.71171">
        <ele>171</ele>
        <time>2021-05-14T13:44:38Z</time>
      </trkpt>
      <trkpt lat="43.60472" lon="3.71161">
        <ele>171</ele>
        <time>2021-05-14T13:44:40Z</time>
      </trkpt>
      <trkpt lat="43.60467" lon="3.71158">
        <ele>171</ele>
        <time>2021-05-14T13:44:41Z</time>
      </trkpt>
      <trkpt lat="43.60464" lon="3.71155">
        <ele>171</ele>
        <time>2021-05-14T13:44:42Z</time>
      </trkpt>
      <trkpt lat="43.60461" lon="3.71152">
        <ele>171</ele>
        <time>2021-05-14T13:44:43Z</time>
      </trkpt>
      <trkpt lat="43.60459" lon="3.7115">
        <ele>171</ele>
        <time>2021-05-14T13:44:45Z</time>
      </trkpt>
      <trkpt lat="43.60458" lon="3.71148">
        <ele>171</ele>
        <time>2021-05-14T13:44:46Z</time>
      </trkpt>
      <trkpt lat="43.60455" lon="3.71146">
        <ele>171</ele>
        <time>2021-05-14T13:44:48Z</time>
      </trkpt>
      <trkpt lat="43.60455" lon="3.71146">
        <ele>165</ele>
        <time>2021-05-14T13:44:52Z</time>
      </trkpt>
      <trkpt lat="43.60448" lon="3.71151">
        <ele>164</ele>
        <time>2021-05-14T13:44:57Z</time>
      </trkpt>
      <trkpt lat="43.60444" lon="3.71147">
        <ele>164</ele>
        <time>2021-05-14T13:44:59Z</time>
      </trkpt>
      <trkpt lat="43.60442" lon="3.71144">
        <ele>164</ele>
        <time>2021-05-14T13:45:00Z</time>
      </trkpt>
      <trkpt lat="43.6044" lon="3.71141">
        <ele>164</ele>
        <time>2021-05-14T13:45:01Z</time>
      </trkpt>
      <trkpt lat="43.60438" lon="3.71139">
        <ele>164</ele>
        <time>2021-05-14T13:45:02Z</time>
      </trkpt>
      <trkpt lat="43.60436" lon="3.71138">
        <ele>164</ele>
        <time>2021-05-14T13:45:03Z</time>
      </trkpt>
      <trkpt lat="43.60433" lon="3.71136">
        <ele>164</ele>
        <time>2021-05-14T13:45:04Z</time>
      </trkpt>
      <trkpt lat="43.60431" lon="3.71135">
        <ele>164</ele>
        <time>2021-05-14T13:45:05Z</time>
      </trkpt>
      <trkpt lat="43.60428" lon="3.71134">
        <ele>164</ele>
        <time>2021-05-14T13:45:06Z</time>
      </trkpt>
      <trkpt lat="43.60422" lon="3.71131">
        <ele>164</ele>
        <time>2021-05-14T13:45:08Z</time>
      </trkpt>
      <trkpt lat="43.60419" lon="3.71131">
        <ele>164</ele>
        <time>2021-05-14T13:45:09Z</time>
      </trkpt>
      <trkpt lat="43.60416" lon="3.7113">
        <ele>164</ele>
        <time>2021-05-14T13:45:10Z</time>
      </trkpt>
      <trkpt lat="43.60413" lon="3.7113">
        <ele>164</ele>
        <time>2021-05-14T13:45:11Z</time>
      </trkpt>
      <trkpt lat="43.6041" lon="3.7113">
        <ele>164</ele>
        <time>2021-05-14T13:45:13Z</time>
      </trkpt>
      <trkpt lat="43.60407" lon="3.71131">
        <ele>164</ele>
        <time>2021-05-14T13:45:14Z</time>
      </trkpt>
      <trkpt lat="43.60404" lon="3.7113">
        <ele>164</ele>
        <time>2021-05-14T13:45:15Z</time>
      </trkpt>
      <trkpt lat="43.60395" lon="3.71128">
        <ele>160</ele>
        <time>2021-05-14T13:45:17Z</time>
      </trkpt>
      <trkpt lat="43.60391" lon="3.71116">
        <ele>160</ele>
        <time>2021-05-14T13:45:21Z</time>
      </trkpt>
      <trkpt lat="43.60396" lon="3.71112">
        <ele>160</ele>
        <time>2021-05-14T13:45:23Z</time>
      </trkpt>
      <trkpt lat="43.60399" lon="3.7111">
        <ele>160</ele>
        <time>2021-05-14T13:45:24Z</time>
      </trkpt>
      <trkpt lat="43.604" lon="3.71109">
        <ele>160</ele>
        <time>2021-05-14T13:45:25Z</time>
      </trkpt>
      <trkpt lat="43.60399" lon="3.71106">
        <ele>160</ele>
        <time>2021-05-14T13:45:28Z</time>
      </trkpt>
      <trkpt lat="43.60396" lon="3.71106">
        <ele>160</ele>
        <time>2021-05-14T13:45:29Z</time>
      </trkpt>
      <trkpt lat="43.60389" lon="3.71106">
        <ele>160</ele>
        <time>2021-05-14T13:45:30Z</time>
      </trkpt>
      <trkpt lat="43.60385" lon="3.71106">
        <ele>160</ele>
        <time>2021-05-14T13:45:31Z</time>
      </trkpt>
      <trkpt lat="43.60381" lon="3.71105">
        <ele>160</ele>
        <time>2021-05-14T13:45:32Z</time>
      </trkpt>
      <trkpt lat="43.60376" lon="3.71105">
        <ele>160</ele>
        <time>2021-05-14T13:45:33Z</time>
      </trkpt>
      <trkpt lat="43.60372" lon="3.71105">
        <ele>160</ele>
        <time>2021-05-14T13:45:35Z</time>
      </trkpt>
      <trkpt lat="43.60367" lon="3.71104">
        <ele>160</ele>
        <time>2021-05-14T13:45:36Z</time>
      </trkpt>
      <trkpt lat="43.60363" lon="3.71104">
        <ele>150</ele>
        <time>2021-05-14T13:45:37Z</time>
      </trkpt>
      <trkpt lat="43.60358" lon="3.71103">
        <ele>150</ele>
        <time>2021-05-14T13:45:38Z</time>
      </trkpt>
      <trkpt lat="43.60354" lon="3.71103">
        <ele>150</ele>
        <time>2021-05-14T13:45:39Z</time>
      </trkpt>
      <trkpt lat="43.60349" lon="3.71103">
        <ele>150</ele>
        <time>2021-05-14T13:45:40Z</time>
      </trkpt>
      <trkpt lat="43.60344" lon="3.71103">
        <ele>150</ele>
        <time>2021-05-14T13:45:41Z</time>
      </trkpt>
      <trkpt lat="43.6034" lon="3.71104">
        <ele>150</ele>
        <time>2021-05-14T13:45:42Z</time>
      </trkpt>
      <trkpt lat="43.6033" lon="3.71104">
        <ele>150</ele>
        <time>2021-05-14T13:45:43Z</time>
      </trkpt>
      <trkpt lat="43.60326" lon="3.71104">
        <ele>150</ele>
        <time>2021-05-14T13:45:44Z</time>
      </trkpt>
      <trkpt lat="43.60322" lon="3.71105">
        <ele>150</ele>
        <time>2021-05-14T13:45:45Z</time>
      </trkpt>
      <trkpt lat="43.60317" lon="3.71105">
        <ele>150</ele>
        <time>2021-05-14T13:45:46Z</time>
      </trkpt>
      <trkpt lat="43.60313" lon="3.71106">
        <ele>150</ele>
        <time>2021-05-14T13:45:48Z</time>
      </trkpt>
      <trkpt lat="43.60308" lon="3.71106">
        <ele>150</ele>
        <time>2021-05-14T13:45:49Z</time>
      </trkpt>
      <trkpt lat="43.60304" lon="3.71107">
        <ele>150</ele>
        <time>2021-05-14T13:45:50Z</time>
      </trkpt>
      <trkpt lat="43.60299" lon="3.71108">
        <ele>150</ele>
        <time>2021-05-14T13:45:51Z</time>
      </trkpt>
      <trkpt lat="43.60294" lon="3.71109">
        <ele>150</ele>
        <time>2021-05-14T13:45:52Z</time>
      </trkpt>
      <trkpt lat="43.60289" lon="3.71111">
        <ele>150</ele>
        <time>2021-05-14T13:45:53Z</time>
      </trkpt>
      <trkpt lat="43.60284" lon="3.71112">
        <ele>150</ele>
        <time>2021-05-14T13:45:54Z</time>
      </trkpt>
      <trkpt lat="43.60278" lon="3.71113">
        <ele>150</ele>
        <time>2021-05-14T13:45:55Z</time>
      </trkpt>
      <trkpt lat="43.60266" lon="3.71113">
        <ele>150</ele>
        <time>2021-05-14T13:45:56Z</time>
      </trkpt>
      <trkpt lat="43.60261" lon="3.71114">
        <ele>144</ele>
        <time>2021-05-14T13:45:57Z</time>
      </trkpt>
      <trkpt lat="43.60254" lon="3.71114">
        <ele>144</ele>
        <time>2021-05-14T13:45:58Z</time>
      </trkpt>
      <trkpt lat="43.60248" lon="3.71115">
        <ele>144</ele>
        <time>2021-05-14T13:45:59Z</time>
      </trkpt>
      <trkpt lat="43.60242" lon="3.71116">
        <ele>144</ele>
        <time>2021-05-14T13:46:01Z</time>
      </trkpt>
      <trkpt lat="43.60236" lon="3.71116">
        <ele>144</ele>
        <time>2021-05-14T13:46:02Z</time>
      </trkpt>
      <trkpt lat="43.60231" lon="3.71117">
        <ele>144</ele>
        <time>2021-05-14T13:46:03Z</time>
      </trkpt>
      <trkpt lat="43.60221" lon="3.7112">
        <ele>144</ele>
        <time>2021-05-14T13:46:04Z</time>
      </trkpt>
      <trkpt lat="43.60218" lon="3.71122">
        <ele>144</ele>
        <time>2021-05-14T13:46:05Z</time>
      </trkpt>
      <trkpt lat="43.60214" lon="3.71124">
        <ele>144</ele>
        <time>2021-05-14T13:46:06Z</time>
      </trkpt>
      <trkpt lat="43.6021" lon="3.71126">
        <ele>142</ele>
        <time>2021-05-14T13:46:07Z</time>
      </trkpt>
      <trkpt lat="43.60206" lon="3.71129">
        <ele>142</ele>
        <time>2021-05-14T13:46:08Z</time>
      </trkpt>
      <trkpt lat="43.60201" lon="3.71131">
        <ele>142</ele>
        <time>2021-05-14T13:46:09Z</time>
      </trkpt>
      <trkpt lat="43.60196" lon="3.71134">
        <ele>142</ele>
        <time>2021-05-14T13:46:10Z</time>
      </trkpt>
      <trkpt lat="43.60191" lon="3.71135">
        <ele>142</ele>
        <time>2021-05-14T13:46:11Z</time>
      </trkpt>
      <trkpt lat="43.60185" lon="3.71137">
        <ele>142</ele>
        <time>2021-05-14T13:46:12Z</time>
      </trkpt>
      <trkpt lat="43.6018" lon="3.71138">
        <ele>142</ele>
        <time>2021-05-14T13:46:13Z</time>
      </trkpt>
      <trkpt lat="43.60175" lon="3.7114">
        <ele>142</ele>
        <time>2021-05-14T13:46:14Z</time>
      </trkpt>
      <trkpt lat="43.6017" lon="3.71142">
        <ele>142</ele>
        <time>2021-05-14T13:46:15Z</time>
      </trkpt>
      <trkpt lat="43.60165" lon="3.71143">
        <ele>142</ele>
        <time>2021-05-14T13:46:16Z</time>
      </trkpt>
      <trkpt lat="43.60155" lon="3.71145">
        <ele>142</ele>
        <time>2021-05-14T13:46:18Z</time>
      </trkpt>
      <trkpt lat="43.6015" lon="3.71146">
        <ele>142</ele>
        <time>2021-05-14T13:46:19Z</time>
      </trkpt>
      <trkpt lat="43.60146" lon="3.71146">
        <ele>142</ele>
        <time>2021-05-14T13:46:20Z</time>
      </trkpt>
      <trkpt lat="43.60137" lon="3.71143">
        <ele>142</ele>
        <time>2021-05-14T13:46:22Z</time>
      </trkpt>
      <trkpt lat="43.60133" lon="3.71141">
        <ele>142</ele>
        <time>2021-05-14T13:46:23Z</time>
      </trkpt>
      <trkpt lat="43.60129" lon="3.71137">
        <ele>142</ele>
        <time>2021-05-14T13:46:24Z</time>
      </trkpt>
      <trkpt lat="43.60126" lon="3.71134">
        <ele>142</ele>
        <time>2021-05-14T13:46:25Z</time>
      </trkpt>
      <trkpt lat="43.60123" lon="3.7113">
        <ele>142</ele>
        <time>2021-05-14T13:46:26Z</time>
      </trkpt>
      <trkpt lat="43.6012" lon="3.71126">
        <ele>140</ele>
        <time>2021-05-14T13:46:27Z</time>
      </trkpt>
      <trkpt lat="43.60116" lon="3.71122">
        <ele>140</ele>
        <time>2021-05-14T13:46:28Z</time>
      </trkpt>
      <trkpt lat="43.60113" lon="3.71117">
        <ele>140</ele>
        <time>2021-05-14T13:46:29Z</time>
      </trkpt>
      <trkpt lat="43.60109" lon="3.71111">
        <ele>140</ele>
        <time>2021-05-14T13:46:30Z</time>
      </trkpt>
      <trkpt lat="43.60106" lon="3.71105">
        <ele>140</ele>
        <time>2021-05-14T13:46:31Z</time>
      </trkpt>
      <trkpt lat="43.60102" lon="3.71099">
        <ele>140</ele>
        <time>2021-05-14T13:46:32Z</time>
      </trkpt>
      <trkpt lat="43.60098" lon="3.71093">
        <ele>140</ele>
        <time>2021-05-14T13:46:33Z</time>
      </trkpt>
      <trkpt lat="43.6009" lon="3.7108">
        <ele>140</ele>
        <time>2021-05-14T13:46:35Z</time>
      </trkpt>
      <trkpt lat="43.60086" lon="3.71073">
        <ele>140</ele>
        <time>2021-05-14T13:46:36Z</time>
      </trkpt>
      <trkpt lat="43.60083" lon="3.71064">
        <ele>139</ele>
        <time>2021-05-14T13:46:37Z</time>
      </trkpt>
      <trkpt lat="43.6008" lon="3.71055">
        <ele>139</ele>
        <time>2021-05-14T13:46:38Z</time>
      </trkpt>
      <trkpt lat="43.60076" lon="3.71046">
        <ele>139</ele>
        <time>2021-05-14T13:46:39Z</time>
      </trkpt>
      <trkpt lat="43.60072" lon="3.71038">
        <ele>139</ele>
        <time>2021-05-14T13:46:40Z</time>
      </trkpt>
      <trkpt lat="43.60068" lon="3.7103">
        <ele>139</ele>
        <time>2021-05-14T13:46:41Z</time>
      </trkpt>
      <trkpt lat="43.60064" lon="3.71023">
        <ele>139</ele>
        <time>2021-05-14T13:46:42Z</time>
      </trkpt>
      <trkpt lat="43.60059" lon="3.71016">
        <ele>139</ele>
        <time>2021-05-14T13:46:43Z</time>
      </trkpt>
      <trkpt lat="43.60054" lon="3.71009">
        <ele>139</ele>
        <time>2021-05-14T13:46:44Z</time>
      </trkpt>
      <trkpt lat="43.60049" lon="3.71004">
        <ele>139</ele>
        <time>2021-05-14T13:46:45Z</time>
      </trkpt>
      <trkpt lat="43.60044" lon="3.70999">
        <ele>139</ele>
        <time>2021-05-14T13:46:46Z</time>
      </trkpt>
      <trkpt lat="43.60039" lon="3.70994">
        <ele>138</ele>
        <time>2021-05-14T13:46:47Z</time>
      </trkpt>
      <trkpt lat="43.60033" lon="3.70991">
        <ele>138</ele>
        <time>2021-05-14T13:46:48Z</time>
      </trkpt>
      <trkpt lat="43.60028" lon="3.70988">
        <ele>138</ele>
        <time>2021-05-14T13:46:49Z</time>
      </trkpt>
      <trkpt lat="43.60023" lon="3.70985">
        <ele>138</ele>
        <time>2021-05-14T13:46:50Z</time>
      </trkpt>
      <trkpt lat="43.60017" lon="3.70982">
        <ele>138</ele>
        <time>2021-05-14T13:46:51Z</time>
      </trkpt>
      <trkpt lat="43.60013" lon="3.70977">
        <ele>138</ele>
        <time>2021-05-14T13:46:52Z</time>
      </trkpt>
      <trkpt lat="43.60008" lon="3.70971">
        <ele>138</ele>
        <time>2021-05-14T13:46:53Z</time>
      </trkpt>
      <trkpt lat="43.60005" lon="3.70966">
        <ele>138</ele>
        <time>2021-05-14T13:46:54Z</time>
      </trkpt>
      <trkpt lat="43.59999" lon="3.70955">
        <ele>138</ele>
        <time>2021-05-14T13:46:56Z</time>
      </trkpt>
      <trkpt lat="43.59997" lon="3.70951">
        <ele>134</ele>
        <time>2021-05-14T13:46:57Z</time>
      </trkpt>
      <trkpt lat="43.59995" lon="3.70946">
        <ele>134</ele>
        <time>2021-05-14T13:46:58Z</time>
      </trkpt>
      <trkpt lat="43.59991" lon="3.70938">
        <ele>134</ele>
        <time>2021-05-14T13:47:00Z</time>
      </trkpt>
      <trkpt lat="43.5999" lon="3.70934">
        <ele>134</ele>
        <time>2021-05-14T13:47:01Z</time>
      </trkpt>
      <trkpt lat="43.5999" lon="3.7093">
        <ele>134</ele>
        <time>2021-05-14T13:47:02Z</time>
      </trkpt>
      <trkpt lat="43.59988" lon="3.70926">
        <ele>134</ele>
        <time>2021-05-14T13:47:03Z</time>
      </trkpt>
      <trkpt lat="43.59987" lon="3.70923">
        <ele>134</ele>
        <time>2021-05-14T13:47:04Z</time>
      </trkpt>
      <trkpt lat="43.59985" lon="3.70919">
        <ele>134</ele>
        <time>2021-05-14T13:47:05Z</time>
      </trkpt>
      <trkpt lat="43.59984" lon="3.70915">
        <ele>134</ele>
        <time>2021-05-14T13:47:06Z</time>
      </trkpt>
      <trkpt lat="43.59982" lon="3.70911">
        <ele>133</ele>
        <time>2021-05-14T13:47:07Z</time>
      </trkpt>
      <trkpt lat="43.5998" lon="3.70908">
        <ele>133</ele>
        <time>2021-05-14T13:47:08Z</time>
      </trkpt>
      <trkpt lat="43.59978" lon="3.70905">
        <ele>133</ele>
        <time>2021-05-14T13:47:09Z</time>
      </trkpt>
      <trkpt lat="43.59976" lon="3.70903">
        <ele>133</ele>
        <time>2021-05-14T13:47:10Z</time>
      </trkpt>
      <trkpt lat="43.59974" lon="3.70901">
        <ele>133</ele>
        <time>2021-05-14T13:47:11Z</time>
      </trkpt>
      <trkpt lat="43.59973" lon="3.70895">
        <ele>133</ele>
        <time>2021-05-14T13:47:13Z</time>
      </trkpt>
      <trkpt lat="43.59972" lon="3.70891">
        <ele>133</ele>
        <time>2021-05-14T13:47:15Z</time>
      </trkpt>
      <trkpt lat="43.59972" lon="3.70887">
        <ele>133</ele>
        <time>2021-05-14T13:47:17Z</time>
      </trkpt>
      <trkpt lat="43.59973" lon="3.70882">
        <ele>133</ele>
        <time>2021-05-14T13:47:19Z</time>
      </trkpt>
      <trkpt lat="43.59974" lon="3.70879">
        <ele>133</ele>
        <time>2021-05-14T13:47:20Z</time>
      </trkpt>
      <trkpt lat="43.59974" lon="3.70876">
        <ele>133</ele>
        <time>2021-05-14T13:47:21Z</time>
      </trkpt>
      <trkpt lat="43.59975" lon="3.70874">
        <ele>133</ele>
        <time>2021-05-14T13:47:22Z</time>
      </trkpt>
      <trkpt lat="43.59976" lon="3.70871">
        <ele>133</ele>
        <time>2021-05-14T13:47:23Z</time>
      </trkpt>
      <trkpt lat="43.59976" lon="3.70869">
        <ele>133</ele>
        <time>2021-05-14T13:47:24Z</time>
      </trkpt>
      <trkpt lat="43.59977" lon="3.70867">
        <ele>133</ele>
        <time>2021-05-14T13:47:25Z</time>
      </trkpt>
      <trkpt lat="43.59978" lon="3.70864">
        <ele>133</ele>
        <time>2021-05-14T13:47:26Z</time>
      </trkpt>
      <trkpt lat="43.59978" lon="3.70862">
        <ele>133</ele>
        <time>2021-05-14T13:47:28Z</time>
      </trkpt>
      <trkpt lat="43.59979" lon="3.70859">
        <ele>133</ele>
        <time>2021-05-14T13:47:29Z</time>
      </trkpt>
      <trkpt lat="43.5998" lon="3.70855">
        <ele>133</ele>
        <time>2021-05-14T13:47:31Z</time>
      </trkpt>
      <trkpt lat="43.59979" lon="3.70852">
        <ele>133</ele>
        <time>2021-05-14T13:47:32Z</time>
      </trkpt>
      <trkpt lat="43.59979" lon="3.70849">
        <ele>133</ele>
        <time>2021-05-14T13:47:33Z</time>
      </trkpt>
      <trkpt lat="43.59978" lon="3.70846">
        <ele>133</ele>
        <time>2021-05-14T13:47:34Z</time>
      </trkpt>
      <trkpt lat="43.59978" lon="3.70843">
        <ele>133</ele>
        <time>2021-05-14T13:47:35Z</time>
      </trkpt>
      <trkpt lat="43.59978" lon="3.7084">
        <ele>133</ele>
        <time>2021-05-14T13:47:36Z</time>
      </trkpt>
      <trkpt lat="43.59979" lon="3.70837">
        <ele>134</ele>
        <time>2021-05-14T13:47:37Z</time>
      </trkpt>
      <trkpt lat="43.5998" lon="3.70835">
        <ele>134</ele>
        <time>2021-05-14T13:47:38Z</time>
      </trkpt>
      <trkpt lat="43.59981" lon="3.70832">
        <ele>134</ele>
        <time>2021-05-14T13:47:39Z</time>
      </trkpt>
      <trkpt lat="43.59983" lon="3.7083">
        <ele>134</ele>
        <time>2021-05-14T13:47:40Z</time>
      </trkpt>
      <trkpt lat="43.59985" lon="3.70828">
        <ele>134</ele>
        <time>2021-05-14T13:47:41Z</time>
      </trkpt>
      <trkpt lat="43.59987" lon="3.70826">
        <ele>134</ele>
        <time>2021-05-14T13:47:42Z</time>
      </trkpt>
      <trkpt lat="43.59989" lon="3.70824">
        <ele>134</ele>
        <time>2021-05-14T13:47:43Z</time>
      </trkpt>
      <trkpt lat="43.59991" lon="3.70822">
        <ele>134</ele>
        <time>2021-05-14T13:47:44Z</time>
      </trkpt>
      <trkpt lat="43.59992" lon="3.7082">
        <ele>134</ele>
        <time>2021-05-14T13:47:45Z</time>
      </trkpt>
      <trkpt lat="43.59994" lon="3.70818">
        <ele>134</ele>
        <time>2021-05-14T13:47:46Z</time>
      </trkpt>
      <trkpt lat="43.59996" lon="3.70816">
        <ele>134</ele>
        <time>2021-05-14T13:47:47Z</time>
      </trkpt>
      <trkpt lat="43.59998" lon="3.70814">
        <ele>134</ele>
        <time>2021-05-14T13:47:48Z</time>
      </trkpt>
      <trkpt lat="43.6" lon="3.70812">
        <ele>134</ele>
        <time>2021-05-14T13:47:49Z</time>
      </trkpt>
      <trkpt lat="43.60004" lon="3.70807">
        <ele>134</ele>
        <time>2021-05-14T13:47:50Z</time>
      </trkpt>
      <trkpt lat="43.60005" lon="3.70804">
        <ele>134</ele>
        <time>2021-05-14T13:47:51Z</time>
      </trkpt>
      <trkpt lat="43.60007" lon="3.70802">
        <ele>134</ele>
        <time>2021-05-14T13:47:52Z</time>
      </trkpt>
      <trkpt lat="43.60009" lon="3.70799">
        <ele>134</ele>
        <time>2021-05-14T13:47:53Z</time>
      </trkpt>
      <trkpt lat="43.60011" lon="3.70794">
        <ele>134</ele>
        <time>2021-05-14T13:47:55Z</time>
      </trkpt>
      <trkpt lat="43.60013" lon="3.70791">
        <ele>134</ele>
        <time>2021-05-14T13:47:56Z</time>
      </trkpt>
      <trkpt lat="43.60014" lon="3.70789">
        <ele>135</ele>
        <time>2021-05-14T13:47:57Z</time>
      </trkpt>
      <trkpt lat="43.60015" lon="3.70786">
        <ele>135</ele>
        <time>2021-05-14T13:47:59Z</time>
      </trkpt>
      <trkpt lat="43.60016" lon="3.70784">
        <ele>135</ele>
        <time>2021-05-14T13:48:00Z</time>
      </trkpt>
      <trkpt lat="43.60018" lon="3.70781">
        <ele>135</ele>
        <time>2021-05-14T13:48:01Z</time>
      </trkpt>
      <trkpt lat="43.60019" lon="3.70779">
        <ele>135</ele>
        <time>2021-05-14T13:48:02Z</time>
      </trkpt>
      <trkpt lat="43.60019" lon="3.70776">
        <ele>135</ele>
        <time>2021-05-14T13:48:03Z</time>
      </trkpt>
      <trkpt lat="43.6002" lon="3.70774">
        <ele>135</ele>
        <time>2021-05-14T13:48:04Z</time>
      </trkpt>
      <trkpt lat="43.60021" lon="3.70771">
        <ele>135</ele>
        <time>2021-05-14T13:48:05Z</time>
      </trkpt>
      <trkpt lat="43.60022" lon="3.70769">
        <ele>135</ele>
        <time>2021-05-14T13:48:06Z</time>
      </trkpt>
      <trkpt lat="43.60023" lon="3.70767">
        <ele>136</ele>
        <time>2021-05-14T13:48:07Z</time>
      </trkpt>
      <trkpt lat="43.60024" lon="3.70762">
        <ele>136</ele>
        <time>2021-05-14T13:48:08Z</time>
      </trkpt>
      <trkpt lat="43.60025" lon="3.70759">
        <ele>136</ele>
        <time>2021-05-14T13:48:10Z</time>
      </trkpt>
      <trkpt lat="43.60026" lon="3.70755">
        <ele>136</ele>
        <time>2021-05-14T13:48:12Z</time>
      </trkpt>
      <trkpt lat="43.60027" lon="3.7075">
        <ele>136</ele>
        <time>2021-05-14T13:48:14Z</time>
      </trkpt>
      <trkpt lat="43.60028" lon="3.70746">
        <ele>136</ele>
        <time>2021-05-14T13:48:16Z</time>
      </trkpt>
      <trkpt lat="43.6003" lon="3.70742">
        <ele>136</ele>
        <time>2021-05-14T13:48:19Z</time>
      </trkpt>
      <trkpt lat="43.60031" lon="3.70738">
        <ele>136</ele>
        <time>2021-05-14T13:48:20Z</time>
      </trkpt>
      <trkpt lat="43.60031" lon="3.70734">
        <ele>136</ele>
        <time>2021-05-14T13:48:22Z</time>
      </trkpt>
      <trkpt lat="43.60032" lon="3.70729">
        <ele>136</ele>
        <time>2021-05-14T13:48:24Z</time>
      </trkpt>
      <trkpt lat="43.60032" lon="3.70724">
        <ele>136</ele>
        <time>2021-05-14T13:48:26Z</time>
      </trkpt>
      <trkpt lat="43.60032" lon="3.7072">
        <ele>136</ele>
        <time>2021-05-14T13:48:28Z</time>
      </trkpt>
      <trkpt lat="43.60033" lon="3.70715">
        <ele>136</ele>
        <time>2021-05-14T13:48:30Z</time>
      </trkpt>
      <trkpt lat="43.60033" lon="3.70712">
        <ele>136</ele>
        <time>2021-05-14T13:48:32Z</time>
      </trkpt>
      <trkpt lat="43.60035" lon="3.70709">
        <ele>136</ele>
        <time>2021-05-14T13:48:34Z</time>
      </trkpt>
      <trkpt lat="43.60035" lon="3.70705">
        <ele>136</ele>
        <time>2021-05-14T13:48:36Z</time>
      </trkpt>
      <trkpt lat="43.60036" lon="3.70701">
        <ele>136</ele>
        <time>2021-05-14T13:48:38Z</time>
      </trkpt>
      <trkpt lat="43.60038" lon="3.70694">
        <ele>136</ele>
        <time>2021-05-14T13:48:41Z</time>
      </trkpt>
      <trkpt lat="43.60038" lon="3.70692">
        <ele>136</ele>
        <time>2021-05-14T13:48:42Z</time>
      </trkpt>
      <trkpt lat="43.60039" lon="3.70689">
        <ele>136</ele>
        <time>2021-05-14T13:48:43Z</time>
      </trkpt>
      <trkpt lat="43.6004" lon="3.70687">
        <ele>136</ele>
        <time>2021-05-14T13:48:44Z</time>
      </trkpt>
      <trkpt lat="43.6004" lon="3.70684">
        <ele>136</ele>
        <time>2021-05-14T13:48:45Z</time>
      </trkpt>
      <trkpt lat="43.60041" lon="3.70681">
        <ele>136</ele>
        <time>2021-05-14T13:48:46Z</time>
      </trkpt>
      <trkpt lat="43.60041" lon="3.70679">
        <ele>136</ele>
        <time>2021-05-14T13:48:48Z</time>
      </trkpt>
      <trkpt lat="43.60042" lon="3.70676">
        <ele>136</ele>
        <time>2021-05-14T13:48:49Z</time>
      </trkpt>
      <trkpt lat="43.60043" lon="3.70674">
        <ele>136</ele>
        <time>2021-05-14T13:48:50Z</time>
      </trkpt>
      <trkpt lat="43.60044" lon="3.70671">
        <ele>136</ele>
        <time>2021-05-14T13:48:51Z</time>
      </trkpt>
      <trkpt lat="43.60045" lon="3.70669">
        <ele>136</ele>
        <time>2021-05-14T13:48:52Z</time>
      </trkpt>
      <trkpt lat="43.60046" lon="3.70667">
        <ele>136</ele>
        <time>2021-05-14T13:48:53Z</time>
      </trkpt>
      <trkpt lat="43.60048" lon="3.70662">
        <ele>136</ele>
        <time>2021-05-14T13:48:55Z</time>
      </trkpt>
      <trkpt lat="43.60049" lon="3.7066">
        <ele>136</ele>
        <time>2021-05-14T13:48:56Z</time>
      </trkpt>
      <trkpt lat="43.6005" lon="3.70658">
        <ele>143</ele>
        <time>2021-05-14T13:48:57Z</time>
      </trkpt>
      <trkpt lat="43.6005" lon="3.70655">
        <ele>143</ele>
        <time>2021-05-14T13:48:58Z</time>
      </trkpt>
      <trkpt lat="43.60051" lon="3.70652">
        <ele>143</ele>
        <time>2021-05-14T13:48:59Z</time>
      </trkpt>
      <trkpt lat="43.60052" lon="3.7065">
        <ele>143</ele>
        <time>2021-05-14T13:49:00Z</time>
      </trkpt>
      <trkpt lat="43.60054" lon="3.70645">
        <ele>143</ele>
        <time>2021-05-14T13:49:01Z</time>
      </trkpt>
      <trkpt lat="43.60055" lon="3.70642">
        <ele>143</ele>
        <time>2021-05-14T13:49:03Z</time>
      </trkpt>
      <trkpt lat="43.60056" lon="3.7064">
        <ele>143</ele>
        <time>2021-05-14T13:49:04Z</time>
      </trkpt>
      <trkpt lat="43.60057" lon="3.70637">
        <ele>143</ele>
        <time>2021-05-14T13:49:05Z</time>
      </trkpt>
      <trkpt lat="43.60057" lon="3.70634">
        <ele>143</ele>
        <time>2021-05-14T13:49:06Z</time>
      </trkpt>
      <trkpt lat="43.60059" lon="3.7063">
        <ele>143</ele>
        <time>2021-05-14T13:49:08Z</time>
      </trkpt>
      <trkpt lat="43.6006" lon="3.70626">
        <ele>143</ele>
        <time>2021-05-14T13:49:10Z</time>
      </trkpt>
      <trkpt lat="43.60062" lon="3.70622">
        <ele>143</ele>
        <time>2021-05-14T13:49:12Z</time>
      </trkpt>
      <trkpt lat="43.60063" lon="3.70617">
        <ele>143</ele>
        <time>2021-05-14T13:49:14Z</time>
      </trkpt>
      <trkpt lat="43.60063" lon="3.70613">
        <ele>143</ele>
        <time>2021-05-14T13:49:16Z</time>
      </trkpt>
      <trkpt lat="43.60063" lon="3.70608">
        <ele>143</ele>
        <time>2021-05-14T13:49:18Z</time>
      </trkpt>
      <trkpt lat="43.60063" lon="3.70603">
        <ele>143</ele>
        <time>2021-05-14T13:49:19Z</time>
      </trkpt>
      <trkpt lat="43.60063" lon="3.70598">
        <ele>143</ele>
        <time>2021-05-14T13:49:21Z</time>
      </trkpt>
      <trkpt lat="43.60064" lon="3.70594">
        <ele>143</ele>
        <time>2021-05-14T13:49:24Z</time>
      </trkpt>
      <trkpt lat="43.60064" lon="3.7059">
        <ele>143</ele>
        <time>2021-05-14T13:49:25Z</time>
      </trkpt>
      <trkpt lat="43.60064" lon="3.70586">
        <ele>143</ele>
        <time>2021-05-14T13:49:28Z</time>
      </trkpt>
      <trkpt lat="43.60064" lon="3.70583">
        <ele>143</ele>
        <time>2021-05-14T13:49:29Z</time>
      </trkpt>
      <trkpt lat="43.60065" lon="3.7058">
        <ele>143</ele>
        <time>2021-05-14T13:49:31Z</time>
      </trkpt>
      <trkpt lat="43.60065" lon="3.70576">
        <ele>143</ele>
        <time>2021-05-14T13:49:33Z</time>
      </trkpt>
      <trkpt lat="43.60065" lon="3.70572">
        <ele>143</ele>
        <time>2021-05-14T13:49:35Z</time>
      </trkpt>
      <trkpt lat="43.60066" lon="3.7057">
        <ele>151</ele>
        <time>2021-05-14T13:49:37Z</time>
      </trkpt>
      <trkpt lat="43.60066" lon="3.70565">
        <ele>151</ele>
        <time>2021-05-14T13:49:39Z</time>
      </trkpt>
      <trkpt lat="43.60066" lon="3.70562">
        <ele>151</ele>
        <time>2021-05-14T13:49:40Z</time>
      </trkpt>
      <trkpt lat="43.60066" lon="3.7056">
        <ele>151</ele>
        <time>2021-05-14T13:49:41Z</time>
      </trkpt>
      <trkpt lat="43.60067" lon="3.70557">
        <ele>151</ele>
        <time>2021-05-14T13:49:42Z</time>
      </trkpt>
      <trkpt lat="43.60068" lon="3.70553">
        <ele>151</ele>
        <time>2021-05-14T13:49:44Z</time>
      </trkpt>
      <trkpt lat="43.60068" lon="3.70548">
        <ele>151</ele>
        <time>2021-05-14T13:49:45Z</time>
      </trkpt>
      <trkpt lat="43.60069" lon="3.70544">
        <ele>153</ele>
        <time>2021-05-14T13:49:47Z</time>
      </trkpt>
      <trkpt lat="43.6007" lon="3.70537">
        <ele>153</ele>
        <time>2021-05-14T13:49:50Z</time>
      </trkpt>
      <trkpt lat="43.60071" lon="3.70532">
        <ele>153</ele>
        <time>2021-05-14T13:49:52Z</time>
      </trkpt>
      <trkpt lat="43.6007" lon="3.70527">
        <ele>153</ele>
        <time>2021-05-14T13:49:54Z</time>
      </trkpt>
      <trkpt lat="43.6007" lon="3.70524">
        <ele>153</ele>
        <time>2021-05-14T13:49:55Z</time>
      </trkpt>
      <trkpt lat="43.60071" lon="3.70522">
        <ele>153</ele>
        <time>2021-05-14T13:49:56Z</time>
      </trkpt>
      <trkpt lat="43.60071" lon="3.70519">
        <ele>155</ele>
        <time>2021-05-14T13:49:57Z</time>
      </trkpt>
      <trkpt lat="43.60071" lon="3.70515">
        <ele>155</ele>
        <time>2021-05-14T13:49:59Z</time>
      </trkpt>
      <trkpt lat="43.60072" lon="3.70512">
        <ele>155</ele>
        <time>2021-05-14T13:50:01Z</time>
      </trkpt>
      <trkpt lat="43.60073" lon="3.70508">
        <ele>155</ele>
        <time>2021-05-14T13:50:03Z</time>
      </trkpt>
      <trkpt lat="43.60073" lon="3.70505">
        <ele>155</ele>
        <time>2021-05-14T13:50:05Z</time>
      </trkpt>
      <trkpt lat="43.60074" lon="3.70501">
        <ele>155</ele>
        <time>2021-05-14T13:50:07Z</time>
      </trkpt>
      <trkpt lat="43.60075" lon="3.70497">
        <ele>155</ele>
        <time>2021-05-14T13:50:09Z</time>
      </trkpt>
      <trkpt lat="43.60075" lon="3.70492">
        <ele>155</ele>
        <time>2021-05-14T13:50:11Z</time>
      </trkpt>
      <trkpt lat="43.60075" lon="3.70488">
        <ele>155</ele>
        <time>2021-05-14T13:50:13Z</time>
      </trkpt>
      <trkpt lat="43.60076" lon="3.70483">
        <ele>155</ele>
        <time>2021-05-14T13:50:15Z</time>
      </trkpt>
      <trkpt lat="43.60077" lon="3.70479">
        <ele>156</ele>
        <time>2021-05-14T13:50:17Z</time>
      </trkpt>
      <trkpt lat="43.60078" lon="3.70475">
        <ele>156</ele>
        <time>2021-05-14T13:50:19Z</time>
      </trkpt>
      <trkpt lat="43.60079" lon="3.70472">
        <ele>156</ele>
        <time>2021-05-14T13:50:21Z</time>
      </trkpt>
      <trkpt lat="43.6008" lon="3.70468">
        <ele>156</ele>
        <time>2021-05-14T13:50:23Z</time>
      </trkpt>
      <trkpt lat="43.60081" lon="3.70464">
        <ele>156</ele>
        <time>2021-05-14T13:50:25Z</time>
      </trkpt>
      <trkpt lat="43.60083" lon="3.70461">
        <ele>158</ele>
        <time>2021-05-14T13:50:27Z</time>
      </trkpt>
      <trkpt lat="43.60084" lon="3.70457">
        <ele>158</ele>
        <time>2021-05-14T13:50:29Z</time>
      </trkpt>
      <trkpt lat="43.60086" lon="3.70453">
        <ele>158</ele>
        <time>2021-05-14T13:50:31Z</time>
      </trkpt>
      <trkpt lat="43.60088" lon="3.7045">
        <ele>158</ele>
        <time>2021-05-14T13:50:33Z</time>
      </trkpt>
      <trkpt lat="43.6009" lon="3.70447">
        <ele>158</ele>
        <time>2021-05-14T13:50:35Z</time>
      </trkpt>
      <trkpt lat="43.60092" lon="3.70445">
        <ele>159</ele>
        <time>2021-05-14T13:50:37Z</time>
      </trkpt>
      <trkpt lat="43.60095" lon="3.70442">
        <ele>159</ele>
        <time>2021-05-14T13:50:39Z</time>
      </trkpt>
      <trkpt lat="43.60096" lon="3.70441">
        <ele>159</ele>
        <time>2021-05-14T13:50:40Z</time>
      </trkpt>
      <trkpt lat="43.60098" lon="3.70439">
        <ele>159</ele>
        <time>2021-05-14T13:50:41Z</time>
      </trkpt>
      <trkpt lat="43.601" lon="3.70438">
        <ele>159</ele>
        <time>2021-05-14T13:50:42Z</time>
      </trkpt>
      <trkpt lat="43.60101" lon="3.70437">
        <ele>159</ele>
        <time>2021-05-14T13:50:43Z</time>
      </trkpt>
      <trkpt lat="43.60103" lon="3.70435">
        <ele>159</ele>
        <time>2021-05-14T13:50:44Z</time>
      </trkpt>
      <trkpt lat="43.60104" lon="3.70434">
        <ele>159</ele>
        <time>2021-05-14T13:50:45Z</time>
      </trkpt>
      <trkpt lat="43.60106" lon="3.70433">
        <ele>159</ele>
        <time>2021-05-14T13:50:46Z</time>
      </trkpt>
      <trkpt lat="43.60108" lon="3.70431">
        <ele>159</ele>
        <time>2021-05-14T13:50:47Z</time>
      </trkpt>
      <trkpt lat="43.60111" lon="3.70429">
        <ele>159</ele>
        <time>2021-05-14T13:50:49Z</time>
      </trkpt>
      <trkpt lat="43.60114" lon="3.70427">
        <ele>159</ele>
        <time>2021-05-14T13:50:51Z</time>
      </trkpt>
      <trkpt lat="43.60117" lon="3.70425">
        <ele>159</ele>
        <time>2021-05-14T13:50:53Z</time>
      </trkpt>
      <trkpt lat="43.60119" lon="3.70424">
        <ele>159</ele>
        <time>2021-05-14T13:50:54Z</time>
      </trkpt>
      <trkpt lat="43.6012" lon="3.70423">
        <ele>159</ele>
        <time>2021-05-14T13:50:55Z</time>
      </trkpt>
      <trkpt lat="43.60124" lon="3.70421">
        <ele>161</ele>
        <time>2021-05-14T13:50:57Z</time>
      </trkpt>
      <trkpt lat="43.60127" lon="3.70419">
        <ele>161</ele>
        <time>2021-05-14T13:50:59Z</time>
      </trkpt>
      <trkpt lat="43.6013" lon="3.70418">
        <ele>161</ele>
        <time>2021-05-14T13:51:01Z</time>
      </trkpt>
      <trkpt lat="43.60132" lon="3.70418">
        <ele>161</ele>
        <time>2021-05-14T13:51:02Z</time>
      </trkpt>
      <trkpt lat="43.60135" lon="3.70419">
        <ele>161</ele>
        <time>2021-05-14T13:51:03Z</time>
      </trkpt>
      <trkpt lat="43.60139" lon="3.7042">
        <ele>161</ele>
        <time>2021-05-14T13:51:05Z</time>
      </trkpt>
      <trkpt lat="43.60141" lon="3.7042">
        <ele>161</ele>
        <time>2021-05-14T13:51:06Z</time>
      </trkpt>
      <trkpt lat="43.60143" lon="3.70421">
        <ele>161</ele>
        <time>2021-05-14T13:51:08Z</time>
      </trkpt>
      <trkpt lat="43.60147" lon="3.70422">
        <ele>161</ele>
        <time>2021-05-14T13:51:10Z</time>
      </trkpt>
      <trkpt lat="43.60149" lon="3.70423">
        <ele>161</ele>
        <time>2021-05-14T13:51:11Z</time>
      </trkpt>
      <trkpt lat="43.60151" lon="3.70424">
        <ele>161</ele>
        <time>2021-05-14T13:51:12Z</time>
      </trkpt>
      <trkpt lat="43.60153" lon="3.70425">
        <ele>161</ele>
        <time>2021-05-14T13:51:13Z</time>
      </trkpt>
      <trkpt lat="43.60155" lon="3.70427">
        <ele>161</ele>
        <time>2021-05-14T13:51:14Z</time>
      </trkpt>
      <trkpt lat="43.60157" lon="3.70428">
        <ele>161</ele>
        <time>2021-05-14T13:51:15Z</time>
      </trkpt>
      <trkpt lat="43.60159" lon="3.70428">
        <ele>161</ele>
        <time>2021-05-14T13:51:16Z</time>
      </trkpt>
      <trkpt lat="43.60161" lon="3.70429">
        <ele>163</ele>
        <time>2021-05-14T13:51:17Z</time>
      </trkpt>
      <trkpt lat="43.60163" lon="3.70431">
        <ele>163</ele>
        <time>2021-05-14T13:51:18Z</time>
      </trkpt>
      <trkpt lat="43.60165" lon="3.70432">
        <ele>163</ele>
        <time>2021-05-14T13:51:19Z</time>
      </trkpt>
      <trkpt lat="43.60167" lon="3.70433">
        <ele>163</ele>
        <time>2021-05-14T13:51:20Z</time>
      </trkpt>
      <trkpt lat="43.60169" lon="3.70434">
        <ele>163</ele>
        <time>2021-05-14T13:51:21Z</time>
      </trkpt>
      <trkpt lat="43.60171" lon="3.70434">
        <ele>163</ele>
        <time>2021-05-14T13:51:22Z</time>
      </trkpt>
      <trkpt lat="43.60174" lon="3.70434">
        <ele>163</ele>
        <time>2021-05-14T13:51:24Z</time>
      </trkpt>
      <trkpt lat="43.60177" lon="3.70433">
        <ele>163</ele>
        <time>2021-05-14T13:51:26Z</time>
      </trkpt>
      <trkpt lat="43.6018" lon="3.70433">
        <ele>163</ele>
        <time>2021-05-14T13:51:28Z</time>
      </trkpt>
      <trkpt lat="43.60183" lon="3.70433">
        <ele>163</ele>
        <time>2021-05-14T13:51:30Z</time>
      </trkpt>
      <trkpt lat="43.60186" lon="3.70433">
        <ele>163</ele>
        <time>2021-05-14T13:51:32Z</time>
      </trkpt>
      <trkpt lat="43.60189" lon="3.70434">
        <ele>163</ele>
        <time>2021-05-14T13:51:34Z</time>
      </trkpt>
      <trkpt lat="43.60192" lon="3.70435">
        <ele>163</ele>
        <time>2021-05-14T13:51:36Z</time>
      </trkpt>
      <trkpt lat="43.60196" lon="3.70436">
        <ele>166</ele>
        <time>2021-05-14T13:51:37Z</time>
      </trkpt>
      <trkpt lat="43.60199" lon="3.70436">
        <ele>166</ele>
        <time>2021-05-14T13:51:39Z</time>
      </trkpt>
      <trkpt lat="43.60202" lon="3.70436">
        <ele>166</ele>
        <time>2021-05-14T13:51:41Z</time>
      </trkpt>
      <trkpt lat="43.60205" lon="3.70436">
        <ele>166</ele>
        <time>2021-05-14T13:51:43Z</time>
      </trkpt>
      <trkpt lat="43.60208" lon="3.70435">
        <ele>166</ele>
        <time>2021-05-14T13:51:45Z</time>
      </trkpt>
      <trkpt lat="43.6021" lon="3.70435">
        <ele>168</ele>
        <time>2021-05-14T13:51:47Z</time>
      </trkpt>
      <trkpt lat="43.60212" lon="3.70434">
        <ele>168</ele>
        <time>2021-05-14T13:51:49Z</time>
      </trkpt>
      <trkpt lat="43.60214" lon="3.70433">
        <ele>168</ele>
        <time>2021-05-14T13:51:51Z</time>
      </trkpt>
      <trkpt lat="43.60216" lon="3.70432">
        <ele>168</ele>
        <time>2021-05-14T13:51:53Z</time>
      </trkpt>
      <trkpt lat="43.60219" lon="3.70431">
        <ele>168</ele>
        <time>2021-05-14T13:51:55Z</time>
      </trkpt>
      <trkpt lat="43.60222" lon="3.70432">
        <ele>170</ele>
        <time>2021-05-14T13:51:57Z</time>
      </trkpt>
      <trkpt lat="43.60224" lon="3.70431">
        <ele>170</ele>
        <time>2021-05-14T13:51:59Z</time>
      </trkpt>
      <trkpt lat="43.60226" lon="3.7043">
        <ele>170</ele>
        <time>2021-05-14T13:52:01Z</time>
      </trkpt>
      <trkpt lat="43.60228" lon="3.7043">
        <ele>170</ele>
        <time>2021-05-14T13:52:03Z</time>
      </trkpt>
      <trkpt lat="43.6023" lon="3.7043">
        <ele>170</ele>
        <time>2021-05-14T13:52:05Z</time>
      </trkpt>
      <trkpt lat="43.60232" lon="3.7043">
        <ele>172</ele>
        <time>2021-05-14T13:52:07Z</time>
      </trkpt>
      <trkpt lat="43.60235" lon="3.7043">
        <ele>172</ele>
        <time>2021-05-14T13:52:09Z</time>
      </trkpt>
      <trkpt lat="43.60238" lon="3.7043">
        <ele>172</ele>
        <time>2021-05-14T13:52:11Z</time>
      </trkpt>
      <trkpt lat="43.6024" lon="3.70429">
        <ele>172</ele>
        <time>2021-05-14T13:52:13Z</time>
      </trkpt>
      <trkpt lat="43.60243" lon="3.70429">
        <ele>172</ele>
        <time>2021-05-14T13:52:15Z</time>
      </trkpt>
      <trkpt lat="43.60246" lon="3.7043">
        <ele>173</ele>
        <time>2021-05-14T13:52:17Z</time>
      </trkpt>
      <trkpt lat="43.60249" lon="3.70431">
        <ele>173</ele>
        <time>2021-05-14T13:52:19Z</time>
      </trkpt>
      <trkpt lat="43.60251" lon="3.70431">
        <ele>173</ele>
        <time>2021-05-14T13:52:21Z</time>
      </trkpt>
      <trkpt lat="43.60254" lon="3.70431">
        <ele>173</ele>
        <time>2021-05-14T13:52:23Z</time>
      </trkpt>
      <trkpt lat="43.60256" lon="3.70432">
        <ele>173</ele>
        <time>2021-05-14T13:52:25Z</time>
      </trkpt>
      <trkpt lat="43.60258" lon="3.70432">
        <ele>175</ele>
        <time>2021-05-14T13:52:27Z</time>
      </trkpt>
      <trkpt lat="43.6026" lon="3.70433">
        <ele>175</ele>
        <time>2021-05-14T13:52:29Z</time>
      </trkpt>
      <trkpt lat="43.60263" lon="3.70434">
        <ele>175</ele>
        <time>2021-05-14T13:52:31Z</time>
      </trkpt>
      <trkpt lat="43.60265" lon="3.70435">
        <ele>175</ele>
        <time>2021-05-14T13:52:33Z</time>
      </trkpt>
      <trkpt lat="43.60267" lon="3.70437">
        <ele>175</ele>
        <time>2021-05-14T13:52:35Z</time>
      </trkpt>
      <trkpt lat="43.60269" lon="3.70439">
        <ele>177</ele>
        <time>2021-05-14T13:52:37Z</time>
      </trkpt>
      <trkpt lat="43.6027" lon="3.70441">
        <ele>177</ele>
        <time>2021-05-14T13:52:39Z</time>
      </trkpt>
      <trkpt lat="43.60272" lon="3.70445">
        <ele>177</ele>
        <time>2021-05-14T13:52:41Z</time>
      </trkpt>
      <trkpt lat="43.60274" lon="3.70449">
        <ele>177</ele>
        <time>2021-05-14T13:52:43Z</time>
      </trkpt>
      <trkpt lat="43.60275" lon="3.70452">
        <ele>177</ele>
        <time>2021-05-14T13:52:45Z</time>
      </trkpt>
      <trkpt lat="43.60276" lon="3.70456">
        <ele>179</ele>
        <time>2021-05-14T13:52:47Z</time>
      </trkpt>
      <trkpt lat="43.60277" lon="3.70459">
        <ele>179</ele>
        <time>2021-05-14T13:52:50Z</time>
      </trkpt>
      <trkpt lat="43.60279" lon="3.70462">
        <ele>179</ele>
        <time>2021-05-14T13:52:51Z</time>
      </trkpt>
      <trkpt lat="43.60281" lon="3.70463">
        <ele>179</ele>
        <time>2021-05-14T13:52:53Z</time>
      </trkpt>
      <trkpt lat="43.60283" lon="3.70464">
        <ele>179</ele>
        <time>2021-05-14T13:52:55Z</time>
      </trkpt>
      <trkpt lat="43.60286" lon="3.70463">
        <ele>179</ele>
        <time>2021-05-14T13:52:58Z</time>
      </trkpt>
      <trkpt lat="43.60288" lon="3.70462">
        <ele>179</ele>
        <time>2021-05-14T13:52:59Z</time>
      </trkpt>
      <trkpt lat="43.60291" lon="3.70461">
        <ele>179</ele>
        <time>2021-05-14T13:53:01Z</time>
      </trkpt>
      <trkpt lat="43.60294" lon="3.7046">
        <ele>179</ele>
        <time>2021-05-14T13:53:03Z</time>
      </trkpt>
      <trkpt lat="43.60297" lon="3.70459">
        <ele>179</ele>
        <time>2021-05-14T13:53:05Z</time>
      </trkpt>
      <trkpt lat="43.603" lon="3.70459">
        <ele>178</ele>
        <time>2021-05-14T13:53:07Z</time>
      </trkpt>
      <trkpt lat="43.60302" lon="3.7046">
        <ele>178</ele>
        <time>2021-05-14T13:53:09Z</time>
      </trkpt>
      <trkpt lat="43.60305" lon="3.7046">
        <ele>178</ele>
        <time>2021-05-14T13:53:11Z</time>
      </trkpt>
      <trkpt lat="43.60308" lon="3.70461">
        <ele>178</ele>
        <time>2021-05-14T13:53:13Z</time>
      </trkpt>
      <trkpt lat="43.6031" lon="3.70462">
        <ele>178</ele>
        <time>2021-05-14T13:53:15Z</time>
      </trkpt>
      <trkpt lat="43.60313" lon="3.70462">
        <ele>179</ele>
        <time>2021-05-14T13:53:17Z</time>
      </trkpt>
      <trkpt lat="43.60315" lon="3.70462">
        <ele>179</ele>
        <time>2021-05-14T13:53:19Z</time>
      </trkpt>
      <trkpt lat="43.60318" lon="3.70462">
        <ele>179</ele>
        <time>2021-05-14T13:53:21Z</time>
      </trkpt>
      <trkpt lat="43.6032" lon="3.70462">
        <ele>179</ele>
        <time>2021-05-14T13:53:23Z</time>
      </trkpt>
      <trkpt lat="43.60322" lon="3.70461">
        <ele>179</ele>
        <time>2021-05-14T13:53:25Z</time>
      </trkpt>
      <trkpt lat="43.60324" lon="3.70459">
        <ele>180</ele>
        <time>2021-05-14T13:53:27Z</time>
      </trkpt>
      <trkpt lat="43.60326" lon="3.70456">
        <ele>180</ele>
        <time>2021-05-14T13:53:29Z</time>
      </trkpt>
      <trkpt lat="43.60328" lon="3.70452">
        <ele>180</ele>
        <time>2021-05-14T13:53:31Z</time>
      </trkpt>
      <trkpt lat="43.6033" lon="3.70448">
        <ele>180</ele>
        <time>2021-05-14T13:53:33Z</time>
      </trkpt>
      <trkpt lat="43.60331" lon="3.70445">
        <ele>180</ele>
        <time>2021-05-14T13:53:34Z</time>
      </trkpt>
      <trkpt lat="43.60331" lon="3.70443">
        <ele>180</ele>
        <time>2021-05-14T13:53:35Z</time>
      </trkpt>
      <trkpt lat="43.60332" lon="3.70441">
        <ele>180</ele>
        <time>2021-05-14T13:53:36Z</time>
      </trkpt>
      <trkpt lat="43.60334" lon="3.70437">
        <ele>180</ele>
        <time>2021-05-14T13:53:38Z</time>
      </trkpt>
      <trkpt lat="43.60336" lon="3.70433">
        <ele>180</ele>
        <time>2021-05-14T13:53:40Z</time>
      </trkpt>
      <trkpt lat="43.60338" lon="3.70429">
        <ele>180</ele>
        <time>2021-05-14T13:53:42Z</time>
      </trkpt>
      <trkpt lat="43.60339" lon="3.70426">
        <ele>180</ele>
        <time>2021-05-14T13:53:44Z</time>
      </trkpt>
      <trkpt lat="43.60341" lon="3.70423">
        <ele>183</ele>
        <time>2021-05-14T13:53:47Z</time>
      </trkpt>
      <trkpt lat="43.60343" lon="3.7042">
        <ele>183</ele>
        <time>2021-05-14T13:53:49Z</time>
      </trkpt>
      <trkpt lat="43.60345" lon="3.70417">
        <ele>183</ele>
        <time>2021-05-14T13:53:50Z</time>
      </trkpt>
      <trkpt lat="43.60346" lon="3.70415">
        <ele>183</ele>
        <time>2021-05-14T13:53:52Z</time>
      </trkpt>
      <trkpt lat="43.60348" lon="3.70413">
        <ele>183</ele>
        <time>2021-05-14T13:53:55Z</time>
      </trkpt>
      <trkpt lat="43.6035" lon="3.7041">
        <ele>184</ele>
        <time>2021-05-14T13:53:57Z</time>
      </trkpt>
      <trkpt lat="43.60351" lon="3.70408">
        <ele>184</ele>
        <time>2021-05-14T13:53:58Z</time>
      </trkpt>
      <trkpt lat="43.60352" lon="3.70405">
        <ele>184</ele>
        <time>2021-05-14T13:54:00Z</time>
      </trkpt>
      <trkpt lat="43.60353" lon="3.70403">
        <ele>184</ele>
        <time>2021-05-14T13:54:02Z</time>
      </trkpt>
      <trkpt lat="43.60353" lon="3.704">
        <ele>184</ele>
        <time>2021-05-14T13:54:04Z</time>
      </trkpt>
      <trkpt lat="43.60353" lon="3.70397">
        <ele>184</ele>
        <time>2021-05-14T13:54:06Z</time>
      </trkpt>
      <trkpt lat="43.60352" lon="3.70393">
        <ele>184</ele>
        <time>2021-05-14T13:54:08Z</time>
      </trkpt>
      <trkpt lat="43.60349" lon="3.7039">
        <ele>184</ele>
        <time>2021-05-14T13:54:10Z</time>
      </trkpt>
      <trkpt lat="43.60348" lon="3.70388">
        <ele>184</ele>
        <time>2021-05-14T13:54:12Z</time>
      </trkpt>
      <trkpt lat="43.60346" lon="3.70387">
        <ele>184</ele>
        <time>2021-05-14T13:54:13Z</time>
      </trkpt>
      <trkpt lat="43.60344" lon="3.70386">
        <ele>184</ele>
        <time>2021-05-14T13:54:14Z</time>
      </trkpt>
      <trkpt lat="43.60342" lon="3.70384">
        <ele>184</ele>
        <time>2021-05-14T13:54:15Z</time>
      </trkpt>
      <trkpt lat="43.6034" lon="3.70383">
        <ele>184</ele>
        <time>2021-05-14T13:54:16Z</time>
      </trkpt>
      <trkpt lat="43.60338" lon="3.70382">
        <ele>186</ele>
        <time>2021-05-14T13:54:17Z</time>
      </trkpt>
      <trkpt lat="43.60337" lon="3.70381">
        <ele>186</ele>
        <time>2021-05-14T13:54:18Z</time>
      </trkpt>
      <trkpt lat="43.60334" lon="3.70379">
        <ele>186</ele>
        <time>2021-05-14T13:54:20Z</time>
      </trkpt>
      <trkpt lat="43.60331" lon="3.70378">
        <ele>186</ele>
        <time>2021-05-14T13:54:22Z</time>
      </trkpt>
      <trkpt lat="43.60329" lon="3.70376">
        <ele>186</ele>
        <time>2021-05-14T13:54:23Z</time>
      </trkpt>
      <trkpt lat="43.60327" lon="3.70375">
        <ele>186</ele>
        <time>2021-05-14T13:54:26Z</time>
      </trkpt>
      <trkpt lat="43.60324" lon="3.70373">
        <ele>186</ele>
        <time>2021-05-14T13:54:28Z</time>
      </trkpt>
      <trkpt lat="43.60322" lon="3.70371">
        <ele>186</ele>
        <time>2021-05-14T13:54:30Z</time>
      </trkpt>
      <trkpt lat="43.6032" lon="3.70368">
        <ele>186</ele>
        <time>2021-05-14T13:54:32Z</time>
      </trkpt>
      <trkpt lat="43.60318" lon="3.70365">
        <ele>186</ele>
        <time>2021-05-14T13:54:33Z</time>
      </trkpt>
      <trkpt lat="43.60316" lon="3.70362">
        <ele>186</ele>
        <time>2021-05-14T13:54:35Z</time>
      </trkpt>
      <trkpt lat="43.60314" lon="3.7036">
        <ele>186</ele>
        <time>2021-05-14T13:54:37Z</time>
      </trkpt>
      <trkpt lat="43.60311" lon="3.70358">
        <ele>186</ele>
        <time>2021-05-14T13:54:39Z</time>
      </trkpt>
      <trkpt lat="43.60308" lon="3.70357">
        <ele>186</ele>
        <time>2021-05-14T13:54:41Z</time>
      </trkpt>
      <trkpt lat="43.60306" lon="3.70357">
        <ele>186</ele>
        <time>2021-05-14T13:54:43Z</time>
      </trkpt>
      <trkpt lat="43.60303" lon="3.70355">
        <ele>186</ele>
        <time>2021-05-14T13:54:45Z</time>
      </trkpt>
      <trkpt lat="43.60301" lon="3.70354">
        <ele>187</ele>
        <time>2021-05-14T13:54:47Z</time>
      </trkpt>
      <trkpt lat="43.60298" lon="3.70355">
        <ele>187</ele>
        <time>2021-05-14T13:54:49Z</time>
      </trkpt>
      <trkpt lat="43.60295" lon="3.70354">
        <ele>187</ele>
        <time>2021-05-14T13:54:51Z</time>
      </trkpt>
      <trkpt lat="43.60292" lon="3.70354">
        <ele>187</ele>
        <time>2021-05-14T13:54:53Z</time>
      </trkpt>
      <trkpt lat="43.60289" lon="3.70353">
        <ele>187</ele>
        <time>2021-05-14T13:54:55Z</time>
      </trkpt>
      <trkpt lat="43.60286" lon="3.70352">
        <ele>188</ele>
        <time>2021-05-14T13:54:57Z</time>
      </trkpt>
      <trkpt lat="43.60283" lon="3.70351">
        <ele>188</ele>
        <time>2021-05-14T13:54:59Z</time>
      </trkpt>
      <trkpt lat="43.6028" lon="3.7035">
        <ele>188</ele>
        <time>2021-05-14T13:55:01Z</time>
      </trkpt>
      <trkpt lat="43.60278" lon="3.70349">
        <ele>188</ele>
        <time>2021-05-14T13:55:04Z</time>
      </trkpt>
      <trkpt lat="43.60275" lon="3.70349">
        <ele>188</ele>
        <time>2021-05-14T13:55:05Z</time>
      </trkpt>
      <trkpt lat="43.60273" lon="3.70349">
        <ele>189</ele>
        <time>2021-05-14T13:55:07Z</time>
      </trkpt>
      <trkpt lat="43.6027" lon="3.70348">
        <ele>189</ele>
        <time>2021-05-14T13:55:10Z</time>
      </trkpt>
      <trkpt lat="43.60267" lon="3.70347">
        <ele>189</ele>
        <time>2021-05-14T13:55:12Z</time>
      </trkpt>
      <trkpt lat="43.60264" lon="3.70346">
        <ele>189</ele>
        <time>2021-05-14T13:55:14Z</time>
      </trkpt>
      <trkpt lat="43.60261" lon="3.70345">
        <ele>189</ele>
        <time>2021-05-14T13:55:16Z</time>
      </trkpt>
      <trkpt lat="43.60259" lon="3.70344">
        <ele>189</ele>
        <time>2021-05-14T13:55:19Z</time>
      </trkpt>
      <trkpt lat="43.60256" lon="3.70343">
        <ele>189</ele>
        <time>2021-05-14T13:55:20Z</time>
      </trkpt>
      <trkpt lat="43.60253" lon="3.70342">
        <ele>189</ele>
        <time>2021-05-14T13:55:22Z</time>
      </trkpt>
      <trkpt lat="43.60251" lon="3.7034">
        <ele>189</ele>
        <time>2021-05-14T13:55:25Z</time>
      </trkpt>
      <trkpt lat="43.60248" lon="3.70338">
        <ele>189</ele>
        <time>2021-05-14T13:55:26Z</time>
      </trkpt>
      <trkpt lat="43.60245" lon="3.70337">
        <ele>189</ele>
        <time>2021-05-14T13:55:28Z</time>
      </trkpt>
      <trkpt lat="43.60242" lon="3.70335">
        <ele>189</ele>
        <time>2021-05-14T13:55:30Z</time>
      </trkpt>
      <trkpt lat="43.60239" lon="3.70332">
        <ele>189</ele>
        <time>2021-05-14T13:55:32Z</time>
      </trkpt>
      <trkpt lat="43.60237" lon="3.7033">
        <ele>189</ele>
        <time>2021-05-14T13:55:34Z</time>
      </trkpt>
      <trkpt lat="43.60234" lon="3.70328">
        <ele>189</ele>
        <time>2021-05-14T13:55:36Z</time>
      </trkpt>
      <trkpt lat="43.60232" lon="3.70325">
        <ele>189</ele>
        <time>2021-05-14T13:55:38Z</time>
      </trkpt>
      <trkpt lat="43.60229" lon="3.70323">
        <ele>189</ele>
        <time>2021-05-14T13:55:40Z</time>
      </trkpt>
      <trkpt lat="43.60227" lon="3.7032">
        <ele>189</ele>
        <time>2021-05-14T13:55:42Z</time>
      </trkpt>
      <trkpt lat="43.60225" lon="3.70318">
        <ele>189</ele>
        <time>2021-05-14T13:55:44Z</time>
      </trkpt>
      <trkpt lat="43.60223" lon="3.70316">
        <ele>189</ele>
        <time>2021-05-14T13:55:46Z</time>
      </trkpt>
      <trkpt lat="43.60221" lon="3.70315">
        <ele>189</ele>
        <time>2021-05-14T13:55:48Z</time>
      </trkpt>
      <trkpt lat="43.60218" lon="3.70313">
        <ele>189</ele>
        <time>2021-05-14T13:55:50Z</time>
      </trkpt>
      <trkpt lat="43.60215" lon="3.70311">
        <ele>189</ele>
        <time>2021-05-14T13:55:52Z</time>
      </trkpt>
      <trkpt lat="43.60212" lon="3.70309">
        <ele>189</ele>
        <time>2021-05-14T13:55:54Z</time>
      </trkpt>
      <trkpt lat="43.6021" lon="3.70308">
        <ele>189</ele>
        <time>2021-05-14T13:55:55Z</time>
      </trkpt>
      <trkpt lat="43.60207" lon="3.70306">
        <ele>195</ele>
        <time>2021-05-14T13:55:57Z</time>
      </trkpt>
      <trkpt lat="43.60204" lon="3.70303">
        <ele>195</ele>
        <time>2021-05-14T13:56:00Z</time>
      </trkpt>
      <trkpt lat="43.60203" lon="3.70301">
        <ele>195</ele>
        <time>2021-05-14T13:56:01Z</time>
      </trkpt>
      <trkpt lat="43.60202" lon="3.70299">
        <ele>195</ele>
        <time>2021-05-14T13:56:02Z</time>
      </trkpt>
      <trkpt lat="43.602" lon="3.70297">
        <ele>195</ele>
        <time>2021-05-14T13:56:03Z</time>
      </trkpt>
      <trkpt lat="43.60199" lon="3.70295">
        <ele>195</ele>
        <time>2021-05-14T13:56:04Z</time>
      </trkpt>
      <trkpt lat="43.60197" lon="3.70293">
        <ele>195</ele>
        <time>2021-05-14T13:56:05Z</time>
      </trkpt>
      <trkpt lat="43.60195" lon="3.70291">
        <ele>195</ele>
        <time>2021-05-14T13:56:06Z</time>
      </trkpt>
      <trkpt lat="43.60193" lon="3.70289">
        <ele>196</ele>
        <time>2021-05-14T13:56:07Z</time>
      </trkpt>
      <trkpt lat="43.60191" lon="3.70288">
        <ele>196</ele>
        <time>2021-05-14T13:56:08Z</time>
      </trkpt>
      <trkpt lat="43.60189" lon="3.70283">
        <ele>196</ele>
        <time>2021-05-14T13:56:10Z</time>
      </trkpt>
      <trkpt lat="43.60187" lon="3.7028">
        <ele>196</ele>
        <time>2021-05-14T13:56:12Z</time>
      </trkpt>
      <trkpt lat="43.60186" lon="3.70278">
        <ele>196</ele>
        <time>2021-05-14T13:56:13Z</time>
      </trkpt>
      <trkpt lat="43.60185" lon="3.70275">
        <ele>196</ele>
        <time>2021-05-14T13:56:14Z</time>
      </trkpt>
      <trkpt lat="43.60183" lon="3.70272">
        <ele>196</ele>
        <time>2021-05-14T13:56:16Z</time>
      </trkpt>
      <trkpt lat="43.60181" lon="3.7027">
        <ele>197</ele>
        <time>2021-05-14T13:56:17Z</time>
      </trkpt>
      <trkpt lat="43.60179" lon="3.70267">
        <ele>197</ele>
        <time>2021-05-14T13:56:18Z</time>
      </trkpt>
      <trkpt lat="43.60176" lon="3.70264">
        <ele>197</ele>
        <time>2021-05-14T13:56:19Z</time>
      </trkpt>
      <trkpt lat="43.60174" lon="3.70261">
        <ele>197</ele>
        <time>2021-05-14T13:56:20Z</time>
      </trkpt>
      <trkpt lat="43.60173" lon="3.70259">
        <ele>197</ele>
        <time>2021-05-14T13:56:21Z</time>
      </trkpt>
      <trkpt lat="43.60171" lon="3.70256">
        <ele>197</ele>
        <time>2021-05-14T13:56:22Z</time>
      </trkpt>
      <trkpt lat="43.6017" lon="3.70253">
        <ele>197</ele>
        <time>2021-05-14T13:56:23Z</time>
      </trkpt>
      <trkpt lat="43.60168" lon="3.70249">
        <ele>197</ele>
        <time>2021-05-14T13:56:24Z</time>
      </trkpt>
      <trkpt lat="43.60166" lon="3.70244">
        <ele>197</ele>
        <time>2021-05-14T13:56:25Z</time>
      </trkpt>
      <trkpt lat="43.60165" lon="3.70241">
        <ele>197</ele>
        <time>2021-05-14T13:56:26Z</time>
      </trkpt>
      <trkpt lat="43.60162" lon="3.70237">
        <ele>196</ele>
        <time>2021-05-14T13:56:27Z</time>
      </trkpt>
      <trkpt lat="43.60161" lon="3.70234">
        <ele>196</ele>
        <time>2021-05-14T13:56:28Z</time>
      </trkpt>
      <trkpt lat="43.6016" lon="3.7023">
        <ele>196</ele>
        <time>2021-05-14T13:56:29Z</time>
      </trkpt>
      <trkpt lat="43.6016" lon="3.70227">
        <ele>196</ele>
        <time>2021-05-14T13:56:30Z</time>
      </trkpt>
      <trkpt lat="43.6016" lon="3.70223">
        <ele>196</ele>
        <time>2021-05-14T13:56:31Z</time>
      </trkpt>
      <trkpt lat="43.60159" lon="3.7022">
        <ele>196</ele>
        <time>2021-05-14T13:56:32Z</time>
      </trkpt>
      <trkpt lat="43.60157" lon="3.70217">
        <ele>196</ele>
        <time>2021-05-14T13:56:33Z</time>
      </trkpt>
      <trkpt lat="43.60154" lon="3.70213">
        <ele>196</ele>
        <time>2021-05-14T13:56:34Z</time>
      </trkpt>
      <trkpt lat="43.60152" lon="3.7021">
        <ele>196</ele>
        <time>2021-05-14T13:56:35Z</time>
      </trkpt>
      <trkpt lat="43.6015" lon="3.70207">
        <ele>196</ele>
        <time>2021-05-14T13:56:36Z</time>
      </trkpt>
      <trkpt lat="43.60148" lon="3.70205">
        <ele>197</ele>
        <time>2021-05-14T13:56:37Z</time>
      </trkpt>
      <trkpt lat="43.60147" lon="3.70203">
        <ele>197</ele>
        <time>2021-05-14T13:56:38Z</time>
      </trkpt>
      <trkpt lat="43.60147" lon="3.702">
        <ele>197</ele>
        <time>2021-05-14T13:56:39Z</time>
      </trkpt>
      <trkpt lat="43.60145" lon="3.70195">
        <ele>197</ele>
        <time>2021-05-14T13:56:41Z</time>
      </trkpt>
      <trkpt lat="43.60144" lon="3.70192">
        <ele>197</ele>
        <time>2021-05-14T13:56:42Z</time>
      </trkpt>
      <trkpt lat="43.60143" lon="3.70188">
        <ele>197</ele>
        <time>2021-05-14T13:56:43Z</time>
      </trkpt>
      <trkpt lat="43.60142" lon="3.70185">
        <ele>197</ele>
        <time>2021-05-14T13:56:44Z</time>
      </trkpt>
      <trkpt lat="43.6014" lon="3.70182">
        <ele>197</ele>
        <time>2021-05-14T13:56:45Z</time>
      </trkpt>
      <trkpt lat="43.60139" lon="3.7018">
        <ele>197</ele>
        <time>2021-05-14T13:56:46Z</time>
      </trkpt>
      <trkpt lat="43.60137" lon="3.70177">
        <ele>197</ele>
        <time>2021-05-14T13:56:47Z</time>
      </trkpt>
      <trkpt lat="43.60136" lon="3.70174">
        <ele>197</ele>
        <time>2021-05-14T13:56:48Z</time>
      </trkpt>
      <trkpt lat="43.60133" lon="3.70166">
        <ele>197</ele>
        <time>2021-05-14T13:56:49Z</time>
      </trkpt>
      <trkpt lat="43.60131" lon="3.70162">
        <ele>197</ele>
        <time>2021-05-14T13:56:50Z</time>
      </trkpt>
      <trkpt lat="43.6013" lon="3.70158">
        <ele>197</ele>
        <time>2021-05-14T13:56:51Z</time>
      </trkpt>
      <trkpt lat="43.60128" lon="3.70154">
        <ele>197</ele>
        <time>2021-05-14T13:56:52Z</time>
      </trkpt>
      <trkpt lat="43.60126" lon="3.70151">
        <ele>197</ele>
        <time>2021-05-14T13:56:53Z</time>
      </trkpt>
      <trkpt lat="43.60125" lon="3.70148">
        <ele>197</ele>
        <time>2021-05-14T13:56:54Z</time>
      </trkpt>
      <trkpt lat="43.60124" lon="3.70145">
        <ele>197</ele>
        <time>2021-05-14T13:56:55Z</time>
      </trkpt>
      <trkpt lat="43.60123" lon="3.7014">
        <ele>197</ele>
        <time>2021-05-14T13:56:57Z</time>
      </trkpt>
      <trkpt lat="43.60122" lon="3.70137">
        <ele>197</ele>
        <time>2021-05-14T13:56:58Z</time>
      </trkpt>
      <trkpt lat="43.60123" lon="3.70133">
        <ele>197</ele>
        <time>2021-05-14T13:56:59Z</time>
      </trkpt>
      <trkpt lat="43.60123" lon="3.70131">
        <ele>197</ele>
        <time>2021-05-14T13:57:00Z</time>
      </trkpt>
      <trkpt lat="43.60123" lon="3.70127">
        <ele>197</ele>
        <time>2021-05-14T13:57:02Z</time>
      </trkpt>
      <trkpt lat="43.60125" lon="3.70124">
        <ele>197</ele>
        <time>2021-05-14T13:57:04Z</time>
      </trkpt>
      <trkpt lat="43.60127" lon="3.70122">
        <ele>197</ele>
        <time>2021-05-14T13:57:06Z</time>
      </trkpt>
      <trkpt lat="43.6013" lon="3.70122">
        <ele>197</ele>
        <time>2021-05-14T13:57:08Z</time>
      </trkpt>
      <trkpt lat="43.60133" lon="3.70123">
        <ele>197</ele>
        <time>2021-05-14T13:57:10Z</time>
      </trkpt>
      <trkpt lat="43.60135" lon="3.70123">
        <ele>197</ele>
        <time>2021-05-14T13:57:11Z</time>
      </trkpt>
      <trkpt lat="43.60138" lon="3.70123">
        <ele>197</ele>
        <time>2021-05-14T13:57:13Z</time>
      </trkpt>
      <trkpt lat="43.60141" lon="3.70122">
        <ele>197</ele>
        <time>2021-05-14T13:57:15Z</time>
      </trkpt>
      <trkpt lat="43.60143" lon="3.70121">
        <ele>197</ele>
        <time>2021-05-14T13:57:16Z</time>
      </trkpt>
      <trkpt lat="43.60144" lon="3.7012">
        <ele>197</ele>
        <time>2021-05-14T13:57:19Z</time>
      </trkpt>
      <trkpt lat="43.60144" lon="3.70118">
        <ele>193</ele>
        <time>2021-05-14T13:57:25Z</time>
      </trkpt>
      <trkpt lat="43.60149" lon="3.70114">
        <ele>193</ele>
        <time>2021-05-14T13:57:48Z</time>
      </trkpt>
      <trkpt lat="43.60152" lon="3.70115">
        <ele>193</ele>
        <time>2021-05-14T13:57:50Z</time>
      </trkpt>
      <trkpt lat="43.60154" lon="3.70115">
        <ele>193</ele>
        <time>2021-05-14T13:57:52Z</time>
      </trkpt>
      <trkpt lat="43.60156" lon="3.70115">
        <ele>193</ele>
        <time>2021-05-14T13:57:53Z</time>
      </trkpt>
      <trkpt lat="43.60158" lon="3.70112">
        <ele>193</ele>
        <time>2021-05-14T13:57:55Z</time>
      </trkpt>
      <trkpt lat="43.60159" lon="3.70109">
        <ele>193</ele>
        <time>2021-05-14T13:57:56Z</time>
      </trkpt>
      <trkpt lat="43.60161" lon="3.70099">
        <ele>193</ele>
        <time>2021-05-14T13:57:57Z</time>
      </trkpt>
      <trkpt lat="43.60163" lon="3.70094">
        <ele>192</ele>
        <time>2021-05-14T13:57:58Z</time>
      </trkpt>
      <trkpt lat="43.60167" lon="3.70089">
        <ele>192</ele>
        <time>2021-05-14T13:57:59Z</time>
      </trkpt>
      <trkpt lat="43.60172" lon="3.70079">
        <ele>192</ele>
        <time>2021-05-14T13:58:01Z</time>
      </trkpt>
      <trkpt lat="43.60173" lon="3.70075">
        <ele>192</ele>
        <time>2021-05-14T13:58:02Z</time>
      </trkpt>
      <trkpt lat="43.60175" lon="3.70071">
        <ele>192</ele>
        <time>2021-05-14T13:58:03Z</time>
      </trkpt>
      <trkpt lat="43.60177" lon="3.70066">
        <ele>192</ele>
        <time>2021-05-14T13:58:04Z</time>
      </trkpt>
      <trkpt lat="43.60182" lon="3.70055">
        <ele>192</ele>
        <time>2021-05-14T13:58:06Z</time>
      </trkpt>
      <trkpt lat="43.6019" lon="3.70042">
        <ele>190</ele>
        <time>2021-05-14T13:58:08Z</time>
      </trkpt>
      <trkpt lat="43.60198" lon="3.70029">
        <ele>190</ele>
        <time>2021-05-14T13:58:10Z</time>
      </trkpt>
      <trkpt lat="43.60206" lon="3.7002">
        <ele>190</ele>
        <time>2021-05-14T13:58:12Z</time>
      </trkpt>
      <trkpt lat="43.60214" lon="3.70009">
        <ele>190</ele>
        <time>2021-05-14T13:58:14Z</time>
      </trkpt>
      <trkpt lat="43.6022" lon="3.69999">
        <ele>190</ele>
        <time>2021-05-14T13:58:16Z</time>
      </trkpt>
      <trkpt lat="43.60223" lon="3.6999">
        <ele>187</ele>
        <time>2021-05-14T13:58:18Z</time>
      </trkpt>
      <trkpt lat="43.60224" lon="3.69985">
        <ele>187</ele>
        <time>2021-05-14T13:58:19Z</time>
      </trkpt>
      <trkpt lat="43.60229" lon="3.69976">
        <ele>187</ele>
        <time>2021-05-14T13:58:21Z</time>
      </trkpt>
      <trkpt lat="43.6023" lon="3.69973">
        <ele>187</ele>
        <time>2021-05-14T13:58:22Z</time>
      </trkpt>
      <trkpt lat="43.6023" lon="3.69969">
        <ele>187</ele>
        <time>2021-05-14T13:58:24Z</time>
      </trkpt>
      <trkpt lat="43.60229" lon="3.69968">
        <ele>187</ele>
        <time>2021-05-14T13:58:25Z</time>
      </trkpt>
      <trkpt lat="43.60227" lon="3.69966">
        <ele>187</ele>
        <time>2021-05-14T13:58:26Z</time>
      </trkpt>
      <trkpt lat="43.60228" lon="3.69957">
        <ele>183</ele>
        <time>2021-05-14T13:58:28Z</time>
      </trkpt>
      <trkpt lat="43.60233" lon="3.69947">
        <ele>183</ele>
        <time>2021-05-14T13:58:30Z</time>
      </trkpt>
      <trkpt lat="43.60237" lon="3.69943">
        <ele>183</ele>
        <time>2021-05-14T13:58:31Z</time>
      </trkpt>
      <trkpt lat="43.60239" lon="3.69938">
        <ele>183</ele>
        <time>2021-05-14T13:58:32Z</time>
      </trkpt>
      <trkpt lat="43.60238" lon="3.69933">
        <ele>183</ele>
        <time>2021-05-14T13:58:33Z</time>
      </trkpt>
      <trkpt lat="43.60237" lon="3.69927">
        <ele>183</ele>
        <time>2021-05-14T13:58:34Z</time>
      </trkpt>
      <trkpt lat="43.60229" lon="3.69912">
        <ele>183</ele>
        <time>2021-05-14T13:58:37Z</time>
      </trkpt>
      <trkpt lat="43.60224" lon="3.69902">
        <ele>183</ele>
        <time>2021-05-14T13:58:39Z</time>
      </trkpt>
      <trkpt lat="43.6022" lon="3.69888">
        <ele>183</ele>
        <time>2021-05-14T13:58:41Z</time>
      </trkpt>
      <trkpt lat="43.60218" lon="3.69878">
        <ele>183</ele>
        <time>2021-05-14T13:58:43Z</time>
      </trkpt>
      <trkpt lat="43.60215" lon="3.69875">
        <ele>183</ele>
        <time>2021-05-14T13:58:44Z</time>
      </trkpt>
      <trkpt lat="43.60209" lon="3.69868">
        <ele>183</ele>
        <time>2021-05-14T13:58:46Z</time>
      </trkpt>
      <trkpt lat="43.60204" lon="3.69864">
        <ele>183</ele>
        <time>2021-05-14T13:58:47Z</time>
      </trkpt>
      <trkpt lat="43.60201" lon="3.69862">
        <ele>177</ele>
        <time>2021-05-14T13:58:48Z</time>
      </trkpt>
      <trkpt lat="43.60191" lon="3.6986">
        <ele>177</ele>
        <time>2021-05-14T13:58:51Z</time>
      </trkpt>
      <trkpt lat="43.60188" lon="3.6986">
        <ele>177</ele>
        <time>2021-05-14T13:58:52Z</time>
      </trkpt>
      <trkpt lat="43.60182" lon="3.69852">
        <ele>177</ele>
        <time>2021-05-14T13:58:55Z</time>
      </trkpt>
      <trkpt lat="43.60176" lon="3.69847">
        <ele>177</ele>
        <time>2021-05-14T13:58:57Z</time>
      </trkpt>
      <trkpt lat="43.60175" lon="3.69842">
        <ele>175</ele>
        <time>2021-05-14T13:58:58Z</time>
      </trkpt>
      <trkpt lat="43.60173" lon="3.69837">
        <ele>175</ele>
        <time>2021-05-14T13:58:59Z</time>
      </trkpt>
      <trkpt lat="43.60171" lon="3.69833">
        <ele>175</ele>
        <time>2021-05-14T13:59:00Z</time>
      </trkpt>
      <trkpt lat="43.60171" lon="3.69828">
        <ele>175</ele>
        <time>2021-05-14T13:59:01Z</time>
      </trkpt>
      <trkpt lat="43.60169" lon="3.69824">
        <ele>175</ele>
        <time>2021-05-14T13:59:05Z</time>
      </trkpt>
      <trkpt lat="43.60168" lon="3.69822">
        <ele>171</ele>
        <time>2021-05-14T13:59:08Z</time>
      </trkpt>
      <trkpt lat="43.60168" lon="3.69821">
        <ele>169</ele>
        <time>2021-05-14T13:59:13Z</time>
      </trkpt>
      <trkpt lat="43.60167" lon="3.69816">
        <ele>165</ele>
        <time>2021-05-14T13:59:51Z</time>
      </trkpt>
      <trkpt lat="43.60169" lon="3.69813">
        <ele>165</ele>
        <time>2021-05-14T13:59:52Z</time>
      </trkpt>
      <trkpt lat="43.60171" lon="3.69811">
        <ele>165</ele>
        <time>2021-05-14T13:59:54Z</time>
      </trkpt>
      <trkpt lat="43.60174" lon="3.69813">
        <ele>165</ele>
        <time>2021-05-14T13:59:55Z</time>
      </trkpt>
      <trkpt lat="43.60176" lon="3.69815">
        <ele>165</ele>
        <time>2021-05-14T13:59:58Z</time>
      </trkpt>
      <trkpt lat="43.60179" lon="3.69816">
        <ele>165</ele>
        <time>2021-05-14T14:00:00Z</time>
      </trkpt>
      <trkpt lat="43.60182" lon="3.69819">
        <ele>165</ele>
        <time>2021-05-14T14:00:01Z</time>
      </trkpt>
      <trkpt lat="43.60184" lon="3.69821">
        <ele>165</ele>
        <time>2021-05-14T14:00:03Z</time>
      </trkpt>
      <trkpt lat="43.60187" lon="3.69823">
        <ele>165</ele>
        <time>2021-05-14T14:00:05Z</time>
      </trkpt>
      <trkpt lat="43.60189" lon="3.69823">
        <ele>165</ele>
        <time>2021-05-14T14:00:07Z</time>
      </trkpt>
      <trkpt lat="43.6019" lon="3.69821">
        <ele>165</ele>
        <time>2021-05-14T14:00:10Z</time>
      </trkpt>
      <trkpt lat="43.60196" lon="3.69824">
        <ele>163</ele>
        <time>2021-05-14T14:00:54Z</time>
      </trkpt>
      <trkpt lat="43.60199" lon="3.69827">
        <ele>163</ele>
        <time>2021-05-14T14:00:56Z</time>
      </trkpt>
      <trkpt lat="43.60202" lon="3.69828">
        <ele>163</ele>
        <time>2021-05-14T14:00:58Z</time>
      </trkpt>
      <trkpt lat="43.60205" lon="3.69829">
        <ele>163</ele>
        <time>2021-05-14T14:01:00Z</time>
      </trkpt>
      <trkpt lat="43.60208" lon="3.6983">
        <ele>163</ele>
        <time>2021-05-14T14:01:01Z</time>
      </trkpt>
      <trkpt lat="43.60211" lon="3.69832">
        <ele>163</ele>
        <time>2021-05-14T14:01:03Z</time>
      </trkpt>
      <trkpt lat="43.60214" lon="3.69835">
        <ele>163</ele>
        <time>2021-05-14T14:01:05Z</time>
      </trkpt>
      <trkpt lat="43.60216" lon="3.69838">
        <ele>163</ele>
        <time>2021-05-14T14:01:07Z</time>
      </trkpt>
      <trkpt lat="43.60217" lon="3.6984">
        <ele>163</ele>
        <time>2021-05-14T14:01:08Z</time>
      </trkpt>
      <trkpt lat="43.60218" lon="3.69843">
        <ele>163</ele>
        <time>2021-05-14T14:01:09Z</time>
      </trkpt>
      <trkpt lat="43.60219" lon="3.69845">
        <ele>163</ele>
        <time>2021-05-14T14:01:10Z</time>
      </trkpt>
      <trkpt lat="43.60221" lon="3.69847">
        <ele>163</ele>
        <time>2021-05-14T14:01:11Z</time>
      </trkpt>
      <trkpt lat="43.60224" lon="3.69849">
        <ele>163</ele>
        <time>2021-05-14T14:01:13Z</time>
      </trkpt>
      <trkpt lat="43.60227" lon="3.6985">
        <ele>163</ele>
        <time>2021-05-14T14:01:15Z</time>
      </trkpt>
      <trkpt lat="43.6023" lon="3.69851">
        <ele>163</ele>
        <time>2021-05-14T14:01:17Z</time>
      </trkpt>
      <trkpt lat="43.60233" lon="3.69851">
        <ele>163</ele>
        <time>2021-05-14T14:01:19Z</time>
      </trkpt>
      <trkpt lat="43.60236" lon="3.69853">
        <ele>163</ele>
        <time>2021-05-14T14:01:21Z</time>
      </trkpt>
      <trkpt lat="43.60239" lon="3.69854">
        <ele>163</ele>
        <time>2021-05-14T14:01:23Z</time>
      </trkpt>
      <trkpt lat="43.6024" lon="3.69855">
        <ele>165</ele>
        <time>2021-05-14T14:01:29Z</time>
      </trkpt>
      <trkpt lat="43.60243" lon="3.69855">
        <ele>166</ele>
        <time>2021-05-14T14:01:42Z</time>
      </trkpt>
      <trkpt lat="43.60245" lon="3.69856">
        <ele>166</ele>
        <time>2021-05-14T14:01:45Z</time>
      </trkpt>
      <trkpt lat="43.60247" lon="3.69856">
        <ele>166</ele>
        <time>2021-05-14T14:01:49Z</time>
      </trkpt>
      <trkpt lat="43.60249" lon="3.69856">
        <ele>168</ele>
        <time>2021-05-14T14:01:52Z</time>
      </trkpt>
      <trkpt lat="43.60251" lon="3.69856">
        <ele>168</ele>
        <time>2021-05-14T14:01:56Z</time>
      </trkpt>
      <trkpt lat="43.60252" lon="3.69856">
        <ele>169</ele>
        <time>2021-05-14T14:02:01Z</time>
      </trkpt>
      <trkpt lat="43.60256" lon="3.69858">
        <ele>170</ele>
        <time>2021-05-14T14:02:22Z</time>
      </trkpt>
      <trkpt lat="43.60257" lon="3.69859">
        <ele>170</ele>
        <time>2021-05-14T14:02:23Z</time>
      </trkpt>
      <trkpt lat="43.60259" lon="3.6986">
        <ele>170</ele>
        <time>2021-05-14T14:02:24Z</time>
      </trkpt>
      <trkpt lat="43.60261" lon="3.69862">
        <ele>170</ele>
        <time>2021-05-14T14:02:26Z</time>
      </trkpt>
      <trkpt lat="43.60264" lon="3.69864">
        <ele>170</ele>
        <time>2021-05-14T14:02:29Z</time>
      </trkpt>
      <trkpt lat="43.60266" lon="3.69866">
        <ele>170</ele>
        <time>2021-05-14T14:02:30Z</time>
      </trkpt>
      <trkpt lat="43.60268" lon="3.69868">
        <ele>170</ele>
        <time>2021-05-14T14:02:32Z</time>
      </trkpt>
      <trkpt lat="43.6027" lon="3.69869">
        <ele>170</ele>
        <time>2021-05-14T14:02:34Z</time>
      </trkpt>
      <trkpt lat="43.60273" lon="3.69869">
        <ele>170</ele>
        <time>2021-05-14T14:02:36Z</time>
      </trkpt>
      <trkpt lat="43.60275" lon="3.69871">
        <ele>170</ele>
        <time>2021-05-14T14:02:38Z</time>
      </trkpt>
      <trkpt lat="43.60277" lon="3.69872">
        <ele>170</ele>
        <time>2021-05-14T14:02:40Z</time>
      </trkpt>
      <trkpt lat="43.60279" lon="3.69873">
        <ele>172</ele>
        <time>2021-05-14T14:02:42Z</time>
      </trkpt>
      <trkpt lat="43.60282" lon="3.69874">
        <ele>172</ele>
        <time>2021-05-14T14:02:44Z</time>
      </trkpt>
      <trkpt lat="43.60284" lon="3.69875">
        <ele>172</ele>
        <time>2021-05-14T14:02:46Z</time>
      </trkpt>
      <trkpt lat="43.60286" lon="3.69876">
        <ele>172</ele>
        <time>2021-05-14T14:02:48Z</time>
      </trkpt>
      <trkpt lat="43.60289" lon="3.69876">
        <ele>172</ele>
        <time>2021-05-14T14:02:50Z</time>
      </trkpt>
      <trkpt lat="43.60291" lon="3.69875">
        <ele>172</ele>
        <time>2021-05-14T14:02:53Z</time>
      </trkpt>
      <trkpt lat="43.60293" lon="3.69874">
        <ele>172</ele>
        <time>2021-05-14T14:02:55Z</time>
      </trkpt>
      <trkpt lat="43.60296" lon="3.69873">
        <ele>172</ele>
        <time>2021-05-14T14:02:57Z</time>
      </trkpt>
      <trkpt lat="43.60297" lon="3.69871">
        <ele>172</ele>
        <time>2021-05-14T14:02:59Z</time>
      </trkpt>
      <trkpt lat="43.60299" lon="3.69868">
        <ele>172</ele>
        <time>2021-05-14T14:03:00Z</time>
      </trkpt>
      <trkpt lat="43.603" lon="3.69865">
        <ele>175</ele>
        <time>2021-05-14T14:03:02Z</time>
      </trkpt>
      <trkpt lat="43.60302" lon="3.69862">
        <ele>175</ele>
        <time>2021-05-14T14:03:04Z</time>
      </trkpt>
      <trkpt lat="43.60304" lon="3.6986">
        <ele>175</ele>
        <time>2021-05-14T14:03:06Z</time>
      </trkpt>
      <trkpt lat="43.60307" lon="3.69859">
        <ele>175</ele>
        <time>2021-05-14T14:03:08Z</time>
      </trkpt>
      <trkpt lat="43.60309" lon="3.69858">
        <ele>175</ele>
        <time>2021-05-14T14:03:10Z</time>
      </trkpt>
      <trkpt lat="43.60311" lon="3.69857">
        <ele>177</ele>
        <time>2021-05-14T14:03:12Z</time>
      </trkpt>
      <trkpt lat="43.60312" lon="3.69854">
        <ele>177</ele>
        <time>2021-05-14T14:03:14Z</time>
      </trkpt>
      <trkpt lat="43.60314" lon="3.69851">
        <ele>177</ele>
        <time>2021-05-14T14:03:16Z</time>
      </trkpt>
      <trkpt lat="43.60316" lon="3.69849">
        <ele>177</ele>
        <time>2021-05-14T14:03:18Z</time>
      </trkpt>
      <trkpt lat="43.60318" lon="3.69848">
        <ele>177</ele>
        <time>2021-05-14T14:03:20Z</time>
      </trkpt>
      <trkpt lat="43.6032" lon="3.6985">
        <ele>178</ele>
        <time>2021-05-14T14:03:22Z</time>
      </trkpt>
      <trkpt lat="43.60321" lon="3.69853">
        <ele>178</ele>
        <time>2021-05-14T14:03:24Z</time>
      </trkpt>
      <trkpt lat="43.60321" lon="3.69857">
        <ele>178</ele>
        <time>2021-05-14T14:03:26Z</time>
      </trkpt>
      <trkpt lat="43.60322" lon="3.69862">
        <ele>178</ele>
        <time>2021-05-14T14:03:28Z</time>
      </trkpt>
      <trkpt lat="43.60323" lon="3.69865">
        <ele>178</ele>
        <time>2021-05-14T14:03:30Z</time>
      </trkpt>
      <trkpt lat="43.60323" lon="3.69868">
        <ele>179</ele>
        <time>2021-05-14T14:03:32Z</time>
      </trkpt>
      <trkpt lat="43.60324" lon="3.69872">
        <ele>179</ele>
        <time>2021-05-14T14:03:34Z</time>
      </trkpt>
      <trkpt lat="43.60325" lon="3.69874">
        <ele>179</ele>
        <time>2021-05-14T14:03:35Z</time>
      </trkpt>
      <trkpt lat="43.60326" lon="3.69877">
        <ele>179</ele>
        <time>2021-05-14T14:03:36Z</time>
      </trkpt>
      <trkpt lat="43.60327" lon="3.69879">
        <ele>179</ele>
        <time>2021-05-14T14:03:37Z</time>
      </trkpt>
      <trkpt lat="43.60328" lon="3.69883">
        <ele>179</ele>
        <time>2021-05-14T14:03:40Z</time>
      </trkpt>
      <trkpt lat="43.6033" lon="3.69888">
        <ele>179</ele>
        <time>2021-05-14T14:03:42Z</time>
      </trkpt>
      <trkpt lat="43.6033" lon="3.6989">
        <ele>179</ele>
        <time>2021-05-14T14:03:43Z</time>
      </trkpt>
      <trkpt lat="43.60331" lon="3.69893">
        <ele>179</ele>
        <time>2021-05-14T14:03:44Z</time>
      </trkpt>
      <trkpt lat="43.60332" lon="3.69895">
        <ele>179</ele>
        <time>2021-05-14T14:03:45Z</time>
      </trkpt>
      <trkpt lat="43.60333" lon="3.69898">
        <ele>179</ele>
        <time>2021-05-14T14:03:46Z</time>
      </trkpt>
      <trkpt lat="43.60334" lon="3.69901">
        <ele>179</ele>
        <time>2021-05-14T14:03:47Z</time>
      </trkpt>
      <trkpt lat="43.60335" lon="3.69906">
        <ele>179</ele>
        <time>2021-05-14T14:03:48Z</time>
      </trkpt>
      <trkpt lat="43.60336" lon="3.69909">
        <ele>179</ele>
        <time>2021-05-14T14:03:49Z</time>
      </trkpt>
      <trkpt lat="43.60336" lon="3.69912">
        <ele>179</ele>
        <time>2021-05-14T14:03:50Z</time>
      </trkpt>
      <trkpt lat="43.60338" lon="3.69919">
        <ele>179</ele>
        <time>2021-05-14T14:03:52Z</time>
      </trkpt>
      <trkpt lat="43.60338" lon="3.69923">
        <ele>179</ele>
        <time>2021-05-14T14:03:53Z</time>
      </trkpt>
      <trkpt lat="43.60338" lon="3.69927">
        <ele>179</ele>
        <time>2021-05-14T14:03:54Z</time>
      </trkpt>
      <trkpt lat="43.60337" lon="3.69931">
        <ele>179</ele>
        <time>2021-05-14T14:03:55Z</time>
      </trkpt>
      <trkpt lat="43.60336" lon="3.69936">
        <ele>179</ele>
        <time>2021-05-14T14:03:56Z</time>
      </trkpt>
      <trkpt lat="43.60335" lon="3.6994">
        <ele>179</ele>
        <time>2021-05-14T14:03:57Z</time>
      </trkpt>
      <trkpt lat="43.60334" lon="3.69945">
        <ele>179</ele>
        <time>2021-05-14T14:03:58Z</time>
      </trkpt>
      <trkpt lat="43.60334" lon="3.69954">
        <ele>179</ele>
        <time>2021-05-14T14:04:00Z</time>
      </trkpt>
      <trkpt lat="43.60334" lon="3.6996">
        <ele>179</ele>
        <time>2021-05-14T14:04:01Z</time>
      </trkpt>
      <trkpt lat="43.60333" lon="3.69964">
        <ele>179</ele>
        <time>2021-05-14T14:04:03Z</time>
      </trkpt>
      <trkpt lat="43.60333" lon="3.69969">
        <ele>179</ele>
        <time>2021-05-14T14:04:04Z</time>
      </trkpt>
      <trkpt lat="43.60332" lon="3.69973">
        <ele>179</ele>
        <time>2021-05-14T14:04:05Z</time>
      </trkpt>
      <trkpt lat="43.60332" lon="3.69978">
        <ele>179</ele>
        <time>2021-05-14T14:04:06Z</time>
      </trkpt>
      <trkpt lat="43.60331" lon="3.69982">
        <ele>179</ele>
        <time>2021-05-14T14:04:07Z</time>
      </trkpt>
      <trkpt lat="43.60327" lon="3.6999">
        <ele>179</ele>
        <time>2021-05-14T14:04:08Z</time>
      </trkpt>
      <trkpt lat="43.60325" lon="3.69993">
        <ele>179</ele>
        <time>2021-05-14T14:04:10Z</time>
      </trkpt>
      <trkpt lat="43.60322" lon="3.69994">
        <ele>179</ele>
        <time>2021-05-14T14:04:11Z</time>
      </trkpt>
      <trkpt lat="43.60318" lon="3.69995">
        <ele>178</ele>
        <time>2021-05-14T14:04:12Z</time>
      </trkpt>
      <trkpt lat="43.60314" lon="3.69996">
        <ele>178</ele>
        <time>2021-05-14T14:04:13Z</time>
      </trkpt>
      <trkpt lat="43.6031" lon="3.69996">
        <ele>178</ele>
        <time>2021-05-14T14:04:14Z</time>
      </trkpt>
      <trkpt lat="43.60306" lon="3.69997">
        <ele>178</ele>
        <time>2021-05-14T14:04:15Z</time>
      </trkpt>
      <trkpt lat="43.60303" lon="3.69998">
        <ele>178</ele>
        <time>2021-05-14T14:04:16Z</time>
      </trkpt>
      <trkpt lat="43.60299" lon="3.70001">
        <ele>178</ele>
        <time>2021-05-14T14:04:17Z</time>
      </trkpt>
      <trkpt lat="43.60297" lon="3.70005">
        <ele>178</ele>
        <time>2021-05-14T14:04:18Z</time>
      </trkpt>
      <trkpt lat="43.60296" lon="3.7001">
        <ele>178</ele>
        <time>2021-05-14T14:04:19Z</time>
      </trkpt>
      <trkpt lat="43.60296" lon="3.70014">
        <ele>178</ele>
        <time>2021-05-14T14:04:20Z</time>
      </trkpt>
      <trkpt lat="43.60298" lon="3.70022">
        <ele>178</ele>
        <time>2021-05-14T14:04:21Z</time>
      </trkpt>
      <trkpt lat="43.60299" lon="3.70025">
        <ele>177</ele>
        <time>2021-05-14T14:04:22Z</time>
      </trkpt>
      <trkpt lat="43.603" lon="3.70029">
        <ele>177</ele>
        <time>2021-05-14T14:04:23Z</time>
      </trkpt>
      <trkpt lat="43.60302" lon="3.70031">
        <ele>177</ele>
        <time>2021-05-14T14:04:24Z</time>
      </trkpt>
      <trkpt lat="43.60304" lon="3.70034">
        <ele>177</ele>
        <time>2021-05-14T14:04:25Z</time>
      </trkpt>
      <trkpt lat="43.60305" lon="3.70037">
        <ele>177</ele>
        <time>2021-05-14T14:04:26Z</time>
      </trkpt>
      <trkpt lat="43.60307" lon="3.70039">
        <ele>177</ele>
        <time>2021-05-14T14:04:27Z</time>
      </trkpt>
      <trkpt lat="43.60309" lon="3.70041">
        <ele>177</ele>
        <time>2021-05-14T14:04:28Z</time>
      </trkpt>
      <trkpt lat="43.6031" lon="3.70044">
        <ele>177</ele>
        <time>2021-05-14T14:04:29Z</time>
      </trkpt>
      <trkpt lat="43.60311" lon="3.70046">
        <ele>177</ele>
        <time>2021-05-14T14:04:30Z</time>
      </trkpt>
      <trkpt lat="43.60313" lon="3.70049">
        <ele>177</ele>
        <time>2021-05-14T14:04:31Z</time>
      </trkpt>
      <trkpt lat="43.60314" lon="3.70051">
        <ele>174</ele>
        <time>2021-05-14T14:04:32Z</time>
      </trkpt>
      <trkpt lat="43.60316" lon="3.70054">
        <ele>174</ele>
        <time>2021-05-14T14:04:33Z</time>
      </trkpt>
      <trkpt lat="43.60317" lon="3.70056">
        <ele>174</ele>
        <time>2021-05-14T14:04:34Z</time>
      </trkpt>
      <trkpt lat="43.60318" lon="3.70058">
        <ele>174</ele>
        <time>2021-05-14T14:04:35Z</time>
      </trkpt>
      <trkpt lat="43.60319" lon="3.7006">
        <ele>174</ele>
        <time>2021-05-14T14:04:36Z</time>
      </trkpt>
      <trkpt lat="43.60321" lon="3.70065">
        <ele>174</ele>
        <time>2021-05-14T14:04:38Z</time>
      </trkpt>
      <trkpt lat="43.60323" lon="3.70069">
        <ele>174</ele>
        <time>2021-05-14T14:04:40Z</time>
      </trkpt>
      <trkpt lat="43.60324" lon="3.70071">
        <ele>172</ele>
        <time>2021-05-14T14:04:42Z</time>
      </trkpt>
      <trkpt lat="43.60326" lon="3.70075">
        <ele>172</ele>
        <time>2021-05-14T14:04:43Z</time>
      </trkpt>
      <trkpt lat="43.60327" lon="3.70079">
        <ele>172</ele>
        <time>2021-05-14T14:04:45Z</time>
      </trkpt>
      <trkpt lat="43.60329" lon="3.70083">
        <ele>172</ele>
        <time>2021-05-14T14:04:47Z</time>
      </trkpt>
      <trkpt lat="43.6033" lon="3.70086">
        <ele>172</ele>
        <time>2021-05-14T14:04:48Z</time>
      </trkpt>
      <trkpt lat="43.60331" lon="3.70088">
        <ele>172</ele>
        <time>2021-05-14T14:04:49Z</time>
      </trkpt>
      <trkpt lat="43.60332" lon="3.7009">
        <ele>172</ele>
        <time>2021-05-14T14:04:50Z</time>
      </trkpt>
      <trkpt lat="43.60333" lon="3.70093">
        <ele>172</ele>
        <time>2021-05-14T14:04:51Z</time>
      </trkpt>
      <trkpt lat="43.60334" lon="3.70095">
        <ele>172</ele>
        <time>2021-05-14T14:04:52Z</time>
      </trkpt>
      <trkpt lat="43.60335" lon="3.70097">
        <ele>172</ele>
        <time>2021-05-14T14:04:53Z</time>
      </trkpt>
      <trkpt lat="43.60335" lon="3.70099">
        <ele>172</ele>
        <time>2021-05-14T14:04:54Z</time>
      </trkpt>
      <trkpt lat="43.60336" lon="3.70102">
        <ele>172</ele>
        <time>2021-05-14T14:04:55Z</time>
      </trkpt>
      <trkpt lat="43.60337" lon="3.70106">
        <ele>172</ele>
        <time>2021-05-14T14:04:57Z</time>
      </trkpt>
      <trkpt lat="43.60338" lon="3.7011">
        <ele>172</ele>
        <time>2021-05-14T14:04:59Z</time>
      </trkpt>
      <trkpt lat="43.60339" lon="3.70114">
        <ele>172</ele>
        <time>2021-05-14T14:05:01Z</time>
      </trkpt>
      <trkpt lat="43.60339" lon="3.70118">
        <ele>172</ele>
        <time>2021-05-14T14:05:03Z</time>
      </trkpt>
      <trkpt lat="43.60339" lon="3.70121">
        <ele>172</ele>
        <time>2021-05-14T14:05:05Z</time>
      </trkpt>
      <trkpt lat="43.6034" lon="3.70124">
        <ele>172</ele>
        <time>2021-05-14T14:05:07Z</time>
      </trkpt>
      <trkpt lat="43.60341" lon="3.70128">
        <ele>172</ele>
        <time>2021-05-14T14:05:09Z</time>
      </trkpt>
      <trkpt lat="43.60341" lon="3.70132">
        <ele>172</ele>
        <time>2021-05-14T14:05:11Z</time>
      </trkpt>
      <trkpt lat="43.60341" lon="3.70135">
        <ele>172</ele>
        <time>2021-05-14T14:05:13Z</time>
      </trkpt>
      <trkpt lat="43.60342" lon="3.70139">
        <ele>172</ele>
        <time>2021-05-14T14:05:15Z</time>
      </trkpt>
      <trkpt lat="43.60342" lon="3.70143">
        <ele>172</ele>
        <time>2021-05-14T14:05:17Z</time>
      </trkpt>
      <trkpt lat="43.60342" lon="3.70148">
        <ele>172</ele>
        <time>2021-05-14T14:05:19Z</time>
      </trkpt>
      <trkpt lat="43.60342" lon="3.70152">
        <ele>172</ele>
        <time>2021-05-14T14:05:21Z</time>
      </trkpt>
      <trkpt lat="43.60342" lon="3.70156">
        <ele>172</ele>
        <time>2021-05-14T14:05:23Z</time>
      </trkpt>
      <trkpt lat="43.60343" lon="3.70161">
        <ele>172</ele>
        <time>2021-05-14T14:05:25Z</time>
      </trkpt>
      <trkpt lat="43.60343" lon="3.70165">
        <ele>172</ele>
        <time>2021-05-14T14:05:27Z</time>
      </trkpt>
      <trkpt lat="43.60343" lon="3.70169">
        <ele>172</ele>
        <time>2021-05-14T14:05:30Z</time>
      </trkpt>
      <trkpt lat="43.60343" lon="3.70173">
        <ele>176</ele>
        <time>2021-05-14T14:05:32Z</time>
      </trkpt>
      <trkpt lat="43.60343" lon="3.70178">
        <ele>176</ele>
        <time>2021-05-14T14:05:33Z</time>
      </trkpt>
      <trkpt lat="43.60343" lon="3.70182">
        <ele>176</ele>
        <time>2021-05-14T14:05:35Z</time>
      </trkpt>
      <trkpt lat="43.60343" lon="3.70187">
        <ele>176</ele>
        <time>2021-05-14T14:05:38Z</time>
      </trkpt>
      <trkpt lat="43.60344" lon="3.70192">
        <ele>176</ele>
        <time>2021-05-14T14:05:40Z</time>
      </trkpt>
      <trkpt lat="43.60343" lon="3.70196">
        <ele>176</ele>
        <time>2021-05-14T14:05:41Z</time>
      </trkpt>
      <trkpt lat="43.60344" lon="3.702">
        <ele>176</ele>
        <time>2021-05-14T14:05:43Z</time>
      </trkpt>
      <trkpt lat="43.60344" lon="3.70204">
        <ele>176</ele>
        <time>2021-05-14T14:05:46Z</time>
      </trkpt>
      <trkpt lat="43.60343" lon="3.70208">
        <ele>176</ele>
        <time>2021-05-14T14:05:48Z</time>
      </trkpt>
      <trkpt lat="43.60343" lon="3.70212">
        <ele>176</ele>
        <time>2021-05-14T14:05:50Z</time>
      </trkpt>
      <trkpt lat="43.60342" lon="3.70216">
        <ele>176</ele>
        <time>2021-05-14T14:05:51Z</time>
      </trkpt>
      <trkpt lat="43.60342" lon="3.7022">
        <ele>176</ele>
        <time>2021-05-14T14:05:53Z</time>
      </trkpt>
      <trkpt lat="43.60342" lon="3.70224">
        <ele>176</ele>
        <time>2021-05-14T14:05:55Z</time>
      </trkpt>
      <trkpt lat="43.60341" lon="3.70228">
        <ele>176</ele>
        <time>2021-05-14T14:05:57Z</time>
      </trkpt>
      <trkpt lat="43.60341" lon="3.70232">
        <ele>176</ele>
        <time>2021-05-14T14:05:59Z</time>
      </trkpt>
      <trkpt lat="43.6034" lon="3.70236">
        <ele>176</ele>
        <time>2021-05-14T14:06:01Z</time>
      </trkpt>
      <trkpt lat="43.6034" lon="3.7024">
        <ele>176</ele>
        <time>2021-05-14T14:06:03Z</time>
      </trkpt>
      <trkpt lat="43.6034" lon="3.70244">
        <ele>176</ele>
        <time>2021-05-14T14:06:05Z</time>
      </trkpt>
      <trkpt lat="43.60339" lon="3.70248">
        <ele>176</ele>
        <time>2021-05-14T14:06:07Z</time>
      </trkpt>
      <trkpt lat="43.60339" lon="3.70252">
        <ele>176</ele>
        <time>2021-05-14T14:06:09Z</time>
      </trkpt>
      <trkpt lat="43.60338" lon="3.70256">
        <ele>176</ele>
        <time>2021-05-14T14:06:11Z</time>
      </trkpt>
      <trkpt lat="43.60337" lon="3.7026">
        <ele>176</ele>
        <time>2021-05-14T14:06:13Z</time>
      </trkpt>
      <trkpt lat="43.60337" lon="3.70264">
        <ele>176</ele>
        <time>2021-05-14T14:06:15Z</time>
      </trkpt>
      <trkpt lat="43.60337" lon="3.70268">
        <ele>176</ele>
        <time>2021-05-14T14:06:17Z</time>
      </trkpt>
      <trkpt lat="43.60337" lon="3.70273">
        <ele>176</ele>
        <time>2021-05-14T14:06:19Z</time>
      </trkpt>
      <trkpt lat="43.60336" lon="3.70277">
        <ele>176</ele>
        <time>2021-05-14T14:06:21Z</time>
      </trkpt>
      <trkpt lat="43.60336" lon="3.70281">
        <ele>176</ele>
        <time>2021-05-14T14:06:23Z</time>
      </trkpt>
      <trkpt lat="43.60335" lon="3.70286">
        <ele>176</ele>
        <time>2021-05-14T14:06:26Z</time>
      </trkpt>
      <trkpt lat="43.60335" lon="3.7029">
        <ele>176</ele>
        <time>2021-05-14T14:06:28Z</time>
      </trkpt>
      <trkpt lat="43.60334" lon="3.70294">
        <ele>176</ele>
        <time>2021-05-14T14:06:29Z</time>
      </trkpt>
      <trkpt lat="43.60334" lon="3.70299">
        <ele>176</ele>
        <time>2021-05-14T14:06:31Z</time>
      </trkpt>
      <trkpt lat="43.60333" lon="3.70303">
        <ele>176</ele>
        <time>2021-05-14T14:06:33Z</time>
      </trkpt>
      <trkpt lat="43.60332" lon="3.70307">
        <ele>176</ele>
        <time>2021-05-14T14:06:36Z</time>
      </trkpt>
      <trkpt lat="43.60332" lon="3.70311">
        <ele>176</ele>
        <time>2021-05-14T14:06:37Z</time>
      </trkpt>
      <trkpt lat="43.60331" lon="3.70315">
        <ele>176</ele>
        <time>2021-05-14T14:06:39Z</time>
      </trkpt>
      <trkpt lat="43.6033" lon="3.70319">
        <ele>176</ele>
        <time>2021-05-14T14:06:41Z</time>
      </trkpt>
      <trkpt lat="43.6033" lon="3.70323">
        <ele>176</ele>
        <time>2021-05-14T14:06:43Z</time>
      </trkpt>
      <trkpt lat="43.60329" lon="3.70327">
        <ele>176</ele>
        <time>2021-05-14T14:06:45Z</time>
      </trkpt>
      <trkpt lat="43.60327" lon="3.7033">
        <ele>176</ele>
        <time>2021-05-14T14:06:47Z</time>
      </trkpt>
      <trkpt lat="43.60325" lon="3.70334">
        <ele>176</ele>
        <time>2021-05-14T14:06:49Z</time>
      </trkpt>
      <trkpt lat="43.60323" lon="3.70338">
        <ele>186</ele>
        <time>2021-05-14T14:06:52Z</time>
      </trkpt>
      <trkpt lat="43.60322" lon="3.70341">
        <ele>186</ele>
        <time>2021-05-14T14:06:54Z</time>
      </trkpt>
      <trkpt lat="43.60321" lon="3.70346">
        <ele>186</ele>
        <time>2021-05-14T14:06:56Z</time>
      </trkpt>
      <trkpt lat="43.6032" lon="3.70348">
        <ele>186</ele>
        <time>2021-05-14T14:06:57Z</time>
      </trkpt>
      <trkpt lat="43.6032" lon="3.70351">
        <ele>186</ele>
        <time>2021-05-14T14:06:58Z</time>
      </trkpt>
      <trkpt lat="43.60319" lon="3.70353">
        <ele>186</ele>
        <time>2021-05-14T14:06:59Z</time>
      </trkpt>
      <trkpt lat="43.60318" lon="3.70356">
        <ele>186</ele>
        <time>2021-05-14T14:07:00Z</time>
      </trkpt>
      <trkpt lat="43.60318" lon="3.70361">
        <ele>187</ele>
        <time>2021-05-14T14:07:02Z</time>
      </trkpt>
      <trkpt lat="43.60319" lon="3.70366">
        <ele>187</ele>
        <time>2021-05-14T14:07:04Z</time>
      </trkpt>
      <trkpt lat="43.6032" lon="3.70368">
        <ele>187</ele>
        <time>2021-05-14T14:07:05Z</time>
      </trkpt>
      <trkpt lat="43.60322" lon="3.70371">
        <ele>187</ele>
        <time>2021-05-14T14:07:06Z</time>
      </trkpt>
      <trkpt lat="43.60323" lon="3.70373">
        <ele>187</ele>
        <time>2021-05-14T14:07:07Z</time>
      </trkpt>
      <trkpt lat="43.60326" lon="3.70376">
        <ele>187</ele>
        <time>2021-05-14T14:07:08Z</time>
      </trkpt>
      <trkpt lat="43.60331" lon="3.7038">
        <ele>187</ele>
        <time>2021-05-14T14:07:09Z</time>
      </trkpt>
      <trkpt lat="43.60334" lon="3.70382">
        <ele>187</ele>
        <time>2021-05-14T14:07:10Z</time>
      </trkpt>
      <trkpt lat="43.60338" lon="3.70384">
        <ele>187</ele>
        <time>2021-05-14T14:07:11Z</time>
      </trkpt>
      <trkpt lat="43.60342" lon="3.70386">
        <ele>187</ele>
        <time>2021-05-14T14:07:12Z</time>
      </trkpt>
      <trkpt lat="43.60345" lon="3.70389">
        <ele>187</ele>
        <time>2021-05-14T14:07:13Z</time>
      </trkpt>
      <trkpt lat="43.60349" lon="3.70392">
        <ele>187</ele>
        <time>2021-05-14T14:07:14Z</time>
      </trkpt>
      <trkpt lat="43.60352" lon="3.70394">
        <ele>187</ele>
        <time>2021-05-14T14:07:15Z</time>
      </trkpt>
      <trkpt lat="43.60354" lon="3.70397">
        <ele>187</ele>
        <time>2021-05-14T14:07:16Z</time>
      </trkpt>
      <trkpt lat="43.60357" lon="3.70399">
        <ele>187</ele>
        <time>2021-05-14T14:07:17Z</time>
      </trkpt>
      <trkpt lat="43.60359" lon="3.70402">
        <ele>187</ele>
        <time>2021-05-14T14:07:18Z</time>
      </trkpt>
      <trkpt lat="43.60361" lon="3.70404">
        <ele>187</ele>
        <time>2021-05-14T14:07:19Z</time>
      </trkpt>
      <trkpt lat="43.60363" lon="3.70406">
        <ele>187</ele>
        <time>2021-05-14T14:07:20Z</time>
      </trkpt>
      <trkpt lat="43.60365" lon="3.70408">
        <ele>187</ele>
        <time>2021-05-14T14:07:21Z</time>
      </trkpt>
      <trkpt lat="43.60367" lon="3.70409">
        <ele>186</ele>
        <time>2021-05-14T14:07:22Z</time>
      </trkpt>
      <trkpt lat="43.60368" lon="3.70411">
        <ele>186</ele>
        <time>2021-05-14T14:07:23Z</time>
      </trkpt>
      <trkpt lat="43.60372" lon="3.70414">
        <ele>186</ele>
        <time>2021-05-14T14:07:25Z</time>
      </trkpt>
      <trkpt lat="43.60374" lon="3.70415">
        <ele>186</ele>
        <time>2021-05-14T14:07:26Z</time>
      </trkpt>
      <trkpt lat="43.60376" lon="3.70416">
        <ele>186</ele>
        <time>2021-05-14T14:07:27Z</time>
      </trkpt>
      <trkpt lat="43.60377" lon="3.70418">
        <ele>186</ele>
        <time>2021-05-14T14:07:28Z</time>
      </trkpt>
      <trkpt lat="43.60379" lon="3.70419">
        <ele>186</ele>
        <time>2021-05-14T14:07:29Z</time>
      </trkpt>
      <trkpt lat="43.60382" lon="3.70422">
        <ele>186</ele>
        <time>2021-05-14T14:07:31Z</time>
      </trkpt>
      <trkpt lat="43.60384" lon="3.70424">
        <ele>186</ele>
        <time>2021-05-14T14:07:33Z</time>
      </trkpt>
      <trkpt lat="43.60387" lon="3.70427">
        <ele>186</ele>
        <time>2021-05-14T14:07:35Z</time>
      </trkpt>
      <trkpt lat="43.6039" lon="3.70429">
        <ele>186</ele>
        <time>2021-05-14T14:07:37Z</time>
      </trkpt>
      <trkpt lat="43.60393" lon="3.70432">
        <ele>186</ele>
        <time>2021-05-14T14:07:39Z</time>
      </trkpt>
      <trkpt lat="43.60396" lon="3.70434">
        <ele>186</ele>
        <time>2021-05-14T14:07:41Z</time>
      </trkpt>
      <trkpt lat="43.60399" lon="3.70436">
        <ele>186</ele>
        <time>2021-05-14T14:07:43Z</time>
      </trkpt>
      <trkpt lat="43.60402" lon="3.70438">
        <ele>186</ele>
        <time>2021-05-14T14:07:45Z</time>
      </trkpt>
      <trkpt lat="43.60404" lon="3.70438">
        <ele>186</ele>
        <time>2021-05-14T14:07:46Z</time>
      </trkpt>
      <trkpt lat="43.60407" lon="3.70437">
        <ele>186</ele>
        <time>2021-05-14T14:07:48Z</time>
      </trkpt>
      <trkpt lat="43.60409" lon="3.70435">
        <ele>186</ele>
        <time>2021-05-14T14:07:51Z</time>
      </trkpt>
      <trkpt lat="43.60411" lon="3.70432">
        <ele>186</ele>
        <time>2021-05-14T14:07:53Z</time>
      </trkpt>
      <trkpt lat="43.60413" lon="3.7043">
        <ele>186</ele>
        <time>2021-05-14T14:07:55Z</time>
      </trkpt>
      <trkpt lat="43.60416" lon="3.70427">
        <ele>186</ele>
        <time>2021-05-14T14:07:56Z</time>
      </trkpt>
      <trkpt lat="43.60418" lon="3.70424">
        <ele>186</ele>
        <time>2021-05-14T14:07:59Z</time>
      </trkpt>
      <trkpt lat="43.6042" lon="3.7042">
        <ele>186</ele>
        <time>2021-05-14T14:08:00Z</time>
      </trkpt>
      <trkpt lat="43.60422" lon="3.70417">
        <ele>190</ele>
        <time>2021-05-14T14:08:02Z</time>
      </trkpt>
      <trkpt lat="43.60424" lon="3.70414">
        <ele>190</ele>
        <time>2021-05-14T14:08:05Z</time>
      </trkpt>
      <trkpt lat="43.60427" lon="3.70411">
        <ele>190</ele>
        <time>2021-05-14T14:08:06Z</time>
      </trkpt>
      <trkpt lat="43.60429" lon="3.70408">
        <ele>190</ele>
        <time>2021-05-14T14:08:08Z</time>
      </trkpt>
      <trkpt lat="43.60432" lon="3.70407">
        <ele>190</ele>
        <time>2021-05-14T14:08:11Z</time>
      </trkpt>
      <trkpt lat="43.60435" lon="3.70406">
        <ele>192</ele>
        <time>2021-05-14T14:08:12Z</time>
      </trkpt>
      <trkpt lat="43.60437" lon="3.70404">
        <ele>192</ele>
        <time>2021-05-14T14:08:14Z</time>
      </trkpt>
      <trkpt lat="43.60439" lon="3.70402">
        <ele>192</ele>
        <time>2021-05-14T14:08:16Z</time>
      </trkpt>
      <trkpt lat="43.60442" lon="3.704">
        <ele>192</ele>
        <time>2021-05-14T14:08:18Z</time>
      </trkpt>
      <trkpt lat="43.60444" lon="3.70399">
        <ele>192</ele>
        <time>2021-05-14T14:08:20Z</time>
      </trkpt>
      <trkpt lat="43.60446" lon="3.70397">
        <ele>194</ele>
        <time>2021-05-14T14:08:22Z</time>
      </trkpt>
      <trkpt lat="43.60448" lon="3.70395">
        <ele>194</ele>
        <time>2021-05-14T14:08:24Z</time>
      </trkpt>
      <trkpt lat="43.6045" lon="3.70394">
        <ele>194</ele>
        <time>2021-05-14T14:08:27Z</time>
      </trkpt>
      <trkpt lat="43.60452" lon="3.70392">
        <ele>194</ele>
        <time>2021-05-14T14:08:29Z</time>
      </trkpt>
      <trkpt lat="43.60454" lon="3.7039">
        <ele>194</ele>
        <time>2021-05-14T14:08:30Z</time>
      </trkpt>
      <trkpt lat="43.60456" lon="3.70389">
        <ele>196</ele>
        <time>2021-05-14T14:08:32Z</time>
      </trkpt>
      <trkpt lat="43.60457" lon="3.70387">
        <ele>196</ele>
        <time>2021-05-14T14:08:35Z</time>
      </trkpt>
      <trkpt lat="43.60458" lon="3.70384">
        <ele>196</ele>
        <time>2021-05-14T14:08:37Z</time>
      </trkpt>
      <trkpt lat="43.60459" lon="3.70381">
        <ele>196</ele>
        <time>2021-05-14T14:08:38Z</time>
      </trkpt>
      <trkpt lat="43.60459" lon="3.70378">
        <ele>196</ele>
        <time>2021-05-14T14:08:40Z</time>
      </trkpt>
      <trkpt lat="43.60458" lon="3.70374">
        <ele>198</ele>
        <time>2021-05-14T14:08:42Z</time>
      </trkpt>
      <trkpt lat="43.60456" lon="3.7037">
        <ele>198</ele>
        <time>2021-05-14T14:08:44Z</time>
      </trkpt>
      <trkpt lat="43.60455" lon="3.70366">
        <ele>198</ele>
        <time>2021-05-14T14:08:46Z</time>
      </trkpt>
      <trkpt lat="43.60454" lon="3.70362">
        <ele>198</ele>
        <time>2021-05-14T14:08:48Z</time>
      </trkpt>
      <trkpt lat="43.60454" lon="3.70358">
        <ele>198</ele>
        <time>2021-05-14T14:08:50Z</time>
      </trkpt>
      <trkpt lat="43.60454" lon="3.70354">
        <ele>199</ele>
        <time>2021-05-14T14:08:52Z</time>
      </trkpt>
      <trkpt lat="43.60454" lon="3.7035">
        <ele>199</ele>
        <time>2021-05-14T14:08:54Z</time>
      </trkpt>
      <trkpt lat="43.60455" lon="3.70346">
        <ele>199</ele>
        <time>2021-05-14T14:08:56Z</time>
      </trkpt>
      <trkpt lat="43.60455" lon="3.70346">
        <ele>200</ele>
        <time>2021-05-14T14:09:01Z</time>
      </trkpt>
      <trkpt lat="43.60458" lon="3.70343">
        <ele>200</ele>
        <time>2021-05-14T14:10:42Z</time>
      </trkpt>
      <trkpt lat="43.60459" lon="3.70342">
        <ele>200</ele>
        <time>2021-05-14T14:10:43Z</time>
      </trkpt>
      <trkpt lat="43.60462" lon="3.7034">
        <ele>200</ele>
        <time>2021-05-14T14:10:44Z</time>
      </trkpt>
      <trkpt lat="43.60464" lon="3.70338">
        <ele>200</ele>
        <time>2021-05-14T14:10:47Z</time>
      </trkpt>
      <trkpt lat="43.60471" lon="3.70337">
        <ele>201</ele>
        <time>2021-05-14T14:11:18Z</time>
      </trkpt>
      <trkpt lat="43.60473" lon="3.70338">
        <ele>201</ele>
        <time>2021-05-14T14:11:20Z</time>
      </trkpt>
      <trkpt lat="43.60474" lon="3.70338">
        <ele>201</ele>
        <time>2021-05-14T14:11:25Z</time>
      </trkpt>
      <trkpt lat="43.60479" lon="3.70342">
        <ele>201</ele>
        <time>2021-05-14T14:11:28Z</time>
      </trkpt>
      <trkpt lat="43.6048" lon="3.70343">
        <ele>201</ele>
        <time>2021-05-14T14:11:29Z</time>
      </trkpt>
      <trkpt lat="43.60484" lon="3.70345">
        <ele>201</ele>
        <time>2021-05-14T14:11:30Z</time>
      </trkpt>
      <trkpt lat="43.60486" lon="3.70347">
        <ele>201</ele>
        <time>2021-05-14T14:11:31Z</time>
      </trkpt>
      <trkpt lat="43.60489" lon="3.70349">
        <ele>201</ele>
        <time>2021-05-14T14:11:32Z</time>
      </trkpt>
      <trkpt lat="43.60492" lon="3.70352">
        <ele>201</ele>
        <time>2021-05-14T14:11:34Z</time>
      </trkpt>
      <trkpt lat="43.60494" lon="3.70356">
        <ele>201</ele>
        <time>2021-05-14T14:11:35Z</time>
      </trkpt>
      <trkpt lat="43.60496" lon="3.7036">
        <ele>201</ele>
        <time>2021-05-14T14:11:36Z</time>
      </trkpt>
      <trkpt lat="43.60501" lon="3.70369">
        <ele>201</ele>
        <time>2021-05-14T14:11:37Z</time>
      </trkpt>
      <trkpt lat="43.60504" lon="3.70373">
        <ele>200</ele>
        <time>2021-05-14T14:11:38Z</time>
      </trkpt>
      <trkpt lat="43.60507" lon="3.70378">
        <ele>200</ele>
        <time>2021-05-14T14:11:39Z</time>
      </trkpt>
      <trkpt lat="43.60512" lon="3.70381">
        <ele>200</ele>
        <time>2021-05-14T14:11:40Z</time>
      </trkpt>
      <trkpt lat="43.60515" lon="3.70384">
        <ele>200</ele>
        <time>2021-05-14T14:11:41Z</time>
      </trkpt>
      <trkpt lat="43.60519" lon="3.70386">
        <ele>200</ele>
        <time>2021-05-14T14:11:42Z</time>
      </trkpt>
      <trkpt lat="43.60522" lon="3.70387">
        <ele>200</ele>
        <time>2021-05-14T14:11:43Z</time>
      </trkpt>
      <trkpt lat="43.60525" lon="3.70389">
        <ele>200</ele>
        <time>2021-05-14T14:11:44Z</time>
      </trkpt>
      <trkpt lat="43.60528" lon="3.70389">
        <ele>200</ele>
        <time>2021-05-14T14:11:45Z</time>
      </trkpt>
      <trkpt lat="43.60531" lon="3.7039">
        <ele>200</ele>
        <time>2021-05-14T14:11:46Z</time>
      </trkpt>
      <trkpt lat="43.60534" lon="3.70391">
        <ele>200</ele>
        <time>2021-05-14T14:11:47Z</time>
      </trkpt>
      <trkpt lat="43.60537" lon="3.70392">
        <ele>200</ele>
        <time>2021-05-14T14:11:48Z</time>
      </trkpt>
      <trkpt lat="43.6054" lon="3.70394">
        <ele>200</ele>
        <time>2021-05-14T14:11:49Z</time>
      </trkpt>
      <trkpt lat="43.60543" lon="3.70396">
        <ele>200</ele>
        <time>2021-05-14T14:11:50Z</time>
      </trkpt>
      <trkpt lat="43.60545" lon="3.70399">
        <ele>200</ele>
        <time>2021-05-14T14:11:51Z</time>
      </trkpt>
      <trkpt lat="43.60547" lon="3.70402">
        <ele>200</ele>
        <time>2021-05-14T14:11:52Z</time>
      </trkpt>
      <trkpt lat="43.6055" lon="3.70404">
        <ele>200</ele>
        <time>2021-05-14T14:11:53Z</time>
      </trkpt>
      <trkpt lat="43.60553" lon="3.70407">
        <ele>200</ele>
        <time>2021-05-14T14:11:54Z</time>
      </trkpt>
      <trkpt lat="43.60556" lon="3.70409">
        <ele>200</ele>
        <time>2021-05-14T14:11:55Z</time>
      </trkpt>
      <trkpt lat="43.60559" lon="3.7041">
        <ele>200</ele>
        <time>2021-05-14T14:11:56Z</time>
      </trkpt>
      <trkpt lat="43.60563" lon="3.70411">
        <ele>200</ele>
        <time>2021-05-14T14:11:57Z</time>
      </trkpt>
      <trkpt lat="43.60566" lon="3.70412">
        <ele>200</ele>
        <time>2021-05-14T14:11:59Z</time>
      </trkpt>
      <trkpt lat="43.60569" lon="3.70413">
        <ele>200</ele>
        <time>2021-05-14T14:12:00Z</time>
      </trkpt>
      <trkpt lat="43.60572" lon="3.70414">
        <ele>200</ele>
        <time>2021-05-14T14:12:01Z</time>
      </trkpt>
      <trkpt lat="43.60575" lon="3.70415">
        <ele>200</ele>
        <time>2021-05-14T14:12:02Z</time>
      </trkpt>
      <trkpt lat="43.60578" lon="3.70416">
        <ele>200</ele>
        <time>2021-05-14T14:12:03Z</time>
      </trkpt>
      <trkpt lat="43.6058" lon="3.70418">
        <ele>200</ele>
        <time>2021-05-14T14:12:04Z</time>
      </trkpt>
      <trkpt lat="43.60582" lon="3.70419">
        <ele>200</ele>
        <time>2021-05-14T14:12:05Z</time>
      </trkpt>
      <trkpt lat="43.60584" lon="3.70421">
        <ele>200</ele>
        <time>2021-05-14T14:12:06Z</time>
      </trkpt>
      <trkpt lat="43.6059" lon="3.70425">
        <ele>200</ele>
        <time>2021-05-14T14:12:07Z</time>
      </trkpt>
      <trkpt lat="43.60593" lon="3.70426">
        <ele>195</ele>
        <time>2021-05-14T14:12:08Z</time>
      </trkpt>
      <trkpt lat="43.60597" lon="3.70427">
        <ele>195</ele>
        <time>2021-05-14T14:12:09Z</time>
      </trkpt>
      <trkpt lat="43.60601" lon="3.70428">
        <ele>195</ele>
        <time>2021-05-14T14:12:10Z</time>
      </trkpt>
      <trkpt lat="43.60606" lon="3.70428">
        <ele>195</ele>
        <time>2021-05-14T14:12:11Z</time>
      </trkpt>
      <trkpt lat="43.6061" lon="3.70429">
        <ele>195</ele>
        <time>2021-05-14T14:12:12Z</time>
      </trkpt>
      <trkpt lat="43.60615" lon="3.7043">
        <ele>195</ele>
        <time>2021-05-14T14:12:13Z</time>
      </trkpt>
      <trkpt lat="43.60619" lon="3.70431">
        <ele>195</ele>
        <time>2021-05-14T14:12:14Z</time>
      </trkpt>
      <trkpt lat="43.60622" lon="3.7043">
        <ele>195</ele>
        <time>2021-05-14T14:12:15Z</time>
      </trkpt>
      <trkpt lat="43.60624" lon="3.70429">
        <ele>195</ele>
        <time>2021-05-14T14:12:16Z</time>
      </trkpt>
      <trkpt lat="43.60626" lon="3.70427">
        <ele>195</ele>
        <time>2021-05-14T14:12:17Z</time>
      </trkpt>
      <trkpt lat="43.60625" lon="3.70423">
        <ele>195</ele>
        <time>2021-05-14T14:12:19Z</time>
      </trkpt>
      <trkpt lat="43.60624" lon="3.7042">
        <ele>195</ele>
        <time>2021-05-14T14:12:20Z</time>
      </trkpt>
      <trkpt lat="43.60624" lon="3.70417">
        <ele>195</ele>
        <time>2021-05-14T14:12:21Z</time>
      </trkpt>
      <trkpt lat="43.60623" lon="3.70414">
        <ele>195</ele>
        <time>2021-05-14T14:12:22Z</time>
      </trkpt>
      <trkpt lat="43.60624" lon="3.7041">
        <ele>195</ele>
        <time>2021-05-14T14:12:23Z</time>
      </trkpt>
      <trkpt lat="43.60625" lon="3.70407">
        <ele>195</ele>
        <time>2021-05-14T14:12:24Z</time>
      </trkpt>
      <trkpt lat="43.60626" lon="3.70403">
        <ele>195</ele>
        <time>2021-05-14T14:12:25Z</time>
      </trkpt>
      <trkpt lat="43.60628" lon="3.704">
        <ele>195</ele>
        <time>2021-05-14T14:12:26Z</time>
      </trkpt>
      <trkpt lat="43.6063" lon="3.70397">
        <ele>195</ele>
        <time>2021-05-14T14:12:27Z</time>
      </trkpt>
      <trkpt lat="43.60632" lon="3.70394">
        <ele>189</ele>
        <time>2021-05-14T14:12:28Z</time>
      </trkpt>
      <trkpt lat="43.60634" lon="3.70391">
        <ele>189</ele>
        <time>2021-05-14T14:12:29Z</time>
      </trkpt>
      <trkpt lat="43.60636" lon="3.70387">
        <ele>189</ele>
        <time>2021-05-14T14:12:30Z</time>
      </trkpt>
      <trkpt lat="43.60638" lon="3.70383">
        <ele>189</ele>
        <time>2021-05-14T14:12:31Z</time>
      </trkpt>
      <trkpt lat="43.60642" lon="3.70374">
        <ele>189</ele>
        <time>2021-05-14T14:12:33Z</time>
      </trkpt>
      <trkpt lat="43.60645" lon="3.70371">
        <ele>189</ele>
        <time>2021-05-14T14:12:34Z</time>
      </trkpt>
      <trkpt lat="43.60647" lon="3.70367">
        <ele>189</ele>
        <time>2021-05-14T14:12:35Z</time>
      </trkpt>
      <trkpt lat="43.60648" lon="3.70364">
        <ele>189</ele>
        <time>2021-05-14T14:12:36Z</time>
      </trkpt>
      <trkpt lat="43.60649" lon="3.70362">
        <ele>189</ele>
        <time>2021-05-14T14:12:37Z</time>
      </trkpt>
      <trkpt lat="43.60651" lon="3.70359">
        <ele>187</ele>
        <time>2021-05-14T14:12:38Z</time>
      </trkpt>
      <trkpt lat="43.60652" lon="3.70354">
        <ele>185</ele>
        <time>2021-05-14T14:12:52Z</time>
      </trkpt>
      <trkpt lat="43.60654" lon="3.70349">
        <ele>185</ele>
        <time>2021-05-14T14:12:53Z</time>
      </trkpt>
      <trkpt lat="43.60656" lon="3.70344">
        <ele>185</ele>
        <time>2021-05-14T14:12:55Z</time>
      </trkpt>
      <trkpt lat="43.60657" lon="3.70341">
        <ele>185</ele>
        <time>2021-05-14T14:12:56Z</time>
      </trkpt>
      <trkpt lat="43.60658" lon="3.70337">
        <ele>185</ele>
        <time>2021-05-14T14:12:57Z</time>
      </trkpt>
      <trkpt lat="43.60659" lon="3.70333">
        <ele>185</ele>
        <time>2021-05-14T14:12:58Z</time>
      </trkpt>
      <trkpt lat="43.6066" lon="3.70327">
        <ele>185</ele>
        <time>2021-05-14T14:13:00Z</time>
      </trkpt>
      <trkpt lat="43.60663" lon="3.70313">
        <ele>185</ele>
        <time>2021-05-14T14:13:01Z</time>
      </trkpt>
      <trkpt lat="43.60665" lon="3.70305">
        <ele>184</ele>
        <time>2021-05-14T14:13:02Z</time>
      </trkpt>
      <trkpt lat="43.60667" lon="3.70297">
        <ele>184</ele>
        <time>2021-05-14T14:13:03Z</time>
      </trkpt>
      <trkpt lat="43.60668" lon="3.70288">
        <ele>184</ele>
        <time>2021-05-14T14:13:04Z</time>
      </trkpt>
      <trkpt lat="43.60669" lon="3.7028">
        <ele>184</ele>
        <time>2021-05-14T14:13:05Z</time>
      </trkpt>
      <trkpt lat="43.6067" lon="3.70271">
        <ele>184</ele>
        <time>2021-05-14T14:13:06Z</time>
      </trkpt>
      <trkpt lat="43.60672" lon="3.70262">
        <ele>184</ele>
        <time>2021-05-14T14:13:07Z</time>
      </trkpt>
      <trkpt lat="43.60674" lon="3.70253">
        <ele>184</ele>
        <time>2021-05-14T14:13:08Z</time>
      </trkpt>
      <trkpt lat="43.60675" lon="3.70243">
        <ele>184</ele>
        <time>2021-05-14T14:13:09Z</time>
      </trkpt>
      <trkpt lat="43.60676" lon="3.70233">
        <ele>184</ele>
        <time>2021-05-14T14:13:10Z</time>
      </trkpt>
      <trkpt lat="43.60677" lon="3.70225">
        <ele>184</ele>
        <time>2021-05-14T14:13:11Z</time>
      </trkpt>
      <trkpt lat="43.60678" lon="3.70215">
        <ele>180</ele>
        <time>2021-05-14T14:13:12Z</time>
      </trkpt>
      <trkpt lat="43.60677" lon="3.70206">
        <ele>180</ele>
        <time>2021-05-14T14:13:13Z</time>
      </trkpt>
      <trkpt lat="43.60676" lon="3.70197">
        <ele>180</ele>
        <time>2021-05-14T14:13:14Z</time>
      </trkpt>
      <trkpt lat="43.60675" lon="3.70188">
        <ele>180</ele>
        <time>2021-05-14T14:13:15Z</time>
      </trkpt>
      <trkpt lat="43.60675" lon="3.7018">
        <ele>180</ele>
        <time>2021-05-14T14:13:16Z</time>
      </trkpt>
      <trkpt lat="43.60675" lon="3.70172">
        <ele>180</ele>
        <time>2021-05-14T14:13:17Z</time>
      </trkpt>
      <trkpt lat="43.60675" lon="3.70165">
        <ele>180</ele>
        <time>2021-05-14T14:13:18Z</time>
      </trkpt>
      <trkpt lat="43.60674" lon="3.70157">
        <ele>180</ele>
        <time>2021-05-14T14:13:19Z</time>
      </trkpt>
      <trkpt lat="43.60673" lon="3.70149">
        <ele>180</ele>
        <time>2021-05-14T14:13:20Z</time>
      </trkpt>
      <trkpt lat="43.60672" lon="3.7014">
        <ele>177</ele>
        <time>2021-05-14T14:13:22Z</time>
      </trkpt>
      <trkpt lat="43.60668" lon="3.70123">
        <ele>177</ele>
        <time>2021-05-14T14:13:23Z</time>
      </trkpt>
      <trkpt lat="43.60667" lon="3.70114">
        <ele>177</ele>
        <time>2021-05-14T14:13:24Z</time>
      </trkpt>
      <trkpt lat="43.60665" lon="3.70104">
        <ele>177</ele>
        <time>2021-05-14T14:13:25Z</time>
      </trkpt>
      <trkpt lat="43.60664" lon="3.70095">
        <ele>177</ele>
        <time>2021-05-14T14:13:26Z</time>
      </trkpt>
      <trkpt lat="43.60663" lon="3.70084">
        <ele>177</ele>
        <time>2021-05-14T14:13:27Z</time>
      </trkpt>
      <trkpt lat="43.60661" lon="3.70074">
        <ele>177</ele>
        <time>2021-05-14T14:13:28Z</time>
      </trkpt>
      <trkpt lat="43.60661" lon="3.70064">
        <ele>177</ele>
        <time>2021-05-14T14:13:30Z</time>
      </trkpt>
      <trkpt lat="43.6066" lon="3.70054">
        <ele>177</ele>
        <time>2021-05-14T14:13:31Z</time>
      </trkpt>
      <trkpt lat="43.6066" lon="3.70045">
        <ele>172</ele>
        <time>2021-05-14T14:13:32Z</time>
      </trkpt>
      <trkpt lat="43.60659" lon="3.70036">
        <ele>172</ele>
        <time>2021-05-14T14:13:33Z</time>
      </trkpt>
      <trkpt lat="43.60658" lon="3.70026">
        <ele>172</ele>
        <time>2021-05-14T14:13:34Z</time>
      </trkpt>
      <trkpt lat="43.60657" lon="3.70015">
        <ele>172</ele>
        <time>2021-05-14T14:13:35Z</time>
      </trkpt>
      <trkpt lat="43.60656" lon="3.70005">
        <ele>172</ele>
        <time>2021-05-14T14:13:36Z</time>
      </trkpt>
      <trkpt lat="43.60656" lon="3.69996">
        <ele>172</ele>
        <time>2021-05-14T14:13:37Z</time>
      </trkpt>
      <trkpt lat="43.60656" lon="3.69987">
        <ele>172</ele>
        <time>2021-05-14T14:13:38Z</time>
      </trkpt>
      <trkpt lat="43.60656" lon="3.69978">
        <ele>172</ele>
        <time>2021-05-14T14:13:39Z</time>
      </trkpt>
      <trkpt lat="43.60656" lon="3.69971">
        <ele>172</ele>
        <time>2021-05-14T14:13:40Z</time>
      </trkpt>
      <trkpt lat="43.60655" lon="3.69966">
        <ele>172</ele>
        <time>2021-05-14T14:13:41Z</time>
      </trkpt>
      <trkpt lat="43.60654" lon="3.69964">
        <ele>167</ele>
        <time>2021-05-14T14:13:42Z</time>
      </trkpt>
      <trkpt lat="43.60653" lon="3.6996">
        <ele>167</ele>
        <time>2021-05-14T14:13:53Z</time>
      </trkpt>
      <trkpt lat="43.60652" lon="3.69958">
        <ele>167</ele>
        <time>2021-05-14T14:13:54Z</time>
      </trkpt>
      <trkpt lat="43.60652" lon="3.69955">
        <ele>167</ele>
        <time>2021-05-14T14:13:55Z</time>
      </trkpt>
      <trkpt lat="43.60652" lon="3.69951">
        <ele>167</ele>
        <time>2021-05-14T14:13:56Z</time>
      </trkpt>
      <trkpt lat="43.60652" lon="3.69948">
        <ele>167</ele>
        <time>2021-05-14T14:13:57Z</time>
      </trkpt>
      <trkpt lat="43.60652" lon="3.69943">
        <ele>167</ele>
        <time>2021-05-14T14:13:58Z</time>
      </trkpt>
      <trkpt lat="43.60652" lon="3.69938">
        <ele>167</ele>
        <time>2021-05-14T14:13:59Z</time>
      </trkpt>
      <trkpt lat="43.60652" lon="3.69933">
        <ele>167</ele>
        <time>2021-05-14T14:14:00Z</time>
      </trkpt>
      <trkpt lat="43.60653" lon="3.69929">
        <ele>167</ele>
        <time>2021-05-14T14:14:01Z</time>
      </trkpt>
      <trkpt lat="43.60653" lon="3.69926">
        <ele>167</ele>
        <time>2021-05-14T14:14:03Z</time>
      </trkpt>
      <trkpt lat="43.60652" lon="3.69922">
        <ele>167</ele>
        <time>2021-05-14T14:14:04Z</time>
      </trkpt>
      <trkpt lat="43.60652" lon="3.69919">
        <ele>167</ele>
        <time>2021-05-14T14:14:05Z</time>
      </trkpt>
      <trkpt lat="43.60651" lon="3.69916">
        <ele>167</ele>
        <time>2021-05-14T14:14:06Z</time>
      </trkpt>
      <trkpt lat="43.6065" lon="3.69913">
        <ele>167</ele>
        <time>2021-05-14T14:14:07Z</time>
      </trkpt>
      <trkpt lat="43.60649" lon="3.6991">
        <ele>167</ele>
        <time>2021-05-14T14:14:08Z</time>
      </trkpt>
      <trkpt lat="43.60647" lon="3.69907">
        <ele>167</ele>
        <time>2021-05-14T14:14:09Z</time>
      </trkpt>
      <trkpt lat="43.60647" lon="3.69903">
        <ele>167</ele>
        <time>2021-05-14T14:14:10Z</time>
      </trkpt>
      <trkpt lat="43.60646" lon="3.69899">
        <ele>167</ele>
        <time>2021-05-14T14:14:11Z</time>
      </trkpt>
      <trkpt lat="43.60647" lon="3.69893">
        <ele>156</ele>
        <time>2021-05-14T14:14:12Z</time>
      </trkpt>
      <trkpt lat="43.60648" lon="3.69887">
        <ele>156</ele>
        <time>2021-05-14T14:14:13Z</time>
      </trkpt>
      <trkpt lat="43.60648" lon="3.69881">
        <ele>156</ele>
        <time>2021-05-14T14:14:14Z</time>
      </trkpt>
      <trkpt lat="43.60648" lon="3.69875">
        <ele>156</ele>
        <time>2021-05-14T14:14:15Z</time>
      </trkpt>
      <trkpt lat="43.60648" lon="3.6987">
        <ele>156</ele>
        <time>2021-05-14T14:14:16Z</time>
      </trkpt>
      <trkpt lat="43.60649" lon="3.69864">
        <ele>156</ele>
        <time>2021-05-14T14:14:17Z</time>
      </trkpt>
      <trkpt lat="43.60649" lon="3.69858">
        <ele>156</ele>
        <time>2021-05-14T14:14:18Z</time>
      </trkpt>
      <trkpt lat="43.60653" lon="3.6985">
        <ele>156</ele>
        <time>2021-05-14T14:14:19Z</time>
      </trkpt>
      <trkpt lat="43.60655" lon="3.69848">
        <ele>156</ele>
        <time>2021-05-14T14:14:20Z</time>
      </trkpt>
      <trkpt lat="43.60657" lon="3.69847">
        <ele>156</ele>
        <time>2021-05-14T14:14:21Z</time>
      </trkpt>
      <trkpt lat="43.60659" lon="3.69845">
        <ele>153</ele>
        <time>2021-05-14T14:14:22Z</time>
      </trkpt>
      <trkpt lat="43.60661" lon="3.69844">
        <ele>153</ele>
        <time>2021-05-14T14:14:23Z</time>
      </trkpt>
      <trkpt lat="43.60663" lon="3.69842">
        <ele>153</ele>
        <time>2021-05-14T14:14:24Z</time>
      </trkpt>
      <trkpt lat="43.60666" lon="3.69841">
        <ele>153</ele>
        <time>2021-05-14T14:14:25Z</time>
      </trkpt>
      <trkpt lat="43.60669" lon="3.69842">
        <ele>153</ele>
        <time>2021-05-14T14:14:26Z</time>
      </trkpt>
      <trkpt lat="43.60673" lon="3.69843">
        <ele>153</ele>
        <time>2021-05-14T14:14:27Z</time>
      </trkpt>
      <trkpt lat="43.60677" lon="3.69844">
        <ele>153</ele>
        <time>2021-05-14T14:14:28Z</time>
      </trkpt>
      <trkpt lat="43.60681" lon="3.69845">
        <ele>153</ele>
        <time>2021-05-14T14:14:29Z</time>
      </trkpt>
      <trkpt lat="43.60685" lon="3.69845">
        <ele>153</ele>
        <time>2021-05-14T14:14:30Z</time>
      </trkpt>
      <trkpt lat="43.60689" lon="3.69845">
        <ele>153</ele>
        <time>2021-05-14T14:14:31Z</time>
      </trkpt>
      <trkpt lat="43.60693" lon="3.69844">
        <ele>150</ele>
        <time>2021-05-14T14:14:32Z</time>
      </trkpt>
      <trkpt lat="43.60697" lon="3.69843">
        <ele>150</ele>
        <time>2021-05-14T14:14:33Z</time>
      </trkpt>
      <trkpt lat="43.607" lon="3.69843">
        <ele>150</ele>
        <time>2021-05-14T14:14:34Z</time>
      </trkpt>
      <trkpt lat="43.60704" lon="3.69843">
        <ele>150</ele>
        <time>2021-05-14T14:14:35Z</time>
      </trkpt>
      <trkpt lat="43.60707" lon="3.69843">
        <ele>150</ele>
        <time>2021-05-14T14:14:36Z</time>
      </trkpt>
      <trkpt lat="43.60711" lon="3.69844">
        <ele>150</ele>
        <time>2021-05-14T14:14:37Z</time>
      </trkpt>
      <trkpt lat="43.60714" lon="3.69845">
        <ele>150</ele>
        <time>2021-05-14T14:14:38Z</time>
      </trkpt>
      <trkpt lat="43.60718" lon="3.69846">
        <ele>150</ele>
        <time>2021-05-14T14:14:39Z</time>
      </trkpt>
      <trkpt lat="43.60722" lon="3.69845">
        <ele>150</ele>
        <time>2021-05-14T14:14:40Z</time>
      </trkpt>
      <trkpt lat="43.60726" lon="3.69845">
        <ele>150</ele>
        <time>2021-05-14T14:14:41Z</time>
      </trkpt>
      <trkpt lat="43.6073" lon="3.69845">
        <ele>149</ele>
        <time>2021-05-14T14:14:42Z</time>
      </trkpt>
      <trkpt lat="43.60734" lon="3.69845">
        <ele>149</ele>
        <time>2021-05-14T14:14:43Z</time>
      </trkpt>
      <trkpt lat="43.60738" lon="3.69845">
        <ele>149</ele>
        <time>2021-05-14T14:14:44Z</time>
      </trkpt>
      <trkpt lat="43.60742" lon="3.69845">
        <ele>149</ele>
        <time>2021-05-14T14:14:45Z</time>
      </trkpt>
      <trkpt lat="43.60745" lon="3.69844">
        <ele>149</ele>
        <time>2021-05-14T14:14:46Z</time>
      </trkpt>
      <trkpt lat="43.60749" lon="3.69844">
        <ele>149</ele>
        <time>2021-05-14T14:14:47Z</time>
      </trkpt>
      <trkpt lat="43.60757" lon="3.69843">
        <ele>149</ele>
        <time>2021-05-14T14:14:49Z</time>
      </trkpt>
      <trkpt lat="43.6076" lon="3.69843">
        <ele>149</ele>
        <time>2021-05-14T14:14:50Z</time>
      </trkpt>
      <trkpt lat="43.60764" lon="3.69843">
        <ele>149</ele>
        <time>2021-05-14T14:14:51Z</time>
      </trkpt>
      <trkpt lat="43.6077" lon="3.69843">
        <ele>149</ele>
        <time>2021-05-14T14:14:53Z</time>
      </trkpt>
      <trkpt lat="43.60773" lon="3.69843">
        <ele>149</ele>
        <time>2021-05-14T14:14:54Z</time>
      </trkpt>
      <trkpt lat="43.60776" lon="3.69843">
        <ele>149</ele>
        <time>2021-05-14T14:14:55Z</time>
      </trkpt>
      <trkpt lat="43.60778" lon="3.69843">
        <ele>149</ele>
        <time>2021-05-14T14:14:56Z</time>
      </trkpt>
      <trkpt lat="43.60781" lon="3.69843">
        <ele>149</ele>
        <time>2021-05-14T14:14:57Z</time>
      </trkpt>
      <trkpt lat="43.60784" lon="3.69844">
        <ele>149</ele>
        <time>2021-05-14T14:14:59Z</time>
      </trkpt>
      <trkpt lat="43.60786" lon="3.69844">
        <ele>149</ele>
        <time>2021-05-14T14:15:00Z</time>
      </trkpt>
      <trkpt lat="43.60788" lon="3.69845">
        <ele>149</ele>
        <time>2021-05-14T14:15:01Z</time>
      </trkpt>
      <trkpt lat="43.6079" lon="3.69845">
        <ele>148</ele>
        <time>2021-05-14T14:15:02Z</time>
      </trkpt>
      <trkpt lat="43.60793" lon="3.69845">
        <ele>148</ele>
        <time>2021-05-14T14:15:03Z</time>
      </trkpt>
      <trkpt lat="43.60795" lon="3.69846">
        <ele>148</ele>
        <time>2021-05-14T14:15:04Z</time>
      </trkpt>
      <trkpt lat="43.60799" lon="3.69846">
        <ele>148</ele>
        <time>2021-05-14T14:15:05Z</time>
      </trkpt>
      <trkpt lat="43.60801" lon="3.69847">
        <ele>148</ele>
        <time>2021-05-14T14:15:07Z</time>
      </trkpt>
      <trkpt lat="43.60803" lon="3.69847">
        <ele>148</ele>
        <time>2021-05-14T14:15:08Z</time>
      </trkpt>
      <trkpt lat="43.60805" lon="3.69848">
        <ele>148</ele>
        <time>2021-05-14T14:15:09Z</time>
      </trkpt>
      <trkpt lat="43.60807" lon="3.69849">
        <ele>148</ele>
        <time>2021-05-14T14:15:10Z</time>
      </trkpt>
      <trkpt lat="43.60809" lon="3.6985">
        <ele>148</ele>
        <time>2021-05-14T14:15:11Z</time>
      </trkpt>
      <trkpt lat="43.60811" lon="3.69851">
        <ele>149</ele>
        <time>2021-05-14T14:15:12Z</time>
      </trkpt>
      <trkpt lat="43.60814" lon="3.69853">
        <ele>149</ele>
        <time>2021-05-14T14:15:14Z</time>
      </trkpt>
      <trkpt lat="43.60817" lon="3.69854">
        <ele>149</ele>
        <time>2021-05-14T14:15:16Z</time>
      </trkpt>
      <trkpt lat="43.6082" lon="3.69855">
        <ele>149</ele>
        <time>2021-05-14T14:15:18Z</time>
      </trkpt>
      <trkpt lat="43.60822" lon="3.69856">
        <ele>149</ele>
        <time>2021-05-14T14:15:19Z</time>
      </trkpt>
      <trkpt lat="43.60824" lon="3.69856">
        <ele>149</ele>
        <time>2021-05-14T14:15:20Z</time>
      </trkpt>
      <trkpt lat="43.60826" lon="3.69857">
        <ele>149</ele>
        <time>2021-05-14T14:15:21Z</time>
      </trkpt>
      <trkpt lat="43.60828" lon="3.69857">
        <ele>149</ele>
        <time>2021-05-14T14:15:22Z</time>
      </trkpt>
      <trkpt lat="43.60832" lon="3.69858">
        <ele>149</ele>
        <time>2021-05-14T14:15:23Z</time>
      </trkpt>
      <trkpt lat="43.60834" lon="3.69855">
        <ele>149</ele>
        <time>2021-05-14T14:15:25Z</time>
      </trkpt>
      <trkpt lat="43.60836" lon="3.69854">
        <ele>149</ele>
        <time>2021-05-14T14:15:26Z</time>
      </trkpt>
      <trkpt lat="43.60837" lon="3.69851">
        <ele>149</ele>
        <time>2021-05-14T14:15:27Z</time>
      </trkpt>
      <trkpt lat="43.60839" lon="3.69849">
        <ele>149</ele>
        <time>2021-05-14T14:15:28Z</time>
      </trkpt>
      <trkpt lat="43.6084" lon="3.69846">
        <ele>149</ele>
        <time>2021-05-14T14:15:29Z</time>
      </trkpt>
      <trkpt lat="43.60841" lon="3.69844">
        <ele>149</ele>
        <time>2021-05-14T14:15:30Z</time>
      </trkpt>
      <trkpt lat="43.60842" lon="3.69841">
        <ele>149</ele>
        <time>2021-05-14T14:15:31Z</time>
      </trkpt>
      <trkpt lat="43.60842" lon="3.69838">
        <ele>151</ele>
        <time>2021-05-14T14:15:32Z</time>
      </trkpt>
      <trkpt lat="43.60843" lon="3.69835">
        <ele>151</ele>
        <time>2021-05-14T14:15:33Z</time>
      </trkpt>
      <trkpt lat="43.60844" lon="3.69832">
        <ele>151</ele>
        <time>2021-05-14T14:15:34Z</time>
      </trkpt>
      <trkpt lat="43.60844" lon="3.69829">
        <ele>151</ele>
        <time>2021-05-14T14:15:35Z</time>
      </trkpt>
      <trkpt lat="43.60844" lon="3.69826">
        <ele>151</ele>
        <time>2021-05-14T14:15:36Z</time>
      </trkpt>
      <trkpt lat="43.60844" lon="3.69823">
        <ele>151</ele>
        <time>2021-05-14T14:15:37Z</time>
      </trkpt>
      <trkpt lat="43.60844" lon="3.69819">
        <ele>151</ele>
        <time>2021-05-14T14:15:38Z</time>
      </trkpt>
      <trkpt lat="43.60844" lon="3.69816">
        <ele>151</ele>
        <time>2021-05-14T14:15:39Z</time>
      </trkpt>
      <trkpt lat="43.60844" lon="3.69812">
        <ele>151</ele>
        <time>2021-05-14T14:15:41Z</time>
      </trkpt>
      <trkpt lat="43.60844" lon="3.69809">
        <ele>151</ele>
        <time>2021-05-14T14:15:43Z</time>
      </trkpt>
      <trkpt lat="43.60844" lon="3.69806">
        <ele>151</ele>
        <time>2021-05-14T14:15:45Z</time>
      </trkpt>
      <trkpt lat="43.60843" lon="3.69803">
        <ele>151</ele>
        <time>2021-05-14T14:15:47Z</time>
      </trkpt>
      <trkpt lat="43.60843" lon="3.698">
        <ele>151</ele>
        <time>2021-05-14T14:15:49Z</time>
      </trkpt>
      <trkpt lat="43.60843" lon="3.69801">
        <ele>153</ele>
        <time>2021-05-14T14:15:55Z</time>
      </trkpt>
      <trkpt lat="43.6084" lon="3.69783">
        <ele>155</ele>
        <time>2021-05-14T14:16:40Z</time>
      </trkpt>
      <trkpt lat="43.60841" lon="3.69779">
        <ele>155</ele>
        <time>2021-05-14T14:16:43Z</time>
      </trkpt>
      <trkpt lat="43.60841" lon="3.69777">
        <ele>155</ele>
        <time>2021-05-14T14:16:44Z</time>
      </trkpt>
      <trkpt lat="43.60842" lon="3.69774">
        <ele>155</ele>
        <time>2021-05-14T14:16:46Z</time>
      </trkpt>
      <trkpt lat="43.60842" lon="3.69771">
        <ele>155</ele>
        <time>2021-05-14T14:16:48Z</time>
      </trkpt>
      <trkpt lat="43.60844" lon="3.69768">
        <ele>154</ele>
        <time>2021-05-14T14:16:50Z</time>
      </trkpt>
      <trkpt lat="43.60845" lon="3.69765">
        <ele>154</ele>
        <time>2021-05-14T14:16:52Z</time>
      </trkpt>
      <trkpt lat="43.60846" lon="3.69763">
        <ele>154</ele>
        <time>2021-05-14T14:16:54Z</time>
      </trkpt>
      <trkpt lat="43.60848" lon="3.69762">
        <ele>154</ele>
        <time>2021-05-14T14:16:58Z</time>
      </trkpt>
      <trkpt lat="43.60851" lon="3.69759">
        <ele>154</ele>
        <time>2021-05-14T14:17:02Z</time>
      </trkpt>
      <trkpt lat="43.60853" lon="3.69756">
        <ele>154</ele>
        <time>2021-05-14T14:17:03Z</time>
      </trkpt>
      <trkpt lat="43.60855" lon="3.69754">
        <ele>154</ele>
        <time>2021-05-14T14:17:04Z</time>
      </trkpt>
      <trkpt lat="43.60858" lon="3.69751">
        <ele>154</ele>
        <time>2021-05-14T14:17:05Z</time>
      </trkpt>
      <trkpt lat="43.6086" lon="3.69749">
        <ele>154</ele>
        <time>2021-05-14T14:17:06Z</time>
      </trkpt>
      <trkpt lat="43.60862" lon="3.69748">
        <ele>154</ele>
        <time>2021-05-14T14:17:07Z</time>
      </trkpt>
      <trkpt lat="43.60864" lon="3.69747">
        <ele>154</ele>
        <time>2021-05-14T14:17:08Z</time>
      </trkpt>
      <trkpt lat="43.60867" lon="3.69746">
        <ele>154</ele>
        <time>2021-05-14T14:17:09Z</time>
      </trkpt>
      <trkpt lat="43.60869" lon="3.69746">
        <ele>154</ele>
        <time>2021-05-14T14:17:10Z</time>
      </trkpt>
      <trkpt lat="43.6087" lon="3.69746">
        <ele>154</ele>
        <time>2021-05-14T14:17:12Z</time>
      </trkpt>
      <trkpt lat="43.60874" lon="3.69745">
        <ele>154</ele>
        <time>2021-05-14T14:17:14Z</time>
      </trkpt>
      <trkpt lat="43.60876" lon="3.69745">
        <ele>154</ele>
        <time>2021-05-14T14:17:15Z</time>
      </trkpt>
      <trkpt lat="43.6088" lon="3.69744">
        <ele>154</ele>
        <time>2021-05-14T14:17:16Z</time>
      </trkpt>
      <trkpt lat="43.60881" lon="3.69744">
        <ele>154</ele>
        <time>2021-05-14T14:17:17Z</time>
      </trkpt>
      <trkpt lat="43.60885" lon="3.69745">
        <ele>154</ele>
        <time>2021-05-14T14:17:19Z</time>
      </trkpt>
      <trkpt lat="43.60887" lon="3.69745">
        <ele>154</ele>
        <time>2021-05-14T14:17:21Z</time>
      </trkpt>
      <trkpt lat="43.6089" lon="3.69745">
        <ele>154</ele>
        <time>2021-05-14T14:17:23Z</time>
      </trkpt>
      <trkpt lat="43.60893" lon="3.69745">
        <ele>154</ele>
        <time>2021-05-14T14:17:26Z</time>
      </trkpt>
      <trkpt lat="43.60896" lon="3.69745">
        <ele>154</ele>
        <time>2021-05-14T14:17:28Z</time>
      </trkpt>
      <trkpt lat="43.60898" lon="3.69745">
        <ele>154</ele>
        <time>2021-05-14T14:17:29Z</time>
      </trkpt>
      <trkpt lat="43.609" lon="3.69746">
        <ele>156</ele>
        <time>2021-05-14T14:17:30Z</time>
      </trkpt>
      <trkpt lat="43.60902" lon="3.69746">
        <ele>156</ele>
        <time>2021-05-14T14:17:31Z</time>
      </trkpt>
      <trkpt lat="43.60905" lon="3.69746">
        <ele>156</ele>
        <time>2021-05-14T14:17:33Z</time>
      </trkpt>
      <trkpt lat="43.60908" lon="3.69746">
        <ele>156</ele>
        <time>2021-05-14T14:17:35Z</time>
      </trkpt>
      <trkpt lat="43.60911" lon="3.69745">
        <ele>156</ele>
        <time>2021-05-14T14:17:37Z</time>
      </trkpt>
      <trkpt lat="43.60914" lon="3.69744">
        <ele>156</ele>
        <time>2021-05-14T14:17:39Z</time>
      </trkpt>
      <trkpt lat="43.60917" lon="3.69743">
        <ele>156</ele>
        <time>2021-05-14T14:17:41Z</time>
      </trkpt>
      <trkpt lat="43.60919" lon="3.69742">
        <ele>156</ele>
        <time>2021-05-14T14:17:43Z</time>
      </trkpt>
      <trkpt lat="43.60922" lon="3.69741">
        <ele>156</ele>
        <time>2021-05-14T14:17:45Z</time>
      </trkpt>
      <trkpt lat="43.60925" lon="3.6974">
        <ele>156</ele>
        <time>2021-05-14T14:17:47Z</time>
      </trkpt>
      <trkpt lat="43.60927" lon="3.69738">
        <ele>156</ele>
        <time>2021-05-14T14:17:49Z</time>
      </trkpt>
      <trkpt lat="43.6093" lon="3.69736">
        <ele>159</ele>
        <time>2021-05-14T14:17:50Z</time>
      </trkpt>
      <trkpt lat="43.60934" lon="3.69735">
        <ele>159</ele>
        <time>2021-05-14T14:17:52Z</time>
      </trkpt>
      <trkpt lat="43.60935" lon="3.69734">
        <ele>159</ele>
        <time>2021-05-14T14:17:53Z</time>
      </trkpt>
      <trkpt lat="43.60937" lon="3.69733">
        <ele>159</ele>
        <time>2021-05-14T14:17:54Z</time>
      </trkpt>
      <trkpt lat="43.60941" lon="3.69732">
        <ele>159</ele>
        <time>2021-05-14T14:17:56Z</time>
      </trkpt>
      <trkpt lat="43.60944" lon="3.69731">
        <ele>159</ele>
        <time>2021-05-14T14:17:58Z</time>
      </trkpt>
      <trkpt lat="43.60947" lon="3.69733">
        <ele>159</ele>
        <time>2021-05-14T14:18:01Z</time>
      </trkpt>
      <trkpt lat="43.60948" lon="3.69736">
        <ele>159</ele>
        <time>2021-05-14T14:18:03Z</time>
      </trkpt>
      <trkpt lat="43.60949" lon="3.6974">
        <ele>159</ele>
        <time>2021-05-14T14:18:05Z</time>
      </trkpt>
      <trkpt lat="43.60949" lon="3.69744">
        <ele>159</ele>
        <time>2021-05-14T14:18:07Z</time>
      </trkpt>
      <trkpt lat="43.60948" lon="3.69748">
        <ele>159</ele>
        <time>2021-05-14T14:18:08Z</time>
      </trkpt>
      <trkpt lat="43.60948" lon="3.69751">
        <ele>162</ele>
        <time>2021-05-14T14:18:10Z</time>
      </trkpt>
      <trkpt lat="43.60949" lon="3.69755">
        <ele>162</ele>
        <time>2021-05-14T14:18:13Z</time>
      </trkpt>
      <trkpt lat="43.60949" lon="3.69759">
        <ele>162</ele>
        <time>2021-05-14T14:18:15Z</time>
      </trkpt>
      <trkpt lat="43.6095" lon="3.69762">
        <ele>162</ele>
        <time>2021-05-14T14:18:16Z</time>
      </trkpt>
      <trkpt lat="43.60951" lon="3.69765">
        <ele>162</ele>
        <time>2021-05-14T14:18:19Z</time>
      </trkpt>
      <trkpt lat="43.60953" lon="3.69769">
        <ele>163</ele>
        <time>2021-05-14T14:18:20Z</time>
      </trkpt>
      <trkpt lat="43.60954" lon="3.69771">
        <ele>163</ele>
        <time>2021-05-14T14:18:22Z</time>
      </trkpt>
      <trkpt lat="43.60956" lon="3.69773">
        <ele>163</ele>
        <time>2021-05-14T14:18:24Z</time>
      </trkpt>
      <trkpt lat="43.60959" lon="3.69775">
        <ele>163</ele>
        <time>2021-05-14T14:18:26Z</time>
      </trkpt>
      <trkpt lat="43.60961" lon="3.69777">
        <ele>163</ele>
        <time>2021-05-14T14:18:28Z</time>
      </trkpt>
      <trkpt lat="43.60963" lon="3.6978">
        <ele>163</ele>
        <time>2021-05-14T14:18:30Z</time>
      </trkpt>
      <trkpt lat="43.60964" lon="3.69782">
        <ele>163</ele>
        <time>2021-05-14T14:18:31Z</time>
      </trkpt>
      <trkpt lat="43.60967" lon="3.69784">
        <ele>163</ele>
        <time>2021-05-14T14:18:32Z</time>
      </trkpt>
      <trkpt lat="43.60971" lon="3.69785">
        <ele>163</ele>
        <time>2021-05-14T14:18:33Z</time>
      </trkpt>
      <trkpt lat="43.60975" lon="3.69787">
        <ele>163</ele>
        <time>2021-05-14T14:18:34Z</time>
      </trkpt>
      <trkpt lat="43.60978" lon="3.69789">
        <ele>163</ele>
        <time>2021-05-14T14:18:35Z</time>
      </trkpt>
      <trkpt lat="43.60981" lon="3.69793">
        <ele>163</ele>
        <time>2021-05-14T14:18:36Z</time>
      </trkpt>
      <trkpt lat="43.60983" lon="3.69797">
        <ele>163</ele>
        <time>2021-05-14T14:18:37Z</time>
      </trkpt>
      <trkpt lat="43.60985" lon="3.69801">
        <ele>163</ele>
        <time>2021-05-14T14:18:38Z</time>
      </trkpt>
      <trkpt lat="43.60988" lon="3.69805">
        <ele>163</ele>
        <time>2021-05-14T14:18:39Z</time>
      </trkpt>
      <trkpt lat="43.6099" lon="3.69809">
        <ele>162</ele>
        <time>2021-05-14T14:18:40Z</time>
      </trkpt>
      <trkpt lat="43.60992" lon="3.69814">
        <ele>162</ele>
        <time>2021-05-14T14:18:41Z</time>
      </trkpt>
      <trkpt lat="43.60994" lon="3.69818">
        <ele>162</ele>
        <time>2021-05-14T14:18:42Z</time>
      </trkpt>
      <trkpt lat="43.60994" lon="3.69823">
        <ele>162</ele>
        <time>2021-05-14T14:18:43Z</time>
      </trkpt>
      <trkpt lat="43.60994" lon="3.69826">
        <ele>162</ele>
        <time>2021-05-14T14:18:44Z</time>
      </trkpt>
      <trkpt lat="43.60994" lon="3.6983">
        <ele>162</ele>
        <time>2021-05-14T14:18:46Z</time>
      </trkpt>
      <trkpt lat="43.60993" lon="3.69833">
        <ele>162</ele>
        <time>2021-05-14T14:18:47Z</time>
      </trkpt>
      <trkpt lat="43.60992" lon="3.69836">
        <ele>162</ele>
        <time>2021-05-14T14:18:48Z</time>
      </trkpt>
      <trkpt lat="43.60992" lon="3.69838">
        <ele>162</ele>
        <time>2021-05-14T14:18:49Z</time>
      </trkpt>
      <trkpt lat="43.60991" lon="3.69841">
        <ele>163</ele>
        <time>2021-05-14T14:18:50Z</time>
      </trkpt>
      <trkpt lat="43.60991" lon="3.69843">
        <ele>163</ele>
        <time>2021-05-14T14:18:51Z</time>
      </trkpt>
      <trkpt lat="43.60991" lon="3.69848">
        <ele>163</ele>
        <time>2021-05-14T14:18:53Z</time>
      </trkpt>
      <trkpt lat="43.60991" lon="3.69853">
        <ele>163</ele>
        <time>2021-05-14T14:18:55Z</time>
      </trkpt>
      <trkpt lat="43.60992" lon="3.69855">
        <ele>163</ele>
        <time>2021-05-14T14:18:56Z</time>
      </trkpt>
      <trkpt lat="43.60992" lon="3.69858">
        <ele>163</ele>
        <time>2021-05-14T14:18:57Z</time>
      </trkpt>
      <trkpt lat="43.60992" lon="3.69862">
        <ele>163</ele>
        <time>2021-05-14T14:18:59Z</time>
      </trkpt>
      <trkpt lat="43.60992" lon="3.69867">
        <ele>163</ele>
        <time>2021-05-14T14:19:01Z</time>
      </trkpt>
      <trkpt lat="43.60993" lon="3.69872">
        <ele>163</ele>
        <time>2021-05-14T14:19:03Z</time>
      </trkpt>
      <trkpt lat="43.60994" lon="3.69875">
        <ele>163</ele>
        <time>2021-05-14T14:19:04Z</time>
      </trkpt>
      <trkpt lat="43.60994" lon="3.69877">
        <ele>163</ele>
        <time>2021-05-14T14:19:05Z</time>
      </trkpt>
      <trkpt lat="43.60994" lon="3.6988">
        <ele>163</ele>
        <time>2021-05-14T14:19:06Z</time>
      </trkpt>
      <trkpt lat="43.60995" lon="3.69882">
        <ele>163</ele>
        <time>2021-05-14T14:19:07Z</time>
      </trkpt>
      <trkpt lat="43.60996" lon="3.69885">
        <ele>163</ele>
        <time>2021-05-14T14:19:08Z</time>
      </trkpt>
      <trkpt lat="43.60996" lon="3.69888">
        <ele>163</ele>
        <time>2021-05-14T14:19:09Z</time>
      </trkpt>
      <trkpt lat="43.60998" lon="3.69893">
        <ele>164</ele>
        <time>2021-05-14T14:19:10Z</time>
      </trkpt>
      <trkpt lat="43.60998" lon="3.69895">
        <ele>164</ele>
        <time>2021-05-14T14:19:11Z</time>
      </trkpt>
      <trkpt lat="43.60999" lon="3.699">
        <ele>164</ele>
        <time>2021-05-14T14:19:13Z</time>
      </trkpt>
      <trkpt lat="43.60999" lon="3.69903">
        <ele>164</ele>
        <time>2021-05-14T14:19:14Z</time>
      </trkpt>
      <trkpt lat="43.60999" lon="3.69905">
        <ele>164</ele>
        <time>2021-05-14T14:19:15Z</time>
      </trkpt>
      <trkpt lat="43.60999" lon="3.69908">
        <ele>164</ele>
        <time>2021-05-14T14:19:16Z</time>
      </trkpt>
      <trkpt lat="43.60998" lon="3.69911">
        <ele>164</ele>
        <time>2021-05-14T14:19:17Z</time>
      </trkpt>
      <trkpt lat="43.60998" lon="3.69915">
        <ele>164</ele>
        <time>2021-05-14T14:19:19Z</time>
      </trkpt>
      <trkpt lat="43.60998" lon="3.69918">
        <ele>164</ele>
        <time>2021-05-14T14:19:21Z</time>
      </trkpt>
      <trkpt lat="43.60998" lon="3.6992">
        <ele>164</ele>
        <time>2021-05-14T14:19:22Z</time>
      </trkpt>
      <trkpt lat="43.60998" lon="3.69923">
        <ele>164</ele>
        <time>2021-05-14T14:19:23Z</time>
      </trkpt>
      <trkpt lat="43.60999" lon="3.69928">
        <ele>164</ele>
        <time>2021-05-14T14:19:25Z</time>
      </trkpt>
      <trkpt lat="43.61" lon="3.6993">
        <ele>164</ele>
        <time>2021-05-14T14:19:26Z</time>
      </trkpt>
      <trkpt lat="43.61" lon="3.69932">
        <ele>164</ele>
        <time>2021-05-14T14:19:27Z</time>
      </trkpt>
      <trkpt lat="43.61001" lon="3.69935">
        <ele>164</ele>
        <time>2021-05-14T14:19:28Z</time>
      </trkpt>
      <trkpt lat="43.61001" lon="3.69937">
        <ele>164</ele>
        <time>2021-05-14T14:19:29Z</time>
      </trkpt>
      <trkpt lat="43.61002" lon="3.6994">
        <ele>165</ele>
        <time>2021-05-14T14:19:30Z</time>
      </trkpt>
      <trkpt lat="43.61003" lon="3.69942">
        <ele>165</ele>
        <time>2021-05-14T14:19:31Z</time>
      </trkpt>
      <trkpt lat="43.61004" lon="3.69947">
        <ele>165</ele>
        <time>2021-05-14T14:19:32Z</time>
      </trkpt>
      <trkpt lat="43.61005" lon="3.6995">
        <ele>165</ele>
        <time>2021-05-14T14:19:33Z</time>
      </trkpt>
      <trkpt lat="43.61006" lon="3.69954">
        <ele>165</ele>
        <time>2021-05-14T14:19:35Z</time>
      </trkpt>
      <trkpt lat="43.61007" lon="3.69958">
        <ele>165</ele>
        <time>2021-05-14T14:19:37Z</time>
      </trkpt>
      <trkpt lat="43.61008" lon="3.69961">
        <ele>165</ele>
        <time>2021-05-14T14:19:38Z</time>
      </trkpt>
      <trkpt lat="43.61009" lon="3.69965">
        <ele>166</ele>
        <time>2021-05-14T14:19:40Z</time>
      </trkpt>
      <trkpt lat="43.61011" lon="3.6997">
        <ele>166</ele>
        <time>2021-05-14T14:19:42Z</time>
      </trkpt>
      <trkpt lat="43.61012" lon="3.69972">
        <ele>166</ele>
        <time>2021-05-14T14:19:43Z</time>
      </trkpt>
      <trkpt lat="43.61012" lon="3.69975">
        <ele>166</ele>
        <time>2021-05-14T14:19:44Z</time>
      </trkpt>
      <trkpt lat="43.61013" lon="3.69977">
        <ele>166</ele>
        <time>2021-05-14T14:19:45Z</time>
      </trkpt>
      <trkpt lat="43.61014" lon="3.6998">
        <ele>166</ele>
        <time>2021-05-14T14:19:46Z</time>
      </trkpt>
      <trkpt lat="43.61015" lon="3.69984">
        <ele>166</ele>
        <time>2021-05-14T14:19:48Z</time>
      </trkpt>
      <trkpt lat="43.61016" lon="3.69987">
        <ele>166</ele>
        <time>2021-05-14T14:19:49Z</time>
      </trkpt>
      <trkpt lat="43.61017" lon="3.69989">
        <ele>166</ele>
        <time>2021-05-14T14:19:50Z</time>
      </trkpt>
      <trkpt lat="43.61017" lon="3.69992">
        <ele>166</ele>
        <time>2021-05-14T14:19:51Z</time>
      </trkpt>
      <trkpt lat="43.61018" lon="3.69994">
        <ele>166</ele>
        <time>2021-05-14T14:19:53Z</time>
      </trkpt>
      <trkpt lat="43.61019" lon="3.69997">
        <ele>166</ele>
        <time>2021-05-14T14:19:54Z</time>
      </trkpt>
      <trkpt lat="43.61019" lon="3.69999">
        <ele>166</ele>
        <time>2021-05-14T14:19:55Z</time>
      </trkpt>
      <trkpt lat="43.6102" lon="3.70001">
        <ele>166</ele>
        <time>2021-05-14T14:19:56Z</time>
      </trkpt>
      <trkpt lat="43.61021" lon="3.70004">
        <ele>166</ele>
        <time>2021-05-14T14:19:57Z</time>
      </trkpt>
      <trkpt lat="43.61021" lon="3.70007">
        <ele>166</ele>
        <time>2021-05-14T14:19:58Z</time>
      </trkpt>
      <trkpt lat="43.61022" lon="3.70009">
        <ele>166</ele>
        <time>2021-05-14T14:19:59Z</time>
      </trkpt>
      <trkpt lat="43.61023" lon="3.70012">
        <ele>166</ele>
        <time>2021-05-14T14:20:00Z</time>
      </trkpt>
      <trkpt lat="43.61024" lon="3.70014">
        <ele>166</ele>
        <time>2021-05-14T14:20:01Z</time>
      </trkpt>
      <trkpt lat="43.61024" lon="3.70016">
        <ele>166</ele>
        <time>2021-05-14T14:20:02Z</time>
      </trkpt>
      <trkpt lat="43.61025" lon="3.70019">
        <ele>166</ele>
        <time>2021-05-14T14:20:03Z</time>
      </trkpt>
      <trkpt lat="43.61026" lon="3.70021">
        <ele>166</ele>
        <time>2021-05-14T14:20:04Z</time>
      </trkpt>
      <trkpt lat="43.61027" lon="3.70024">
        <ele>166</ele>
        <time>2021-05-14T14:20:05Z</time>
      </trkpt>
      <trkpt lat="43.61027" lon="3.70026">
        <ele>166</ele>
        <time>2021-05-14T14:20:06Z</time>
      </trkpt>
      <trkpt lat="43.61028" lon="3.70028">
        <ele>166</ele>
        <time>2021-05-14T14:20:07Z</time>
      </trkpt>
      <trkpt lat="43.61029" lon="3.70031">
        <ele>166</ele>
        <time>2021-05-14T14:20:08Z</time>
      </trkpt>
      <trkpt lat="43.61029" lon="3.70033">
        <ele>166</ele>
        <time>2021-05-14T14:20:09Z</time>
      </trkpt>
      <trkpt lat="43.61031" lon="3.70038">
        <ele>167</ele>
        <time>2021-05-14T14:20:10Z</time>
      </trkpt>
      <trkpt lat="43.61031" lon="3.70041">
        <ele>167</ele>
        <time>2021-05-14T14:20:11Z</time>
      </trkpt>
      <trkpt lat="43.61032" lon="3.70044">
        <ele>167</ele>
        <time>2021-05-14T14:20:12Z</time>
      </trkpt>
      <trkpt lat="43.61032" lon="3.70046">
        <ele>167</ele>
        <time>2021-05-14T14:20:13Z</time>
      </trkpt>
      <trkpt lat="43.61032" lon="3.70049">
        <ele>167</ele>
        <time>2021-05-14T14:20:14Z</time>
      </trkpt>
      <trkpt lat="43.61033" lon="3.70051">
        <ele>167</ele>
        <time>2021-05-14T14:20:15Z</time>
      </trkpt>
      <trkpt lat="43.61033" lon="3.70054">
        <ele>167</ele>
        <time>2021-05-14T14:20:16Z</time>
      </trkpt>
      <trkpt lat="43.61033" lon="3.70056">
        <ele>167</ele>
        <time>2021-05-14T14:20:17Z</time>
      </trkpt>
      <trkpt lat="43.61033" lon="3.70059">
        <ele>167</ele>
        <time>2021-05-14T14:20:18Z</time>
      </trkpt>
      <trkpt lat="43.61034" lon="3.70064">
        <ele>168</ele>
        <time>2021-05-14T14:20:20Z</time>
      </trkpt>
      <trkpt lat="43.61034" lon="3.70066">
        <ele>168</ele>
        <time>2021-05-14T14:20:21Z</time>
      </trkpt>
      <trkpt lat="43.61035" lon="3.70071">
        <ele>168</ele>
        <time>2021-05-14T14:20:23Z</time>
      </trkpt>
      <trkpt lat="43.61036" lon="3.70076">
        <ele>168</ele>
        <time>2021-05-14T14:20:26Z</time>
      </trkpt>
      <trkpt lat="43.61037" lon="3.7008">
        <ele>168</ele>
        <time>2021-05-14T14:20:27Z</time>
      </trkpt>
      <trkpt lat="43.61037" lon="3.70083">
        <ele>168</ele>
        <time>2021-05-14T14:20:28Z</time>
      </trkpt>
      <trkpt lat="43.61038" lon="3.70087">
        <ele>169</ele>
        <time>2021-05-14T14:20:30Z</time>
      </trkpt>
      <trkpt lat="43.61039" lon="3.70092">
        <ele>169</ele>
        <time>2021-05-14T14:20:32Z</time>
      </trkpt>
      <trkpt lat="43.6104" lon="3.70097">
        <ele>169</ele>
        <time>2021-05-14T14:20:34Z</time>
      </trkpt>
      <trkpt lat="43.6104" lon="3.70099">
        <ele>169</ele>
        <time>2021-05-14T14:20:35Z</time>
      </trkpt>
      <trkpt lat="43.6104" lon="3.70102">
        <ele>169</ele>
        <time>2021-05-14T14:20:36Z</time>
      </trkpt>
      <trkpt lat="43.61041" lon="3.70104">
        <ele>169</ele>
        <time>2021-05-14T14:20:37Z</time>
      </trkpt>
      <trkpt lat="43.61041" lon="3.70107">
        <ele>169</ele>
        <time>2021-05-14T14:20:38Z</time>
      </trkpt>
      <trkpt lat="43.61041" lon="3.70109">
        <ele>169</ele>
        <time>2021-05-14T14:20:39Z</time>
      </trkpt>
      <trkpt lat="43.61043" lon="3.70114">
        <ele>169</ele>
        <time>2021-05-14T14:20:41Z</time>
      </trkpt>
      <trkpt lat="43.61044" lon="3.70118">
        <ele>169</ele>
        <time>2021-05-14T14:20:44Z</time>
      </trkpt>
      <trkpt lat="43.61045" lon="3.70123">
        <ele>169</ele>
        <time>2021-05-14T14:20:46Z</time>
      </trkpt>
      <trkpt lat="43.61046" lon="3.70127">
        <ele>169</ele>
        <time>2021-05-14T14:20:48Z</time>
      </trkpt>
      <trkpt lat="43.61047" lon="3.70131">
        <ele>172</ele>
        <time>2021-05-14T14:20:50Z</time>
      </trkpt>
      <trkpt lat="43.61048" lon="3.70136">
        <ele>172</ele>
        <time>2021-05-14T14:20:51Z</time>
      </trkpt>
      <trkpt lat="43.61049" lon="3.70139">
        <ele>172</ele>
        <time>2021-05-14T14:20:52Z</time>
      </trkpt>
      <trkpt lat="43.61049" lon="3.70141">
        <ele>172</ele>
        <time>2021-05-14T14:20:53Z</time>
      </trkpt>
      <trkpt lat="43.6105" lon="3.70144">
        <ele>172</ele>
        <time>2021-05-14T14:20:54Z</time>
      </trkpt>
      <trkpt lat="43.61051" lon="3.70146">
        <ele>172</ele>
        <time>2021-05-14T14:20:55Z</time>
      </trkpt>
      <trkpt lat="43.61051" lon="3.70149">
        <ele>172</ele>
        <time>2021-05-14T14:20:56Z</time>
      </trkpt>
      <trkpt lat="43.61052" lon="3.70152">
        <ele>172</ele>
        <time>2021-05-14T14:20:57Z</time>
      </trkpt>
      <trkpt lat="43.61053" lon="3.70154">
        <ele>172</ele>
        <time>2021-05-14T14:20:58Z</time>
      </trkpt>
      <trkpt lat="43.61053" lon="3.70157">
        <ele>172</ele>
        <time>2021-05-14T14:20:59Z</time>
      </trkpt>
      <trkpt lat="43.61054" lon="3.70159">
        <ele>173</ele>
        <time>2021-05-14T14:21:00Z</time>
      </trkpt>
      <trkpt lat="43.61054" lon="3.70162">
        <ele>173</ele>
        <time>2021-05-14T14:21:02Z</time>
      </trkpt>
      <trkpt lat="43.61055" lon="3.70165">
        <ele>173</ele>
        <time>2021-05-14T14:21:03Z</time>
      </trkpt>
      <trkpt lat="43.61056" lon="3.70168">
        <ele>173</ele>
        <time>2021-05-14T14:21:04Z</time>
      </trkpt>
      <trkpt lat="43.61057" lon="3.70173">
        <ele>173</ele>
        <time>2021-05-14T14:21:05Z</time>
      </trkpt>
      <trkpt lat="43.61057" lon="3.70176">
        <ele>173</ele>
        <time>2021-05-14T14:21:06Z</time>
      </trkpt>
      <trkpt lat="43.61058" lon="3.70179">
        <ele>173</ele>
        <time>2021-05-14T14:21:07Z</time>
      </trkpt>
      <trkpt lat="43.61058" lon="3.70181">
        <ele>173</ele>
        <time>2021-05-14T14:21:08Z</time>
      </trkpt>
      <trkpt lat="43.61059" lon="3.70184">
        <ele>173</ele>
        <time>2021-05-14T14:21:09Z</time>
      </trkpt>
      <trkpt lat="43.6106" lon="3.70187">
        <ele>174</ele>
        <time>2021-05-14T14:21:10Z</time>
      </trkpt>
      <trkpt lat="43.6106" lon="3.70189">
        <ele>174</ele>
        <time>2021-05-14T14:21:11Z</time>
      </trkpt>
      <trkpt lat="43.61061" lon="3.70192">
        <ele>174</ele>
        <time>2021-05-14T14:21:12Z</time>
      </trkpt>
      <trkpt lat="43.61061" lon="3.70195">
        <ele>174</ele>
        <time>2021-05-14T14:21:13Z</time>
      </trkpt>
      <trkpt lat="43.61062" lon="3.70198">
        <ele>174</ele>
        <time>2021-05-14T14:21:14Z</time>
      </trkpt>
      <trkpt lat="43.61062" lon="3.702">
        <ele>174</ele>
        <time>2021-05-14T14:21:15Z</time>
      </trkpt>
      <trkpt lat="43.61063" lon="3.70203">
        <ele>174</ele>
        <time>2021-05-14T14:21:16Z</time>
      </trkpt>
      <trkpt lat="43.61063" lon="3.70206">
        <ele>174</ele>
        <time>2021-05-14T14:21:17Z</time>
      </trkpt>
      <trkpt lat="43.61064" lon="3.70209">
        <ele>174</ele>
        <time>2021-05-14T14:21:18Z</time>
      </trkpt>
      <trkpt lat="43.61065" lon="3.70211">
        <ele>174</ele>
        <time>2021-05-14T14:21:19Z</time>
      </trkpt>
      <trkpt lat="43.61065" lon="3.70214">
        <ele>174</ele>
        <time>2021-05-14T14:21:21Z</time>
      </trkpt>
      <trkpt lat="43.61066" lon="3.70216">
        <ele>174</ele>
        <time>2021-05-14T14:21:22Z</time>
      </trkpt>
      <trkpt lat="43.61066" lon="3.70219">
        <ele>174</ele>
        <time>2021-05-14T14:21:23Z</time>
      </trkpt>
      <trkpt lat="43.61067" lon="3.70222">
        <ele>174</ele>
        <time>2021-05-14T14:21:24Z</time>
      </trkpt>
      <trkpt lat="43.61067" lon="3.70224">
        <ele>174</ele>
        <time>2021-05-14T14:21:25Z</time>
      </trkpt>
      <trkpt lat="43.61068" lon="3.70227">
        <ele>174</ele>
        <time>2021-05-14T14:21:26Z</time>
      </trkpt>
      <trkpt lat="43.61069" lon="3.70229">
        <ele>174</ele>
        <time>2021-05-14T14:21:27Z</time>
      </trkpt>
      <trkpt lat="43.61069" lon="3.70232">
        <ele>174</ele>
        <time>2021-05-14T14:21:28Z</time>
      </trkpt>
      <trkpt lat="43.6107" lon="3.70234">
        <ele>174</ele>
        <time>2021-05-14T14:21:29Z</time>
      </trkpt>
      <trkpt lat="43.61071" lon="3.70237">
        <ele>175</ele>
        <time>2021-05-14T14:21:30Z</time>
      </trkpt>
      <trkpt lat="43.61072" lon="3.7024">
        <ele>175</ele>
        <time>2021-05-14T14:21:31Z</time>
      </trkpt>
      <trkpt lat="43.61073" lon="3.70242">
        <ele>175</ele>
        <time>2021-05-14T14:21:32Z</time>
      </trkpt>
      <trkpt lat="43.61074" lon="3.70245">
        <ele>175</ele>
        <time>2021-05-14T14:21:33Z</time>
      </trkpt>
      <trkpt lat="43.61075" lon="3.70248">
        <ele>175</ele>
        <time>2021-05-14T14:21:34Z</time>
      </trkpt>
      <trkpt lat="43.61076" lon="3.7025">
        <ele>175</ele>
        <time>2021-05-14T14:21:35Z</time>
      </trkpt>
      <trkpt lat="43.61077" lon="3.70253">
        <ele>175</ele>
        <time>2021-05-14T14:21:36Z</time>
      </trkpt>
      <trkpt lat="43.61078" lon="3.70256">
        <ele>175</ele>
        <time>2021-05-14T14:21:37Z</time>
      </trkpt>
      <trkpt lat="43.61079" lon="3.70259">
        <ele>175</ele>
        <time>2021-05-14T14:21:38Z</time>
      </trkpt>
      <trkpt lat="43.6108" lon="3.70263">
        <ele>175</ele>
        <time>2021-05-14T14:21:39Z</time>
      </trkpt>
      <trkpt lat="43.61083" lon="3.70269">
        <ele>175</ele>
        <time>2021-05-14T14:21:40Z</time>
      </trkpt>
      <trkpt lat="43.61083" lon="3.70272">
        <ele>175</ele>
        <time>2021-05-14T14:21:41Z</time>
      </trkpt>
      <trkpt lat="43.61084" lon="3.70275">
        <ele>175</ele>
        <time>2021-05-14T14:21:42Z</time>
      </trkpt>
      <trkpt lat="43.61086" lon="3.70278">
        <ele>175</ele>
        <time>2021-05-14T14:21:43Z</time>
      </trkpt>
      <trkpt lat="43.61087" lon="3.70281">
        <ele>175</ele>
        <time>2021-05-14T14:21:44Z</time>
      </trkpt>
      <trkpt lat="43.61088" lon="3.70285">
        <ele>175</ele>
        <time>2021-05-14T14:21:45Z</time>
      </trkpt>
      <trkpt lat="43.61088" lon="3.70288">
        <ele>175</ele>
        <time>2021-05-14T14:21:46Z</time>
      </trkpt>
      <trkpt lat="43.61089" lon="3.7029">
        <ele>175</ele>
        <time>2021-05-14T14:21:47Z</time>
      </trkpt>
      <trkpt lat="43.6109" lon="3.70294">
        <ele>175</ele>
        <time>2021-05-14T14:21:48Z</time>
      </trkpt>
      <trkpt lat="43.6109" lon="3.70297">
        <ele>175</ele>
        <time>2021-05-14T14:21:49Z</time>
      </trkpt>
      <trkpt lat="43.61091" lon="3.703">
        <ele>175</ele>
        <time>2021-05-14T14:21:51Z</time>
      </trkpt>
      <trkpt lat="43.61092" lon="3.70303">
        <ele>175</ele>
        <time>2021-05-14T14:21:52Z</time>
      </trkpt>
      <trkpt lat="43.61092" lon="3.70305">
        <ele>175</ele>
        <time>2021-05-14T14:21:53Z</time>
      </trkpt>
      <trkpt lat="43.61093" lon="3.70308">
        <ele>175</ele>
        <time>2021-05-14T14:21:54Z</time>
      </trkpt>
      <trkpt lat="43.61094" lon="3.70311">
        <ele>175</ele>
        <time>2021-05-14T14:21:55Z</time>
      </trkpt>
      <trkpt lat="43.61095" lon="3.70314">
        <ele>175</ele>
        <time>2021-05-14T14:21:56Z</time>
      </trkpt>
      <trkpt lat="43.61097" lon="3.70317">
        <ele>175</ele>
        <time>2021-05-14T14:21:57Z</time>
      </trkpt>
      <trkpt lat="43.61098" lon="3.7032">
        <ele>175</ele>
        <time>2021-05-14T14:21:58Z</time>
      </trkpt>
      <trkpt lat="43.611" lon="3.70323">
        <ele>175</ele>
        <time>2021-05-14T14:21:59Z</time>
      </trkpt>
      <trkpt lat="43.61102" lon="3.70325">
        <ele>178</ele>
        <time>2021-05-14T14:22:00Z</time>
      </trkpt>
      <trkpt lat="43.61104" lon="3.70327">
        <ele>178</ele>
        <time>2021-05-14T14:22:01Z</time>
      </trkpt>
      <trkpt lat="43.61107" lon="3.7033">
        <ele>178</ele>
        <time>2021-05-14T14:22:02Z</time>
      </trkpt>
      <trkpt lat="43.61109" lon="3.70332">
        <ele>178</ele>
        <time>2021-05-14T14:22:03Z</time>
      </trkpt>
      <trkpt lat="43.61111" lon="3.70336">
        <ele>178</ele>
        <time>2021-05-14T14:22:04Z</time>
      </trkpt>
      <trkpt lat="43.61113" lon="3.70339">
        <ele>178</ele>
        <time>2021-05-14T14:22:05Z</time>
      </trkpt>
      <trkpt lat="43.61114" lon="3.70342">
        <ele>178</ele>
        <time>2021-05-14T14:22:06Z</time>
      </trkpt>
      <trkpt lat="43.61115" lon="3.70345">
        <ele>178</ele>
        <time>2021-05-14T14:22:07Z</time>
      </trkpt>
      <trkpt lat="43.61116" lon="3.70348">
        <ele>178</ele>
        <time>2021-05-14T14:22:08Z</time>
      </trkpt>
      <trkpt lat="43.61117" lon="3.70351">
        <ele>178</ele>
        <time>2021-05-14T14:22:09Z</time>
      </trkpt>
      <trkpt lat="43.61118" lon="3.70354">
        <ele>179</ele>
        <time>2021-05-14T14:22:10Z</time>
      </trkpt>
      <trkpt lat="43.6112" lon="3.70356">
        <ele>179</ele>
        <time>2021-05-14T14:22:11Z</time>
      </trkpt>
      <trkpt lat="43.61121" lon="3.70359">
        <ele>179</ele>
        <time>2021-05-14T14:22:12Z</time>
      </trkpt>
      <trkpt lat="43.61123" lon="3.7036">
        <ele>179</ele>
        <time>2021-05-14T14:22:13Z</time>
      </trkpt>
      <trkpt lat="43.61125" lon="3.70362">
        <ele>179</ele>
        <time>2021-05-14T14:22:14Z</time>
      </trkpt>
      <trkpt lat="43.61127" lon="3.70363">
        <ele>179</ele>
        <time>2021-05-14T14:22:15Z</time>
      </trkpt>
      <trkpt lat="43.61129" lon="3.70364">
        <ele>179</ele>
        <time>2021-05-14T14:22:16Z</time>
      </trkpt>
      <trkpt lat="43.61131" lon="3.70366">
        <ele>179</ele>
        <time>2021-05-14T14:22:17Z</time>
      </trkpt>
      <trkpt lat="43.61136" lon="3.70367">
        <ele>179</ele>
        <time>2021-05-14T14:22:18Z</time>
      </trkpt>
      <trkpt lat="43.61138" lon="3.70367">
        <ele>179</ele>
        <time>2021-05-14T14:22:19Z</time>
      </trkpt>
      <trkpt lat="43.61141" lon="3.70367">
        <ele>179</ele>
        <time>2021-05-14T14:22:20Z</time>
      </trkpt>
      <trkpt lat="43.61143" lon="3.70367">
        <ele>179</ele>
        <time>2021-05-14T14:22:21Z</time>
      </trkpt>
      <trkpt lat="43.61145" lon="3.70366">
        <ele>179</ele>
        <time>2021-05-14T14:22:22Z</time>
      </trkpt>
      <trkpt lat="43.61148" lon="3.70365">
        <ele>179</ele>
        <time>2021-05-14T14:22:24Z</time>
      </trkpt>
      <trkpt lat="43.6115" lon="3.70365">
        <ele>179</ele>
        <time>2021-05-14T14:22:25Z</time>
      </trkpt>
      <trkpt lat="43.61152" lon="3.70365">
        <ele>179</ele>
        <time>2021-05-14T14:22:26Z</time>
      </trkpt>
      <trkpt lat="43.61155" lon="3.70365">
        <ele>179</ele>
        <time>2021-05-14T14:22:27Z</time>
      </trkpt>
      <trkpt lat="43.61158" lon="3.70364">
        <ele>179</ele>
        <time>2021-05-14T14:22:29Z</time>
      </trkpt>
      <trkpt lat="43.6116" lon="3.70363">
        <ele>180</ele>
        <time>2021-05-14T14:22:30Z</time>
      </trkpt>
      <trkpt lat="43.61162" lon="3.70363">
        <ele>180</ele>
        <time>2021-05-14T14:22:31Z</time>
      </trkpt>
      <trkpt lat="43.61165" lon="3.70364">
        <ele>180</ele>
        <time>2021-05-14T14:22:32Z</time>
      </trkpt>
      <trkpt lat="43.61166" lon="3.70367">
        <ele>180</ele>
        <time>2021-05-14T14:22:33Z</time>
      </trkpt>
      <trkpt lat="43.61168" lon="3.70369">
        <ele>180</ele>
        <time>2021-05-14T14:22:34Z</time>
      </trkpt>
      <trkpt lat="43.6117" lon="3.70372">
        <ele>180</ele>
        <time>2021-05-14T14:22:35Z</time>
      </trkpt>
      <trkpt lat="43.61172" lon="3.70375">
        <ele>180</ele>
        <time>2021-05-14T14:22:36Z</time>
      </trkpt>
      <trkpt lat="43.61174" lon="3.70378">
        <ele>180</ele>
        <time>2021-05-14T14:22:37Z</time>
      </trkpt>
      <trkpt lat="43.61176" lon="3.70381">
        <ele>180</ele>
        <time>2021-05-14T14:22:38Z</time>
      </trkpt>
      <trkpt lat="43.61178" lon="3.70384">
        <ele>180</ele>
        <time>2021-05-14T14:22:39Z</time>
      </trkpt>
      <trkpt lat="43.6118" lon="3.70387">
        <ele>181</ele>
        <time>2021-05-14T14:22:40Z</time>
      </trkpt>
      <trkpt lat="43.61182" lon="3.7039">
        <ele>181</ele>
        <time>2021-05-14T14:22:41Z</time>
      </trkpt>
      <trkpt lat="43.61186" lon="3.70395">
        <ele>181</ele>
        <time>2021-05-14T14:22:42Z</time>
      </trkpt>
      <trkpt lat="43.61188" lon="3.70397">
        <ele>181</ele>
        <time>2021-05-14T14:22:43Z</time>
      </trkpt>
      <trkpt lat="43.6119" lon="3.70399">
        <ele>181</ele>
        <time>2021-05-14T14:22:44Z</time>
      </trkpt>
      <trkpt lat="43.61193" lon="3.70402">
        <ele>181</ele>
        <time>2021-05-14T14:22:45Z</time>
      </trkpt>
      <trkpt lat="43.61195" lon="3.70404">
        <ele>181</ele>
        <time>2021-05-14T14:22:46Z</time>
      </trkpt>
      <trkpt lat="43.61197" lon="3.70407">
        <ele>181</ele>
        <time>2021-05-14T14:22:47Z</time>
      </trkpt>
      <trkpt lat="43.612" lon="3.70409">
        <ele>181</ele>
        <time>2021-05-14T14:22:48Z</time>
      </trkpt>
      <trkpt lat="43.61202" lon="3.70412">
        <ele>181</ele>
        <time>2021-05-14T14:22:49Z</time>
      </trkpt>
      <trkpt lat="43.61205" lon="3.70416">
        <ele>181</ele>
        <time>2021-05-14T14:22:50Z</time>
      </trkpt>
      <trkpt lat="43.61207" lon="3.70418">
        <ele>181</ele>
        <time>2021-05-14T14:22:51Z</time>
      </trkpt>
      <trkpt lat="43.61209" lon="3.70422">
        <ele>181</ele>
        <time>2021-05-14T14:22:52Z</time>
      </trkpt>
      <trkpt lat="43.61212" lon="3.70425">
        <ele>181</ele>
        <time>2021-05-14T14:22:53Z</time>
      </trkpt>
      <trkpt lat="43.61216" lon="3.70431">
        <ele>181</ele>
        <time>2021-05-14T14:22:55Z</time>
      </trkpt>
      <trkpt lat="43.61218" lon="3.70435">
        <ele>181</ele>
        <time>2021-05-14T14:22:56Z</time>
      </trkpt>
      <trkpt lat="43.6122" lon="3.70439">
        <ele>181</ele>
        <time>2021-05-14T14:22:57Z</time>
      </trkpt>
      <trkpt lat="43.61222" lon="3.70443">
        <ele>181</ele>
        <time>2021-05-14T14:22:59Z</time>
      </trkpt>
      <trkpt lat="43.61224" lon="3.70448">
        <ele>182</ele>
        <time>2021-05-14T14:23:00Z</time>
      </trkpt>
      <trkpt lat="43.61225" lon="3.70452">
        <ele>182</ele>
        <time>2021-05-14T14:23:01Z</time>
      </trkpt>
      <trkpt lat="43.61227" lon="3.70457">
        <ele>182</ele>
        <time>2021-05-14T14:23:02Z</time>
      </trkpt>
      <trkpt lat="43.61229" lon="3.70461">
        <ele>182</ele>
        <time>2021-05-14T14:23:03Z</time>
      </trkpt>
      <trkpt lat="43.61232" lon="3.7047">
        <ele>182</ele>
        <time>2021-05-14T14:23:04Z</time>
      </trkpt>
      <trkpt lat="43.61233" lon="3.70474">
        <ele>182</ele>
        <time>2021-05-14T14:23:05Z</time>
      </trkpt>
      <trkpt lat="43.61235" lon="3.70478">
        <ele>182</ele>
        <time>2021-05-14T14:23:06Z</time>
      </trkpt>
      <trkpt lat="43.61237" lon="3.70482">
        <ele>182</ele>
        <time>2021-05-14T14:23:07Z</time>
      </trkpt>
      <trkpt lat="43.61238" lon="3.70486">
        <ele>182</ele>
        <time>2021-05-14T14:23:08Z</time>
      </trkpt>
      <trkpt lat="43.6124" lon="3.7049">
        <ele>182</ele>
        <time>2021-05-14T14:23:09Z</time>
      </trkpt>
      <trkpt lat="43.61242" lon="3.70494">
        <ele>183</ele>
        <time>2021-05-14T14:23:10Z</time>
      </trkpt>
      <trkpt lat="43.61243" lon="3.70498">
        <ele>183</ele>
        <time>2021-05-14T14:23:11Z</time>
      </trkpt>
      <trkpt lat="43.61245" lon="3.70502">
        <ele>183</ele>
        <time>2021-05-14T14:23:12Z</time>
      </trkpt>
      <trkpt lat="43.61247" lon="3.70506">
        <ele>183</ele>
        <time>2021-05-14T14:23:13Z</time>
      </trkpt>
      <trkpt lat="43.61248" lon="3.70509">
        <ele>183</ele>
        <time>2021-05-14T14:23:14Z</time>
      </trkpt>
      <trkpt lat="43.6125" lon="3.70513">
        <ele>183</ele>
        <time>2021-05-14T14:23:15Z</time>
      </trkpt>
      <trkpt lat="43.61251" lon="3.70517">
        <ele>183</ele>
        <time>2021-05-14T14:23:16Z</time>
      </trkpt>
      <trkpt lat="43.61253" lon="3.70521">
        <ele>183</ele>
        <time>2021-05-14T14:23:17Z</time>
      </trkpt>
      <trkpt lat="43.61254" lon="3.70525">
        <ele>183</ele>
        <time>2021-05-14T14:23:18Z</time>
      </trkpt>
      <trkpt lat="43.61255" lon="3.70528">
        <ele>183</ele>
        <time>2021-05-14T14:23:19Z</time>
      </trkpt>
      <trkpt lat="43.61256" lon="3.70532">
        <ele>184</ele>
        <time>2021-05-14T14:23:20Z</time>
      </trkpt>
      <trkpt lat="43.61257" lon="3.70536">
        <ele>184</ele>
        <time>2021-05-14T14:23:21Z</time>
      </trkpt>
      <trkpt lat="43.61257" lon="3.70539">
        <ele>184</ele>
        <time>2021-05-14T14:23:22Z</time>
      </trkpt>
      <trkpt lat="43.61258" lon="3.70543">
        <ele>184</ele>
        <time>2021-05-14T14:23:23Z</time>
      </trkpt>
      <trkpt lat="43.61258" lon="3.70547">
        <ele>184</ele>
        <time>2021-05-14T14:23:24Z</time>
      </trkpt>
      <trkpt lat="43.61259" lon="3.70551">
        <ele>184</ele>
        <time>2021-05-14T14:23:25Z</time>
      </trkpt>
      <trkpt lat="43.61259" lon="3.70555">
        <ele>184</ele>
        <time>2021-05-14T14:23:26Z</time>
      </trkpt>
      <trkpt lat="43.6126" lon="3.70559">
        <ele>184</ele>
        <time>2021-05-14T14:23:27Z</time>
      </trkpt>
      <trkpt lat="43.61261" lon="3.70563">
        <ele>184</ele>
        <time>2021-05-14T14:23:28Z</time>
      </trkpt>
      <trkpt lat="43.61261" lon="3.70567">
        <ele>184</ele>
        <time>2021-05-14T14:23:29Z</time>
      </trkpt>
      <trkpt lat="43.61262" lon="3.70571">
        <ele>185</ele>
        <time>2021-05-14T14:23:30Z</time>
      </trkpt>
      <trkpt lat="43.61263" lon="3.70575">
        <ele>185</ele>
        <time>2021-05-14T14:23:31Z</time>
      </trkpt>
      <trkpt lat="43.61264" lon="3.70579">
        <ele>185</ele>
        <time>2021-05-14T14:23:32Z</time>
      </trkpt>
      <trkpt lat="43.61267" lon="3.70587">
        <ele>185</ele>
        <time>2021-05-14T14:23:34Z</time>
      </trkpt>
      <trkpt lat="43.61268" lon="3.7059">
        <ele>185</ele>
        <time>2021-05-14T14:23:35Z</time>
      </trkpt>
      <trkpt lat="43.6127" lon="3.70594">
        <ele>185</ele>
        <time>2021-05-14T14:23:36Z</time>
      </trkpt>
      <trkpt lat="43.61273" lon="3.70602">
        <ele>185</ele>
        <time>2021-05-14T14:23:38Z</time>
      </trkpt>
      <trkpt lat="43.61274" lon="3.70606">
        <ele>185</ele>
        <time>2021-05-14T14:23:39Z</time>
      </trkpt>
      <trkpt lat="43.61275" lon="3.7061">
        <ele>187</ele>
        <time>2021-05-14T14:23:40Z</time>
      </trkpt>
      <trkpt lat="43.61277" lon="3.70614">
        <ele>187</ele>
        <time>2021-05-14T14:23:41Z</time>
      </trkpt>
      <trkpt lat="43.61278" lon="3.70618">
        <ele>187</ele>
        <time>2021-05-14T14:23:42Z</time>
      </trkpt>
      <trkpt lat="43.6128" lon="3.70622">
        <ele>187</ele>
        <time>2021-05-14T14:23:43Z</time>
      </trkpt>
      <trkpt lat="43.61281" lon="3.70626">
        <ele>187</ele>
        <time>2021-05-14T14:23:44Z</time>
      </trkpt>
      <trkpt lat="43.61282" lon="3.7063">
        <ele>187</ele>
        <time>2021-05-14T14:23:45Z</time>
      </trkpt>
      <trkpt lat="43.61283" lon="3.70634">
        <ele>187</ele>
        <time>2021-05-14T14:23:46Z</time>
      </trkpt>
      <trkpt lat="43.61285" lon="3.70638">
        <ele>187</ele>
        <time>2021-05-14T14:23:47Z</time>
      </trkpt>
      <trkpt lat="43.61286" lon="3.70642">
        <ele>187</ele>
        <time>2021-05-14T14:23:48Z</time>
      </trkpt>
      <trkpt lat="43.61287" lon="3.70646">
        <ele>187</ele>
        <time>2021-05-14T14:23:49Z</time>
      </trkpt>
      <trkpt lat="43.61288" lon="3.7065">
        <ele>188</ele>
        <time>2021-05-14T14:23:50Z</time>
      </trkpt>
      <trkpt lat="43.6129" lon="3.70654">
        <ele>188</ele>
        <time>2021-05-14T14:23:51Z</time>
      </trkpt>
      <trkpt lat="43.61291" lon="3.70658">
        <ele>188</ele>
        <time>2021-05-14T14:23:52Z</time>
      </trkpt>
      <trkpt lat="43.61293" lon="3.70661">
        <ele>188</ele>
        <time>2021-05-14T14:23:53Z</time>
      </trkpt>
      <trkpt lat="43.61294" lon="3.70666">
        <ele>188</ele>
        <time>2021-05-14T14:23:54Z</time>
      </trkpt>
      <trkpt lat="43.61295" lon="3.7067">
        <ele>188</ele>
        <time>2021-05-14T14:23:55Z</time>
      </trkpt>
      <trkpt lat="43.61297" lon="3.70674">
        <ele>188</ele>
        <time>2021-05-14T14:23:56Z</time>
      </trkpt>
      <trkpt lat="43.61298" lon="3.70678">
        <ele>188</ele>
        <time>2021-05-14T14:23:57Z</time>
      </trkpt>
      <trkpt lat="43.613" lon="3.70682">
        <ele>188</ele>
        <time>2021-05-14T14:23:58Z</time>
      </trkpt>
      <trkpt lat="43.61301" lon="3.70686">
        <ele>188</ele>
        <time>2021-05-14T14:23:59Z</time>
      </trkpt>
      <trkpt lat="43.61303" lon="3.70691">
        <ele>188</ele>
        <time>2021-05-14T14:24:00Z</time>
      </trkpt>
      <trkpt lat="43.61304" lon="3.70695">
        <ele>188</ele>
        <time>2021-05-14T14:24:01Z</time>
      </trkpt>
      <trkpt lat="43.61306" lon="3.70698">
        <ele>188</ele>
        <time>2021-05-14T14:24:02Z</time>
      </trkpt>
      <trkpt lat="43.61307" lon="3.70702">
        <ele>188</ele>
        <time>2021-05-14T14:24:03Z</time>
      </trkpt>
      <trkpt lat="43.61308" lon="3.70705">
        <ele>188</ele>
        <time>2021-05-14T14:24:04Z</time>
      </trkpt>
      <trkpt lat="43.6131" lon="3.70709">
        <ele>188</ele>
        <time>2021-05-14T14:24:05Z</time>
      </trkpt>
      <trkpt lat="43.61312" lon="3.70712">
        <ele>188</ele>
        <time>2021-05-14T14:24:06Z</time>
      </trkpt>
      <trkpt lat="43.61314" lon="3.70716">
        <ele>188</ele>
        <time>2021-05-14T14:24:07Z</time>
      </trkpt>
      <trkpt lat="43.61316" lon="3.7072">
        <ele>188</ele>
        <time>2021-05-14T14:24:08Z</time>
      </trkpt>
      <trkpt lat="43.61318" lon="3.70724">
        <ele>188</ele>
        <time>2021-05-14T14:24:09Z</time>
      </trkpt>
      <trkpt lat="43.61319" lon="3.70728">
        <ele>189</ele>
        <time>2021-05-14T14:24:10Z</time>
      </trkpt>
      <trkpt lat="43.61321" lon="3.70732">
        <ele>189</ele>
        <time>2021-05-14T14:24:11Z</time>
      </trkpt>
      <trkpt lat="43.61325" lon="3.70742">
        <ele>189</ele>
        <time>2021-05-14T14:24:13Z</time>
      </trkpt>
      <trkpt lat="43.61327" lon="3.70746">
        <ele>189</ele>
        <time>2021-05-14T14:24:14Z</time>
      </trkpt>
      <trkpt lat="43.61329" lon="3.70751">
        <ele>189</ele>
        <time>2021-05-14T14:24:15Z</time>
      </trkpt>
      <trkpt lat="43.61332" lon="3.70756">
        <ele>189</ele>
        <time>2021-05-14T14:24:16Z</time>
      </trkpt>
      <trkpt lat="43.61336" lon="3.70767">
        <ele>189</ele>
        <time>2021-05-14T14:24:18Z</time>
      </trkpt>
      <trkpt lat="43.61339" lon="3.70773">
        <ele>189</ele>
        <time>2021-05-14T14:24:19Z</time>
      </trkpt>
      <trkpt lat="43.61342" lon="3.70779">
        <ele>188</ele>
        <time>2021-05-14T14:24:20Z</time>
      </trkpt>
      <trkpt lat="43.61344" lon="3.70785">
        <ele>188</ele>
        <time>2021-05-14T14:24:22Z</time>
      </trkpt>
      <trkpt lat="43.61348" lon="3.7079">
        <ele>188</ele>
        <time>2021-05-14T14:24:23Z</time>
      </trkpt>
      <trkpt lat="43.61351" lon="3.70795">
        <ele>188</ele>
        <time>2021-05-14T14:24:24Z</time>
      </trkpt>
      <trkpt lat="43.61359" lon="3.70803">
        <ele>188</ele>
        <time>2021-05-14T14:24:25Z</time>
      </trkpt>
      <trkpt lat="43.61362" lon="3.70808">
        <ele>188</ele>
        <time>2021-05-14T14:24:26Z</time>
      </trkpt>
      <trkpt lat="43.61366" lon="3.70812">
        <ele>188</ele>
        <time>2021-05-14T14:24:27Z</time>
      </trkpt>
      <trkpt lat="43.6137" lon="3.70817">
        <ele>188</ele>
        <time>2021-05-14T14:24:28Z</time>
      </trkpt>
      <trkpt lat="43.61374" lon="3.70821">
        <ele>187</ele>
        <time>2021-05-14T14:24:30Z</time>
      </trkpt>
      <trkpt lat="43.61378" lon="3.70826">
        <ele>187</ele>
        <time>2021-05-14T14:24:31Z</time>
      </trkpt>
      <trkpt lat="43.61382" lon="3.70831">
        <ele>187</ele>
        <time>2021-05-14T14:24:32Z</time>
      </trkpt>
      <trkpt lat="43.61387" lon="3.70836">
        <ele>187</ele>
        <time>2021-05-14T14:24:33Z</time>
      </trkpt>
      <trkpt lat="43.61391" lon="3.7084">
        <ele>187</ele>
        <time>2021-05-14T14:24:34Z</time>
      </trkpt>
      <trkpt lat="43.61395" lon="3.70845">
        <ele>187</ele>
        <time>2021-05-14T14:24:35Z</time>
      </trkpt>
      <trkpt lat="43.61404" lon="3.70852">
        <ele>187</ele>
        <time>2021-05-14T14:24:36Z</time>
      </trkpt>
      <trkpt lat="43.61408" lon="3.70855">
        <ele>187</ele>
        <time>2021-05-14T14:24:38Z</time>
      </trkpt>
      <trkpt lat="43.61416" lon="3.7086">
        <ele>187</ele>
        <time>2021-05-14T14:24:39Z</time>
      </trkpt>
      <trkpt lat="43.6142" lon="3.70862">
        <ele>188</ele>
        <time>2021-05-14T14:24:40Z</time>
      </trkpt>
      <trkpt lat="43.61423" lon="3.70863">
        <ele>188</ele>
        <time>2021-05-14T14:24:41Z</time>
      </trkpt>
      <trkpt lat="43.61429" lon="3.70865">
        <ele>188</ele>
        <time>2021-05-14T14:24:43Z</time>
      </trkpt>
      <trkpt lat="43.61432" lon="3.70866">
        <ele>188</ele>
        <time>2021-05-14T14:24:44Z</time>
      </trkpt>
      <trkpt lat="43.61435" lon="3.70866">
        <ele>188</ele>
        <time>2021-05-14T14:24:45Z</time>
      </trkpt>
      <trkpt lat="43.61437" lon="3.70867">
        <ele>188</ele>
        <time>2021-05-14T14:24:46Z</time>
      </trkpt>
      <trkpt lat="43.6144" lon="3.70868">
        <ele>188</ele>
        <time>2021-05-14T14:24:48Z</time>
      </trkpt>
      <trkpt lat="43.61442" lon="3.70868">
        <ele>188</ele>
        <time>2021-05-14T14:24:49Z</time>
      </trkpt>
      <trkpt lat="43.61447" lon="3.70869">
        <ele>189</ele>
        <time>2021-05-14T14:24:50Z</time>
      </trkpt>
      <trkpt lat="43.61453" lon="3.7087">
        <ele>189</ele>
        <time>2021-05-14T14:24:52Z</time>
      </trkpt>
      <trkpt lat="43.61456" lon="3.70871">
        <ele>189</ele>
        <time>2021-05-14T14:24:53Z</time>
      </trkpt>
      <trkpt lat="43.61459" lon="3.70872">
        <ele>189</ele>
        <time>2021-05-14T14:24:54Z</time>
      </trkpt>
      <trkpt lat="43.61462" lon="3.70872">
        <ele>189</ele>
        <time>2021-05-14T14:24:55Z</time>
      </trkpt>
      <trkpt lat="43.61465" lon="3.70873">
        <ele>189</ele>
        <time>2021-05-14T14:24:56Z</time>
      </trkpt>
      <trkpt lat="43.61468" lon="3.70873">
        <ele>189</ele>
        <time>2021-05-14T14:24:57Z</time>
      </trkpt>
      <trkpt lat="43.6147" lon="3.70873">
        <ele>189</ele>
        <time>2021-05-14T14:24:58Z</time>
      </trkpt>
      <trkpt lat="43.61473" lon="3.70874">
        <ele>189</ele>
        <time>2021-05-14T14:24:59Z</time>
      </trkpt>
      <trkpt lat="43.61476" lon="3.70873">
        <ele>189</ele>
        <time>2021-05-14T14:25:01Z</time>
      </trkpt>
      <trkpt lat="43.61479" lon="3.70874">
        <ele>189</ele>
        <time>2021-05-14T14:25:02Z</time>
      </trkpt>
      <trkpt lat="43.61482" lon="3.70874">
        <ele>189</ele>
        <time>2021-05-14T14:25:03Z</time>
      </trkpt>
      <trkpt lat="43.61484" lon="3.70875">
        <ele>189</ele>
        <time>2021-05-14T14:25:04Z</time>
      </trkpt>
      <trkpt lat="43.61487" lon="3.70876">
        <ele>189</ele>
        <time>2021-05-14T14:25:05Z</time>
      </trkpt>
      <trkpt lat="43.6149" lon="3.70877">
        <ele>189</ele>
        <time>2021-05-14T14:25:06Z</time>
      </trkpt>
      <trkpt lat="43.61493" lon="3.70879">
        <ele>189</ele>
        <time>2021-05-14T14:25:07Z</time>
      </trkpt>
      <trkpt lat="43.61496" lon="3.70881">
        <ele>189</ele>
        <time>2021-05-14T14:25:08Z</time>
      </trkpt>
      <trkpt lat="43.61498" lon="3.70883">
        <ele>189</ele>
        <time>2021-05-14T14:25:09Z</time>
      </trkpt>
      <trkpt lat="43.61501" lon="3.70886">
        <ele>189</ele>
        <time>2021-05-14T14:25:10Z</time>
      </trkpt>
      <trkpt lat="43.61503" lon="3.70889">
        <ele>189</ele>
        <time>2021-05-14T14:25:11Z</time>
      </trkpt>
      <trkpt lat="43.61505" lon="3.70892">
        <ele>189</ele>
        <time>2021-05-14T14:25:12Z</time>
      </trkpt>
      <trkpt lat="43.61508" lon="3.70896">
        <ele>189</ele>
        <time>2021-05-14T14:25:13Z</time>
      </trkpt>
      <trkpt lat="43.6151" lon="3.709">
        <ele>189</ele>
        <time>2021-05-14T14:25:14Z</time>
      </trkpt>
      <trkpt lat="43.61514" lon="3.7091">
        <ele>189</ele>
        <time>2021-05-14T14:25:15Z</time>
      </trkpt>
      <trkpt lat="43.61516" lon="3.70913">
        <ele>189</ele>
        <time>2021-05-14T14:25:16Z</time>
      </trkpt>
      <trkpt lat="43.61519" lon="3.70914">
        <ele>189</ele>
        <time>2021-05-14T14:25:17Z</time>
      </trkpt>
      <trkpt lat="43.61523" lon="3.70913">
        <ele>189</ele>
        <time>2021-05-14T14:25:18Z</time>
      </trkpt>
      <trkpt lat="43.61526" lon="3.70911">
        <ele>189</ele>
        <time>2021-05-14T14:25:19Z</time>
      </trkpt>
      <trkpt lat="43.61529" lon="3.70908">
        <ele>189</ele>
        <time>2021-05-14T14:25:20Z</time>
      </trkpt>
      <trkpt lat="43.61532" lon="3.70904">
        <ele>189</ele>
        <time>2021-05-14T14:25:21Z</time>
      </trkpt>
      <trkpt lat="43.61535" lon="3.709">
        <ele>189</ele>
        <time>2021-05-14T14:25:22Z</time>
      </trkpt>
      <trkpt lat="43.61537" lon="3.70896">
        <ele>189</ele>
        <time>2021-05-14T14:25:23Z</time>
      </trkpt>
      <trkpt lat="43.6154" lon="3.70891">
        <ele>189</ele>
        <time>2021-05-14T14:25:24Z</time>
      </trkpt>
      <trkpt lat="43.61545" lon="3.70882">
        <ele>189</ele>
        <time>2021-05-14T14:25:26Z</time>
      </trkpt>
      <trkpt lat="43.61548" lon="3.70878">
        <ele>189</ele>
        <time>2021-05-14T14:25:27Z</time>
      </trkpt>
      <trkpt lat="43.6155" lon="3.70873">
        <ele>189</ele>
        <time>2021-05-14T14:25:28Z</time>
      </trkpt>
      <trkpt lat="43.61556" lon="3.70865">
        <ele>188</ele>
        <time>2021-05-14T14:25:30Z</time>
      </trkpt>
      <trkpt lat="43.6156" lon="3.70862">
        <ele>188</ele>
        <time>2021-05-14T14:25:31Z</time>
      </trkpt>
      <trkpt lat="43.61563" lon="3.70859">
        <ele>188</ele>
        <time>2021-05-14T14:25:32Z</time>
      </trkpt>
      <trkpt lat="43.61567" lon="3.70856">
        <ele>188</ele>
        <time>2021-05-14T14:25:33Z</time>
      </trkpt>
      <trkpt lat="43.6157" lon="3.70852">
        <ele>188</ele>
        <time>2021-05-14T14:25:34Z</time>
      </trkpt>
      <trkpt lat="43.61574" lon="3.70849">
        <ele>188</ele>
        <time>2021-05-14T14:25:35Z</time>
      </trkpt>
      <trkpt lat="43.61577" lon="3.70845">
        <ele>188</ele>
        <time>2021-05-14T14:25:36Z</time>
      </trkpt>
      <trkpt lat="43.61579" lon="3.7084">
        <ele>188</ele>
        <time>2021-05-14T14:25:37Z</time>
      </trkpt>
      <trkpt lat="43.6158" lon="3.70836">
        <ele>188</ele>
        <time>2021-05-14T14:25:38Z</time>
      </trkpt>
      <trkpt lat="43.61581" lon="3.70832">
        <ele>188</ele>
        <time>2021-05-14T14:25:39Z</time>
      </trkpt>
      <trkpt lat="43.61581" lon="3.70827">
        <ele>188</ele>
        <time>2021-05-14T14:25:40Z</time>
      </trkpt>
      <trkpt lat="43.61582" lon="3.70823">
        <ele>188</ele>
        <time>2021-05-14T14:25:41Z</time>
      </trkpt>
      <trkpt lat="43.61582" lon="3.70819">
        <ele>188</ele>
        <time>2021-05-14T14:25:42Z</time>
      </trkpt>
      <trkpt lat="43.61582" lon="3.70815">
        <ele>188</ele>
        <time>2021-05-14T14:25:43Z</time>
      </trkpt>
      <trkpt lat="43.61582" lon="3.70811">
        <ele>188</ele>
        <time>2021-05-14T14:25:44Z</time>
      </trkpt>
      <trkpt lat="43.61582" lon="3.70808">
        <ele>188</ele>
        <time>2021-05-14T14:25:45Z</time>
      </trkpt>
      <trkpt lat="43.61581" lon="3.70805">
        <ele>188</ele>
        <time>2021-05-14T14:25:46Z</time>
      </trkpt>
      <trkpt lat="43.61581" lon="3.70801">
        <ele>188</ele>
        <time>2021-05-14T14:25:47Z</time>
      </trkpt>
      <trkpt lat="43.61581" lon="3.70799">
        <ele>188</ele>
        <time>2021-05-14T14:25:48Z</time>
      </trkpt>
      <trkpt lat="43.61581" lon="3.70796">
        <ele>188</ele>
        <time>2021-05-14T14:25:49Z</time>
      </trkpt>
      <trkpt lat="43.61582" lon="3.70793">
        <ele>190</ele>
        <time>2021-05-14T14:25:50Z</time>
      </trkpt>
      <trkpt lat="43.61582" lon="3.7079">
        <ele>190</ele>
        <time>2021-05-14T14:25:52Z</time>
      </trkpt>
      <trkpt lat="43.61582" lon="3.70788">
        <ele>190</ele>
        <time>2021-05-14T14:25:53Z</time>
      </trkpt>
      <trkpt lat="43.61582" lon="3.70785">
        <ele>190</ele>
        <time>2021-05-14T14:25:54Z</time>
      </trkpt>
      <trkpt lat="43.61582" lon="3.70782">
        <ele>190</ele>
        <time>2021-05-14T14:25:55Z</time>
      </trkpt>
      <trkpt lat="43.61583" lon="3.70778">
        <ele>190</ele>
        <time>2021-05-14T14:25:57Z</time>
      </trkpt>
      <trkpt lat="43.61583" lon="3.70775">
        <ele>190</ele>
        <time>2021-05-14T14:25:58Z</time>
      </trkpt>
      <trkpt lat="43.61583" lon="3.70773">
        <ele>190</ele>
        <time>2021-05-14T14:25:59Z</time>
      </trkpt>
      <trkpt lat="43.61584" lon="3.7077">
        <ele>191</ele>
        <time>2021-05-14T14:26:00Z</time>
      </trkpt>
      <trkpt lat="43.61584" lon="3.70767">
        <ele>191</ele>
        <time>2021-05-14T14:26:01Z</time>
      </trkpt>
      <trkpt lat="43.61585" lon="3.70765">
        <ele>191</ele>
        <time>2021-05-14T14:26:02Z</time>
      </trkpt>
      <trkpt lat="43.61585" lon="3.70763">
        <ele>191</ele>
        <time>2021-05-14T14:26:03Z</time>
      </trkpt>
      <trkpt lat="43.61586" lon="3.7076">
        <ele>191</ele>
        <time>2021-05-14T14:26:04Z</time>
      </trkpt>
      <trkpt lat="43.61586" lon="3.70754">
        <ele>191</ele>
        <time>2021-05-14T14:26:05Z</time>
      </trkpt>
      <trkpt lat="43.61586" lon="3.70751">
        <ele>191</ele>
        <time>2021-05-14T14:26:06Z</time>
      </trkpt>
      <trkpt lat="43.61587" lon="3.70748">
        <ele>191</ele>
        <time>2021-05-14T14:26:07Z</time>
      </trkpt>
      <trkpt lat="43.61587" lon="3.70745">
        <ele>191</ele>
        <time>2021-05-14T14:26:08Z</time>
      </trkpt>
      <trkpt lat="43.61587" lon="3.70742">
        <ele>191</ele>
        <time>2021-05-14T14:26:09Z</time>
      </trkpt>
      <trkpt lat="43.61588" lon="3.70739">
        <ele>192</ele>
        <time>2021-05-14T14:26:10Z</time>
      </trkpt>
      <trkpt lat="43.61588" lon="3.70735">
        <ele>192</ele>
        <time>2021-05-14T14:26:11Z</time>
      </trkpt>
      <trkpt lat="43.61588" lon="3.70731">
        <ele>192</ele>
        <time>2021-05-14T14:26:12Z</time>
      </trkpt>
      <trkpt lat="43.61588" lon="3.70728">
        <ele>192</ele>
        <time>2021-05-14T14:26:13Z</time>
      </trkpt>
      <trkpt lat="43.61589" lon="3.70724">
        <ele>192</ele>
        <time>2021-05-14T14:26:14Z</time>
      </trkpt>
      <trkpt lat="43.61589" lon="3.70721">
        <ele>192</ele>
        <time>2021-05-14T14:26:15Z</time>
      </trkpt>
      <trkpt lat="43.61589" lon="3.70718">
        <ele>192</ele>
        <time>2021-05-14T14:26:16Z</time>
      </trkpt>
      <trkpt lat="43.61589" lon="3.70714">
        <ele>192</ele>
        <time>2021-05-14T14:26:17Z</time>
      </trkpt>
      <trkpt lat="43.6159" lon="3.70711">
        <ele>192</ele>
        <time>2021-05-14T14:26:18Z</time>
      </trkpt>
      <trkpt lat="43.6159" lon="3.70707">
        <ele>192</ele>
        <time>2021-05-14T14:26:19Z</time>
      </trkpt>
      <trkpt lat="43.6159" lon="3.70704">
        <ele>193</ele>
        <time>2021-05-14T14:26:20Z</time>
      </trkpt>
      <trkpt lat="43.61591" lon="3.70701">
        <ele>193</ele>
        <time>2021-05-14T14:26:21Z</time>
      </trkpt>
      <trkpt lat="43.61591" lon="3.70697">
        <ele>193</ele>
        <time>2021-05-14T14:26:22Z</time>
      </trkpt>
      <trkpt lat="43.61591" lon="3.70693">
        <ele>193</ele>
        <time>2021-05-14T14:26:23Z</time>
      </trkpt>
      <trkpt lat="43.61592" lon="3.70689">
        <ele>193</ele>
        <time>2021-05-14T14:26:24Z</time>
      </trkpt>
      <trkpt lat="43.61592" lon="3.70685">
        <ele>193</ele>
        <time>2021-05-14T14:26:25Z</time>
      </trkpt>
      <trkpt lat="43.61593" lon="3.70681">
        <ele>193</ele>
        <time>2021-05-14T14:26:26Z</time>
      </trkpt>
      <trkpt lat="43.61593" lon="3.70676">
        <ele>193</ele>
        <time>2021-05-14T14:26:27Z</time>
      </trkpt>
      <trkpt lat="43.61594" lon="3.70672">
        <ele>193</ele>
        <time>2021-05-14T14:26:28Z</time>
      </trkpt>
      <trkpt lat="43.61594" lon="3.70667">
        <ele>193</ele>
        <time>2021-05-14T14:26:29Z</time>
      </trkpt>
      <trkpt lat="43.61595" lon="3.70663">
        <ele>193</ele>
        <time>2021-05-14T14:26:30Z</time>
      </trkpt>
      <trkpt lat="43.61596" lon="3.70658">
        <ele>193</ele>
        <time>2021-05-14T14:26:31Z</time>
      </trkpt>
      <trkpt lat="43.61596" lon="3.70653">
        <ele>193</ele>
        <time>2021-05-14T14:26:32Z</time>
      </trkpt>
      <trkpt lat="43.61597" lon="3.70648">
        <ele>193</ele>
        <time>2021-05-14T14:26:33Z</time>
      </trkpt>
      <trkpt lat="43.61598" lon="3.70642">
        <ele>193</ele>
        <time>2021-05-14T14:26:34Z</time>
      </trkpt>
      <trkpt lat="43.61598" lon="3.70637">
        <ele>193</ele>
        <time>2021-05-14T14:26:35Z</time>
      </trkpt>
      <trkpt lat="43.61599" lon="3.70631">
        <ele>193</ele>
        <time>2021-05-14T14:26:36Z</time>
      </trkpt>
      <trkpt lat="43.616" lon="3.70626">
        <ele>193</ele>
        <time>2021-05-14T14:26:37Z</time>
      </trkpt>
      <trkpt lat="43.616" lon="3.7062">
        <ele>193</ele>
        <time>2021-05-14T14:26:38Z</time>
      </trkpt>
      <trkpt lat="43.61601" lon="3.70615">
        <ele>193</ele>
        <time>2021-05-14T14:26:39Z</time>
      </trkpt>
      <trkpt lat="43.61602" lon="3.70609">
        <ele>193</ele>
        <time>2021-05-14T14:26:40Z</time>
      </trkpt>
      <trkpt lat="43.61602" lon="3.70604">
        <ele>193</ele>
        <time>2021-05-14T14:26:41Z</time>
      </trkpt>
      <trkpt lat="43.61603" lon="3.70599">
        <ele>193</ele>
        <time>2021-05-14T14:26:42Z</time>
      </trkpt>
      <trkpt lat="43.61604" lon="3.70594">
        <ele>193</ele>
        <time>2021-05-14T14:26:43Z</time>
      </trkpt>
      <trkpt lat="43.61604" lon="3.70589">
        <ele>193</ele>
        <time>2021-05-14T14:26:44Z</time>
      </trkpt>
      <trkpt lat="43.61605" lon="3.70584">
        <ele>193</ele>
        <time>2021-05-14T14:26:45Z</time>
      </trkpt>
      <trkpt lat="43.61606" lon="3.70579">
        <ele>193</ele>
        <time>2021-05-14T14:26:46Z</time>
      </trkpt>
      <trkpt lat="43.61606" lon="3.70573">
        <ele>193</ele>
        <time>2021-05-14T14:26:47Z</time>
      </trkpt>
      <trkpt lat="43.61607" lon="3.70568">
        <ele>193</ele>
        <time>2021-05-14T14:26:48Z</time>
      </trkpt>
      <trkpt lat="43.61609" lon="3.70562">
        <ele>193</ele>
        <time>2021-05-14T14:26:49Z</time>
      </trkpt>
      <trkpt lat="43.61611" lon="3.70558">
        <ele>192</ele>
        <time>2021-05-14T14:26:50Z</time>
      </trkpt>
      <trkpt lat="43.61614" lon="3.70554">
        <ele>192</ele>
        <time>2021-05-14T14:26:51Z</time>
      </trkpt>
      <trkpt lat="43.61617" lon="3.70551">
        <ele>192</ele>
        <time>2021-05-14T14:26:52Z</time>
      </trkpt>
      <trkpt lat="43.6162" lon="3.70549">
        <ele>192</ele>
        <time>2021-05-14T14:26:53Z</time>
      </trkpt>
      <trkpt lat="43.61623" lon="3.70546">
        <ele>192</ele>
        <time>2021-05-14T14:26:54Z</time>
      </trkpt>
      <trkpt lat="43.61626" lon="3.70544">
        <ele>192</ele>
        <time>2021-05-14T14:26:55Z</time>
      </trkpt>
      <trkpt lat="43.61629" lon="3.70542">
        <ele>192</ele>
        <time>2021-05-14T14:26:56Z</time>
      </trkpt>
      <trkpt lat="43.61632" lon="3.7054">
        <ele>192</ele>
        <time>2021-05-14T14:26:57Z</time>
      </trkpt>
      <trkpt lat="43.61635" lon="3.70538">
        <ele>192</ele>
        <time>2021-05-14T14:26:59Z</time>
      </trkpt>
      <trkpt lat="43.61638" lon="3.70537">
        <ele>191</ele>
        <time>2021-05-14T14:27:00Z</time>
      </trkpt>
      <trkpt lat="43.61642" lon="3.70536">
        <ele>191</ele>
        <time>2021-05-14T14:27:01Z</time>
      </trkpt>
      <trkpt lat="43.61645" lon="3.70534">
        <ele>191</ele>
        <time>2021-05-14T14:27:02Z</time>
      </trkpt>
      <trkpt lat="43.61648" lon="3.70533">
        <ele>191</ele>
        <time>2021-05-14T14:27:03Z</time>
      </trkpt>
      <trkpt lat="43.61651" lon="3.70531">
        <ele>191</ele>
        <time>2021-05-14T14:27:04Z</time>
      </trkpt>
      <trkpt lat="43.61654" lon="3.7053">
        <ele>191</ele>
        <time>2021-05-14T14:27:05Z</time>
      </trkpt>
      <trkpt lat="43.61658" lon="3.70528">
        <ele>191</ele>
        <time>2021-05-14T14:27:06Z</time>
      </trkpt>
      <trkpt lat="43.61661" lon="3.70527">
        <ele>191</ele>
        <time>2021-05-14T14:27:07Z</time>
      </trkpt>
      <trkpt lat="43.61664" lon="3.70525">
        <ele>191</ele>
        <time>2021-05-14T14:27:08Z</time>
      </trkpt>
      <trkpt lat="43.61667" lon="3.70524">
        <ele>191</ele>
        <time>2021-05-14T14:27:09Z</time>
      </trkpt>
      <trkpt lat="43.6167" lon="3.70522">
        <ele>191</ele>
        <time>2021-05-14T14:27:10Z</time>
      </trkpt>
      <trkpt lat="43.61673" lon="3.7052">
        <ele>191</ele>
        <time>2021-05-14T14:27:11Z</time>
      </trkpt>
      <trkpt lat="43.61676" lon="3.70519">
        <ele>191</ele>
        <time>2021-05-14T14:27:12Z</time>
      </trkpt>
      <trkpt lat="43.61679" lon="3.70517">
        <ele>191</ele>
        <time>2021-05-14T14:27:13Z</time>
      </trkpt>
      <trkpt lat="43.61682" lon="3.70515">
        <ele>191</ele>
        <time>2021-05-14T14:27:14Z</time>
      </trkpt>
      <trkpt lat="43.61686" lon="3.70514">
        <ele>191</ele>
        <time>2021-05-14T14:27:15Z</time>
      </trkpt>
      <trkpt lat="43.61689" lon="3.70512">
        <ele>191</ele>
        <time>2021-05-14T14:27:16Z</time>
      </trkpt>
      <trkpt lat="43.61692" lon="3.7051">
        <ele>191</ele>
        <time>2021-05-14T14:27:17Z</time>
      </trkpt>
      <trkpt lat="43.61695" lon="3.70508">
        <ele>191</ele>
        <time>2021-05-14T14:27:18Z</time>
      </trkpt>
      <trkpt lat="43.61699" lon="3.70506">
        <ele>191</ele>
        <time>2021-05-14T14:27:19Z</time>
      </trkpt>
      <trkpt lat="43.61702" lon="3.70504">
        <ele>191</ele>
        <time>2021-05-14T14:27:20Z</time>
      </trkpt>
      <trkpt lat="43.61706" lon="3.70502">
        <ele>191</ele>
        <time>2021-05-14T14:27:21Z</time>
      </trkpt>
      <trkpt lat="43.61709" lon="3.70499">
        <ele>191</ele>
        <time>2021-05-14T14:27:22Z</time>
      </trkpt>
      <trkpt lat="43.61713" lon="3.70497">
        <ele>191</ele>
        <time>2021-05-14T14:27:23Z</time>
      </trkpt>
      <trkpt lat="43.61716" lon="3.70495">
        <ele>191</ele>
        <time>2021-05-14T14:27:24Z</time>
      </trkpt>
      <trkpt lat="43.6172" lon="3.70492">
        <ele>191</ele>
        <time>2021-05-14T14:27:25Z</time>
      </trkpt>
      <trkpt lat="43.61723" lon="3.70489">
        <ele>191</ele>
        <time>2021-05-14T14:27:26Z</time>
      </trkpt>
      <trkpt lat="43.61727" lon="3.70487">
        <ele>191</ele>
        <time>2021-05-14T14:27:27Z</time>
      </trkpt>
      <trkpt lat="43.61735" lon="3.70481">
        <ele>191</ele>
        <time>2021-05-14T14:27:28Z</time>
      </trkpt>
      <trkpt lat="43.61739" lon="3.70479">
        <ele>191</ele>
        <time>2021-05-14T14:27:29Z</time>
      </trkpt>
      <trkpt lat="43.61743" lon="3.70476">
        <ele>190</ele>
        <time>2021-05-14T14:27:30Z</time>
      </trkpt>
      <trkpt lat="43.61746" lon="3.70474">
        <ele>190</ele>
        <time>2021-05-14T14:27:31Z</time>
      </trkpt>
      <trkpt lat="43.6175" lon="3.70471">
        <ele>190</ele>
        <time>2021-05-14T14:27:32Z</time>
      </trkpt>
      <trkpt lat="43.61753" lon="3.70469">
        <ele>190</ele>
        <time>2021-05-14T14:27:33Z</time>
      </trkpt>
      <trkpt lat="43.61757" lon="3.70466">
        <ele>190</ele>
        <time>2021-05-14T14:27:34Z</time>
      </trkpt>
      <trkpt lat="43.61761" lon="3.70464">
        <ele>190</ele>
        <time>2021-05-14T14:27:35Z</time>
      </trkpt>
      <trkpt lat="43.61764" lon="3.70461">
        <ele>190</ele>
        <time>2021-05-14T14:27:36Z</time>
      </trkpt>
      <trkpt lat="43.61768" lon="3.70459">
        <ele>190</ele>
        <time>2021-05-14T14:27:37Z</time>
      </trkpt>
      <trkpt lat="43.61771" lon="3.70457">
        <ele>190</ele>
        <time>2021-05-14T14:27:38Z</time>
      </trkpt>
      <trkpt lat="43.61775" lon="3.70454">
        <ele>190</ele>
        <time>2021-05-14T14:27:39Z</time>
      </trkpt>
      <trkpt lat="43.61778" lon="3.70452">
        <ele>190</ele>
        <time>2021-05-14T14:27:40Z</time>
      </trkpt>
      <trkpt lat="43.61782" lon="3.7045">
        <ele>190</ele>
        <time>2021-05-14T14:27:41Z</time>
      </trkpt>
      <trkpt lat="43.61786" lon="3.70447">
        <ele>190</ele>
        <time>2021-05-14T14:27:42Z</time>
      </trkpt>
      <trkpt lat="43.61789" lon="3.70445">
        <ele>190</ele>
        <time>2021-05-14T14:27:43Z</time>
      </trkpt>
      <trkpt lat="43.61793" lon="3.70442">
        <ele>190</ele>
        <time>2021-05-14T14:27:44Z</time>
      </trkpt>
      <trkpt lat="43.61797" lon="3.70439">
        <ele>190</ele>
        <time>2021-05-14T14:27:45Z</time>
      </trkpt>
      <trkpt lat="43.61801" lon="3.70436">
        <ele>190</ele>
        <time>2021-05-14T14:27:46Z</time>
      </trkpt>
      <trkpt lat="43.61809" lon="3.70429">
        <ele>190</ele>
        <time>2021-05-14T14:27:48Z</time>
      </trkpt>
      <trkpt lat="43.61813" lon="3.70425">
        <ele>190</ele>
        <time>2021-05-14T14:27:49Z</time>
      </trkpt>
      <trkpt lat="43.61816" lon="3.70421">
        <ele>190</ele>
        <time>2021-05-14T14:27:50Z</time>
      </trkpt>
      <trkpt lat="43.6182" lon="3.70416">
        <ele>190</ele>
        <time>2021-05-14T14:27:51Z</time>
      </trkpt>
      <trkpt lat="43.61823" lon="3.70412">
        <ele>190</ele>
        <time>2021-05-14T14:27:52Z</time>
      </trkpt>
      <trkpt lat="43.61826" lon="3.70407">
        <ele>190</ele>
        <time>2021-05-14T14:27:53Z</time>
      </trkpt>
      <trkpt lat="43.61829" lon="3.70402">
        <ele>190</ele>
        <time>2021-05-14T14:27:54Z</time>
      </trkpt>
      <trkpt lat="43.61832" lon="3.70398">
        <ele>190</ele>
        <time>2021-05-14T14:27:55Z</time>
      </trkpt>
      <trkpt lat="43.61836" lon="3.70393">
        <ele>190</ele>
        <time>2021-05-14T14:27:56Z</time>
      </trkpt>
      <trkpt lat="43.61839" lon="3.70388">
        <ele>190</ele>
        <time>2021-05-14T14:27:57Z</time>
      </trkpt>
      <trkpt lat="43.61842" lon="3.70384">
        <ele>190</ele>
        <time>2021-05-14T14:27:58Z</time>
      </trkpt>
      <trkpt lat="43.61845" lon="3.70379">
        <ele>190</ele>
        <time>2021-05-14T14:27:59Z</time>
      </trkpt>
      <trkpt lat="43.61848" lon="3.70375">
        <ele>190</ele>
        <time>2021-05-14T14:28:01Z</time>
      </trkpt>
      <trkpt lat="43.61851" lon="3.70371">
        <ele>190</ele>
        <time>2021-05-14T14:28:02Z</time>
      </trkpt>
      <trkpt lat="43.61854" lon="3.70366">
        <ele>190</ele>
        <time>2021-05-14T14:28:03Z</time>
      </trkpt>
      <trkpt lat="43.61857" lon="3.70362">
        <ele>190</ele>
        <time>2021-05-14T14:28:04Z</time>
      </trkpt>
      <trkpt lat="43.61859" lon="3.70357">
        <ele>190</ele>
        <time>2021-05-14T14:28:05Z</time>
      </trkpt>
      <trkpt lat="43.61862" lon="3.70353">
        <ele>190</ele>
        <time>2021-05-14T14:28:06Z</time>
      </trkpt>
      <trkpt lat="43.61865" lon="3.70348">
        <ele>190</ele>
        <time>2021-05-14T14:28:07Z</time>
      </trkpt>
      <trkpt lat="43.61868" lon="3.70343">
        <ele>190</ele>
        <time>2021-05-14T14:28:08Z</time>
      </trkpt>
      <trkpt lat="43.6187" lon="3.70337">
        <ele>190</ele>
        <time>2021-05-14T14:28:09Z</time>
      </trkpt>
      <trkpt lat="43.61875" lon="3.70327">
        <ele>188</ele>
        <time>2021-05-14T14:28:10Z</time>
      </trkpt>
      <trkpt lat="43.61878" lon="3.70321">
        <ele>188</ele>
        <time>2021-05-14T14:28:11Z</time>
      </trkpt>
      <trkpt lat="43.6188" lon="3.70315">
        <ele>188</ele>
        <time>2021-05-14T14:28:12Z</time>
      </trkpt>
      <trkpt lat="43.61883" lon="3.70308">
        <ele>188</ele>
        <time>2021-05-14T14:28:13Z</time>
      </trkpt>
      <trkpt lat="43.61885" lon="3.70302">
        <ele>188</ele>
        <time>2021-05-14T14:28:14Z</time>
      </trkpt>
      <trkpt lat="43.61887" lon="3.70296">
        <ele>188</ele>
        <time>2021-05-14T14:28:15Z</time>
      </trkpt>
      <trkpt lat="43.6189" lon="3.70289">
        <ele>188</ele>
        <time>2021-05-14T14:28:16Z</time>
      </trkpt>
      <trkpt lat="43.61892" lon="3.70283">
        <ele>188</ele>
        <time>2021-05-14T14:28:17Z</time>
      </trkpt>
      <trkpt lat="43.61895" lon="3.70276">
        <ele>188</ele>
        <time>2021-05-14T14:28:18Z</time>
      </trkpt>
      <trkpt lat="43.61898" lon="3.70269">
        <ele>188</ele>
        <time>2021-05-14T14:28:19Z</time>
      </trkpt>
      <trkpt lat="43.61901" lon="3.70262">
        <ele>187</ele>
        <time>2021-05-14T14:28:20Z</time>
      </trkpt>
      <trkpt lat="43.61904" lon="3.70255">
        <ele>187</ele>
        <time>2021-05-14T14:28:21Z</time>
      </trkpt>
      <trkpt lat="43.61907" lon="3.70249">
        <ele>187</ele>
        <time>2021-05-14T14:28:22Z</time>
      </trkpt>
      <trkpt lat="43.6191" lon="3.70242">
        <ele>187</ele>
        <time>2021-05-14T14:28:24Z</time>
      </trkpt>
      <trkpt lat="43.61913" lon="3.70236">
        <ele>187</ele>
        <time>2021-05-14T14:28:25Z</time>
      </trkpt>
      <trkpt lat="43.61915" lon="3.70231">
        <ele>187</ele>
        <time>2021-05-14T14:28:26Z</time>
      </trkpt>
      <trkpt lat="43.61918" lon="3.70225">
        <ele>187</ele>
        <time>2021-05-14T14:28:27Z</time>
      </trkpt>
      <trkpt lat="43.61922" lon="3.70215">
        <ele>187</ele>
        <time>2021-05-14T14:28:28Z</time>
      </trkpt>
      <trkpt lat="43.61925" lon="3.7021">
        <ele>187</ele>
        <time>2021-05-14T14:28:29Z</time>
      </trkpt>
      <trkpt lat="43.61927" lon="3.70205">
        <ele>184</ele>
        <time>2021-05-14T14:28:30Z</time>
      </trkpt>
      <trkpt lat="43.61929" lon="3.702">
        <ele>184</ele>
        <time>2021-05-14T14:28:31Z</time>
      </trkpt>
      <trkpt lat="43.61931" lon="3.70195">
        <ele>184</ele>
        <time>2021-05-14T14:28:33Z</time>
      </trkpt>
      <trkpt lat="43.61933" lon="3.7019">
        <ele>184</ele>
        <time>2021-05-14T14:28:34Z</time>
      </trkpt>
      <trkpt lat="43.61935" lon="3.70184">
        <ele>184</ele>
        <time>2021-05-14T14:28:35Z</time>
      </trkpt>
      <trkpt lat="43.61937" lon="3.70179">
        <ele>184</ele>
        <time>2021-05-14T14:28:36Z</time>
      </trkpt>
      <trkpt lat="43.61939" lon="3.70174">
        <ele>184</ele>
        <time>2021-05-14T14:28:37Z</time>
      </trkpt>
      <trkpt lat="43.61942" lon="3.70169">
        <ele>184</ele>
        <time>2021-05-14T14:28:38Z</time>
      </trkpt>
      <trkpt lat="43.61944" lon="3.70163">
        <ele>184</ele>
        <time>2021-05-14T14:28:39Z</time>
      </trkpt>
      <trkpt lat="43.61946" lon="3.70158">
        <ele>182</ele>
        <time>2021-05-14T14:28:40Z</time>
      </trkpt>
      <trkpt lat="43.61951" lon="3.70147">
        <ele>182</ele>
        <time>2021-05-14T14:28:41Z</time>
      </trkpt>
      <trkpt lat="43.61953" lon="3.70142">
        <ele>182</ele>
        <time>2021-05-14T14:28:42Z</time>
      </trkpt>
      <trkpt lat="43.61955" lon="3.70136">
        <ele>182</ele>
        <time>2021-05-14T14:28:44Z</time>
      </trkpt>
      <trkpt lat="43.61959" lon="3.70125">
        <ele>182</ele>
        <time>2021-05-14T14:28:45Z</time>
      </trkpt>
      <trkpt lat="43.61961" lon="3.70119">
        <ele>182</ele>
        <time>2021-05-14T14:28:47Z</time>
      </trkpt>
      <trkpt lat="43.61964" lon="3.70114">
        <ele>182</ele>
        <time>2021-05-14T14:28:48Z</time>
      </trkpt>
      <trkpt lat="43.61966" lon="3.70109">
        <ele>182</ele>
        <time>2021-05-14T14:28:49Z</time>
      </trkpt>
      <trkpt lat="43.6197" lon="3.701">
        <ele>181</ele>
        <time>2021-05-14T14:28:50Z</time>
      </trkpt>
      <trkpt lat="43.61972" lon="3.70096">
        <ele>181</ele>
        <time>2021-05-14T14:28:51Z</time>
      </trkpt>
      <trkpt lat="43.61974" lon="3.70091">
        <ele>181</ele>
        <time>2021-05-14T14:28:52Z</time>
      </trkpt>
      <trkpt lat="43.61977" lon="3.70088">
        <ele>181</ele>
        <time>2021-05-14T14:28:53Z</time>
      </trkpt>
      <trkpt lat="43.6198" lon="3.70084">
        <ele>181</ele>
        <time>2021-05-14T14:28:55Z</time>
      </trkpt>
      <trkpt lat="43.61985" lon="3.70077">
        <ele>181</ele>
        <time>2021-05-14T14:28:56Z</time>
      </trkpt>
      <trkpt lat="43.61986" lon="3.70071">
        <ele>181</ele>
        <time>2021-05-14T14:28:57Z</time>
      </trkpt>
      <trkpt lat="43.61989" lon="3.7006">
        <ele>181</ele>
        <time>2021-05-14T14:28:59Z</time>
      </trkpt>
      <trkpt lat="43.61991" lon="3.70055">
        <ele>178</ele>
        <time>2021-05-14T14:29:00Z</time>
      </trkpt>
      <trkpt lat="43.61993" lon="3.70049">
        <ele>178</ele>
        <time>2021-05-14T14:29:01Z</time>
      </trkpt>
      <trkpt lat="43.61996" lon="3.70044">
        <ele>178</ele>
        <time>2021-05-14T14:29:02Z</time>
      </trkpt>
      <trkpt lat="43.61997" lon="3.70039">
        <ele>178</ele>
        <time>2021-05-14T14:29:04Z</time>
      </trkpt>
      <trkpt lat="43.61998" lon="3.70035">
        <ele>178</ele>
        <time>2021-05-14T14:29:05Z</time>
      </trkpt>
      <trkpt lat="43.61999" lon="3.70031">
        <ele>178</ele>
        <time>2021-05-14T14:29:06Z</time>
      </trkpt>
      <trkpt lat="43.62" lon="3.70029">
        <ele>178</ele>
        <time>2021-05-14T14:29:07Z</time>
      </trkpt>
      <trkpt lat="43.62005" lon="3.70027">
        <ele>178</ele>
        <time>2021-05-14T14:29:08Z</time>
      </trkpt>
      <trkpt lat="43.62009" lon="3.70028">
        <ele>178</ele>
        <time>2021-05-14T14:29:09Z</time>
      </trkpt>
      <trkpt lat="43.62012" lon="3.7003">
        <ele>176</ele>
        <time>2021-05-14T14:29:10Z</time>
      </trkpt>
      <trkpt lat="43.62016" lon="3.70032">
        <ele>176</ele>
        <time>2021-05-14T14:29:11Z</time>
      </trkpt>
      <trkpt lat="43.62021" lon="3.70033">
        <ele>176</ele>
        <time>2021-05-14T14:29:13Z</time>
      </trkpt>
      <trkpt lat="43.62026" lon="3.70033">
        <ele>176</ele>
        <time>2021-05-14T14:29:14Z</time>
      </trkpt>
      <trkpt lat="43.6203" lon="3.70033">
        <ele>176</ele>
        <time>2021-05-14T14:29:15Z</time>
      </trkpt>
      <trkpt lat="43.62035" lon="3.70032">
        <ele>176</ele>
        <time>2021-05-14T14:29:16Z</time>
      </trkpt>
      <trkpt lat="43.62045" lon="3.70028">
        <ele>176</ele>
        <time>2021-05-14T14:29:17Z</time>
      </trkpt>
      <trkpt lat="43.62049" lon="3.70027">
        <ele>176</ele>
        <time>2021-05-14T14:29:18Z</time>
      </trkpt>
      <trkpt lat="43.62054" lon="3.70025">
        <ele>176</ele>
        <time>2021-05-14T14:29:19Z</time>
      </trkpt>
      <trkpt lat="43.62058" lon="3.70024">
        <ele>173</ele>
        <time>2021-05-14T14:29:20Z</time>
      </trkpt>
      <trkpt lat="43.62063" lon="3.70023">
        <ele>173</ele>
        <time>2021-05-14T14:29:21Z</time>
      </trkpt>
      <trkpt lat="43.62068" lon="3.70022">
        <ele>173</ele>
        <time>2021-05-14T14:29:22Z</time>
      </trkpt>
      <trkpt lat="43.62073" lon="3.7002">
        <ele>173</ele>
        <time>2021-05-14T14:29:23Z</time>
      </trkpt>
      <trkpt lat="43.62078" lon="3.70018">
        <ele>173</ele>
        <time>2021-05-14T14:29:24Z</time>
      </trkpt>
      <trkpt lat="43.62083" lon="3.70017">
        <ele>173</ele>
        <time>2021-05-14T14:29:25Z</time>
      </trkpt>
      <trkpt lat="43.62088" lon="3.70015">
        <ele>173</ele>
        <time>2021-05-14T14:29:26Z</time>
      </trkpt>
      <trkpt lat="43.62094" lon="3.70013">
        <ele>173</ele>
        <time>2021-05-14T14:29:27Z</time>
      </trkpt>
      <trkpt lat="43.621" lon="3.70012">
        <ele>173</ele>
        <time>2021-05-14T14:29:28Z</time>
      </trkpt>
      <trkpt lat="43.62106" lon="3.70011">
        <ele>173</ele>
        <time>2021-05-14T14:29:29Z</time>
      </trkpt>
      <trkpt lat="43.62112" lon="3.70009">
        <ele>173</ele>
        <time>2021-05-14T14:29:31Z</time>
      </trkpt>
      <trkpt lat="43.62118" lon="3.70005">
        <ele>173</ele>
        <time>2021-05-14T14:29:32Z</time>
      </trkpt>
      <trkpt lat="43.62123" lon="3.70002">
        <ele>173</ele>
        <time>2021-05-14T14:29:33Z</time>
      </trkpt>
      <trkpt lat="43.62128" lon="3.69999">
        <ele>173</ele>
        <time>2021-05-14T14:29:34Z</time>
      </trkpt>
      <trkpt lat="43.62134" lon="3.69996">
        <ele>173</ele>
        <time>2021-05-14T14:29:35Z</time>
      </trkpt>
      <trkpt lat="43.6214" lon="3.69994">
        <ele>173</ele>
        <time>2021-05-14T14:29:36Z</time>
      </trkpt>
      <trkpt lat="43.62146" lon="3.69991">
        <ele>173</ele>
        <time>2021-05-14T14:29:37Z</time>
      </trkpt>
      <trkpt lat="43.62152" lon="3.69989">
        <ele>173</ele>
        <time>2021-05-14T14:29:38Z</time>
      </trkpt>
      <trkpt lat="43.62158" lon="3.69987">
        <ele>173</ele>
        <time>2021-05-14T14:29:39Z</time>
      </trkpt>
      <trkpt lat="43.62169" lon="3.69982">
        <ele>168</ele>
        <time>2021-05-14T14:29:40Z</time>
      </trkpt>
      <trkpt lat="43.62175" lon="3.6998">
        <ele>168</ele>
        <time>2021-05-14T14:29:41Z</time>
      </trkpt>
      <trkpt lat="43.62181" lon="3.69978">
        <ele>168</ele>
        <time>2021-05-14T14:29:42Z</time>
      </trkpt>
      <trkpt lat="43.62186" lon="3.69976">
        <ele>168</ele>
        <time>2021-05-14T14:29:43Z</time>
      </trkpt>
      <trkpt lat="43.62192" lon="3.69974">
        <ele>168</ele>
        <time>2021-05-14T14:29:44Z</time>
      </trkpt>
      <trkpt lat="43.62198" lon="3.69972">
        <ele>168</ele>
        <time>2021-05-14T14:29:45Z</time>
      </trkpt>
      <trkpt lat="43.62203" lon="3.6997">
        <ele>168</ele>
        <time>2021-05-14T14:29:46Z</time>
      </trkpt>
      <trkpt lat="43.62209" lon="3.69967">
        <ele>168</ele>
        <time>2021-05-14T14:29:47Z</time>
      </trkpt>
      <trkpt lat="43.62214" lon="3.69965">
        <ele>168</ele>
        <time>2021-05-14T14:29:48Z</time>
      </trkpt>
      <trkpt lat="43.62219" lon="3.69963">
        <ele>168</ele>
        <time>2021-05-14T14:29:49Z</time>
      </trkpt>
      <trkpt lat="43.62225" lon="3.6996">
        <ele>165</ele>
        <time>2021-05-14T14:29:50Z</time>
      </trkpt>
      <trkpt lat="43.6223" lon="3.69957">
        <ele>165</ele>
        <time>2021-05-14T14:29:51Z</time>
      </trkpt>
      <trkpt lat="43.62236" lon="3.69954">
        <ele>165</ele>
        <time>2021-05-14T14:29:52Z</time>
      </trkpt>
      <trkpt lat="43.62241" lon="3.69951">
        <ele>165</ele>
        <time>2021-05-14T14:29:53Z</time>
      </trkpt>
      <trkpt lat="43.62247" lon="3.69948">
        <ele>165</ele>
        <time>2021-05-14T14:29:54Z</time>
      </trkpt>
      <trkpt lat="43.62252" lon="3.69945">
        <ele>165</ele>
        <time>2021-05-14T14:29:55Z</time>
      </trkpt>
      <trkpt lat="43.62258" lon="3.69943">
        <ele>165</ele>
        <time>2021-05-14T14:29:56Z</time>
      </trkpt>
      <trkpt lat="43.62263" lon="3.6994">
        <ele>165</ele>
        <time>2021-05-14T14:29:57Z</time>
      </trkpt>
      <trkpt lat="43.62268" lon="3.69937">
        <ele>165</ele>
        <time>2021-05-14T14:29:59Z</time>
      </trkpt>
      <trkpt lat="43.62273" lon="3.69935">
        <ele>163</ele>
        <time>2021-05-14T14:30:00Z</time>
      </trkpt>
      <trkpt lat="43.62283" lon="3.6993">
        <ele>163</ele>
        <time>2021-05-14T14:30:01Z</time>
      </trkpt>
      <trkpt lat="43.62288" lon="3.69928">
        <ele>163</ele>
        <time>2021-05-14T14:30:02Z</time>
      </trkpt>
      <trkpt lat="43.62293" lon="3.69926">
        <ele>163</ele>
        <time>2021-05-14T14:30:03Z</time>
      </trkpt>
      <trkpt lat="43.62298" lon="3.69925">
        <ele>163</ele>
        <time>2021-05-14T14:30:04Z</time>
      </trkpt>
      <trkpt lat="43.62303" lon="3.69924">
        <ele>163</ele>
        <time>2021-05-14T14:30:06Z</time>
      </trkpt>
      <trkpt lat="43.62308" lon="3.69923">
        <ele>163</ele>
        <time>2021-05-14T14:30:07Z</time>
      </trkpt>
      <trkpt lat="43.62313" lon="3.69922">
        <ele>163</ele>
        <time>2021-05-14T14:30:08Z</time>
      </trkpt>
      <trkpt lat="43.62318" lon="3.69921">
        <ele>163</ele>
        <time>2021-05-14T14:30:09Z</time>
      </trkpt>
      <trkpt lat="43.62323" lon="3.69921">
        <ele>163</ele>
        <time>2021-05-14T14:30:10Z</time>
      </trkpt>
      <trkpt lat="43.62329" lon="3.6992">
        <ele>163</ele>
        <time>2021-05-14T14:30:11Z</time>
      </trkpt>
      <trkpt lat="43.62334" lon="3.69919">
        <ele>163</ele>
        <time>2021-05-14T14:30:12Z</time>
      </trkpt>
      <trkpt lat="43.62339" lon="3.69919">
        <ele>163</ele>
        <time>2021-05-14T14:30:13Z</time>
      </trkpt>
      <trkpt lat="43.62349" lon="3.69917">
        <ele>163</ele>
        <time>2021-05-14T14:30:14Z</time>
      </trkpt>
      <trkpt lat="43.62355" lon="3.69916">
        <ele>163</ele>
        <time>2021-05-14T14:30:15Z</time>
      </trkpt>
      <trkpt lat="43.62361" lon="3.69914">
        <ele>163</ele>
        <time>2021-05-14T14:30:16Z</time>
      </trkpt>
      <trkpt lat="43.62366" lon="3.6991">
        <ele>163</ele>
        <time>2021-05-14T14:30:17Z</time>
      </trkpt>
      <trkpt lat="43.62378" lon="3.69903">
        <ele>163</ele>
        <time>2021-05-14T14:30:19Z</time>
      </trkpt>
      <trkpt lat="43.62384" lon="3.699">
        <ele>160</ele>
        <time>2021-05-14T14:30:20Z</time>
      </trkpt>
      <trkpt lat="43.6239" lon="3.69897">
        <ele>160</ele>
        <time>2021-05-14T14:30:21Z</time>
      </trkpt>
      <trkpt lat="43.62397" lon="3.69896">
        <ele>160</ele>
        <time>2021-05-14T14:30:22Z</time>
      </trkpt>
      <trkpt lat="43.62403" lon="3.69893">
        <ele>160</ele>
        <time>2021-05-14T14:30:24Z</time>
      </trkpt>
      <trkpt lat="43.62409" lon="3.69891">
        <ele>160</ele>
        <time>2021-05-14T14:30:25Z</time>
      </trkpt>
      <trkpt lat="43.62415" lon="3.6989">
        <ele>160</ele>
        <time>2021-05-14T14:30:26Z</time>
      </trkpt>
      <trkpt lat="43.62421" lon="3.69888">
        <ele>160</ele>
        <time>2021-05-14T14:30:27Z</time>
      </trkpt>
      <trkpt lat="43.62426" lon="3.69886">
        <ele>160</ele>
        <time>2021-05-14T14:30:28Z</time>
      </trkpt>
      <trkpt lat="43.62432" lon="3.69883">
        <ele>160</ele>
        <time>2021-05-14T14:30:29Z</time>
      </trkpt>
      <trkpt lat="43.62442" lon="3.69877">
        <ele>156</ele>
        <time>2021-05-14T14:30:30Z</time>
      </trkpt>
      <trkpt lat="43.62453" lon="3.69875">
        <ele>156</ele>
        <time>2021-05-14T14:30:32Z</time>
      </trkpt>
      <trkpt lat="43.62459" lon="3.69876">
        <ele>156</ele>
        <time>2021-05-14T14:30:33Z</time>
      </trkpt>
      <trkpt lat="43.62465" lon="3.6988">
        <ele>156</ele>
        <time>2021-05-14T14:30:34Z</time>
      </trkpt>
      <trkpt lat="43.62477" lon="3.69886">
        <ele>156</ele>
        <time>2021-05-14T14:30:36Z</time>
      </trkpt>
      <trkpt lat="43.62481" lon="3.69889">
        <ele>156</ele>
        <time>2021-05-14T14:30:37Z</time>
      </trkpt>
      <trkpt lat="43.62486" lon="3.69891">
        <ele>156</ele>
        <time>2021-05-14T14:30:38Z</time>
      </trkpt>
      <trkpt lat="43.6249" lon="3.69894">
        <ele>156</ele>
        <time>2021-05-14T14:30:39Z</time>
      </trkpt>
      <trkpt lat="43.62492" lon="3.69898">
        <ele>154</ele>
        <time>2021-05-14T14:30:40Z</time>
      </trkpt>
      <trkpt lat="43.62494" lon="3.69903">
        <ele>154</ele>
        <time>2021-05-14T14:30:41Z</time>
      </trkpt>
      <trkpt lat="43.62497" lon="3.69907">
        <ele>154</ele>
        <time>2021-05-14T14:30:42Z</time>
      </trkpt>
      <trkpt lat="43.62499" lon="3.6991">
        <ele>154</ele>
        <time>2021-05-14T14:30:43Z</time>
      </trkpt>
      <trkpt lat="43.62501" lon="3.69913">
        <ele>154</ele>
        <time>2021-05-14T14:30:44Z</time>
      </trkpt>
      <trkpt lat="43.62503" lon="3.69915">
        <ele>154</ele>
        <time>2021-05-14T14:30:45Z</time>
      </trkpt>
      <trkpt lat="43.62505" lon="3.69918">
        <ele>154</ele>
        <time>2021-05-14T14:30:46Z</time>
      </trkpt>
      <trkpt lat="43.62507" lon="3.6992">
        <ele>154</ele>
        <time>2021-05-14T14:30:47Z</time>
      </trkpt>
      <trkpt lat="43.6251" lon="3.69925">
        <ele>154</ele>
        <time>2021-05-14T14:30:49Z</time>
      </trkpt>
      <trkpt lat="43.62511" lon="3.69928">
        <ele>154</ele>
        <time>2021-05-14T14:30:50Z</time>
      </trkpt>
      <trkpt lat="43.62512" lon="3.69931">
        <ele>154</ele>
        <time>2021-05-14T14:30:51Z</time>
      </trkpt>
      <trkpt lat="43.62513" lon="3.69935">
        <ele>154</ele>
        <time>2021-05-14T14:30:53Z</time>
      </trkpt>
      <trkpt lat="43.62515" lon="3.69938">
        <ele>154</ele>
        <time>2021-05-14T14:30:54Z</time>
      </trkpt>
      <trkpt lat="43.62516" lon="3.69941">
        <ele>154</ele>
        <time>2021-05-14T14:30:55Z</time>
      </trkpt>
      <trkpt lat="43.62518" lon="3.69944">
        <ele>154</ele>
        <time>2021-05-14T14:30:56Z</time>
      </trkpt>
      <trkpt lat="43.6252" lon="3.69947">
        <ele>154</ele>
        <time>2021-05-14T14:30:57Z</time>
      </trkpt>
      <trkpt lat="43.62522" lon="3.6995">
        <ele>154</ele>
        <time>2021-05-14T14:30:58Z</time>
      </trkpt>
      <trkpt lat="43.62523" lon="3.69953">
        <ele>154</ele>
        <time>2021-05-14T14:30:59Z</time>
      </trkpt>
      <trkpt lat="43.62525" lon="3.69956">
        <ele>155</ele>
        <time>2021-05-14T14:31:00Z</time>
      </trkpt>
      <trkpt lat="43.62527" lon="3.69959">
        <ele>155</ele>
        <time>2021-05-14T14:31:01Z</time>
      </trkpt>
      <trkpt lat="43.62529" lon="3.69961">
        <ele>155</ele>
        <time>2021-05-14T14:31:02Z</time>
      </trkpt>
      <trkpt lat="43.6253" lon="3.69964">
        <ele>155</ele>
        <time>2021-05-14T14:31:03Z</time>
      </trkpt>
      <trkpt lat="43.62532" lon="3.69967">
        <ele>155</ele>
        <time>2021-05-14T14:31:04Z</time>
      </trkpt>
      <trkpt lat="43.62533" lon="3.69969">
        <ele>155</ele>
        <time>2021-05-14T14:31:05Z</time>
      </trkpt>
      <trkpt lat="43.62535" lon="3.69971">
        <ele>155</ele>
        <time>2021-05-14T14:31:06Z</time>
      </trkpt>
      <trkpt lat="43.62537" lon="3.69973">
        <ele>155</ele>
        <time>2021-05-14T14:31:07Z</time>
      </trkpt>
      <trkpt lat="43.62538" lon="3.69975">
        <ele>155</ele>
        <time>2021-05-14T14:31:08Z</time>
      </trkpt>
      <trkpt lat="43.6254" lon="3.69977">
        <ele>155</ele>
        <time>2021-05-14T14:31:09Z</time>
      </trkpt>
      <trkpt lat="43.62541" lon="3.69979">
        <ele>156</ele>
        <time>2021-05-14T14:31:10Z</time>
      </trkpt>
      <trkpt lat="43.62543" lon="3.69982">
        <ele>156</ele>
        <time>2021-05-14T14:31:11Z</time>
      </trkpt>
      <trkpt lat="43.62544" lon="3.69984">
        <ele>156</ele>
        <time>2021-05-14T14:31:12Z</time>
      </trkpt>
      <trkpt lat="43.62545" lon="3.69986">
        <ele>156</ele>
        <time>2021-05-14T14:31:13Z</time>
      </trkpt>
      <trkpt lat="43.62547" lon="3.69988">
        <ele>156</ele>
        <time>2021-05-14T14:31:14Z</time>
      </trkpt>
      <trkpt lat="43.62548" lon="3.6999">
        <ele>156</ele>
        <time>2021-05-14T14:31:15Z</time>
      </trkpt>
      <trkpt lat="43.62549" lon="3.69991">
        <ele>156</ele>
        <time>2021-05-14T14:31:16Z</time>
      </trkpt>
      <trkpt lat="43.62551" lon="3.69993">
        <ele>156</ele>
        <time>2021-05-14T14:31:17Z</time>
      </trkpt>
      <trkpt lat="43.62552" lon="3.69996">
        <ele>156</ele>
        <time>2021-05-14T14:31:18Z</time>
      </trkpt>
      <trkpt lat="43.62553" lon="3.69998">
        <ele>156</ele>
        <time>2021-05-14T14:31:19Z</time>
      </trkpt>
      <trkpt lat="43.62554" lon="3.70001">
        <ele>156</ele>
        <time>2021-05-14T14:31:20Z</time>
      </trkpt>
      <trkpt lat="43.62556" lon="3.70003">
        <ele>156</ele>
        <time>2021-05-14T14:31:21Z</time>
      </trkpt>
      <trkpt lat="43.62557" lon="3.70006">
        <ele>156</ele>
        <time>2021-05-14T14:31:22Z</time>
      </trkpt>
      <trkpt lat="43.62558" lon="3.70008">
        <ele>156</ele>
        <time>2021-05-14T14:31:23Z</time>
      </trkpt>
      <trkpt lat="43.62559" lon="3.7001">
        <ele>156</ele>
        <time>2021-05-14T14:31:24Z</time>
      </trkpt>
      <trkpt lat="43.6256" lon="3.70013">
        <ele>156</ele>
        <time>2021-05-14T14:31:25Z</time>
      </trkpt>
      <trkpt lat="43.62562" lon="3.70015">
        <ele>156</ele>
        <time>2021-05-14T14:31:26Z</time>
      </trkpt>
      <trkpt lat="43.62563" lon="3.70017">
        <ele>156</ele>
        <time>2021-05-14T14:31:27Z</time>
      </trkpt>
      <trkpt lat="43.62565" lon="3.70019">
        <ele>156</ele>
        <time>2021-05-14T14:31:28Z</time>
      </trkpt>
      <trkpt lat="43.62566" lon="3.70021">
        <ele>156</ele>
        <time>2021-05-14T14:31:29Z</time>
      </trkpt>
      <trkpt lat="43.62568" lon="3.70023">
        <ele>156</ele>
        <time>2021-05-14T14:31:30Z</time>
      </trkpt>
      <trkpt lat="43.62569" lon="3.70025">
        <ele>156</ele>
        <time>2021-05-14T14:31:31Z</time>
      </trkpt>
      <trkpt lat="43.62571" lon="3.70027">
        <ele>156</ele>
        <time>2021-05-14T14:31:32Z</time>
      </trkpt>
      <trkpt lat="43.62572" lon="3.70029">
        <ele>156</ele>
        <time>2021-05-14T14:31:33Z</time>
      </trkpt>
      <trkpt lat="43.62575" lon="3.70032">
        <ele>156</ele>
        <time>2021-05-14T14:31:34Z</time>
      </trkpt>
      <trkpt lat="43.62577" lon="3.70035">
        <ele>156</ele>
        <time>2021-05-14T14:31:35Z</time>
      </trkpt>
      <trkpt lat="43.6258" lon="3.70038">
        <ele>156</ele>
        <time>2021-05-14T14:31:36Z</time>
      </trkpt>
      <trkpt lat="43.62582" lon="3.70041">
        <ele>156</ele>
        <time>2021-05-14T14:31:37Z</time>
      </trkpt>
      <trkpt lat="43.62584" lon="3.70045">
        <ele>156</ele>
        <time>2021-05-14T14:31:38Z</time>
      </trkpt>
      <trkpt lat="43.62586" lon="3.70049">
        <ele>156</ele>
        <time>2021-05-14T14:31:39Z</time>
      </trkpt>
      <trkpt lat="43.62588" lon="3.70053">
        <ele>155</ele>
        <time>2021-05-14T14:31:40Z</time>
      </trkpt>
      <trkpt lat="43.62591" lon="3.70057">
        <ele>155</ele>
        <time>2021-05-14T14:31:41Z</time>
      </trkpt>
      <trkpt lat="43.62593" lon="3.7006">
        <ele>155</ele>
        <time>2021-05-14T14:31:42Z</time>
      </trkpt>
      <trkpt lat="43.62596" lon="3.70063">
        <ele>155</ele>
        <time>2021-05-14T14:31:43Z</time>
      </trkpt>
      <trkpt lat="43.62599" lon="3.70066">
        <ele>155</ele>
        <time>2021-05-14T14:31:44Z</time>
      </trkpt>
      <trkpt lat="43.62601" lon="3.70069">
        <ele>155</ele>
        <time>2021-05-14T14:31:45Z</time>
      </trkpt>
      <trkpt lat="43.62605" lon="3.7007">
        <ele>155</ele>
        <time>2021-05-14T14:31:46Z</time>
      </trkpt>
      <trkpt lat="43.62609" lon="3.70071">
        <ele>155</ele>
        <time>2021-05-14T14:31:47Z</time>
      </trkpt>
      <trkpt lat="43.62613" lon="3.70071">
        <ele>155</ele>
        <time>2021-05-14T14:31:48Z</time>
      </trkpt>
      <trkpt lat="43.62616" lon="3.70071">
        <ele>155</ele>
        <time>2021-05-14T14:31:49Z</time>
      </trkpt>
      <trkpt lat="43.6262" lon="3.70069">
        <ele>153</ele>
        <time>2021-05-14T14:31:50Z</time>
      </trkpt>
      <trkpt lat="43.62623" lon="3.70068">
        <ele>153</ele>
        <time>2021-05-14T14:31:51Z</time>
      </trkpt>
      <trkpt lat="43.62625" lon="3.70068">
        <ele>153</ele>
        <time>2021-05-14T14:31:52Z</time>
      </trkpt>
      <trkpt lat="43.62629" lon="3.70065">
        <ele>153</ele>
        <time>2021-05-14T14:31:53Z</time>
      </trkpt>
      <trkpt lat="43.62632" lon="3.70062">
        <ele>153</ele>
        <time>2021-05-14T14:31:54Z</time>
      </trkpt>
      <trkpt lat="43.62635" lon="3.7006">
        <ele>153</ele>
        <time>2021-05-14T14:31:55Z</time>
      </trkpt>
      <trkpt lat="43.62638" lon="3.70059">
        <ele>153</ele>
        <time>2021-05-14T14:31:57Z</time>
      </trkpt>
      <trkpt lat="43.62641" lon="3.70057">
        <ele>153</ele>
        <time>2021-05-14T14:31:58Z</time>
      </trkpt>
      <trkpt lat="43.62644" lon="3.70056">
        <ele>153</ele>
        <time>2021-05-14T14:31:59Z</time>
      </trkpt>
      <trkpt lat="43.62646" lon="3.70054">
        <ele>150</ele>
        <time>2021-05-14T14:32:00Z</time>
      </trkpt>
      <trkpt lat="43.62652" lon="3.7005">
        <ele>150</ele>
        <time>2021-05-14T14:32:01Z</time>
      </trkpt>
      <trkpt lat="43.62655" lon="3.70047">
        <ele>150</ele>
        <time>2021-05-14T14:32:02Z</time>
      </trkpt>
      <trkpt lat="43.62658" lon="3.70045">
        <ele>150</ele>
        <time>2021-05-14T14:32:03Z</time>
      </trkpt>
      <trkpt lat="43.62661" lon="3.70041">
        <ele>150</ele>
        <time>2021-05-14T14:32:04Z</time>
      </trkpt>
      <trkpt lat="43.62668" lon="3.70035">
        <ele>150</ele>
        <time>2021-05-14T14:32:06Z</time>
      </trkpt>
      <trkpt lat="43.62671" lon="3.70031">
        <ele>150</ele>
        <time>2021-05-14T14:32:07Z</time>
      </trkpt>
      <trkpt lat="43.62674" lon="3.70028">
        <ele>150</ele>
        <time>2021-05-14T14:32:08Z</time>
      </trkpt>
      <trkpt lat="43.62677" lon="3.70024">
        <ele>150</ele>
        <time>2021-05-14T14:32:09Z</time>
      </trkpt>
      <trkpt lat="43.6268" lon="3.70021">
        <ele>147</ele>
        <time>2021-05-14T14:32:10Z</time>
      </trkpt>
      <trkpt lat="43.62683" lon="3.70018">
        <ele>147</ele>
        <time>2021-05-14T14:32:11Z</time>
      </trkpt>
      <trkpt lat="43.62686" lon="3.70014">
        <ele>147</ele>
        <time>2021-05-14T14:32:12Z</time>
      </trkpt>
      <trkpt lat="43.62688" lon="3.70011">
        <ele>147</ele>
        <time>2021-05-14T14:32:13Z</time>
      </trkpt>
      <trkpt lat="43.62691" lon="3.70008">
        <ele>147</ele>
        <time>2021-05-14T14:32:14Z</time>
      </trkpt>
      <trkpt lat="43.62693" lon="3.70004">
        <ele>147</ele>
        <time>2021-05-14T14:32:15Z</time>
      </trkpt>
      <trkpt lat="43.62695" lon="3.70001">
        <ele>147</ele>
        <time>2021-05-14T14:32:16Z</time>
      </trkpt>
      <trkpt lat="43.62696" lon="3.69998">
        <ele>147</ele>
        <time>2021-05-14T14:32:17Z</time>
      </trkpt>
      <trkpt lat="43.62697" lon="3.69995">
        <ele>147</ele>
        <time>2021-05-14T14:32:18Z</time>
      </trkpt>
      <trkpt lat="43.62698" lon="3.69993">
        <ele>147</ele>
        <time>2021-05-14T14:32:19Z</time>
      </trkpt>
      <trkpt lat="43.627" lon="3.69989">
        <ele>147</ele>
        <time>2021-05-14T14:32:22Z</time>
      </trkpt>
      <trkpt lat="43.62704" lon="3.6999">
        <ele>147</ele>
        <time>2021-05-14T14:32:23Z</time>
      </trkpt>
      <trkpt lat="43.62707" lon="3.69991">
        <ele>147</ele>
        <time>2021-05-14T14:32:24Z</time>
      </trkpt>
      <trkpt lat="43.62708" lon="3.69993">
        <ele>147</ele>
        <time>2021-05-14T14:32:25Z</time>
      </trkpt>
      <trkpt lat="43.62709" lon="3.69996">
        <ele>147</ele>
        <time>2021-05-14T14:32:26Z</time>
      </trkpt>
      <trkpt lat="43.6271" lon="3.69999">
        <ele>147</ele>
        <time>2021-05-14T14:32:28Z</time>
      </trkpt>
      <trkpt lat="43.62709" lon="3.70002">
        <ele>147</ele>
        <time>2021-05-14T14:32:29Z</time>
      </trkpt>
      <trkpt lat="43.62709" lon="3.70005">
        <ele>145</ele>
        <time>2021-05-14T14:32:30Z</time>
      </trkpt>
      <trkpt lat="43.62709" lon="3.70009">
        <ele>145</ele>
        <time>2021-05-14T14:32:31Z</time>
      </trkpt>
      <trkpt lat="43.62708" lon="3.70013">
        <ele>145</ele>
        <time>2021-05-14T14:32:32Z</time>
      </trkpt>
      <trkpt lat="43.62708" lon="3.70016">
        <ele>145</ele>
        <time>2021-05-14T14:32:33Z</time>
      </trkpt>
      <trkpt lat="43.62707" lon="3.70021">
        <ele>145</ele>
        <time>2021-05-14T14:32:34Z</time>
      </trkpt>
      <trkpt lat="43.62707" lon="3.70025">
        <ele>145</ele>
        <time>2021-05-14T14:32:35Z</time>
      </trkpt>
      <trkpt lat="43.62706" lon="3.70029">
        <ele>145</ele>
        <time>2021-05-14T14:32:36Z</time>
      </trkpt>
      <trkpt lat="43.62705" lon="3.70034">
        <ele>145</ele>
        <time>2021-05-14T14:32:37Z</time>
      </trkpt>
      <trkpt lat="43.62705" lon="3.70038">
        <ele>145</ele>
        <time>2021-05-14T14:32:38Z</time>
      </trkpt>
      <trkpt lat="43.62704" lon="3.70043">
        <ele>145</ele>
        <time>2021-05-14T14:32:39Z</time>
      </trkpt>
      <trkpt lat="43.62703" lon="3.70048">
        <ele>144</ele>
        <time>2021-05-14T14:32:40Z</time>
      </trkpt>
      <trkpt lat="43.62703" lon="3.70053">
        <ele>144</ele>
        <time>2021-05-14T14:32:41Z</time>
      </trkpt>
      <trkpt lat="43.62702" lon="3.70058">
        <ele>144</ele>
        <time>2021-05-14T14:32:42Z</time>
      </trkpt>
      <trkpt lat="43.62701" lon="3.70063">
        <ele>144</ele>
        <time>2021-05-14T14:32:43Z</time>
      </trkpt>
      <trkpt lat="43.627" lon="3.70068">
        <ele>144</ele>
        <time>2021-05-14T14:32:44Z</time>
      </trkpt>
      <trkpt lat="43.627" lon="3.70073">
        <ele>144</ele>
        <time>2021-05-14T14:32:45Z</time>
      </trkpt>
      <trkpt lat="43.62699" lon="3.70078">
        <ele>144</ele>
        <time>2021-05-14T14:32:46Z</time>
      </trkpt>
      <trkpt lat="43.62698" lon="3.70083">
        <ele>144</ele>
        <time>2021-05-14T14:32:47Z</time>
      </trkpt>
      <trkpt lat="43.62697" lon="3.70088">
        <ele>144</ele>
        <time>2021-05-14T14:32:48Z</time>
      </trkpt>
      <trkpt lat="43.62696" lon="3.70092">
        <ele>144</ele>
        <time>2021-05-14T14:32:49Z</time>
      </trkpt>
      <trkpt lat="43.62695" lon="3.70102">
        <ele>144</ele>
        <time>2021-05-14T14:32:50Z</time>
      </trkpt>
      <trkpt lat="43.62694" lon="3.70107">
        <ele>144</ele>
        <time>2021-05-14T14:32:51Z</time>
      </trkpt>
      <trkpt lat="43.62693" lon="3.70112">
        <ele>144</ele>
        <time>2021-05-14T14:32:52Z</time>
      </trkpt>
      <trkpt lat="43.62692" lon="3.70117">
        <ele>144</ele>
        <time>2021-05-14T14:32:53Z</time>
      </trkpt>
      <trkpt lat="43.62691" lon="3.70122">
        <ele>144</ele>
        <time>2021-05-14T14:32:54Z</time>
      </trkpt>
      <trkpt lat="43.6269" lon="3.70127">
        <ele>144</ele>
        <time>2021-05-14T14:32:55Z</time>
      </trkpt>
      <trkpt lat="43.62689" lon="3.70131">
        <ele>144</ele>
        <time>2021-05-14T14:32:56Z</time>
      </trkpt>
      <trkpt lat="43.62689" lon="3.70136">
        <ele>144</ele>
        <time>2021-05-14T14:32:57Z</time>
      </trkpt>
      <trkpt lat="43.62687" lon="3.70141">
        <ele>144</ele>
        <time>2021-05-14T14:32:58Z</time>
      </trkpt>
      <trkpt lat="43.62686" lon="3.70146">
        <ele>144</ele>
        <time>2021-05-14T14:32:59Z</time>
      </trkpt>
      <trkpt lat="43.62685" lon="3.7015">
        <ele>144</ele>
        <time>2021-05-14T14:33:00Z</time>
      </trkpt>
      <trkpt lat="43.62684" lon="3.70155">
        <ele>144</ele>
        <time>2021-05-14T14:33:01Z</time>
      </trkpt>
      <trkpt lat="43.62684" lon="3.7016">
        <ele>144</ele>
        <time>2021-05-14T14:33:02Z</time>
      </trkpt>
      <trkpt lat="43.62683" lon="3.70165">
        <ele>144</ele>
        <time>2021-05-14T14:33:03Z</time>
      </trkpt>
      <trkpt lat="43.62683" lon="3.7017">
        <ele>144</ele>
        <time>2021-05-14T14:33:04Z</time>
      </trkpt>
      <trkpt lat="43.62681" lon="3.7018">
        <ele>144</ele>
        <time>2021-05-14T14:33:06Z</time>
      </trkpt>
      <trkpt lat="43.6268" lon="3.70185">
        <ele>144</ele>
        <time>2021-05-14T14:33:07Z</time>
      </trkpt>
      <trkpt lat="43.62679" lon="3.7019">
        <ele>144</ele>
        <time>2021-05-14T14:33:08Z</time>
      </trkpt>
      <trkpt lat="43.62679" lon="3.70195">
        <ele>144</ele>
        <time>2021-05-14T14:33:09Z</time>
      </trkpt>
      <trkpt lat="43.62678" lon="3.702">
        <ele>144</ele>
        <time>2021-05-14T14:33:10Z</time>
      </trkpt>
      <trkpt lat="43.62677" lon="3.70205">
        <ele>144</ele>
        <time>2021-05-14T14:33:11Z</time>
      </trkpt>
      <trkpt lat="43.62676" lon="3.7021">
        <ele>144</ele>
        <time>2021-05-14T14:33:12Z</time>
      </trkpt>
      <trkpt lat="43.62675" lon="3.70215">
        <ele>144</ele>
        <time>2021-05-14T14:33:13Z</time>
      </trkpt>
      <trkpt lat="43.62674" lon="3.7022">
        <ele>144</ele>
        <time>2021-05-14T14:33:14Z</time>
      </trkpt>
      <trkpt lat="43.62673" lon="3.70225">
        <ele>144</ele>
        <time>2021-05-14T14:33:15Z</time>
      </trkpt>
      <trkpt lat="43.62671" lon="3.70231">
        <ele>144</ele>
        <time>2021-05-14T14:33:16Z</time>
      </trkpt>
      <trkpt lat="43.6267" lon="3.70236">
        <ele>144</ele>
        <time>2021-05-14T14:33:17Z</time>
      </trkpt>
      <trkpt lat="43.62668" lon="3.70247">
        <ele>144</ele>
        <time>2021-05-14T14:33:19Z</time>
      </trkpt>
      <trkpt lat="43.62667" lon="3.70253">
        <ele>144</ele>
        <time>2021-05-14T14:33:21Z</time>
      </trkpt>
      <trkpt lat="43.62666" lon="3.70258">
        <ele>144</ele>
        <time>2021-05-14T14:33:22Z</time>
      </trkpt>
      <trkpt lat="43.62663" lon="3.70269">
        <ele>144</ele>
        <time>2021-05-14T14:33:23Z</time>
      </trkpt>
      <trkpt lat="43.62662" lon="3.70275">
        <ele>144</ele>
        <time>2021-05-14T14:33:24Z</time>
      </trkpt>
      <trkpt lat="43.62661" lon="3.7028">
        <ele>144</ele>
        <time>2021-05-14T14:33:25Z</time>
      </trkpt>
      <trkpt lat="43.6266" lon="3.70285">
        <ele>144</ele>
        <time>2021-05-14T14:33:26Z</time>
      </trkpt>
      <trkpt lat="43.62659" lon="3.7029">
        <ele>144</ele>
        <time>2021-05-14T14:33:27Z</time>
      </trkpt>
      <trkpt lat="43.62658" lon="3.70296">
        <ele>144</ele>
        <time>2021-05-14T14:33:28Z</time>
      </trkpt>
      <trkpt lat="43.62657" lon="3.70301">
        <ele>144</ele>
        <time>2021-05-14T14:33:29Z</time>
      </trkpt>
      <trkpt lat="43.62656" lon="3.70306">
        <ele>145</ele>
        <time>2021-05-14T14:33:30Z</time>
      </trkpt>
      <trkpt lat="43.62656" lon="3.70312">
        <ele>145</ele>
        <time>2021-05-14T14:33:31Z</time>
      </trkpt>
      <trkpt lat="43.62655" lon="3.70317">
        <ele>145</ele>
        <time>2021-05-14T14:33:32Z</time>
      </trkpt>
      <trkpt lat="43.62654" lon="3.70323">
        <ele>145</ele>
        <time>2021-05-14T14:33:33Z</time>
      </trkpt>
      <trkpt lat="43.62654" lon="3.70328">
        <ele>145</ele>
        <time>2021-05-14T14:33:34Z</time>
      </trkpt>
      <trkpt lat="43.62653" lon="3.70333">
        <ele>145</ele>
        <time>2021-05-14T14:33:35Z</time>
      </trkpt>
      <trkpt lat="43.62652" lon="3.70338">
        <ele>145</ele>
        <time>2021-05-14T14:33:36Z</time>
      </trkpt>
      <trkpt lat="43.6265" lon="3.70343">
        <ele>145</ele>
        <time>2021-05-14T14:33:37Z</time>
      </trkpt>
      <trkpt lat="43.62649" lon="3.70348">
        <ele>145</ele>
        <time>2021-05-14T14:33:38Z</time>
      </trkpt>
      <trkpt lat="43.62647" lon="3.70352">
        <ele>145</ele>
        <time>2021-05-14T14:33:39Z</time>
      </trkpt>
      <trkpt lat="43.62646" lon="3.70357">
        <ele>145</ele>
        <time>2021-05-14T14:33:40Z</time>
      </trkpt>
      <trkpt lat="43.62645" lon="3.70362">
        <ele>145</ele>
        <time>2021-05-14T14:33:41Z</time>
      </trkpt>
      <trkpt lat="43.62645" lon="3.70367">
        <ele>145</ele>
        <time>2021-05-14T14:33:42Z</time>
      </trkpt>
      <trkpt lat="43.62643" lon="3.70376">
        <ele>145</ele>
        <time>2021-05-14T14:33:44Z</time>
      </trkpt>
      <trkpt lat="43.62642" lon="3.70381">
        <ele>145</ele>
        <time>2021-05-14T14:33:45Z</time>
      </trkpt>
      <trkpt lat="43.62641" lon="3.70385">
        <ele>145</ele>
        <time>2021-05-14T14:33:46Z</time>
      </trkpt>
      <trkpt lat="43.6264" lon="3.70389">
        <ele>145</ele>
        <time>2021-05-14T14:33:48Z</time>
      </trkpt>
      <trkpt lat="43.62639" lon="3.70394">
        <ele>145</ele>
        <time>2021-05-14T14:33:49Z</time>
      </trkpt>
      <trkpt lat="43.62639" lon="3.70398">
        <ele>146</ele>
        <time>2021-05-14T14:33:50Z</time>
      </trkpt>
      <trkpt lat="43.62638" lon="3.70403">
        <ele>146</ele>
        <time>2021-05-14T14:33:51Z</time>
      </trkpt>
      <trkpt lat="43.62637" lon="3.70407">
        <ele>146</ele>
        <time>2021-05-14T14:33:52Z</time>
      </trkpt>
      <trkpt lat="43.62637" lon="3.70411">
        <ele>146</ele>
        <time>2021-05-14T14:33:53Z</time>
      </trkpt>
      <trkpt lat="43.62637" lon="3.70415">
        <ele>146</ele>
        <time>2021-05-14T14:33:54Z</time>
      </trkpt>
      <trkpt lat="43.62636" lon="3.70419">
        <ele>146</ele>
        <time>2021-05-14T14:33:55Z</time>
      </trkpt>
      <trkpt lat="43.62636" lon="3.70423">
        <ele>146</ele>
        <time>2021-05-14T14:33:56Z</time>
      </trkpt>
      <trkpt lat="43.62635" lon="3.70427">
        <ele>146</ele>
        <time>2021-05-14T14:33:57Z</time>
      </trkpt>
      <trkpt lat="43.62634" lon="3.70432">
        <ele>146</ele>
        <time>2021-05-14T14:33:58Z</time>
      </trkpt>
      <trkpt lat="43.62634" lon="3.70436">
        <ele>146</ele>
        <time>2021-05-14T14:33:59Z</time>
      </trkpt>
      <trkpt lat="43.62633" lon="3.7044">
        <ele>147</ele>
        <time>2021-05-14T14:34:00Z</time>
      </trkpt>
      <trkpt lat="43.62632" lon="3.70444">
        <ele>147</ele>
        <time>2021-05-14T14:34:01Z</time>
      </trkpt>
      <trkpt lat="43.62631" lon="3.70448">
        <ele>147</ele>
        <time>2021-05-14T14:34:02Z</time>
      </trkpt>
      <trkpt lat="43.6263" lon="3.70453">
        <ele>147</ele>
        <time>2021-05-14T14:34:03Z</time>
      </trkpt>
      <trkpt lat="43.62629" lon="3.70458">
        <ele>147</ele>
        <time>2021-05-14T14:34:04Z</time>
      </trkpt>
      <trkpt lat="43.62629" lon="3.70462">
        <ele>147</ele>
        <time>2021-05-14T14:34:05Z</time>
      </trkpt>
      <trkpt lat="43.62627" lon="3.70467">
        <ele>147</ele>
        <time>2021-05-14T14:34:06Z</time>
      </trkpt>
      <trkpt lat="43.62626" lon="3.70471">
        <ele>147</ele>
        <time>2021-05-14T14:34:07Z</time>
      </trkpt>
      <trkpt lat="43.62625" lon="3.70476">
        <ele>147</ele>
        <time>2021-05-14T14:34:08Z</time>
      </trkpt>
      <trkpt lat="43.62624" lon="3.7048">
        <ele>147</ele>
        <time>2021-05-14T14:34:09Z</time>
      </trkpt>
      <trkpt lat="43.62622" lon="3.70485">
        <ele>147</ele>
        <time>2021-05-14T14:34:10Z</time>
      </trkpt>
      <trkpt lat="43.62621" lon="3.70489">
        <ele>147</ele>
        <time>2021-05-14T14:34:11Z</time>
      </trkpt>
      <trkpt lat="43.6262" lon="3.70492">
        <ele>147</ele>
        <time>2021-05-14T14:34:12Z</time>
      </trkpt>
      <trkpt lat="43.62619" lon="3.70495">
        <ele>147</ele>
        <time>2021-05-14T14:34:13Z</time>
      </trkpt>
      <trkpt lat="43.62618" lon="3.70497">
        <ele>147</ele>
        <time>2021-05-14T14:34:15Z</time>
      </trkpt>
      <trkpt lat="43.62618" lon="3.70498">
        <ele>148</ele>
        <time>2021-05-14T14:34:18Z</time>
      </trkpt>
      <trkpt lat="43.62619" lon="3.70501">
        <ele>148</ele>
        <time>2021-05-14T14:34:21Z</time>
      </trkpt>
      <trkpt lat="43.6262" lon="3.70502">
        <ele>148</ele>
        <time>2021-05-14T14:34:22Z</time>
      </trkpt>
      <trkpt lat="43.62623" lon="3.70502">
        <ele>148</ele>
        <time>2021-05-14T14:34:23Z</time>
      </trkpt>
      <trkpt lat="43.62628" lon="3.705">
        <ele>148</ele>
        <time>2021-05-14T14:34:24Z</time>
      </trkpt>
      <trkpt lat="43.62631" lon="3.70498">
        <ele>148</ele>
        <time>2021-05-14T14:34:25Z</time>
      </trkpt>
      <trkpt lat="43.62634" lon="3.70497">
        <ele>148</ele>
        <time>2021-05-14T14:34:27Z</time>
      </trkpt>
      <trkpt lat="43.62637" lon="3.70496">
        <ele>148</ele>
        <time>2021-05-14T14:34:28Z</time>
      </trkpt>
      <trkpt lat="43.6264" lon="3.70495">
        <ele>148</ele>
        <time>2021-05-14T14:34:29Z</time>
      </trkpt>
      <trkpt lat="43.62643" lon="3.70493">
        <ele>148</ele>
        <time>2021-05-14T14:34:30Z</time>
      </trkpt>
      <trkpt lat="43.62649" lon="3.7049">
        <ele>148</ele>
        <time>2021-05-14T14:34:31Z</time>
      </trkpt>
      <trkpt lat="43.62652" lon="3.70489">
        <ele>148</ele>
        <time>2021-05-14T14:34:32Z</time>
      </trkpt>
      <trkpt lat="43.62654" lon="3.70487">
        <ele>148</ele>
        <time>2021-05-14T14:34:33Z</time>
      </trkpt>
      <trkpt lat="43.62657" lon="3.70485">
        <ele>148</ele>
        <time>2021-05-14T14:34:34Z</time>
      </trkpt>
      <trkpt lat="43.6266" lon="3.70483">
        <ele>148</ele>
        <time>2021-05-14T14:34:35Z</time>
      </trkpt>
      <trkpt lat="43.62663" lon="3.70481">
        <ele>148</ele>
        <time>2021-05-14T14:34:36Z</time>
      </trkpt>
      <trkpt lat="43.62665" lon="3.70479">
        <ele>148</ele>
        <time>2021-05-14T14:34:37Z</time>
      </trkpt>
      <trkpt lat="43.62668" lon="3.70477">
        <ele>148</ele>
        <time>2021-05-14T14:34:38Z</time>
      </trkpt>
      <trkpt lat="43.6267" lon="3.70475">
        <ele>148</ele>
        <time>2021-05-14T14:34:39Z</time>
      </trkpt>
      <trkpt lat="43.62673" lon="3.70474">
        <ele>148</ele>
        <time>2021-05-14T14:34:40Z</time>
      </trkpt>
      <trkpt lat="43.62676" lon="3.70472">
        <ele>148</ele>
        <time>2021-05-14T14:34:41Z</time>
      </trkpt>
      <trkpt lat="43.62678" lon="3.70471">
        <ele>148</ele>
        <time>2021-05-14T14:34:42Z</time>
      </trkpt>
      <trkpt lat="43.62681" lon="3.70469">
        <ele>148</ele>
        <time>2021-05-14T14:34:43Z</time>
      </trkpt>
      <trkpt lat="43.62683" lon="3.70467">
        <ele>148</ele>
        <time>2021-05-14T14:34:44Z</time>
      </trkpt>
      <trkpt lat="43.62686" lon="3.70466">
        <ele>148</ele>
        <time>2021-05-14T14:34:45Z</time>
      </trkpt>
      <trkpt lat="43.62689" lon="3.70464">
        <ele>148</ele>
        <time>2021-05-14T14:34:46Z</time>
      </trkpt>
      <trkpt lat="43.62694" lon="3.7046">
        <ele>148</ele>
        <time>2021-05-14T14:34:48Z</time>
      </trkpt>
      <trkpt lat="43.62697" lon="3.70458">
        <ele>148</ele>
        <time>2021-05-14T14:34:49Z</time>
      </trkpt>
      <trkpt lat="43.627" lon="3.70457">
        <ele>148</ele>
        <time>2021-05-14T14:34:50Z</time>
      </trkpt>
      <trkpt lat="43.62702" lon="3.70455">
        <ele>148</ele>
        <time>2021-05-14T14:34:52Z</time>
      </trkpt>
      <trkpt lat="43.62705" lon="3.70453">
        <ele>148</ele>
        <time>2021-05-14T14:34:53Z</time>
      </trkpt>
      <trkpt lat="43.62708" lon="3.70451">
        <ele>148</ele>
        <time>2021-05-14T14:34:54Z</time>
      </trkpt>
      <trkpt lat="43.62711" lon="3.7045">
        <ele>148</ele>
        <time>2021-05-14T14:34:55Z</time>
      </trkpt>
      <trkpt lat="43.62713" lon="3.70448">
        <ele>148</ele>
        <time>2021-05-14T14:34:56Z</time>
      </trkpt>
      <trkpt lat="43.62716" lon="3.70446">
        <ele>148</ele>
        <time>2021-05-14T14:34:57Z</time>
      </trkpt>
      <trkpt lat="43.62719" lon="3.70444">
        <ele>148</ele>
        <time>2021-05-14T14:34:58Z</time>
      </trkpt>
      <trkpt lat="43.62722" lon="3.70443">
        <ele>148</ele>
        <time>2021-05-14T14:34:59Z</time>
      </trkpt>
      <trkpt lat="43.62725" lon="3.70441">
        <ele>148</ele>
        <time>2021-05-14T14:35:00Z</time>
      </trkpt>
      <trkpt lat="43.62731" lon="3.70437">
        <ele>148</ele>
        <time>2021-05-14T14:35:01Z</time>
      </trkpt>
      <trkpt lat="43.62734" lon="3.70436">
        <ele>148</ele>
        <time>2021-05-14T14:35:02Z</time>
      </trkpt>
      <trkpt lat="43.62736" lon="3.70434">
        <ele>148</ele>
        <time>2021-05-14T14:35:03Z</time>
      </trkpt>
      <trkpt lat="43.62739" lon="3.70432">
        <ele>148</ele>
        <time>2021-05-14T14:35:04Z</time>
      </trkpt>
      <trkpt lat="43.62742" lon="3.7043">
        <ele>148</ele>
        <time>2021-05-14T14:35:05Z</time>
      </trkpt>
      <trkpt lat="43.62745" lon="3.70428">
        <ele>148</ele>
        <time>2021-05-14T14:35:06Z</time>
      </trkpt>
      <trkpt lat="43.62749" lon="3.70426">
        <ele>148</ele>
        <time>2021-05-14T14:35:07Z</time>
      </trkpt>
      <trkpt lat="43.62752" lon="3.70424">
        <ele>148</ele>
        <time>2021-05-14T14:35:08Z</time>
      </trkpt>
      <trkpt lat="43.62755" lon="3.70422">
        <ele>148</ele>
        <time>2021-05-14T14:35:09Z</time>
      </trkpt>
      <trkpt lat="43.62757" lon="3.70419">
        <ele>148</ele>
        <time>2021-05-14T14:35:10Z</time>
      </trkpt>
      <trkpt lat="43.6276" lon="3.70417">
        <ele>148</ele>
        <time>2021-05-14T14:35:12Z</time>
      </trkpt>
      <trkpt lat="43.62763" lon="3.70415">
        <ele>148</ele>
        <time>2021-05-14T14:35:13Z</time>
      </trkpt>
      <trkpt lat="43.62766" lon="3.70413">
        <ele>148</ele>
        <time>2021-05-14T14:35:14Z</time>
      </trkpt>
      <trkpt lat="43.62769" lon="3.70411">
        <ele>148</ele>
        <time>2021-05-14T14:35:15Z</time>
      </trkpt>
      <trkpt lat="43.62772" lon="3.7041">
        <ele>148</ele>
        <time>2021-05-14T14:35:16Z</time>
      </trkpt>
      <trkpt lat="43.62775" lon="3.70408">
        <ele>148</ele>
        <time>2021-05-14T14:35:17Z</time>
      </trkpt>
      <trkpt lat="43.62778" lon="3.70406">
        <ele>148</ele>
        <time>2021-05-14T14:35:18Z</time>
      </trkpt>
      <trkpt lat="43.62781" lon="3.70404">
        <ele>148</ele>
        <time>2021-05-14T14:35:19Z</time>
      </trkpt>
      <trkpt lat="43.62787" lon="3.704">
        <ele>148</ele>
        <time>2021-05-14T14:35:20Z</time>
      </trkpt>
      <trkpt lat="43.6279" lon="3.70398">
        <ele>148</ele>
        <time>2021-05-14T14:35:21Z</time>
      </trkpt>
      <trkpt lat="43.62793" lon="3.70396">
        <ele>148</ele>
        <time>2021-05-14T14:35:22Z</time>
      </trkpt>
      <trkpt lat="43.62797" lon="3.70394">
        <ele>148</ele>
        <time>2021-05-14T14:35:23Z</time>
      </trkpt>
      <trkpt lat="43.628" lon="3.70392">
        <ele>148</ele>
        <time>2021-05-14T14:35:24Z</time>
      </trkpt>
      <trkpt lat="43.62803" lon="3.7039">
        <ele>148</ele>
        <time>2021-05-14T14:35:25Z</time>
      </trkpt>
      <trkpt lat="43.62807" lon="3.70388">
        <ele>148</ele>
        <time>2021-05-14T14:35:26Z</time>
      </trkpt>
      <trkpt lat="43.6281" lon="3.70386">
        <ele>148</ele>
        <time>2021-05-14T14:35:27Z</time>
      </trkpt>
      <trkpt lat="43.62814" lon="3.70384">
        <ele>148</ele>
        <time>2021-05-14T14:35:28Z</time>
      </trkpt>
      <trkpt lat="43.62817" lon="3.70382">
        <ele>148</ele>
        <time>2021-05-14T14:35:29Z</time>
      </trkpt>
      <trkpt lat="43.62821" lon="3.70379">
        <ele>148</ele>
        <time>2021-05-14T14:35:30Z</time>
      </trkpt>
      <trkpt lat="43.62825" lon="3.70377">
        <ele>148</ele>
        <time>2021-05-14T14:35:31Z</time>
      </trkpt>
      <trkpt lat="43.62828" lon="3.70374">
        <ele>148</ele>
        <time>2021-05-14T14:35:32Z</time>
      </trkpt>
      <trkpt lat="43.62832" lon="3.70372">
        <ele>148</ele>
        <time>2021-05-14T14:35:33Z</time>
      </trkpt>
      <trkpt lat="43.62837" lon="3.7037">
        <ele>148</ele>
        <time>2021-05-14T14:35:35Z</time>
      </trkpt>
      <trkpt lat="43.62841" lon="3.70367">
        <ele>148</ele>
        <time>2021-05-14T14:35:36Z</time>
      </trkpt>
      <trkpt lat="43.62845" lon="3.70364">
        <ele>148</ele>
        <time>2021-05-14T14:35:37Z</time>
      </trkpt>
      <trkpt lat="43.6285" lon="3.70362">
        <ele>148</ele>
        <time>2021-05-14T14:35:38Z</time>
      </trkpt>
      <trkpt lat="43.62855" lon="3.70359">
        <ele>148</ele>
        <time>2021-05-14T14:35:39Z</time>
      </trkpt>
      <trkpt lat="43.62859" lon="3.70356">
        <ele>148</ele>
        <time>2021-05-14T14:35:40Z</time>
      </trkpt>
      <trkpt lat="43.6287" lon="3.7035">
        <ele>146</ele>
        <time>2021-05-14T14:35:41Z</time>
      </trkpt>
      <trkpt lat="43.62875" lon="3.70347">
        <ele>146</ele>
        <time>2021-05-14T14:35:42Z</time>
      </trkpt>
      <trkpt lat="43.62881" lon="3.70344">
        <ele>146</ele>
        <time>2021-05-14T14:35:43Z</time>
      </trkpt>
      <trkpt lat="43.62887" lon="3.70341">
        <ele>146</ele>
        <time>2021-05-14T14:35:44Z</time>
      </trkpt>
      <trkpt lat="43.62893" lon="3.70337">
        <ele>146</ele>
        <time>2021-05-14T14:35:45Z</time>
      </trkpt>
      <trkpt lat="43.62899" lon="3.70334">
        <ele>146</ele>
        <time>2021-05-14T14:35:46Z</time>
      </trkpt>
      <trkpt lat="43.62905" lon="3.70332">
        <ele>146</ele>
        <time>2021-05-14T14:35:47Z</time>
      </trkpt>
      <trkpt lat="43.62911" lon="3.7033">
        <ele>146</ele>
        <time>2021-05-14T14:35:48Z</time>
      </trkpt>
      <trkpt lat="43.62918" lon="3.70328">
        <ele>146</ele>
        <time>2021-05-14T14:35:49Z</time>
      </trkpt>
      <trkpt lat="43.62925" lon="3.70325">
        <ele>146</ele>
        <time>2021-05-14T14:35:50Z</time>
      </trkpt>
      <trkpt lat="43.62932" lon="3.70323">
        <ele>143</ele>
        <time>2021-05-14T14:35:51Z</time>
      </trkpt>
      <trkpt lat="43.6294" lon="3.70321">
        <ele>143</ele>
        <time>2021-05-14T14:35:53Z</time>
      </trkpt>
      <trkpt lat="43.62948" lon="3.70319">
        <ele>143</ele>
        <time>2021-05-14T14:35:54Z</time>
      </trkpt>
      <trkpt lat="43.62956" lon="3.70317">
        <ele>143</ele>
        <time>2021-05-14T14:35:55Z</time>
      </trkpt>
      <trkpt lat="43.62964" lon="3.70316">
        <ele>143</ele>
        <time>2021-05-14T14:35:56Z</time>
      </trkpt>
      <trkpt lat="43.62972" lon="3.70314">
        <ele>143</ele>
        <time>2021-05-14T14:35:57Z</time>
      </trkpt>
      <trkpt lat="43.6298" lon="3.70313">
        <ele>143</ele>
        <time>2021-05-14T14:35:58Z</time>
      </trkpt>
      <trkpt lat="43.62989" lon="3.70311">
        <ele>143</ele>
        <time>2021-05-14T14:35:59Z</time>
      </trkpt>
      <trkpt lat="43.62998" lon="3.7031">
        <ele>143</ele>
        <time>2021-05-14T14:36:00Z</time>
      </trkpt>
      <trkpt lat="43.63016" lon="3.70309">
        <ele>138</ele>
        <time>2021-05-14T14:36:01Z</time>
      </trkpt>
      <trkpt lat="43.63024" lon="3.70309">
        <ele>138</ele>
        <time>2021-05-14T14:36:02Z</time>
      </trkpt>
      <trkpt lat="43.63033" lon="3.7031">
        <ele>138</ele>
        <time>2021-05-14T14:36:03Z</time>
      </trkpt>
      <trkpt lat="43.63041" lon="3.7031">
        <ele>138</ele>
        <time>2021-05-14T14:36:04Z</time>
      </trkpt>
      <trkpt lat="43.63049" lon="3.7031">
        <ele>138</ele>
        <time>2021-05-14T14:36:06Z</time>
      </trkpt>
      <trkpt lat="43.63056" lon="3.7031">
        <ele>138</ele>
        <time>2021-05-14T14:36:07Z</time>
      </trkpt>
      <trkpt lat="43.63063" lon="3.7031">
        <ele>138</ele>
        <time>2021-05-14T14:36:08Z</time>
      </trkpt>
      <trkpt lat="43.6307" lon="3.7031">
        <ele>138</ele>
        <time>2021-05-14T14:36:09Z</time>
      </trkpt>
      <trkpt lat="43.63077" lon="3.7031">
        <ele>138</ele>
        <time>2021-05-14T14:36:10Z</time>
      </trkpt>
      <trkpt lat="43.63084" lon="3.70311">
        <ele>135</ele>
        <time>2021-05-14T14:36:11Z</time>
      </trkpt>
      <trkpt lat="43.63091" lon="3.70311">
        <ele>135</ele>
        <time>2021-05-14T14:36:12Z</time>
      </trkpt>
      <trkpt lat="43.63097" lon="3.70311">
        <ele>135</ele>
        <time>2021-05-14T14:36:13Z</time>
      </trkpt>
      <trkpt lat="43.63107" lon="3.70309">
        <ele>135</ele>
        <time>2021-05-14T14:36:14Z</time>
      </trkpt>
      <trkpt lat="43.63112" lon="3.70308">
        <ele>135</ele>
        <time>2021-05-14T14:36:15Z</time>
      </trkpt>
      <trkpt lat="43.63115" lon="3.70307">
        <ele>135</ele>
        <time>2021-05-14T14:36:16Z</time>
      </trkpt>
      <trkpt lat="43.63117" lon="3.70307">
        <ele>135</ele>
        <time>2021-05-14T14:36:17Z</time>
      </trkpt>
      <trkpt lat="43.63119" lon="3.70305">
        <ele>135</ele>
        <time>2021-05-14T14:36:19Z</time>
      </trkpt>
      <trkpt lat="43.63121" lon="3.70304">
        <ele>135</ele>
        <time>2021-05-14T14:36:22Z</time>
      </trkpt>
      <trkpt lat="43.63124" lon="3.70303">
        <ele>135</ele>
        <time>2021-05-14T14:36:24Z</time>
      </trkpt>
      <trkpt lat="43.63126" lon="3.703">
        <ele>135</ele>
        <time>2021-05-14T14:36:25Z</time>
      </trkpt>
      <trkpt lat="43.63126" lon="3.70296">
        <ele>135</ele>
        <time>2021-05-14T14:36:26Z</time>
      </trkpt>
      <trkpt lat="43.63125" lon="3.70291">
        <ele>135</ele>
        <time>2021-05-14T14:36:27Z</time>
      </trkpt>
      <trkpt lat="43.63124" lon="3.70286">
        <ele>135</ele>
        <time>2021-05-14T14:36:28Z</time>
      </trkpt>
      <trkpt lat="43.63123" lon="3.70281">
        <ele>135</ele>
        <time>2021-05-14T14:36:29Z</time>
      </trkpt>
      <trkpt lat="43.63122" lon="3.70276">
        <ele>135</ele>
        <time>2021-05-14T14:36:30Z</time>
      </trkpt>
      <trkpt lat="43.6312" lon="3.7027">
        <ele>134</ele>
        <time>2021-05-14T14:36:31Z</time>
      </trkpt>
      <trkpt lat="43.63119" lon="3.70265">
        <ele>134</ele>
        <time>2021-05-14T14:36:32Z</time>
      </trkpt>
      <trkpt lat="43.63117" lon="3.7026">
        <ele>134</ele>
        <time>2021-05-14T14:36:33Z</time>
      </trkpt>
      <trkpt lat="43.63116" lon="3.70255">
        <ele>134</ele>
        <time>2021-05-14T14:36:34Z</time>
      </trkpt>
      <trkpt lat="43.63114" lon="3.70249">
        <ele>134</ele>
        <time>2021-05-14T14:36:35Z</time>
      </trkpt>
      <trkpt lat="43.63113" lon="3.70244">
        <ele>134</ele>
        <time>2021-05-14T14:36:36Z</time>
      </trkpt>
      <trkpt lat="43.63112" lon="3.70239">
        <ele>134</ele>
        <time>2021-05-14T14:36:37Z</time>
      </trkpt>
      <trkpt lat="43.6311" lon="3.70233">
        <ele>134</ele>
        <time>2021-05-14T14:36:38Z</time>
      </trkpt>
      <trkpt lat="43.63109" lon="3.70228">
        <ele>134</ele>
        <time>2021-05-14T14:36:39Z</time>
      </trkpt>
      <trkpt lat="43.63107" lon="3.70222">
        <ele>134</ele>
        <time>2021-05-14T14:36:40Z</time>
      </trkpt>
      <trkpt lat="43.63106" lon="3.70217">
        <ele>134</ele>
        <time>2021-05-14T14:36:41Z</time>
      </trkpt>
      <trkpt lat="43.63105" lon="3.70212">
        <ele>134</ele>
        <time>2021-05-14T14:36:42Z</time>
      </trkpt>
      <trkpt lat="43.63104" lon="3.70207">
        <ele>134</ele>
        <time>2021-05-14T14:36:43Z</time>
      </trkpt>
      <trkpt lat="43.63103" lon="3.70202">
        <ele>134</ele>
        <time>2021-05-14T14:36:44Z</time>
      </trkpt>
      <trkpt lat="43.63102" lon="3.70198">
        <ele>134</ele>
        <time>2021-05-14T14:36:45Z</time>
      </trkpt>
      <trkpt lat="43.631" lon="3.70194">
        <ele>134</ele>
        <time>2021-05-14T14:36:46Z</time>
      </trkpt>
      <trkpt lat="43.63099" lon="3.7019">
        <ele>134</ele>
        <time>2021-05-14T14:36:47Z</time>
      </trkpt>
      <trkpt lat="43.63097" lon="3.70182">
        <ele>134</ele>
        <time>2021-05-14T14:36:49Z</time>
      </trkpt>
      <trkpt lat="43.63096" lon="3.70178">
        <ele>134</ele>
        <time>2021-05-14T14:36:50Z</time>
      </trkpt>
      <trkpt lat="43.63096" lon="3.70174">
        <ele>134</ele>
        <time>2021-05-14T14:36:51Z</time>
      </trkpt>
      <trkpt lat="43.63094" lon="3.70167">
        <ele>134</ele>
        <time>2021-05-14T14:36:53Z</time>
      </trkpt>
      <trkpt lat="43.63093" lon="3.70163">
        <ele>134</ele>
        <time>2021-05-14T14:36:54Z</time>
      </trkpt>
      <trkpt lat="43.63091" lon="3.7016">
        <ele>134</ele>
        <time>2021-05-14T14:36:55Z</time>
      </trkpt>
      <trkpt lat="43.6309" lon="3.70157">
        <ele>134</ele>
        <time>2021-05-14T14:36:56Z</time>
      </trkpt>
      <trkpt lat="43.6309" lon="3.70152">
        <ele>134</ele>
        <time>2021-05-14T14:36:57Z</time>
      </trkpt>
      <trkpt lat="43.63089" lon="3.70148">
        <ele>134</ele>
        <time>2021-05-14T14:36:58Z</time>
      </trkpt>
      <trkpt lat="43.63088" lon="3.70143">
        <ele>134</ele>
        <time>2021-05-14T14:36:59Z</time>
      </trkpt>
      <trkpt lat="43.63087" lon="3.70139">
        <ele>134</ele>
        <time>2021-05-14T14:37:00Z</time>
      </trkpt>
      <trkpt lat="43.63087" lon="3.70135">
        <ele>134</ele>
        <time>2021-05-14T14:37:01Z</time>
      </trkpt>
      <trkpt lat="43.63087" lon="3.70132">
        <ele>134</ele>
        <time>2021-05-14T14:37:02Z</time>
      </trkpt>
      <trkpt lat="43.63088" lon="3.7013">
        <ele>134</ele>
        <time>2021-05-14T14:37:03Z</time>
      </trkpt>
      <trkpt lat="43.6309" lon="3.70127">
        <ele>134</ele>
        <time>2021-05-14T14:37:05Z</time>
      </trkpt>
      <trkpt lat="43.631" lon="3.70129">
        <ele>133</ele>
        <time>2021-05-14T14:38:59Z</time>
      </trkpt>
      <trkpt lat="43.63105" lon="3.70129">
        <ele>133</ele>
        <time>2021-05-14T14:39:01Z</time>
      </trkpt>
      <trkpt lat="43.63108" lon="3.7013">
        <ele>133</ele>
        <time>2021-05-14T14:39:03Z</time>
      </trkpt>
      <trkpt lat="43.63111" lon="3.7013">
        <ele>133</ele>
        <time>2021-05-14T14:39:04Z</time>
      </trkpt>
      <trkpt lat="43.63114" lon="3.7013">
        <ele>133</ele>
        <time>2021-05-14T14:39:05Z</time>
      </trkpt>
      <trkpt lat="43.63118" lon="3.7013">
        <ele>133</ele>
        <time>2021-05-14T14:39:06Z</time>
      </trkpt>
      <trkpt lat="43.63122" lon="3.7013">
        <ele>133</ele>
        <time>2021-05-14T14:39:07Z</time>
      </trkpt>
      <trkpt lat="43.63126" lon="3.70128">
        <ele>133</ele>
        <time>2021-05-14T14:39:08Z</time>
      </trkpt>
      <trkpt lat="43.63131" lon="3.70124">
        <ele>131</ele>
        <time>2021-05-14T14:39:09Z</time>
      </trkpt>
      <trkpt lat="43.63135" lon="3.70119">
        <ele>131</ele>
        <time>2021-05-14T14:39:10Z</time>
      </trkpt>
      <trkpt lat="43.63138" lon="3.70112">
        <ele>131</ele>
        <time>2021-05-14T14:39:11Z</time>
      </trkpt>
      <trkpt lat="43.63145" lon="3.70101">
        <ele>131</ele>
        <time>2021-05-14T14:39:12Z</time>
      </trkpt>
      <trkpt lat="43.6315" lon="3.70096">
        <ele>131</ele>
        <time>2021-05-14T14:39:13Z</time>
      </trkpt>
      <trkpt lat="43.63154" lon="3.70092">
        <ele>131</ele>
        <time>2021-05-14T14:39:14Z</time>
      </trkpt>
      <trkpt lat="43.63158" lon="3.70088">
        <ele>131</ele>
        <time>2021-05-14T14:39:15Z</time>
      </trkpt>
      <trkpt lat="43.63161" lon="3.70083">
        <ele>131</ele>
        <time>2021-05-14T14:39:17Z</time>
      </trkpt>
      <trkpt lat="43.63163" lon="3.70079">
        <ele>131</ele>
        <time>2021-05-14T14:39:18Z</time>
      </trkpt>
      <trkpt lat="43.63164" lon="3.70068">
        <ele>130</ele>
        <time>2021-05-14T14:39:19Z</time>
      </trkpt>
      <trkpt lat="43.63164" lon="3.70063">
        <ele>130</ele>
        <time>2021-05-14T14:39:20Z</time>
      </trkpt>
      <trkpt lat="43.63164" lon="3.70057">
        <ele>130</ele>
        <time>2021-05-14T14:39:21Z</time>
      </trkpt>
      <trkpt lat="43.63164" lon="3.70052">
        <ele>130</ele>
        <time>2021-05-14T14:39:22Z</time>
      </trkpt>
      <trkpt lat="43.63165" lon="3.70046">
        <ele>130</ele>
        <time>2021-05-14T14:39:23Z</time>
      </trkpt>
      <trkpt lat="43.63166" lon="3.7004">
        <ele>130</ele>
        <time>2021-05-14T14:39:24Z</time>
      </trkpt>
      <trkpt lat="43.63169" lon="3.70035">
        <ele>130</ele>
        <time>2021-05-14T14:39:25Z</time>
      </trkpt>
      <trkpt lat="43.63171" lon="3.70031">
        <ele>130</ele>
        <time>2021-05-14T14:39:26Z</time>
      </trkpt>
      <trkpt lat="43.63174" lon="3.70028">
        <ele>130</ele>
        <time>2021-05-14T14:39:27Z</time>
      </trkpt>
      <trkpt lat="43.63176" lon="3.70026">
        <ele>130</ele>
        <time>2021-05-14T14:39:28Z</time>
      </trkpt>
      <trkpt lat="43.63181" lon="3.70023">
        <ele>130</ele>
        <time>2021-05-14T14:39:30Z</time>
      </trkpt>
      <trkpt lat="43.63184" lon="3.7002">
        <ele>130</ele>
        <time>2021-05-14T14:39:32Z</time>
      </trkpt>
      <trkpt lat="43.63187" lon="3.70018">
        <ele>130</ele>
        <time>2021-05-14T14:39:35Z</time>
      </trkpt>
      <trkpt lat="43.6319" lon="3.70016">
        <ele>130</ele>
        <time>2021-05-14T14:39:37Z</time>
      </trkpt>
      <trkpt lat="43.63192" lon="3.70015">
        <ele>130</ele>
        <time>2021-05-14T14:39:39Z</time>
      </trkpt>
      <trkpt lat="43.63194" lon="3.70013">
        <ele>130</ele>
        <time>2021-05-14T14:39:40Z</time>
      </trkpt>
      <trkpt lat="43.63196" lon="3.70012">
        <ele>130</ele>
        <time>2021-05-14T14:39:41Z</time>
      </trkpt>
      <trkpt lat="43.63197" lon="3.7001">
        <ele>130</ele>
        <time>2021-05-14T14:39:42Z</time>
      </trkpt>
      <trkpt lat="43.63199" lon="3.70009">
        <ele>130</ele>
        <time>2021-05-14T14:39:43Z</time>
      </trkpt>
      <trkpt lat="43.632" lon="3.70008">
        <ele>130</ele>
        <time>2021-05-14T14:39:44Z</time>
      </trkpt>
      <trkpt lat="43.63203" lon="3.70005">
        <ele>130</ele>
        <time>2021-05-14T14:39:45Z</time>
      </trkpt>
      <trkpt lat="43.63205" lon="3.70004">
        <ele>130</ele>
        <time>2021-05-14T14:39:46Z</time>
      </trkpt>
      <trkpt lat="43.63208" lon="3.70001">
        <ele>130</ele>
        <time>2021-05-14T14:39:48Z</time>
      </trkpt>
      <trkpt lat="43.6321" lon="3.69999">
        <ele>131</ele>
        <time>2021-05-14T14:39:49Z</time>
      </trkpt>
      <trkpt lat="43.63213" lon="3.69997">
        <ele>131</ele>
        <time>2021-05-14T14:39:51Z</time>
      </trkpt>
      <trkpt lat="43.63214" lon="3.69996">
        <ele>131</ele>
        <time>2021-05-14T14:39:53Z</time>
      </trkpt>
      <trkpt lat="43.63216" lon="3.69994">
        <ele>131</ele>
        <time>2021-05-14T14:39:54Z</time>
      </trkpt>
      <trkpt lat="43.63218" lon="3.69993">
        <ele>131</ele>
        <time>2021-05-14T14:39:55Z</time>
      </trkpt>
      <trkpt lat="43.6322" lon="3.69992">
        <ele>131</ele>
        <time>2021-05-14T14:39:56Z</time>
      </trkpt>
      <trkpt lat="43.63223" lon="3.69989">
        <ele>131</ele>
        <time>2021-05-14T14:39:57Z</time>
      </trkpt>
      <trkpt lat="43.63226" lon="3.69987">
        <ele>133</ele>
        <time>2021-05-14T14:39:59Z</time>
      </trkpt>
      <trkpt lat="43.63227" lon="3.69985">
        <ele>133</ele>
        <time>2021-05-14T14:40:00Z</time>
      </trkpt>
      <trkpt lat="43.63229" lon="3.69984">
        <ele>133</ele>
        <time>2021-05-14T14:40:02Z</time>
      </trkpt>
      <trkpt lat="43.63232" lon="3.69981">
        <ele>133</ele>
        <time>2021-05-14T14:40:04Z</time>
      </trkpt>
      <trkpt lat="43.63233" lon="3.69979">
        <ele>133</ele>
        <time>2021-05-14T14:40:05Z</time>
      </trkpt>
      <trkpt lat="43.63235" lon="3.69976">
        <ele>133</ele>
        <time>2021-05-14T14:40:06Z</time>
      </trkpt>
      <trkpt lat="43.63238" lon="3.69972">
        <ele>133</ele>
        <time>2021-05-14T14:40:08Z</time>
      </trkpt>
      <trkpt lat="43.63239" lon="3.6997">
        <ele>133</ele>
        <time>2021-05-14T14:40:10Z</time>
      </trkpt>
      <trkpt lat="43.6324" lon="3.69968">
        <ele>133</ele>
        <time>2021-05-14T14:40:11Z</time>
      </trkpt>
      <trkpt lat="43.63241" lon="3.69966">
        <ele>133</ele>
        <time>2021-05-14T14:40:12Z</time>
      </trkpt>
      <trkpt lat="43.63242" lon="3.69963">
        <ele>133</ele>
        <time>2021-05-14T14:40:13Z</time>
      </trkpt>
      <trkpt lat="43.63244" lon="3.69958">
        <ele>133</ele>
        <time>2021-05-14T14:40:14Z</time>
      </trkpt>
      <trkpt lat="43.63245" lon="3.69955">
        <ele>133</ele>
        <time>2021-05-14T14:40:15Z</time>
      </trkpt>
      <trkpt lat="43.63246" lon="3.69953">
        <ele>133</ele>
        <time>2021-05-14T14:40:16Z</time>
      </trkpt>
      <trkpt lat="43.63247" lon="3.6995">
        <ele>133</ele>
        <time>2021-05-14T14:40:17Z</time>
      </trkpt>
      <trkpt lat="43.63249" lon="3.69948">
        <ele>133</ele>
        <time>2021-05-14T14:40:18Z</time>
      </trkpt>
      <trkpt lat="43.63251" lon="3.69945">
        <ele>135</ele>
        <time>2021-05-14T14:40:19Z</time>
      </trkpt>
      <trkpt lat="43.63252" lon="3.69942">
        <ele>135</ele>
        <time>2021-05-14T14:40:20Z</time>
      </trkpt>
      <trkpt lat="43.63254" lon="3.6994">
        <ele>135</ele>
        <time>2021-05-14T14:40:21Z</time>
      </trkpt>
      <trkpt lat="43.63255" lon="3.69939">
        <ele>135</ele>
        <time>2021-05-14T14:40:22Z</time>
      </trkpt>
      <trkpt lat="43.63258" lon="3.69936">
        <ele>135</ele>
        <time>2021-05-14T14:40:24Z</time>
      </trkpt>
      <trkpt lat="43.6326" lon="3.69935">
        <ele>135</ele>
        <time>2021-05-14T14:40:25Z</time>
      </trkpt>
      <trkpt lat="43.63262" lon="3.69933">
        <ele>135</ele>
        <time>2021-05-14T14:40:26Z</time>
      </trkpt>
      <trkpt lat="43.63264" lon="3.69932">
        <ele>135</ele>
        <time>2021-05-14T14:40:27Z</time>
      </trkpt>
      <trkpt lat="43.63266" lon="3.69931">
        <ele>135</ele>
        <time>2021-05-14T14:40:28Z</time>
      </trkpt>
      <trkpt lat="43.63268" lon="3.6993">
        <ele>137</ele>
        <time>2021-05-14T14:40:29Z</time>
      </trkpt>
      <trkpt lat="43.6327" lon="3.69928">
        <ele>137</ele>
        <time>2021-05-14T14:40:30Z</time>
      </trkpt>
      <trkpt lat="43.63274" lon="3.69925">
        <ele>137</ele>
        <time>2021-05-14T14:40:32Z</time>
      </trkpt>
      <trkpt lat="43.63276" lon="3.69924">
        <ele>137</ele>
        <time>2021-05-14T14:40:33Z</time>
      </trkpt>
      <trkpt lat="43.63278" lon="3.69923">
        <ele>137</ele>
        <time>2021-05-14T14:40:34Z</time>
      </trkpt>
      <trkpt lat="43.6328" lon="3.69922">
        <ele>137</ele>
        <time>2021-05-14T14:40:35Z</time>
      </trkpt>
      <trkpt lat="43.63282" lon="3.69921">
        <ele>137</ele>
        <time>2021-05-14T14:40:37Z</time>
      </trkpt>
      <trkpt lat="43.63284" lon="3.6992">
        <ele>137</ele>
        <time>2021-05-14T14:40:38Z</time>
      </trkpt>
      <trkpt lat="43.63286" lon="3.6992">
        <ele>138</ele>
        <time>2021-05-14T14:40:39Z</time>
      </trkpt>
      <trkpt lat="43.63288" lon="3.69919">
        <ele>138</ele>
        <time>2021-05-14T14:40:40Z</time>
      </trkpt>
      <trkpt lat="43.63291" lon="3.69919">
        <ele>138</ele>
        <time>2021-05-14T14:40:41Z</time>
      </trkpt>
      <trkpt lat="43.63293" lon="3.69918">
        <ele>138</ele>
        <time>2021-05-14T14:40:42Z</time>
      </trkpt>
      <trkpt lat="43.63295" lon="3.69917">
        <ele>138</ele>
        <time>2021-05-14T14:40:43Z</time>
      </trkpt>
      <trkpt lat="43.63297" lon="3.69916">
        <ele>138</ele>
        <time>2021-05-14T14:40:44Z</time>
      </trkpt>
      <trkpt lat="43.633" lon="3.69915">
        <ele>138</ele>
        <time>2021-05-14T14:40:45Z</time>
      </trkpt>
      <trkpt lat="43.63301" lon="3.69914">
        <ele>138</ele>
        <time>2021-05-14T14:40:46Z</time>
      </trkpt>
      <trkpt lat="43.63304" lon="3.69912">
        <ele>138</ele>
        <time>2021-05-14T14:40:48Z</time>
      </trkpt>
      <trkpt lat="43.63307" lon="3.69909">
        <ele>140</ele>
        <time>2021-05-14T14:40:49Z</time>
      </trkpt>
      <trkpt lat="43.6331" lon="3.69907">
        <ele>140</ele>
        <time>2021-05-14T14:40:51Z</time>
      </trkpt>
      <trkpt lat="43.63311" lon="3.69905">
        <ele>140</ele>
        <time>2021-05-14T14:40:52Z</time>
      </trkpt>
      <trkpt lat="43.63312" lon="3.69903">
        <ele>140</ele>
        <time>2021-05-14T14:40:53Z</time>
      </trkpt>
      <trkpt lat="43.63314" lon="3.69901">
        <ele>140</ele>
        <time>2021-05-14T14:40:54Z</time>
      </trkpt>
      <trkpt lat="43.63315" lon="3.69899">
        <ele>140</ele>
        <time>2021-05-14T14:40:55Z</time>
      </trkpt>
      <trkpt lat="43.63317" lon="3.69898">
        <ele>140</ele>
        <time>2021-05-14T14:40:56Z</time>
      </trkpt>
      <trkpt lat="43.63319" lon="3.69897">
        <ele>140</ele>
        <time>2021-05-14T14:40:57Z</time>
      </trkpt>
      <trkpt lat="43.6332" lon="3.69896">
        <ele>140</ele>
        <time>2021-05-14T14:40:58Z</time>
      </trkpt>
      <trkpt lat="43.63324" lon="3.69894">
        <ele>140</ele>
        <time>2021-05-14T14:41:00Z</time>
      </trkpt>
      <trkpt lat="43.63325" lon="3.69893">
        <ele>140</ele>
        <time>2021-05-14T14:41:02Z</time>
      </trkpt>
      <trkpt lat="43.63328" lon="3.69891">
        <ele>140</ele>
        <time>2021-05-14T14:41:03Z</time>
      </trkpt>
      <trkpt lat="43.63332" lon="3.69889">
        <ele>140</ele>
        <time>2021-05-14T14:41:06Z</time>
      </trkpt>
      <trkpt lat="43.63335" lon="3.69887">
        <ele>140</ele>
        <time>2021-05-14T14:41:07Z</time>
      </trkpt>
      <trkpt lat="43.63338" lon="3.69888">
        <ele>142</ele>
        <time>2021-05-14T14:41:09Z</time>
      </trkpt>
      <trkpt lat="43.63341" lon="3.6989">
        <ele>142</ele>
        <time>2021-05-14T14:41:11Z</time>
      </trkpt>
      <trkpt lat="43.63343" lon="3.69893">
        <ele>142</ele>
        <time>2021-05-14T14:41:13Z</time>
      </trkpt>
      <trkpt lat="43.63346" lon="3.69894">
        <ele>142</ele>
        <time>2021-05-14T14:41:15Z</time>
      </trkpt>
      <trkpt lat="43.63349" lon="3.69895">
        <ele>142</ele>
        <time>2021-05-14T14:41:17Z</time>
      </trkpt>
      <trkpt lat="43.63351" lon="3.69896">
        <ele>142</ele>
        <time>2021-05-14T14:41:18Z</time>
      </trkpt>
      <trkpt lat="43.63353" lon="3.69897">
        <ele>143</ele>
        <time>2021-05-14T14:41:19Z</time>
      </trkpt>
      <trkpt lat="43.63355" lon="3.69897">
        <ele>143</ele>
        <time>2021-05-14T14:41:20Z</time>
      </trkpt>
      <trkpt lat="43.63357" lon="3.69899">
        <ele>143</ele>
        <time>2021-05-14T14:41:21Z</time>
      </trkpt>
      <trkpt lat="43.63359" lon="3.69903">
        <ele>143</ele>
        <time>2021-05-14T14:41:23Z</time>
      </trkpt>
      <trkpt lat="43.6336" lon="3.69906">
        <ele>143</ele>
        <time>2021-05-14T14:41:24Z</time>
      </trkpt>
      <trkpt lat="43.63361" lon="3.69909">
        <ele>143</ele>
        <time>2021-05-14T14:41:25Z</time>
      </trkpt>
      <trkpt lat="43.63361" lon="3.69914">
        <ele>143</ele>
        <time>2021-05-14T14:41:26Z</time>
      </trkpt>
      <trkpt lat="43.6336" lon="3.69918">
        <ele>143</ele>
        <time>2021-05-14T14:41:27Z</time>
      </trkpt>
      <trkpt lat="43.6336" lon="3.69922">
        <ele>143</ele>
        <time>2021-05-14T14:41:28Z</time>
      </trkpt>
      <trkpt lat="43.6336" lon="3.69926">
        <ele>143</ele>
        <time>2021-05-14T14:41:29Z</time>
      </trkpt>
      <trkpt lat="43.63359" lon="3.6993">
        <ele>143</ele>
        <time>2021-05-14T14:41:30Z</time>
      </trkpt>
      <trkpt lat="43.63358" lon="3.69934">
        <ele>143</ele>
        <time>2021-05-14T14:41:31Z</time>
      </trkpt>
      <trkpt lat="43.63357" lon="3.69937">
        <ele>143</ele>
        <time>2021-05-14T14:41:32Z</time>
      </trkpt>
      <trkpt lat="43.63356" lon="3.69941">
        <ele>143</ele>
        <time>2021-05-14T14:41:33Z</time>
      </trkpt>
      <trkpt lat="43.63354" lon="3.69944">
        <ele>143</ele>
        <time>2021-05-14T14:41:34Z</time>
      </trkpt>
      <trkpt lat="43.63353" lon="3.69948">
        <ele>143</ele>
        <time>2021-05-14T14:41:35Z</time>
      </trkpt>
      <trkpt lat="43.63353" lon="3.6995">
        <ele>143</ele>
        <time>2021-05-14T14:41:36Z</time>
      </trkpt>
      <trkpt lat="43.63355" lon="3.69954">
        <ele>143</ele>
        <time>2021-05-14T14:41:37Z</time>
      </trkpt>
      <trkpt lat="43.63356" lon="3.69958">
        <ele>143</ele>
        <time>2021-05-14T14:41:38Z</time>
      </trkpt>
      <trkpt lat="43.63358" lon="3.69962">
        <ele>144</ele>
        <time>2021-05-14T14:41:39Z</time>
      </trkpt>
      <trkpt lat="43.63359" lon="3.69971">
        <ele>144</ele>
        <time>2021-05-14T14:41:41Z</time>
      </trkpt>
      <trkpt lat="43.63359" lon="3.69975">
        <ele>144</ele>
        <time>2021-05-14T14:41:42Z</time>
      </trkpt>
      <trkpt lat="43.63358" lon="3.6998">
        <ele>144</ele>
        <time>2021-05-14T14:41:43Z</time>
      </trkpt>
      <trkpt lat="43.63358" lon="3.69984">
        <ele>144</ele>
        <time>2021-05-14T14:41:45Z</time>
      </trkpt>
      <trkpt lat="43.63358" lon="3.69988">
        <ele>144</ele>
        <time>2021-05-14T14:41:46Z</time>
      </trkpt>
      <trkpt lat="43.63357" lon="3.69993">
        <ele>144</ele>
        <time>2021-05-14T14:41:47Z</time>
      </trkpt>
      <trkpt lat="43.63357" lon="3.69997">
        <ele>144</ele>
        <time>2021-05-14T14:41:48Z</time>
      </trkpt>
      <trkpt lat="43.63356" lon="3.70007">
        <ele>145</ele>
        <time>2021-05-14T14:41:49Z</time>
      </trkpt>
      <trkpt lat="43.63355" lon="3.70011">
        <ele>145</ele>
        <time>2021-05-14T14:41:50Z</time>
      </trkpt>
      <trkpt lat="43.63355" lon="3.70016">
        <ele>145</ele>
        <time>2021-05-14T14:41:51Z</time>
      </trkpt>
      <trkpt lat="43.63356" lon="3.7002">
        <ele>145</ele>
        <time>2021-05-14T14:41:52Z</time>
      </trkpt>
      <trkpt lat="43.63355" lon="3.70024">
        <ele>145</ele>
        <time>2021-05-14T14:41:53Z</time>
      </trkpt>
      <trkpt lat="43.63355" lon="3.70028">
        <ele>145</ele>
        <time>2021-05-14T14:41:54Z</time>
      </trkpt>
      <trkpt lat="43.63355" lon="3.70032">
        <ele>145</ele>
        <time>2021-05-14T14:41:55Z</time>
      </trkpt>
      <trkpt lat="43.63355" lon="3.70037">
        <ele>145</ele>
        <time>2021-05-14T14:41:56Z</time>
      </trkpt>
      <trkpt lat="43.63356" lon="3.70045">
        <ele>145</ele>
        <time>2021-05-14T14:41:58Z</time>
      </trkpt>
      <trkpt lat="43.63355" lon="3.7005">
        <ele>145</ele>
        <time>2021-05-14T14:41:59Z</time>
      </trkpt>
      <trkpt lat="43.63355" lon="3.70055">
        <ele>145</ele>
        <time>2021-05-14T14:42:00Z</time>
      </trkpt>
      <trkpt lat="43.63355" lon="3.70059">
        <ele>145</ele>
        <time>2021-05-14T14:42:01Z</time>
      </trkpt>
      <trkpt lat="43.63355" lon="3.70064">
        <ele>145</ele>
        <time>2021-05-14T14:42:02Z</time>
      </trkpt>
      <trkpt lat="43.63356" lon="3.70068">
        <ele>145</ele>
        <time>2021-05-14T14:42:03Z</time>
      </trkpt>
      <trkpt lat="43.63356" lon="3.70073">
        <ele>145</ele>
        <time>2021-05-14T14:42:04Z</time>
      </trkpt>
      <trkpt lat="43.63357" lon="3.70077">
        <ele>145</ele>
        <time>2021-05-14T14:42:05Z</time>
      </trkpt>
      <trkpt lat="43.63357" lon="3.70081">
        <ele>145</ele>
        <time>2021-05-14T14:42:06Z</time>
      </trkpt>
      <trkpt lat="43.63358" lon="3.70086">
        <ele>145</ele>
        <time>2021-05-14T14:42:07Z</time>
      </trkpt>
      <trkpt lat="43.63358" lon="3.7009">
        <ele>145</ele>
        <time>2021-05-14T14:42:08Z</time>
      </trkpt>
      <trkpt lat="43.63359" lon="3.70094">
        <ele>145</ele>
        <time>2021-05-14T14:42:10Z</time>
      </trkpt>
      <trkpt lat="43.63359" lon="3.70098">
        <ele>145</ele>
        <time>2021-05-14T14:42:11Z</time>
      </trkpt>
      <trkpt lat="43.63359" lon="3.70102">
        <ele>145</ele>
        <time>2021-05-14T14:42:12Z</time>
      </trkpt>
      <trkpt lat="43.6336" lon="3.70105">
        <ele>145</ele>
        <time>2021-05-14T14:42:13Z</time>
      </trkpt>
      <trkpt lat="43.6336" lon="3.70109">
        <ele>145</ele>
        <time>2021-05-14T14:42:14Z</time>
      </trkpt>
      <trkpt lat="43.63361" lon="3.70116">
        <ele>145</ele>
        <time>2021-05-14T14:42:15Z</time>
      </trkpt>
      <trkpt lat="43.6336" lon="3.7012">
        <ele>145</ele>
        <time>2021-05-14T14:42:16Z</time>
      </trkpt>
      <trkpt lat="43.6336" lon="3.70123">
        <ele>145</ele>
        <time>2021-05-14T14:42:17Z</time>
      </trkpt>
      <trkpt lat="43.6336" lon="3.70127">
        <ele>145</ele>
        <time>2021-05-14T14:42:18Z</time>
      </trkpt>
      <trkpt lat="43.6336" lon="3.70131">
        <ele>147</ele>
        <time>2021-05-14T14:42:19Z</time>
      </trkpt>
      <trkpt lat="43.6336" lon="3.70135">
        <ele>147</ele>
        <time>2021-05-14T14:42:20Z</time>
      </trkpt>
      <trkpt lat="43.6336" lon="3.70138">
        <ele>147</ele>
        <time>2021-05-14T14:42:21Z</time>
      </trkpt>
      <trkpt lat="43.63361" lon="3.70142">
        <ele>147</ele>
        <time>2021-05-14T14:42:22Z</time>
      </trkpt>
      <trkpt lat="43.63362" lon="3.70145">
        <ele>147</ele>
        <time>2021-05-14T14:42:23Z</time>
      </trkpt>
      <trkpt lat="43.63362" lon="3.70149">
        <ele>147</ele>
        <time>2021-05-14T14:42:24Z</time>
      </trkpt>
      <trkpt lat="43.63362" lon="3.70153">
        <ele>147</ele>
        <time>2021-05-14T14:42:25Z</time>
      </trkpt>
      <trkpt lat="43.63362" lon="3.70156">
        <ele>147</ele>
        <time>2021-05-14T14:42:26Z</time>
      </trkpt>
      <trkpt lat="43.63362" lon="3.7016">
        <ele>147</ele>
        <time>2021-05-14T14:42:27Z</time>
      </trkpt>
      <trkpt lat="43.63362" lon="3.70168">
        <ele>149</ele>
        <time>2021-05-14T14:42:29Z</time>
      </trkpt>
      <trkpt lat="43.63363" lon="3.70172">
        <ele>149</ele>
        <time>2021-05-14T14:42:30Z</time>
      </trkpt>
      <trkpt lat="43.63363" lon="3.70175">
        <ele>149</ele>
        <time>2021-05-14T14:42:31Z</time>
      </trkpt>
      <trkpt lat="43.63363" lon="3.70179">
        <ele>149</ele>
        <time>2021-05-14T14:42:32Z</time>
      </trkpt>
      <trkpt lat="43.63363" lon="3.70182">
        <ele>149</ele>
        <time>2021-05-14T14:42:33Z</time>
      </trkpt>
      <trkpt lat="43.63363" lon="3.70185">
        <ele>149</ele>
        <time>2021-05-14T14:42:34Z</time>
      </trkpt>
      <trkpt lat="43.63362" lon="3.70189">
        <ele>149</ele>
        <time>2021-05-14T14:42:35Z</time>
      </trkpt>
      <trkpt lat="43.63362" lon="3.70193">
        <ele>149</ele>
        <time>2021-05-14T14:42:36Z</time>
      </trkpt>
      <trkpt lat="43.63361" lon="3.70196">
        <ele>149</ele>
        <time>2021-05-14T14:42:37Z</time>
      </trkpt>
      <trkpt lat="43.63361" lon="3.702">
        <ele>149</ele>
        <time>2021-05-14T14:42:38Z</time>
      </trkpt>
      <trkpt lat="43.6336" lon="3.70204">
        <ele>150</ele>
        <time>2021-05-14T14:42:39Z</time>
      </trkpt>
      <trkpt lat="43.6336" lon="3.70208">
        <ele>150</ele>
        <time>2021-05-14T14:42:40Z</time>
      </trkpt>
      <trkpt lat="43.63361" lon="3.70212">
        <ele>150</ele>
        <time>2021-05-14T14:42:41Z</time>
      </trkpt>
      <trkpt lat="43.63361" lon="3.70216">
        <ele>150</ele>
        <time>2021-05-14T14:42:42Z</time>
      </trkpt>
      <trkpt lat="43.63362" lon="3.70221">
        <ele>150</ele>
        <time>2021-05-14T14:42:43Z</time>
      </trkpt>
      <trkpt lat="43.63362" lon="3.70225">
        <ele>150</ele>
        <time>2021-05-14T14:42:44Z</time>
      </trkpt>
      <trkpt lat="43.63361" lon="3.70229">
        <ele>150</ele>
        <time>2021-05-14T14:42:45Z</time>
      </trkpt>
      <trkpt lat="43.63359" lon="3.70233">
        <ele>150</ele>
        <time>2021-05-14T14:42:46Z</time>
      </trkpt>
      <trkpt lat="43.63356" lon="3.70239">
        <ele>150</ele>
        <time>2021-05-14T14:42:48Z</time>
      </trkpt>
      <trkpt lat="43.63354" lon="3.70242">
        <ele>151</ele>
        <time>2021-05-14T14:42:49Z</time>
      </trkpt>
      <trkpt lat="43.63352" lon="3.70244">
        <ele>151</ele>
        <time>2021-05-14T14:42:50Z</time>
      </trkpt>
      <trkpt lat="43.63351" lon="3.70247">
        <ele>151</ele>
        <time>2021-05-14T14:42:51Z</time>
      </trkpt>
      <trkpt lat="43.63351" lon="3.70249">
        <ele>151</ele>
        <time>2021-05-14T14:42:52Z</time>
      </trkpt>
      <trkpt lat="43.6335" lon="3.70252">
        <ele>151</ele>
        <time>2021-05-14T14:42:53Z</time>
      </trkpt>
      <trkpt lat="43.6335" lon="3.70256">
        <ele>151</ele>
        <time>2021-05-14T14:42:54Z</time>
      </trkpt>
      <trkpt lat="43.63351" lon="3.70259">
        <ele>151</ele>
        <time>2021-05-14T14:42:55Z</time>
      </trkpt>
      <trkpt lat="43.63352" lon="3.70262">
        <ele>151</ele>
        <time>2021-05-14T14:42:56Z</time>
      </trkpt>
      <trkpt lat="43.63353" lon="3.70265">
        <ele>151</ele>
        <time>2021-05-14T14:42:57Z</time>
      </trkpt>
      <trkpt lat="43.63355" lon="3.70269">
        <ele>151</ele>
        <time>2021-05-14T14:42:58Z</time>
      </trkpt>
      <trkpt lat="43.63356" lon="3.70272">
        <ele>152</ele>
        <time>2021-05-14T14:42:59Z</time>
      </trkpt>
      <trkpt lat="43.63357" lon="3.70276">
        <ele>152</ele>
        <time>2021-05-14T14:43:00Z</time>
      </trkpt>
      <trkpt lat="43.63358" lon="3.70279">
        <ele>152</ele>
        <time>2021-05-14T14:43:01Z</time>
      </trkpt>
      <trkpt lat="43.63359" lon="3.70283">
        <ele>152</ele>
        <time>2021-05-14T14:43:02Z</time>
      </trkpt>
      <trkpt lat="43.63359" lon="3.70286">
        <ele>152</ele>
        <time>2021-05-14T14:43:03Z</time>
      </trkpt>
      <trkpt lat="43.6336" lon="3.7029">
        <ele>152</ele>
        <time>2021-05-14T14:43:04Z</time>
      </trkpt>
      <trkpt lat="43.63361" lon="3.70294">
        <ele>152</ele>
        <time>2021-05-14T14:43:05Z</time>
      </trkpt>
      <trkpt lat="43.63362" lon="3.70298">
        <ele>152</ele>
        <time>2021-05-14T14:43:06Z</time>
      </trkpt>
      <trkpt lat="43.63363" lon="3.70301">
        <ele>152</ele>
        <time>2021-05-14T14:43:07Z</time>
      </trkpt>
      <trkpt lat="43.63366" lon="3.70308">
        <ele>153</ele>
        <time>2021-05-14T14:43:09Z</time>
      </trkpt>
      <trkpt lat="43.63367" lon="3.70312">
        <ele>153</ele>
        <time>2021-05-14T14:43:10Z</time>
      </trkpt>
      <trkpt lat="43.63368" lon="3.7032">
        <ele>153</ele>
        <time>2021-05-14T14:43:12Z</time>
      </trkpt>
      <trkpt lat="43.63368" lon="3.70324">
        <ele>153</ele>
        <time>2021-05-14T14:43:13Z</time>
      </trkpt>
      <trkpt lat="43.63368" lon="3.70328">
        <ele>153</ele>
        <time>2021-05-14T14:43:14Z</time>
      </trkpt>
      <trkpt lat="43.63368" lon="3.70332">
        <ele>153</ele>
        <time>2021-05-14T14:43:15Z</time>
      </trkpt>
      <trkpt lat="43.63367" lon="3.70336">
        <ele>153</ele>
        <time>2021-05-14T14:43:16Z</time>
      </trkpt>
      <trkpt lat="43.63367" lon="3.7034">
        <ele>153</ele>
        <time>2021-05-14T14:43:17Z</time>
      </trkpt>
      <trkpt lat="43.63366" lon="3.70345">
        <ele>153</ele>
        <time>2021-05-14T14:43:18Z</time>
      </trkpt>
      <trkpt lat="43.63366" lon="3.70349">
        <ele>154</ele>
        <time>2021-05-14T14:43:19Z</time>
      </trkpt>
      <trkpt lat="43.63365" lon="3.70353">
        <ele>154</ele>
        <time>2021-05-14T14:43:20Z</time>
      </trkpt>
      <trkpt lat="43.63365" lon="3.70357">
        <ele>154</ele>
        <time>2021-05-14T14:43:21Z</time>
      </trkpt>
      <trkpt lat="43.63365" lon="3.70361">
        <ele>154</ele>
        <time>2021-05-14T14:43:22Z</time>
      </trkpt>
      <trkpt lat="43.63364" lon="3.70366">
        <ele>154</ele>
        <time>2021-05-14T14:43:23Z</time>
      </trkpt>
      <trkpt lat="43.63364" lon="3.7037">
        <ele>154</ele>
        <time>2021-05-14T14:43:24Z</time>
      </trkpt>
      <trkpt lat="43.63363" lon="3.70373">
        <ele>154</ele>
        <time>2021-05-14T14:43:25Z</time>
      </trkpt>
      <trkpt lat="43.63363" lon="3.70377">
        <ele>154</ele>
        <time>2021-05-14T14:43:26Z</time>
      </trkpt>
      <trkpt lat="43.63362" lon="3.7038">
        <ele>154</ele>
        <time>2021-05-14T14:43:27Z</time>
      </trkpt>
      <trkpt lat="43.63361" lon="3.70384">
        <ele>154</ele>
        <time>2021-05-14T14:43:28Z</time>
      </trkpt>
      <trkpt lat="43.63359" lon="3.70388">
        <ele>154</ele>
        <time>2021-05-14T14:43:29Z</time>
      </trkpt>
      <trkpt lat="43.63358" lon="3.70393">
        <ele>154</ele>
        <time>2021-05-14T14:43:30Z</time>
      </trkpt>
      <trkpt lat="43.63358" lon="3.70398">
        <ele>154</ele>
        <time>2021-05-14T14:43:31Z</time>
      </trkpt>
      <trkpt lat="43.63359" lon="3.70403">
        <ele>154</ele>
        <time>2021-05-14T14:43:32Z</time>
      </trkpt>
      <trkpt lat="43.6336" lon="3.70408">
        <ele>154</ele>
        <time>2021-05-14T14:43:33Z</time>
      </trkpt>
      <trkpt lat="43.6336" lon="3.70413">
        <ele>154</ele>
        <time>2021-05-14T14:43:34Z</time>
      </trkpt>
      <trkpt lat="43.6336" lon="3.70418">
        <ele>154</ele>
        <time>2021-05-14T14:43:35Z</time>
      </trkpt>
      <trkpt lat="43.6336" lon="3.70423">
        <ele>154</ele>
        <time>2021-05-14T14:43:36Z</time>
      </trkpt>
      <trkpt lat="43.6336" lon="3.70428">
        <ele>154</ele>
        <time>2021-05-14T14:43:37Z</time>
      </trkpt>
      <trkpt lat="43.6336" lon="3.70432">
        <ele>154</ele>
        <time>2021-05-14T14:43:38Z</time>
      </trkpt>
      <trkpt lat="43.63361" lon="3.70435">
        <ele>155</ele>
        <time>2021-05-14T14:43:39Z</time>
      </trkpt>
      <trkpt lat="43.63362" lon="3.70439">
        <ele>155</ele>
        <time>2021-05-14T14:43:40Z</time>
      </trkpt>
      <trkpt lat="43.63363" lon="3.70444">
        <ele>155</ele>
        <time>2021-05-14T14:43:41Z</time>
      </trkpt>
      <trkpt lat="43.63363" lon="3.70449">
        <ele>155</ele>
        <time>2021-05-14T14:43:42Z</time>
      </trkpt>
      <trkpt lat="43.63363" lon="3.70454">
        <ele>155</ele>
        <time>2021-05-14T14:43:43Z</time>
      </trkpt>
      <trkpt lat="43.63364" lon="3.7046">
        <ele>155</ele>
        <time>2021-05-14T14:43:44Z</time>
      </trkpt>
      <trkpt lat="43.63366" lon="3.70465">
        <ele>155</ele>
        <time>2021-05-14T14:43:45Z</time>
      </trkpt>
      <trkpt lat="43.63369" lon="3.70475">
        <ele>155</ele>
        <time>2021-05-14T14:43:47Z</time>
      </trkpt>
      <trkpt lat="43.63371" lon="3.7048">
        <ele>155</ele>
        <time>2021-05-14T14:43:48Z</time>
      </trkpt>
      <trkpt lat="43.63372" lon="3.70484">
        <ele>154</ele>
        <time>2021-05-14T14:43:49Z</time>
      </trkpt>
      <trkpt lat="43.63375" lon="3.70493">
        <ele>154</ele>
        <time>2021-05-14T14:43:51Z</time>
      </trkpt>
      <trkpt lat="43.63377" lon="3.70498">
        <ele>154</ele>
        <time>2021-05-14T14:43:52Z</time>
      </trkpt>
      <trkpt lat="43.63379" lon="3.70508">
        <ele>154</ele>
        <time>2021-05-14T14:43:54Z</time>
      </trkpt>
      <trkpt lat="43.63379" lon="3.70514">
        <ele>154</ele>
        <time>2021-05-14T14:43:55Z</time>
      </trkpt>
      <trkpt lat="43.6338" lon="3.7052">
        <ele>154</ele>
        <time>2021-05-14T14:43:56Z</time>
      </trkpt>
      <trkpt lat="43.6338" lon="3.70526">
        <ele>154</ele>
        <time>2021-05-14T14:43:57Z</time>
      </trkpt>
      <trkpt lat="43.63381" lon="3.70532">
        <ele>154</ele>
        <time>2021-05-14T14:43:58Z</time>
      </trkpt>
      <trkpt lat="43.63381" lon="3.70538">
        <ele>154</ele>
        <time>2021-05-14T14:43:59Z</time>
      </trkpt>
      <trkpt lat="43.63381" lon="3.70545">
        <ele>154</ele>
        <time>2021-05-14T14:44:00Z</time>
      </trkpt>
      <trkpt lat="43.63383" lon="3.70551">
        <ele>154</ele>
        <time>2021-05-14T14:44:01Z</time>
      </trkpt>
      <trkpt lat="43.63384" lon="3.70558">
        <ele>154</ele>
        <time>2021-05-14T14:44:02Z</time>
      </trkpt>
      <trkpt lat="43.63385" lon="3.70564">
        <ele>154</ele>
        <time>2021-05-14T14:44:03Z</time>
      </trkpt>
      <trkpt lat="43.63386" lon="3.70571">
        <ele>154</ele>
        <time>2021-05-14T14:44:04Z</time>
      </trkpt>
      <trkpt lat="43.63386" lon="3.70578">
        <ele>154</ele>
        <time>2021-05-14T14:44:05Z</time>
      </trkpt>
      <trkpt lat="43.63387" lon="3.70585">
        <ele>154</ele>
        <time>2021-05-14T14:44:06Z</time>
      </trkpt>
      <trkpt lat="43.63388" lon="3.70591">
        <ele>154</ele>
        <time>2021-05-14T14:44:07Z</time>
      </trkpt>
      <trkpt lat="43.63391" lon="3.70595">
        <ele>154</ele>
        <time>2021-05-14T14:44:08Z</time>
      </trkpt>
      <trkpt lat="43.63395" lon="3.70599">
        <ele>154</ele>
        <time>2021-05-14T14:44:10Z</time>
      </trkpt>
      <trkpt lat="43.634" lon="3.70602">
        <ele>154</ele>
        <time>2021-05-14T14:44:11Z</time>
      </trkpt>
      <trkpt lat="43.63404" lon="3.70607">
        <ele>154</ele>
        <time>2021-05-14T14:44:12Z</time>
      </trkpt>
      <trkpt lat="43.63407" lon="3.70613">
        <ele>154</ele>
        <time>2021-05-14T14:44:13Z</time>
      </trkpt>
      <trkpt lat="43.6341" lon="3.7062">
        <ele>154</ele>
        <time>2021-05-14T14:44:14Z</time>
      </trkpt>
      <trkpt lat="43.63411" lon="3.70628">
        <ele>154</ele>
        <time>2021-05-14T14:44:15Z</time>
      </trkpt>
      <trkpt lat="43.63412" lon="3.70636">
        <ele>154</ele>
        <time>2021-05-14T14:44:16Z</time>
      </trkpt>
      <trkpt lat="43.63414" lon="3.70644">
        <ele>154</ele>
        <time>2021-05-14T14:44:17Z</time>
      </trkpt>
      <trkpt lat="43.63415" lon="3.70651">
        <ele>154</ele>
        <time>2021-05-14T14:44:18Z</time>
      </trkpt>
      <trkpt lat="43.63415" lon="3.70659">
        <ele>153</ele>
        <time>2021-05-14T14:44:19Z</time>
      </trkpt>
      <trkpt lat="43.63415" lon="3.70667">
        <ele>153</ele>
        <time>2021-05-14T14:44:20Z</time>
      </trkpt>
      <trkpt lat="43.63415" lon="3.70675">
        <ele>153</ele>
        <time>2021-05-14T14:44:21Z</time>
      </trkpt>
      <trkpt lat="43.63416" lon="3.70683">
        <ele>153</ele>
        <time>2021-05-14T14:44:22Z</time>
      </trkpt>
      <trkpt lat="43.63417" lon="3.7069">
        <ele>153</ele>
        <time>2021-05-14T14:44:23Z</time>
      </trkpt>
      <trkpt lat="43.63419" lon="3.70697">
        <ele>153</ele>
        <time>2021-05-14T14:44:24Z</time>
      </trkpt>
      <trkpt lat="43.63421" lon="3.70704">
        <ele>153</ele>
        <time>2021-05-14T14:44:25Z</time>
      </trkpt>
      <trkpt lat="43.63422" lon="3.70712">
        <ele>153</ele>
        <time>2021-05-14T14:44:26Z</time>
      </trkpt>
      <trkpt lat="43.63424" lon="3.70719">
        <ele>153</ele>
        <time>2021-05-14T14:44:27Z</time>
      </trkpt>
      <trkpt lat="43.63425" lon="3.70726">
        <ele>153</ele>
        <time>2021-05-14T14:44:28Z</time>
      </trkpt>
      <trkpt lat="43.63426" lon="3.70734">
        <ele>152</ele>
        <time>2021-05-14T14:44:29Z</time>
      </trkpt>
      <trkpt lat="43.63428" lon="3.70742">
        <ele>152</ele>
        <time>2021-05-14T14:44:30Z</time>
      </trkpt>
      <trkpt lat="43.6343" lon="3.7075">
        <ele>152</ele>
        <time>2021-05-14T14:44:31Z</time>
      </trkpt>
      <trkpt lat="43.63432" lon="3.70758">
        <ele>152</ele>
        <time>2021-05-14T14:44:32Z</time>
      </trkpt>
      <trkpt lat="43.63433" lon="3.70767">
        <ele>152</ele>
        <time>2021-05-14T14:44:33Z</time>
      </trkpt>
      <trkpt lat="43.63434" lon="3.70776">
        <ele>152</ele>
        <time>2021-05-14T14:44:34Z</time>
      </trkpt>
      <trkpt lat="43.63435" lon="3.70784">
        <ele>152</ele>
        <time>2021-05-14T14:44:35Z</time>
      </trkpt>
      <trkpt lat="43.63436" lon="3.70793">
        <ele>152</ele>
        <time>2021-05-14T14:44:36Z</time>
      </trkpt>
      <trkpt lat="43.63438" lon="3.70802">
        <ele>152</ele>
        <time>2021-05-14T14:44:37Z</time>
      </trkpt>
      <trkpt lat="43.6344" lon="3.70812">
        <ele>152</ele>
        <time>2021-05-14T14:44:38Z</time>
      </trkpt>
      <trkpt lat="43.63441" lon="3.70821">
        <ele>152</ele>
        <time>2021-05-14T14:44:39Z</time>
      </trkpt>
      <trkpt lat="43.63443" lon="3.7083">
        <ele>152</ele>
        <time>2021-05-14T14:44:40Z</time>
      </trkpt>
      <trkpt lat="43.63444" lon="3.7084">
        <ele>152</ele>
        <time>2021-05-14T14:44:41Z</time>
      </trkpt>
      <trkpt lat="43.63445" lon="3.7085">
        <ele>152</ele>
        <time>2021-05-14T14:44:42Z</time>
      </trkpt>
      <trkpt lat="43.63446" lon="3.70859">
        <ele>152</ele>
        <time>2021-05-14T14:44:43Z</time>
      </trkpt>
      <trkpt lat="43.63447" lon="3.70869">
        <ele>152</ele>
        <time>2021-05-14T14:44:44Z</time>
      </trkpt>
      <trkpt lat="43.63448" lon="3.70878">
        <ele>152</ele>
        <time>2021-05-14T14:44:45Z</time>
      </trkpt>
      <trkpt lat="43.63451" lon="3.70886">
        <ele>152</ele>
        <time>2021-05-14T14:44:46Z</time>
      </trkpt>
      <trkpt lat="43.63455" lon="3.70893">
        <ele>152</ele>
        <time>2021-05-14T14:44:47Z</time>
      </trkpt>
      <trkpt lat="43.6346" lon="3.70896">
        <ele>152</ele>
        <time>2021-05-14T14:44:48Z</time>
      </trkpt>
      <trkpt lat="43.63466" lon="3.70896">
        <ele>151</ele>
        <time>2021-05-14T14:44:49Z</time>
      </trkpt>
      <trkpt lat="43.63471" lon="3.70895">
        <ele>151</ele>
        <time>2021-05-14T14:44:50Z</time>
      </trkpt>
      <trkpt lat="43.63477" lon="3.70894">
        <ele>151</ele>
        <time>2021-05-14T14:44:51Z</time>
      </trkpt>
      <trkpt lat="43.63482" lon="3.70895">
        <ele>151</ele>
        <time>2021-05-14T14:44:52Z</time>
      </trkpt>
      <trkpt lat="43.63487" lon="3.70896">
        <ele>151</ele>
        <time>2021-05-14T14:44:53Z</time>
      </trkpt>
      <trkpt lat="43.63493" lon="3.70899">
        <ele>151</ele>
        <time>2021-05-14T14:44:54Z</time>
      </trkpt>
      <trkpt lat="43.63497" lon="3.70903">
        <ele>151</ele>
        <time>2021-05-14T14:44:55Z</time>
      </trkpt>
      <trkpt lat="43.63502" lon="3.70908">
        <ele>151</ele>
        <time>2021-05-14T14:44:56Z</time>
      </trkpt>
      <trkpt lat="43.63507" lon="3.70912">
        <ele>151</ele>
        <time>2021-05-14T14:44:57Z</time>
      </trkpt>
      <trkpt lat="43.63511" lon="3.70914">
        <ele>151</ele>
        <time>2021-05-14T14:44:58Z</time>
      </trkpt>
      <trkpt lat="43.63515" lon="3.70912">
        <ele>151</ele>
        <time>2021-05-14T14:44:59Z</time>
      </trkpt>
      <trkpt lat="43.63519" lon="3.7091">
        <ele>151</ele>
        <time>2021-05-14T14:45:00Z</time>
      </trkpt>
      <trkpt lat="43.63527" lon="3.70909">
        <ele>151</ele>
        <time>2021-05-14T14:45:01Z</time>
      </trkpt>
      <trkpt lat="43.6353" lon="3.70907">
        <ele>151</ele>
        <time>2021-05-14T14:45:02Z</time>
      </trkpt>
      <trkpt lat="43.63533" lon="3.70903">
        <ele>151</ele>
        <time>2021-05-14T14:45:04Z</time>
      </trkpt>
      <trkpt lat="43.63538" lon="3.70895">
        <ele>151</ele>
        <time>2021-05-14T14:45:05Z</time>
      </trkpt>
      <trkpt lat="43.63541" lon="3.70894">
        <ele>151</ele>
        <time>2021-05-14T14:45:06Z</time>
      </trkpt>
      <trkpt lat="43.63545" lon="3.70887">
        <ele>151</ele>
        <time>2021-05-14T14:45:08Z</time>
      </trkpt>
      <trkpt lat="43.63546" lon="3.70884">
        <ele>152</ele>
        <time>2021-05-14T14:45:09Z</time>
      </trkpt>
      <trkpt lat="43.63547" lon="3.70881">
        <ele>152</ele>
        <time>2021-05-14T14:45:10Z</time>
      </trkpt>
      <trkpt lat="43.63549" lon="3.70879">
        <ele>152</ele>
        <time>2021-05-14T14:45:12Z</time>
      </trkpt>
      <trkpt lat="43.63551" lon="3.70877">
        <ele>152</ele>
        <time>2021-05-14T14:45:13Z</time>
      </trkpt>
      <trkpt lat="43.63553" lon="3.70874">
        <ele>152</ele>
        <time>2021-05-14T14:45:14Z</time>
      </trkpt>
      <trkpt lat="43.63554" lon="3.70871">
        <ele>152</ele>
        <time>2021-05-14T14:45:15Z</time>
      </trkpt>
      <trkpt lat="43.63555" lon="3.70868">
        <ele>152</ele>
        <time>2021-05-14T14:45:16Z</time>
      </trkpt>
      <trkpt lat="43.63556" lon="3.70864">
        <ele>152</ele>
        <time>2021-05-14T14:45:17Z</time>
      </trkpt>
      <trkpt lat="43.63557" lon="3.7086">
        <ele>152</ele>
        <time>2021-05-14T14:45:18Z</time>
      </trkpt>
      <trkpt lat="43.63558" lon="3.70857">
        <ele>153</ele>
        <time>2021-05-14T14:45:19Z</time>
      </trkpt>
      <trkpt lat="43.63559" lon="3.70853">
        <ele>153</ele>
        <time>2021-05-14T14:45:20Z</time>
      </trkpt>
      <trkpt lat="43.63561" lon="3.7085">
        <ele>153</ele>
        <time>2021-05-14T14:45:21Z</time>
      </trkpt>
      <trkpt lat="43.63563" lon="3.70848">
        <ele>153</ele>
        <time>2021-05-14T14:45:22Z</time>
      </trkpt>
      <trkpt lat="43.63565" lon="3.70846">
        <ele>153</ele>
        <time>2021-05-14T14:45:23Z</time>
      </trkpt>
      <trkpt lat="43.63569" lon="3.70846">
        <ele>153</ele>
        <time>2021-05-14T14:45:24Z</time>
      </trkpt>
      <trkpt lat="43.63571" lon="3.70846">
        <ele>153</ele>
        <time>2021-05-14T14:45:25Z</time>
      </trkpt>
      <trkpt lat="43.63573" lon="3.70852">
        <ele>153</ele>
        <time>2021-05-14T14:45:27Z</time>
      </trkpt>
      <trkpt lat="43.63574" lon="3.70856">
        <ele>154</ele>
        <time>2021-05-14T14:45:29Z</time>
      </trkpt>
      <trkpt lat="43.63574" lon="3.70861">
        <ele>154</ele>
        <time>2021-05-14T14:45:30Z</time>
      </trkpt>
      <trkpt lat="43.63574" lon="3.70866">
        <ele>154</ele>
        <time>2021-05-14T14:45:31Z</time>
      </trkpt>
      <trkpt lat="43.63575" lon="3.70871">
        <ele>154</ele>
        <time>2021-05-14T14:45:32Z</time>
      </trkpt>
      <trkpt lat="43.63576" lon="3.70876">
        <ele>154</ele>
        <time>2021-05-14T14:45:33Z</time>
      </trkpt>
      <trkpt lat="43.63577" lon="3.70881">
        <ele>154</ele>
        <time>2021-05-14T14:45:34Z</time>
      </trkpt>
      <trkpt lat="43.63578" lon="3.70887">
        <ele>154</ele>
        <time>2021-05-14T14:45:35Z</time>
      </trkpt>
      <trkpt lat="43.63578" lon="3.70892">
        <ele>154</ele>
        <time>2021-05-14T14:45:36Z</time>
      </trkpt>
      <trkpt lat="43.63579" lon="3.70898">
        <ele>154</ele>
        <time>2021-05-14T14:45:37Z</time>
      </trkpt>
      <trkpt lat="43.63579" lon="3.70904">
        <ele>154</ele>
        <time>2021-05-14T14:45:38Z</time>
      </trkpt>
      <trkpt lat="43.6358" lon="3.7091">
        <ele>154</ele>
        <time>2021-05-14T14:45:39Z</time>
      </trkpt>
      <trkpt lat="43.6358" lon="3.70916">
        <ele>154</ele>
        <time>2021-05-14T14:45:40Z</time>
      </trkpt>
      <trkpt lat="43.63582" lon="3.70922">
        <ele>154</ele>
        <time>2021-05-14T14:45:41Z</time>
      </trkpt>
      <trkpt lat="43.63585" lon="3.70933">
        <ele>154</ele>
        <time>2021-05-14T14:45:42Z</time>
      </trkpt>
      <trkpt lat="43.63587" lon="3.70939">
        <ele>154</ele>
        <time>2021-05-14T14:45:44Z</time>
      </trkpt>
      <trkpt lat="43.63589" lon="3.70951">
        <ele>154</ele>
        <time>2021-05-14T14:45:45Z</time>
      </trkpt>
      <trkpt lat="43.6359" lon="3.70957">
        <ele>154</ele>
        <time>2021-05-14T14:45:46Z</time>
      </trkpt>
      <trkpt lat="43.6359" lon="3.70963">
        <ele>154</ele>
        <time>2021-05-14T14:45:47Z</time>
      </trkpt>
      <trkpt lat="43.63591" lon="3.7097">
        <ele>154</ele>
        <time>2021-05-14T14:45:49Z</time>
      </trkpt>
      <trkpt lat="43.63593" lon="3.70982">
        <ele>154</ele>
        <time>2021-05-14T14:45:50Z</time>
      </trkpt>
      <trkpt lat="43.63595" lon="3.70988">
        <ele>154</ele>
        <time>2021-05-14T14:45:51Z</time>
      </trkpt>
      <trkpt lat="43.63596" lon="3.70993">
        <ele>154</ele>
        <time>2021-05-14T14:45:52Z</time>
      </trkpt>
      <trkpt lat="43.63598" lon="3.70999">
        <ele>154</ele>
        <time>2021-05-14T14:45:54Z</time>
      </trkpt>
      <trkpt lat="43.636" lon="3.71004">
        <ele>154</ele>
        <time>2021-05-14T14:45:55Z</time>
      </trkpt>
      <trkpt lat="43.63603" lon="3.71008">
        <ele>154</ele>
        <time>2021-05-14T14:45:56Z</time>
      </trkpt>
      <trkpt lat="43.6361" lon="3.71014">
        <ele>154</ele>
        <time>2021-05-14T14:45:57Z</time>
      </trkpt>
      <trkpt lat="43.63614" lon="3.71016">
        <ele>154</ele>
        <time>2021-05-14T14:45:58Z</time>
      </trkpt>
      <trkpt lat="43.63618" lon="3.71018">
        <ele>154</ele>
        <time>2021-05-14T14:46:00Z</time>
      </trkpt>
      <trkpt lat="43.63621" lon="3.71023">
        <ele>154</ele>
        <time>2021-05-14T14:46:01Z</time>
      </trkpt>
      <trkpt lat="43.63622" lon="3.71028">
        <ele>154</ele>
        <time>2021-05-14T14:46:02Z</time>
      </trkpt>
      <trkpt lat="43.63622" lon="3.71035">
        <ele>154</ele>
        <time>2021-05-14T14:46:03Z</time>
      </trkpt>
      <trkpt lat="43.63621" lon="3.71042">
        <ele>154</ele>
        <time>2021-05-14T14:46:04Z</time>
      </trkpt>
      <trkpt lat="43.6362" lon="3.71048">
        <ele>154</ele>
        <time>2021-05-14T14:46:05Z</time>
      </trkpt>
      <trkpt lat="43.6362" lon="3.71055">
        <ele>154</ele>
        <time>2021-05-14T14:46:06Z</time>
      </trkpt>
      <trkpt lat="43.6362" lon="3.71061">
        <ele>154</ele>
        <time>2021-05-14T14:46:07Z</time>
      </trkpt>
      <trkpt lat="43.63619" lon="3.71068">
        <ele>154</ele>
        <time>2021-05-14T14:46:08Z</time>
      </trkpt>
      <trkpt lat="43.63618" lon="3.71074">
        <ele>155</ele>
        <time>2021-05-14T14:46:09Z</time>
      </trkpt>
      <trkpt lat="43.63617" lon="3.71081">
        <ele>155</ele>
        <time>2021-05-14T14:46:10Z</time>
      </trkpt>
      <trkpt lat="43.63617" lon="3.71088">
        <ele>155</ele>
        <time>2021-05-14T14:46:11Z</time>
      </trkpt>
      <trkpt lat="43.63617" lon="3.71095">
        <ele>155</ele>
        <time>2021-05-14T14:46:12Z</time>
      </trkpt>
      <trkpt lat="43.63616" lon="3.71102">
        <ele>155</ele>
        <time>2021-05-14T14:46:13Z</time>
      </trkpt>
      <trkpt lat="43.63615" lon="3.71109">
        <ele>155</ele>
        <time>2021-05-14T14:46:14Z</time>
      </trkpt>
      <trkpt lat="43.63615" lon="3.71116">
        <ele>155</ele>
        <time>2021-05-14T14:46:15Z</time>
      </trkpt>
      <trkpt lat="43.63615" lon="3.71123">
        <ele>155</ele>
        <time>2021-05-14T14:46:16Z</time>
      </trkpt>
      <trkpt lat="43.63616" lon="3.7113">
        <ele>155</ele>
        <time>2021-05-14T14:46:17Z</time>
      </trkpt>
      <trkpt lat="43.63616" lon="3.71138">
        <ele>155</ele>
        <time>2021-05-14T14:46:18Z</time>
      </trkpt>
      <trkpt lat="43.63617" lon="3.71145">
        <ele>156</ele>
        <time>2021-05-14T14:46:19Z</time>
      </trkpt>
      <trkpt lat="43.63617" lon="3.71153">
        <ele>156</ele>
        <time>2021-05-14T14:46:20Z</time>
      </trkpt>
      <trkpt lat="43.63617" lon="3.7116">
        <ele>156</ele>
        <time>2021-05-14T14:46:21Z</time>
      </trkpt>
      <trkpt lat="43.63618" lon="3.71168">
        <ele>156</ele>
        <time>2021-05-14T14:46:22Z</time>
      </trkpt>
      <trkpt lat="43.63619" lon="3.71175">
        <ele>156</ele>
        <time>2021-05-14T14:46:23Z</time>
      </trkpt>
      <trkpt lat="43.6362" lon="3.71183">
        <ele>156</ele>
        <time>2021-05-14T14:46:24Z</time>
      </trkpt>
      <trkpt lat="43.63622" lon="3.7119">
        <ele>156</ele>
        <time>2021-05-14T14:46:25Z</time>
      </trkpt>
      <trkpt lat="43.63624" lon="3.71196">
        <ele>156</ele>
        <time>2021-05-14T14:46:26Z</time>
      </trkpt>
      <trkpt lat="43.63626" lon="3.71202">
        <ele>156</ele>
        <time>2021-05-14T14:46:27Z</time>
      </trkpt>
      <trkpt lat="43.63629" lon="3.71209">
        <ele>156</ele>
        <time>2021-05-14T14:46:28Z</time>
      </trkpt>
      <trkpt lat="43.63632" lon="3.71216">
        <ele>155</ele>
        <time>2021-05-14T14:46:29Z</time>
      </trkpt>
      <trkpt lat="43.63635" lon="3.71222">
        <ele>155</ele>
        <time>2021-05-14T14:46:30Z</time>
      </trkpt>
      <trkpt lat="43.63638" lon="3.71229">
        <ele>155</ele>
        <time>2021-05-14T14:46:31Z</time>
      </trkpt>
      <trkpt lat="43.63641" lon="3.71236">
        <ele>155</ele>
        <time>2021-05-14T14:46:32Z</time>
      </trkpt>
      <trkpt lat="43.63644" lon="3.71243">
        <ele>155</ele>
        <time>2021-05-14T14:46:33Z</time>
      </trkpt>
      <trkpt lat="43.63647" lon="3.7125">
        <ele>155</ele>
        <time>2021-05-14T14:46:34Z</time>
      </trkpt>
      <trkpt lat="43.6365" lon="3.71257">
        <ele>155</ele>
        <time>2021-05-14T14:46:35Z</time>
      </trkpt>
      <trkpt lat="43.63653" lon="3.71264">
        <ele>155</ele>
        <time>2021-05-14T14:46:36Z</time>
      </trkpt>
      <trkpt lat="43.63655" lon="3.71271">
        <ele>155</ele>
        <time>2021-05-14T14:46:37Z</time>
      </trkpt>
      <trkpt lat="43.63658" lon="3.71278">
        <ele>155</ele>
        <time>2021-05-14T14:46:38Z</time>
      </trkpt>
      <trkpt lat="43.63661" lon="3.71285">
        <ele>154</ele>
        <time>2021-05-14T14:46:39Z</time>
      </trkpt>
      <trkpt lat="43.63663" lon="3.71291">
        <ele>154</ele>
        <time>2021-05-14T14:46:40Z</time>
      </trkpt>
      <trkpt lat="43.63665" lon="3.71298">
        <ele>154</ele>
        <time>2021-05-14T14:46:41Z</time>
      </trkpt>
      <trkpt lat="43.63669" lon="3.71304">
        <ele>154</ele>
        <time>2021-05-14T14:46:42Z</time>
      </trkpt>
      <trkpt lat="43.63673" lon="3.71309">
        <ele>154</ele>
        <time>2021-05-14T14:46:43Z</time>
      </trkpt>
      <trkpt lat="43.63677" lon="3.71313">
        <ele>154</ele>
        <time>2021-05-14T14:46:44Z</time>
      </trkpt>
      <trkpt lat="43.63682" lon="3.71318">
        <ele>154</ele>
        <time>2021-05-14T14:46:45Z</time>
      </trkpt>
      <trkpt lat="43.63686" lon="3.71322">
        <ele>154</ele>
        <time>2021-05-14T14:46:46Z</time>
      </trkpt>
      <trkpt lat="43.6369" lon="3.71326">
        <ele>154</ele>
        <time>2021-05-14T14:46:47Z</time>
      </trkpt>
      <trkpt lat="43.63693" lon="3.7133">
        <ele>154</ele>
        <time>2021-05-14T14:46:48Z</time>
      </trkpt>
      <trkpt lat="43.63694" lon="3.71333">
        <ele>152</ele>
        <time>2021-05-14T14:46:49Z</time>
      </trkpt>
      <trkpt lat="43.63695" lon="3.71336">
        <ele>152</ele>
        <time>2021-05-14T14:46:50Z</time>
      </trkpt>
      <trkpt lat="43.63696" lon="3.71338">
        <ele>152</ele>
        <time>2021-05-14T14:46:51Z</time>
      </trkpt>
      <trkpt lat="43.63697" lon="3.71341">
        <ele>152</ele>
        <time>2021-05-14T14:46:52Z</time>
      </trkpt>
      <trkpt lat="43.63698" lon="3.71345">
        <ele>152</ele>
        <time>2021-05-14T14:46:53Z</time>
      </trkpt>
      <trkpt lat="43.63698" lon="3.71351">
        <ele>152</ele>
        <time>2021-05-14T14:46:54Z</time>
      </trkpt>
      <trkpt lat="43.63698" lon="3.71356">
        <ele>152</ele>
        <time>2021-05-14T14:46:55Z</time>
      </trkpt>
      <trkpt lat="43.63699" lon="3.71361">
        <ele>152</ele>
        <time>2021-05-14T14:46:56Z</time>
      </trkpt>
      <trkpt lat="43.637" lon="3.71366">
        <ele>152</ele>
        <time>2021-05-14T14:46:57Z</time>
      </trkpt>
      <trkpt lat="43.63702" lon="3.71371">
        <ele>152</ele>
        <time>2021-05-14T14:46:58Z</time>
      </trkpt>
      <trkpt lat="43.63703" lon="3.71377">
        <ele>150</ele>
        <time>2021-05-14T14:46:59Z</time>
      </trkpt>
      <trkpt lat="43.63704" lon="3.71382">
        <ele>150</ele>
        <time>2021-05-14T14:47:00Z</time>
      </trkpt>
      <trkpt lat="43.63703" lon="3.71388">
        <ele>150</ele>
        <time>2021-05-14T14:47:01Z</time>
      </trkpt>
      <trkpt lat="43.63702" lon="3.71393">
        <ele>150</ele>
        <time>2021-05-14T14:47:02Z</time>
      </trkpt>
      <trkpt lat="43.63699" lon="3.71398">
        <ele>150</ele>
        <time>2021-05-14T14:47:03Z</time>
      </trkpt>
      <trkpt lat="43.63697" lon="3.71402">
        <ele>150</ele>
        <time>2021-05-14T14:47:04Z</time>
      </trkpt>
      <trkpt lat="43.63694" lon="3.71406">
        <ele>150</ele>
        <time>2021-05-14T14:47:05Z</time>
      </trkpt>
      <trkpt lat="43.63691" lon="3.71409">
        <ele>150</ele>
        <time>2021-05-14T14:47:06Z</time>
      </trkpt>
      <trkpt lat="43.63688" lon="3.71413">
        <ele>150</ele>
        <time>2021-05-14T14:47:07Z</time>
      </trkpt>
      <trkpt lat="43.63686" lon="3.71417">
        <ele>150</ele>
        <time>2021-05-14T14:47:08Z</time>
      </trkpt>
      <trkpt lat="43.63683" lon="3.71422">
        <ele>149</ele>
        <time>2021-05-14T14:47:09Z</time>
      </trkpt>
      <trkpt lat="43.6368" lon="3.71427">
        <ele>149</ele>
        <time>2021-05-14T14:47:10Z</time>
      </trkpt>
      <trkpt lat="43.63677" lon="3.71431">
        <ele>149</ele>
        <time>2021-05-14T14:47:11Z</time>
      </trkpt>
      <trkpt lat="43.63674" lon="3.71437">
        <ele>149</ele>
        <time>2021-05-14T14:47:12Z</time>
      </trkpt>
      <trkpt lat="43.63671" lon="3.71443">
        <ele>149</ele>
        <time>2021-05-14T14:47:13Z</time>
      </trkpt>
      <trkpt lat="43.63668" lon="3.71448">
        <ele>149</ele>
        <time>2021-05-14T14:47:14Z</time>
      </trkpt>
      <trkpt lat="43.63665" lon="3.71454">
        <ele>149</ele>
        <time>2021-05-14T14:47:15Z</time>
      </trkpt>
      <trkpt lat="43.63662" lon="3.71459">
        <ele>149</ele>
        <time>2021-05-14T14:47:16Z</time>
      </trkpt>
      <trkpt lat="43.63659" lon="3.71464">
        <ele>149</ele>
        <time>2021-05-14T14:47:17Z</time>
      </trkpt>
      <trkpt lat="43.63655" lon="3.71469">
        <ele>149</ele>
        <time>2021-05-14T14:47:18Z</time>
      </trkpt>
      <trkpt lat="43.63651" lon="3.71473">
        <ele>148</ele>
        <time>2021-05-14T14:47:19Z</time>
      </trkpt>
      <trkpt lat="43.63647" lon="3.71477">
        <ele>148</ele>
        <time>2021-05-14T14:47:20Z</time>
      </trkpt>
      <trkpt lat="43.63644" lon="3.71482">
        <ele>148</ele>
        <time>2021-05-14T14:47:21Z</time>
      </trkpt>
      <trkpt lat="43.6364" lon="3.71486">
        <ele>148</ele>
        <time>2021-05-14T14:47:22Z</time>
      </trkpt>
      <trkpt lat="43.63637" lon="3.71491">
        <ele>148</ele>
        <time>2021-05-14T14:47:23Z</time>
      </trkpt>
      <trkpt lat="43.63634" lon="3.71495">
        <ele>148</ele>
        <time>2021-05-14T14:47:24Z</time>
      </trkpt>
      <trkpt lat="43.63631" lon="3.715">
        <ele>148</ele>
        <time>2021-05-14T14:47:25Z</time>
      </trkpt>
      <trkpt lat="43.63629" lon="3.71505">
        <ele>148</ele>
        <time>2021-05-14T14:47:26Z</time>
      </trkpt>
      <trkpt lat="43.63627" lon="3.7151">
        <ele>148</ele>
        <time>2021-05-14T14:47:27Z</time>
      </trkpt>
      <trkpt lat="43.63624" lon="3.71514">
        <ele>148</ele>
        <time>2021-05-14T14:47:28Z</time>
      </trkpt>
      <trkpt lat="43.63621" lon="3.71519">
        <ele>147</ele>
        <time>2021-05-14T14:47:29Z</time>
      </trkpt>
      <trkpt lat="43.63619" lon="3.71523">
        <ele>147</ele>
        <time>2021-05-14T14:47:30Z</time>
      </trkpt>
      <trkpt lat="43.63616" lon="3.71527">
        <ele>147</ele>
        <time>2021-05-14T14:47:31Z</time>
      </trkpt>
      <trkpt lat="43.63614" lon="3.71532">
        <ele>147</ele>
        <time>2021-05-14T14:47:32Z</time>
      </trkpt>
      <trkpt lat="43.63611" lon="3.71536">
        <ele>147</ele>
        <time>2021-05-14T14:47:33Z</time>
      </trkpt>
      <trkpt lat="43.63609" lon="3.7154">
        <ele>147</ele>
        <time>2021-05-14T14:47:34Z</time>
      </trkpt>
      <trkpt lat="43.63607" lon="3.71544">
        <ele>147</ele>
        <time>2021-05-14T14:47:35Z</time>
      </trkpt>
      <trkpt lat="43.63604" lon="3.71548">
        <ele>147</ele>
        <time>2021-05-14T14:47:36Z</time>
      </trkpt>
      <trkpt lat="43.63601" lon="3.71552">
        <ele>147</ele>
        <time>2021-05-14T14:47:37Z</time>
      </trkpt>
      <trkpt lat="43.63599" lon="3.71556">
        <ele>147</ele>
        <time>2021-05-14T14:47:38Z</time>
      </trkpt>
      <trkpt lat="43.63596" lon="3.7156">
        <ele>148</ele>
        <time>2021-05-14T14:47:39Z</time>
      </trkpt>
      <trkpt lat="43.63593" lon="3.71565">
        <ele>148</ele>
        <time>2021-05-14T14:47:40Z</time>
      </trkpt>
      <trkpt lat="43.6359" lon="3.71569">
        <ele>148</ele>
        <time>2021-05-14T14:47:41Z</time>
      </trkpt>
      <trkpt lat="43.63588" lon="3.71573">
        <ele>148</ele>
        <time>2021-05-14T14:47:42Z</time>
      </trkpt>
      <trkpt lat="43.63585" lon="3.71578">
        <ele>148</ele>
        <time>2021-05-14T14:47:43Z</time>
      </trkpt>
      <trkpt lat="43.63583" lon="3.71582">
        <ele>148</ele>
        <time>2021-05-14T14:47:44Z</time>
      </trkpt>
      <trkpt lat="43.63581" lon="3.71586">
        <ele>148</ele>
        <time>2021-05-14T14:47:45Z</time>
      </trkpt>
      <trkpt lat="43.63579" lon="3.7159">
        <ele>148</ele>
        <time>2021-05-14T14:47:46Z</time>
      </trkpt>
      <trkpt lat="43.63578" lon="3.71595">
        <ele>148</ele>
        <time>2021-05-14T14:47:47Z</time>
      </trkpt>
      <trkpt lat="43.63576" lon="3.716">
        <ele>148</ele>
        <time>2021-05-14T14:47:48Z</time>
      </trkpt>
      <trkpt lat="43.63574" lon="3.71605">
        <ele>148</ele>
        <time>2021-05-14T14:47:49Z</time>
      </trkpt>
      <trkpt lat="43.63573" lon="3.7161">
        <ele>148</ele>
        <time>2021-05-14T14:47:50Z</time>
      </trkpt>
      <trkpt lat="43.63571" lon="3.71615">
        <ele>148</ele>
        <time>2021-05-14T14:47:51Z</time>
      </trkpt>
      <trkpt lat="43.6357" lon="3.71621">
        <ele>148</ele>
        <time>2021-05-14T14:47:52Z</time>
      </trkpt>
      <trkpt lat="43.63568" lon="3.71626">
        <ele>148</ele>
        <time>2021-05-14T14:47:53Z</time>
      </trkpt>
      <trkpt lat="43.63566" lon="3.71631">
        <ele>148</ele>
        <time>2021-05-14T14:47:54Z</time>
      </trkpt>
      <trkpt lat="43.63565" lon="3.71636">
        <ele>148</ele>
        <time>2021-05-14T14:47:55Z</time>
      </trkpt>
      <trkpt lat="43.63563" lon="3.71641">
        <ele>148</ele>
        <time>2021-05-14T14:47:56Z</time>
      </trkpt>
      <trkpt lat="43.63562" lon="3.71646">
        <ele>148</ele>
        <time>2021-05-14T14:47:57Z</time>
      </trkpt>
      <trkpt lat="43.6356" lon="3.71651">
        <ele>148</ele>
        <time>2021-05-14T14:47:58Z</time>
      </trkpt>
      <trkpt lat="43.63559" lon="3.71656">
        <ele>148</ele>
        <time>2021-05-14T14:47:59Z</time>
      </trkpt>
      <trkpt lat="43.63557" lon="3.71661">
        <ele>148</ele>
        <time>2021-05-14T14:48:00Z</time>
      </trkpt>
      <trkpt lat="43.63556" lon="3.71666">
        <ele>148</ele>
        <time>2021-05-14T14:48:01Z</time>
      </trkpt>
      <trkpt lat="43.63555" lon="3.71671">
        <ele>148</ele>
        <time>2021-05-14T14:48:02Z</time>
      </trkpt>
      <trkpt lat="43.63554" lon="3.71676">
        <ele>148</ele>
        <time>2021-05-14T14:48:03Z</time>
      </trkpt>
      <trkpt lat="43.63553" lon="3.71681">
        <ele>148</ele>
        <time>2021-05-14T14:48:04Z</time>
      </trkpt>
      <trkpt lat="43.63551" lon="3.71686">
        <ele>148</ele>
        <time>2021-05-14T14:48:05Z</time>
      </trkpt>
      <trkpt lat="43.6355" lon="3.71691">
        <ele>148</ele>
        <time>2021-05-14T14:48:06Z</time>
      </trkpt>
      <trkpt lat="43.63548" lon="3.71696">
        <ele>148</ele>
        <time>2021-05-14T14:48:07Z</time>
      </trkpt>
      <trkpt lat="43.63547" lon="3.71702">
        <ele>148</ele>
        <time>2021-05-14T14:48:08Z</time>
      </trkpt>
      <trkpt lat="43.63546" lon="3.71707">
        <ele>148</ele>
        <time>2021-05-14T14:48:09Z</time>
      </trkpt>
      <trkpt lat="43.63544" lon="3.71713">
        <ele>148</ele>
        <time>2021-05-14T14:48:10Z</time>
      </trkpt>
      <trkpt lat="43.63543" lon="3.71719">
        <ele>148</ele>
        <time>2021-05-14T14:48:11Z</time>
      </trkpt>
      <trkpt lat="43.63543" lon="3.71724">
        <ele>148</ele>
        <time>2021-05-14T14:48:12Z</time>
      </trkpt>
      <trkpt lat="43.63542" lon="3.7173">
        <ele>148</ele>
        <time>2021-05-14T14:48:13Z</time>
      </trkpt>
      <trkpt lat="43.6354" lon="3.71735">
        <ele>148</ele>
        <time>2021-05-14T14:48:14Z</time>
      </trkpt>
      <trkpt lat="43.63539" lon="3.7174">
        <ele>148</ele>
        <time>2021-05-14T14:48:15Z</time>
      </trkpt>
      <trkpt lat="43.63538" lon="3.71745">
        <ele>148</ele>
        <time>2021-05-14T14:48:16Z</time>
      </trkpt>
      <trkpt lat="43.63537" lon="3.7175">
        <ele>148</ele>
        <time>2021-05-14T14:48:17Z</time>
      </trkpt>
      <trkpt lat="43.63536" lon="3.71755">
        <ele>148</ele>
        <time>2021-05-14T14:48:18Z</time>
      </trkpt>
      <trkpt lat="43.63534" lon="3.7176">
        <ele>149</ele>
        <time>2021-05-14T14:48:19Z</time>
      </trkpt>
      <trkpt lat="43.63533" lon="3.71764">
        <ele>149</ele>
        <time>2021-05-14T14:48:20Z</time>
      </trkpt>
      <trkpt lat="43.63532" lon="3.71769">
        <ele>149</ele>
        <time>2021-05-14T14:48:21Z</time>
      </trkpt>
      <trkpt lat="43.6353" lon="3.71774">
        <ele>149</ele>
        <time>2021-05-14T14:48:22Z</time>
      </trkpt>
      <trkpt lat="43.63529" lon="3.71778">
        <ele>149</ele>
        <time>2021-05-14T14:48:23Z</time>
      </trkpt>
      <trkpt lat="43.63528" lon="3.71783">
        <ele>149</ele>
        <time>2021-05-14T14:48:24Z</time>
      </trkpt>
      <trkpt lat="43.63527" lon="3.71787">
        <ele>149</ele>
        <time>2021-05-14T14:48:25Z</time>
      </trkpt>
      <trkpt lat="43.63526" lon="3.71792">
        <ele>149</ele>
        <time>2021-05-14T14:48:26Z</time>
      </trkpt>
      <trkpt lat="43.63524" lon="3.71797">
        <ele>149</ele>
        <time>2021-05-14T14:48:27Z</time>
      </trkpt>
      <trkpt lat="43.63523" lon="3.71802">
        <ele>149</ele>
        <time>2021-05-14T14:48:28Z</time>
      </trkpt>
      <trkpt lat="43.63522" lon="3.71807">
        <ele>150</ele>
        <time>2021-05-14T14:48:29Z</time>
      </trkpt>
      <trkpt lat="43.63521" lon="3.71812">
        <ele>150</ele>
        <time>2021-05-14T14:48:30Z</time>
      </trkpt>
      <trkpt lat="43.6352" lon="3.71817">
        <ele>150</ele>
        <time>2021-05-14T14:48:31Z</time>
      </trkpt>
      <trkpt lat="43.63519" lon="3.71822">
        <ele>150</ele>
        <time>2021-05-14T14:48:32Z</time>
      </trkpt>
      <trkpt lat="43.63518" lon="3.71827">
        <ele>150</ele>
        <time>2021-05-14T14:48:33Z</time>
      </trkpt>
      <trkpt lat="43.63517" lon="3.71832">
        <ele>150</ele>
        <time>2021-05-14T14:48:34Z</time>
      </trkpt>
      <trkpt lat="43.63516" lon="3.71837">
        <ele>150</ele>
        <time>2021-05-14T14:48:35Z</time>
      </trkpt>
      <trkpt lat="43.63515" lon="3.71842">
        <ele>150</ele>
        <time>2021-05-14T14:48:36Z</time>
      </trkpt>
      <trkpt lat="43.63514" lon="3.71846">
        <ele>150</ele>
        <time>2021-05-14T14:48:37Z</time>
      </trkpt>
      <trkpt lat="43.63513" lon="3.71851">
        <ele>150</ele>
        <time>2021-05-14T14:48:38Z</time>
      </trkpt>
      <trkpt lat="43.63512" lon="3.71853">
        <ele>151</ele>
        <time>2021-05-14T14:48:39Z</time>
      </trkpt>
      <trkpt lat="43.63511" lon="3.71855">
        <ele>151</ele>
        <time>2021-05-14T14:48:40Z</time>
      </trkpt>
      <trkpt lat="43.6351" lon="3.71858">
        <ele>151</ele>
        <time>2021-05-14T14:48:41Z</time>
      </trkpt>
      <trkpt lat="43.63508" lon="3.71862">
        <ele>151</ele>
        <time>2021-05-14T14:48:43Z</time>
      </trkpt>
      <trkpt lat="43.63507" lon="3.71864">
        <ele>151</ele>
        <time>2021-05-14T14:48:44Z</time>
      </trkpt>
      <trkpt lat="43.63506" lon="3.71866">
        <ele>151</ele>
        <time>2021-05-14T14:48:45Z</time>
      </trkpt>
      <trkpt lat="43.63505" lon="3.71869">
        <ele>151</ele>
        <time>2021-05-14T14:48:46Z</time>
      </trkpt>
      <trkpt lat="43.63505" lon="3.71872">
        <ele>151</ele>
        <time>2021-05-14T14:48:48Z</time>
      </trkpt>
      <trkpt lat="43.63507" lon="3.71873">
        <ele>152</ele>
        <time>2021-05-14T14:48:49Z</time>
      </trkpt>
      <trkpt lat="43.63509" lon="3.71874">
        <ele>152</ele>
        <time>2021-05-14T14:48:50Z</time>
      </trkpt>
      <trkpt lat="43.63512" lon="3.71875">
        <ele>152</ele>
        <time>2021-05-14T14:48:51Z</time>
      </trkpt>
      <trkpt lat="43.63514" lon="3.71878">
        <ele>152</ele>
        <time>2021-05-14T14:48:52Z</time>
      </trkpt>
      <trkpt lat="43.63519" lon="3.71881">
        <ele>152</ele>
        <time>2021-05-14T14:48:53Z</time>
      </trkpt>
      <trkpt lat="43.63522" lon="3.71882">
        <ele>152</ele>
        <time>2021-05-14T14:48:54Z</time>
      </trkpt>
      <trkpt lat="43.63525" lon="3.71883">
        <ele>152</ele>
        <time>2021-05-14T14:48:55Z</time>
      </trkpt>
      <trkpt lat="43.63529" lon="3.71884">
        <ele>152</ele>
        <time>2021-05-14T14:48:56Z</time>
      </trkpt>
      <trkpt lat="43.63533" lon="3.71886">
        <ele>152</ele>
        <time>2021-05-14T14:48:57Z</time>
      </trkpt>
      <trkpt lat="43.63537" lon="3.71889">
        <ele>151</ele>
        <time>2021-05-14T14:48:59Z</time>
      </trkpt>
      <trkpt lat="43.6354" lon="3.71893">
        <ele>151</ele>
        <time>2021-05-14T14:49:00Z</time>
      </trkpt>
      <trkpt lat="43.6354" lon="3.71898">
        <ele>151</ele>
        <time>2021-05-14T14:49:01Z</time>
      </trkpt>
      <trkpt lat="43.63539" lon="3.71903">
        <ele>151</ele>
        <time>2021-05-14T14:49:02Z</time>
      </trkpt>
      <trkpt lat="43.63539" lon="3.71908">
        <ele>151</ele>
        <time>2021-05-14T14:49:03Z</time>
      </trkpt>
      <trkpt lat="43.63539" lon="3.71914">
        <ele>151</ele>
        <time>2021-05-14T14:49:04Z</time>
      </trkpt>
      <trkpt lat="43.63539" lon="3.7192">
        <ele>151</ele>
        <time>2021-05-14T14:49:05Z</time>
      </trkpt>
      <trkpt lat="43.63538" lon="3.71925">
        <ele>151</ele>
        <time>2021-05-14T14:49:06Z</time>
      </trkpt>
      <trkpt lat="43.63538" lon="3.71931">
        <ele>151</ele>
        <time>2021-05-14T14:49:07Z</time>
      </trkpt>
      <trkpt lat="43.63538" lon="3.71936">
        <ele>151</ele>
        <time>2021-05-14T14:49:08Z</time>
      </trkpt>
      <trkpt lat="43.63538" lon="3.71942">
        <ele>151</ele>
        <time>2021-05-14T14:49:09Z</time>
      </trkpt>
      <trkpt lat="43.63538" lon="3.71947">
        <ele>151</ele>
        <time>2021-05-14T14:49:10Z</time>
      </trkpt>
      <trkpt lat="43.63538" lon="3.71952">
        <ele>151</ele>
        <time>2021-05-14T14:49:11Z</time>
      </trkpt>
      <trkpt lat="43.63538" lon="3.71957">
        <ele>151</ele>
        <time>2021-05-14T14:49:12Z</time>
      </trkpt>
      <trkpt lat="43.63538" lon="3.71962">
        <ele>151</ele>
        <time>2021-05-14T14:49:13Z</time>
      </trkpt>
      <trkpt lat="43.63538" lon="3.71967">
        <ele>151</ele>
        <time>2021-05-14T14:49:14Z</time>
      </trkpt>
      <trkpt lat="43.63538" lon="3.71972">
        <ele>151</ele>
        <time>2021-05-14T14:49:15Z</time>
      </trkpt>
      <trkpt lat="43.63538" lon="3.71977">
        <ele>151</ele>
        <time>2021-05-14T14:49:16Z</time>
      </trkpt>
      <trkpt lat="43.63538" lon="3.71982">
        <ele>151</ele>
        <time>2021-05-14T14:49:17Z</time>
      </trkpt>
      <trkpt lat="43.63538" lon="3.71986">
        <ele>151</ele>
        <time>2021-05-14T14:49:18Z</time>
      </trkpt>
      <trkpt lat="43.63538" lon="3.7199">
        <ele>152</ele>
        <time>2021-05-14T14:49:19Z</time>
      </trkpt>
      <trkpt lat="43.63538" lon="3.71995">
        <ele>152</ele>
        <time>2021-05-14T14:49:20Z</time>
      </trkpt>
      <trkpt lat="43.63538" lon="3.71999">
        <ele>152</ele>
        <time>2021-05-14T14:49:21Z</time>
      </trkpt>
      <trkpt lat="43.63539" lon="3.72004">
        <ele>152</ele>
        <time>2021-05-14T14:49:22Z</time>
      </trkpt>
      <trkpt lat="43.63539" lon="3.72008">
        <ele>152</ele>
        <time>2021-05-14T14:49:23Z</time>
      </trkpt>
      <trkpt lat="43.6354" lon="3.72012">
        <ele>152</ele>
        <time>2021-05-14T14:49:24Z</time>
      </trkpt>
      <trkpt lat="43.63541" lon="3.72016">
        <ele>152</ele>
        <time>2021-05-14T14:49:25Z</time>
      </trkpt>
      <trkpt lat="43.63542" lon="3.72021">
        <ele>152</ele>
        <time>2021-05-14T14:49:26Z</time>
      </trkpt>
      <trkpt lat="43.63544" lon="3.72025">
        <ele>152</ele>
        <time>2021-05-14T14:49:27Z</time>
      </trkpt>
      <trkpt lat="43.63545" lon="3.7203">
        <ele>152</ele>
        <time>2021-05-14T14:49:28Z</time>
      </trkpt>
      <trkpt lat="43.63546" lon="3.72034">
        <ele>153</ele>
        <time>2021-05-14T14:49:29Z</time>
      </trkpt>
      <trkpt lat="43.63547" lon="3.72039">
        <ele>153</ele>
        <time>2021-05-14T14:49:30Z</time>
      </trkpt>
      <trkpt lat="43.63548" lon="3.72043">
        <ele>153</ele>
        <time>2021-05-14T14:49:31Z</time>
      </trkpt>
      <trkpt lat="43.63549" lon="3.72048">
        <ele>153</ele>
        <time>2021-05-14T14:49:32Z</time>
      </trkpt>
      <trkpt lat="43.6355" lon="3.72052">
        <ele>153</ele>
        <time>2021-05-14T14:49:33Z</time>
      </trkpt>
      <trkpt lat="43.63551" lon="3.72057">
        <ele>153</ele>
        <time>2021-05-14T14:49:34Z</time>
      </trkpt>
      <trkpt lat="43.63553" lon="3.72061">
        <ele>153</ele>
        <time>2021-05-14T14:49:35Z</time>
      </trkpt>
      <trkpt lat="43.63554" lon="3.72065">
        <ele>153</ele>
        <time>2021-05-14T14:49:36Z</time>
      </trkpt>
      <trkpt lat="43.63555" lon="3.72069">
        <ele>153</ele>
        <time>2021-05-14T14:49:37Z</time>
      </trkpt>
      <trkpt lat="43.63556" lon="3.72074">
        <ele>153</ele>
        <time>2021-05-14T14:49:38Z</time>
      </trkpt>
      <trkpt lat="43.63556" lon="3.72078">
        <ele>154</ele>
        <time>2021-05-14T14:49:39Z</time>
      </trkpt>
      <trkpt lat="43.63557" lon="3.72083">
        <ele>154</ele>
        <time>2021-05-14T14:49:40Z</time>
      </trkpt>
      <trkpt lat="43.63558" lon="3.72087">
        <ele>154</ele>
        <time>2021-05-14T14:49:41Z</time>
      </trkpt>
      <trkpt lat="43.63558" lon="3.7209">
        <ele>154</ele>
        <time>2021-05-14T14:49:42Z</time>
      </trkpt>
      <trkpt lat="43.63559" lon="3.72094">
        <ele>154</ele>
        <time>2021-05-14T14:49:43Z</time>
      </trkpt>
      <trkpt lat="43.63561" lon="3.72097">
        <ele>154</ele>
        <time>2021-05-14T14:49:44Z</time>
      </trkpt>
      <trkpt lat="43.63562" lon="3.721">
        <ele>154</ele>
        <time>2021-05-14T14:49:45Z</time>
      </trkpt>
      <trkpt lat="43.63564" lon="3.72103">
        <ele>154</ele>
        <time>2021-05-14T14:49:46Z</time>
      </trkpt>
      <trkpt lat="43.63565" lon="3.72106">
        <ele>154</ele>
        <time>2021-05-14T14:49:47Z</time>
      </trkpt>
      <trkpt lat="43.63567" lon="3.72108">
        <ele>154</ele>
        <time>2021-05-14T14:49:48Z</time>
      </trkpt>
      <trkpt lat="43.63568" lon="3.72111">
        <ele>156</ele>
        <time>2021-05-14T14:49:49Z</time>
      </trkpt>
      <trkpt lat="43.63569" lon="3.72115">
        <ele>156</ele>
        <time>2021-05-14T14:49:51Z</time>
      </trkpt>
      <trkpt lat="43.6357" lon="3.72117">
        <ele>156</ele>
        <time>2021-05-14T14:49:52Z</time>
      </trkpt>
      <trkpt lat="43.63571" lon="3.72119">
        <ele>156</ele>
        <time>2021-05-14T14:49:53Z</time>
      </trkpt>
      <trkpt lat="43.63572" lon="3.72122">
        <ele>156</ele>
        <time>2021-05-14T14:49:54Z</time>
      </trkpt>
      <trkpt lat="43.63573" lon="3.72124">
        <ele>156</ele>
        <time>2021-05-14T14:49:55Z</time>
      </trkpt>
      <trkpt lat="43.63573" lon="3.72127">
        <ele>156</ele>
        <time>2021-05-14T14:49:56Z</time>
      </trkpt>
      <trkpt lat="43.63574" lon="3.72129">
        <ele>156</ele>
        <time>2021-05-14T14:49:57Z</time>
      </trkpt>
      <trkpt lat="43.63575" lon="3.72132">
        <ele>156</ele>
        <time>2021-05-14T14:49:58Z</time>
      </trkpt>
      <trkpt lat="43.63575" lon="3.72134">
        <ele>158</ele>
        <time>2021-05-14T14:49:59Z</time>
      </trkpt>
      <trkpt lat="43.63576" lon="3.72139">
        <ele>158</ele>
        <time>2021-05-14T14:50:01Z</time>
      </trkpt>
      <trkpt lat="43.63577" lon="3.72142">
        <ele>158</ele>
        <time>2021-05-14T14:50:02Z</time>
      </trkpt>
      <trkpt lat="43.63578" lon="3.72144">
        <ele>158</ele>
        <time>2021-05-14T14:50:03Z</time>
      </trkpt>
      <trkpt lat="43.63578" lon="3.72147">
        <ele>158</ele>
        <time>2021-05-14T14:50:04Z</time>
      </trkpt>
      <trkpt lat="43.63579" lon="3.72149">
        <ele>158</ele>
        <time>2021-05-14T14:50:05Z</time>
      </trkpt>
      <trkpt lat="43.63579" lon="3.72152">
        <ele>158</ele>
        <time>2021-05-14T14:50:06Z</time>
      </trkpt>
      <trkpt lat="43.6358" lon="3.72155">
        <ele>158</ele>
        <time>2021-05-14T14:50:07Z</time>
      </trkpt>
      <trkpt lat="43.63581" lon="3.72157">
        <ele>158</ele>
        <time>2021-05-14T14:50:08Z</time>
      </trkpt>
      <trkpt lat="43.63582" lon="3.7216">
        <ele>160</ele>
        <time>2021-05-14T14:50:09Z</time>
      </trkpt>
      <trkpt lat="43.63582" lon="3.72163">
        <ele>160</ele>
        <time>2021-05-14T14:50:10Z</time>
      </trkpt>
      <trkpt lat="43.63583" lon="3.72165">
        <ele>160</ele>
        <time>2021-05-14T14:50:11Z</time>
      </trkpt>
      <trkpt lat="43.63583" lon="3.72168">
        <ele>160</ele>
        <time>2021-05-14T14:50:12Z</time>
      </trkpt>
      <trkpt lat="43.63584" lon="3.72171">
        <ele>160</ele>
        <time>2021-05-14T14:50:13Z</time>
      </trkpt>
      <trkpt lat="43.63585" lon="3.72173">
        <ele>160</ele>
        <time>2021-05-14T14:50:14Z</time>
      </trkpt>
      <trkpt lat="43.63585" lon="3.72176">
        <ele>160</ele>
        <time>2021-05-14T14:50:15Z</time>
      </trkpt>
      <trkpt lat="43.63586" lon="3.72179">
        <ele>160</ele>
        <time>2021-05-14T14:50:16Z</time>
      </trkpt>
      <trkpt lat="43.63587" lon="3.72182">
        <ele>160</ele>
        <time>2021-05-14T14:50:17Z</time>
      </trkpt>
      <trkpt lat="43.63588" lon="3.72185">
        <ele>160</ele>
        <time>2021-05-14T14:50:18Z</time>
      </trkpt>
      <trkpt lat="43.63588" lon="3.72189">
        <ele>161</ele>
        <time>2021-05-14T14:50:19Z</time>
      </trkpt>
      <trkpt lat="43.63589" lon="3.72192">
        <ele>161</ele>
        <time>2021-05-14T14:50:20Z</time>
      </trkpt>
      <trkpt lat="43.6359" lon="3.72195">
        <ele>161</ele>
        <time>2021-05-14T14:50:21Z</time>
      </trkpt>
      <trkpt lat="43.6359" lon="3.72198">
        <ele>161</ele>
        <time>2021-05-14T14:50:22Z</time>
      </trkpt>
      <trkpt lat="43.63591" lon="3.72201">
        <ele>161</ele>
        <time>2021-05-14T14:50:23Z</time>
      </trkpt>
      <trkpt lat="43.63592" lon="3.72204">
        <ele>161</ele>
        <time>2021-05-14T14:50:24Z</time>
      </trkpt>
      <trkpt lat="43.63592" lon="3.72207">
        <ele>161</ele>
        <time>2021-05-14T14:50:25Z</time>
      </trkpt>
      <trkpt lat="43.63593" lon="3.7221">
        <ele>161</ele>
        <time>2021-05-14T14:50:26Z</time>
      </trkpt>
      <trkpt lat="43.63594" lon="3.72213">
        <ele>161</ele>
        <time>2021-05-14T14:50:27Z</time>
      </trkpt>
      <trkpt lat="43.63595" lon="3.72216">
        <ele>161</ele>
        <time>2021-05-14T14:50:28Z</time>
      </trkpt>
      <trkpt lat="43.63595" lon="3.72219">
        <ele>162</ele>
        <time>2021-05-14T14:50:29Z</time>
      </trkpt>
      <trkpt lat="43.63596" lon="3.72223">
        <ele>162</ele>
        <time>2021-05-14T14:50:30Z</time>
      </trkpt>
      <trkpt lat="43.63597" lon="3.72226">
        <ele>162</ele>
        <time>2021-05-14T14:50:31Z</time>
      </trkpt>
      <trkpt lat="43.63598" lon="3.7223">
        <ele>162</ele>
        <time>2021-05-14T14:50:32Z</time>
      </trkpt>
      <trkpt lat="43.63599" lon="3.72233">
        <ele>162</ele>
        <time>2021-05-14T14:50:33Z</time>
      </trkpt>
      <trkpt lat="43.636" lon="3.72236">
        <ele>162</ele>
        <time>2021-05-14T14:50:34Z</time>
      </trkpt>
      <trkpt lat="43.63601" lon="3.72239">
        <ele>162</ele>
        <time>2021-05-14T14:50:35Z</time>
      </trkpt>
      <trkpt lat="43.63601" lon="3.72243">
        <ele>162</ele>
        <time>2021-05-14T14:50:36Z</time>
      </trkpt>
      <trkpt lat="43.63602" lon="3.72246">
        <ele>162</ele>
        <time>2021-05-14T14:50:37Z</time>
      </trkpt>
      <trkpt lat="43.63603" lon="3.72249">
        <ele>162</ele>
        <time>2021-05-14T14:50:38Z</time>
      </trkpt>
      <trkpt lat="43.63604" lon="3.72252">
        <ele>164</ele>
        <time>2021-05-14T14:50:39Z</time>
      </trkpt>
      <trkpt lat="43.63604" lon="3.72255">
        <ele>164</ele>
        <time>2021-05-14T14:50:40Z</time>
      </trkpt>
      <trkpt lat="43.63605" lon="3.72258">
        <ele>164</ele>
        <time>2021-05-14T14:50:41Z</time>
      </trkpt>
      <trkpt lat="43.63607" lon="3.72261">
        <ele>164</ele>
        <time>2021-05-14T14:50:42Z</time>
      </trkpt>
      <trkpt lat="43.63608" lon="3.72264">
        <ele>164</ele>
        <time>2021-05-14T14:50:43Z</time>
      </trkpt>
      <trkpt lat="43.63609" lon="3.72267">
        <ele>164</ele>
        <time>2021-05-14T14:50:44Z</time>
      </trkpt>
      <trkpt lat="43.6361" lon="3.7227">
        <ele>164</ele>
        <time>2021-05-14T14:50:45Z</time>
      </trkpt>
      <trkpt lat="43.63611" lon="3.72273">
        <ele>164</ele>
        <time>2021-05-14T14:50:46Z</time>
      </trkpt>
      <trkpt lat="43.63613" lon="3.72279">
        <ele>164</ele>
        <time>2021-05-14T14:50:47Z</time>
      </trkpt>
      <trkpt lat="43.63614" lon="3.72282">
        <ele>164</ele>
        <time>2021-05-14T14:50:48Z</time>
      </trkpt>
      <trkpt lat="43.63615" lon="3.72286">
        <ele>164</ele>
        <time>2021-05-14T14:50:50Z</time>
      </trkpt>
      <trkpt lat="43.63615" lon="3.7229">
        <ele>164</ele>
        <time>2021-05-14T14:50:51Z</time>
      </trkpt>
      <trkpt lat="43.63616" lon="3.72294">
        <ele>164</ele>
        <time>2021-05-14T14:50:52Z</time>
      </trkpt>
      <trkpt lat="43.63617" lon="3.72297">
        <ele>164</ele>
        <time>2021-05-14T14:50:53Z</time>
      </trkpt>
      <trkpt lat="43.63617" lon="3.72301">
        <ele>164</ele>
        <time>2021-05-14T14:50:54Z</time>
      </trkpt>
      <trkpt lat="43.63618" lon="3.72305">
        <ele>164</ele>
        <time>2021-05-14T14:50:55Z</time>
      </trkpt>
      <trkpt lat="43.63619" lon="3.72308">
        <ele>164</ele>
        <time>2021-05-14T14:50:56Z</time>
      </trkpt>
      <trkpt lat="43.63619" lon="3.72312">
        <ele>164</ele>
        <time>2021-05-14T14:50:57Z</time>
      </trkpt>
      <trkpt lat="43.6362" lon="3.72316">
        <ele>164</ele>
        <time>2021-05-14T14:50:58Z</time>
      </trkpt>
      <trkpt lat="43.6362" lon="3.72319">
        <ele>166</ele>
        <time>2021-05-14T14:50:59Z</time>
      </trkpt>
      <trkpt lat="43.63622" lon="3.72327">
        <ele>166</ele>
        <time>2021-05-14T14:51:00Z</time>
      </trkpt>
      <trkpt lat="43.63623" lon="3.72334">
        <ele>166</ele>
        <time>2021-05-14T14:51:02Z</time>
      </trkpt>
      <trkpt lat="43.63623" lon="3.72338">
        <ele>166</ele>
        <time>2021-05-14T14:51:04Z</time>
      </trkpt>
      <trkpt lat="43.63624" lon="3.72342">
        <ele>166</ele>
        <time>2021-05-14T14:51:05Z</time>
      </trkpt>
      <trkpt lat="43.63625" lon="3.72345">
        <ele>166</ele>
        <time>2021-05-14T14:51:06Z</time>
      </trkpt>
      <trkpt lat="43.63626" lon="3.72348">
        <ele>166</ele>
        <time>2021-05-14T14:51:07Z</time>
      </trkpt>
      <trkpt lat="43.63627" lon="3.72352">
        <ele>166</ele>
        <time>2021-05-14T14:51:08Z</time>
      </trkpt>
      <trkpt lat="43.63629" lon="3.72355">
        <ele>167</ele>
        <time>2021-05-14T14:51:09Z</time>
      </trkpt>
      <trkpt lat="43.6363" lon="3.72359">
        <ele>167</ele>
        <time>2021-05-14T14:51:10Z</time>
      </trkpt>
      <trkpt lat="43.63631" lon="3.72363">
        <ele>167</ele>
        <time>2021-05-14T14:51:11Z</time>
      </trkpt>
      <trkpt lat="43.63633" lon="3.72366">
        <ele>167</ele>
        <time>2021-05-14T14:51:12Z</time>
      </trkpt>
      <trkpt lat="43.63635" lon="3.7237">
        <ele>167</ele>
        <time>2021-05-14T14:51:13Z</time>
      </trkpt>
      <trkpt lat="43.63637" lon="3.72375">
        <ele>167</ele>
        <time>2021-05-14T14:51:14Z</time>
      </trkpt>
      <trkpt lat="43.63638" lon="3.7238">
        <ele>167</ele>
        <time>2021-05-14T14:51:15Z</time>
      </trkpt>
      <trkpt lat="43.63639" lon="3.72386">
        <ele>167</ele>
        <time>2021-05-14T14:51:16Z</time>
      </trkpt>
      <trkpt lat="43.63641" lon="3.72391">
        <ele>167</ele>
        <time>2021-05-14T14:51:17Z</time>
      </trkpt>
      <trkpt lat="43.63642" lon="3.72398">
        <ele>167</ele>
        <time>2021-05-14T14:51:18Z</time>
      </trkpt>
      <trkpt lat="43.63643" lon="3.72404">
        <ele>168</ele>
        <time>2021-05-14T14:51:19Z</time>
      </trkpt>
      <trkpt lat="43.63644" lon="3.72409">
        <ele>168</ele>
        <time>2021-05-14T14:51:20Z</time>
      </trkpt>
      <trkpt lat="43.63645" lon="3.72414">
        <ele>168</ele>
        <time>2021-05-14T14:51:21Z</time>
      </trkpt>
      <trkpt lat="43.63646" lon="3.72419">
        <ele>168</ele>
        <time>2021-05-14T14:51:22Z</time>
      </trkpt>
      <trkpt lat="43.63646" lon="3.72423">
        <ele>168</ele>
        <time>2021-05-14T14:51:23Z</time>
      </trkpt>
      <trkpt lat="43.63646" lon="3.72428">
        <ele>168</ele>
        <time>2021-05-14T14:51:24Z</time>
      </trkpt>
      <trkpt lat="43.63647" lon="3.72433">
        <ele>168</ele>
        <time>2021-05-14T14:51:25Z</time>
      </trkpt>
      <trkpt lat="43.63648" lon="3.72437">
        <ele>168</ele>
        <time>2021-05-14T14:51:26Z</time>
      </trkpt>
      <trkpt lat="43.6365" lon="3.72441">
        <ele>168</ele>
        <time>2021-05-14T14:51:27Z</time>
      </trkpt>
      <trkpt lat="43.63651" lon="3.72445">
        <ele>168</ele>
        <time>2021-05-14T14:51:28Z</time>
      </trkpt>
      <trkpt lat="43.63652" lon="3.72449">
        <ele>169</ele>
        <time>2021-05-14T14:51:29Z</time>
      </trkpt>
      <trkpt lat="43.63654" lon="3.72458">
        <ele>169</ele>
        <time>2021-05-14T14:51:30Z</time>
      </trkpt>
      <trkpt lat="43.63655" lon="3.72463">
        <ele>169</ele>
        <time>2021-05-14T14:51:31Z</time>
      </trkpt>
      <trkpt lat="43.63656" lon="3.72469">
        <ele>169</ele>
        <time>2021-05-14T14:51:32Z</time>
      </trkpt>
      <trkpt lat="43.63656" lon="3.72474">
        <ele>169</ele>
        <time>2021-05-14T14:51:33Z</time>
      </trkpt>
      <trkpt lat="43.63657" lon="3.7248">
        <ele>169</ele>
        <time>2021-05-14T14:51:34Z</time>
      </trkpt>
      <trkpt lat="43.63659" lon="3.72485">
        <ele>169</ele>
        <time>2021-05-14T14:51:36Z</time>
      </trkpt>
      <trkpt lat="43.6366" lon="3.72491">
        <ele>169</ele>
        <time>2021-05-14T14:51:37Z</time>
      </trkpt>
      <trkpt lat="43.63662" lon="3.72496">
        <ele>169</ele>
        <time>2021-05-14T14:51:38Z</time>
      </trkpt>
      <trkpt lat="43.63664" lon="3.72502">
        <ele>169</ele>
        <time>2021-05-14T14:51:39Z</time>
      </trkpt>
      <trkpt lat="43.63666" lon="3.72508">
        <ele>169</ele>
        <time>2021-05-14T14:51:40Z</time>
      </trkpt>
      <trkpt lat="43.63667" lon="3.72514">
        <ele>169</ele>
        <time>2021-05-14T14:51:41Z</time>
      </trkpt>
      <trkpt lat="43.63669" lon="3.72521">
        <ele>169</ele>
        <time>2021-05-14T14:51:42Z</time>
      </trkpt>
      <trkpt lat="43.63669" lon="3.72529">
        <ele>169</ele>
        <time>2021-05-14T14:51:43Z</time>
      </trkpt>
      <trkpt lat="43.63669" lon="3.72537">
        <ele>169</ele>
        <time>2021-05-14T14:51:44Z</time>
      </trkpt>
      <trkpt lat="43.63667" lon="3.72545">
        <ele>169</ele>
        <time>2021-05-14T14:51:45Z</time>
      </trkpt>
      <trkpt lat="43.63667" lon="3.72553">
        <ele>169</ele>
        <time>2021-05-14T14:51:46Z</time>
      </trkpt>
      <trkpt lat="43.63667" lon="3.7256">
        <ele>169</ele>
        <time>2021-05-14T14:51:47Z</time>
      </trkpt>
      <trkpt lat="43.63667" lon="3.72568">
        <ele>169</ele>
        <time>2021-05-14T14:51:48Z</time>
      </trkpt>
      <trkpt lat="43.63668" lon="3.72575">
        <ele>167</ele>
        <time>2021-05-14T14:51:49Z</time>
      </trkpt>
      <trkpt lat="43.63669" lon="3.72582">
        <ele>167</ele>
        <time>2021-05-14T14:51:50Z</time>
      </trkpt>
      <trkpt lat="43.63668" lon="3.72589">
        <ele>167</ele>
        <time>2021-05-14T14:51:51Z</time>
      </trkpt>
      <trkpt lat="43.63668" lon="3.72595">
        <ele>167</ele>
        <time>2021-05-14T14:51:52Z</time>
      </trkpt>
      <trkpt lat="43.63668" lon="3.72601">
        <ele>167</ele>
        <time>2021-05-14T14:51:53Z</time>
      </trkpt>
      <trkpt lat="43.63668" lon="3.72607">
        <ele>167</ele>
        <time>2021-05-14T14:51:54Z</time>
      </trkpt>
      <trkpt lat="43.63667" lon="3.72611">
        <ele>167</ele>
        <time>2021-05-14T14:51:55Z</time>
      </trkpt>
      <trkpt lat="43.63667" lon="3.72616">
        <ele>167</ele>
        <time>2021-05-14T14:51:56Z</time>
      </trkpt>
      <trkpt lat="43.63667" lon="3.72621">
        <ele>167</ele>
        <time>2021-05-14T14:51:57Z</time>
      </trkpt>
      <trkpt lat="43.63668" lon="3.72627">
        <ele>167</ele>
        <time>2021-05-14T14:51:58Z</time>
      </trkpt>
      <trkpt lat="43.63669" lon="3.72639">
        <ele>167</ele>
        <time>2021-05-14T14:51:59Z</time>
      </trkpt>
      <trkpt lat="43.63669" lon="3.72651">
        <ele>167</ele>
        <time>2021-05-14T14:52:01Z</time>
      </trkpt>
      <trkpt lat="43.63668" lon="3.72658">
        <ele>167</ele>
        <time>2021-05-14T14:52:02Z</time>
      </trkpt>
      <trkpt lat="43.63667" lon="3.72665">
        <ele>167</ele>
        <time>2021-05-14T14:52:03Z</time>
      </trkpt>
      <trkpt lat="43.63667" lon="3.72671">
        <ele>167</ele>
        <time>2021-05-14T14:52:04Z</time>
      </trkpt>
      <trkpt lat="43.63667" lon="3.72676">
        <ele>167</ele>
        <time>2021-05-14T14:52:05Z</time>
      </trkpt>
      <trkpt lat="43.63667" lon="3.72682">
        <ele>167</ele>
        <time>2021-05-14T14:52:06Z</time>
      </trkpt>
      <trkpt lat="43.63667" lon="3.72687">
        <ele>167</ele>
        <time>2021-05-14T14:52:07Z</time>
      </trkpt>
      <trkpt lat="43.63666" lon="3.72693">
        <ele>167</ele>
        <time>2021-05-14T14:52:08Z</time>
      </trkpt>
      <trkpt lat="43.63665" lon="3.727">
        <ele>167</ele>
        <time>2021-05-14T14:52:10Z</time>
      </trkpt>
      <trkpt lat="43.63664" lon="3.72705">
        <ele>167</ele>
        <time>2021-05-14T14:52:11Z</time>
      </trkpt>
      <trkpt lat="43.63664" lon="3.7271">
        <ele>167</ele>
        <time>2021-05-14T14:52:12Z</time>
      </trkpt>
      <trkpt lat="43.63664" lon="3.72715">
        <ele>167</ele>
        <time>2021-05-14T14:52:13Z</time>
      </trkpt>
      <trkpt lat="43.63667" lon="3.72733">
        <ele>167</ele>
        <time>2021-05-14T14:52:16Z</time>
      </trkpt>
      <trkpt lat="43.6367" lon="3.72747">
        <ele>167</ele>
        <time>2021-05-14T14:52:18Z</time>
      </trkpt>
      <trkpt lat="43.63671" lon="3.72754">
        <ele>165</ele>
        <time>2021-05-14T14:52:19Z</time>
      </trkpt>
      <trkpt lat="43.6367" lon="3.72761">
        <ele>165</ele>
        <time>2021-05-14T14:52:20Z</time>
      </trkpt>
      <trkpt lat="43.63669" lon="3.72769">
        <ele>165</ele>
        <time>2021-05-14T14:52:21Z</time>
      </trkpt>
      <trkpt lat="43.63668" lon="3.72776">
        <ele>165</ele>
        <time>2021-05-14T14:52:22Z</time>
      </trkpt>
      <trkpt lat="43.63666" lon="3.72782">
        <ele>165</ele>
        <time>2021-05-14T14:52:23Z</time>
      </trkpt>
      <trkpt lat="43.63665" lon="3.72788">
        <ele>165</ele>
        <time>2021-05-14T14:52:24Z</time>
      </trkpt>
      <trkpt lat="43.63665" lon="3.72795">
        <ele>165</ele>
        <time>2021-05-14T14:52:25Z</time>
      </trkpt>
      <trkpt lat="43.63665" lon="3.72801">
        <ele>165</ele>
        <time>2021-05-14T14:52:26Z</time>
      </trkpt>
      <trkpt lat="43.63665" lon="3.72808">
        <ele>165</ele>
        <time>2021-05-14T14:52:27Z</time>
      </trkpt>
      <trkpt lat="43.63664" lon="3.72815">
        <ele>165</ele>
        <time>2021-05-14T14:52:28Z</time>
      </trkpt>
      <trkpt lat="43.63664" lon="3.72821">
        <ele>166</ele>
        <time>2021-05-14T14:52:29Z</time>
      </trkpt>
      <trkpt lat="43.63663" lon="3.72828">
        <ele>166</ele>
        <time>2021-05-14T14:52:30Z</time>
      </trkpt>
      <trkpt lat="43.63662" lon="3.72834">
        <ele>166</ele>
        <time>2021-05-14T14:52:31Z</time>
      </trkpt>
      <trkpt lat="43.63661" lon="3.7284">
        <ele>166</ele>
        <time>2021-05-14T14:52:32Z</time>
      </trkpt>
      <trkpt lat="43.63661" lon="3.72846">
        <ele>166</ele>
        <time>2021-05-14T14:52:33Z</time>
      </trkpt>
      <trkpt lat="43.6366" lon="3.72852">
        <ele>166</ele>
        <time>2021-05-14T14:52:34Z</time>
      </trkpt>
      <trkpt lat="43.6366" lon="3.72858">
        <ele>166</ele>
        <time>2021-05-14T14:52:35Z</time>
      </trkpt>
      <trkpt lat="43.63659" lon="3.72865">
        <ele>166</ele>
        <time>2021-05-14T14:52:36Z</time>
      </trkpt>
      <trkpt lat="43.63659" lon="3.72871">
        <ele>166</ele>
        <time>2021-05-14T14:52:37Z</time>
      </trkpt>
      <trkpt lat="43.63658" lon="3.72877">
        <ele>166</ele>
        <time>2021-05-14T14:52:38Z</time>
      </trkpt>
      <trkpt lat="43.63657" lon="3.72883">
        <ele>165</ele>
        <time>2021-05-14T14:52:39Z</time>
      </trkpt>
      <trkpt lat="43.63657" lon="3.72888">
        <ele>165</ele>
        <time>2021-05-14T14:52:40Z</time>
      </trkpt>
      <trkpt lat="43.63656" lon="3.72894">
        <ele>165</ele>
        <time>2021-05-14T14:52:41Z</time>
      </trkpt>
      <trkpt lat="43.63656" lon="3.729">
        <ele>165</ele>
        <time>2021-05-14T14:52:42Z</time>
      </trkpt>
      <trkpt lat="43.63655" lon="3.72905">
        <ele>165</ele>
        <time>2021-05-14T14:52:43Z</time>
      </trkpt>
      <trkpt lat="43.63654" lon="3.72911">
        <ele>165</ele>
        <time>2021-05-14T14:52:44Z</time>
      </trkpt>
      <trkpt lat="43.63654" lon="3.72916">
        <ele>165</ele>
        <time>2021-05-14T14:52:45Z</time>
      </trkpt>
      <trkpt lat="43.63653" lon="3.72922">
        <ele>165</ele>
        <time>2021-05-14T14:52:46Z</time>
      </trkpt>
      <trkpt lat="43.63652" lon="3.72927">
        <ele>165</ele>
        <time>2021-05-14T14:52:47Z</time>
      </trkpt>
      <trkpt lat="43.63652" lon="3.72932">
        <ele>165</ele>
        <time>2021-05-14T14:52:48Z</time>
      </trkpt>
      <trkpt lat="43.63651" lon="3.72937">
        <ele>166</ele>
        <time>2021-05-14T14:52:49Z</time>
      </trkpt>
      <trkpt lat="43.6365" lon="3.72942">
        <ele>166</ele>
        <time>2021-05-14T14:52:50Z</time>
      </trkpt>
      <trkpt lat="43.6365" lon="3.72947">
        <ele>166</ele>
        <time>2021-05-14T14:52:51Z</time>
      </trkpt>
      <trkpt lat="43.6365" lon="3.72952">
        <ele>166</ele>
        <time>2021-05-14T14:52:52Z</time>
      </trkpt>
      <trkpt lat="43.6365" lon="3.72956">
        <ele>166</ele>
        <time>2021-05-14T14:52:53Z</time>
      </trkpt>
      <trkpt lat="43.6365" lon="3.72962">
        <ele>166</ele>
        <time>2021-05-14T14:52:54Z</time>
      </trkpt>
      <trkpt lat="43.63649" lon="3.72966">
        <ele>166</ele>
        <time>2021-05-14T14:52:55Z</time>
      </trkpt>
      <trkpt lat="43.63649" lon="3.72971">
        <ele>166</ele>
        <time>2021-05-14T14:52:56Z</time>
      </trkpt>
      <trkpt lat="43.63648" lon="3.72977">
        <ele>166</ele>
        <time>2021-05-14T14:52:57Z</time>
      </trkpt>
      <trkpt lat="43.63647" lon="3.72982">
        <ele>166</ele>
        <time>2021-05-14T14:52:58Z</time>
      </trkpt>
      <trkpt lat="43.63647" lon="3.72987">
        <ele>166</ele>
        <time>2021-05-14T14:52:59Z</time>
      </trkpt>
      <trkpt lat="43.63646" lon="3.72992">
        <ele>166</ele>
        <time>2021-05-14T14:53:00Z</time>
      </trkpt>
      <trkpt lat="43.63646" lon="3.72997">
        <ele>166</ele>
        <time>2021-05-14T14:53:01Z</time>
      </trkpt>
      <trkpt lat="43.63646" lon="3.73001">
        <ele>166</ele>
        <time>2021-05-14T14:53:02Z</time>
      </trkpt>
      <trkpt lat="43.63645" lon="3.73006">
        <ele>166</ele>
        <time>2021-05-14T14:53:03Z</time>
      </trkpt>
      <trkpt lat="43.63645" lon="3.7301">
        <ele>166</ele>
        <time>2021-05-14T14:53:04Z</time>
      </trkpt>
      <trkpt lat="43.63645" lon="3.73015">
        <ele>166</ele>
        <time>2021-05-14T14:53:05Z</time>
      </trkpt>
      <trkpt lat="43.63645" lon="3.7302">
        <ele>166</ele>
        <time>2021-05-14T14:53:06Z</time>
      </trkpt>
      <trkpt lat="43.63645" lon="3.73025">
        <ele>166</ele>
        <time>2021-05-14T14:53:07Z</time>
      </trkpt>
      <trkpt lat="43.63644" lon="3.73029">
        <ele>166</ele>
        <time>2021-05-14T14:53:08Z</time>
      </trkpt>
      <trkpt lat="43.63643" lon="3.73033">
        <ele>167</ele>
        <time>2021-05-14T14:53:09Z</time>
      </trkpt>
      <trkpt lat="43.63642" lon="3.73037">
        <ele>167</ele>
        <time>2021-05-14T14:53:10Z</time>
      </trkpt>
      <trkpt lat="43.63642" lon="3.73042">
        <ele>167</ele>
        <time>2021-05-14T14:53:11Z</time>
      </trkpt>
      <trkpt lat="43.63642" lon="3.73048">
        <ele>167</ele>
        <time>2021-05-14T14:53:12Z</time>
      </trkpt>
      <trkpt lat="43.63641" lon="3.73054">
        <ele>167</ele>
        <time>2021-05-14T14:53:13Z</time>
      </trkpt>
      <trkpt lat="43.63641" lon="3.7306">
        <ele>167</ele>
        <time>2021-05-14T14:53:14Z</time>
      </trkpt>
      <trkpt lat="43.63641" lon="3.73065">
        <ele>167</ele>
        <time>2021-05-14T14:53:15Z</time>
      </trkpt>
      <trkpt lat="43.63641" lon="3.73071">
        <ele>167</ele>
        <time>2021-05-14T14:53:16Z</time>
      </trkpt>
      <trkpt lat="43.6364" lon="3.73076">
        <ele>167</ele>
        <time>2021-05-14T14:53:17Z</time>
      </trkpt>
      <trkpt lat="43.6364" lon="3.73082">
        <ele>167</ele>
        <time>2021-05-14T14:53:18Z</time>
      </trkpt>
      <trkpt lat="43.63639" lon="3.73086">
        <ele>167</ele>
        <time>2021-05-14T14:53:19Z</time>
      </trkpt>
      <trkpt lat="43.63639" lon="3.7309">
        <ele>167</ele>
        <time>2021-05-14T14:53:20Z</time>
      </trkpt>
      <trkpt lat="43.63638" lon="3.73094">
        <ele>167</ele>
        <time>2021-05-14T14:53:21Z</time>
      </trkpt>
      <trkpt lat="43.63638" lon="3.73097">
        <ele>167</ele>
        <time>2021-05-14T14:53:22Z</time>
      </trkpt>
      <trkpt lat="43.63637" lon="3.73101">
        <ele>167</ele>
        <time>2021-05-14T14:53:23Z</time>
      </trkpt>
      <trkpt lat="43.63636" lon="3.73104">
        <ele>167</ele>
        <time>2021-05-14T14:53:24Z</time>
      </trkpt>
      <trkpt lat="43.63636" lon="3.73108">
        <ele>167</ele>
        <time>2021-05-14T14:53:25Z</time>
      </trkpt>
      <trkpt lat="43.63635" lon="3.73112">
        <ele>167</ele>
        <time>2021-05-14T14:53:26Z</time>
      </trkpt>
      <trkpt lat="43.63634" lon="3.73116">
        <ele>167</ele>
        <time>2021-05-14T14:53:27Z</time>
      </trkpt>
      <trkpt lat="43.63633" lon="3.7312">
        <ele>167</ele>
        <time>2021-05-14T14:53:28Z</time>
      </trkpt>
      <trkpt lat="43.63632" lon="3.73123">
        <ele>169</ele>
        <time>2021-05-14T14:53:29Z</time>
      </trkpt>
      <trkpt lat="43.63632" lon="3.73127">
        <ele>169</ele>
        <time>2021-05-14T14:53:30Z</time>
      </trkpt>
      <trkpt lat="43.63631" lon="3.73131">
        <ele>169</ele>
        <time>2021-05-14T14:53:31Z</time>
      </trkpt>
      <trkpt lat="43.6363" lon="3.73135">
        <ele>169</ele>
        <time>2021-05-14T14:53:32Z</time>
      </trkpt>
      <trkpt lat="43.63629" lon="3.73138">
        <ele>169</ele>
        <time>2021-05-14T14:53:33Z</time>
      </trkpt>
      <trkpt lat="43.63628" lon="3.73141">
        <ele>169</ele>
        <time>2021-05-14T14:53:34Z</time>
      </trkpt>
      <trkpt lat="43.63628" lon="3.73144">
        <ele>169</ele>
        <time>2021-05-14T14:53:35Z</time>
      </trkpt>
      <trkpt lat="43.63627" lon="3.73145">
        <ele>170</ele>
        <time>2021-05-14T14:53:40Z</time>
      </trkpt>
      <trkpt lat="43.63629" lon="3.73153">
        <ele>171</ele>
        <time>2021-05-14T14:54:39Z</time>
      </trkpt>
      <trkpt lat="43.6363" lon="3.73158">
        <ele>171</ele>
        <time>2021-05-14T14:54:40Z</time>
      </trkpt>
      <trkpt lat="43.63631" lon="3.73164">
        <ele>171</ele>
        <time>2021-05-14T14:54:41Z</time>
      </trkpt>
      <trkpt lat="43.63632" lon="3.73171">
        <ele>171</ele>
        <time>2021-05-14T14:54:42Z</time>
      </trkpt>
      <trkpt lat="43.63631" lon="3.73178">
        <ele>171</ele>
        <time>2021-05-14T14:54:43Z</time>
      </trkpt>
      <trkpt lat="43.6363" lon="3.73186">
        <ele>171</ele>
        <time>2021-05-14T14:54:44Z</time>
      </trkpt>
      <trkpt lat="43.6363" lon="3.73195">
        <ele>171</ele>
        <time>2021-05-14T14:54:45Z</time>
      </trkpt>
      <trkpt lat="43.63629" lon="3.73203">
        <ele>171</ele>
        <time>2021-05-14T14:54:46Z</time>
      </trkpt>
      <trkpt lat="43.63629" lon="3.73213">
        <ele>171</ele>
        <time>2021-05-14T14:54:47Z</time>
      </trkpt>
      <trkpt lat="43.63629" lon="3.73223">
        <ele>171</ele>
        <time>2021-05-14T14:54:48Z</time>
      </trkpt>
      <trkpt lat="43.63629" lon="3.73232">
        <ele>169</ele>
        <time>2021-05-14T14:54:49Z</time>
      </trkpt>
      <trkpt lat="43.63629" lon="3.7324">
        <ele>169</ele>
        <time>2021-05-14T14:54:50Z</time>
      </trkpt>
      <trkpt lat="43.6363" lon="3.73247">
        <ele>169</ele>
        <time>2021-05-14T14:54:51Z</time>
      </trkpt>
      <trkpt lat="43.6363" lon="3.73254">
        <ele>169</ele>
        <time>2021-05-14T14:54:52Z</time>
      </trkpt>
      <trkpt lat="43.6363" lon="3.7326">
        <ele>169</ele>
        <time>2021-05-14T14:54:53Z</time>
      </trkpt>
      <trkpt lat="43.6363" lon="3.73265">
        <ele>169</ele>
        <time>2021-05-14T14:54:54Z</time>
      </trkpt>
      <trkpt lat="43.6363" lon="3.7327">
        <ele>169</ele>
        <time>2021-05-14T14:54:55Z</time>
      </trkpt>
      <trkpt lat="43.6363" lon="3.73275">
        <ele>169</ele>
        <time>2021-05-14T14:54:56Z</time>
      </trkpt>
      <trkpt lat="43.6363" lon="3.73279">
        <ele>169</ele>
        <time>2021-05-14T14:54:57Z</time>
      </trkpt>
      <trkpt lat="43.6363" lon="3.73284">
        <ele>169</ele>
        <time>2021-05-14T14:54:58Z</time>
      </trkpt>
      <trkpt lat="43.63629" lon="3.73293">
        <ele>170</ele>
        <time>2021-05-14T14:54:59Z</time>
      </trkpt>
      <trkpt lat="43.63629" lon="3.73297">
        <ele>170</ele>
        <time>2021-05-14T14:55:00Z</time>
      </trkpt>
      <trkpt lat="43.6363" lon="3.73301">
        <ele>170</ele>
        <time>2021-05-14T14:55:01Z</time>
      </trkpt>
      <trkpt lat="43.6363" lon="3.73305">
        <ele>170</ele>
        <time>2021-05-14T14:55:02Z</time>
      </trkpt>
      <trkpt lat="43.63631" lon="3.73309">
        <ele>170</ele>
        <time>2021-05-14T14:55:03Z</time>
      </trkpt>
      <trkpt lat="43.63633" lon="3.73315">
        <ele>170</ele>
        <time>2021-05-14T14:55:04Z</time>
      </trkpt>
      <trkpt lat="43.63634" lon="3.73323">
        <ele>170</ele>
        <time>2021-05-14T14:55:05Z</time>
      </trkpt>
      <trkpt lat="43.63635" lon="3.73333">
        <ele>170</ele>
        <time>2021-05-14T14:55:06Z</time>
      </trkpt>
      <trkpt lat="43.63637" lon="3.73344">
        <ele>170</ele>
        <time>2021-05-14T14:55:07Z</time>
      </trkpt>
      <trkpt lat="43.6364" lon="3.73353">
        <ele>170</ele>
        <time>2021-05-14T14:55:08Z</time>
      </trkpt>
      <trkpt lat="43.63642" lon="3.73361">
        <ele>170</ele>
        <time>2021-05-14T14:55:10Z</time>
      </trkpt>
      <trkpt lat="43.63643" lon="3.73368">
        <ele>170</ele>
        <time>2021-05-14T14:55:11Z</time>
      </trkpt>
      <trkpt lat="43.63644" lon="3.73373">
        <ele>170</ele>
        <time>2021-05-14T14:55:12Z</time>
      </trkpt>
      <trkpt lat="43.63646" lon="3.73377">
        <ele>170</ele>
        <time>2021-05-14T14:55:13Z</time>
      </trkpt>
      <trkpt lat="43.63647" lon="3.73381">
        <ele>170</ele>
        <time>2021-05-14T14:55:14Z</time>
      </trkpt>
      <trkpt lat="43.63647" lon="3.73386">
        <ele>170</ele>
        <time>2021-05-14T14:55:15Z</time>
      </trkpt>
      <trkpt lat="43.63648" lon="3.7339">
        <ele>170</ele>
        <time>2021-05-14T14:55:16Z</time>
      </trkpt>
      <trkpt lat="43.63648" lon="3.73395">
        <ele>170</ele>
        <time>2021-05-14T14:55:17Z</time>
      </trkpt>
      <trkpt lat="43.63649" lon="3.73401">
        <ele>170</ele>
        <time>2021-05-14T14:55:18Z</time>
      </trkpt>
      <trkpt lat="43.63649" lon="3.73406">
        <ele>170</ele>
        <time>2021-05-14T14:55:19Z</time>
      </trkpt>
      <trkpt lat="43.63649" lon="3.73411">
        <ele>170</ele>
        <time>2021-05-14T14:55:20Z</time>
      </trkpt>
      <trkpt lat="43.63649" lon="3.73417">
        <ele>170</ele>
        <time>2021-05-14T14:55:21Z</time>
      </trkpt>
      <trkpt lat="43.6365" lon="3.73422">
        <ele>170</ele>
        <time>2021-05-14T14:55:22Z</time>
      </trkpt>
      <trkpt lat="43.6365" lon="3.73428">
        <ele>170</ele>
        <time>2021-05-14T14:55:23Z</time>
      </trkpt>
      <trkpt lat="43.6365" lon="3.73435">
        <ele>170</ele>
        <time>2021-05-14T14:55:24Z</time>
      </trkpt>
      <trkpt lat="43.63651" lon="3.73442">
        <ele>170</ele>
        <time>2021-05-14T14:55:25Z</time>
      </trkpt>
      <trkpt lat="43.63651" lon="3.73449">
        <ele>170</ele>
        <time>2021-05-14T14:55:26Z</time>
      </trkpt>
      <trkpt lat="43.63652" lon="3.73456">
        <ele>170</ele>
        <time>2021-05-14T14:55:27Z</time>
      </trkpt>
      <trkpt lat="43.63653" lon="3.73462">
        <ele>170</ele>
        <time>2021-05-14T14:55:28Z</time>
      </trkpt>
      <trkpt lat="43.63654" lon="3.73468">
        <ele>170</ele>
        <time>2021-05-14T14:55:29Z</time>
      </trkpt>
      <trkpt lat="43.63654" lon="3.73473">
        <ele>170</ele>
        <time>2021-05-14T14:55:30Z</time>
      </trkpt>
      <trkpt lat="43.63654" lon="3.73478">
        <ele>170</ele>
        <time>2021-05-14T14:55:31Z</time>
      </trkpt>
      <trkpt lat="43.63654" lon="3.73482">
        <ele>170</ele>
        <time>2021-05-14T14:55:32Z</time>
      </trkpt>
      <trkpt lat="43.63655" lon="3.73486">
        <ele>170</ele>
        <time>2021-05-14T14:55:33Z</time>
      </trkpt>
      <trkpt lat="43.63655" lon="3.7349">
        <ele>170</ele>
        <time>2021-05-14T14:55:34Z</time>
      </trkpt>
      <trkpt lat="43.63656" lon="3.73494">
        <ele>170</ele>
        <time>2021-05-14T14:55:35Z</time>
      </trkpt>
      <trkpt lat="43.63658" lon="3.73499">
        <ele>170</ele>
        <time>2021-05-14T14:55:36Z</time>
      </trkpt>
      <trkpt lat="43.63659" lon="3.73504">
        <ele>170</ele>
        <time>2021-05-14T14:55:37Z</time>
      </trkpt>
      <trkpt lat="43.6366" lon="3.7351">
        <ele>170</ele>
        <time>2021-05-14T14:55:38Z</time>
      </trkpt>
      <trkpt lat="43.6366" lon="3.7352">
        <ele>171</ele>
        <time>2021-05-14T14:55:39Z</time>
      </trkpt>
      <trkpt lat="43.63661" lon="3.73525">
        <ele>171</ele>
        <time>2021-05-14T14:55:40Z</time>
      </trkpt>
      <trkpt lat="43.63662" lon="3.7353">
        <ele>171</ele>
        <time>2021-05-14T14:55:41Z</time>
      </trkpt>
      <trkpt lat="43.63663" lon="3.73537">
        <ele>171</ele>
        <time>2021-05-14T14:55:42Z</time>
      </trkpt>
      <trkpt lat="43.63664" lon="3.73544">
        <ele>171</ele>
        <time>2021-05-14T14:55:43Z</time>
      </trkpt>
      <trkpt lat="43.63665" lon="3.7355">
        <ele>171</ele>
        <time>2021-05-14T14:55:44Z</time>
      </trkpt>
      <trkpt lat="43.63666" lon="3.73556">
        <ele>171</ele>
        <time>2021-05-14T14:55:45Z</time>
      </trkpt>
      <trkpt lat="43.63667" lon="3.73562">
        <ele>171</ele>
        <time>2021-05-14T14:55:46Z</time>
      </trkpt>
      <trkpt lat="43.63667" lon="3.73569">
        <ele>171</ele>
        <time>2021-05-14T14:55:47Z</time>
      </trkpt>
      <trkpt lat="43.63668" lon="3.73576">
        <ele>171</ele>
        <time>2021-05-14T14:55:48Z</time>
      </trkpt>
      <trkpt lat="43.63668" lon="3.73583">
        <ele>171</ele>
        <time>2021-05-14T14:55:50Z</time>
      </trkpt>
      <trkpt lat="43.63669" lon="3.7359">
        <ele>171</ele>
        <time>2021-05-14T14:55:51Z</time>
      </trkpt>
      <trkpt lat="43.6367" lon="3.73596">
        <ele>171</ele>
        <time>2021-05-14T14:55:52Z</time>
      </trkpt>
      <trkpt lat="43.63671" lon="3.73602">
        <ele>171</ele>
        <time>2021-05-14T14:55:53Z</time>
      </trkpt>
      <trkpt lat="43.63673" lon="3.73608">
        <ele>171</ele>
        <time>2021-05-14T14:55:54Z</time>
      </trkpt>
      <trkpt lat="43.63675" lon="3.73619">
        <ele>171</ele>
        <time>2021-05-14T14:55:55Z</time>
      </trkpt>
      <trkpt lat="43.63676" lon="3.73623">
        <ele>171</ele>
        <time>2021-05-14T14:55:57Z</time>
      </trkpt>
      <trkpt lat="43.63676" lon="3.73628">
        <ele>171</ele>
        <time>2021-05-14T14:55:58Z</time>
      </trkpt>
      <trkpt lat="43.63677" lon="3.73633">
        <ele>172</ele>
        <time>2021-05-14T14:55:59Z</time>
      </trkpt>
      <trkpt lat="43.63678" lon="3.73637">
        <ele>172</ele>
        <time>2021-05-14T14:56:00Z</time>
      </trkpt>
      <trkpt lat="43.63679" lon="3.73642">
        <ele>172</ele>
        <time>2021-05-14T14:56:01Z</time>
      </trkpt>
      <trkpt lat="43.6368" lon="3.73647">
        <ele>172</ele>
        <time>2021-05-14T14:56:02Z</time>
      </trkpt>
      <trkpt lat="43.63681" lon="3.73652">
        <ele>172</ele>
        <time>2021-05-14T14:56:03Z</time>
      </trkpt>
      <trkpt lat="43.63682" lon="3.73657">
        <ele>172</ele>
        <time>2021-05-14T14:56:04Z</time>
      </trkpt>
      <trkpt lat="43.63682" lon="3.73662">
        <ele>172</ele>
        <time>2021-05-14T14:56:05Z</time>
      </trkpt>
      <trkpt lat="43.63683" lon="3.73667">
        <ele>172</ele>
        <time>2021-05-14T14:56:06Z</time>
      </trkpt>
      <trkpt lat="43.63684" lon="3.73673">
        <ele>172</ele>
        <time>2021-05-14T14:56:07Z</time>
      </trkpt>
      <trkpt lat="43.63686" lon="3.73678">
        <ele>172</ele>
        <time>2021-05-14T14:56:08Z</time>
      </trkpt>
      <trkpt lat="43.63687" lon="3.73683">
        <ele>172</ele>
        <time>2021-05-14T14:56:09Z</time>
      </trkpt>
      <trkpt lat="43.63689" lon="3.73689">
        <ele>172</ele>
        <time>2021-05-14T14:56:10Z</time>
      </trkpt>
      <trkpt lat="43.6369" lon="3.73695">
        <ele>172</ele>
        <time>2021-05-14T14:56:11Z</time>
      </trkpt>
      <trkpt lat="43.63692" lon="3.73702">
        <ele>172</ele>
        <time>2021-05-14T14:56:12Z</time>
      </trkpt>
      <trkpt lat="43.63694" lon="3.7371">
        <ele>172</ele>
        <time>2021-05-14T14:56:13Z</time>
      </trkpt>
      <trkpt lat="43.63695" lon="3.73718">
        <ele>172</ele>
        <time>2021-05-14T14:56:14Z</time>
      </trkpt>
      <trkpt lat="43.63697" lon="3.73725">
        <ele>172</ele>
        <time>2021-05-14T14:56:15Z</time>
      </trkpt>
      <trkpt lat="43.63698" lon="3.73732">
        <ele>172</ele>
        <time>2021-05-14T14:56:16Z</time>
      </trkpt>
      <trkpt lat="43.63699" lon="3.73738">
        <ele>172</ele>
        <time>2021-05-14T14:56:17Z</time>
      </trkpt>
      <trkpt lat="43.637" lon="3.73746">
        <ele>172</ele>
        <time>2021-05-14T14:56:18Z</time>
      </trkpt>
      <trkpt lat="43.63699" lon="3.73753">
        <ele>171</ele>
        <time>2021-05-14T14:56:19Z</time>
      </trkpt>
      <trkpt lat="43.63699" lon="3.73759">
        <ele>171</ele>
        <time>2021-05-14T14:56:20Z</time>
      </trkpt>
      <trkpt lat="43.63699" lon="3.73766">
        <ele>171</ele>
        <time>2021-05-14T14:56:21Z</time>
      </trkpt>
      <trkpt lat="43.63699" lon="3.73774">
        <ele>171</ele>
        <time>2021-05-14T14:56:22Z</time>
      </trkpt>
      <trkpt lat="43.63699" lon="3.73783">
        <ele>171</ele>
        <time>2021-05-14T14:56:23Z</time>
      </trkpt>
      <trkpt lat="43.637" lon="3.73791">
        <ele>171</ele>
        <time>2021-05-14T14:56:24Z</time>
      </trkpt>
      <trkpt lat="43.637" lon="3.73798">
        <ele>171</ele>
        <time>2021-05-14T14:56:25Z</time>
      </trkpt>
      <trkpt lat="43.63701" lon="3.73805">
        <ele>171</ele>
        <time>2021-05-14T14:56:26Z</time>
      </trkpt>
      <trkpt lat="43.63701" lon="3.73811">
        <ele>171</ele>
        <time>2021-05-14T14:56:27Z</time>
      </trkpt>
      <trkpt lat="43.63701" lon="3.73816">
        <ele>171</ele>
        <time>2021-05-14T14:56:28Z</time>
      </trkpt>
      <trkpt lat="43.63702" lon="3.73822">
        <ele>170</ele>
        <time>2021-05-14T14:56:29Z</time>
      </trkpt>
      <trkpt lat="43.63703" lon="3.73827">
        <ele>170</ele>
        <time>2021-05-14T14:56:30Z</time>
      </trkpt>
      <trkpt lat="43.63705" lon="3.73834">
        <ele>170</ele>
        <time>2021-05-14T14:56:31Z</time>
      </trkpt>
      <trkpt lat="43.63707" lon="3.73842">
        <ele>170</ele>
        <time>2021-05-14T14:56:32Z</time>
      </trkpt>
      <trkpt lat="43.63708" lon="3.73851">
        <ele>170</ele>
        <time>2021-05-14T14:56:33Z</time>
      </trkpt>
      <trkpt lat="43.63708" lon="3.7386">
        <ele>170</ele>
        <time>2021-05-14T14:56:34Z</time>
      </trkpt>
      <trkpt lat="43.63708" lon="3.73867">
        <ele>170</ele>
        <time>2021-05-14T14:56:35Z</time>
      </trkpt>
      <trkpt lat="43.63708" lon="3.73874">
        <ele>170</ele>
        <time>2021-05-14T14:56:36Z</time>
      </trkpt>
      <trkpt lat="43.63708" lon="3.73879">
        <ele>170</ele>
        <time>2021-05-14T14:56:37Z</time>
      </trkpt>
      <trkpt lat="43.63708" lon="3.73885">
        <ele>170</ele>
        <time>2021-05-14T14:56:38Z</time>
      </trkpt>
      <trkpt lat="43.63708" lon="3.7389">
        <ele>168</ele>
        <time>2021-05-14T14:56:39Z</time>
      </trkpt>
      <trkpt lat="43.63707" lon="3.73895">
        <ele>168</ele>
        <time>2021-05-14T14:56:40Z</time>
      </trkpt>
      <trkpt lat="43.63707" lon="3.73902">
        <ele>168</ele>
        <time>2021-05-14T14:56:41Z</time>
      </trkpt>
      <trkpt lat="43.63707" lon="3.73909">
        <ele>168</ele>
        <time>2021-05-14T14:56:42Z</time>
      </trkpt>
      <trkpt lat="43.63707" lon="3.73915">
        <ele>168</ele>
        <time>2021-05-14T14:56:43Z</time>
      </trkpt>
      <trkpt lat="43.63707" lon="3.7392">
        <ele>168</ele>
        <time>2021-05-14T14:56:44Z</time>
      </trkpt>
      <trkpt lat="43.63706" lon="3.73925">
        <ele>168</ele>
        <time>2021-05-14T14:56:45Z</time>
      </trkpt>
      <trkpt lat="43.63706" lon="3.7393">
        <ele>168</ele>
        <time>2021-05-14T14:56:46Z</time>
      </trkpt>
      <trkpt lat="43.63706" lon="3.73935">
        <ele>168</ele>
        <time>2021-05-14T14:56:47Z</time>
      </trkpt>
      <trkpt lat="43.63706" lon="3.7394">
        <ele>168</ele>
        <time>2021-05-14T14:56:48Z</time>
      </trkpt>
      <trkpt lat="43.63707" lon="3.73946">
        <ele>167</ele>
        <time>2021-05-14T14:56:49Z</time>
      </trkpt>
      <trkpt lat="43.63709" lon="3.73952">
        <ele>167</ele>
        <time>2021-05-14T14:56:50Z</time>
      </trkpt>
      <trkpt lat="43.6371" lon="3.73959">
        <ele>167</ele>
        <time>2021-05-14T14:56:51Z</time>
      </trkpt>
      <trkpt lat="43.6371" lon="3.73966">
        <ele>167</ele>
        <time>2021-05-14T14:56:52Z</time>
      </trkpt>
      <trkpt lat="43.6371" lon="3.73974">
        <ele>167</ele>
        <time>2021-05-14T14:56:53Z</time>
      </trkpt>
      <trkpt lat="43.63711" lon="3.73981">
        <ele>167</ele>
        <time>2021-05-14T14:56:54Z</time>
      </trkpt>
      <trkpt lat="43.63712" lon="3.73988">
        <ele>167</ele>
        <time>2021-05-14T14:56:55Z</time>
      </trkpt>
      <trkpt lat="43.63713" lon="3.73994">
        <ele>167</ele>
        <time>2021-05-14T14:56:56Z</time>
      </trkpt>
      <trkpt lat="43.63716" lon="3.74">
        <ele>167</ele>
        <time>2021-05-14T14:56:57Z</time>
      </trkpt>
      <trkpt lat="43.63717" lon="3.74005">
        <ele>167</ele>
        <time>2021-05-14T14:56:58Z</time>
      </trkpt>
      <trkpt lat="43.63719" lon="3.74011">
        <ele>165</ele>
        <time>2021-05-14T14:56:59Z</time>
      </trkpt>
      <trkpt lat="43.63719" lon="3.74017">
        <ele>165</ele>
        <time>2021-05-14T14:57:00Z</time>
      </trkpt>
      <trkpt lat="43.63719" lon="3.74023">
        <ele>165</ele>
        <time>2021-05-14T14:57:01Z</time>
      </trkpt>
      <trkpt lat="43.63718" lon="3.74028">
        <ele>165</ele>
        <time>2021-05-14T14:57:02Z</time>
      </trkpt>
      <trkpt lat="43.63717" lon="3.74034">
        <ele>165</ele>
        <time>2021-05-14T14:57:03Z</time>
      </trkpt>
      <trkpt lat="43.63715" lon="3.74039">
        <ele>165</ele>
        <time>2021-05-14T14:57:04Z</time>
      </trkpt>
      <trkpt lat="43.63714" lon="3.74044">
        <ele>165</ele>
        <time>2021-05-14T14:57:05Z</time>
      </trkpt>
      <trkpt lat="43.63713" lon="3.74049">
        <ele>165</ele>
        <time>2021-05-14T14:57:06Z</time>
      </trkpt>
      <trkpt lat="43.63712" lon="3.74054">
        <ele>165</ele>
        <time>2021-05-14T14:57:07Z</time>
      </trkpt>
      <trkpt lat="43.63713" lon="3.7406">
        <ele>165</ele>
        <time>2021-05-14T14:57:08Z</time>
      </trkpt>
      <trkpt lat="43.63714" lon="3.74066">
        <ele>164</ele>
        <time>2021-05-14T14:57:09Z</time>
      </trkpt>
      <trkpt lat="43.63715" lon="3.74073">
        <ele>164</ele>
        <time>2021-05-14T14:57:10Z</time>
      </trkpt>
      <trkpt lat="43.63715" lon="3.74082">
        <ele>164</ele>
        <time>2021-05-14T14:57:11Z</time>
      </trkpt>
      <trkpt lat="43.63714" lon="3.74091">
        <ele>164</ele>
        <time>2021-05-14T14:57:12Z</time>
      </trkpt>
      <trkpt lat="43.63714" lon="3.741">
        <ele>164</ele>
        <time>2021-05-14T14:57:13Z</time>
      </trkpt>
      <trkpt lat="43.63715" lon="3.74107">
        <ele>164</ele>
        <time>2021-05-14T14:57:14Z</time>
      </trkpt>
      <trkpt lat="43.63715" lon="3.74115">
        <ele>164</ele>
        <time>2021-05-14T14:57:15Z</time>
      </trkpt>
      <trkpt lat="43.63716" lon="3.74123">
        <ele>164</ele>
        <time>2021-05-14T14:57:16Z</time>
      </trkpt>
      <trkpt lat="43.63716" lon="3.74129">
        <ele>164</ele>
        <time>2021-05-14T14:57:17Z</time>
      </trkpt>
      <trkpt lat="43.63716" lon="3.74135">
        <ele>164</ele>
        <time>2021-05-14T14:57:18Z</time>
      </trkpt>
      <trkpt lat="43.63714" lon="3.74141">
        <ele>163</ele>
        <time>2021-05-14T14:57:19Z</time>
      </trkpt>
      <trkpt lat="43.63712" lon="3.74146">
        <ele>163</ele>
        <time>2021-05-14T14:57:20Z</time>
      </trkpt>
      <trkpt lat="43.63711" lon="3.74149">
        <ele>163</ele>
        <time>2021-05-14T14:57:21Z</time>
      </trkpt>
      <trkpt lat="43.63711" lon="3.74153">
        <ele>163</ele>
        <time>2021-05-14T14:57:22Z</time>
      </trkpt>
      <trkpt lat="43.6371" lon="3.74156">
        <ele>163</ele>
        <time>2021-05-14T14:57:23Z</time>
      </trkpt>
      <trkpt lat="43.6371" lon="3.74159">
        <ele>163</ele>
        <time>2021-05-14T14:57:24Z</time>
      </trkpt>
      <trkpt lat="43.6371" lon="3.74162">
        <ele>163</ele>
        <time>2021-05-14T14:57:25Z</time>
      </trkpt>
      <trkpt lat="43.6371" lon="3.74166">
        <ele>163</ele>
        <time>2021-05-14T14:57:26Z</time>
      </trkpt>
      <trkpt lat="43.63711" lon="3.7417">
        <ele>163</ele>
        <time>2021-05-14T14:57:27Z</time>
      </trkpt>
      <trkpt lat="43.63711" lon="3.74173">
        <ele>163</ele>
        <time>2021-05-14T14:57:28Z</time>
      </trkpt>
      <trkpt lat="43.63711" lon="3.74176">
        <ele>164</ele>
        <time>2021-05-14T14:57:29Z</time>
      </trkpt>
      <trkpt lat="43.63712" lon="3.7418">
        <ele>164</ele>
        <time>2021-05-14T14:57:30Z</time>
      </trkpt>
      <trkpt lat="43.63713" lon="3.74184">
        <ele>164</ele>
        <time>2021-05-14T14:57:31Z</time>
      </trkpt>
      <trkpt lat="43.63714" lon="3.74188">
        <ele>164</ele>
        <time>2021-05-14T14:57:32Z</time>
      </trkpt>
      <trkpt lat="43.63716" lon="3.74193">
        <ele>164</ele>
        <time>2021-05-14T14:57:33Z</time>
      </trkpt>
      <trkpt lat="43.63719" lon="3.74197">
        <ele>164</ele>
        <time>2021-05-14T14:57:34Z</time>
      </trkpt>
      <trkpt lat="43.63722" lon="3.74202">
        <ele>164</ele>
        <time>2021-05-14T14:57:35Z</time>
      </trkpt>
      <trkpt lat="43.63725" lon="3.74207">
        <ele>164</ele>
        <time>2021-05-14T14:57:36Z</time>
      </trkpt>
      <trkpt lat="43.63728" lon="3.74213">
        <ele>164</ele>
        <time>2021-05-14T14:57:37Z</time>
      </trkpt>
      <trkpt lat="43.6373" lon="3.74219">
        <ele>164</ele>
        <time>2021-05-14T14:57:38Z</time>
      </trkpt>
      <trkpt lat="43.63731" lon="3.74224">
        <ele>164</ele>
        <time>2021-05-14T14:57:39Z</time>
      </trkpt>
      <trkpt lat="43.63732" lon="3.74229">
        <ele>164</ele>
        <time>2021-05-14T14:57:40Z</time>
      </trkpt>
      <trkpt lat="43.63733" lon="3.74234">
        <ele>164</ele>
        <time>2021-05-14T14:57:41Z</time>
      </trkpt>
      <trkpt lat="43.63733" lon="3.74238">
        <ele>164</ele>
        <time>2021-05-14T14:57:42Z</time>
      </trkpt>
      <trkpt lat="43.63733" lon="3.74241">
        <ele>164</ele>
        <time>2021-05-14T14:57:43Z</time>
      </trkpt>
      <trkpt lat="43.63733" lon="3.74244">
        <ele>164</ele>
        <time>2021-05-14T14:57:44Z</time>
      </trkpt>
      <trkpt lat="43.63733" lon="3.74247">
        <ele>164</ele>
        <time>2021-05-14T14:57:45Z</time>
      </trkpt>
      <trkpt lat="43.63733" lon="3.7425">
        <ele>164</ele>
        <time>2021-05-14T14:57:46Z</time>
      </trkpt>
      <trkpt lat="43.63733" lon="3.74253">
        <ele>164</ele>
        <time>2021-05-14T14:57:47Z</time>
      </trkpt>
      <trkpt lat="43.63733" lon="3.74256">
        <ele>164</ele>
        <time>2021-05-14T14:57:48Z</time>
      </trkpt>
      <trkpt lat="43.63733" lon="3.74258">
        <ele>166</ele>
        <time>2021-05-14T14:57:49Z</time>
      </trkpt>
      <trkpt lat="43.63735" lon="3.74261">
        <ele>166</ele>
        <time>2021-05-14T14:57:50Z</time>
      </trkpt>
      <trkpt lat="43.63736" lon="3.74263">
        <ele>166</ele>
        <time>2021-05-14T14:57:51Z</time>
      </trkpt>
      <trkpt lat="43.63738" lon="3.74266">
        <ele>166</ele>
        <time>2021-05-14T14:57:52Z</time>
      </trkpt>
      <trkpt lat="43.63741" lon="3.7427">
        <ele>166</ele>
        <time>2021-05-14T14:57:53Z</time>
      </trkpt>
      <trkpt lat="43.63743" lon="3.74274">
        <ele>166</ele>
        <time>2021-05-14T14:57:54Z</time>
      </trkpt>
      <trkpt lat="43.63746" lon="3.74278">
        <ele>166</ele>
        <time>2021-05-14T14:57:55Z</time>
      </trkpt>
      <trkpt lat="43.63748" lon="3.74284">
        <ele>166</ele>
        <time>2021-05-14T14:57:56Z</time>
      </trkpt>
      <trkpt lat="43.6375" lon="3.7429">
        <ele>166</ele>
        <time>2021-05-14T14:57:57Z</time>
      </trkpt>
      <trkpt lat="43.63751" lon="3.74297">
        <ele>166</ele>
        <time>2021-05-14T14:57:58Z</time>
      </trkpt>
      <trkpt lat="43.63752" lon="3.74305">
        <ele>164</ele>
        <time>2021-05-14T14:57:59Z</time>
      </trkpt>
      <trkpt lat="43.63752" lon="3.74314">
        <ele>164</ele>
        <time>2021-05-14T14:58:00Z</time>
      </trkpt>
      <trkpt lat="43.63752" lon="3.74323">
        <ele>164</ele>
        <time>2021-05-14T14:58:01Z</time>
      </trkpt>
      <trkpt lat="43.63751" lon="3.74331">
        <ele>164</ele>
        <time>2021-05-14T14:58:02Z</time>
      </trkpt>
      <trkpt lat="43.6375" lon="3.74338">
        <ele>164</ele>
        <time>2021-05-14T14:58:03Z</time>
      </trkpt>
      <trkpt lat="43.6375" lon="3.74343">
        <ele>164</ele>
        <time>2021-05-14T14:58:04Z</time>
      </trkpt>
      <trkpt lat="43.6375" lon="3.74347">
        <ele>164</ele>
        <time>2021-05-14T14:58:05Z</time>
      </trkpt>
      <trkpt lat="43.6375" lon="3.74351">
        <ele>164</ele>
        <time>2021-05-14T14:58:06Z</time>
      </trkpt>
      <trkpt lat="43.6375" lon="3.74354">
        <ele>164</ele>
        <time>2021-05-14T14:58:07Z</time>
      </trkpt>
      <trkpt lat="43.6375" lon="3.74357">
        <ele>164</ele>
        <time>2021-05-14T14:58:08Z</time>
      </trkpt>
      <trkpt lat="43.63751" lon="3.74363">
        <ele>164</ele>
        <time>2021-05-14T14:58:09Z</time>
      </trkpt>
      <trkpt lat="43.63752" lon="3.74365">
        <ele>164</ele>
        <time>2021-05-14T14:58:10Z</time>
      </trkpt>
      <trkpt lat="43.63753" lon="3.74368">
        <ele>164</ele>
        <time>2021-05-14T14:58:11Z</time>
      </trkpt>
      <trkpt lat="43.63755" lon="3.74371">
        <ele>164</ele>
        <time>2021-05-14T14:58:12Z</time>
      </trkpt>
      <trkpt lat="43.63757" lon="3.74377">
        <ele>164</ele>
        <time>2021-05-14T14:58:14Z</time>
      </trkpt>
      <trkpt lat="43.63758" lon="3.74381">
        <ele>164</ele>
        <time>2021-05-14T14:58:15Z</time>
      </trkpt>
      <trkpt lat="43.63759" lon="3.74385">
        <ele>164</ele>
        <time>2021-05-14T14:58:16Z</time>
      </trkpt>
      <trkpt lat="43.6376" lon="3.74388">
        <ele>164</ele>
        <time>2021-05-14T14:58:17Z</time>
      </trkpt>
      <trkpt lat="43.63761" lon="3.74392">
        <ele>164</ele>
        <time>2021-05-14T14:58:18Z</time>
      </trkpt>
      <trkpt lat="43.63764" lon="3.74395">
        <ele>164</ele>
        <time>2021-05-14T14:58:20Z</time>
      </trkpt>
      <trkpt lat="43.63767" lon="3.74398">
        <ele>164</ele>
        <time>2021-05-14T14:58:21Z</time>
      </trkpt>
      <trkpt lat="43.63771" lon="3.74399">
        <ele>164</ele>
        <time>2021-05-14T14:58:22Z</time>
      </trkpt>
      <trkpt lat="43.63776" lon="3.74399">
        <ele>164</ele>
        <time>2021-05-14T14:58:23Z</time>
      </trkpt>
      <trkpt lat="43.63782" lon="3.74398">
        <ele>164</ele>
        <time>2021-05-14T14:58:24Z</time>
      </trkpt>
      <trkpt lat="43.63787" lon="3.74397">
        <ele>164</ele>
        <time>2021-05-14T14:58:25Z</time>
      </trkpt>
      <trkpt lat="43.63793" lon="3.74397">
        <ele>164</ele>
        <time>2021-05-14T14:58:26Z</time>
      </trkpt>
      <trkpt lat="43.638" lon="3.74397">
        <ele>164</ele>
        <time>2021-05-14T14:58:27Z</time>
      </trkpt>
      <trkpt lat="43.63806" lon="3.74397">
        <ele>164</ele>
        <time>2021-05-14T14:58:28Z</time>
      </trkpt>
      <trkpt lat="43.63813" lon="3.74397">
        <ele>163</ele>
        <time>2021-05-14T14:58:29Z</time>
      </trkpt>
      <trkpt lat="43.6382" lon="3.74397">
        <ele>163</ele>
        <time>2021-05-14T14:58:30Z</time>
      </trkpt>
      <trkpt lat="43.63827" lon="3.74396">
        <ele>163</ele>
        <time>2021-05-14T14:58:31Z</time>
      </trkpt>
      <trkpt lat="43.63833" lon="3.74396">
        <ele>163</ele>
        <time>2021-05-14T14:58:32Z</time>
      </trkpt>
      <trkpt lat="43.6384" lon="3.74395">
        <ele>163</ele>
        <time>2021-05-14T14:58:33Z</time>
      </trkpt>
      <trkpt lat="43.63847" lon="3.74395">
        <ele>163</ele>
        <time>2021-05-14T14:58:34Z</time>
      </trkpt>
      <trkpt lat="43.63854" lon="3.74394">
        <ele>163</ele>
        <time>2021-05-14T14:58:35Z</time>
      </trkpt>
      <trkpt lat="43.6386" lon="3.74393">
        <ele>163</ele>
        <time>2021-05-14T14:58:36Z</time>
      </trkpt>
      <trkpt lat="43.63866" lon="3.7439">
        <ele>163</ele>
        <time>2021-05-14T14:58:37Z</time>
      </trkpt>
      <trkpt lat="43.63872" lon="3.74385">
        <ele>163</ele>
        <time>2021-05-14T14:58:38Z</time>
      </trkpt>
      <trkpt lat="43.63876" lon="3.7438">
        <ele>160</ele>
        <time>2021-05-14T14:58:39Z</time>
      </trkpt>
      <trkpt lat="43.63881" lon="3.74375">
        <ele>160</ele>
        <time>2021-05-14T14:58:40Z</time>
      </trkpt>
      <trkpt lat="43.63886" lon="3.74372">
        <ele>160</ele>
        <time>2021-05-14T14:58:41Z</time>
      </trkpt>
      <trkpt lat="43.63892" lon="3.7437">
        <ele>160</ele>
        <time>2021-05-14T14:58:42Z</time>
      </trkpt>
      <trkpt lat="43.63897" lon="3.74367">
        <ele>160</ele>
        <time>2021-05-14T14:58:43Z</time>
      </trkpt>
      <trkpt lat="43.63901" lon="3.74366">
        <ele>160</ele>
        <time>2021-05-14T14:58:44Z</time>
      </trkpt>
      <trkpt lat="43.63904" lon="3.74369">
        <ele>160</ele>
        <time>2021-05-14T14:58:45Z</time>
      </trkpt>
      <trkpt lat="43.63908" lon="3.74374">
        <ele>160</ele>
        <time>2021-05-14T14:58:46Z</time>
      </trkpt>
      <trkpt lat="43.6391" lon="3.74379">
        <ele>160</ele>
        <time>2021-05-14T14:58:47Z</time>
      </trkpt>
      <trkpt lat="43.63911" lon="3.74386">
        <ele>160</ele>
        <time>2021-05-14T14:58:48Z</time>
      </trkpt>
      <trkpt lat="43.63912" lon="3.74393">
        <ele>159</ele>
        <time>2021-05-14T14:58:49Z</time>
      </trkpt>
      <trkpt lat="43.63912" lon="3.74401">
        <ele>159</ele>
        <time>2021-05-14T14:58:50Z</time>
      </trkpt>
      <trkpt lat="43.63911" lon="3.74409">
        <ele>159</ele>
        <time>2021-05-14T14:58:51Z</time>
      </trkpt>
      <trkpt lat="43.6391" lon="3.74417">
        <ele>159</ele>
        <time>2021-05-14T14:58:52Z</time>
      </trkpt>
      <trkpt lat="43.63909" lon="3.74425">
        <ele>159</ele>
        <time>2021-05-14T14:58:53Z</time>
      </trkpt>
      <trkpt lat="43.63908" lon="3.74433">
        <ele>159</ele>
        <time>2021-05-14T14:58:54Z</time>
      </trkpt>
      <trkpt lat="43.63907" lon="3.74439">
        <ele>159</ele>
        <time>2021-05-14T14:58:55Z</time>
      </trkpt>
      <trkpt lat="43.63906" lon="3.74445">
        <ele>159</ele>
        <time>2021-05-14T14:58:56Z</time>
      </trkpt>
      <trkpt lat="43.63906" lon="3.7445">
        <ele>159</ele>
        <time>2021-05-14T14:58:57Z</time>
      </trkpt>
      <trkpt lat="43.63907" lon="3.74455">
        <ele>159</ele>
        <time>2021-05-14T14:58:58Z</time>
      </trkpt>
      <trkpt lat="43.63908" lon="3.74461">
        <ele>156</ele>
        <time>2021-05-14T14:58:59Z</time>
      </trkpt>
      <trkpt lat="43.63908" lon="3.74465">
        <ele>156</ele>
        <time>2021-05-14T14:59:02Z</time>
      </trkpt>
      <trkpt lat="43.63908" lon="3.74469">
        <ele>156</ele>
        <time>2021-05-14T14:59:03Z</time>
      </trkpt>
      <trkpt lat="43.63908" lon="3.74472">
        <ele>156</ele>
        <time>2021-05-14T14:59:04Z</time>
      </trkpt>
      <trkpt lat="43.63908" lon="3.74477">
        <ele>156</ele>
        <time>2021-05-14T14:59:05Z</time>
      </trkpt>
      <trkpt lat="43.63908" lon="3.74481">
        <ele>156</ele>
        <time>2021-05-14T14:59:06Z</time>
      </trkpt>
      <trkpt lat="43.63909" lon="3.74486">
        <ele>156</ele>
        <time>2021-05-14T14:59:07Z</time>
      </trkpt>
      <trkpt lat="43.63909" lon="3.74492">
        <ele>156</ele>
        <time>2021-05-14T14:59:08Z</time>
      </trkpt>
      <trkpt lat="43.63909" lon="3.74498">
        <ele>156</ele>
        <time>2021-05-14T14:59:10Z</time>
      </trkpt>
      <trkpt lat="43.6391" lon="3.74504">
        <ele>156</ele>
        <time>2021-05-14T14:59:11Z</time>
      </trkpt>
      <trkpt lat="43.63911" lon="3.7451">
        <ele>156</ele>
        <time>2021-05-14T14:59:12Z</time>
      </trkpt>
      <trkpt lat="43.63912" lon="3.74516">
        <ele>156</ele>
        <time>2021-05-14T14:59:13Z</time>
      </trkpt>
      <trkpt lat="43.63913" lon="3.74522">
        <ele>156</ele>
        <time>2021-05-14T14:59:14Z</time>
      </trkpt>
      <trkpt lat="43.63915" lon="3.74528">
        <ele>156</ele>
        <time>2021-05-14T14:59:15Z</time>
      </trkpt>
      <trkpt lat="43.63916" lon="3.74534">
        <ele>156</ele>
        <time>2021-05-14T14:59:16Z</time>
      </trkpt>
      <trkpt lat="43.63917" lon="3.7454">
        <ele>156</ele>
        <time>2021-05-14T14:59:17Z</time>
      </trkpt>
      <trkpt lat="43.63919" lon="3.74547">
        <ele>156</ele>
        <time>2021-05-14T14:59:18Z</time>
      </trkpt>
      <trkpt lat="43.63921" lon="3.74553">
        <ele>154</ele>
        <time>2021-05-14T14:59:19Z</time>
      </trkpt>
      <trkpt lat="43.63922" lon="3.74559">
        <ele>154</ele>
        <time>2021-05-14T14:59:20Z</time>
      </trkpt>
      <trkpt lat="43.63924" lon="3.74565">
        <ele>154</ele>
        <time>2021-05-14T14:59:21Z</time>
      </trkpt>
      <trkpt lat="43.63926" lon="3.74572">
        <ele>154</ele>
        <time>2021-05-14T14:59:22Z</time>
      </trkpt>
      <trkpt lat="43.63928" lon="3.74579">
        <ele>154</ele>
        <time>2021-05-14T14:59:23Z</time>
      </trkpt>
      <trkpt lat="43.6393" lon="3.74586">
        <ele>154</ele>
        <time>2021-05-14T14:59:24Z</time>
      </trkpt>
      <trkpt lat="43.63931" lon="3.74594">
        <ele>154</ele>
        <time>2021-05-14T14:59:25Z</time>
      </trkpt>
      <trkpt lat="43.63932" lon="3.74602">
        <ele>154</ele>
        <time>2021-05-14T14:59:26Z</time>
      </trkpt>
      <trkpt lat="43.63933" lon="3.7461">
        <ele>154</ele>
        <time>2021-05-14T14:59:27Z</time>
      </trkpt>
      <trkpt lat="43.63935" lon="3.74618">
        <ele>154</ele>
        <time>2021-05-14T14:59:28Z</time>
      </trkpt>
      <trkpt lat="43.63936" lon="3.74626">
        <ele>154</ele>
        <time>2021-05-14T14:59:29Z</time>
      </trkpt>
      <trkpt lat="43.63938" lon="3.74635">
        <ele>154</ele>
        <time>2021-05-14T14:59:30Z</time>
      </trkpt>
      <trkpt lat="43.63939" lon="3.74643">
        <ele>154</ele>
        <time>2021-05-14T14:59:31Z</time>
      </trkpt>
      <trkpt lat="43.6394" lon="3.74651">
        <ele>154</ele>
        <time>2021-05-14T14:59:32Z</time>
      </trkpt>
      <trkpt lat="43.63941" lon="3.74659">
        <ele>154</ele>
        <time>2021-05-14T14:59:33Z</time>
      </trkpt>
      <trkpt lat="43.63943" lon="3.74667">
        <ele>154</ele>
        <time>2021-05-14T14:59:34Z</time>
      </trkpt>
      <trkpt lat="43.63944" lon="3.74675">
        <ele>154</ele>
        <time>2021-05-14T14:59:35Z</time>
      </trkpt>
      <trkpt lat="43.63944" lon="3.74682">
        <ele>154</ele>
        <time>2021-05-14T14:59:36Z</time>
      </trkpt>
      <trkpt lat="43.63945" lon="3.7469">
        <ele>154</ele>
        <time>2021-05-14T14:59:37Z</time>
      </trkpt>
      <trkpt lat="43.63945" lon="3.74697">
        <ele>154</ele>
        <time>2021-05-14T14:59:38Z</time>
      </trkpt>
      <trkpt lat="43.63945" lon="3.74704">
        <ele>153</ele>
        <time>2021-05-14T14:59:39Z</time>
      </trkpt>
      <trkpt lat="43.63946" lon="3.7471">
        <ele>153</ele>
        <time>2021-05-14T14:59:40Z</time>
      </trkpt>
      <trkpt lat="43.63946" lon="3.74717">
        <ele>153</ele>
        <time>2021-05-14T14:59:41Z</time>
      </trkpt>
      <trkpt lat="43.63947" lon="3.74723">
        <ele>153</ele>
        <time>2021-05-14T14:59:42Z</time>
      </trkpt>
      <trkpt lat="43.63948" lon="3.7473">
        <ele>153</ele>
        <time>2021-05-14T14:59:43Z</time>
      </trkpt>
      <trkpt lat="43.6395" lon="3.74736">
        <ele>153</ele>
        <time>2021-05-14T14:59:44Z</time>
      </trkpt>
      <trkpt lat="43.63951" lon="3.74742">
        <ele>153</ele>
        <time>2021-05-14T14:59:45Z</time>
      </trkpt>
      <trkpt lat="43.63953" lon="3.74748">
        <ele>153</ele>
        <time>2021-05-14T14:59:46Z</time>
      </trkpt>
      <trkpt lat="43.63954" lon="3.74755">
        <ele>153</ele>
        <time>2021-05-14T14:59:47Z</time>
      </trkpt>
      <trkpt lat="43.63956" lon="3.74761">
        <ele>153</ele>
        <time>2021-05-14T14:59:48Z</time>
      </trkpt>
      <trkpt lat="43.63957" lon="3.74767">
        <ele>153</ele>
        <time>2021-05-14T14:59:49Z</time>
      </trkpt>
      <trkpt lat="43.63958" lon="3.74773">
        <ele>153</ele>
        <time>2021-05-14T14:59:50Z</time>
      </trkpt>
      <trkpt lat="43.63958" lon="3.74779">
        <ele>153</ele>
        <time>2021-05-14T14:59:51Z</time>
      </trkpt>
      <trkpt lat="43.63959" lon="3.74785">
        <ele>153</ele>
        <time>2021-05-14T14:59:52Z</time>
      </trkpt>
      <trkpt lat="43.63959" lon="3.7479">
        <ele>153</ele>
        <time>2021-05-14T14:59:53Z</time>
      </trkpt>
      <trkpt lat="43.6396" lon="3.74795">
        <ele>153</ele>
        <time>2021-05-14T14:59:54Z</time>
      </trkpt>
      <trkpt lat="43.63961" lon="3.748">
        <ele>153</ele>
        <time>2021-05-14T14:59:55Z</time>
      </trkpt>
      <trkpt lat="43.63961" lon="3.74804">
        <ele>153</ele>
        <time>2021-05-14T14:59:56Z</time>
      </trkpt>
      <trkpt lat="43.63962" lon="3.74807">
        <ele>153</ele>
        <time>2021-05-14T14:59:57Z</time>
      </trkpt>
      <trkpt lat="43.63962" lon="3.7481">
        <ele>153</ele>
        <time>2021-05-14T14:59:58Z</time>
      </trkpt>
      <trkpt lat="43.63964" lon="3.74814">
        <ele>153</ele>
        <time>2021-05-14T14:59:59Z</time>
      </trkpt>
      <trkpt lat="43.63965" lon="3.74817">
        <ele>153</ele>
        <time>2021-05-14T15:00:00Z</time>
      </trkpt>
      <trkpt lat="43.63965" lon="3.7482">
        <ele>153</ele>
        <time>2021-05-14T15:00:01Z</time>
      </trkpt>
      <trkpt lat="43.63966" lon="3.74823">
        <ele>153</ele>
        <time>2021-05-14T15:00:02Z</time>
      </trkpt>
      <trkpt lat="43.63967" lon="3.74827">
        <ele>153</ele>
        <time>2021-05-14T15:00:03Z</time>
      </trkpt>
      <trkpt lat="43.63968" lon="3.74831">
        <ele>153</ele>
        <time>2021-05-14T15:00:04Z</time>
      </trkpt>
      <trkpt lat="43.63969" lon="3.74837">
        <ele>153</ele>
        <time>2021-05-14T15:00:05Z</time>
      </trkpt>
      <trkpt lat="43.63971" lon="3.74843">
        <ele>153</ele>
        <time>2021-05-14T15:00:06Z</time>
      </trkpt>
      <trkpt lat="43.63971" lon="3.74849">
        <ele>153</ele>
        <time>2021-05-14T15:00:07Z</time>
      </trkpt>
      <trkpt lat="43.6397" lon="3.74855">
        <ele>153</ele>
        <time>2021-05-14T15:00:08Z</time>
      </trkpt>
      <trkpt lat="43.6397" lon="3.74861">
        <ele>153</ele>
        <time>2021-05-14T15:00:10Z</time>
      </trkpt>
      <trkpt lat="43.6397" lon="3.74866">
        <ele>153</ele>
        <time>2021-05-14T15:00:11Z</time>
      </trkpt>
      <trkpt lat="43.6397" lon="3.74871">
        <ele>153</ele>
        <time>2021-05-14T15:00:12Z</time>
      </trkpt>
      <trkpt lat="43.63969" lon="3.74876">
        <ele>153</ele>
        <time>2021-05-14T15:00:13Z</time>
      </trkpt>
      <trkpt lat="43.63969" lon="3.74881">
        <ele>153</ele>
        <time>2021-05-14T15:00:14Z</time>
      </trkpt>
      <trkpt lat="43.63969" lon="3.74885">
        <ele>153</ele>
        <time>2021-05-14T15:00:15Z</time>
      </trkpt>
      <trkpt lat="43.63968" lon="3.74889">
        <ele>153</ele>
        <time>2021-05-14T15:00:16Z</time>
      </trkpt>
      <trkpt lat="43.63967" lon="3.74893">
        <ele>153</ele>
        <time>2021-05-14T15:00:17Z</time>
      </trkpt>
      <trkpt lat="43.63967" lon="3.74897">
        <ele>153</ele>
        <time>2021-05-14T15:00:18Z</time>
      </trkpt>
      <trkpt lat="43.63966" lon="3.74902">
        <ele>154</ele>
        <time>2021-05-14T15:00:19Z</time>
      </trkpt>
      <trkpt lat="43.63966" lon="3.74906">
        <ele>154</ele>
        <time>2021-05-14T15:00:20Z</time>
      </trkpt>
      <trkpt lat="43.63966" lon="3.7491">
        <ele>154</ele>
        <time>2021-05-14T15:00:21Z</time>
      </trkpt>
      <trkpt lat="43.63967" lon="3.74915">
        <ele>154</ele>
        <time>2021-05-14T15:00:22Z</time>
      </trkpt>
      <trkpt lat="43.63967" lon="3.74919">
        <ele>154</ele>
        <time>2021-05-14T15:00:23Z</time>
      </trkpt>
      <trkpt lat="43.63966" lon="3.74923">
        <ele>154</ele>
        <time>2021-05-14T15:00:24Z</time>
      </trkpt>
      <trkpt lat="43.63966" lon="3.74928">
        <ele>154</ele>
        <time>2021-05-14T15:00:25Z</time>
      </trkpt>
      <trkpt lat="43.63967" lon="3.74934">
        <ele>154</ele>
        <time>2021-05-14T15:00:26Z</time>
      </trkpt>
      <trkpt lat="43.63967" lon="3.74939">
        <ele>154</ele>
        <time>2021-05-14T15:00:27Z</time>
      </trkpt>
      <trkpt lat="43.63968" lon="3.74945">
        <ele>154</ele>
        <time>2021-05-14T15:00:28Z</time>
      </trkpt>
      <trkpt lat="43.63969" lon="3.7495">
        <ele>154</ele>
        <time>2021-05-14T15:00:29Z</time>
      </trkpt>
      <trkpt lat="43.6397" lon="3.74954">
        <ele>154</ele>
        <time>2021-05-14T15:00:30Z</time>
      </trkpt>
      <trkpt lat="43.6397" lon="3.74958">
        <ele>154</ele>
        <time>2021-05-14T15:00:31Z</time>
      </trkpt>
      <trkpt lat="43.63971" lon="3.74962">
        <ele>154</ele>
        <time>2021-05-14T15:00:33Z</time>
      </trkpt>
      <trkpt lat="43.63972" lon="3.74963">
        <ele>154</ele>
        <time>2021-05-14T15:00:35Z</time>
      </trkpt>
      <trkpt lat="43.63974" lon="3.74968">
        <ele>154</ele>
        <time>2021-05-14T15:00:37Z</time>
      </trkpt>
      <trkpt lat="43.63972" lon="3.74971">
        <ele>154</ele>
        <time>2021-05-14T15:00:38Z</time>
      </trkpt>
      <trkpt lat="43.6397" lon="3.74974">
        <ele>154</ele>
        <time>2021-05-14T15:00:39Z</time>
      </trkpt>
      <trkpt lat="43.63968" lon="3.74977">
        <ele>154</ele>
        <time>2021-05-14T15:00:40Z</time>
      </trkpt>
      <trkpt lat="43.63967" lon="3.74981">
        <ele>154</ele>
        <time>2021-05-14T15:00:41Z</time>
      </trkpt>
      <trkpt lat="43.63966" lon="3.74984">
        <ele>154</ele>
        <time>2021-05-14T15:00:42Z</time>
      </trkpt>
      <trkpt lat="43.63966" lon="3.74987">
        <ele>154</ele>
        <time>2021-05-14T15:00:43Z</time>
      </trkpt>
      <trkpt lat="43.63966" lon="3.7499">
        <ele>154</ele>
        <time>2021-05-14T15:00:44Z</time>
      </trkpt>
      <trkpt lat="43.63966" lon="3.74993">
        <ele>154</ele>
        <time>2021-05-14T15:00:45Z</time>
      </trkpt>
      <trkpt lat="43.63967" lon="3.74997">
        <ele>154</ele>
        <time>2021-05-14T15:00:47Z</time>
      </trkpt>
      <trkpt lat="43.63968" lon="3.74999">
        <ele>154</ele>
        <time>2021-05-14T15:00:53Z</time>
      </trkpt>
      <trkpt lat="43.6397" lon="3.75008">
        <ele>154</ele>
        <time>2021-05-14T15:01:19Z</time>
      </trkpt>
      <trkpt lat="43.63971" lon="3.7501">
        <ele>154</ele>
        <time>2021-05-14T15:01:20Z</time>
      </trkpt>
      <trkpt lat="43.63971" lon="3.75015">
        <ele>154</ele>
        <time>2021-05-14T15:01:22Z</time>
      </trkpt>
      <trkpt lat="43.63972" lon="3.75017">
        <ele>154</ele>
        <time>2021-05-14T15:01:23Z</time>
      </trkpt>
      <trkpt lat="43.63973" lon="3.75022">
        <ele>154</ele>
        <time>2021-05-14T15:01:25Z</time>
      </trkpt>
      <trkpt lat="43.63974" lon="3.75027">
        <ele>154</ele>
        <time>2021-05-14T15:01:27Z</time>
      </trkpt>
      <trkpt lat="43.63974" lon="3.75029">
        <ele>154</ele>
        <time>2021-05-14T15:01:28Z</time>
      </trkpt>
      <trkpt lat="43.63975" lon="3.75032">
        <ele>155</ele>
        <time>2021-05-14T15:01:29Z</time>
      </trkpt>
      <trkpt lat="43.63976" lon="3.75035">
        <ele>155</ele>
        <time>2021-05-14T15:01:30Z</time>
      </trkpt>
      <trkpt lat="43.63976" lon="3.75038">
        <ele>155</ele>
        <time>2021-05-14T15:01:31Z</time>
      </trkpt>
      <trkpt lat="43.63976" lon="3.75042">
        <ele>155</ele>
        <time>2021-05-14T15:01:32Z</time>
      </trkpt>
      <trkpt lat="43.63976" lon="3.75045">
        <ele>155</ele>
        <time>2021-05-14T15:01:33Z</time>
      </trkpt>
      <trkpt lat="43.63975" lon="3.75048">
        <ele>155</ele>
        <time>2021-05-14T15:01:34Z</time>
      </trkpt>
      <trkpt lat="43.63974" lon="3.75051">
        <ele>155</ele>
        <time>2021-05-14T15:01:35Z</time>
      </trkpt>
      <trkpt lat="43.63972" lon="3.75055">
        <ele>155</ele>
        <time>2021-05-14T15:01:36Z</time>
      </trkpt>
      <trkpt lat="43.63971" lon="3.75058">
        <ele>155</ele>
        <time>2021-05-14T15:01:37Z</time>
      </trkpt>
      <trkpt lat="43.63969" lon="3.7506">
        <ele>155</ele>
        <time>2021-05-14T15:01:38Z</time>
      </trkpt>
      <trkpt lat="43.63966" lon="3.75063">
        <ele>156</ele>
        <time>2021-05-14T15:01:39Z</time>
      </trkpt>
      <trkpt lat="43.63964" lon="3.75065">
        <ele>156</ele>
        <time>2021-05-14T15:01:40Z</time>
      </trkpt>
      <trkpt lat="43.63961" lon="3.75067">
        <ele>156</ele>
        <time>2021-05-14T15:01:41Z</time>
      </trkpt>
      <trkpt lat="43.63959" lon="3.7507">
        <ele>156</ele>
        <time>2021-05-14T15:01:42Z</time>
      </trkpt>
      <trkpt lat="43.63956" lon="3.75072">
        <ele>156</ele>
        <time>2021-05-14T15:01:43Z</time>
      </trkpt>
      <trkpt lat="43.63954" lon="3.75075">
        <ele>156</ele>
        <time>2021-05-14T15:01:44Z</time>
      </trkpt>
      <trkpt lat="43.63951" lon="3.75077">
        <ele>156</ele>
        <time>2021-05-14T15:01:45Z</time>
      </trkpt>
      <trkpt lat="43.63948" lon="3.7508">
        <ele>156</ele>
        <time>2021-05-14T15:01:46Z</time>
      </trkpt>
      <trkpt lat="43.63945" lon="3.75083">
        <ele>156</ele>
        <time>2021-05-14T15:01:47Z</time>
      </trkpt>
      <trkpt lat="43.63942" lon="3.75086">
        <ele>156</ele>
        <time>2021-05-14T15:01:48Z</time>
      </trkpt>
      <trkpt lat="43.63939" lon="3.75089">
        <ele>156</ele>
        <time>2021-05-14T15:01:49Z</time>
      </trkpt>
      <trkpt lat="43.63936" lon="3.75093">
        <ele>156</ele>
        <time>2021-05-14T15:01:50Z</time>
      </trkpt>
      <trkpt lat="43.63933" lon="3.75096">
        <ele>156</ele>
        <time>2021-05-14T15:01:51Z</time>
      </trkpt>
      <trkpt lat="43.6393" lon="3.75099">
        <ele>156</ele>
        <time>2021-05-14T15:01:52Z</time>
      </trkpt>
      <trkpt lat="43.63927" lon="3.75102">
        <ele>156</ele>
        <time>2021-05-14T15:01:53Z</time>
      </trkpt>
      <trkpt lat="43.63924" lon="3.75106">
        <ele>156</ele>
        <time>2021-05-14T15:01:54Z</time>
      </trkpt>
      <trkpt lat="43.63921" lon="3.75109">
        <ele>156</ele>
        <time>2021-05-14T15:01:55Z</time>
      </trkpt>
      <trkpt lat="43.63918" lon="3.75113">
        <ele>156</ele>
        <time>2021-05-14T15:01:56Z</time>
      </trkpt>
      <trkpt lat="43.63915" lon="3.75117">
        <ele>156</ele>
        <time>2021-05-14T15:01:57Z</time>
      </trkpt>
      <trkpt lat="43.63912" lon="3.75121">
        <ele>156</ele>
        <time>2021-05-14T15:01:58Z</time>
      </trkpt>
      <trkpt lat="43.63909" lon="3.75124">
        <ele>156</ele>
        <time>2021-05-14T15:01:59Z</time>
      </trkpt>
      <trkpt lat="43.63906" lon="3.75128">
        <ele>156</ele>
        <time>2021-05-14T15:02:00Z</time>
      </trkpt>
      <trkpt lat="43.63903" lon="3.75132">
        <ele>156</ele>
        <time>2021-05-14T15:02:01Z</time>
      </trkpt>
      <trkpt lat="43.63899" lon="3.75136">
        <ele>156</ele>
        <time>2021-05-14T15:02:02Z</time>
      </trkpt>
      <trkpt lat="43.63896" lon="3.7514">
        <ele>156</ele>
        <time>2021-05-14T15:02:03Z</time>
      </trkpt>
      <trkpt lat="43.63892" lon="3.75145">
        <ele>156</ele>
        <time>2021-05-14T15:02:04Z</time>
      </trkpt>
      <trkpt lat="43.63889" lon="3.7515">
        <ele>156</ele>
        <time>2021-05-14T15:02:05Z</time>
      </trkpt>
      <trkpt lat="43.63887" lon="3.75155">
        <ele>156</ele>
        <time>2021-05-14T15:02:06Z</time>
      </trkpt>
      <trkpt lat="43.63885" lon="3.75161">
        <ele>156</ele>
        <time>2021-05-14T15:02:07Z</time>
      </trkpt>
      <trkpt lat="43.63884" lon="3.75168">
        <ele>156</ele>
        <time>2021-05-14T15:02:08Z</time>
      </trkpt>
      <trkpt lat="43.63883" lon="3.75174">
        <ele>155</ele>
        <time>2021-05-14T15:02:09Z</time>
      </trkpt>
      <trkpt lat="43.63882" lon="3.7518">
        <ele>155</ele>
        <time>2021-05-14T15:02:10Z</time>
      </trkpt>
      <trkpt lat="43.63882" lon="3.75186">
        <ele>155</ele>
        <time>2021-05-14T15:02:11Z</time>
      </trkpt>
      <trkpt lat="43.63881" lon="3.75192">
        <ele>155</ele>
        <time>2021-05-14T15:02:12Z</time>
      </trkpt>
      <trkpt lat="43.63881" lon="3.75198">
        <ele>155</ele>
        <time>2021-05-14T15:02:13Z</time>
      </trkpt>
      <trkpt lat="43.63881" lon="3.75205">
        <ele>155</ele>
        <time>2021-05-14T15:02:14Z</time>
      </trkpt>
      <trkpt lat="43.63882" lon="3.75212">
        <ele>155</ele>
        <time>2021-05-14T15:02:15Z</time>
      </trkpt>
      <trkpt lat="43.63882" lon="3.75218">
        <ele>155</ele>
        <time>2021-05-14T15:02:16Z</time>
      </trkpt>
      <trkpt lat="43.63883" lon="3.75225">
        <ele>155</ele>
        <time>2021-05-14T15:02:17Z</time>
      </trkpt>
      <trkpt lat="43.63884" lon="3.75232">
        <ele>155</ele>
        <time>2021-05-14T15:02:18Z</time>
      </trkpt>
      <trkpt lat="43.63886" lon="3.75239">
        <ele>155</ele>
        <time>2021-05-14T15:02:19Z</time>
      </trkpt>
      <trkpt lat="43.63887" lon="3.75245">
        <ele>155</ele>
        <time>2021-05-14T15:02:20Z</time>
      </trkpt>
      <trkpt lat="43.63889" lon="3.75252">
        <ele>155</ele>
        <time>2021-05-14T15:02:21Z</time>
      </trkpt>
      <trkpt lat="43.6389" lon="3.75258">
        <ele>155</ele>
        <time>2021-05-14T15:02:22Z</time>
      </trkpt>
      <trkpt lat="43.63891" lon="3.75265">
        <ele>155</ele>
        <time>2021-05-14T15:02:23Z</time>
      </trkpt>
      <trkpt lat="43.63892" lon="3.75271">
        <ele>155</ele>
        <time>2021-05-14T15:02:24Z</time>
      </trkpt>
      <trkpt lat="43.63893" lon="3.75277">
        <ele>155</ele>
        <time>2021-05-14T15:02:25Z</time>
      </trkpt>
      <trkpt lat="43.63894" lon="3.75283">
        <ele>155</ele>
        <time>2021-05-14T15:02:26Z</time>
      </trkpt>
      <trkpt lat="43.63894" lon="3.75289">
        <ele>155</ele>
        <time>2021-05-14T15:02:27Z</time>
      </trkpt>
      <trkpt lat="43.63895" lon="3.75295">
        <ele>155</ele>
        <time>2021-05-14T15:02:28Z</time>
      </trkpt>
      <trkpt lat="43.63895" lon="3.75302">
        <ele>156</ele>
        <time>2021-05-14T15:02:29Z</time>
      </trkpt>
      <trkpt lat="43.63895" lon="3.75308">
        <ele>156</ele>
        <time>2021-05-14T15:02:30Z</time>
      </trkpt>
      <trkpt lat="43.63896" lon="3.75314">
        <ele>156</ele>
        <time>2021-05-14T15:02:31Z</time>
      </trkpt>
      <trkpt lat="43.63896" lon="3.75321">
        <ele>156</ele>
        <time>2021-05-14T15:02:32Z</time>
      </trkpt>
      <trkpt lat="43.63897" lon="3.75327">
        <ele>156</ele>
        <time>2021-05-14T15:02:33Z</time>
      </trkpt>
      <trkpt lat="43.63897" lon="3.75333">
        <ele>156</ele>
        <time>2021-05-14T15:02:34Z</time>
      </trkpt>
      <trkpt lat="43.63898" lon="3.7534">
        <ele>156</ele>
        <time>2021-05-14T15:02:35Z</time>
      </trkpt>
      <trkpt lat="43.63899" lon="3.75346">
        <ele>156</ele>
        <time>2021-05-14T15:02:36Z</time>
      </trkpt>
      <trkpt lat="43.639" lon="3.75352">
        <ele>156</ele>
        <time>2021-05-14T15:02:37Z</time>
      </trkpt>
      <trkpt lat="43.639" lon="3.75359">
        <ele>156</ele>
        <time>2021-05-14T15:02:38Z</time>
      </trkpt>
      <trkpt lat="43.639" lon="3.75365">
        <ele>156</ele>
        <time>2021-05-14T15:02:39Z</time>
      </trkpt>
      <trkpt lat="43.63901" lon="3.75372">
        <ele>156</ele>
        <time>2021-05-14T15:02:40Z</time>
      </trkpt>
      <trkpt lat="43.639" lon="3.75378">
        <ele>156</ele>
        <time>2021-05-14T15:02:41Z</time>
      </trkpt>
      <trkpt lat="43.639" lon="3.75385">
        <ele>156</ele>
        <time>2021-05-14T15:02:42Z</time>
      </trkpt>
      <trkpt lat="43.639" lon="3.75392">
        <ele>156</ele>
        <time>2021-05-14T15:02:43Z</time>
      </trkpt>
      <trkpt lat="43.63899" lon="3.75398">
        <ele>156</ele>
        <time>2021-05-14T15:02:44Z</time>
      </trkpt>
      <trkpt lat="43.63899" lon="3.75405">
        <ele>156</ele>
        <time>2021-05-14T15:02:45Z</time>
      </trkpt>
      <trkpt lat="43.63899" lon="3.75412">
        <ele>156</ele>
        <time>2021-05-14T15:02:46Z</time>
      </trkpt>
      <trkpt lat="43.63899" lon="3.75419">
        <ele>156</ele>
        <time>2021-05-14T15:02:47Z</time>
      </trkpt>
      <trkpt lat="43.639" lon="3.75426">
        <ele>156</ele>
        <time>2021-05-14T15:02:48Z</time>
      </trkpt>
      <trkpt lat="43.639" lon="3.75433">
        <ele>156</ele>
        <time>2021-05-14T15:02:49Z</time>
      </trkpt>
      <trkpt lat="43.63901" lon="3.7544">
        <ele>156</ele>
        <time>2021-05-14T15:02:50Z</time>
      </trkpt>
      <trkpt lat="43.63901" lon="3.75447">
        <ele>156</ele>
        <time>2021-05-14T15:02:51Z</time>
      </trkpt>
      <trkpt lat="43.63902" lon="3.75454">
        <ele>156</ele>
        <time>2021-05-14T15:02:52Z</time>
      </trkpt>
      <trkpt lat="43.63903" lon="3.75461">
        <ele>156</ele>
        <time>2021-05-14T15:02:53Z</time>
      </trkpt>
      <trkpt lat="43.63903" lon="3.75468">
        <ele>156</ele>
        <time>2021-05-14T15:02:54Z</time>
      </trkpt>
      <trkpt lat="43.63904" lon="3.75474">
        <ele>156</ele>
        <time>2021-05-14T15:02:55Z</time>
      </trkpt>
      <trkpt lat="43.63906" lon="3.75481">
        <ele>156</ele>
        <time>2021-05-14T15:02:56Z</time>
      </trkpt>
      <trkpt lat="43.63907" lon="3.75487">
        <ele>156</ele>
        <time>2021-05-14T15:02:57Z</time>
      </trkpt>
      <trkpt lat="43.63908" lon="3.75493">
        <ele>156</ele>
        <time>2021-05-14T15:02:58Z</time>
      </trkpt>
      <trkpt lat="43.63909" lon="3.75499">
        <ele>156</ele>
        <time>2021-05-14T15:02:59Z</time>
      </trkpt>
      <trkpt lat="43.63909" lon="3.75505">
        <ele>156</ele>
        <time>2021-05-14T15:03:00Z</time>
      </trkpt>
      <trkpt lat="43.6391" lon="3.7551">
        <ele>156</ele>
        <time>2021-05-14T15:03:01Z</time>
      </trkpt>
      <trkpt lat="43.6391" lon="3.75516">
        <ele>156</ele>
        <time>2021-05-14T15:03:02Z</time>
      </trkpt>
      <trkpt lat="43.63909" lon="3.75522">
        <ele>156</ele>
        <time>2021-05-14T15:03:03Z</time>
      </trkpt>
      <trkpt lat="43.63906" lon="3.75527">
        <ele>156</ele>
        <time>2021-05-14T15:03:04Z</time>
      </trkpt>
      <trkpt lat="43.63904" lon="3.75533">
        <ele>156</ele>
        <time>2021-05-14T15:03:05Z</time>
      </trkpt>
      <trkpt lat="43.63902" lon="3.75539">
        <ele>156</ele>
        <time>2021-05-14T15:03:06Z</time>
      </trkpt>
      <trkpt lat="43.63899" lon="3.75545">
        <ele>156</ele>
        <time>2021-05-14T15:03:07Z</time>
      </trkpt>
      <trkpt lat="43.63898" lon="3.75552">
        <ele>156</ele>
        <time>2021-05-14T15:03:08Z</time>
      </trkpt>
      <trkpt lat="43.63896" lon="3.7556">
        <ele>155</ele>
        <time>2021-05-14T15:03:09Z</time>
      </trkpt>
      <trkpt lat="43.63895" lon="3.75567">
        <ele>155</ele>
        <time>2021-05-14T15:03:10Z</time>
      </trkpt>
      <trkpt lat="43.63894" lon="3.75575">
        <ele>155</ele>
        <time>2021-05-14T15:03:11Z</time>
      </trkpt>
      <trkpt lat="43.63894" lon="3.75583">
        <ele>155</ele>
        <time>2021-05-14T15:03:12Z</time>
      </trkpt>
      <trkpt lat="43.63893" lon="3.75591">
        <ele>155</ele>
        <time>2021-05-14T15:03:13Z</time>
      </trkpt>
      <trkpt lat="43.63892" lon="3.75599">
        <ele>155</ele>
        <time>2021-05-14T15:03:14Z</time>
      </trkpt>
      <trkpt lat="43.63891" lon="3.75607">
        <ele>155</ele>
        <time>2021-05-14T15:03:15Z</time>
      </trkpt>
      <trkpt lat="43.6389" lon="3.75615">
        <ele>155</ele>
        <time>2021-05-14T15:03:16Z</time>
      </trkpt>
      <trkpt lat="43.63888" lon="3.75624">
        <ele>155</ele>
        <time>2021-05-14T15:03:17Z</time>
      </trkpt>
      <trkpt lat="43.63886" lon="3.75633">
        <ele>155</ele>
        <time>2021-05-14T15:03:18Z</time>
      </trkpt>
      <trkpt lat="43.63883" lon="3.75641">
        <ele>153</ele>
        <time>2021-05-14T15:03:19Z</time>
      </trkpt>
      <trkpt lat="43.6388" lon="3.7565">
        <ele>153</ele>
        <time>2021-05-14T15:03:20Z</time>
      </trkpt>
      <trkpt lat="43.63877" lon="3.75659">
        <ele>153</ele>
        <time>2021-05-14T15:03:21Z</time>
      </trkpt>
      <trkpt lat="43.63873" lon="3.75667">
        <ele>153</ele>
        <time>2021-05-14T15:03:22Z</time>
      </trkpt>
      <trkpt lat="43.63868" lon="3.75675">
        <ele>153</ele>
        <time>2021-05-14T15:03:23Z</time>
      </trkpt>
      <trkpt lat="43.63863" lon="3.75683">
        <ele>153</ele>
        <time>2021-05-14T15:03:24Z</time>
      </trkpt>
      <trkpt lat="43.63858" lon="3.75691">
        <ele>153</ele>
        <time>2021-05-14T15:03:25Z</time>
      </trkpt>
      <trkpt lat="43.63854" lon="3.75699">
        <ele>153</ele>
        <time>2021-05-14T15:03:26Z</time>
      </trkpt>
      <trkpt lat="43.63849" lon="3.75708">
        <ele>153</ele>
        <time>2021-05-14T15:03:27Z</time>
      </trkpt>
      <trkpt lat="43.63844" lon="3.75717">
        <ele>153</ele>
        <time>2021-05-14T15:03:28Z</time>
      </trkpt>
      <trkpt lat="43.6384" lon="3.75725">
        <ele>149</ele>
        <time>2021-05-14T15:03:29Z</time>
      </trkpt>
      <trkpt lat="43.63836" lon="3.75734">
        <ele>149</ele>
        <time>2021-05-14T15:03:30Z</time>
      </trkpt>
      <trkpt lat="43.63831" lon="3.75743">
        <ele>149</ele>
        <time>2021-05-14T15:03:31Z</time>
      </trkpt>
      <trkpt lat="43.63827" lon="3.75752">
        <ele>149</ele>
        <time>2021-05-14T15:03:32Z</time>
      </trkpt>
      <trkpt lat="43.63822" lon="3.75761">
        <ele>149</ele>
        <time>2021-05-14T15:03:33Z</time>
      </trkpt>
      <trkpt lat="43.63817" lon="3.75768">
        <ele>149</ele>
        <time>2021-05-14T15:03:34Z</time>
      </trkpt>
      <trkpt lat="43.63811" lon="3.75775">
        <ele>149</ele>
        <time>2021-05-14T15:03:35Z</time>
      </trkpt>
      <trkpt lat="43.63805" lon="3.75782">
        <ele>149</ele>
        <time>2021-05-14T15:03:36Z</time>
      </trkpt>
      <trkpt lat="43.638" lon="3.75789">
        <ele>149</ele>
        <time>2021-05-14T15:03:37Z</time>
      </trkpt>
      <trkpt lat="43.63795" lon="3.75796">
        <ele>149</ele>
        <time>2021-05-14T15:03:38Z</time>
      </trkpt>
      <trkpt lat="43.6379" lon="3.75803">
        <ele>146</ele>
        <time>2021-05-14T15:03:39Z</time>
      </trkpt>
      <trkpt lat="43.63786" lon="3.75811">
        <ele>146</ele>
        <time>2021-05-14T15:03:40Z</time>
      </trkpt>
      <trkpt lat="43.63782" lon="3.75818">
        <ele>146</ele>
        <time>2021-05-14T15:03:41Z</time>
      </trkpt>
      <trkpt lat="43.63778" lon="3.75826">
        <ele>146</ele>
        <time>2021-05-14T15:03:42Z</time>
      </trkpt>
      <trkpt lat="43.63774" lon="3.75833">
        <ele>146</ele>
        <time>2021-05-14T15:03:43Z</time>
      </trkpt>
      <trkpt lat="43.6377" lon="3.7584">
        <ele>146</ele>
        <time>2021-05-14T15:03:44Z</time>
      </trkpt>
      <trkpt lat="43.63766" lon="3.75846">
        <ele>146</ele>
        <time>2021-05-14T15:03:45Z</time>
      </trkpt>
      <trkpt lat="43.63761" lon="3.75853">
        <ele>146</ele>
        <time>2021-05-14T15:03:46Z</time>
      </trkpt>
      <trkpt lat="43.63757" lon="3.75859">
        <ele>146</ele>
        <time>2021-05-14T15:03:47Z</time>
      </trkpt>
      <trkpt lat="43.63753" lon="3.75865">
        <ele>146</ele>
        <time>2021-05-14T15:03:48Z</time>
      </trkpt>
      <trkpt lat="43.63749" lon="3.75871">
        <ele>144</ele>
        <time>2021-05-14T15:03:49Z</time>
      </trkpt>
      <trkpt lat="43.63744" lon="3.75876">
        <ele>144</ele>
        <time>2021-05-14T15:03:50Z</time>
      </trkpt>
      <trkpt lat="43.6374" lon="3.75881">
        <ele>144</ele>
        <time>2021-05-14T15:03:51Z</time>
      </trkpt>
      <trkpt lat="43.63735" lon="3.75885">
        <ele>144</ele>
        <time>2021-05-14T15:03:52Z</time>
      </trkpt>
      <trkpt lat="43.63731" lon="3.75888">
        <ele>144</ele>
        <time>2021-05-14T15:03:53Z</time>
      </trkpt>
      <trkpt lat="43.63726" lon="3.75892">
        <ele>144</ele>
        <time>2021-05-14T15:03:54Z</time>
      </trkpt>
      <trkpt lat="43.63722" lon="3.75895">
        <ele>144</ele>
        <time>2021-05-14T15:03:55Z</time>
      </trkpt>
      <trkpt lat="43.63719" lon="3.75899">
        <ele>144</ele>
        <time>2021-05-14T15:03:56Z</time>
      </trkpt>
      <trkpt lat="43.63715" lon="3.75903">
        <ele>144</ele>
        <time>2021-05-14T15:03:57Z</time>
      </trkpt>
      <trkpt lat="43.63712" lon="3.75907">
        <ele>144</ele>
        <time>2021-05-14T15:03:58Z</time>
      </trkpt>
      <trkpt lat="43.63709" lon="3.75913">
        <ele>143</ele>
        <time>2021-05-14T15:03:59Z</time>
      </trkpt>
      <trkpt lat="43.63706" lon="3.75918">
        <ele>143</ele>
        <time>2021-05-14T15:04:00Z</time>
      </trkpt>
      <trkpt lat="43.63703" lon="3.75923">
        <ele>143</ele>
        <time>2021-05-14T15:04:01Z</time>
      </trkpt>
      <trkpt lat="43.63699" lon="3.75928">
        <ele>143</ele>
        <time>2021-05-14T15:04:02Z</time>
      </trkpt>
      <trkpt lat="43.63696" lon="3.75934">
        <ele>143</ele>
        <time>2021-05-14T15:04:03Z</time>
      </trkpt>
      <trkpt lat="43.63693" lon="3.75939">
        <ele>143</ele>
        <time>2021-05-14T15:04:04Z</time>
      </trkpt>
      <trkpt lat="43.6369" lon="3.75944">
        <ele>143</ele>
        <time>2021-05-14T15:04:05Z</time>
      </trkpt>
      <trkpt lat="43.63686" lon="3.75949">
        <ele>143</ele>
        <time>2021-05-14T15:04:06Z</time>
      </trkpt>
      <trkpt lat="43.63683" lon="3.75955">
        <ele>143</ele>
        <time>2021-05-14T15:04:07Z</time>
      </trkpt>
      <trkpt lat="43.63679" lon="3.7596">
        <ele>143</ele>
        <time>2021-05-14T15:04:08Z</time>
      </trkpt>
      <trkpt lat="43.63676" lon="3.75966">
        <ele>142</ele>
        <time>2021-05-14T15:04:09Z</time>
      </trkpt>
      <trkpt lat="43.63673" lon="3.75971">
        <ele>142</ele>
        <time>2021-05-14T15:04:10Z</time>
      </trkpt>
      <trkpt lat="43.63669" lon="3.75977">
        <ele>142</ele>
        <time>2021-05-14T15:04:11Z</time>
      </trkpt>
      <trkpt lat="43.63666" lon="3.75982">
        <ele>142</ele>
        <time>2021-05-14T15:04:12Z</time>
      </trkpt>
      <trkpt lat="43.63662" lon="3.75988">
        <ele>142</ele>
        <time>2021-05-14T15:04:13Z</time>
      </trkpt>
      <trkpt lat="43.63659" lon="3.75993">
        <ele>142</ele>
        <time>2021-05-14T15:04:14Z</time>
      </trkpt>
      <trkpt lat="43.63656" lon="3.75999">
        <ele>142</ele>
        <time>2021-05-14T15:04:15Z</time>
      </trkpt>
      <trkpt lat="43.63652" lon="3.76004">
        <ele>142</ele>
        <time>2021-05-14T15:04:16Z</time>
      </trkpt>
      <trkpt lat="43.63649" lon="3.7601">
        <ele>142</ele>
        <time>2021-05-14T15:04:17Z</time>
      </trkpt>
      <trkpt lat="43.63645" lon="3.76015">
        <ele>142</ele>
        <time>2021-05-14T15:04:18Z</time>
      </trkpt>
      <trkpt lat="43.63641" lon="3.7602">
        <ele>140</ele>
        <time>2021-05-14T15:04:19Z</time>
      </trkpt>
      <trkpt lat="43.63637" lon="3.76026">
        <ele>140</ele>
        <time>2021-05-14T15:04:20Z</time>
      </trkpt>
      <trkpt lat="43.63633" lon="3.76032">
        <ele>140</ele>
        <time>2021-05-14T15:04:21Z</time>
      </trkpt>
      <trkpt lat="43.63629" lon="3.76039">
        <ele>140</ele>
        <time>2021-05-14T15:04:22Z</time>
      </trkpt>
      <trkpt lat="43.63624" lon="3.76045">
        <ele>140</ele>
        <time>2021-05-14T15:04:23Z</time>
      </trkpt>
      <trkpt lat="43.6362" lon="3.76051">
        <ele>140</ele>
        <time>2021-05-14T15:04:24Z</time>
      </trkpt>
      <trkpt lat="43.63616" lon="3.76057">
        <ele>140</ele>
        <time>2021-05-14T15:04:25Z</time>
      </trkpt>
      <trkpt lat="43.63612" lon="3.76064">
        <ele>140</ele>
        <time>2021-05-14T15:04:26Z</time>
      </trkpt>
      <trkpt lat="43.63609" lon="3.76071">
        <ele>140</ele>
        <time>2021-05-14T15:04:27Z</time>
      </trkpt>
      <trkpt lat="43.63605" lon="3.76079">
        <ele>140</ele>
        <time>2021-05-14T15:04:28Z</time>
      </trkpt>
      <trkpt lat="43.63603" lon="3.76086">
        <ele>137</ele>
        <time>2021-05-14T15:04:29Z</time>
      </trkpt>
      <trkpt lat="43.63602" lon="3.76094">
        <ele>137</ele>
        <time>2021-05-14T15:04:30Z</time>
      </trkpt>
      <trkpt lat="43.63602" lon="3.76102">
        <ele>137</ele>
        <time>2021-05-14T15:04:31Z</time>
      </trkpt>
      <trkpt lat="43.63602" lon="3.76108">
        <ele>137</ele>
        <time>2021-05-14T15:04:32Z</time>
      </trkpt>
      <trkpt lat="43.63602" lon="3.76112">
        <ele>137</ele>
        <time>2021-05-14T15:04:33Z</time>
      </trkpt>
      <trkpt lat="43.63602" lon="3.76115">
        <ele>137</ele>
        <time>2021-05-14T15:04:34Z</time>
      </trkpt>
      <trkpt lat="43.63601" lon="3.76119">
        <ele>137</ele>
        <time>2021-05-14T15:04:36Z</time>
      </trkpt>
      <trkpt lat="43.63601" lon="3.76123">
        <ele>137</ele>
        <time>2021-05-14T15:04:38Z</time>
      </trkpt>
      <trkpt lat="43.63601" lon="3.76126">
        <ele>135</ele>
        <time>2021-05-14T15:04:39Z</time>
      </trkpt>
      <trkpt lat="43.636" lon="3.76128">
        <ele>135</ele>
        <time>2021-05-14T15:04:40Z</time>
      </trkpt>
      <trkpt lat="43.63598" lon="3.7613">
        <ele>135</ele>
        <time>2021-05-14T15:04:41Z</time>
      </trkpt>
      <trkpt lat="43.63596" lon="3.7613">
        <ele>135</ele>
        <time>2021-05-14T15:04:42Z</time>
      </trkpt>
      <trkpt lat="43.63594" lon="3.76131">
        <ele>135</ele>
        <time>2021-05-14T15:04:43Z</time>
      </trkpt>
      <trkpt lat="43.63592" lon="3.76132">
        <ele>135</ele>
        <time>2021-05-14T15:04:44Z</time>
      </trkpt>
      <trkpt lat="43.6359" lon="3.76132">
        <ele>135</ele>
        <time>2021-05-14T15:04:45Z</time>
      </trkpt>
      <trkpt lat="43.63587" lon="3.7613">
        <ele>135</ele>
        <time>2021-05-14T15:04:47Z</time>
      </trkpt>
      <trkpt lat="43.63585" lon="3.76129">
        <ele>135</ele>
        <time>2021-05-14T15:04:48Z</time>
      </trkpt>
      <trkpt lat="43.63582" lon="3.76126">
        <ele>134</ele>
        <time>2021-05-14T15:04:49Z</time>
      </trkpt>
      <trkpt lat="43.63579" lon="3.76126">
        <ele>134</ele>
        <time>2021-05-14T15:04:50Z</time>
      </trkpt>
      <trkpt lat="43.63577" lon="3.76127">
        <ele>134</ele>
        <time>2021-05-14T15:04:51Z</time>
      </trkpt>
      <trkpt lat="43.63574" lon="3.76127">
        <ele>134</ele>
        <time>2021-05-14T15:04:52Z</time>
      </trkpt>
      <trkpt lat="43.63571" lon="3.76129">
        <ele>134</ele>
        <time>2021-05-14T15:04:53Z</time>
      </trkpt>
      <trkpt lat="43.63568" lon="3.76131">
        <ele>134</ele>
        <time>2021-05-14T15:04:54Z</time>
      </trkpt>
      <trkpt lat="43.63565" lon="3.76133">
        <ele>134</ele>
        <time>2021-05-14T15:04:55Z</time>
      </trkpt>
      <trkpt lat="43.63561" lon="3.76136">
        <ele>134</ele>
        <time>2021-05-14T15:04:56Z</time>
      </trkpt>
      <trkpt lat="43.63558" lon="3.76139">
        <ele>134</ele>
        <time>2021-05-14T15:04:57Z</time>
      </trkpt>
      <trkpt lat="43.63555" lon="3.76142">
        <ele>134</ele>
        <time>2021-05-14T15:04:58Z</time>
      </trkpt>
      <trkpt lat="43.63551" lon="3.76146">
        <ele>134</ele>
        <time>2021-05-14T15:05:00Z</time>
      </trkpt>
      <trkpt lat="43.63548" lon="3.7615">
        <ele>134</ele>
        <time>2021-05-14T15:05:01Z</time>
      </trkpt>
      <trkpt lat="43.63543" lon="3.76154">
        <ele>134</ele>
        <time>2021-05-14T15:05:02Z</time>
      </trkpt>
      <trkpt lat="43.63539" lon="3.76158">
        <ele>134</ele>
        <time>2021-05-14T15:05:03Z</time>
      </trkpt>
      <trkpt lat="43.63535" lon="3.76163">
        <ele>134</ele>
        <time>2021-05-14T15:05:04Z</time>
      </trkpt>
      <trkpt lat="43.63531" lon="3.76167">
        <ele>134</ele>
        <time>2021-05-14T15:05:05Z</time>
      </trkpt>
      <trkpt lat="43.63527" lon="3.76171">
        <ele>134</ele>
        <time>2021-05-14T15:05:06Z</time>
      </trkpt>
      <trkpt lat="43.63523" lon="3.76175">
        <ele>134</ele>
        <time>2021-05-14T15:05:07Z</time>
      </trkpt>
      <trkpt lat="43.63519" lon="3.7618">
        <ele>134</ele>
        <time>2021-05-14T15:05:08Z</time>
      </trkpt>
      <trkpt lat="43.63516" lon="3.76184">
        <ele>133</ele>
        <time>2021-05-14T15:05:09Z</time>
      </trkpt>
      <trkpt lat="43.63512" lon="3.76188">
        <ele>133</ele>
        <time>2021-05-14T15:05:10Z</time>
      </trkpt>
      <trkpt lat="43.63509" lon="3.76192">
        <ele>133</ele>
        <time>2021-05-14T15:05:11Z</time>
      </trkpt>
      <trkpt lat="43.63506" lon="3.76197">
        <ele>133</ele>
        <time>2021-05-14T15:05:12Z</time>
      </trkpt>
      <trkpt lat="43.63502" lon="3.76202">
        <ele>133</ele>
        <time>2021-05-14T15:05:13Z</time>
      </trkpt>
      <trkpt lat="43.63499" lon="3.76205">
        <ele>133</ele>
        <time>2021-05-14T15:05:14Z</time>
      </trkpt>
      <trkpt lat="43.63495" lon="3.76209">
        <ele>133</ele>
        <time>2021-05-14T15:05:15Z</time>
      </trkpt>
      <trkpt lat="43.63492" lon="3.76212">
        <ele>133</ele>
        <time>2021-05-14T15:05:16Z</time>
      </trkpt>
      <trkpt lat="43.63489" lon="3.76215">
        <ele>133</ele>
        <time>2021-05-14T15:05:17Z</time>
      </trkpt>
      <trkpt lat="43.63486" lon="3.76218">
        <ele>133</ele>
        <time>2021-05-14T15:05:18Z</time>
      </trkpt>
      <trkpt lat="43.63483" lon="3.7622">
        <ele>134</ele>
        <time>2021-05-14T15:05:19Z</time>
      </trkpt>
      <trkpt lat="43.6348" lon="3.76223">
        <ele>134</ele>
        <time>2021-05-14T15:05:20Z</time>
      </trkpt>
      <trkpt lat="43.63477" lon="3.76226">
        <ele>134</ele>
        <time>2021-05-14T15:05:21Z</time>
      </trkpt>
      <trkpt lat="43.63474" lon="3.76229">
        <ele>134</ele>
        <time>2021-05-14T15:05:22Z</time>
      </trkpt>
      <trkpt lat="43.63471" lon="3.76232">
        <ele>134</ele>
        <time>2021-05-14T15:05:23Z</time>
      </trkpt>
      <trkpt lat="43.63469" lon="3.76235">
        <ele>134</ele>
        <time>2021-05-14T15:05:24Z</time>
      </trkpt>
      <trkpt lat="43.63466" lon="3.76238">
        <ele>134</ele>
        <time>2021-05-14T15:05:25Z</time>
      </trkpt>
      <trkpt lat="43.63463" lon="3.76241">
        <ele>134</ele>
        <time>2021-05-14T15:05:26Z</time>
      </trkpt>
      <trkpt lat="43.6346" lon="3.76244">
        <ele>134</ele>
        <time>2021-05-14T15:05:27Z</time>
      </trkpt>
      <trkpt lat="43.63458" lon="3.76247">
        <ele>134</ele>
        <time>2021-05-14T15:05:28Z</time>
      </trkpt>
      <trkpt lat="43.63455" lon="3.7625">
        <ele>135</ele>
        <time>2021-05-14T15:05:29Z</time>
      </trkpt>
      <trkpt lat="43.63452" lon="3.76253">
        <ele>135</ele>
        <time>2021-05-14T15:05:30Z</time>
      </trkpt>
      <trkpt lat="43.63449" lon="3.76255">
        <ele>135</ele>
        <time>2021-05-14T15:05:31Z</time>
      </trkpt>
      <trkpt lat="43.63446" lon="3.76259">
        <ele>135</ele>
        <time>2021-05-14T15:05:32Z</time>
      </trkpt>
      <trkpt lat="43.63443" lon="3.76262">
        <ele>135</ele>
        <time>2021-05-14T15:05:33Z</time>
      </trkpt>
      <trkpt lat="43.6344" lon="3.76265">
        <ele>135</ele>
        <time>2021-05-14T15:05:34Z</time>
      </trkpt>
      <trkpt lat="43.63437" lon="3.76267">
        <ele>135</ele>
        <time>2021-05-14T15:05:35Z</time>
      </trkpt>
      <trkpt lat="43.63434" lon="3.7627">
        <ele>135</ele>
        <time>2021-05-14T15:05:36Z</time>
      </trkpt>
      <trkpt lat="43.63431" lon="3.76272">
        <ele>135</ele>
        <time>2021-05-14T15:05:37Z</time>
      </trkpt>
      <trkpt lat="43.63428" lon="3.76274">
        <ele>135</ele>
        <time>2021-05-14T15:05:38Z</time>
      </trkpt>
      <trkpt lat="43.63425" lon="3.76277">
        <ele>134</ele>
        <time>2021-05-14T15:05:39Z</time>
      </trkpt>
      <trkpt lat="43.63423" lon="3.76279">
        <ele>134</ele>
        <time>2021-05-14T15:05:40Z</time>
      </trkpt>
      <trkpt lat="43.6342" lon="3.76281">
        <ele>134</ele>
        <time>2021-05-14T15:05:41Z</time>
      </trkpt>
      <trkpt lat="43.63417" lon="3.76284">
        <ele>134</ele>
        <time>2021-05-14T15:05:42Z</time>
      </trkpt>
      <trkpt lat="43.63414" lon="3.76286">
        <ele>134</ele>
        <time>2021-05-14T15:05:43Z</time>
      </trkpt>
      <trkpt lat="43.63412" lon="3.76289">
        <ele>134</ele>
        <time>2021-05-14T15:05:44Z</time>
      </trkpt>
      <trkpt lat="43.63409" lon="3.76292">
        <ele>134</ele>
        <time>2021-05-14T15:05:45Z</time>
      </trkpt>
      <trkpt lat="43.63407" lon="3.76296">
        <ele>134</ele>
        <time>2021-05-14T15:05:46Z</time>
      </trkpt>
      <trkpt lat="43.63404" lon="3.76299">
        <ele>134</ele>
        <time>2021-05-14T15:05:47Z</time>
      </trkpt>
      <trkpt lat="43.63401" lon="3.76303">
        <ele>134</ele>
        <time>2021-05-14T15:05:48Z</time>
      </trkpt>
      <trkpt lat="43.63397" lon="3.76306">
        <ele>134</ele>
        <time>2021-05-14T15:05:49Z</time>
      </trkpt>
      <trkpt lat="43.63393" lon="3.76308">
        <ele>134</ele>
        <time>2021-05-14T15:05:50Z</time>
      </trkpt>
      <trkpt lat="43.63389" lon="3.76311">
        <ele>134</ele>
        <time>2021-05-14T15:05:51Z</time>
      </trkpt>
      <trkpt lat="43.63385" lon="3.76314">
        <ele>134</ele>
        <time>2021-05-14T15:05:52Z</time>
      </trkpt>
      <trkpt lat="43.6338" lon="3.76316">
        <ele>134</ele>
        <time>2021-05-14T15:05:53Z</time>
      </trkpt>
      <trkpt lat="43.63376" lon="3.76319">
        <ele>134</ele>
        <time>2021-05-14T15:05:54Z</time>
      </trkpt>
      <trkpt lat="43.63372" lon="3.76321">
        <ele>134</ele>
        <time>2021-05-14T15:05:55Z</time>
      </trkpt>
      <trkpt lat="43.63368" lon="3.76323">
        <ele>134</ele>
        <time>2021-05-14T15:05:56Z</time>
      </trkpt>
      <trkpt lat="43.63364" lon="3.76325">
        <ele>134</ele>
        <time>2021-05-14T15:05:57Z</time>
      </trkpt>
      <trkpt lat="43.6336" lon="3.76327">
        <ele>134</ele>
        <time>2021-05-14T15:05:58Z</time>
      </trkpt>
      <trkpt lat="43.63356" lon="3.76329">
        <ele>133</ele>
        <time>2021-05-14T15:05:59Z</time>
      </trkpt>
      <trkpt lat="43.63353" lon="3.76332">
        <ele>133</ele>
        <time>2021-05-14T15:06:00Z</time>
      </trkpt>
      <trkpt lat="43.6335" lon="3.76336">
        <ele>133</ele>
        <time>2021-05-14T15:06:01Z</time>
      </trkpt>
      <trkpt lat="43.63347" lon="3.76339">
        <ele>133</ele>
        <time>2021-05-14T15:06:02Z</time>
      </trkpt>
      <trkpt lat="43.63343" lon="3.76343">
        <ele>133</ele>
        <time>2021-05-14T15:06:03Z</time>
      </trkpt>
      <trkpt lat="43.63341" lon="3.76346">
        <ele>133</ele>
        <time>2021-05-14T15:06:04Z</time>
      </trkpt>
      <trkpt lat="43.63339" lon="3.7635">
        <ele>133</ele>
        <time>2021-05-14T15:06:05Z</time>
      </trkpt>
      <trkpt lat="43.63338" lon="3.76355">
        <ele>133</ele>
        <time>2021-05-14T15:06:06Z</time>
      </trkpt>
      <trkpt lat="43.63337" lon="3.7636">
        <ele>133</ele>
        <time>2021-05-14T15:06:07Z</time>
      </trkpt>
      <trkpt lat="43.63336" lon="3.76365">
        <ele>133</ele>
        <time>2021-05-14T15:06:08Z</time>
      </trkpt>
      <trkpt lat="43.63335" lon="3.76368">
        <ele>132</ele>
        <time>2021-05-14T15:06:09Z</time>
      </trkpt>
      <trkpt lat="43.63334" lon="3.7637">
        <ele>132</ele>
        <time>2021-05-14T15:06:10Z</time>
      </trkpt>
      <trkpt lat="43.63331" lon="3.7637">
        <ele>132</ele>
        <time>2021-05-14T15:06:12Z</time>
      </trkpt>
      <trkpt lat="43.63328" lon="3.76368">
        <ele>132</ele>
        <time>2021-05-14T15:06:14Z</time>
      </trkpt>
      <trkpt lat="43.63325" lon="3.76368">
        <ele>132</ele>
        <time>2021-05-14T15:06:16Z</time>
      </trkpt>
      <trkpt lat="43.63323" lon="3.76369">
        <ele>132</ele>
        <time>2021-05-14T15:06:17Z</time>
      </trkpt>
      <trkpt lat="43.63321" lon="3.7637">
        <ele>132</ele>
        <time>2021-05-14T15:06:18Z</time>
      </trkpt>
      <trkpt lat="43.63319" lon="3.76371">
        <ele>131</ele>
        <time>2021-05-14T15:06:19Z</time>
      </trkpt>
      <trkpt lat="43.63317" lon="3.76373">
        <ele>131</ele>
        <time>2021-05-14T15:06:20Z</time>
      </trkpt>
      <trkpt lat="43.63315" lon="3.76376">
        <ele>131</ele>
        <time>2021-05-14T15:06:21Z</time>
      </trkpt>
      <trkpt lat="43.63313" lon="3.76378">
        <ele>131</ele>
        <time>2021-05-14T15:06:22Z</time>
      </trkpt>
      <trkpt lat="43.63311" lon="3.76381">
        <ele>131</ele>
        <time>2021-05-14T15:06:23Z</time>
      </trkpt>
      <trkpt lat="43.63309" lon="3.76384">
        <ele>131</ele>
        <time>2021-05-14T15:06:24Z</time>
      </trkpt>
      <trkpt lat="43.63306" lon="3.76386">
        <ele>131</ele>
        <time>2021-05-14T15:06:25Z</time>
      </trkpt>
      <trkpt lat="43.63304" lon="3.76389">
        <ele>131</ele>
        <time>2021-05-14T15:06:26Z</time>
      </trkpt>
      <trkpt lat="43.63301" lon="3.76392">
        <ele>131</ele>
        <time>2021-05-14T15:06:27Z</time>
      </trkpt>
      <trkpt lat="43.63299" lon="3.76394">
        <ele>131</ele>
        <time>2021-05-14T15:06:28Z</time>
      </trkpt>
      <trkpt lat="43.63294" lon="3.76399">
        <ele>131</ele>
        <time>2021-05-14T15:06:29Z</time>
      </trkpt>
      <trkpt lat="43.63292" lon="3.76401">
        <ele>131</ele>
        <time>2021-05-14T15:06:30Z</time>
      </trkpt>
      <trkpt lat="43.63289" lon="3.76405">
        <ele>131</ele>
        <time>2021-05-14T15:06:31Z</time>
      </trkpt>
      <trkpt lat="43.63287" lon="3.76408">
        <ele>131</ele>
        <time>2021-05-14T15:06:32Z</time>
      </trkpt>
      <trkpt lat="43.63284" lon="3.7641">
        <ele>131</ele>
        <time>2021-05-14T15:06:33Z</time>
      </trkpt>
      <trkpt lat="43.6328" lon="3.76413">
        <ele>131</ele>
        <time>2021-05-14T15:06:34Z</time>
      </trkpt>
      <trkpt lat="43.63277" lon="3.76415">
        <ele>131</ele>
        <time>2021-05-14T15:06:35Z</time>
      </trkpt>
      <trkpt lat="43.63273" lon="3.76417">
        <ele>131</ele>
        <time>2021-05-14T15:06:36Z</time>
      </trkpt>
      <trkpt lat="43.6327" lon="3.76419">
        <ele>131</ele>
        <time>2021-05-14T15:06:37Z</time>
      </trkpt>
      <trkpt lat="43.63267" lon="3.76422">
        <ele>131</ele>
        <time>2021-05-14T15:06:38Z</time>
      </trkpt>
      <trkpt lat="43.63263" lon="3.76425">
        <ele>131</ele>
        <time>2021-05-14T15:06:40Z</time>
      </trkpt>
      <trkpt lat="43.6326" lon="3.76427">
        <ele>131</ele>
        <time>2021-05-14T15:06:41Z</time>
      </trkpt>
      <trkpt lat="43.63257" lon="3.7643">
        <ele>131</ele>
        <time>2021-05-14T15:06:42Z</time>
      </trkpt>
      <trkpt lat="43.63254" lon="3.76433">
        <ele>131</ele>
        <time>2021-05-14T15:06:43Z</time>
      </trkpt>
      <trkpt lat="43.63251" lon="3.76436">
        <ele>131</ele>
        <time>2021-05-14T15:06:44Z</time>
      </trkpt>
      <trkpt lat="43.63248" lon="3.76439">
        <ele>131</ele>
        <time>2021-05-14T15:06:45Z</time>
      </trkpt>
      <trkpt lat="43.63244" lon="3.76442">
        <ele>131</ele>
        <time>2021-05-14T15:06:46Z</time>
      </trkpt>
      <trkpt lat="43.63241" lon="3.76446">
        <ele>131</ele>
        <time>2021-05-14T15:06:47Z</time>
      </trkpt>
      <trkpt lat="43.63238" lon="3.7645">
        <ele>131</ele>
        <time>2021-05-14T15:06:48Z</time>
      </trkpt>
      <trkpt lat="43.63235" lon="3.76454">
        <ele>129</ele>
        <time>2021-05-14T15:06:49Z</time>
      </trkpt>
      <trkpt lat="43.63231" lon="3.76458">
        <ele>129</ele>
        <time>2021-05-14T15:06:50Z</time>
      </trkpt>
      <trkpt lat="43.63227" lon="3.76462">
        <ele>129</ele>
        <time>2021-05-14T15:06:51Z</time>
      </trkpt>
      <trkpt lat="43.63223" lon="3.76467">
        <ele>129</ele>
        <time>2021-05-14T15:06:52Z</time>
      </trkpt>
      <trkpt lat="43.6322" lon="3.76472">
        <ele>129</ele>
        <time>2021-05-14T15:06:53Z</time>
      </trkpt>
      <trkpt lat="43.63216" lon="3.76477">
        <ele>129</ele>
        <time>2021-05-14T15:06:54Z</time>
      </trkpt>
      <trkpt lat="43.63213" lon="3.76483">
        <ele>129</ele>
        <time>2021-05-14T15:06:55Z</time>
      </trkpt>
      <trkpt lat="43.6321" lon="3.7649">
        <ele>129</ele>
        <time>2021-05-14T15:06:56Z</time>
      </trkpt>
      <trkpt lat="43.63208" lon="3.76497">
        <ele>129</ele>
        <time>2021-05-14T15:06:57Z</time>
      </trkpt>
      <trkpt lat="43.63207" lon="3.76504">
        <ele>129</ele>
        <time>2021-05-14T15:06:58Z</time>
      </trkpt>
      <trkpt lat="43.63206" lon="3.76512">
        <ele>128</ele>
        <time>2021-05-14T15:06:59Z</time>
      </trkpt>
      <trkpt lat="43.63205" lon="3.76519">
        <ele>128</ele>
        <time>2021-05-14T15:07:00Z</time>
      </trkpt>
      <trkpt lat="43.63203" lon="3.76526">
        <ele>128</ele>
        <time>2021-05-14T15:07:01Z</time>
      </trkpt>
      <trkpt lat="43.63203" lon="3.76532">
        <ele>128</ele>
        <time>2021-05-14T15:07:02Z</time>
      </trkpt>
      <trkpt lat="43.63202" lon="3.76539">
        <ele>128</ele>
        <time>2021-05-14T15:07:03Z</time>
      </trkpt>
      <trkpt lat="43.63201" lon="3.76545">
        <ele>128</ele>
        <time>2021-05-14T15:07:04Z</time>
      </trkpt>
      <trkpt lat="43.632" lon="3.76551">
        <ele>128</ele>
        <time>2021-05-14T15:07:05Z</time>
      </trkpt>
      <trkpt lat="43.632" lon="3.76558">
        <ele>128</ele>
        <time>2021-05-14T15:07:06Z</time>
      </trkpt>
      <trkpt lat="43.63199" lon="3.76564">
        <ele>128</ele>
        <time>2021-05-14T15:07:07Z</time>
      </trkpt>
      <trkpt lat="43.63198" lon="3.76571">
        <ele>128</ele>
        <time>2021-05-14T15:07:08Z</time>
      </trkpt>
      <trkpt lat="43.63197" lon="3.76578">
        <ele>128</ele>
        <time>2021-05-14T15:07:09Z</time>
      </trkpt>
      <trkpt lat="43.63196" lon="3.76584">
        <ele>128</ele>
        <time>2021-05-14T15:07:10Z</time>
      </trkpt>
      <trkpt lat="43.63195" lon="3.76591">
        <ele>128</ele>
        <time>2021-05-14T15:07:11Z</time>
      </trkpt>
      <trkpt lat="43.63195" lon="3.76598">
        <ele>128</ele>
        <time>2021-05-14T15:07:12Z</time>
      </trkpt>
      <trkpt lat="43.63194" lon="3.76605">
        <ele>128</ele>
        <time>2021-05-14T15:07:13Z</time>
      </trkpt>
      <trkpt lat="43.63193" lon="3.76612">
        <ele>128</ele>
        <time>2021-05-14T15:07:14Z</time>
      </trkpt>
      <trkpt lat="43.63192" lon="3.76619">
        <ele>128</ele>
        <time>2021-05-14T15:07:15Z</time>
      </trkpt>
      <trkpt lat="43.63191" lon="3.76627">
        <ele>128</ele>
        <time>2021-05-14T15:07:16Z</time>
      </trkpt>
      <trkpt lat="43.6319" lon="3.76634">
        <ele>128</ele>
        <time>2021-05-14T15:07:17Z</time>
      </trkpt>
      <trkpt lat="43.63189" lon="3.76642">
        <ele>128</ele>
        <time>2021-05-14T15:07:18Z</time>
      </trkpt>
      <trkpt lat="43.63188" lon="3.76649">
        <ele>127</ele>
        <time>2021-05-14T15:07:19Z</time>
      </trkpt>
      <trkpt lat="43.63187" lon="3.76656">
        <ele>127</ele>
        <time>2021-05-14T15:07:20Z</time>
      </trkpt>
      <trkpt lat="43.63186" lon="3.76663">
        <ele>127</ele>
        <time>2021-05-14T15:07:21Z</time>
      </trkpt>
      <trkpt lat="43.63185" lon="3.76671">
        <ele>127</ele>
        <time>2021-05-14T15:07:22Z</time>
      </trkpt>
      <trkpt lat="43.63184" lon="3.76678">
        <ele>127</ele>
        <time>2021-05-14T15:07:23Z</time>
      </trkpt>
      <trkpt lat="43.63182" lon="3.76685">
        <ele>127</ele>
        <time>2021-05-14T15:07:24Z</time>
      </trkpt>
      <trkpt lat="43.63181" lon="3.76692">
        <ele>127</ele>
        <time>2021-05-14T15:07:25Z</time>
      </trkpt>
      <trkpt lat="43.6318" lon="3.76698">
        <ele>127</ele>
        <time>2021-05-14T15:07:26Z</time>
      </trkpt>
      <trkpt lat="43.63179" lon="3.76705">
        <ele>127</ele>
        <time>2021-05-14T15:07:27Z</time>
      </trkpt>
      <trkpt lat="43.63178" lon="3.76711">
        <ele>127</ele>
        <time>2021-05-14T15:07:28Z</time>
      </trkpt>
      <trkpt lat="43.63177" lon="3.76718">
        <ele>126</ele>
        <time>2021-05-14T15:07:29Z</time>
      </trkpt>
      <trkpt lat="43.63176" lon="3.76725">
        <ele>126</ele>
        <time>2021-05-14T15:07:30Z</time>
      </trkpt>
      <trkpt lat="43.63175" lon="3.76732">
        <ele>126</ele>
        <time>2021-05-14T15:07:31Z</time>
      </trkpt>
      <trkpt lat="43.63174" lon="3.76739">
        <ele>126</ele>
        <time>2021-05-14T15:07:32Z</time>
      </trkpt>
      <trkpt lat="43.63173" lon="3.76746">
        <ele>126</ele>
        <time>2021-05-14T15:07:33Z</time>
      </trkpt>
      <trkpt lat="43.63171" lon="3.76753">
        <ele>126</ele>
        <time>2021-05-14T15:07:34Z</time>
      </trkpt>
      <trkpt lat="43.6317" lon="3.76761">
        <ele>126</ele>
        <time>2021-05-14T15:07:35Z</time>
      </trkpt>
      <trkpt lat="43.63169" lon="3.76769">
        <ele>126</ele>
        <time>2021-05-14T15:07:36Z</time>
      </trkpt>
      <trkpt lat="43.63168" lon="3.76777">
        <ele>126</ele>
        <time>2021-05-14T15:07:37Z</time>
      </trkpt>
      <trkpt lat="43.63167" lon="3.76785">
        <ele>126</ele>
        <time>2021-05-14T15:07:38Z</time>
      </trkpt>
      <trkpt lat="43.63165" lon="3.76793">
        <ele>124</ele>
        <time>2021-05-14T15:07:39Z</time>
      </trkpt>
      <trkpt lat="43.63164" lon="3.76802">
        <ele>124</ele>
        <time>2021-05-14T15:07:40Z</time>
      </trkpt>
      <trkpt lat="43.63163" lon="3.7681">
        <ele>124</ele>
        <time>2021-05-14T15:07:41Z</time>
      </trkpt>
      <trkpt lat="43.63162" lon="3.76819">
        <ele>124</ele>
        <time>2021-05-14T15:07:42Z</time>
      </trkpt>
      <trkpt lat="43.6316" lon="3.76827">
        <ele>124</ele>
        <time>2021-05-14T15:07:43Z</time>
      </trkpt>
      <trkpt lat="43.63159" lon="3.76836">
        <ele>124</ele>
        <time>2021-05-14T15:07:44Z</time>
      </trkpt>
      <trkpt lat="43.63158" lon="3.76845">
        <ele>124</ele>
        <time>2021-05-14T15:07:45Z</time>
      </trkpt>
      <trkpt lat="43.63157" lon="3.76854">
        <ele>124</ele>
        <time>2021-05-14T15:07:46Z</time>
      </trkpt>
      <trkpt lat="43.63156" lon="3.76864">
        <ele>124</ele>
        <time>2021-05-14T15:07:47Z</time>
      </trkpt>
      <trkpt lat="43.63155" lon="3.76873">
        <ele>124</ele>
        <time>2021-05-14T15:07:48Z</time>
      </trkpt>
      <trkpt lat="43.63154" lon="3.76882">
        <ele>121</ele>
        <time>2021-05-14T15:07:49Z</time>
      </trkpt>
      <trkpt lat="43.63153" lon="3.76892">
        <ele>121</ele>
        <time>2021-05-14T15:07:50Z</time>
      </trkpt>
      <trkpt lat="43.63151" lon="3.76902">
        <ele>121</ele>
        <time>2021-05-14T15:07:51Z</time>
      </trkpt>
      <trkpt lat="43.6315" lon="3.76912">
        <ele>121</ele>
        <time>2021-05-14T15:07:52Z</time>
      </trkpt>
      <trkpt lat="43.63148" lon="3.76922">
        <ele>121</ele>
        <time>2021-05-14T15:07:53Z</time>
      </trkpt>
      <trkpt lat="43.63147" lon="3.76932">
        <ele>121</ele>
        <time>2021-05-14T15:07:54Z</time>
      </trkpt>
      <trkpt lat="43.63145" lon="3.76942">
        <ele>121</ele>
        <time>2021-05-14T15:07:55Z</time>
      </trkpt>
      <trkpt lat="43.63144" lon="3.76953">
        <ele>121</ele>
        <time>2021-05-14T15:07:56Z</time>
      </trkpt>
      <trkpt lat="43.63142" lon="3.76963">
        <ele>121</ele>
        <time>2021-05-14T15:07:57Z</time>
      </trkpt>
      <trkpt lat="43.63141" lon="3.76972">
        <ele>121</ele>
        <time>2021-05-14T15:07:58Z</time>
      </trkpt>
      <trkpt lat="43.63138" lon="3.76991">
        <ele>118</ele>
        <time>2021-05-14T15:07:59Z</time>
      </trkpt>
      <trkpt lat="43.63136" lon="3.77">
        <ele>118</ele>
        <time>2021-05-14T15:08:00Z</time>
      </trkpt>
      <trkpt lat="43.63134" lon="3.7701">
        <ele>118</ele>
        <time>2021-05-14T15:08:01Z</time>
      </trkpt>
      <trkpt lat="43.63133" lon="3.7702">
        <ele>118</ele>
        <time>2021-05-14T15:08:02Z</time>
      </trkpt>
      <trkpt lat="43.63132" lon="3.77029">
        <ele>118</ele>
        <time>2021-05-14T15:08:03Z</time>
      </trkpt>
      <trkpt lat="43.6313" lon="3.77038">
        <ele>118</ele>
        <time>2021-05-14T15:08:04Z</time>
      </trkpt>
      <trkpt lat="43.63128" lon="3.77047">
        <ele>118</ele>
        <time>2021-05-14T15:08:05Z</time>
      </trkpt>
      <trkpt lat="43.63127" lon="3.77056">
        <ele>118</ele>
        <time>2021-05-14T15:08:06Z</time>
      </trkpt>
      <trkpt lat="43.63125" lon="3.77065">
        <ele>118</ele>
        <time>2021-05-14T15:08:07Z</time>
      </trkpt>
      <trkpt lat="43.63124" lon="3.77074">
        <ele>118</ele>
        <time>2021-05-14T15:08:08Z</time>
      </trkpt>
      <trkpt lat="43.63123" lon="3.77084">
        <ele>118</ele>
        <time>2021-05-14T15:08:10Z</time>
      </trkpt>
      <trkpt lat="43.63121" lon="3.77093">
        <ele>118</ele>
        <time>2021-05-14T15:08:11Z</time>
      </trkpt>
      <trkpt lat="43.6312" lon="3.77102">
        <ele>118</ele>
        <time>2021-05-14T15:08:12Z</time>
      </trkpt>
      <trkpt lat="43.63118" lon="3.7711">
        <ele>118</ele>
        <time>2021-05-14T15:08:13Z</time>
      </trkpt>
      <trkpt lat="43.63117" lon="3.77119">
        <ele>118</ele>
        <time>2021-05-14T15:08:14Z</time>
      </trkpt>
      <trkpt lat="43.63116" lon="3.77128">
        <ele>118</ele>
        <time>2021-05-14T15:08:15Z</time>
      </trkpt>
      <trkpt lat="43.63115" lon="3.77136">
        <ele>118</ele>
        <time>2021-05-14T15:08:16Z</time>
      </trkpt>
      <trkpt lat="43.63114" lon="3.77145">
        <ele>118</ele>
        <time>2021-05-14T15:08:17Z</time>
      </trkpt>
      <trkpt lat="43.63113" lon="3.77153">
        <ele>118</ele>
        <time>2021-05-14T15:08:18Z</time>
      </trkpt>
      <trkpt lat="43.63112" lon="3.7716">
        <ele>114</ele>
        <time>2021-05-14T15:08:19Z</time>
      </trkpt>
      <trkpt lat="43.63111" lon="3.77167">
        <ele>114</ele>
        <time>2021-05-14T15:08:20Z</time>
      </trkpt>
      <trkpt lat="43.6311" lon="3.77172">
        <ele>114</ele>
        <time>2021-05-14T15:08:21Z</time>
      </trkpt>
      <trkpt lat="43.6311" lon="3.77175">
        <ele>114</ele>
        <time>2021-05-14T15:08:22Z</time>
      </trkpt>
      <trkpt lat="43.63109" lon="3.77178">
        <ele>114</ele>
        <time>2021-05-14T15:08:24Z</time>
      </trkpt>
      <trkpt lat="43.63107" lon="3.77181">
        <ele>110</ele>
        <time>2021-05-14T15:09:03Z</time>
      </trkpt>
      <trkpt lat="43.63106" lon="3.77181">
        <ele>110</ele>
        <time>2021-05-14T15:09:05Z</time>
      </trkpt>
      <trkpt lat="43.63101" lon="3.77175">
        <ele>110</ele>
        <time>2021-05-14T15:10:09Z</time>
      </trkpt>
      <trkpt lat="43.631" lon="3.77173">
        <ele>110</ele>
        <time>2021-05-14T15:10:10Z</time>
      </trkpt>
      <trkpt lat="43.63098" lon="3.7717">
        <ele>110</ele>
        <time>2021-05-14T15:10:11Z</time>
      </trkpt>
      <trkpt lat="43.63096" lon="3.77168">
        <ele>110</ele>
        <time>2021-05-14T15:10:12Z</time>
      </trkpt>
      <trkpt lat="43.63094" lon="3.77164">
        <ele>110</ele>
        <time>2021-05-14T15:10:13Z</time>
      </trkpt>
      <trkpt lat="43.63092" lon="3.77161">
        <ele>110</ele>
        <time>2021-05-14T15:10:14Z</time>
      </trkpt>
      <trkpt lat="43.6309" lon="3.77157">
        <ele>110</ele>
        <time>2021-05-14T15:10:15Z</time>
      </trkpt>
      <trkpt lat="43.63089" lon="3.77153">
        <ele>110</ele>
        <time>2021-05-14T15:10:16Z</time>
      </trkpt>
      <trkpt lat="43.63087" lon="3.77149">
        <ele>110</ele>
        <time>2021-05-14T15:10:17Z</time>
      </trkpt>
      <trkpt lat="43.63085" lon="3.77145">
        <ele>110</ele>
        <time>2021-05-14T15:10:18Z</time>
      </trkpt>
      <trkpt lat="43.63083" lon="3.77142">
        <ele>109</ele>
        <time>2021-05-14T15:10:19Z</time>
      </trkpt>
      <trkpt lat="43.63081" lon="3.77138">
        <ele>109</ele>
        <time>2021-05-14T15:10:20Z</time>
      </trkpt>
      <trkpt lat="43.63078" lon="3.77134">
        <ele>109</ele>
        <time>2021-05-14T15:10:21Z</time>
      </trkpt>
      <trkpt lat="43.63076" lon="3.7713">
        <ele>109</ele>
        <time>2021-05-14T15:10:22Z</time>
      </trkpt>
      <trkpt lat="43.63074" lon="3.77126">
        <ele>109</ele>
        <time>2021-05-14T15:10:23Z</time>
      </trkpt>
      <trkpt lat="43.63072" lon="3.77122">
        <ele>109</ele>
        <time>2021-05-14T15:10:24Z</time>
      </trkpt>
      <trkpt lat="43.6307" lon="3.77118">
        <ele>109</ele>
        <time>2021-05-14T15:10:25Z</time>
      </trkpt>
      <trkpt lat="43.63068" lon="3.77114">
        <ele>109</ele>
        <time>2021-05-14T15:10:26Z</time>
      </trkpt>
      <trkpt lat="43.63066" lon="3.7711">
        <ele>109</ele>
        <time>2021-05-14T15:10:27Z</time>
      </trkpt>
      <trkpt lat="43.63063" lon="3.77106">
        <ele>109</ele>
        <time>2021-05-14T15:10:28Z</time>
      </trkpt>
      <trkpt lat="43.6306" lon="3.77098">
        <ele>108</ele>
        <time>2021-05-14T15:10:29Z</time>
      </trkpt>
      <trkpt lat="43.63058" lon="3.77095">
        <ele>108</ele>
        <time>2021-05-14T15:10:30Z</time>
      </trkpt>
      <trkpt lat="43.63055" lon="3.77092">
        <ele>108</ele>
        <time>2021-05-14T15:10:31Z</time>
      </trkpt>
      <trkpt lat="43.63053" lon="3.7709">
        <ele>108</ele>
        <time>2021-05-14T15:10:32Z</time>
      </trkpt>
      <trkpt lat="43.63051" lon="3.77088">
        <ele>108</ele>
        <time>2021-05-14T15:10:33Z</time>
      </trkpt>
      <trkpt lat="43.63049" lon="3.77088">
        <ele>108</ele>
        <time>2021-05-14T15:10:34Z</time>
      </trkpt>
      <trkpt lat="43.63047" lon="3.7709">
        <ele>108</ele>
        <time>2021-05-14T15:10:35Z</time>
      </trkpt>
      <trkpt lat="43.63046" lon="3.77092">
        <ele>108</ele>
        <time>2021-05-14T15:10:36Z</time>
      </trkpt>
      <trkpt lat="43.63045" lon="3.77096">
        <ele>108</ele>
        <time>2021-05-14T15:10:37Z</time>
      </trkpt>
      <trkpt lat="43.63045" lon="3.77099">
        <ele>108</ele>
        <time>2021-05-14T15:10:38Z</time>
      </trkpt>
      <trkpt lat="43.63044" lon="3.77103">
        <ele>108</ele>
        <time>2021-05-14T15:10:40Z</time>
      </trkpt>
      <trkpt lat="43.63043" lon="3.77108">
        <ele>108</ele>
        <time>2021-05-14T15:10:41Z</time>
      </trkpt>
      <trkpt lat="43.63043" lon="3.77113">
        <ele>108</ele>
        <time>2021-05-14T15:10:42Z</time>
      </trkpt>
      <trkpt lat="43.63042" lon="3.77118">
        <ele>108</ele>
        <time>2021-05-14T15:10:43Z</time>
      </trkpt>
      <trkpt lat="43.63042" lon="3.77124">
        <ele>108</ele>
        <time>2021-05-14T15:10:44Z</time>
      </trkpt>
      <trkpt lat="43.63041" lon="3.77129">
        <ele>108</ele>
        <time>2021-05-14T15:10:45Z</time>
      </trkpt>
      <trkpt lat="43.6304" lon="3.77135">
        <ele>108</ele>
        <time>2021-05-14T15:10:46Z</time>
      </trkpt>
      <trkpt lat="43.6304" lon="3.77141">
        <ele>108</ele>
        <time>2021-05-14T15:10:47Z</time>
      </trkpt>
      <trkpt lat="43.63039" lon="3.77148">
        <ele>108</ele>
        <time>2021-05-14T15:10:48Z</time>
      </trkpt>
      <trkpt lat="43.63038" lon="3.77154">
        <ele>105</ele>
        <time>2021-05-14T15:10:49Z</time>
      </trkpt>
      <trkpt lat="43.63037" lon="3.7716">
        <ele>105</ele>
        <time>2021-05-14T15:10:50Z</time>
      </trkpt>
      <trkpt lat="43.63036" lon="3.77167">
        <ele>105</ele>
        <time>2021-05-14T15:10:51Z</time>
      </trkpt>
      <trkpt lat="43.63035" lon="3.77174">
        <ele>105</ele>
        <time>2021-05-14T15:10:52Z</time>
      </trkpt>
      <trkpt lat="43.63034" lon="3.77181">
        <ele>105</ele>
        <time>2021-05-14T15:10:53Z</time>
      </trkpt>
      <trkpt lat="43.63033" lon="3.77188">
        <ele>105</ele>
        <time>2021-05-14T15:10:54Z</time>
      </trkpt>
      <trkpt lat="43.63032" lon="3.77195">
        <ele>105</ele>
        <time>2021-05-14T15:10:55Z</time>
      </trkpt>
      <trkpt lat="43.63031" lon="3.77202">
        <ele>105</ele>
        <time>2021-05-14T15:10:56Z</time>
      </trkpt>
      <trkpt lat="43.6303" lon="3.7721">
        <ele>105</ele>
        <time>2021-05-14T15:10:57Z</time>
      </trkpt>
      <trkpt lat="43.63028" lon="3.77218">
        <ele>105</ele>
        <time>2021-05-14T15:10:58Z</time>
      </trkpt>
      <trkpt lat="43.63027" lon="3.77225">
        <ele>103</ele>
        <time>2021-05-14T15:10:59Z</time>
      </trkpt>
      <trkpt lat="43.63025" lon="3.77233">
        <ele>103</ele>
        <time>2021-05-14T15:11:00Z</time>
      </trkpt>
      <trkpt lat="43.63024" lon="3.77241">
        <ele>103</ele>
        <time>2021-05-14T15:11:01Z</time>
      </trkpt>
      <trkpt lat="43.63022" lon="3.77249">
        <ele>103</ele>
        <time>2021-05-14T15:11:02Z</time>
      </trkpt>
      <trkpt lat="43.6302" lon="3.77257">
        <ele>103</ele>
        <time>2021-05-14T15:11:03Z</time>
      </trkpt>
      <trkpt lat="43.63018" lon="3.77265">
        <ele>103</ele>
        <time>2021-05-14T15:11:04Z</time>
      </trkpt>
      <trkpt lat="43.63017" lon="3.77273">
        <ele>103</ele>
        <time>2021-05-14T15:11:05Z</time>
      </trkpt>
      <trkpt lat="43.63015" lon="3.77281">
        <ele>103</ele>
        <time>2021-05-14T15:11:06Z</time>
      </trkpt>
      <trkpt lat="43.63013" lon="3.7729">
        <ele>103</ele>
        <time>2021-05-14T15:11:07Z</time>
      </trkpt>
      <trkpt lat="43.63011" lon="3.77298">
        <ele>103</ele>
        <time>2021-05-14T15:11:08Z</time>
      </trkpt>
      <trkpt lat="43.63009" lon="3.77306">
        <ele>102</ele>
        <time>2021-05-14T15:11:09Z</time>
      </trkpt>
      <trkpt lat="43.63007" lon="3.77315">
        <ele>102</ele>
        <time>2021-05-14T15:11:10Z</time>
      </trkpt>
      <trkpt lat="43.63005" lon="3.77322">
        <ele>102</ele>
        <time>2021-05-14T15:11:11Z</time>
      </trkpt>
      <trkpt lat="43.63004" lon="3.7733">
        <ele>102</ele>
        <time>2021-05-14T15:11:12Z</time>
      </trkpt>
      <trkpt lat="43.63002" lon="3.77338">
        <ele>102</ele>
        <time>2021-05-14T15:11:13Z</time>
      </trkpt>
      <trkpt lat="43.63" lon="3.77345">
        <ele>102</ele>
        <time>2021-05-14T15:11:14Z</time>
      </trkpt>
      <trkpt lat="43.62998" lon="3.77351">
        <ele>102</ele>
        <time>2021-05-14T15:11:15Z</time>
      </trkpt>
      <trkpt lat="43.62997" lon="3.77358">
        <ele>102</ele>
        <time>2021-05-14T15:11:16Z</time>
      </trkpt>
      <trkpt lat="43.62995" lon="3.77364">
        <ele>102</ele>
        <time>2021-05-14T15:11:17Z</time>
      </trkpt>
      <trkpt lat="43.62994" lon="3.7737">
        <ele>102</ele>
        <time>2021-05-14T15:11:18Z</time>
      </trkpt>
      <trkpt lat="43.62992" lon="3.77376">
        <ele>101</ele>
        <time>2021-05-14T15:11:19Z</time>
      </trkpt>
      <trkpt lat="43.62991" lon="3.77382">
        <ele>101</ele>
        <time>2021-05-14T15:11:20Z</time>
      </trkpt>
      <trkpt lat="43.62989" lon="3.77388">
        <ele>101</ele>
        <time>2021-05-14T15:11:21Z</time>
      </trkpt>
      <trkpt lat="43.62988" lon="3.77394">
        <ele>101</ele>
        <time>2021-05-14T15:11:22Z</time>
      </trkpt>
      <trkpt lat="43.62987" lon="3.774">
        <ele>101</ele>
        <time>2021-05-14T15:11:23Z</time>
      </trkpt>
      <trkpt lat="43.62985" lon="3.77406">
        <ele>101</ele>
        <time>2021-05-14T15:11:24Z</time>
      </trkpt>
      <trkpt lat="43.62984" lon="3.77412">
        <ele>101</ele>
        <time>2021-05-14T15:11:25Z</time>
      </trkpt>
      <trkpt lat="43.62983" lon="3.77417">
        <ele>101</ele>
        <time>2021-05-14T15:11:26Z</time>
      </trkpt>
      <trkpt lat="43.62982" lon="3.77421">
        <ele>101</ele>
        <time>2021-05-14T15:11:27Z</time>
      </trkpt>
      <trkpt lat="43.62981" lon="3.77426">
        <ele>101</ele>
        <time>2021-05-14T15:11:28Z</time>
      </trkpt>
      <trkpt lat="43.6298" lon="3.7743">
        <ele>101</ele>
        <time>2021-05-14T15:11:29Z</time>
      </trkpt>
      <trkpt lat="43.62978" lon="3.77435">
        <ele>101</ele>
        <time>2021-05-14T15:11:30Z</time>
      </trkpt>
      <trkpt lat="43.62978" lon="3.77439">
        <ele>101</ele>
        <time>2021-05-14T15:11:31Z</time>
      </trkpt>
      <trkpt lat="43.62977" lon="3.77442">
        <ele>101</ele>
        <time>2021-05-14T15:11:32Z</time>
      </trkpt>
      <trkpt lat="43.62977" lon="3.77446">
        <ele>101</ele>
        <time>2021-05-14T15:11:33Z</time>
      </trkpt>
      <trkpt lat="43.62977" lon="3.7745">
        <ele>101</ele>
        <time>2021-05-14T15:11:34Z</time>
      </trkpt>
      <trkpt lat="43.62977" lon="3.77453">
        <ele>101</ele>
        <time>2021-05-14T15:11:35Z</time>
      </trkpt>
      <trkpt lat="43.62981" lon="3.77456">
        <ele>101</ele>
        <time>2021-05-14T15:11:37Z</time>
      </trkpt>
      <trkpt lat="43.62984" lon="3.77459">
        <ele>101</ele>
        <time>2021-05-14T15:11:38Z</time>
      </trkpt>
      <trkpt lat="43.62986" lon="3.77463">
        <ele>101</ele>
        <time>2021-05-14T15:11:39Z</time>
      </trkpt>
      <trkpt lat="43.62987" lon="3.77468">
        <ele>101</ele>
        <time>2021-05-14T15:11:40Z</time>
      </trkpt>
      <trkpt lat="43.62988" lon="3.77472">
        <ele>101</ele>
        <time>2021-05-14T15:11:41Z</time>
      </trkpt>
      <trkpt lat="43.62989" lon="3.77476">
        <ele>101</ele>
        <time>2021-05-14T15:11:42Z</time>
      </trkpt>
      <trkpt lat="43.6299" lon="3.77481">
        <ele>101</ele>
        <time>2021-05-14T15:11:43Z</time>
      </trkpt>
      <trkpt lat="43.62991" lon="3.77485">
        <ele>101</ele>
        <time>2021-05-14T15:11:44Z</time>
      </trkpt>
      <trkpt lat="43.62992" lon="3.77491">
        <ele>101</ele>
        <time>2021-05-14T15:11:45Z</time>
      </trkpt>
      <trkpt lat="43.62991" lon="3.77497">
        <ele>101</ele>
        <time>2021-05-14T15:11:46Z</time>
      </trkpt>
      <trkpt lat="43.62989" lon="3.77502">
        <ele>101</ele>
        <time>2021-05-14T15:11:47Z</time>
      </trkpt>
      <trkpt lat="43.62985" lon="3.77506">
        <ele>101</ele>
        <time>2021-05-14T15:11:48Z</time>
      </trkpt>
      <trkpt lat="43.6298" lon="3.77508">
        <ele>99</ele>
        <time>2021-05-14T15:11:49Z</time>
      </trkpt>
      <trkpt lat="43.62976" lon="3.77507">
        <ele>99</ele>
        <time>2021-05-14T15:11:50Z</time>
      </trkpt>
      <trkpt lat="43.62971" lon="3.77506">
        <ele>99</ele>
        <time>2021-05-14T15:11:51Z</time>
      </trkpt>
      <trkpt lat="43.62966" lon="3.77505">
        <ele>99</ele>
        <time>2021-05-14T15:11:52Z</time>
      </trkpt>
      <trkpt lat="43.62942" lon="3.77506">
        <ele>99</ele>
        <time>2021-05-14T15:11:58Z</time>
      </trkpt>
      <trkpt lat="43.62941" lon="3.77488">
        <ele>98</ele>
        <time>2021-05-14T15:11:59Z</time>
      </trkpt>
      <trkpt lat="43.6294" lon="3.77475">
        <ele>98</ele>
        <time>2021-05-14T15:12:03Z</time>
      </trkpt>
      <trkpt lat="43.62939" lon="3.77473">
        <ele>98</ele>
        <time>2021-05-14T15:12:04Z</time>
      </trkpt>
      <trkpt lat="43.62935" lon="3.77472">
        <ele>98</ele>
        <time>2021-05-14T15:12:05Z</time>
      </trkpt>
      <trkpt lat="43.62931" lon="3.7747">
        <ele>98</ele>
        <time>2021-05-14T15:12:06Z</time>
      </trkpt>
      <trkpt lat="43.62928" lon="3.77468">
        <ele>98</ele>
        <time>2021-05-14T15:12:07Z</time>
      </trkpt>
      <trkpt lat="43.62925" lon="3.77464">
        <ele>98</ele>
        <time>2021-05-14T15:12:08Z</time>
      </trkpt>
      <trkpt lat="43.62922" lon="3.77461">
        <ele>98</ele>
        <time>2021-05-14T15:12:10Z</time>
      </trkpt>
      <trkpt lat="43.62919" lon="3.77458">
        <ele>98</ele>
        <time>2021-05-14T15:12:11Z</time>
      </trkpt>
      <trkpt lat="43.62915" lon="3.77455">
        <ele>98</ele>
        <time>2021-05-14T15:12:12Z</time>
      </trkpt>
      <trkpt lat="43.62912" lon="3.77452">
        <ele>98</ele>
        <time>2021-05-14T15:12:13Z</time>
      </trkpt>
      <trkpt lat="43.62909" lon="3.7745">
        <ele>98</ele>
        <time>2021-05-14T15:12:14Z</time>
      </trkpt>
      <trkpt lat="43.62905" lon="3.77448">
        <ele>98</ele>
        <time>2021-05-14T15:12:15Z</time>
      </trkpt>
      <trkpt lat="43.62902" lon="3.77445">
        <ele>98</ele>
        <time>2021-05-14T15:12:16Z</time>
      </trkpt>
      <trkpt lat="43.62899" lon="3.77443">
        <ele>98</ele>
        <time>2021-05-14T15:12:17Z</time>
      </trkpt>
      <trkpt lat="43.62896" lon="3.7744">
        <ele>98</ele>
        <time>2021-05-14T15:12:18Z</time>
      </trkpt>
      <trkpt lat="43.62883" lon="3.77442">
        <ele>98</ele>
        <time>2021-05-14T15:12:21Z</time>
      </trkpt>
      <trkpt lat="43.62872" lon="3.77439">
        <ele>98</ele>
        <time>2021-05-14T15:12:24Z</time>
      </trkpt>
      <trkpt lat="43.62867" lon="3.77439">
        <ele>98</ele>
        <time>2021-05-14T15:12:25Z</time>
      </trkpt>
      <trkpt lat="43.62863" lon="3.77439">
        <ele>98</ele>
        <time>2021-05-14T15:12:26Z</time>
      </trkpt>
      <trkpt lat="43.62859" lon="3.77439">
        <ele>98</ele>
        <time>2021-05-14T15:12:27Z</time>
      </trkpt>
      <trkpt lat="43.62855" lon="3.77439">
        <ele>98</ele>
        <time>2021-05-14T15:12:28Z</time>
      </trkpt>
      <trkpt lat="43.62851" lon="3.77439">
        <ele>95</ele>
        <time>2021-05-14T15:12:29Z</time>
      </trkpt>
      <trkpt lat="43.62847" lon="3.7744">
        <ele>95</ele>
        <time>2021-05-14T15:12:30Z</time>
      </trkpt>
      <trkpt lat="43.62843" lon="3.77441">
        <ele>95</ele>
        <time>2021-05-14T15:12:31Z</time>
      </trkpt>
      <trkpt lat="43.62839" lon="3.77443">
        <ele>95</ele>
        <time>2021-05-14T15:12:32Z</time>
      </trkpt>
      <trkpt lat="43.62835" lon="3.77445">
        <ele>95</ele>
        <time>2021-05-14T15:12:33Z</time>
      </trkpt>
      <trkpt lat="43.62832" lon="3.77447">
        <ele>95</ele>
        <time>2021-05-14T15:12:34Z</time>
      </trkpt>
      <trkpt lat="43.62828" lon="3.77449">
        <ele>95</ele>
        <time>2021-05-14T15:12:35Z</time>
      </trkpt>
      <trkpt lat="43.62825" lon="3.77452">
        <ele>95</ele>
        <time>2021-05-14T15:12:36Z</time>
      </trkpt>
      <trkpt lat="43.62822" lon="3.77455">
        <ele>95</ele>
        <time>2021-05-14T15:12:37Z</time>
      </trkpt>
      <trkpt lat="43.6282" lon="3.77458">
        <ele>95</ele>
        <time>2021-05-14T15:12:38Z</time>
      </trkpt>
      <trkpt lat="43.62818" lon="3.77461">
        <ele>95</ele>
        <time>2021-05-14T15:12:39Z</time>
      </trkpt>
      <trkpt lat="43.62816" lon="3.77464">
        <ele>95</ele>
        <time>2021-05-14T15:12:40Z</time>
      </trkpt>
      <trkpt lat="43.62813" lon="3.77465">
        <ele>95</ele>
        <time>2021-05-14T15:12:41Z</time>
      </trkpt>
      <trkpt lat="43.6281" lon="3.77466">
        <ele>95</ele>
        <time>2021-05-14T15:12:42Z</time>
      </trkpt>
      <trkpt lat="43.62807" lon="3.77467">
        <ele>95</ele>
        <time>2021-05-14T15:12:43Z</time>
      </trkpt>
      <trkpt lat="43.62804" lon="3.77469">
        <ele>95</ele>
        <time>2021-05-14T15:12:44Z</time>
      </trkpt>
      <trkpt lat="43.62802" lon="3.77471">
        <ele>95</ele>
        <time>2021-05-14T15:12:45Z</time>
      </trkpt>
      <trkpt lat="43.62799" lon="3.77474">
        <ele>95</ele>
        <time>2021-05-14T15:12:46Z</time>
      </trkpt>
      <trkpt lat="43.62796" lon="3.77476">
        <ele>95</ele>
        <time>2021-05-14T15:12:47Z</time>
      </trkpt>
      <trkpt lat="43.62792" lon="3.77479">
        <ele>95</ele>
        <time>2021-05-14T15:12:48Z</time>
      </trkpt>
      <trkpt lat="43.62789" lon="3.77483">
        <ele>94</ele>
        <time>2021-05-14T15:12:49Z</time>
      </trkpt>
      <trkpt lat="43.62787" lon="3.77487">
        <ele>94</ele>
        <time>2021-05-14T15:12:50Z</time>
      </trkpt>
      <trkpt lat="43.62784" lon="3.77492">
        <ele>94</ele>
        <time>2021-05-14T15:12:51Z</time>
      </trkpt>
      <trkpt lat="43.62781" lon="3.77496">
        <ele>94</ele>
        <time>2021-05-14T15:12:52Z</time>
      </trkpt>
      <trkpt lat="43.62779" lon="3.775">
        <ele>94</ele>
        <time>2021-05-14T15:12:53Z</time>
      </trkpt>
      <trkpt lat="43.62777" lon="3.77505">
        <ele>94</ele>
        <time>2021-05-14T15:12:54Z</time>
      </trkpt>
      <trkpt lat="43.62775" lon="3.77508">
        <ele>94</ele>
        <time>2021-05-14T15:12:55Z</time>
      </trkpt>
      <trkpt lat="43.62772" lon="3.77511">
        <ele>94</ele>
        <time>2021-05-14T15:12:56Z</time>
      </trkpt>
      <trkpt lat="43.62768" lon="3.77512">
        <ele>94</ele>
        <time>2021-05-14T15:12:57Z</time>
      </trkpt>
      <trkpt lat="43.62765" lon="3.77512">
        <ele>94</ele>
        <time>2021-05-14T15:12:58Z</time>
      </trkpt>
      <trkpt lat="43.62761" lon="3.77514">
        <ele>94</ele>
        <time>2021-05-14T15:12:59Z</time>
      </trkpt>
      <trkpt lat="43.62757" lon="3.77517">
        <ele>94</ele>
        <time>2021-05-14T15:13:00Z</time>
      </trkpt>
      <trkpt lat="43.62754" lon="3.77521">
        <ele>94</ele>
        <time>2021-05-14T15:13:01Z</time>
      </trkpt>
      <trkpt lat="43.62751" lon="3.77525">
        <ele>94</ele>
        <time>2021-05-14T15:13:02Z</time>
      </trkpt>
      <trkpt lat="43.62748" lon="3.77529">
        <ele>94</ele>
        <time>2021-05-14T15:13:03Z</time>
      </trkpt>
      <trkpt lat="43.62745" lon="3.77532">
        <ele>94</ele>
        <time>2021-05-14T15:13:04Z</time>
      </trkpt>
      <trkpt lat="43.62743" lon="3.77536">
        <ele>94</ele>
        <time>2021-05-14T15:13:05Z</time>
      </trkpt>
      <trkpt lat="43.6274" lon="3.7754">
        <ele>94</ele>
        <time>2021-05-14T15:13:06Z</time>
      </trkpt>
      <trkpt lat="43.62738" lon="3.77544">
        <ele>94</ele>
        <time>2021-05-14T15:13:07Z</time>
      </trkpt>
      <trkpt lat="43.62734" lon="3.77548">
        <ele>94</ele>
        <time>2021-05-14T15:13:08Z</time>
      </trkpt>
      <trkpt lat="43.62731" lon="3.77551">
        <ele>94</ele>
        <time>2021-05-14T15:13:09Z</time>
      </trkpt>
      <trkpt lat="43.62728" lon="3.77554">
        <ele>94</ele>
        <time>2021-05-14T15:13:10Z</time>
      </trkpt>
      <trkpt lat="43.62726" lon="3.77557">
        <ele>94</ele>
        <time>2021-05-14T15:13:11Z</time>
      </trkpt>
      <trkpt lat="43.62723" lon="3.7756">
        <ele>94</ele>
        <time>2021-05-14T15:13:12Z</time>
      </trkpt>
      <trkpt lat="43.6272" lon="3.77563">
        <ele>94</ele>
        <time>2021-05-14T15:13:13Z</time>
      </trkpt>
      <trkpt lat="43.62718" lon="3.77567">
        <ele>94</ele>
        <time>2021-05-14T15:13:14Z</time>
      </trkpt>
      <trkpt lat="43.62716" lon="3.7757">
        <ele>94</ele>
        <time>2021-05-14T15:13:15Z</time>
      </trkpt>
      <trkpt lat="43.62715" lon="3.77573">
        <ele>94</ele>
        <time>2021-05-14T15:13:16Z</time>
      </trkpt>
      <trkpt lat="43.62714" lon="3.77577">
        <ele>94</ele>
        <time>2021-05-14T15:13:17Z</time>
      </trkpt>
      <trkpt lat="43.62713" lon="3.77581">
        <ele>94</ele>
        <time>2021-05-14T15:13:18Z</time>
      </trkpt>
      <trkpt lat="43.62713" lon="3.77585">
        <ele>93</ele>
        <time>2021-05-14T15:13:19Z</time>
      </trkpt>
      <trkpt lat="43.62713" lon="3.77589">
        <ele>93</ele>
        <time>2021-05-14T15:13:20Z</time>
      </trkpt>
      <trkpt lat="43.62714" lon="3.77593">
        <ele>93</ele>
        <time>2021-05-14T15:13:21Z</time>
      </trkpt>
      <trkpt lat="43.62714" lon="3.77598">
        <ele>93</ele>
        <time>2021-05-14T15:13:22Z</time>
      </trkpt>
      <trkpt lat="43.62714" lon="3.77603">
        <ele>93</ele>
        <time>2021-05-14T15:13:23Z</time>
      </trkpt>
      <trkpt lat="43.62715" lon="3.77607">
        <ele>93</ele>
        <time>2021-05-14T15:13:24Z</time>
      </trkpt>
      <trkpt lat="43.62715" lon="3.77612">
        <ele>93</ele>
        <time>2021-05-14T15:13:25Z</time>
      </trkpt>
      <trkpt lat="43.62716" lon="3.77617">
        <ele>93</ele>
        <time>2021-05-14T15:13:26Z</time>
      </trkpt>
      <trkpt lat="43.62717" lon="3.77623">
        <ele>93</ele>
        <time>2021-05-14T15:13:27Z</time>
      </trkpt>
      <trkpt lat="43.62718" lon="3.77629">
        <ele>93</ele>
        <time>2021-05-14T15:13:28Z</time>
      </trkpt>
      <trkpt lat="43.62718" lon="3.77634">
        <ele>92</ele>
        <time>2021-05-14T15:13:29Z</time>
      </trkpt>
      <trkpt lat="43.6272" lon="3.7764">
        <ele>92</ele>
        <time>2021-05-14T15:13:30Z</time>
      </trkpt>
      <trkpt lat="43.62721" lon="3.77645">
        <ele>92</ele>
        <time>2021-05-14T15:13:31Z</time>
      </trkpt>
      <trkpt lat="43.62723" lon="3.7765">
        <ele>92</ele>
        <time>2021-05-14T15:13:32Z</time>
      </trkpt>
      <trkpt lat="43.62723" lon="3.77656">
        <ele>92</ele>
        <time>2021-05-14T15:13:33Z</time>
      </trkpt>
      <trkpt lat="43.62724" lon="3.77661">
        <ele>92</ele>
        <time>2021-05-14T15:13:34Z</time>
      </trkpt>
      <trkpt lat="43.62724" lon="3.77665">
        <ele>92</ele>
        <time>2021-05-14T15:13:35Z</time>
      </trkpt>
      <trkpt lat="43.62724" lon="3.7767">
        <ele>92</ele>
        <time>2021-05-14T15:13:36Z</time>
      </trkpt>
      <trkpt lat="43.62723" lon="3.77674">
        <ele>92</ele>
        <time>2021-05-14T15:13:37Z</time>
      </trkpt>
      <trkpt lat="43.62723" lon="3.77677">
        <ele>92</ele>
        <time>2021-05-14T15:13:38Z</time>
      </trkpt>
      <trkpt lat="43.62723" lon="3.77684">
        <ele>93</ele>
        <time>2021-05-14T15:13:39Z</time>
      </trkpt>
      <trkpt lat="43.62723" lon="3.77687">
        <ele>93</ele>
        <time>2021-05-14T15:13:40Z</time>
      </trkpt>
      <trkpt lat="43.62722" lon="3.7769">
        <ele>93</ele>
        <time>2021-05-14T15:13:41Z</time>
      </trkpt>
      <trkpt lat="43.62722" lon="3.77692">
        <ele>93</ele>
        <time>2021-05-14T15:13:42Z</time>
      </trkpt>
      <trkpt lat="43.62722" lon="3.77695">
        <ele>93</ele>
        <time>2021-05-14T15:13:43Z</time>
      </trkpt>
      <trkpt lat="43.62721" lon="3.777">
        <ele>93</ele>
        <time>2021-05-14T15:13:45Z</time>
      </trkpt>
      <trkpt lat="43.62721" lon="3.77704">
        <ele>93</ele>
        <time>2021-05-14T15:13:47Z</time>
      </trkpt>
      <trkpt lat="43.6272" lon="3.77708">
        <ele>93</ele>
        <time>2021-05-14T15:13:50Z</time>
      </trkpt>
      <trkpt lat="43.62719" lon="3.77712">
        <ele>93</ele>
        <time>2021-05-14T15:13:52Z</time>
      </trkpt>
      <trkpt lat="43.62717" lon="3.77715">
        <ele>93</ele>
        <time>2021-05-14T15:13:54Z</time>
      </trkpt>
      <trkpt lat="43.62715" lon="3.77719">
        <ele>93</ele>
        <time>2021-05-14T15:13:56Z</time>
      </trkpt>
      <trkpt lat="43.62713" lon="3.77722">
        <ele>93</ele>
        <time>2021-05-14T15:13:58Z</time>
      </trkpt>
      <trkpt lat="43.62711" lon="3.77724">
        <ele>96</ele>
        <time>2021-05-14T15:13:59Z</time>
      </trkpt>
      <trkpt lat="43.62709" lon="3.77725">
        <ele>96</ele>
        <time>2021-05-14T15:14:01Z</time>
      </trkpt>
      <trkpt lat="43.62707" lon="3.77727">
        <ele>96</ele>
        <time>2021-05-14T15:14:03Z</time>
      </trkpt>
      <trkpt lat="43.62704" lon="3.77729">
        <ele>96</ele>
        <time>2021-05-14T15:14:05Z</time>
      </trkpt>
      <trkpt lat="43.62701" lon="3.7773">
        <ele>96</ele>
        <time>2021-05-14T15:14:07Z</time>
      </trkpt>
      <trkpt lat="43.62699" lon="3.7773">
        <ele>96</ele>
        <time>2021-05-14T15:14:08Z</time>
      </trkpt>
      <trkpt lat="43.62696" lon="3.77729">
        <ele>96</ele>
        <time>2021-05-14T15:14:11Z</time>
      </trkpt>
      <trkpt lat="43.62694" lon="3.77726">
        <ele>96</ele>
        <time>2021-05-14T15:14:13Z</time>
      </trkpt>
      <trkpt lat="43.62692" lon="3.77723">
        <ele>96</ele>
        <time>2021-05-14T15:14:15Z</time>
      </trkpt>
      <trkpt lat="43.6269" lon="3.77721">
        <ele>96</ele>
        <time>2021-05-14T15:14:17Z</time>
      </trkpt>
      <trkpt lat="43.62686" lon="3.77721">
        <ele>99</ele>
        <time>2021-05-14T15:14:19Z</time>
      </trkpt>
      <trkpt lat="43.62684" lon="3.77721">
        <ele>99</ele>
        <time>2021-05-14T15:14:20Z</time>
      </trkpt>
      <trkpt lat="43.62683" lon="3.77722">
        <ele>99</ele>
        <time>2021-05-14T15:14:21Z</time>
      </trkpt>
      <trkpt lat="43.62681" lon="3.77724">
        <ele>99</ele>
        <time>2021-05-14T15:14:22Z</time>
      </trkpt>
      <trkpt lat="43.62679" lon="3.77726">
        <ele>99</ele>
        <time>2021-05-14T15:14:23Z</time>
      </trkpt>
      <trkpt lat="43.62678" lon="3.77728">
        <ele>99</ele>
        <time>2021-05-14T15:14:24Z</time>
      </trkpt>
      <trkpt lat="43.62676" lon="3.7773">
        <ele>99</ele>
        <time>2021-05-14T15:14:25Z</time>
      </trkpt>
      <trkpt lat="43.62674" lon="3.77731">
        <ele>99</ele>
        <time>2021-05-14T15:14:26Z</time>
      </trkpt>
      <trkpt lat="43.62672" lon="3.77733">
        <ele>99</ele>
        <time>2021-05-14T15:14:27Z</time>
      </trkpt>
      <trkpt lat="43.6267" lon="3.77734">
        <ele>99</ele>
        <time>2021-05-14T15:14:28Z</time>
      </trkpt>
      <trkpt lat="43.62668" lon="3.77735">
        <ele>100</ele>
        <time>2021-05-14T15:14:29Z</time>
      </trkpt>
      <trkpt lat="43.62666" lon="3.77736">
        <ele>100</ele>
        <time>2021-05-14T15:14:30Z</time>
      </trkpt>
      <trkpt lat="43.62664" lon="3.77737">
        <ele>100</ele>
        <time>2021-05-14T15:14:31Z</time>
      </trkpt>
      <trkpt lat="43.62663" lon="3.77739">
        <ele>100</ele>
        <time>2021-05-14T15:14:32Z</time>
      </trkpt>
      <trkpt lat="43.62661" lon="3.77741">
        <ele>100</ele>
        <time>2021-05-14T15:14:33Z</time>
      </trkpt>
      <trkpt lat="43.62658" lon="3.77743">
        <ele>100</ele>
        <time>2021-05-14T15:14:34Z</time>
      </trkpt>
      <trkpt lat="43.62656" lon="3.77745">
        <ele>100</ele>
        <time>2021-05-14T15:14:35Z</time>
      </trkpt>
      <trkpt lat="43.62653" lon="3.77747">
        <ele>100</ele>
        <time>2021-05-14T15:14:36Z</time>
      </trkpt>
      <trkpt lat="43.6265" lon="3.7775">
        <ele>100</ele>
        <time>2021-05-14T15:14:37Z</time>
      </trkpt>
      <trkpt lat="43.62647" lon="3.77752">
        <ele>100</ele>
        <time>2021-05-14T15:14:38Z</time>
      </trkpt>
      <trkpt lat="43.62643" lon="3.77756">
        <ele>100</ele>
        <time>2021-05-14T15:14:39Z</time>
      </trkpt>
      <trkpt lat="43.62639" lon="3.77761">
        <ele>100</ele>
        <time>2021-05-14T15:14:40Z</time>
      </trkpt>
      <trkpt lat="43.62635" lon="3.77768">
        <ele>100</ele>
        <time>2021-05-14T15:14:41Z</time>
      </trkpt>
      <trkpt lat="43.6263" lon="3.77774">
        <ele>100</ele>
        <time>2021-05-14T15:14:42Z</time>
      </trkpt>
      <trkpt lat="43.62623" lon="3.7778">
        <ele>100</ele>
        <time>2021-05-14T15:14:43Z</time>
      </trkpt>
      <trkpt lat="43.62616" lon="3.77784">
        <ele>100</ele>
        <time>2021-05-14T15:14:44Z</time>
      </trkpt>
      <trkpt lat="43.62608" lon="3.77787">
        <ele>100</ele>
        <time>2021-05-14T15:14:45Z</time>
      </trkpt>
      <trkpt lat="43.62598" lon="3.77787">
        <ele>100</ele>
        <time>2021-05-14T15:14:46Z</time>
      </trkpt>
      <trkpt lat="43.62589" lon="3.77785">
        <ele>100</ele>
        <time>2021-05-14T15:14:47Z</time>
      </trkpt>
      <trkpt lat="43.6258" lon="3.77782">
        <ele>100</ele>
        <time>2021-05-14T15:14:48Z</time>
      </trkpt>
      <trkpt lat="43.62571" lon="3.77779">
        <ele>92</ele>
        <time>2021-05-14T15:14:49Z</time>
      </trkpt>
      <trkpt lat="43.62562" lon="3.77775">
        <ele>92</ele>
        <time>2021-05-14T15:14:50Z</time>
      </trkpt>
      <trkpt lat="43.62554" lon="3.77773">
        <ele>92</ele>
        <time>2021-05-14T15:14:51Z</time>
      </trkpt>
      <trkpt lat="43.62545" lon="3.77771">
        <ele>92</ele>
        <time>2021-05-14T15:14:52Z</time>
      </trkpt>
      <trkpt lat="43.62536" lon="3.7777">
        <ele>92</ele>
        <time>2021-05-14T15:14:53Z</time>
      </trkpt>
      <trkpt lat="43.62528" lon="3.7777">
        <ele>92</ele>
        <time>2021-05-14T15:14:54Z</time>
      </trkpt>
      <trkpt lat="43.6252" lon="3.77771">
        <ele>92</ele>
        <time>2021-05-14T15:14:55Z</time>
      </trkpt>
      <trkpt lat="43.62512" lon="3.77771">
        <ele>92</ele>
        <time>2021-05-14T15:14:56Z</time>
      </trkpt>
      <trkpt lat="43.62504" lon="3.77772">
        <ele>92</ele>
        <time>2021-05-14T15:14:57Z</time>
      </trkpt>
      <trkpt lat="43.62496" lon="3.77774">
        <ele>92</ele>
        <time>2021-05-14T15:14:58Z</time>
      </trkpt>
      <trkpt lat="43.62488" lon="3.77776">
        <ele>90</ele>
        <time>2021-05-14T15:14:59Z</time>
      </trkpt>
      <trkpt lat="43.62481" lon="3.77779">
        <ele>90</ele>
        <time>2021-05-14T15:15:00Z</time>
      </trkpt>
      <trkpt lat="43.62474" lon="3.77782">
        <ele>90</ele>
        <time>2021-05-14T15:15:01Z</time>
      </trkpt>
      <trkpt lat="43.62467" lon="3.77786">
        <ele>90</ele>
        <time>2021-05-14T15:15:02Z</time>
      </trkpt>
      <trkpt lat="43.6246" lon="3.7779">
        <ele>90</ele>
        <time>2021-05-14T15:15:03Z</time>
      </trkpt>
      <trkpt lat="43.62453" lon="3.77794">
        <ele>90</ele>
        <time>2021-05-14T15:15:04Z</time>
      </trkpt>
      <trkpt lat="43.62447" lon="3.77799">
        <ele>90</ele>
        <time>2021-05-14T15:15:05Z</time>
      </trkpt>
      <trkpt lat="43.6244" lon="3.77804">
        <ele>90</ele>
        <time>2021-05-14T15:15:06Z</time>
      </trkpt>
      <trkpt lat="43.62433" lon="3.77808">
        <ele>90</ele>
        <time>2021-05-14T15:15:07Z</time>
      </trkpt>
      <trkpt lat="43.62427" lon="3.77812">
        <ele>90</ele>
        <time>2021-05-14T15:15:08Z</time>
      </trkpt>
      <trkpt lat="43.6242" lon="3.77816">
        <ele>89</ele>
        <time>2021-05-14T15:15:09Z</time>
      </trkpt>
      <trkpt lat="43.62413" lon="3.7782">
        <ele>89</ele>
        <time>2021-05-14T15:15:10Z</time>
      </trkpt>
      <trkpt lat="43.62406" lon="3.77825">
        <ele>89</ele>
        <time>2021-05-14T15:15:11Z</time>
      </trkpt>
      <trkpt lat="43.62399" lon="3.7783">
        <ele>89</ele>
        <time>2021-05-14T15:15:12Z</time>
      </trkpt>
      <trkpt lat="43.62392" lon="3.77835">
        <ele>89</ele>
        <time>2021-05-14T15:15:13Z</time>
      </trkpt>
      <trkpt lat="43.62385" lon="3.77841">
        <ele>89</ele>
        <time>2021-05-14T15:15:14Z</time>
      </trkpt>
      <trkpt lat="43.62379" lon="3.77849">
        <ele>89</ele>
        <time>2021-05-14T15:15:15Z</time>
      </trkpt>
      <trkpt lat="43.62373" lon="3.77856">
        <ele>89</ele>
        <time>2021-05-14T15:15:16Z</time>
      </trkpt>
      <trkpt lat="43.62367" lon="3.77863">
        <ele>89</ele>
        <time>2021-05-14T15:15:17Z</time>
      </trkpt>
      <trkpt lat="43.62361" lon="3.7787">
        <ele>89</ele>
        <time>2021-05-14T15:15:18Z</time>
      </trkpt>
      <trkpt lat="43.62356" lon="3.77876">
        <ele>90</ele>
        <time>2021-05-14T15:15:19Z</time>
      </trkpt>
      <trkpt lat="43.62351" lon="3.77882">
        <ele>90</ele>
        <time>2021-05-14T15:15:20Z</time>
      </trkpt>
      <trkpt lat="43.62347" lon="3.77887">
        <ele>90</ele>
        <time>2021-05-14T15:15:21Z</time>
      </trkpt>
      <trkpt lat="43.62343" lon="3.77892">
        <ele>90</ele>
        <time>2021-05-14T15:15:22Z</time>
      </trkpt>
      <trkpt lat="43.62339" lon="3.77897">
        <ele>90</ele>
        <time>2021-05-14T15:15:23Z</time>
      </trkpt>
      <trkpt lat="43.62336" lon="3.77901">
        <ele>90</ele>
        <time>2021-05-14T15:15:24Z</time>
      </trkpt>
      <trkpt lat="43.62332" lon="3.77905">
        <ele>90</ele>
        <time>2021-05-14T15:15:25Z</time>
      </trkpt>
      <trkpt lat="43.62329" lon="3.77908">
        <ele>90</ele>
        <time>2021-05-14T15:15:26Z</time>
      </trkpt>
      <trkpt lat="43.62327" lon="3.77911">
        <ele>90</ele>
        <time>2021-05-14T15:15:27Z</time>
      </trkpt>
      <trkpt lat="43.62323" lon="3.77913">
        <ele>90</ele>
        <time>2021-05-14T15:15:28Z</time>
      </trkpt>
      <trkpt lat="43.6232" lon="3.77913">
        <ele>92</ele>
        <time>2021-05-14T15:15:29Z</time>
      </trkpt>
      <trkpt lat="43.62316" lon="3.77912">
        <ele>92</ele>
        <time>2021-05-14T15:15:30Z</time>
      </trkpt>
      <trkpt lat="43.62313" lon="3.7791">
        <ele>92</ele>
        <time>2021-05-14T15:15:31Z</time>
      </trkpt>
      <trkpt lat="43.6231" lon="3.77908">
        <ele>92</ele>
        <time>2021-05-14T15:15:32Z</time>
      </trkpt>
      <trkpt lat="43.62306" lon="3.77906">
        <ele>92</ele>
        <time>2021-05-14T15:15:33Z</time>
      </trkpt>
      <trkpt lat="43.62303" lon="3.77905">
        <ele>92</ele>
        <time>2021-05-14T15:15:34Z</time>
      </trkpt>
      <trkpt lat="43.62299" lon="3.77903">
        <ele>92</ele>
        <time>2021-05-14T15:15:35Z</time>
      </trkpt>
      <trkpt lat="43.62296" lon="3.77901">
        <ele>92</ele>
        <time>2021-05-14T15:15:36Z</time>
      </trkpt>
      <trkpt lat="43.62292" lon="3.779">
        <ele>92</ele>
        <time>2021-05-14T15:15:37Z</time>
      </trkpt>
      <trkpt lat="43.62288" lon="3.77898">
        <ele>92</ele>
        <time>2021-05-14T15:15:38Z</time>
      </trkpt>
      <trkpt lat="43.62284" lon="3.77896">
        <ele>92</ele>
        <time>2021-05-14T15:15:39Z</time>
      </trkpt>
      <trkpt lat="43.6228" lon="3.77895">
        <ele>92</ele>
        <time>2021-05-14T15:15:40Z</time>
      </trkpt>
      <trkpt lat="43.62276" lon="3.77894">
        <ele>92</ele>
        <time>2021-05-14T15:15:41Z</time>
      </trkpt>
      <trkpt lat="43.62272" lon="3.77892">
        <ele>92</ele>
        <time>2021-05-14T15:15:42Z</time>
      </trkpt>
      <trkpt lat="43.62268" lon="3.77891">
        <ele>92</ele>
        <time>2021-05-14T15:15:43Z</time>
      </trkpt>
      <trkpt lat="43.62264" lon="3.7789">
        <ele>92</ele>
        <time>2021-05-14T15:15:44Z</time>
      </trkpt>
      <trkpt lat="43.6226" lon="3.77889">
        <ele>92</ele>
        <time>2021-05-14T15:15:45Z</time>
      </trkpt>
      <trkpt lat="43.62256" lon="3.77888">
        <ele>92</ele>
        <time>2021-05-14T15:15:46Z</time>
      </trkpt>
      <trkpt lat="43.62251" lon="3.77888">
        <ele>92</ele>
        <time>2021-05-14T15:15:47Z</time>
      </trkpt>
      <trkpt lat="43.62247" lon="3.77887">
        <ele>92</ele>
        <time>2021-05-14T15:15:48Z</time>
      </trkpt>
      <trkpt lat="43.62242" lon="3.77886">
        <ele>92</ele>
        <time>2021-05-14T15:15:49Z</time>
      </trkpt>
      <trkpt lat="43.62238" lon="3.77885">
        <ele>92</ele>
        <time>2021-05-14T15:15:50Z</time>
      </trkpt>
      <trkpt lat="43.62233" lon="3.77884">
        <ele>92</ele>
        <time>2021-05-14T15:15:51Z</time>
      </trkpt>
      <trkpt lat="43.62229" lon="3.77883">
        <ele>92</ele>
        <time>2021-05-14T15:15:52Z</time>
      </trkpt>
      <trkpt lat="43.62225" lon="3.77882">
        <ele>92</ele>
        <time>2021-05-14T15:15:53Z</time>
      </trkpt>
      <trkpt lat="43.62221" lon="3.77881">
        <ele>92</ele>
        <time>2021-05-14T15:15:54Z</time>
      </trkpt>
      <trkpt lat="43.62217" lon="3.7788">
        <ele>92</ele>
        <time>2021-05-14T15:15:55Z</time>
      </trkpt>
      <trkpt lat="43.62213" lon="3.77879">
        <ele>92</ele>
        <time>2021-05-14T15:15:56Z</time>
      </trkpt>
      <trkpt lat="43.62209" lon="3.77878">
        <ele>92</ele>
        <time>2021-05-14T15:15:57Z</time>
      </trkpt>
      <trkpt lat="43.62205" lon="3.77877">
        <ele>92</ele>
        <time>2021-05-14T15:15:58Z</time>
      </trkpt>
      <trkpt lat="43.62202" lon="3.77876">
        <ele>93</ele>
        <time>2021-05-14T15:15:59Z</time>
      </trkpt>
      <trkpt lat="43.62198" lon="3.77875">
        <ele>93</ele>
        <time>2021-05-14T15:16:00Z</time>
      </trkpt>
      <trkpt lat="43.62194" lon="3.77874">
        <ele>93</ele>
        <time>2021-05-14T15:16:01Z</time>
      </trkpt>
      <trkpt lat="43.62191" lon="3.77872">
        <ele>93</ele>
        <time>2021-05-14T15:16:02Z</time>
      </trkpt>
      <trkpt lat="43.62187" lon="3.77872">
        <ele>93</ele>
        <time>2021-05-14T15:16:03Z</time>
      </trkpt>
      <trkpt lat="43.62183" lon="3.77871">
        <ele>93</ele>
        <time>2021-05-14T15:16:04Z</time>
      </trkpt>
      <trkpt lat="43.62179" lon="3.7787">
        <ele>93</ele>
        <time>2021-05-14T15:16:05Z</time>
      </trkpt>
      <trkpt lat="43.62175" lon="3.77869">
        <ele>93</ele>
        <time>2021-05-14T15:16:06Z</time>
      </trkpt>
      <trkpt lat="43.62171" lon="3.77869">
        <ele>93</ele>
        <time>2021-05-14T15:16:07Z</time>
      </trkpt>
      <trkpt lat="43.62167" lon="3.77869">
        <ele>93</ele>
        <time>2021-05-14T15:16:08Z</time>
      </trkpt>
      <trkpt lat="43.62163" lon="3.77869">
        <ele>94</ele>
        <time>2021-05-14T15:16:09Z</time>
      </trkpt>
      <trkpt lat="43.62159" lon="3.77869">
        <ele>94</ele>
        <time>2021-05-14T15:16:10Z</time>
      </trkpt>
      <trkpt lat="43.62155" lon="3.77869">
        <ele>94</ele>
        <time>2021-05-14T15:16:11Z</time>
      </trkpt>
      <trkpt lat="43.62151" lon="3.77869">
        <ele>94</ele>
        <time>2021-05-14T15:16:12Z</time>
      </trkpt>
      <trkpt lat="43.62147" lon="3.7787">
        <ele>94</ele>
        <time>2021-05-14T15:16:13Z</time>
      </trkpt>
      <trkpt lat="43.62143" lon="3.7787">
        <ele>94</ele>
        <time>2021-05-14T15:16:14Z</time>
      </trkpt>
      <trkpt lat="43.62139" lon="3.77871">
        <ele>94</ele>
        <time>2021-05-14T15:16:15Z</time>
      </trkpt>
      <trkpt lat="43.62135" lon="3.77871">
        <ele>94</ele>
        <time>2021-05-14T15:16:16Z</time>
      </trkpt>
      <trkpt lat="43.62131" lon="3.77871">
        <ele>94</ele>
        <time>2021-05-14T15:16:17Z</time>
      </trkpt>
      <trkpt lat="43.62126" lon="3.77871">
        <ele>94</ele>
        <time>2021-05-14T15:16:18Z</time>
      </trkpt>
      <trkpt lat="43.62122" lon="3.77871">
        <ele>93</ele>
        <time>2021-05-14T15:16:19Z</time>
      </trkpt>
      <trkpt lat="43.62117" lon="3.7787">
        <ele>93</ele>
        <time>2021-05-14T15:16:20Z</time>
      </trkpt>
      <trkpt lat="43.62112" lon="3.7787">
        <ele>93</ele>
        <time>2021-05-14T15:16:21Z</time>
      </trkpt>
      <trkpt lat="43.62106" lon="3.7787">
        <ele>93</ele>
        <time>2021-05-14T15:16:22Z</time>
      </trkpt>
      <trkpt lat="43.62101" lon="3.7787">
        <ele>93</ele>
        <time>2021-05-14T15:16:23Z</time>
      </trkpt>
      <trkpt lat="43.62095" lon="3.77869">
        <ele>93</ele>
        <time>2021-05-14T15:16:24Z</time>
      </trkpt>
      <trkpt lat="43.62089" lon="3.77869">
        <ele>93</ele>
        <time>2021-05-14T15:16:25Z</time>
      </trkpt>
      <trkpt lat="43.62083" lon="3.77867">
        <ele>93</ele>
        <time>2021-05-14T15:16:26Z</time>
      </trkpt>
      <trkpt lat="43.62077" lon="3.77864">
        <ele>93</ele>
        <time>2021-05-14T15:16:27Z</time>
      </trkpt>
      <trkpt lat="43.6207" lon="3.7786">
        <ele>93</ele>
        <time>2021-05-14T15:16:28Z</time>
      </trkpt>
      <trkpt lat="43.62064" lon="3.77857">
        <ele>94</ele>
        <time>2021-05-14T15:16:29Z</time>
      </trkpt>
      <trkpt lat="43.62058" lon="3.77854">
        <ele>94</ele>
        <time>2021-05-14T15:16:30Z</time>
      </trkpt>
      <trkpt lat="43.62051" lon="3.77851">
        <ele>94</ele>
        <time>2021-05-14T15:16:31Z</time>
      </trkpt>
      <trkpt lat="43.62045" lon="3.77848">
        <ele>94</ele>
        <time>2021-05-14T15:16:32Z</time>
      </trkpt>
      <trkpt lat="43.62038" lon="3.77844">
        <ele>94</ele>
        <time>2021-05-14T15:16:33Z</time>
      </trkpt>
      <trkpt lat="43.62031" lon="3.77839">
        <ele>94</ele>
        <time>2021-05-14T15:16:34Z</time>
      </trkpt>
      <trkpt lat="43.62024" lon="3.77835">
        <ele>94</ele>
        <time>2021-05-14T15:16:35Z</time>
      </trkpt>
      <trkpt lat="43.62015" lon="3.77833">
        <ele>94</ele>
        <time>2021-05-14T15:16:36Z</time>
      </trkpt>
      <trkpt lat="43.62007" lon="3.7783">
        <ele>94</ele>
        <time>2021-05-14T15:16:37Z</time>
      </trkpt>
      <trkpt lat="43.61999" lon="3.77825">
        <ele>94</ele>
        <time>2021-05-14T15:16:38Z</time>
      </trkpt>
      <trkpt lat="43.6199" lon="3.77822">
        <ele>92</ele>
        <time>2021-05-14T15:16:39Z</time>
      </trkpt>
      <trkpt lat="43.61981" lon="3.77821">
        <ele>92</ele>
        <time>2021-05-14T15:16:40Z</time>
      </trkpt>
      <trkpt lat="43.61974" lon="3.77821">
        <ele>92</ele>
        <time>2021-05-14T15:16:41Z</time>
      </trkpt>
      <trkpt lat="43.61967" lon="3.77819">
        <ele>92</ele>
        <time>2021-05-14T15:16:42Z</time>
      </trkpt>
      <trkpt lat="43.6196" lon="3.77815">
        <ele>92</ele>
        <time>2021-05-14T15:16:43Z</time>
      </trkpt>
      <trkpt lat="43.61954" lon="3.77809">
        <ele>92</ele>
        <time>2021-05-14T15:16:44Z</time>
      </trkpt>
      <trkpt lat="43.6195" lon="3.77801">
        <ele>92</ele>
        <time>2021-05-14T15:16:45Z</time>
      </trkpt>
      <trkpt lat="43.61947" lon="3.77792">
        <ele>92</ele>
        <time>2021-05-14T15:16:46Z</time>
      </trkpt>
      <trkpt lat="43.61945" lon="3.77785">
        <ele>92</ele>
        <time>2021-05-14T15:16:47Z</time>
      </trkpt>
      <trkpt lat="43.61941" lon="3.77781">
        <ele>92</ele>
        <time>2021-05-14T15:16:48Z</time>
      </trkpt>
      <trkpt lat="43.61933" lon="3.7778">
        <ele>87</ele>
        <time>2021-05-14T15:16:49Z</time>
      </trkpt>
      <trkpt lat="43.6193" lon="3.77783">
        <ele>87</ele>
        <time>2021-05-14T15:16:50Z</time>
      </trkpt>
      <trkpt lat="43.61927" lon="3.77787">
        <ele>87</ele>
        <time>2021-05-14T15:16:51Z</time>
      </trkpt>
      <trkpt lat="43.61924" lon="3.77791">
        <ele>87</ele>
        <time>2021-05-14T15:16:52Z</time>
      </trkpt>
      <trkpt lat="43.6192" lon="3.77795">
        <ele>87</ele>
        <time>2021-05-14T15:16:53Z</time>
      </trkpt>
      <trkpt lat="43.61915" lon="3.77804">
        <ele>87</ele>
        <time>2021-05-14T15:16:55Z</time>
      </trkpt>
      <trkpt lat="43.61912" lon="3.77808">
        <ele>87</ele>
        <time>2021-05-14T15:16:56Z</time>
      </trkpt>
      <trkpt lat="43.61909" lon="3.77812">
        <ele>87</ele>
        <time>2021-05-14T15:16:57Z</time>
      </trkpt>
      <trkpt lat="43.61907" lon="3.77815">
        <ele>87</ele>
        <time>2021-05-14T15:16:58Z</time>
      </trkpt>
      <trkpt lat="43.61904" lon="3.7782">
        <ele>87</ele>
        <time>2021-05-14T15:17:00Z</time>
      </trkpt>
      <trkpt lat="43.61901" lon="3.77824">
        <ele>87</ele>
        <time>2021-05-14T15:17:01Z</time>
      </trkpt>
      <trkpt lat="43.61899" lon="3.77828">
        <ele>87</ele>
        <time>2021-05-14T15:17:02Z</time>
      </trkpt>
      <trkpt lat="43.61896" lon="3.77832">
        <ele>87</ele>
        <time>2021-05-14T15:17:03Z</time>
      </trkpt>
      <trkpt lat="43.61892" lon="3.77837">
        <ele>87</ele>
        <time>2021-05-14T15:17:04Z</time>
      </trkpt>
      <trkpt lat="43.61889" lon="3.7784">
        <ele>87</ele>
        <time>2021-05-14T15:17:05Z</time>
      </trkpt>
      <trkpt lat="43.61886" lon="3.77844">
        <ele>87</ele>
        <time>2021-05-14T15:17:06Z</time>
      </trkpt>
      <trkpt lat="43.61883" lon="3.77848">
        <ele>87</ele>
        <time>2021-05-14T15:17:07Z</time>
      </trkpt>
      <trkpt lat="43.6188" lon="3.77852">
        <ele>87</ele>
        <time>2021-05-14T15:17:08Z</time>
      </trkpt>
      <trkpt lat="43.61876" lon="3.77855">
        <ele>87</ele>
        <time>2021-05-14T15:17:09Z</time>
      </trkpt>
      <trkpt lat="43.61873" lon="3.77858">
        <ele>87</ele>
        <time>2021-05-14T15:17:10Z</time>
      </trkpt>
      <trkpt lat="43.61869" lon="3.77861">
        <ele>87</ele>
        <time>2021-05-14T15:17:11Z</time>
      </trkpt>
      <trkpt lat="43.61866" lon="3.77863">
        <ele>87</ele>
        <time>2021-05-14T15:17:12Z</time>
      </trkpt>
      <trkpt lat="43.61862" lon="3.77866">
        <ele>87</ele>
        <time>2021-05-14T15:17:13Z</time>
      </trkpt>
      <trkpt lat="43.61859" lon="3.77867">
        <ele>87</ele>
        <time>2021-05-14T15:17:14Z</time>
      </trkpt>
      <trkpt lat="43.61855" lon="3.77869">
        <ele>87</ele>
        <time>2021-05-14T15:17:15Z</time>
      </trkpt>
      <trkpt lat="43.61852" lon="3.77869">
        <ele>87</ele>
        <time>2021-05-14T15:17:16Z</time>
      </trkpt>
      <trkpt lat="43.61849" lon="3.7787">
        <ele>87</ele>
        <time>2021-05-14T15:17:17Z</time>
      </trkpt>
      <trkpt lat="43.61846" lon="3.77871">
        <ele>87</ele>
        <time>2021-05-14T15:17:18Z</time>
      </trkpt>
      <trkpt lat="43.61844" lon="3.77872">
        <ele>88</ele>
        <time>2021-05-14T15:17:19Z</time>
      </trkpt>
      <trkpt lat="43.61841" lon="3.77873">
        <ele>88</ele>
        <time>2021-05-14T15:17:20Z</time>
      </trkpt>
      <trkpt lat="43.61839" lon="3.77875">
        <ele>88</ele>
        <time>2021-05-14T15:17:21Z</time>
      </trkpt>
      <trkpt lat="43.61838" lon="3.77878">
        <ele>88</ele>
        <time>2021-05-14T15:17:22Z</time>
      </trkpt>
      <trkpt lat="43.61837" lon="3.77883">
        <ele>88</ele>
        <time>2021-05-14T15:17:23Z</time>
      </trkpt>
      <trkpt lat="43.61836" lon="3.77887">
        <ele>88</ele>
        <time>2021-05-14T15:17:24Z</time>
      </trkpt>
      <trkpt lat="43.61836" lon="3.77893">
        <ele>88</ele>
        <time>2021-05-14T15:17:25Z</time>
      </trkpt>
      <trkpt lat="43.61836" lon="3.77898">
        <ele>88</ele>
        <time>2021-05-14T15:17:26Z</time>
      </trkpt>
      <trkpt lat="43.61836" lon="3.77904">
        <ele>88</ele>
        <time>2021-05-14T15:17:27Z</time>
      </trkpt>
      <trkpt lat="43.61836" lon="3.7791">
        <ele>88</ele>
        <time>2021-05-14T15:17:28Z</time>
      </trkpt>
      <trkpt lat="43.61837" lon="3.77917">
        <ele>88</ele>
        <time>2021-05-14T15:17:29Z</time>
      </trkpt>
      <trkpt lat="43.61837" lon="3.77923">
        <ele>88</ele>
        <time>2021-05-14T15:17:30Z</time>
      </trkpt>
      <trkpt lat="43.61837" lon="3.7793">
        <ele>88</ele>
        <time>2021-05-14T15:17:31Z</time>
      </trkpt>
      <trkpt lat="43.61837" lon="3.77937">
        <ele>88</ele>
        <time>2021-05-14T15:17:32Z</time>
      </trkpt>
      <trkpt lat="43.61837" lon="3.77945">
        <ele>88</ele>
        <time>2021-05-14T15:17:33Z</time>
      </trkpt>
      <trkpt lat="43.61836" lon="3.77952">
        <ele>88</ele>
        <time>2021-05-14T15:17:34Z</time>
      </trkpt>
      <trkpt lat="43.61836" lon="3.7796">
        <ele>88</ele>
        <time>2021-05-14T15:17:35Z</time>
      </trkpt>
      <trkpt lat="43.61837" lon="3.77968">
        <ele>88</ele>
        <time>2021-05-14T15:17:36Z</time>
      </trkpt>
      <trkpt lat="43.61836" lon="3.77977">
        <ele>88</ele>
        <time>2021-05-14T15:17:37Z</time>
      </trkpt>
      <trkpt lat="43.61834" lon="3.77985">
        <ele>88</ele>
        <time>2021-05-14T15:17:38Z</time>
      </trkpt>
      <trkpt lat="43.61832" lon="3.77994">
        <ele>87</ele>
        <time>2021-05-14T15:17:39Z</time>
      </trkpt>
      <trkpt lat="43.6183" lon="3.78003">
        <ele>87</ele>
        <time>2021-05-14T15:17:40Z</time>
      </trkpt>
      <trkpt lat="43.61827" lon="3.78011">
        <ele>87</ele>
        <time>2021-05-14T15:17:41Z</time>
      </trkpt>
      <trkpt lat="43.61825" lon="3.7802">
        <ele>87</ele>
        <time>2021-05-14T15:17:42Z</time>
      </trkpt>
      <trkpt lat="43.61822" lon="3.7803">
        <ele>87</ele>
        <time>2021-05-14T15:17:43Z</time>
      </trkpt>
      <trkpt lat="43.61818" lon="3.78038">
        <ele>87</ele>
        <time>2021-05-14T15:17:44Z</time>
      </trkpt>
      <trkpt lat="43.61814" lon="3.78047">
        <ele>87</ele>
        <time>2021-05-14T15:17:45Z</time>
      </trkpt>
      <trkpt lat="43.61809" lon="3.78055">
        <ele>87</ele>
        <time>2021-05-14T15:17:46Z</time>
      </trkpt>
      <trkpt lat="43.61804" lon="3.78062">
        <ele>87</ele>
        <time>2021-05-14T15:17:47Z</time>
      </trkpt>
      <trkpt lat="43.61798" lon="3.78068">
        <ele>87</ele>
        <time>2021-05-14T15:17:48Z</time>
      </trkpt>
      <trkpt lat="43.61793" lon="3.78074">
        <ele>86</ele>
        <time>2021-05-14T15:17:49Z</time>
      </trkpt>
      <trkpt lat="43.61787" lon="3.78079">
        <ele>86</ele>
        <time>2021-05-14T15:17:50Z</time>
      </trkpt>
      <trkpt lat="43.61781" lon="3.78085">
        <ele>86</ele>
        <time>2021-05-14T15:17:51Z</time>
      </trkpt>
      <trkpt lat="43.61776" lon="3.78091">
        <ele>86</ele>
        <time>2021-05-14T15:17:52Z</time>
      </trkpt>
      <trkpt lat="43.61772" lon="3.78097">
        <ele>86</ele>
        <time>2021-05-14T15:17:53Z</time>
      </trkpt>
      <trkpt lat="43.61768" lon="3.78105">
        <ele>86</ele>
        <time>2021-05-14T15:17:54Z</time>
      </trkpt>
      <trkpt lat="43.61764" lon="3.78112">
        <ele>86</ele>
        <time>2021-05-14T15:17:55Z</time>
      </trkpt>
      <trkpt lat="43.61761" lon="3.7812">
        <ele>86</ele>
        <time>2021-05-14T15:17:56Z</time>
      </trkpt>
      <trkpt lat="43.61758" lon="3.78128">
        <ele>86</ele>
        <time>2021-05-14T15:17:57Z</time>
      </trkpt>
      <trkpt lat="43.61756" lon="3.78136">
        <ele>86</ele>
        <time>2021-05-14T15:17:58Z</time>
      </trkpt>
      <trkpt lat="43.61753" lon="3.78144">
        <ele>85</ele>
        <time>2021-05-14T15:17:59Z</time>
      </trkpt>
      <trkpt lat="43.61751" lon="3.78153">
        <ele>85</ele>
        <time>2021-05-14T15:18:00Z</time>
      </trkpt>
      <trkpt lat="43.61749" lon="3.78161">
        <ele>85</ele>
        <time>2021-05-14T15:18:01Z</time>
      </trkpt>
      <trkpt lat="43.61747" lon="3.78171">
        <ele>85</ele>
        <time>2021-05-14T15:18:02Z</time>
      </trkpt>
      <trkpt lat="43.61745" lon="3.7818">
        <ele>85</ele>
        <time>2021-05-14T15:18:03Z</time>
      </trkpt>
      <trkpt lat="43.61743" lon="3.78189">
        <ele>85</ele>
        <time>2021-05-14T15:18:04Z</time>
      </trkpt>
      <trkpt lat="43.61741" lon="3.78198">
        <ele>85</ele>
        <time>2021-05-14T15:18:05Z</time>
      </trkpt>
      <trkpt lat="43.61739" lon="3.78207">
        <ele>85</ele>
        <time>2021-05-14T15:18:06Z</time>
      </trkpt>
      <trkpt lat="43.61737" lon="3.78216">
        <ele>85</ele>
        <time>2021-05-14T15:18:07Z</time>
      </trkpt>
      <trkpt lat="43.61735" lon="3.78226">
        <ele>85</ele>
        <time>2021-05-14T15:18:08Z</time>
      </trkpt>
      <trkpt lat="43.61733" lon="3.78235">
        <ele>84</ele>
        <time>2021-05-14T15:18:09Z</time>
      </trkpt>
      <trkpt lat="43.61731" lon="3.78243">
        <ele>84</ele>
        <time>2021-05-14T15:18:10Z</time>
      </trkpt>
      <trkpt lat="43.61728" lon="3.78252">
        <ele>84</ele>
        <time>2021-05-14T15:18:11Z</time>
      </trkpt>
      <trkpt lat="43.61726" lon="3.78261">
        <ele>84</ele>
        <time>2021-05-14T15:18:12Z</time>
      </trkpt>
      <trkpt lat="43.61724" lon="3.7827">
        <ele>84</ele>
        <time>2021-05-14T15:18:13Z</time>
      </trkpt>
      <trkpt lat="43.61722" lon="3.78279">
        <ele>84</ele>
        <time>2021-05-14T15:18:14Z</time>
      </trkpt>
      <trkpt lat="43.6172" lon="3.78288">
        <ele>84</ele>
        <time>2021-05-14T15:18:15Z</time>
      </trkpt>
      <trkpt lat="43.61719" lon="3.78298">
        <ele>84</ele>
        <time>2021-05-14T15:18:16Z</time>
      </trkpt>
      <trkpt lat="43.61718" lon="3.78308">
        <ele>84</ele>
        <time>2021-05-14T15:18:17Z</time>
      </trkpt>
      <trkpt lat="43.61716" lon="3.78318">
        <ele>84</ele>
        <time>2021-05-14T15:18:18Z</time>
      </trkpt>
      <trkpt lat="43.61715" lon="3.78329">
        <ele>81</ele>
        <time>2021-05-14T15:18:19Z</time>
      </trkpt>
      <trkpt lat="43.61714" lon="3.78339">
        <ele>81</ele>
        <time>2021-05-14T15:18:20Z</time>
      </trkpt>
      <trkpt lat="43.61714" lon="3.7835">
        <ele>81</ele>
        <time>2021-05-14T15:18:21Z</time>
      </trkpt>
      <trkpt lat="43.61714" lon="3.78362">
        <ele>81</ele>
        <time>2021-05-14T15:18:22Z</time>
      </trkpt>
      <trkpt lat="43.61715" lon="3.78372">
        <ele>81</ele>
        <time>2021-05-14T15:18:23Z</time>
      </trkpt>
      <trkpt lat="43.61717" lon="3.78381">
        <ele>81</ele>
        <time>2021-05-14T15:18:24Z</time>
      </trkpt>
      <trkpt lat="43.61719" lon="3.7839">
        <ele>81</ele>
        <time>2021-05-14T15:18:25Z</time>
      </trkpt>
      <trkpt lat="43.6172" lon="3.78397">
        <ele>81</ele>
        <time>2021-05-14T15:18:26Z</time>
      </trkpt>
      <trkpt lat="43.61722" lon="3.78404">
        <ele>81</ele>
        <time>2021-05-14T15:18:27Z</time>
      </trkpt>
      <trkpt lat="43.61724" lon="3.78411">
        <ele>81</ele>
        <time>2021-05-14T15:18:28Z</time>
      </trkpt>
      <trkpt lat="43.61725" lon="3.78417">
        <ele>81</ele>
        <time>2021-05-14T15:18:29Z</time>
      </trkpt>
      <trkpt lat="43.61726" lon="3.78424">
        <ele>81</ele>
        <time>2021-05-14T15:18:30Z</time>
      </trkpt>
      <trkpt lat="43.61727" lon="3.78431">
        <ele>81</ele>
        <time>2021-05-14T15:18:31Z</time>
      </trkpt>
      <trkpt lat="43.61727" lon="3.78437">
        <ele>81</ele>
        <time>2021-05-14T15:18:32Z</time>
      </trkpt>
      <trkpt lat="43.61728" lon="3.78444">
        <ele>81</ele>
        <time>2021-05-14T15:18:33Z</time>
      </trkpt>
      <trkpt lat="43.61728" lon="3.78451">
        <ele>81</ele>
        <time>2021-05-14T15:18:34Z</time>
      </trkpt>
      <trkpt lat="43.61728" lon="3.78458">
        <ele>81</ele>
        <time>2021-05-14T15:18:35Z</time>
      </trkpt>
      <trkpt lat="43.61728" lon="3.78465">
        <ele>81</ele>
        <time>2021-05-14T15:18:36Z</time>
      </trkpt>
      <trkpt lat="43.61727" lon="3.78473">
        <ele>81</ele>
        <time>2021-05-14T15:18:37Z</time>
      </trkpt>
      <trkpt lat="43.61725" lon="3.7848">
        <ele>81</ele>
        <time>2021-05-14T15:18:38Z</time>
      </trkpt>
      <trkpt lat="43.61724" lon="3.78488">
        <ele>81</ele>
        <time>2021-05-14T15:18:39Z</time>
      </trkpt>
      <trkpt lat="43.61722" lon="3.78495">
        <ele>81</ele>
        <time>2021-05-14T15:18:40Z</time>
      </trkpt>
      <trkpt lat="43.61719" lon="3.78503">
        <ele>81</ele>
        <time>2021-05-14T15:18:41Z</time>
      </trkpt>
      <trkpt lat="43.61717" lon="3.78512">
        <ele>81</ele>
        <time>2021-05-14T15:18:42Z</time>
      </trkpt>
      <trkpt lat="43.61715" lon="3.7852">
        <ele>81</ele>
        <time>2021-05-14T15:18:43Z</time>
      </trkpt>
      <trkpt lat="43.61712" lon="3.78529">
        <ele>81</ele>
        <time>2021-05-14T15:18:44Z</time>
      </trkpt>
      <trkpt lat="43.61709" lon="3.78538">
        <ele>81</ele>
        <time>2021-05-14T15:18:45Z</time>
      </trkpt>
      <trkpt lat="43.61705" lon="3.78546">
        <ele>81</ele>
        <time>2021-05-14T15:18:46Z</time>
      </trkpt>
      <trkpt lat="43.61701" lon="3.78554">
        <ele>81</ele>
        <time>2021-05-14T15:18:47Z</time>
      </trkpt>
      <trkpt lat="43.61696" lon="3.78563">
        <ele>81</ele>
        <time>2021-05-14T15:18:48Z</time>
      </trkpt>
      <trkpt lat="43.61691" lon="3.78573">
        <ele>76</ele>
        <time>2021-05-14T15:18:49Z</time>
      </trkpt>
      <trkpt lat="43.61686" lon="3.78583">
        <ele>76</ele>
        <time>2021-05-14T15:18:50Z</time>
      </trkpt>
      <trkpt lat="43.61681" lon="3.78593">
        <ele>76</ele>
        <time>2021-05-14T15:18:51Z</time>
      </trkpt>
      <trkpt lat="43.61676" lon="3.78602">
        <ele>76</ele>
        <time>2021-05-14T15:18:52Z</time>
      </trkpt>
      <trkpt lat="43.61672" lon="3.78611">
        <ele>76</ele>
        <time>2021-05-14T15:18:53Z</time>
      </trkpt>
      <trkpt lat="43.61667" lon="3.7862">
        <ele>76</ele>
        <time>2021-05-14T15:18:54Z</time>
      </trkpt>
      <trkpt lat="43.61661" lon="3.7863">
        <ele>76</ele>
        <time>2021-05-14T15:18:55Z</time>
      </trkpt>
      <trkpt lat="43.61654" lon="3.78639">
        <ele>76</ele>
        <time>2021-05-14T15:18:56Z</time>
      </trkpt>
      <trkpt lat="43.61649" lon="3.78647">
        <ele>76</ele>
        <time>2021-05-14T15:18:57Z</time>
      </trkpt>
      <trkpt lat="43.61644" lon="3.78652">
        <ele>76</ele>
        <time>2021-05-14T15:18:58Z</time>
      </trkpt>
      <trkpt lat="43.61642" lon="3.78655">
        <ele>70</ele>
        <time>2021-05-14T15:18:59Z</time>
      </trkpt>
      <trkpt lat="43.61639" lon="3.78658">
        <ele>70</ele>
        <time>2021-05-14T15:19:00Z</time>
      </trkpt>
      <trkpt lat="43.61637" lon="3.7866">
        <ele>70</ele>
        <time>2021-05-14T15:19:01Z</time>
      </trkpt>
      <trkpt lat="43.61634" lon="3.78662">
        <ele>70</ele>
        <time>2021-05-14T15:19:02Z</time>
      </trkpt>
      <trkpt lat="43.61632" lon="3.78664">
        <ele>70</ele>
        <time>2021-05-14T15:19:03Z</time>
      </trkpt>
      <trkpt lat="43.6163" lon="3.78667">
        <ele>70</ele>
        <time>2021-05-14T15:19:04Z</time>
      </trkpt>
      <trkpt lat="43.61628" lon="3.78671">
        <ele>70</ele>
        <time>2021-05-14T15:19:05Z</time>
      </trkpt>
      <trkpt lat="43.61626" lon="3.78675">
        <ele>70</ele>
        <time>2021-05-14T15:19:06Z</time>
      </trkpt>
      <trkpt lat="43.61623" lon="3.7868">
        <ele>70</ele>
        <time>2021-05-14T15:19:07Z</time>
      </trkpt>
      <trkpt lat="43.61619" lon="3.78686">
        <ele>70</ele>
        <time>2021-05-14T15:19:08Z</time>
      </trkpt>
      <trkpt lat="43.61616" lon="3.78692">
        <ele>68</ele>
        <time>2021-05-14T15:19:09Z</time>
      </trkpt>
      <trkpt lat="43.61612" lon="3.78697">
        <ele>68</ele>
        <time>2021-05-14T15:19:10Z</time>
      </trkpt>
      <trkpt lat="43.61608" lon="3.78703">
        <ele>68</ele>
        <time>2021-05-14T15:19:11Z</time>
      </trkpt>
      <trkpt lat="43.61604" lon="3.78709">
        <ele>68</ele>
        <time>2021-05-14T15:19:12Z</time>
      </trkpt>
      <trkpt lat="43.616" lon="3.78715">
        <ele>68</ele>
        <time>2021-05-14T15:19:13Z</time>
      </trkpt>
      <trkpt lat="43.61596" lon="3.78721">
        <ele>68</ele>
        <time>2021-05-14T15:19:14Z</time>
      </trkpt>
      <trkpt lat="43.61593" lon="3.78726">
        <ele>68</ele>
        <time>2021-05-14T15:19:15Z</time>
      </trkpt>
      <trkpt lat="43.6159" lon="3.78731">
        <ele>68</ele>
        <time>2021-05-14T15:19:16Z</time>
      </trkpt>
      <trkpt lat="43.61584" lon="3.78744">
        <ele>67</ele>
        <time>2021-05-14T15:19:19Z</time>
      </trkpt>
      <trkpt lat="43.61577" lon="3.78756">
        <ele>67</ele>
        <time>2021-05-14T15:19:22Z</time>
      </trkpt>
      <trkpt lat="43.61574" lon="3.78761">
        <ele>67</ele>
        <time>2021-05-14T15:19:23Z</time>
      </trkpt>
      <trkpt lat="43.61571" lon="3.78766">
        <ele>67</ele>
        <time>2021-05-14T15:19:24Z</time>
      </trkpt>
      <trkpt lat="43.61568" lon="3.78771">
        <ele>67</ele>
        <time>2021-05-14T15:19:25Z</time>
      </trkpt>
      <trkpt lat="43.61565" lon="3.78777">
        <ele>67</ele>
        <time>2021-05-14T15:19:26Z</time>
      </trkpt>
      <trkpt lat="43.61562" lon="3.78784">
        <ele>67</ele>
        <time>2021-05-14T15:19:27Z</time>
      </trkpt>
      <trkpt lat="43.61559" lon="3.78791">
        <ele>67</ele>
        <time>2021-05-14T15:19:28Z</time>
      </trkpt>
      <trkpt lat="43.61555" lon="3.78797">
        <ele>67</ele>
        <time>2021-05-14T15:19:29Z</time>
      </trkpt>
      <trkpt lat="43.61552" lon="3.78802">
        <ele>67</ele>
        <time>2021-05-14T15:19:30Z</time>
      </trkpt>
      <trkpt lat="43.61549" lon="3.78808">
        <ele>67</ele>
        <time>2021-05-14T15:19:31Z</time>
      </trkpt>
      <trkpt lat="43.61547" lon="3.78815">
        <ele>67</ele>
        <time>2021-05-14T15:19:32Z</time>
      </trkpt>
      <trkpt lat="43.61546" lon="3.78823">
        <ele>67</ele>
        <time>2021-05-14T15:19:33Z</time>
      </trkpt>
      <trkpt lat="43.61546" lon="3.78831">
        <ele>67</ele>
        <time>2021-05-14T15:19:34Z</time>
      </trkpt>
      <trkpt lat="43.61547" lon="3.78839">
        <ele>67</ele>
        <time>2021-05-14T15:19:35Z</time>
      </trkpt>
      <trkpt lat="43.61547" lon="3.78848">
        <ele>67</ele>
        <time>2021-05-14T15:19:36Z</time>
      </trkpt>
      <trkpt lat="43.61547" lon="3.78857">
        <ele>67</ele>
        <time>2021-05-14T15:19:37Z</time>
      </trkpt>
      <trkpt lat="43.61548" lon="3.78865">
        <ele>67</ele>
        <time>2021-05-14T15:19:38Z</time>
      </trkpt>
      <trkpt lat="43.61548" lon="3.78874">
        <ele>65</ele>
        <time>2021-05-14T15:19:39Z</time>
      </trkpt>
      <trkpt lat="43.61549" lon="3.78882">
        <ele>65</ele>
        <time>2021-05-14T15:19:40Z</time>
      </trkpt>
      <trkpt lat="43.6155" lon="3.78891">
        <ele>65</ele>
        <time>2021-05-14T15:19:41Z</time>
      </trkpt>
      <trkpt lat="43.61552" lon="3.78899">
        <ele>65</ele>
        <time>2021-05-14T15:19:42Z</time>
      </trkpt>
      <trkpt lat="43.61555" lon="3.78907">
        <ele>65</ele>
        <time>2021-05-14T15:19:43Z</time>
      </trkpt>
      <trkpt lat="43.61558" lon="3.78914">
        <ele>65</ele>
        <time>2021-05-14T15:19:44Z</time>
      </trkpt>
      <trkpt lat="43.6156" lon="3.7892">
        <ele>65</ele>
        <time>2021-05-14T15:19:45Z</time>
      </trkpt>
      <trkpt lat="43.6156" lon="3.78924">
        <ele>65</ele>
        <time>2021-05-14T15:19:46Z</time>
      </trkpt>
      <trkpt lat="43.61558" lon="3.78928">
        <ele>65</ele>
        <time>2021-05-14T15:19:47Z</time>
      </trkpt>
      <trkpt lat="43.61558" lon="3.78932">
        <ele>65</ele>
        <time>2021-05-14T15:19:48Z</time>
      </trkpt>
      <trkpt lat="43.61558" lon="3.78935">
        <ele>61</ele>
        <time>2021-05-14T15:19:49Z</time>
      </trkpt>
      <trkpt lat="43.61558" lon="3.78939">
        <ele>61</ele>
        <time>2021-05-14T15:19:50Z</time>
      </trkpt>
      <trkpt lat="43.6156" lon="3.78942">
        <ele>61</ele>
        <time>2021-05-14T15:19:51Z</time>
      </trkpt>
      <trkpt lat="43.61562" lon="3.78945">
        <ele>61</ele>
        <time>2021-05-14T15:19:52Z</time>
      </trkpt>
      <trkpt lat="43.61563" lon="3.78949">
        <ele>61</ele>
        <time>2021-05-14T15:19:53Z</time>
      </trkpt>
      <trkpt lat="43.61564" lon="3.78955">
        <ele>61</ele>
        <time>2021-05-14T15:19:54Z</time>
      </trkpt>
      <trkpt lat="43.61564" lon="3.7896">
        <ele>61</ele>
        <time>2021-05-14T15:19:55Z</time>
      </trkpt>
      <trkpt lat="43.61564" lon="3.78966">
        <ele>61</ele>
        <time>2021-05-14T15:19:56Z</time>
      </trkpt>
      <trkpt lat="43.61564" lon="3.78972">
        <ele>61</ele>
        <time>2021-05-14T15:19:57Z</time>
      </trkpt>
      <trkpt lat="43.61565" lon="3.78977">
        <ele>61</ele>
        <time>2021-05-14T15:19:58Z</time>
      </trkpt>
      <trkpt lat="43.61566" lon="3.78989">
        <ele>61</ele>
        <time>2021-05-14T15:19:59Z</time>
      </trkpt>
      <trkpt lat="43.61566" lon="3.78996">
        <ele>61</ele>
        <time>2021-05-14T15:20:00Z</time>
      </trkpt>
      <trkpt lat="43.61566" lon="3.79011">
        <ele>61</ele>
        <time>2021-05-14T15:20:02Z</time>
      </trkpt>
      <trkpt lat="43.61566" lon="3.79018">
        <ele>61</ele>
        <time>2021-05-14T15:20:03Z</time>
      </trkpt>
      <trkpt lat="43.61566" lon="3.79026">
        <ele>61</ele>
        <time>2021-05-14T15:20:04Z</time>
      </trkpt>
      <trkpt lat="43.61565" lon="3.79033">
        <ele>61</ele>
        <time>2021-05-14T15:20:05Z</time>
      </trkpt>
      <trkpt lat="43.61564" lon="3.79041">
        <ele>61</ele>
        <time>2021-05-14T15:20:06Z</time>
      </trkpt>
      <trkpt lat="43.61563" lon="3.79048">
        <ele>61</ele>
        <time>2021-05-14T15:20:07Z</time>
      </trkpt>
      <trkpt lat="43.61561" lon="3.79056">
        <ele>61</ele>
        <time>2021-05-14T15:20:08Z</time>
      </trkpt>
      <trkpt lat="43.6156" lon="3.79065">
        <ele>61</ele>
        <time>2021-05-14T15:20:10Z</time>
      </trkpt>
      <trkpt lat="43.61558" lon="3.79073">
        <ele>61</ele>
        <time>2021-05-14T15:20:11Z</time>
      </trkpt>
      <trkpt lat="43.61556" lon="3.79081">
        <ele>61</ele>
        <time>2021-05-14T15:20:12Z</time>
      </trkpt>
      <trkpt lat="43.61555" lon="3.7909">
        <ele>61</ele>
        <time>2021-05-14T15:20:13Z</time>
      </trkpt>
      <trkpt lat="43.61553" lon="3.79099">
        <ele>61</ele>
        <time>2021-05-14T15:20:14Z</time>
      </trkpt>
      <trkpt lat="43.61551" lon="3.79107">
        <ele>61</ele>
        <time>2021-05-14T15:20:15Z</time>
      </trkpt>
      <trkpt lat="43.6155" lon="3.79116">
        <ele>61</ele>
        <time>2021-05-14T15:20:16Z</time>
      </trkpt>
      <trkpt lat="43.61548" lon="3.79123">
        <ele>61</ele>
        <time>2021-05-14T15:20:17Z</time>
      </trkpt>
      <trkpt lat="43.61547" lon="3.7913">
        <ele>61</ele>
        <time>2021-05-14T15:20:18Z</time>
      </trkpt>
      <trkpt lat="43.61545" lon="3.79134">
        <ele>57</ele>
        <time>2021-05-14T15:20:19Z</time>
      </trkpt>
      <trkpt lat="43.61543" lon="3.79139">
        <ele>57</ele>
        <time>2021-05-14T15:20:20Z</time>
      </trkpt>
      <trkpt lat="43.61542" lon="3.79144">
        <ele>57</ele>
        <time>2021-05-14T15:20:21Z</time>
      </trkpt>
      <trkpt lat="43.61541" lon="3.79149">
        <ele>57</ele>
        <time>2021-05-14T15:20:22Z</time>
      </trkpt>
      <trkpt lat="43.61541" lon="3.79155">
        <ele>57</ele>
        <time>2021-05-14T15:20:23Z</time>
      </trkpt>
      <trkpt lat="43.61542" lon="3.7916">
        <ele>57</ele>
        <time>2021-05-14T15:20:24Z</time>
      </trkpt>
      <trkpt lat="43.61544" lon="3.79165">
        <ele>57</ele>
        <time>2021-05-14T15:20:25Z</time>
      </trkpt>
      <trkpt lat="43.61546" lon="3.79168">
        <ele>57</ele>
        <time>2021-05-14T15:20:26Z</time>
      </trkpt>
      <trkpt lat="43.61548" lon="3.79171">
        <ele>57</ele>
        <time>2021-05-14T15:20:27Z</time>
      </trkpt>
      <trkpt lat="43.6155" lon="3.79174">
        <ele>57</ele>
        <time>2021-05-14T15:20:28Z</time>
      </trkpt>
      <trkpt lat="43.61551" lon="3.79178">
        <ele>56</ele>
        <time>2021-05-14T15:20:29Z</time>
      </trkpt>
      <trkpt lat="43.61553" lon="3.79182">
        <ele>56</ele>
        <time>2021-05-14T15:20:30Z</time>
      </trkpt>
      <trkpt lat="43.61554" lon="3.79185">
        <ele>56</ele>
        <time>2021-05-14T15:20:31Z</time>
      </trkpt>
      <trkpt lat="43.61556" lon="3.79189">
        <ele>56</ele>
        <time>2021-05-14T15:20:32Z</time>
      </trkpt>
      <trkpt lat="43.61558" lon="3.79193">
        <ele>56</ele>
        <time>2021-05-14T15:20:33Z</time>
      </trkpt>
      <trkpt lat="43.6156" lon="3.79196">
        <ele>56</ele>
        <time>2021-05-14T15:20:34Z</time>
      </trkpt>
      <trkpt lat="43.61561" lon="3.792">
        <ele>56</ele>
        <time>2021-05-14T15:20:35Z</time>
      </trkpt>
      <trkpt lat="43.61563" lon="3.79203">
        <ele>56</ele>
        <time>2021-05-14T15:20:36Z</time>
      </trkpt>
      <trkpt lat="43.61565" lon="3.79206">
        <ele>56</ele>
        <time>2021-05-14T15:20:37Z</time>
      </trkpt>
      <trkpt lat="43.61567" lon="3.7921">
        <ele>56</ele>
        <time>2021-05-14T15:20:38Z</time>
      </trkpt>
      <trkpt lat="43.61568" lon="3.79213">
        <ele>58</ele>
        <time>2021-05-14T15:20:39Z</time>
      </trkpt>
      <trkpt lat="43.6157" lon="3.79216">
        <ele>58</ele>
        <time>2021-05-14T15:20:40Z</time>
      </trkpt>
      <trkpt lat="43.61572" lon="3.79219">
        <ele>58</ele>
        <time>2021-05-14T15:20:41Z</time>
      </trkpt>
      <trkpt lat="43.61573" lon="3.79222">
        <ele>58</ele>
        <time>2021-05-14T15:20:42Z</time>
      </trkpt>
      <trkpt lat="43.61575" lon="3.79225">
        <ele>58</ele>
        <time>2021-05-14T15:20:43Z</time>
      </trkpt>
      <trkpt lat="43.61577" lon="3.79228">
        <ele>58</ele>
        <time>2021-05-14T15:20:44Z</time>
      </trkpt>
      <trkpt lat="43.61579" lon="3.7923">
        <ele>58</ele>
        <time>2021-05-14T15:20:45Z</time>
      </trkpt>
      <trkpt lat="43.61581" lon="3.79233">
        <ele>58</ele>
        <time>2021-05-14T15:20:46Z</time>
      </trkpt>
      <trkpt lat="43.61583" lon="3.79236">
        <ele>58</ele>
        <time>2021-05-14T15:20:47Z</time>
      </trkpt>
      <trkpt lat="43.61585" lon="3.79239">
        <ele>58</ele>
        <time>2021-05-14T15:20:48Z</time>
      </trkpt>
      <trkpt lat="43.61587" lon="3.79242">
        <ele>59</ele>
        <time>2021-05-14T15:20:49Z</time>
      </trkpt>
      <trkpt lat="43.6159" lon="3.79244">
        <ele>59</ele>
        <time>2021-05-14T15:20:50Z</time>
      </trkpt>
      <trkpt lat="43.61592" lon="3.79247">
        <ele>59</ele>
        <time>2021-05-14T15:20:51Z</time>
      </trkpt>
      <trkpt lat="43.61595" lon="3.79251">
        <ele>59</ele>
        <time>2021-05-14T15:20:52Z</time>
      </trkpt>
      <trkpt lat="43.61597" lon="3.79254">
        <ele>59</ele>
        <time>2021-05-14T15:20:53Z</time>
      </trkpt>
      <trkpt lat="43.616" lon="3.79258">
        <ele>59</ele>
        <time>2021-05-14T15:20:54Z</time>
      </trkpt>
      <trkpt lat="43.61602" lon="3.79261">
        <ele>59</ele>
        <time>2021-05-14T15:20:55Z</time>
      </trkpt>
      <trkpt lat="43.61605" lon="3.79265">
        <ele>59</ele>
        <time>2021-05-14T15:20:56Z</time>
      </trkpt>
      <trkpt lat="43.61608" lon="3.79268">
        <ele>59</ele>
        <time>2021-05-14T15:20:57Z</time>
      </trkpt>
      <trkpt lat="43.61611" lon="3.79271">
        <ele>59</ele>
        <time>2021-05-14T15:20:58Z</time>
      </trkpt>
      <trkpt lat="43.61617" lon="3.79278">
        <ele>60</ele>
        <time>2021-05-14T15:20:59Z</time>
      </trkpt>
      <trkpt lat="43.6162" lon="3.79282">
        <ele>60</ele>
        <time>2021-05-14T15:21:01Z</time>
      </trkpt>
      <trkpt lat="43.61623" lon="3.79286">
        <ele>60</ele>
        <time>2021-05-14T15:21:02Z</time>
      </trkpt>
      <trkpt lat="43.61626" lon="3.7929">
        <ele>60</ele>
        <time>2021-05-14T15:21:03Z</time>
      </trkpt>
      <trkpt lat="43.61629" lon="3.79293">
        <ele>60</ele>
        <time>2021-05-14T15:21:04Z</time>
      </trkpt>
      <trkpt lat="43.61631" lon="3.79297">
        <ele>60</ele>
        <time>2021-05-14T15:21:05Z</time>
      </trkpt>
      <trkpt lat="43.61634" lon="3.79301">
        <ele>60</ele>
        <time>2021-05-14T15:21:06Z</time>
      </trkpt>
      <trkpt lat="43.61636" lon="3.79305">
        <ele>60</ele>
        <time>2021-05-14T15:21:07Z</time>
      </trkpt>
      <trkpt lat="43.61637" lon="3.79308">
        <ele>60</ele>
        <time>2021-05-14T15:21:08Z</time>
      </trkpt>
      <trkpt lat="43.61638" lon="3.79311">
        <ele>60</ele>
        <time>2021-05-14T15:21:10Z</time>
      </trkpt>
      <trkpt lat="43.61639" lon="3.79313">
        <ele>60</ele>
        <time>2021-05-14T15:21:11Z</time>
      </trkpt>
      <trkpt lat="43.6164" lon="3.79316">
        <ele>60</ele>
        <time>2021-05-14T15:21:12Z</time>
      </trkpt>
      <trkpt lat="43.61641" lon="3.79318">
        <ele>60</ele>
        <time>2021-05-14T15:21:13Z</time>
      </trkpt>
      <trkpt lat="43.61642" lon="3.79323">
        <ele>60</ele>
        <time>2021-05-14T15:21:15Z</time>
      </trkpt>
      <trkpt lat="43.6164" lon="3.79325">
        <ele>60</ele>
        <time>2021-05-14T15:21:17Z</time>
      </trkpt>
      <trkpt lat="43.61637" lon="3.79324">
        <ele>62</ele>
        <time>2021-05-14T15:21:19Z</time>
      </trkpt>
      <trkpt lat="43.61633" lon="3.79325">
        <ele>62</ele>
        <time>2021-05-14T15:21:21Z</time>
      </trkpt>
      <trkpt lat="43.61629" lon="3.79326">
        <ele>62</ele>
        <time>2021-05-14T15:21:22Z</time>
      </trkpt>
      <trkpt lat="43.61625" lon="3.79326">
        <ele>62</ele>
        <time>2021-05-14T15:21:23Z</time>
      </trkpt>
      <trkpt lat="43.6162" lon="3.79327">
        <ele>62</ele>
        <time>2021-05-14T15:21:24Z</time>
      </trkpt>
      <trkpt lat="43.61614" lon="3.79327">
        <ele>62</ele>
        <time>2021-05-14T15:21:25Z</time>
      </trkpt>
      <trkpt lat="43.61609" lon="3.79328">
        <ele>62</ele>
        <time>2021-05-14T15:21:26Z</time>
      </trkpt>
      <trkpt lat="43.61604" lon="3.7933">
        <ele>62</ele>
        <time>2021-05-14T15:21:27Z</time>
      </trkpt>
      <trkpt lat="43.61599" lon="3.79333">
        <ele>62</ele>
        <time>2021-05-14T15:21:28Z</time>
      </trkpt>
      <trkpt lat="43.6159" lon="3.7934">
        <ele>61</ele>
        <time>2021-05-14T15:21:29Z</time>
      </trkpt>
      <trkpt lat="43.61585" lon="3.79344">
        <ele>61</ele>
        <time>2021-05-14T15:21:30Z</time>
      </trkpt>
      <trkpt lat="43.61581" lon="3.79348">
        <ele>61</ele>
        <time>2021-05-14T15:21:31Z</time>
      </trkpt>
      <trkpt lat="43.61576" lon="3.79351">
        <ele>61</ele>
        <time>2021-05-14T15:21:32Z</time>
      </trkpt>
      <trkpt lat="43.61571" lon="3.79355">
        <ele>61</ele>
        <time>2021-05-14T15:21:34Z</time>
      </trkpt>
      <trkpt lat="43.61567" lon="3.7936">
        <ele>61</ele>
        <time>2021-05-14T15:21:35Z</time>
      </trkpt>
      <trkpt lat="43.61563" lon="3.79364">
        <ele>61</ele>
        <time>2021-05-14T15:21:36Z</time>
      </trkpt>
      <trkpt lat="43.61558" lon="3.79368">
        <ele>61</ele>
        <time>2021-05-14T15:21:37Z</time>
      </trkpt>
      <trkpt lat="43.61553" lon="3.79371">
        <ele>61</ele>
        <time>2021-05-14T15:21:38Z</time>
      </trkpt>
      <trkpt lat="43.61547" lon="3.79373">
        <ele>60</ele>
        <time>2021-05-14T15:21:39Z</time>
      </trkpt>
      <trkpt lat="43.61541" lon="3.79375">
        <ele>60</ele>
        <time>2021-05-14T15:21:40Z</time>
      </trkpt>
      <trkpt lat="43.61535" lon="3.79378">
        <ele>60</ele>
        <time>2021-05-14T15:21:41Z</time>
      </trkpt>
      <trkpt lat="43.61529" lon="3.79379">
        <ele>60</ele>
        <time>2021-05-14T15:21:42Z</time>
      </trkpt>
      <trkpt lat="43.61523" lon="3.79381">
        <ele>60</ele>
        <time>2021-05-14T15:21:43Z</time>
      </trkpt>
      <trkpt lat="43.61517" lon="3.79382">
        <ele>60</ele>
        <time>2021-05-14T15:21:44Z</time>
      </trkpt>
      <trkpt lat="43.61511" lon="3.79384">
        <ele>60</ele>
        <time>2021-05-14T15:21:45Z</time>
      </trkpt>
      <trkpt lat="43.61506" lon="3.79387">
        <ele>60</ele>
        <time>2021-05-14T15:21:46Z</time>
      </trkpt>
      <trkpt lat="43.61501" lon="3.7939">
        <ele>60</ele>
        <time>2021-05-14T15:21:47Z</time>
      </trkpt>
      <trkpt lat="43.61498" lon="3.79393">
        <ele>60</ele>
        <time>2021-05-14T15:21:48Z</time>
      </trkpt>
      <trkpt lat="43.61495" lon="3.79394">
        <ele>58</ele>
        <time>2021-05-14T15:21:49Z</time>
      </trkpt>
      <trkpt lat="43.61493" lon="3.79395">
        <ele>58</ele>
        <time>2021-05-14T15:21:50Z</time>
      </trkpt>
      <trkpt lat="43.61491" lon="3.79396">
        <ele>58</ele>
        <time>2021-05-14T15:21:51Z</time>
      </trkpt>
      <trkpt lat="43.61488" lon="3.79398">
        <ele>58</ele>
        <time>2021-05-14T15:21:52Z</time>
      </trkpt>
      <trkpt lat="43.61486" lon="3.79401">
        <ele>58</ele>
        <time>2021-05-14T15:21:53Z</time>
      </trkpt>
      <trkpt lat="43.61484" lon="3.79405">
        <ele>58</ele>
        <time>2021-05-14T15:21:54Z</time>
      </trkpt>
      <trkpt lat="43.61481" lon="3.79409">
        <ele>58</ele>
        <time>2021-05-14T15:21:55Z</time>
      </trkpt>
      <trkpt lat="43.61479" lon="3.79413">
        <ele>58</ele>
        <time>2021-05-14T15:21:56Z</time>
      </trkpt>
      <trkpt lat="43.61477" lon="3.79418">
        <ele>58</ele>
        <time>2021-05-14T15:21:57Z</time>
      </trkpt>
      <trkpt lat="43.61475" lon="3.79424">
        <ele>58</ele>
        <time>2021-05-14T15:21:58Z</time>
      </trkpt>
      <trkpt lat="43.61474" lon="3.79429">
        <ele>56</ele>
        <time>2021-05-14T15:21:59Z</time>
      </trkpt>
      <trkpt lat="43.61473" lon="3.79435">
        <ele>56</ele>
        <time>2021-05-14T15:22:00Z</time>
      </trkpt>
      <trkpt lat="43.61472" lon="3.79441">
        <ele>56</ele>
        <time>2021-05-14T15:22:01Z</time>
      </trkpt>
      <trkpt lat="43.61471" lon="3.79447">
        <ele>56</ele>
        <time>2021-05-14T15:22:02Z</time>
      </trkpt>
      <trkpt lat="43.61471" lon="3.79453">
        <ele>56</ele>
        <time>2021-05-14T15:22:03Z</time>
      </trkpt>
      <trkpt lat="43.61471" lon="3.79459">
        <ele>56</ele>
        <time>2021-05-14T15:22:04Z</time>
      </trkpt>
      <trkpt lat="43.61472" lon="3.79465">
        <ele>56</ele>
        <time>2021-05-14T15:22:05Z</time>
      </trkpt>
      <trkpt lat="43.61472" lon="3.79472">
        <ele>56</ele>
        <time>2021-05-14T15:22:06Z</time>
      </trkpt>
      <trkpt lat="43.61473" lon="3.79478">
        <ele>56</ele>
        <time>2021-05-14T15:22:07Z</time>
      </trkpt>
      <trkpt lat="43.61473" lon="3.79484">
        <ele>56</ele>
        <time>2021-05-14T15:22:08Z</time>
      </trkpt>
      <trkpt lat="43.61473" lon="3.7949">
        <ele>55</ele>
        <time>2021-05-14T15:22:09Z</time>
      </trkpt>
      <trkpt lat="43.61473" lon="3.79497">
        <ele>55</ele>
        <time>2021-05-14T15:22:10Z</time>
      </trkpt>
      <trkpt lat="43.61472" lon="3.79503">
        <ele>55</ele>
        <time>2021-05-14T15:22:11Z</time>
      </trkpt>
      <trkpt lat="43.61471" lon="3.7951">
        <ele>55</ele>
        <time>2021-05-14T15:22:12Z</time>
      </trkpt>
      <trkpt lat="43.61471" lon="3.79517">
        <ele>55</ele>
        <time>2021-05-14T15:22:13Z</time>
      </trkpt>
      <trkpt lat="43.61471" lon="3.79524">
        <ele>55</ele>
        <time>2021-05-14T15:22:14Z</time>
      </trkpt>
      <trkpt lat="43.61471" lon="3.79531">
        <ele>55</ele>
        <time>2021-05-14T15:22:15Z</time>
      </trkpt>
      <trkpt lat="43.61472" lon="3.79538">
        <ele>55</ele>
        <time>2021-05-14T15:22:16Z</time>
      </trkpt>
      <trkpt lat="43.61473" lon="3.79544">
        <ele>55</ele>
        <time>2021-05-14T15:22:17Z</time>
      </trkpt>
      <trkpt lat="43.61474" lon="3.7955">
        <ele>55</ele>
        <time>2021-05-14T15:22:18Z</time>
      </trkpt>
      <trkpt lat="43.61473" lon="3.79556">
        <ele>54</ele>
        <time>2021-05-14T15:22:19Z</time>
      </trkpt>
      <trkpt lat="43.61471" lon="3.79559">
        <ele>54</ele>
        <time>2021-05-14T15:22:20Z</time>
      </trkpt>
      <trkpt lat="43.61467" lon="3.7956">
        <ele>54</ele>
        <time>2021-05-14T15:22:21Z</time>
      </trkpt>
      <trkpt lat="43.61463" lon="3.79559">
        <ele>54</ele>
        <time>2021-05-14T15:22:22Z</time>
      </trkpt>
      <trkpt lat="43.6146" lon="3.79559">
        <ele>54</ele>
        <time>2021-05-14T15:22:23Z</time>
      </trkpt>
      <trkpt lat="43.61457" lon="3.7956">
        <ele>54</ele>
        <time>2021-05-14T15:22:24Z</time>
      </trkpt>
      <trkpt lat="43.61455" lon="3.79564">
        <ele>54</ele>
        <time>2021-05-14T15:22:25Z</time>
      </trkpt>
      <trkpt lat="43.61453" lon="3.79568">
        <ele>54</ele>
        <time>2021-05-14T15:22:26Z</time>
      </trkpt>
      <trkpt lat="43.61452" lon="3.79573">
        <ele>54</ele>
        <time>2021-05-14T15:22:27Z</time>
      </trkpt>
      <trkpt lat="43.6145" lon="3.79579">
        <ele>54</ele>
        <time>2021-05-14T15:22:28Z</time>
      </trkpt>
      <trkpt lat="43.61449" lon="3.79584">
        <ele>53</ele>
        <time>2021-05-14T15:22:29Z</time>
      </trkpt>
      <trkpt lat="43.61448" lon="3.79591">
        <ele>53</ele>
        <time>2021-05-14T15:22:30Z</time>
      </trkpt>
      <trkpt lat="43.61447" lon="3.79597">
        <ele>53</ele>
        <time>2021-05-14T15:22:31Z</time>
      </trkpt>
      <trkpt lat="43.61447" lon="3.79604">
        <ele>53</ele>
        <time>2021-05-14T15:22:32Z</time>
      </trkpt>
      <trkpt lat="43.61446" lon="3.79611">
        <ele>53</ele>
        <time>2021-05-14T15:22:33Z</time>
      </trkpt>
      <trkpt lat="43.61445" lon="3.79618">
        <ele>53</ele>
        <time>2021-05-14T15:22:34Z</time>
      </trkpt>
      <trkpt lat="43.61444" lon="3.79625">
        <ele>53</ele>
        <time>2021-05-14T15:22:35Z</time>
      </trkpt>
      <trkpt lat="43.61443" lon="3.79632">
        <ele>53</ele>
        <time>2021-05-14T15:22:36Z</time>
      </trkpt>
      <trkpt lat="43.61442" lon="3.79639">
        <ele>53</ele>
        <time>2021-05-14T15:22:37Z</time>
      </trkpt>
      <trkpt lat="43.6144" lon="3.79646">
        <ele>53</ele>
        <time>2021-05-14T15:22:38Z</time>
      </trkpt>
      <trkpt lat="43.61439" lon="3.79653">
        <ele>54</ele>
        <time>2021-05-14T15:22:39Z</time>
      </trkpt>
      <trkpt lat="43.61437" lon="3.79659">
        <ele>54</ele>
        <time>2021-05-14T15:22:40Z</time>
      </trkpt>
      <trkpt lat="43.61435" lon="3.79666">
        <ele>54</ele>
        <time>2021-05-14T15:22:41Z</time>
      </trkpt>
      <trkpt lat="43.61433" lon="3.79672">
        <ele>54</ele>
        <time>2021-05-14T15:22:42Z</time>
      </trkpt>
      <trkpt lat="43.61431" lon="3.79678">
        <ele>54</ele>
        <time>2021-05-14T15:22:43Z</time>
      </trkpt>
      <trkpt lat="43.61429" lon="3.79684">
        <ele>54</ele>
        <time>2021-05-14T15:22:44Z</time>
      </trkpt>
      <trkpt lat="43.61427" lon="3.7969">
        <ele>54</ele>
        <time>2021-05-14T15:22:45Z</time>
      </trkpt>
      <trkpt lat="43.61425" lon="3.79696">
        <ele>54</ele>
        <time>2021-05-14T15:22:46Z</time>
      </trkpt>
      <trkpt lat="43.61423" lon="3.79702">
        <ele>54</ele>
        <time>2021-05-14T15:22:47Z</time>
      </trkpt>
      <trkpt lat="43.61422" lon="3.79708">
        <ele>54</ele>
        <time>2021-05-14T15:22:48Z</time>
      </trkpt>
      <trkpt lat="43.6142" lon="3.79714">
        <ele>55</ele>
        <time>2021-05-14T15:22:49Z</time>
      </trkpt>
      <trkpt lat="43.61419" lon="3.7972">
        <ele>55</ele>
        <time>2021-05-14T15:22:50Z</time>
      </trkpt>
      <trkpt lat="43.61417" lon="3.79725">
        <ele>55</ele>
        <time>2021-05-14T15:22:51Z</time>
      </trkpt>
      <trkpt lat="43.61416" lon="3.79731">
        <ele>55</ele>
        <time>2021-05-14T15:22:52Z</time>
      </trkpt>
      <trkpt lat="43.61415" lon="3.79736">
        <ele>55</ele>
        <time>2021-05-14T15:22:53Z</time>
      </trkpt>
      <trkpt lat="43.61414" lon="3.79741">
        <ele>55</ele>
        <time>2021-05-14T15:22:54Z</time>
      </trkpt>
      <trkpt lat="43.61412" lon="3.79746">
        <ele>55</ele>
        <time>2021-05-14T15:22:55Z</time>
      </trkpt>
      <trkpt lat="43.6141" lon="3.7975">
        <ele>55</ele>
        <time>2021-05-14T15:22:56Z</time>
      </trkpt>
      <trkpt lat="43.61408" lon="3.79755">
        <ele>55</ele>
        <time>2021-05-14T15:22:57Z</time>
      </trkpt>
      <trkpt lat="43.61407" lon="3.7976">
        <ele>55</ele>
        <time>2021-05-14T15:22:58Z</time>
      </trkpt>
      <trkpt lat="43.61406" lon="3.79765">
        <ele>57</ele>
        <time>2021-05-14T15:22:59Z</time>
      </trkpt>
      <trkpt lat="43.61405" lon="3.7977">
        <ele>57</ele>
        <time>2021-05-14T15:23:00Z</time>
      </trkpt>
      <trkpt lat="43.61403" lon="3.79775">
        <ele>57</ele>
        <time>2021-05-14T15:23:01Z</time>
      </trkpt>
      <trkpt lat="43.61402" lon="3.79779">
        <ele>57</ele>
        <time>2021-05-14T15:23:02Z</time>
      </trkpt>
      <trkpt lat="43.614" lon="3.79784">
        <ele>57</ele>
        <time>2021-05-14T15:23:03Z</time>
      </trkpt>
      <trkpt lat="43.61399" lon="3.79788">
        <ele>57</ele>
        <time>2021-05-14T15:23:04Z</time>
      </trkpt>
      <trkpt lat="43.61397" lon="3.79792">
        <ele>57</ele>
        <time>2021-05-14T15:23:05Z</time>
      </trkpt>
      <trkpt lat="43.61396" lon="3.79797">
        <ele>57</ele>
        <time>2021-05-14T15:23:06Z</time>
      </trkpt>
      <trkpt lat="43.61395" lon="3.79801">
        <ele>57</ele>
        <time>2021-05-14T15:23:07Z</time>
      </trkpt>
      <trkpt lat="43.61394" lon="3.79806">
        <ele>57</ele>
        <time>2021-05-14T15:23:08Z</time>
      </trkpt>
      <trkpt lat="43.61393" lon="3.79815">
        <ele>59</ele>
        <time>2021-05-14T15:23:09Z</time>
      </trkpt>
      <trkpt lat="43.61393" lon="3.79819">
        <ele>59</ele>
        <time>2021-05-14T15:23:10Z</time>
      </trkpt>
      <trkpt lat="43.61393" lon="3.79823">
        <ele>59</ele>
        <time>2021-05-14T15:23:11Z</time>
      </trkpt>
      <trkpt lat="43.61393" lon="3.79827">
        <ele>59</ele>
        <time>2021-05-14T15:23:12Z</time>
      </trkpt>
      <trkpt lat="43.61392" lon="3.79831">
        <ele>59</ele>
        <time>2021-05-14T15:23:13Z</time>
      </trkpt>
      <trkpt lat="43.61392" lon="3.79835">
        <ele>59</ele>
        <time>2021-05-14T15:23:14Z</time>
      </trkpt>
      <trkpt lat="43.61391" lon="3.79839">
        <ele>59</ele>
        <time>2021-05-14T15:23:15Z</time>
      </trkpt>
      <trkpt lat="43.61391" lon="3.79843">
        <ele>59</ele>
        <time>2021-05-14T15:23:16Z</time>
      </trkpt>
      <trkpt lat="43.6139" lon="3.79846">
        <ele>59</ele>
        <time>2021-05-14T15:23:17Z</time>
      </trkpt>
      <trkpt lat="43.61388" lon="3.7985">
        <ele>59</ele>
        <time>2021-05-14T15:23:18Z</time>
      </trkpt>
      <trkpt lat="43.61387" lon="3.79853">
        <ele>59</ele>
        <time>2021-05-14T15:23:20Z</time>
      </trkpt>
      <trkpt lat="43.61385" lon="3.79856">
        <ele>59</ele>
        <time>2021-05-14T15:23:21Z</time>
      </trkpt>
      <trkpt lat="43.61384" lon="3.7986">
        <ele>59</ele>
        <time>2021-05-14T15:23:22Z</time>
      </trkpt>
      <trkpt lat="43.61383" lon="3.79863">
        <ele>59</ele>
        <time>2021-05-14T15:23:23Z</time>
      </trkpt>
      <trkpt lat="43.61382" lon="3.79865">
        <ele>59</ele>
        <time>2021-05-14T15:23:24Z</time>
      </trkpt>
      <trkpt lat="43.6138" lon="3.79867">
        <ele>59</ele>
        <time>2021-05-14T15:23:25Z</time>
      </trkpt>
      <trkpt lat="43.61379" lon="3.79869">
        <ele>59</ele>
        <time>2021-05-14T15:23:26Z</time>
      </trkpt>
      <trkpt lat="43.61377" lon="3.79872">
        <ele>59</ele>
        <time>2021-05-14T15:23:27Z</time>
      </trkpt>
      <trkpt lat="43.61376" lon="3.79874">
        <ele>59</ele>
        <time>2021-05-14T15:23:28Z</time>
      </trkpt>
      <trkpt lat="43.61375" lon="3.79877">
        <ele>63</ele>
        <time>2021-05-14T15:23:29Z</time>
      </trkpt>
      <trkpt lat="43.61375" lon="3.7988">
        <ele>63</ele>
        <time>2021-05-14T15:23:30Z</time>
      </trkpt>
      <trkpt lat="43.61376" lon="3.79883">
        <ele>63</ele>
        <time>2021-05-14T15:23:31Z</time>
      </trkpt>
      <trkpt lat="43.61377" lon="3.79886">
        <ele>63</ele>
        <time>2021-05-14T15:23:32Z</time>
      </trkpt>
      <trkpt lat="43.61377" lon="3.79889">
        <ele>63</ele>
        <time>2021-05-14T15:23:33Z</time>
      </trkpt>
      <trkpt lat="43.61379" lon="3.79892">
        <ele>63</ele>
        <time>2021-05-14T15:23:34Z</time>
      </trkpt>
      <trkpt lat="43.61381" lon="3.79896">
        <ele>63</ele>
        <time>2021-05-14T15:23:35Z</time>
      </trkpt>
      <trkpt lat="43.61383" lon="3.79899">
        <ele>63</ele>
        <time>2021-05-14T15:23:36Z</time>
      </trkpt>
      <trkpt lat="43.61385" lon="3.79903">
        <ele>63</ele>
        <time>2021-05-14T15:23:37Z</time>
      </trkpt>
      <trkpt lat="43.61388" lon="3.79908">
        <ele>63</ele>
        <time>2021-05-14T15:23:38Z</time>
      </trkpt>
      <trkpt lat="43.61391" lon="3.79913">
        <ele>63</ele>
        <time>2021-05-14T15:23:39Z</time>
      </trkpt>
      <trkpt lat="43.61394" lon="3.79919">
        <ele>63</ele>
        <time>2021-05-14T15:23:40Z</time>
      </trkpt>
      <trkpt lat="43.61397" lon="3.79925">
        <ele>63</ele>
        <time>2021-05-14T15:23:41Z</time>
      </trkpt>
      <trkpt lat="43.61401" lon="3.79932">
        <ele>63</ele>
        <time>2021-05-14T15:23:42Z</time>
      </trkpt>
      <trkpt lat="43.61404" lon="3.79939">
        <ele>63</ele>
        <time>2021-05-14T15:23:43Z</time>
      </trkpt>
      <trkpt lat="43.61408" lon="3.79946">
        <ele>63</ele>
        <time>2021-05-14T15:23:44Z</time>
      </trkpt>
      <trkpt lat="43.61412" lon="3.79952">
        <ele>63</ele>
        <time>2021-05-14T15:23:45Z</time>
      </trkpt>
      <trkpt lat="43.61416" lon="3.79959">
        <ele>63</ele>
        <time>2021-05-14T15:23:46Z</time>
      </trkpt>
      <trkpt lat="43.6142" lon="3.79965">
        <ele>63</ele>
        <time>2021-05-14T15:23:47Z</time>
      </trkpt>
      <trkpt lat="43.61423" lon="3.79971">
        <ele>63</ele>
        <time>2021-05-14T15:23:48Z</time>
      </trkpt>
      <trkpt lat="43.61425" lon="3.79976">
        <ele>63</ele>
        <time>2021-05-14T15:23:49Z</time>
      </trkpt>
      <trkpt lat="43.61426" lon="3.79981">
        <ele>63</ele>
        <time>2021-05-14T15:23:50Z</time>
      </trkpt>
      <trkpt lat="43.61428" lon="3.79985">
        <ele>63</ele>
        <time>2021-05-14T15:23:51Z</time>
      </trkpt>
      <trkpt lat="43.61429" lon="3.79989">
        <ele>63</ele>
        <time>2021-05-14T15:23:52Z</time>
      </trkpt>
      <trkpt lat="43.6143" lon="3.79993">
        <ele>63</ele>
        <time>2021-05-14T15:23:53Z</time>
      </trkpt>
      <trkpt lat="43.6143" lon="3.79997">
        <ele>63</ele>
        <time>2021-05-14T15:23:54Z</time>
      </trkpt>
      <trkpt lat="43.61431" lon="3.80001">
        <ele>63</ele>
        <time>2021-05-14T15:23:55Z</time>
      </trkpt>
      <trkpt lat="43.61431" lon="3.80004">
        <ele>63</ele>
        <time>2021-05-14T15:23:56Z</time>
      </trkpt>
      <trkpt lat="43.61431" lon="3.80008">
        <ele>63</ele>
        <time>2021-05-14T15:23:57Z</time>
      </trkpt>
      <trkpt lat="43.61432" lon="3.80011">
        <ele>63</ele>
        <time>2021-05-14T15:23:58Z</time>
      </trkpt>
      <trkpt lat="43.61432" lon="3.80014">
        <ele>65</ele>
        <time>2021-05-14T15:23:59Z</time>
      </trkpt>
      <trkpt lat="43.61432" lon="3.80017">
        <ele>65</ele>
        <time>2021-05-14T15:24:00Z</time>
      </trkpt>
      <trkpt lat="43.61433" lon="3.8002">
        <ele>65</ele>
        <time>2021-05-14T15:24:01Z</time>
      </trkpt>
      <trkpt lat="43.61433" lon="3.80022">
        <ele>65</ele>
        <time>2021-05-14T15:24:02Z</time>
      </trkpt>
      <trkpt lat="43.61434" lon="3.80025">
        <ele>65</ele>
        <time>2021-05-14T15:24:03Z</time>
      </trkpt>
      <trkpt lat="43.61434" lon="3.80028">
        <ele>65</ele>
        <time>2021-05-14T15:24:04Z</time>
      </trkpt>
      <trkpt lat="43.61435" lon="3.80031">
        <ele>65</ele>
        <time>2021-05-14T15:24:05Z</time>
      </trkpt>
      <trkpt lat="43.61437" lon="3.80033">
        <ele>65</ele>
        <time>2021-05-14T15:24:06Z</time>
      </trkpt>
      <trkpt lat="43.61438" lon="3.80036">
        <ele>65</ele>
        <time>2021-05-14T15:24:07Z</time>
      </trkpt>
      <trkpt lat="43.6144" lon="3.80038">
        <ele>65</ele>
        <time>2021-05-14T15:24:08Z</time>
      </trkpt>
      <trkpt lat="43.61442" lon="3.8004">
        <ele>66</ele>
        <time>2021-05-14T15:24:09Z</time>
      </trkpt>
      <trkpt lat="43.61443" lon="3.80043">
        <ele>66</ele>
        <time>2021-05-14T15:24:10Z</time>
      </trkpt>
      <trkpt lat="43.61444" lon="3.80046">
        <ele>66</ele>
        <time>2021-05-14T15:24:11Z</time>
      </trkpt>
      <trkpt lat="43.61445" lon="3.80048">
        <ele>66</ele>
        <time>2021-05-14T15:24:12Z</time>
      </trkpt>
      <trkpt lat="43.61446" lon="3.80051">
        <ele>66</ele>
        <time>2021-05-14T15:24:13Z</time>
      </trkpt>
      <trkpt lat="43.61446" lon="3.80055">
        <ele>66</ele>
        <time>2021-05-14T15:24:14Z</time>
      </trkpt>
      <trkpt lat="43.61448" lon="3.80058">
        <ele>66</ele>
        <time>2021-05-14T15:24:15Z</time>
      </trkpt>
      <trkpt lat="43.6145" lon="3.8006">
        <ele>66</ele>
        <time>2021-05-14T15:24:16Z</time>
      </trkpt>
      <trkpt lat="43.61452" lon="3.80062">
        <ele>66</ele>
        <time>2021-05-14T15:24:17Z</time>
      </trkpt>
      <trkpt lat="43.61455" lon="3.80063">
        <ele>66</ele>
        <time>2021-05-14T15:24:18Z</time>
      </trkpt>
      <trkpt lat="43.61457" lon="3.80065">
        <ele>67</ele>
        <time>2021-05-14T15:24:19Z</time>
      </trkpt>
      <trkpt lat="43.61457" lon="3.80069">
        <ele>67</ele>
        <time>2021-05-14T15:24:20Z</time>
      </trkpt>
      <trkpt lat="43.61456" lon="3.80072">
        <ele>67</ele>
        <time>2021-05-14T15:24:21Z</time>
      </trkpt>
      <trkpt lat="43.61454" lon="3.80075">
        <ele>67</ele>
        <time>2021-05-14T15:24:22Z</time>
      </trkpt>
      <trkpt lat="43.61454" lon="3.80078">
        <ele>67</ele>
        <time>2021-05-14T15:24:23Z</time>
      </trkpt>
      <trkpt lat="43.61453" lon="3.80082">
        <ele>67</ele>
        <time>2021-05-14T15:24:24Z</time>
      </trkpt>
      <trkpt lat="43.61452" lon="3.80085">
        <ele>67</ele>
        <time>2021-05-14T15:24:25Z</time>
      </trkpt>
      <trkpt lat="43.61451" lon="3.80089">
        <ele>67</ele>
        <time>2021-05-14T15:24:26Z</time>
      </trkpt>
      <trkpt lat="43.6145" lon="3.80093">
        <ele>67</ele>
        <time>2021-05-14T15:24:27Z</time>
      </trkpt>
      <trkpt lat="43.61449" lon="3.80096">
        <ele>67</ele>
        <time>2021-05-14T15:24:28Z</time>
      </trkpt>
      <trkpt lat="43.61448" lon="3.801">
        <ele>66</ele>
        <time>2021-05-14T15:24:29Z</time>
      </trkpt>
      <trkpt lat="43.61447" lon="3.80104">
        <ele>66</ele>
        <time>2021-05-14T15:24:30Z</time>
      </trkpt>
      <trkpt lat="43.61446" lon="3.80108">
        <ele>66</ele>
        <time>2021-05-14T15:24:31Z</time>
      </trkpt>
      <trkpt lat="43.61445" lon="3.80111">
        <ele>66</ele>
        <time>2021-05-14T15:24:32Z</time>
      </trkpt>
      <trkpt lat="43.61444" lon="3.80115">
        <ele>66</ele>
        <time>2021-05-14T15:24:33Z</time>
      </trkpt>
      <trkpt lat="43.61443" lon="3.80118">
        <ele>66</ele>
        <time>2021-05-14T15:24:34Z</time>
      </trkpt>
      <trkpt lat="43.61442" lon="3.80121">
        <ele>66</ele>
        <time>2021-05-14T15:24:35Z</time>
      </trkpt>
      <trkpt lat="43.61442" lon="3.80125">
        <ele>66</ele>
        <time>2021-05-14T15:24:36Z</time>
      </trkpt>
      <trkpt lat="43.61442" lon="3.80128">
        <ele>66</ele>
        <time>2021-05-14T15:24:37Z</time>
      </trkpt>
      <trkpt lat="43.61443" lon="3.80132">
        <ele>66</ele>
        <time>2021-05-14T15:24:38Z</time>
      </trkpt>
      <trkpt lat="43.61443" lon="3.80136">
        <ele>67</ele>
        <time>2021-05-14T15:24:39Z</time>
      </trkpt>
      <trkpt lat="43.61444" lon="3.8014">
        <ele>67</ele>
        <time>2021-05-14T15:24:40Z</time>
      </trkpt>
      <trkpt lat="43.61443" lon="3.80145">
        <ele>67</ele>
        <time>2021-05-14T15:24:41Z</time>
      </trkpt>
      <trkpt lat="43.61442" lon="3.8015">
        <ele>67</ele>
        <time>2021-05-14T15:24:42Z</time>
      </trkpt>
      <trkpt lat="43.61441" lon="3.80156">
        <ele>67</ele>
        <time>2021-05-14T15:24:43Z</time>
      </trkpt>
      <trkpt lat="43.6144" lon="3.80161">
        <ele>67</ele>
        <time>2021-05-14T15:24:44Z</time>
      </trkpt>
      <trkpt lat="43.61439" lon="3.80167">
        <ele>67</ele>
        <time>2021-05-14T15:24:45Z</time>
      </trkpt>
      <trkpt lat="43.61437" lon="3.80174">
        <ele>67</ele>
        <time>2021-05-14T15:24:46Z</time>
      </trkpt>
      <trkpt lat="43.61436" lon="3.8018">
        <ele>67</ele>
        <time>2021-05-14T15:24:47Z</time>
      </trkpt>
      <trkpt lat="43.61434" lon="3.80186">
        <ele>67</ele>
        <time>2021-05-14T15:24:48Z</time>
      </trkpt>
      <trkpt lat="43.61433" lon="3.80193">
        <ele>66</ele>
        <time>2021-05-14T15:24:49Z</time>
      </trkpt>
      <trkpt lat="43.61432" lon="3.80199">
        <ele>66</ele>
        <time>2021-05-14T15:24:50Z</time>
      </trkpt>
      <trkpt lat="43.61431" lon="3.80205">
        <ele>66</ele>
        <time>2021-05-14T15:24:51Z</time>
      </trkpt>
      <trkpt lat="43.61429" lon="3.80211">
        <ele>66</ele>
        <time>2021-05-14T15:24:52Z</time>
      </trkpt>
      <trkpt lat="43.61428" lon="3.80217">
        <ele>66</ele>
        <time>2021-05-14T15:24:53Z</time>
      </trkpt>
      <trkpt lat="43.61427" lon="3.80223">
        <ele>66</ele>
        <time>2021-05-14T15:24:54Z</time>
      </trkpt>
      <trkpt lat="43.61426" lon="3.8023">
        <ele>66</ele>
        <time>2021-05-14T15:24:55Z</time>
      </trkpt>
      <trkpt lat="43.61425" lon="3.80238">
        <ele>66</ele>
        <time>2021-05-14T15:24:56Z</time>
      </trkpt>
      <trkpt lat="43.61424" lon="3.80247">
        <ele>66</ele>
        <time>2021-05-14T15:24:57Z</time>
      </trkpt>
      <trkpt lat="43.61422" lon="3.80255">
        <ele>66</ele>
        <time>2021-05-14T15:24:58Z</time>
      </trkpt>
      <trkpt lat="43.61421" lon="3.80265">
        <ele>65</ele>
        <time>2021-05-14T15:24:59Z</time>
      </trkpt>
      <trkpt lat="43.61419" lon="3.80274">
        <ele>65</ele>
        <time>2021-05-14T15:25:00Z</time>
      </trkpt>
      <trkpt lat="43.61419" lon="3.80284">
        <ele>65</ele>
        <time>2021-05-14T15:25:01Z</time>
      </trkpt>
      <trkpt lat="43.61418" lon="3.80294">
        <ele>65</ele>
        <time>2021-05-14T15:25:02Z</time>
      </trkpt>
      <trkpt lat="43.61417" lon="3.80303">
        <ele>65</ele>
        <time>2021-05-14T15:25:03Z</time>
      </trkpt>
      <trkpt lat="43.61416" lon="3.80312">
        <ele>65</ele>
        <time>2021-05-14T15:25:04Z</time>
      </trkpt>
      <trkpt lat="43.61415" lon="3.80322">
        <ele>65</ele>
        <time>2021-05-14T15:25:05Z</time>
      </trkpt>
      <trkpt lat="43.61413" lon="3.8033">
        <ele>65</ele>
        <time>2021-05-14T15:25:06Z</time>
      </trkpt>
      <trkpt lat="43.61412" lon="3.80339">
        <ele>65</ele>
        <time>2021-05-14T15:25:07Z</time>
      </trkpt>
      <trkpt lat="43.61412" lon="3.80348">
        <ele>65</ele>
        <time>2021-05-14T15:25:08Z</time>
      </trkpt>
      <trkpt lat="43.61412" lon="3.80357">
        <ele>66</ele>
        <time>2021-05-14T15:25:09Z</time>
      </trkpt>
      <trkpt lat="43.61411" lon="3.80366">
        <ele>66</ele>
        <time>2021-05-14T15:25:10Z</time>
      </trkpt>
      <trkpt lat="43.61411" lon="3.80374">
        <ele>66</ele>
        <time>2021-05-14T15:25:11Z</time>
      </trkpt>
      <trkpt lat="43.6141" lon="3.80383">
        <ele>66</ele>
        <time>2021-05-14T15:25:12Z</time>
      </trkpt>
      <trkpt lat="43.6141" lon="3.80391">
        <ele>66</ele>
        <time>2021-05-14T15:25:13Z</time>
      </trkpt>
      <trkpt lat="43.61409" lon="3.80399">
        <ele>66</ele>
        <time>2021-05-14T15:25:14Z</time>
      </trkpt>
      <trkpt lat="43.61408" lon="3.80406">
        <ele>66</ele>
        <time>2021-05-14T15:25:15Z</time>
      </trkpt>
      <trkpt lat="43.61407" lon="3.80414">
        <ele>66</ele>
        <time>2021-05-14T15:25:16Z</time>
      </trkpt>
      <trkpt lat="43.61407" lon="3.80422">
        <ele>66</ele>
        <time>2021-05-14T15:25:17Z</time>
      </trkpt>
      <trkpt lat="43.61406" lon="3.80429">
        <ele>66</ele>
        <time>2021-05-14T15:25:18Z</time>
      </trkpt>
      <trkpt lat="43.61406" lon="3.80437">
        <ele>64</ele>
        <time>2021-05-14T15:25:19Z</time>
      </trkpt>
      <trkpt lat="43.61405" lon="3.80444">
        <ele>64</ele>
        <time>2021-05-14T15:25:20Z</time>
      </trkpt>
      <trkpt lat="43.61404" lon="3.80452">
        <ele>64</ele>
        <time>2021-05-14T15:25:21Z</time>
      </trkpt>
      <trkpt lat="43.61405" lon="3.80459">
        <ele>64</ele>
        <time>2021-05-14T15:25:22Z</time>
      </trkpt>
      <trkpt lat="43.61406" lon="3.80468">
        <ele>64</ele>
        <time>2021-05-14T15:25:23Z</time>
      </trkpt>
      <trkpt lat="43.61406" lon="3.80476">
        <ele>64</ele>
        <time>2021-05-14T15:25:24Z</time>
      </trkpt>
      <trkpt lat="43.61406" lon="3.80484">
        <ele>64</ele>
        <time>2021-05-14T15:25:25Z</time>
      </trkpt>
      <trkpt lat="43.61405" lon="3.80492">
        <ele>64</ele>
        <time>2021-05-14T15:25:26Z</time>
      </trkpt>
      <trkpt lat="43.61405" lon="3.805">
        <ele>64</ele>
        <time>2021-05-14T15:25:27Z</time>
      </trkpt>
      <trkpt lat="43.61404" lon="3.80507">
        <ele>64</ele>
        <time>2021-05-14T15:25:28Z</time>
      </trkpt>
      <trkpt lat="43.61404" lon="3.80515">
        <ele>62</ele>
        <time>2021-05-14T15:25:29Z</time>
      </trkpt>
      <trkpt lat="43.61404" lon="3.80522">
        <ele>62</ele>
        <time>2021-05-14T15:25:30Z</time>
      </trkpt>
      <trkpt lat="43.61403" lon="3.80529">
        <ele>62</ele>
        <time>2021-05-14T15:25:31Z</time>
      </trkpt>
      <trkpt lat="43.61403" lon="3.80536">
        <ele>62</ele>
        <time>2021-05-14T15:25:32Z</time>
      </trkpt>
      <trkpt lat="43.61403" lon="3.80543">
        <ele>62</ele>
        <time>2021-05-14T15:25:33Z</time>
      </trkpt>
      <trkpt lat="43.61403" lon="3.8055">
        <ele>62</ele>
        <time>2021-05-14T15:25:34Z</time>
      </trkpt>
      <trkpt lat="43.61403" lon="3.80557">
        <ele>62</ele>
        <time>2021-05-14T15:25:35Z</time>
      </trkpt>
      <trkpt lat="43.61401" lon="3.80564">
        <ele>62</ele>
        <time>2021-05-14T15:25:36Z</time>
      </trkpt>
      <trkpt lat="43.61398" lon="3.80571">
        <ele>62</ele>
        <time>2021-05-14T15:25:37Z</time>
      </trkpt>
      <trkpt lat="43.61396" lon="3.80578">
        <ele>62</ele>
        <time>2021-05-14T15:25:38Z</time>
      </trkpt>
      <trkpt lat="43.61395" lon="3.80586">
        <ele>61</ele>
        <time>2021-05-14T15:25:39Z</time>
      </trkpt>
      <trkpt lat="43.61395" lon="3.80594">
        <ele>61</ele>
        <time>2021-05-14T15:25:40Z</time>
      </trkpt>
      <trkpt lat="43.61397" lon="3.80602">
        <ele>61</ele>
        <time>2021-05-14T15:25:41Z</time>
      </trkpt>
      <trkpt lat="43.61397" lon="3.8061">
        <ele>61</ele>
        <time>2021-05-14T15:25:42Z</time>
      </trkpt>
      <trkpt lat="43.61397" lon="3.80618">
        <ele>61</ele>
        <time>2021-05-14T15:25:43Z</time>
      </trkpt>
      <trkpt lat="43.61396" lon="3.80626">
        <ele>61</ele>
        <time>2021-05-14T15:25:44Z</time>
      </trkpt>
      <trkpt lat="43.61394" lon="3.80633">
        <ele>61</ele>
        <time>2021-05-14T15:25:45Z</time>
      </trkpt>
      <trkpt lat="43.61392" lon="3.80639">
        <ele>61</ele>
        <time>2021-05-14T15:25:46Z</time>
      </trkpt>
      <trkpt lat="43.61391" lon="3.80646">
        <ele>61</ele>
        <time>2021-05-14T15:25:47Z</time>
      </trkpt>
      <trkpt lat="43.6139" lon="3.80654">
        <ele>61</ele>
        <time>2021-05-14T15:25:48Z</time>
      </trkpt>
      <trkpt lat="43.61389" lon="3.80668">
        <ele>60</ele>
        <time>2021-05-14T15:25:49Z</time>
      </trkpt>
      <trkpt lat="43.61389" lon="3.80676">
        <ele>60</ele>
        <time>2021-05-14T15:25:51Z</time>
      </trkpt>
      <trkpt lat="43.61388" lon="3.80683">
        <ele>60</ele>
        <time>2021-05-14T15:25:52Z</time>
      </trkpt>
      <trkpt lat="43.61387" lon="3.8069">
        <ele>60</ele>
        <time>2021-05-14T15:25:53Z</time>
      </trkpt>
      <trkpt lat="43.61386" lon="3.80696">
        <ele>60</ele>
        <time>2021-05-14T15:25:54Z</time>
      </trkpt>
      <trkpt lat="43.61386" lon="3.80702">
        <ele>60</ele>
        <time>2021-05-14T15:25:55Z</time>
      </trkpt>
      <trkpt lat="43.61385" lon="3.80707">
        <ele>60</ele>
        <time>2021-05-14T15:25:56Z</time>
      </trkpt>
      <trkpt lat="43.61385" lon="3.80713">
        <ele>60</ele>
        <time>2021-05-14T15:25:57Z</time>
      </trkpt>
      <trkpt lat="43.61384" lon="3.80718">
        <ele>60</ele>
        <time>2021-05-14T15:25:58Z</time>
      </trkpt>
      <trkpt lat="43.61384" lon="3.80724">
        <ele>58</ele>
        <time>2021-05-14T15:25:59Z</time>
      </trkpt>
      <trkpt lat="43.61383" lon="3.8073">
        <ele>58</ele>
        <time>2021-05-14T15:26:00Z</time>
      </trkpt>
      <trkpt lat="43.61382" lon="3.80737">
        <ele>58</ele>
        <time>2021-05-14T15:26:01Z</time>
      </trkpt>
      <trkpt lat="43.61381" lon="3.80743">
        <ele>58</ele>
        <time>2021-05-14T15:26:02Z</time>
      </trkpt>
      <trkpt lat="43.61381" lon="3.80749">
        <ele>58</ele>
        <time>2021-05-14T15:26:03Z</time>
      </trkpt>
      <trkpt lat="43.6138" lon="3.80755">
        <ele>58</ele>
        <time>2021-05-14T15:26:04Z</time>
      </trkpt>
      <trkpt lat="43.6138" lon="3.80761">
        <ele>58</ele>
        <time>2021-05-14T15:26:05Z</time>
      </trkpt>
      <trkpt lat="43.61379" lon="3.80767">
        <ele>58</ele>
        <time>2021-05-14T15:26:06Z</time>
      </trkpt>
      <trkpt lat="43.61379" lon="3.80773">
        <ele>58</ele>
        <time>2021-05-14T15:26:07Z</time>
      </trkpt>
      <trkpt lat="43.61379" lon="3.8078">
        <ele>58</ele>
        <time>2021-05-14T15:26:08Z</time>
      </trkpt>
      <trkpt lat="43.61379" lon="3.80786">
        <ele>58</ele>
        <time>2021-05-14T15:26:09Z</time>
      </trkpt>
      <trkpt lat="43.61379" lon="3.80793">
        <ele>58</ele>
        <time>2021-05-14T15:26:10Z</time>
      </trkpt>
      <trkpt lat="43.61379" lon="3.80799">
        <ele>58</ele>
        <time>2021-05-14T15:26:11Z</time>
      </trkpt>
      <trkpt lat="43.61379" lon="3.80806">
        <ele>58</ele>
        <time>2021-05-14T15:26:12Z</time>
      </trkpt>
      <trkpt lat="43.61379" lon="3.80812">
        <ele>58</ele>
        <time>2021-05-14T15:26:13Z</time>
      </trkpt>
      <trkpt lat="43.61379" lon="3.80818">
        <ele>58</ele>
        <time>2021-05-14T15:26:14Z</time>
      </trkpt>
      <trkpt lat="43.6138" lon="3.80823">
        <ele>58</ele>
        <time>2021-05-14T15:26:15Z</time>
      </trkpt>
      <trkpt lat="43.61381" lon="3.80828">
        <ele>58</ele>
        <time>2021-05-14T15:26:16Z</time>
      </trkpt>
      <trkpt lat="43.61381" lon="3.80832">
        <ele>58</ele>
        <time>2021-05-14T15:26:17Z</time>
      </trkpt>
      <trkpt lat="43.61382" lon="3.80837">
        <ele>58</ele>
        <time>2021-05-14T15:26:18Z</time>
      </trkpt>
      <trkpt lat="43.61382" lon="3.80848">
        <ele>58</ele>
        <time>2021-05-14T15:26:19Z</time>
      </trkpt>
      <trkpt lat="43.61382" lon="3.80854">
        <ele>58</ele>
        <time>2021-05-14T15:26:20Z</time>
      </trkpt>
      <trkpt lat="43.61382" lon="3.8086">
        <ele>58</ele>
        <time>2021-05-14T15:26:21Z</time>
      </trkpt>
      <trkpt lat="43.61383" lon="3.80866">
        <ele>58</ele>
        <time>2021-05-14T15:26:22Z</time>
      </trkpt>
      <trkpt lat="43.61383" lon="3.80872">
        <ele>58</ele>
        <time>2021-05-14T15:26:23Z</time>
      </trkpt>
      <trkpt lat="43.61384" lon="3.80878">
        <ele>58</ele>
        <time>2021-05-14T15:26:24Z</time>
      </trkpt>
      <trkpt lat="43.61384" lon="3.80884">
        <ele>58</ele>
        <time>2021-05-14T15:26:25Z</time>
      </trkpt>
      <trkpt lat="43.61385" lon="3.8089">
        <ele>58</ele>
        <time>2021-05-14T15:26:26Z</time>
      </trkpt>
      <trkpt lat="43.61386" lon="3.80895">
        <ele>58</ele>
        <time>2021-05-14T15:26:27Z</time>
      </trkpt>
      <trkpt lat="43.61386" lon="3.80902">
        <ele>58</ele>
        <time>2021-05-14T15:26:28Z</time>
      </trkpt>
      <trkpt lat="43.61387" lon="3.80908">
        <ele>58</ele>
        <time>2021-05-14T15:26:30Z</time>
      </trkpt>
      <trkpt lat="43.61387" lon="3.80914">
        <ele>58</ele>
        <time>2021-05-14T15:26:31Z</time>
      </trkpt>
      <trkpt lat="43.61387" lon="3.8092">
        <ele>58</ele>
        <time>2021-05-14T15:26:32Z</time>
      </trkpt>
      <trkpt lat="43.61388" lon="3.80927">
        <ele>58</ele>
        <time>2021-05-14T15:26:33Z</time>
      </trkpt>
      <trkpt lat="43.61388" lon="3.80933">
        <ele>58</ele>
        <time>2021-05-14T15:26:34Z</time>
      </trkpt>
      <trkpt lat="43.61389" lon="3.8094">
        <ele>58</ele>
        <time>2021-05-14T15:26:35Z</time>
      </trkpt>
      <trkpt lat="43.6139" lon="3.80947">
        <ele>58</ele>
        <time>2021-05-14T15:26:36Z</time>
      </trkpt>
      <trkpt lat="43.61391" lon="3.80954">
        <ele>58</ele>
        <time>2021-05-14T15:26:37Z</time>
      </trkpt>
      <trkpt lat="43.61393" lon="3.80961">
        <ele>58</ele>
        <time>2021-05-14T15:26:38Z</time>
      </trkpt>
      <trkpt lat="43.61394" lon="3.80968">
        <ele>57</ele>
        <time>2021-05-14T15:26:39Z</time>
      </trkpt>
      <trkpt lat="43.61395" lon="3.80976">
        <ele>57</ele>
        <time>2021-05-14T15:26:40Z</time>
      </trkpt>
      <trkpt lat="43.61395" lon="3.80983">
        <ele>57</ele>
        <time>2021-05-14T15:26:41Z</time>
      </trkpt>
      <trkpt lat="43.61396" lon="3.8099">
        <ele>57</ele>
        <time>2021-05-14T15:26:42Z</time>
      </trkpt>
      <trkpt lat="43.61397" lon="3.80999">
        <ele>57</ele>
        <time>2021-05-14T15:26:43Z</time>
      </trkpt>
      <trkpt lat="43.61397" lon="3.81008">
        <ele>57</ele>
        <time>2021-05-14T15:26:44Z</time>
      </trkpt>
      <trkpt lat="43.61398" lon="3.81018">
        <ele>57</ele>
        <time>2021-05-14T15:26:45Z</time>
      </trkpt>
      <trkpt lat="43.61399" lon="3.81027">
        <ele>57</ele>
        <time>2021-05-14T15:26:46Z</time>
      </trkpt>
      <trkpt lat="43.614" lon="3.81036">
        <ele>57</ele>
        <time>2021-05-14T15:26:47Z</time>
      </trkpt>
      <trkpt lat="43.61402" lon="3.81044">
        <ele>57</ele>
        <time>2021-05-14T15:26:48Z</time>
      </trkpt>
      <trkpt lat="43.61406" lon="3.8105">
        <ele>54</ele>
        <time>2021-05-14T15:26:49Z</time>
      </trkpt>
      <trkpt lat="43.6141" lon="3.81055">
        <ele>54</ele>
        <time>2021-05-14T15:26:50Z</time>
      </trkpt>
      <trkpt lat="43.61414" lon="3.81059">
        <ele>54</ele>
        <time>2021-05-14T15:26:51Z</time>
      </trkpt>
      <trkpt lat="43.61416" lon="3.8106">
        <ele>54</ele>
        <time>2021-05-14T15:26:52Z</time>
      </trkpt>
      <trkpt lat="43.61418" lon="3.81062">
        <ele>54</ele>
        <time>2021-05-14T15:26:54Z</time>
      </trkpt>
      <trkpt lat="43.61419" lon="3.81068">
        <ele>54</ele>
        <time>2021-05-14T15:26:56Z</time>
      </trkpt>
      <trkpt lat="43.61419" lon="3.81072">
        <ele>54</ele>
        <time>2021-05-14T15:26:57Z</time>
      </trkpt>
      <trkpt lat="43.61417" lon="3.81075">
        <ele>54</ele>
        <time>2021-05-14T15:26:58Z</time>
      </trkpt>
      <trkpt lat="43.61414" lon="3.81077">
        <ele>53</ele>
        <time>2021-05-14T15:26:59Z</time>
      </trkpt>
      <trkpt lat="43.61411" lon="3.81081">
        <ele>53</ele>
        <time>2021-05-14T15:27:00Z</time>
      </trkpt>
      <trkpt lat="43.61409" lon="3.81086">
        <ele>53</ele>
        <time>2021-05-14T15:27:01Z</time>
      </trkpt>
      <trkpt lat="43.61406" lon="3.81093">
        <ele>53</ele>
        <time>2021-05-14T15:27:02Z</time>
      </trkpt>
      <trkpt lat="43.61405" lon="3.81099">
        <ele>53</ele>
        <time>2021-05-14T15:27:03Z</time>
      </trkpt>
      <trkpt lat="43.61404" lon="3.81106">
        <ele>53</ele>
        <time>2021-05-14T15:27:04Z</time>
      </trkpt>
      <trkpt lat="43.61404" lon="3.81114">
        <ele>53</ele>
        <time>2021-05-14T15:27:05Z</time>
      </trkpt>
      <trkpt lat="43.61404" lon="3.81121">
        <ele>53</ele>
        <time>2021-05-14T15:27:06Z</time>
      </trkpt>
      <trkpt lat="43.61405" lon="3.81129">
        <ele>53</ele>
        <time>2021-05-14T15:27:07Z</time>
      </trkpt>
      <trkpt lat="43.61405" lon="3.81137">
        <ele>53</ele>
        <time>2021-05-14T15:27:08Z</time>
      </trkpt>
      <trkpt lat="43.61405" lon="3.81145">
        <ele>52</ele>
        <time>2021-05-14T15:27:09Z</time>
      </trkpt>
      <trkpt lat="43.61406" lon="3.81153">
        <ele>52</ele>
        <time>2021-05-14T15:27:10Z</time>
      </trkpt>
      <trkpt lat="43.61405" lon="3.81161">
        <ele>52</ele>
        <time>2021-05-14T15:27:11Z</time>
      </trkpt>
      <trkpt lat="43.61405" lon="3.81169">
        <ele>52</ele>
        <time>2021-05-14T15:27:12Z</time>
      </trkpt>
      <trkpt lat="43.61404" lon="3.81177">
        <ele>52</ele>
        <time>2021-05-14T15:27:13Z</time>
      </trkpt>
      <trkpt lat="43.61404" lon="3.81185">
        <ele>52</ele>
        <time>2021-05-14T15:27:14Z</time>
      </trkpt>
      <trkpt lat="43.61404" lon="3.81194">
        <ele>52</ele>
        <time>2021-05-14T15:27:15Z</time>
      </trkpt>
      <trkpt lat="43.61404" lon="3.81202">
        <ele>52</ele>
        <time>2021-05-14T15:27:16Z</time>
      </trkpt>
      <trkpt lat="43.61404" lon="3.81211">
        <ele>52</ele>
        <time>2021-05-14T15:27:17Z</time>
      </trkpt>
      <trkpt lat="43.61405" lon="3.8122">
        <ele>52</ele>
        <time>2021-05-14T15:27:18Z</time>
      </trkpt>
      <trkpt lat="43.61405" lon="3.8123">
        <ele>50</ele>
        <time>2021-05-14T15:27:19Z</time>
      </trkpt>
      <trkpt lat="43.61405" lon="3.81239">
        <ele>50</ele>
        <time>2021-05-14T15:27:20Z</time>
      </trkpt>
      <trkpt lat="43.61406" lon="3.81248">
        <ele>50</ele>
        <time>2021-05-14T15:27:21Z</time>
      </trkpt>
      <trkpt lat="43.61406" lon="3.81257">
        <ele>50</ele>
        <time>2021-05-14T15:27:22Z</time>
      </trkpt>
      <trkpt lat="43.61406" lon="3.81266">
        <ele>50</ele>
        <time>2021-05-14T15:27:23Z</time>
      </trkpt>
      <trkpt lat="43.61407" lon="3.81275">
        <ele>50</ele>
        <time>2021-05-14T15:27:24Z</time>
      </trkpt>
      <trkpt lat="43.61408" lon="3.81284">
        <ele>50</ele>
        <time>2021-05-14T15:27:25Z</time>
      </trkpt>
      <trkpt lat="43.61409" lon="3.81293">
        <ele>50</ele>
        <time>2021-05-14T15:27:26Z</time>
      </trkpt>
      <trkpt lat="43.6141" lon="3.81302">
        <ele>50</ele>
        <time>2021-05-14T15:27:27Z</time>
      </trkpt>
      <trkpt lat="43.61411" lon="3.81311">
        <ele>50</ele>
        <time>2021-05-14T15:27:28Z</time>
      </trkpt>
      <trkpt lat="43.61416" lon="3.81328">
        <ele>49</ele>
        <time>2021-05-14T15:27:29Z</time>
      </trkpt>
      <trkpt lat="43.61419" lon="3.81335">
        <ele>49</ele>
        <time>2021-05-14T15:27:30Z</time>
      </trkpt>
      <trkpt lat="43.6142" lon="3.81342">
        <ele>49</ele>
        <time>2021-05-14T15:27:31Z</time>
      </trkpt>
      <trkpt lat="43.61422" lon="3.81347">
        <ele>49</ele>
        <time>2021-05-14T15:27:32Z</time>
      </trkpt>
      <trkpt lat="43.61423" lon="3.81353">
        <ele>49</ele>
        <time>2021-05-14T15:27:33Z</time>
      </trkpt>
      <trkpt lat="43.61424" lon="3.81357">
        <ele>49</ele>
        <time>2021-05-14T15:27:34Z</time>
      </trkpt>
      <trkpt lat="43.61424" lon="3.8136">
        <ele>49</ele>
        <time>2021-05-14T15:27:35Z</time>
      </trkpt>
      <trkpt lat="43.61425" lon="3.81363">
        <ele>49</ele>
        <time>2021-05-14T15:27:36Z</time>
      </trkpt>
      <trkpt lat="43.61425" lon="3.81367">
        <ele>49</ele>
        <time>2021-05-14T15:27:38Z</time>
      </trkpt>
      <trkpt lat="43.61425" lon="3.8137">
        <ele>49</ele>
        <time>2021-05-14T15:27:40Z</time>
      </trkpt>
      <trkpt lat="43.61426" lon="3.81372">
        <ele>49</ele>
        <time>2021-05-14T15:27:41Z</time>
      </trkpt>
      <trkpt lat="43.61427" lon="3.81375">
        <ele>49</ele>
        <time>2021-05-14T15:27:42Z</time>
      </trkpt>
      <trkpt lat="43.61428" lon="3.81378">
        <ele>49</ele>
        <time>2021-05-14T15:27:43Z</time>
      </trkpt>
      <trkpt lat="43.61428" lon="3.8138">
        <ele>49</ele>
        <time>2021-05-14T15:27:44Z</time>
      </trkpt>
      <trkpt lat="43.61429" lon="3.81383">
        <ele>49</ele>
        <time>2021-05-14T15:27:45Z</time>
      </trkpt>
      <trkpt lat="43.6143" lon="3.81385">
        <ele>49</ele>
        <time>2021-05-14T15:27:46Z</time>
      </trkpt>
      <trkpt lat="43.61431" lon="3.81388">
        <ele>49</ele>
        <time>2021-05-14T15:27:47Z</time>
      </trkpt>
      <trkpt lat="43.61431" lon="3.81391">
        <ele>49</ele>
        <time>2021-05-14T15:27:48Z</time>
      </trkpt>
      <trkpt lat="43.61431" lon="3.81394">
        <ele>48</ele>
        <time>2021-05-14T15:27:49Z</time>
      </trkpt>
      <trkpt lat="43.61433" lon="3.81397">
        <ele>48</ele>
        <time>2021-05-14T15:27:50Z</time>
      </trkpt>
      <trkpt lat="43.61435" lon="3.81401">
        <ele>48</ele>
        <time>2021-05-14T15:27:51Z</time>
      </trkpt>
      <trkpt lat="43.61436" lon="3.81406">
        <ele>48</ele>
        <time>2021-05-14T15:27:52Z</time>
      </trkpt>
      <trkpt lat="43.61438" lon="3.81412">
        <ele>48</ele>
        <time>2021-05-14T15:27:53Z</time>
      </trkpt>
      <trkpt lat="43.6144" lon="3.81417">
        <ele>48</ele>
        <time>2021-05-14T15:27:54Z</time>
      </trkpt>
      <trkpt lat="43.61441" lon="3.81422">
        <ele>48</ele>
        <time>2021-05-14T15:27:55Z</time>
      </trkpt>
      <trkpt lat="43.61443" lon="3.81427">
        <ele>48</ele>
        <time>2021-05-14T15:27:56Z</time>
      </trkpt>
      <trkpt lat="43.61444" lon="3.81432">
        <ele>48</ele>
        <time>2021-05-14T15:27:57Z</time>
      </trkpt>
      <trkpt lat="43.61446" lon="3.81437">
        <ele>48</ele>
        <time>2021-05-14T15:27:58Z</time>
      </trkpt>
      <trkpt lat="43.61447" lon="3.81442">
        <ele>46</ele>
        <time>2021-05-14T15:27:59Z</time>
      </trkpt>
      <trkpt lat="43.61449" lon="3.81449">
        <ele>46</ele>
        <time>2021-05-14T15:28:00Z</time>
      </trkpt>
      <trkpt lat="43.6145" lon="3.81455">
        <ele>46</ele>
        <time>2021-05-14T15:28:01Z</time>
      </trkpt>
      <trkpt lat="43.61452" lon="3.81461">
        <ele>46</ele>
        <time>2021-05-14T15:28:02Z</time>
      </trkpt>
      <trkpt lat="43.61453" lon="3.81466">
        <ele>46</ele>
        <time>2021-05-14T15:28:03Z</time>
      </trkpt>
      <trkpt lat="43.61455" lon="3.81471">
        <ele>46</ele>
        <time>2021-05-14T15:28:04Z</time>
      </trkpt>
      <trkpt lat="43.61457" lon="3.81477">
        <ele>46</ele>
        <time>2021-05-14T15:28:05Z</time>
      </trkpt>
      <trkpt lat="43.61458" lon="3.81483">
        <ele>46</ele>
        <time>2021-05-14T15:28:06Z</time>
      </trkpt>
      <trkpt lat="43.6146" lon="3.8149">
        <ele>46</ele>
        <time>2021-05-14T15:28:07Z</time>
      </trkpt>
      <trkpt lat="43.61462" lon="3.81496">
        <ele>46</ele>
        <time>2021-05-14T15:28:08Z</time>
      </trkpt>
      <trkpt lat="43.61464" lon="3.81502">
        <ele>45</ele>
        <time>2021-05-14T15:28:09Z</time>
      </trkpt>
      <trkpt lat="43.61466" lon="3.81509">
        <ele>45</ele>
        <time>2021-05-14T15:28:10Z</time>
      </trkpt>
      <trkpt lat="43.61467" lon="3.81514">
        <ele>45</ele>
        <time>2021-05-14T15:28:11Z</time>
      </trkpt>
      <trkpt lat="43.61469" lon="3.81518">
        <ele>45</ele>
        <time>2021-05-14T15:28:12Z</time>
      </trkpt>
      <trkpt lat="43.61471" lon="3.81521">
        <ele>45</ele>
        <time>2021-05-14T15:28:14Z</time>
      </trkpt>
      <trkpt lat="43.61472" lon="3.81524">
        <ele>45</ele>
        <time>2021-05-14T15:28:15Z</time>
      </trkpt>
      <trkpt lat="43.61473" lon="3.81527">
        <ele>45</ele>
        <time>2021-05-14T15:28:16Z</time>
      </trkpt>
      <trkpt lat="43.61475" lon="3.81531">
        <ele>45</ele>
        <time>2021-05-14T15:28:17Z</time>
      </trkpt>
      <trkpt lat="43.61477" lon="3.81536">
        <ele>45</ele>
        <time>2021-05-14T15:28:18Z</time>
      </trkpt>
      <trkpt lat="43.61478" lon="3.8154">
        <ele>42</ele>
        <time>2021-05-14T15:28:19Z</time>
      </trkpt>
      <trkpt lat="43.61479" lon="3.81545">
        <ele>42</ele>
        <time>2021-05-14T15:28:20Z</time>
      </trkpt>
      <trkpt lat="43.61479" lon="3.81549">
        <ele>42</ele>
        <time>2021-05-14T15:28:21Z</time>
      </trkpt>
      <trkpt lat="43.6148" lon="3.81554">
        <ele>42</ele>
        <time>2021-05-14T15:28:22Z</time>
      </trkpt>
      <trkpt lat="43.61481" lon="3.81558">
        <ele>42</ele>
        <time>2021-05-14T15:28:23Z</time>
      </trkpt>
      <trkpt lat="43.61484" lon="3.8156">
        <ele>42</ele>
        <time>2021-05-14T15:28:24Z</time>
      </trkpt>
      <trkpt lat="43.61487" lon="3.81561">
        <ele>42</ele>
        <time>2021-05-14T15:28:25Z</time>
      </trkpt>
      <trkpt lat="43.61489" lon="3.81562">
        <ele>42</ele>
        <time>2021-05-14T15:28:26Z</time>
      </trkpt>
      <trkpt lat="43.61492" lon="3.81564">
        <ele>42</ele>
        <time>2021-05-14T15:28:27Z</time>
      </trkpt>
      <trkpt lat="43.61494" lon="3.81568">
        <ele>42</ele>
        <time>2021-05-14T15:28:28Z</time>
      </trkpt>
      <trkpt lat="43.61495" lon="3.81573">
        <ele>41</ele>
        <time>2021-05-14T15:28:29Z</time>
      </trkpt>
      <trkpt lat="43.61495" lon="3.81578">
        <ele>41</ele>
        <time>2021-05-14T15:28:30Z</time>
      </trkpt>
      <trkpt lat="43.61496" lon="3.81584">
        <ele>41</ele>
        <time>2021-05-14T15:28:31Z</time>
      </trkpt>
      <trkpt lat="43.61497" lon="3.8159">
        <ele>41</ele>
        <time>2021-05-14T15:28:32Z</time>
      </trkpt>
      <trkpt lat="43.61498" lon="3.81597">
        <ele>41</ele>
        <time>2021-05-14T15:28:33Z</time>
      </trkpt>
      <trkpt lat="43.61499" lon="3.81603">
        <ele>41</ele>
        <time>2021-05-14T15:28:34Z</time>
      </trkpt>
      <trkpt lat="43.615" lon="3.81609">
        <ele>41</ele>
        <time>2021-05-14T15:28:35Z</time>
      </trkpt>
      <trkpt lat="43.61501" lon="3.81615">
        <ele>41</ele>
        <time>2021-05-14T15:28:36Z</time>
      </trkpt>
      <trkpt lat="43.61503" lon="3.81621">
        <ele>41</ele>
        <time>2021-05-14T15:28:37Z</time>
      </trkpt>
      <trkpt lat="43.61504" lon="3.81626">
        <ele>41</ele>
        <time>2021-05-14T15:28:38Z</time>
      </trkpt>
      <trkpt lat="43.61506" lon="3.81631">
        <ele>40</ele>
        <time>2021-05-14T15:28:39Z</time>
      </trkpt>
      <trkpt lat="43.61507" lon="3.81636">
        <ele>40</ele>
        <time>2021-05-14T15:28:40Z</time>
      </trkpt>
      <trkpt lat="43.61509" lon="3.81641">
        <ele>40</ele>
        <time>2021-05-14T15:28:41Z</time>
      </trkpt>
      <trkpt lat="43.6151" lon="3.81646">
        <ele>40</ele>
        <time>2021-05-14T15:28:42Z</time>
      </trkpt>
      <trkpt lat="43.61511" lon="3.81652">
        <ele>40</ele>
        <time>2021-05-14T15:28:43Z</time>
      </trkpt>
      <trkpt lat="43.61512" lon="3.81657">
        <ele>40</ele>
        <time>2021-05-14T15:28:44Z</time>
      </trkpt>
      <trkpt lat="43.61514" lon="3.81662">
        <ele>40</ele>
        <time>2021-05-14T15:28:45Z</time>
      </trkpt>
      <trkpt lat="43.61515" lon="3.81667">
        <ele>40</ele>
        <time>2021-05-14T15:28:46Z</time>
      </trkpt>
      <trkpt lat="43.61517" lon="3.81672">
        <ele>40</ele>
        <time>2021-05-14T15:28:47Z</time>
      </trkpt>
      <trkpt lat="43.61518" lon="3.81677">
        <ele>40</ele>
        <time>2021-05-14T15:28:48Z</time>
      </trkpt>
      <trkpt lat="43.6152" lon="3.81683">
        <ele>40</ele>
        <time>2021-05-14T15:28:49Z</time>
      </trkpt>
      <trkpt lat="43.61521" lon="3.81688">
        <ele>40</ele>
        <time>2021-05-14T15:28:50Z</time>
      </trkpt>
      <trkpt lat="43.61522" lon="3.81694">
        <ele>40</ele>
        <time>2021-05-14T15:28:51Z</time>
      </trkpt>
      <trkpt lat="43.61524" lon="3.81699">
        <ele>40</ele>
        <time>2021-05-14T15:28:52Z</time>
      </trkpt>
      <trkpt lat="43.61525" lon="3.81705">
        <ele>40</ele>
        <time>2021-05-14T15:28:53Z</time>
      </trkpt>
      <trkpt lat="43.61527" lon="3.8171">
        <ele>40</ele>
        <time>2021-05-14T15:28:54Z</time>
      </trkpt>
      <trkpt lat="43.61529" lon="3.81716">
        <ele>40</ele>
        <time>2021-05-14T15:28:55Z</time>
      </trkpt>
      <trkpt lat="43.6153" lon="3.81721">
        <ele>40</ele>
        <time>2021-05-14T15:28:56Z</time>
      </trkpt>
      <trkpt lat="43.61532" lon="3.81726">
        <ele>40</ele>
        <time>2021-05-14T15:28:57Z</time>
      </trkpt>
      <trkpt lat="43.61533" lon="3.81732">
        <ele>40</ele>
        <time>2021-05-14T15:28:58Z</time>
      </trkpt>
      <trkpt lat="43.61537" lon="3.81743">
        <ele>41</ele>
        <time>2021-05-14T15:28:59Z</time>
      </trkpt>
      <trkpt lat="43.61538" lon="3.81749">
        <ele>41</ele>
        <time>2021-05-14T15:29:00Z</time>
      </trkpt>
      <trkpt lat="43.6154" lon="3.81756">
        <ele>41</ele>
        <time>2021-05-14T15:29:01Z</time>
      </trkpt>
      <trkpt lat="43.61541" lon="3.81763">
        <ele>41</ele>
        <time>2021-05-14T15:29:02Z</time>
      </trkpt>
      <trkpt lat="43.61543" lon="3.8177">
        <ele>41</ele>
        <time>2021-05-14T15:29:03Z</time>
      </trkpt>
      <trkpt lat="43.61545" lon="3.81777">
        <ele>41</ele>
        <time>2021-05-14T15:29:04Z</time>
      </trkpt>
      <trkpt lat="43.61547" lon="3.81784">
        <ele>41</ele>
        <time>2021-05-14T15:29:05Z</time>
      </trkpt>
      <trkpt lat="43.61548" lon="3.81791">
        <ele>41</ele>
        <time>2021-05-14T15:29:06Z</time>
      </trkpt>
      <trkpt lat="43.6155" lon="3.81798">
        <ele>41</ele>
        <time>2021-05-14T15:29:07Z</time>
      </trkpt>
      <trkpt lat="43.61552" lon="3.81804">
        <ele>41</ele>
        <time>2021-05-14T15:29:08Z</time>
      </trkpt>
      <trkpt lat="43.61555" lon="3.81811">
        <ele>41</ele>
        <time>2021-05-14T15:29:10Z</time>
      </trkpt>
      <trkpt lat="43.61557" lon="3.81817">
        <ele>41</ele>
        <time>2021-05-14T15:29:11Z</time>
      </trkpt>
      <trkpt lat="43.61559" lon="3.81824">
        <ele>41</ele>
        <time>2021-05-14T15:29:12Z</time>
      </trkpt>
      <trkpt lat="43.6156" lon="3.81831">
        <ele>41</ele>
        <time>2021-05-14T15:29:13Z</time>
      </trkpt>
      <trkpt lat="43.61561" lon="3.81838">
        <ele>41</ele>
        <time>2021-05-14T15:29:14Z</time>
      </trkpt>
      <trkpt lat="43.61563" lon="3.81844">
        <ele>41</ele>
        <time>2021-05-14T15:29:15Z</time>
      </trkpt>
      <trkpt lat="43.61565" lon="3.8185">
        <ele>41</ele>
        <time>2021-05-14T15:29:16Z</time>
      </trkpt>
      <trkpt lat="43.61567" lon="3.81856">
        <ele>41</ele>
        <time>2021-05-14T15:29:17Z</time>
      </trkpt>
      <trkpt lat="43.61569" lon="3.81863">
        <ele>41</ele>
        <time>2021-05-14T15:29:18Z</time>
      </trkpt>
      <trkpt lat="43.6157" lon="3.81869">
        <ele>39</ele>
        <time>2021-05-14T15:29:19Z</time>
      </trkpt>
      <trkpt lat="43.61572" lon="3.81876">
        <ele>39</ele>
        <time>2021-05-14T15:29:20Z</time>
      </trkpt>
      <trkpt lat="43.61574" lon="3.81881">
        <ele>39</ele>
        <time>2021-05-14T15:29:21Z</time>
      </trkpt>
      <trkpt lat="43.61576" lon="3.81886">
        <ele>39</ele>
        <time>2021-05-14T15:29:22Z</time>
      </trkpt>
      <trkpt lat="43.61577" lon="3.81892">
        <ele>39</ele>
        <time>2021-05-14T15:29:23Z</time>
      </trkpt>
      <trkpt lat="43.61579" lon="3.81899">
        <ele>39</ele>
        <time>2021-05-14T15:29:24Z</time>
      </trkpt>
      <trkpt lat="43.61581" lon="3.81906">
        <ele>39</ele>
        <time>2021-05-14T15:29:25Z</time>
      </trkpt>
      <trkpt lat="43.61582" lon="3.81912">
        <ele>39</ele>
        <time>2021-05-14T15:29:26Z</time>
      </trkpt>
      <trkpt lat="43.61584" lon="3.81919">
        <ele>39</ele>
        <time>2021-05-14T15:29:27Z</time>
      </trkpt>
      <trkpt lat="43.61586" lon="3.81926">
        <ele>39</ele>
        <time>2021-05-14T15:29:28Z</time>
      </trkpt>
      <trkpt lat="43.61589" lon="3.81938">
        <ele>40</ele>
        <time>2021-05-14T15:29:29Z</time>
      </trkpt>
      <trkpt lat="43.61591" lon="3.81944">
        <ele>40</ele>
        <time>2021-05-14T15:29:30Z</time>
      </trkpt>
      <trkpt lat="43.61592" lon="3.8195">
        <ele>40</ele>
        <time>2021-05-14T15:29:31Z</time>
      </trkpt>
      <trkpt lat="43.61594" lon="3.81955">
        <ele>40</ele>
        <time>2021-05-14T15:29:32Z</time>
      </trkpt>
      <trkpt lat="43.61595" lon="3.8196">
        <ele>40</ele>
        <time>2021-05-14T15:29:33Z</time>
      </trkpt>
      <trkpt lat="43.61596" lon="3.81964">
        <ele>40</ele>
        <time>2021-05-14T15:29:34Z</time>
      </trkpt>
      <trkpt lat="43.61595" lon="3.81969">
        <ele>40</ele>
        <time>2021-05-14T15:29:35Z</time>
      </trkpt>
      <trkpt lat="43.61592" lon="3.81972">
        <ele>40</ele>
        <time>2021-05-14T15:29:36Z</time>
      </trkpt>
      <trkpt lat="43.61589" lon="3.81974">
        <ele>40</ele>
        <time>2021-05-14T15:29:37Z</time>
      </trkpt>
      <trkpt lat="43.61585" lon="3.81977">
        <ele>40</ele>
        <time>2021-05-14T15:29:38Z</time>
      </trkpt>
      <trkpt lat="43.61581" lon="3.81979">
        <ele>40</ele>
        <time>2021-05-14T15:29:40Z</time>
      </trkpt>
      <trkpt lat="43.61578" lon="3.81981">
        <ele>40</ele>
        <time>2021-05-14T15:29:41Z</time>
      </trkpt>
      <trkpt lat="43.61574" lon="3.81982">
        <ele>40</ele>
        <time>2021-05-14T15:29:42Z</time>
      </trkpt>
      <trkpt lat="43.6157" lon="3.81984">
        <ele>40</ele>
        <time>2021-05-14T15:29:43Z</time>
      </trkpt>
      <trkpt lat="43.61566" lon="3.81986">
        <ele>40</ele>
        <time>2021-05-14T15:29:44Z</time>
      </trkpt>
      <trkpt lat="43.61562" lon="3.8199">
        <ele>40</ele>
        <time>2021-05-14T15:29:45Z</time>
      </trkpt>
      <trkpt lat="43.61559" lon="3.81993">
        <ele>40</ele>
        <time>2021-05-14T15:29:46Z</time>
      </trkpt>
      <trkpt lat="43.61557" lon="3.81998">
        <ele>40</ele>
        <time>2021-05-14T15:29:47Z</time>
      </trkpt>
      <trkpt lat="43.61556" lon="3.82004">
        <ele>40</ele>
        <time>2021-05-14T15:29:48Z</time>
      </trkpt>
      <trkpt lat="43.61555" lon="3.8201">
        <ele>41</ele>
        <time>2021-05-14T15:29:49Z</time>
      </trkpt>
      <trkpt lat="43.61554" lon="3.82015">
        <ele>41</ele>
        <time>2021-05-14T15:29:50Z</time>
      </trkpt>
      <trkpt lat="43.61553" lon="3.82021">
        <ele>41</ele>
        <time>2021-05-14T15:29:51Z</time>
      </trkpt>
      <trkpt lat="43.61553" lon="3.82024">
        <ele>41</ele>
        <time>2021-05-14T15:29:52Z</time>
      </trkpt>
      <trkpt lat="43.61551" lon="3.82027">
        <ele>41</ele>
        <time>2021-05-14T15:29:54Z</time>
      </trkpt>
      <trkpt lat="43.61548" lon="3.82026">
        <ele>41</ele>
        <time>2021-05-14T15:29:56Z</time>
      </trkpt>
      <trkpt lat="43.61546" lon="3.82025">
        <ele>41</ele>
        <time>2021-05-14T15:29:57Z</time>
      </trkpt>
      <trkpt lat="43.61544" lon="3.82023">
        <ele>41</ele>
        <time>2021-05-14T15:29:58Z</time>
      </trkpt>
      <trkpt lat="43.61542" lon="3.82021">
        <ele>41</ele>
        <time>2021-05-14T15:29:59Z</time>
      </trkpt>
      <trkpt lat="43.61538" lon="3.82021">
        <ele>41</ele>
        <time>2021-05-14T15:30:00Z</time>
      </trkpt>
      <trkpt lat="43.61535" lon="3.82025">
        <ele>41</ele>
        <time>2021-05-14T15:30:01Z</time>
      </trkpt>
      <trkpt lat="43.61533" lon="3.82031">
        <ele>41</ele>
        <time>2021-05-14T15:30:02Z</time>
      </trkpt>
      <trkpt lat="43.61532" lon="3.82038">
        <ele>41</ele>
        <time>2021-05-14T15:30:03Z</time>
      </trkpt>
      <trkpt lat="43.61532" lon="3.82045">
        <ele>41</ele>
        <time>2021-05-14T15:30:04Z</time>
      </trkpt>
      <trkpt lat="43.6153" lon="3.82052">
        <ele>41</ele>
        <time>2021-05-14T15:30:05Z</time>
      </trkpt>
      <trkpt lat="43.61529" lon="3.82059">
        <ele>41</ele>
        <time>2021-05-14T15:30:06Z</time>
      </trkpt>
      <trkpt lat="43.61528" lon="3.82065">
        <ele>41</ele>
        <time>2021-05-14T15:30:07Z</time>
      </trkpt>
      <trkpt lat="43.61528" lon="3.82072">
        <ele>41</ele>
        <time>2021-05-14T15:30:08Z</time>
      </trkpt>
      <trkpt lat="43.61527" lon="3.82078">
        <ele>42</ele>
        <time>2021-05-14T15:30:09Z</time>
      </trkpt>
      <trkpt lat="43.61527" lon="3.82084">
        <ele>42</ele>
        <time>2021-05-14T15:30:10Z</time>
      </trkpt>
      <trkpt lat="43.61526" lon="3.82089">
        <ele>42</ele>
        <time>2021-05-14T15:30:11Z</time>
      </trkpt>
      <trkpt lat="43.61525" lon="3.82094">
        <ele>42</ele>
        <time>2021-05-14T15:30:12Z</time>
      </trkpt>
      <trkpt lat="43.61525" lon="3.82099">
        <ele>42</ele>
        <time>2021-05-14T15:30:13Z</time>
      </trkpt>
      <trkpt lat="43.61525" lon="3.82104">
        <ele>42</ele>
        <time>2021-05-14T15:30:14Z</time>
      </trkpt>
      <trkpt lat="43.61525" lon="3.82109">
        <ele>42</ele>
        <time>2021-05-14T15:30:15Z</time>
      </trkpt>
      <trkpt lat="43.61525" lon="3.82114">
        <ele>42</ele>
        <time>2021-05-14T15:30:16Z</time>
      </trkpt>
      <trkpt lat="43.61525" lon="3.8212">
        <ele>42</ele>
        <time>2021-05-14T15:30:17Z</time>
      </trkpt>
      <trkpt lat="43.61525" lon="3.82126">
        <ele>42</ele>
        <time>2021-05-14T15:30:18Z</time>
      </trkpt>
      <trkpt lat="43.61524" lon="3.82132">
        <ele>42</ele>
        <time>2021-05-14T15:30:19Z</time>
      </trkpt>
      <trkpt lat="43.61523" lon="3.82137">
        <ele>42</ele>
        <time>2021-05-14T15:30:20Z</time>
      </trkpt>
      <trkpt lat="43.61522" lon="3.82143">
        <ele>42</ele>
        <time>2021-05-14T15:30:21Z</time>
      </trkpt>
      <trkpt lat="43.61521" lon="3.82149">
        <ele>42</ele>
        <time>2021-05-14T15:30:22Z</time>
      </trkpt>
      <trkpt lat="43.61521" lon="3.82155">
        <ele>42</ele>
        <time>2021-05-14T15:30:23Z</time>
      </trkpt>
      <trkpt lat="43.6152" lon="3.82161">
        <ele>42</ele>
        <time>2021-05-14T15:30:24Z</time>
      </trkpt>
      <trkpt lat="43.61519" lon="3.82167">
        <ele>42</ele>
        <time>2021-05-14T15:30:25Z</time>
      </trkpt>
      <trkpt lat="43.61519" lon="3.82172">
        <ele>42</ele>
        <time>2021-05-14T15:30:26Z</time>
      </trkpt>
      <trkpt lat="43.6152" lon="3.82179">
        <ele>42</ele>
        <time>2021-05-14T15:30:27Z</time>
      </trkpt>
      <trkpt lat="43.61519" lon="3.82185">
        <ele>42</ele>
        <time>2021-05-14T15:30:28Z</time>
      </trkpt>
      <trkpt lat="43.61519" lon="3.8219">
        <ele>43</ele>
        <time>2021-05-14T15:30:29Z</time>
      </trkpt>
      <trkpt lat="43.61518" lon="3.82196">
        <ele>43</ele>
        <time>2021-05-14T15:30:30Z</time>
      </trkpt>
      <trkpt lat="43.61517" lon="3.82201">
        <ele>43</ele>
        <time>2021-05-14T15:30:31Z</time>
      </trkpt>
      <trkpt lat="43.61516" lon="3.82206">
        <ele>43</ele>
        <time>2021-05-14T15:30:32Z</time>
      </trkpt>
      <trkpt lat="43.61513" lon="3.82209">
        <ele>43</ele>
        <time>2021-05-14T15:30:33Z</time>
      </trkpt>
      <trkpt lat="43.61509" lon="3.8221">
        <ele>43</ele>
        <time>2021-05-14T15:30:34Z</time>
      </trkpt>
      <trkpt lat="43.61505" lon="3.82211">
        <ele>43</ele>
        <time>2021-05-14T15:30:35Z</time>
      </trkpt>
      <trkpt lat="43.61501" lon="3.82211">
        <ele>43</ele>
        <time>2021-05-14T15:30:36Z</time>
      </trkpt>
      <trkpt lat="43.61497" lon="3.82211">
        <ele>43</ele>
        <time>2021-05-14T15:30:37Z</time>
      </trkpt>
      <trkpt lat="43.61492" lon="3.8221">
        <ele>43</ele>
        <time>2021-05-14T15:30:38Z</time>
      </trkpt>
      <trkpt lat="43.61487" lon="3.8221">
        <ele>43</ele>
        <time>2021-05-14T15:30:39Z</time>
      </trkpt>
      <trkpt lat="43.61483" lon="3.8221">
        <ele>43</ele>
        <time>2021-05-14T15:30:40Z</time>
      </trkpt>
      <trkpt lat="43.61478" lon="3.8221">
        <ele>43</ele>
        <time>2021-05-14T15:30:41Z</time>
      </trkpt>
      <trkpt lat="43.61474" lon="3.82211">
        <ele>43</ele>
        <time>2021-05-14T15:30:42Z</time>
      </trkpt>
      <trkpt lat="43.61469" lon="3.82212">
        <ele>43</ele>
        <time>2021-05-14T15:30:43Z</time>
      </trkpt>
      <trkpt lat="43.61465" lon="3.82213">
        <ele>43</ele>
        <time>2021-05-14T15:30:44Z</time>
      </trkpt>
      <trkpt lat="43.61461" lon="3.82215">
        <ele>43</ele>
        <time>2021-05-14T15:30:45Z</time>
      </trkpt>
      <trkpt lat="43.61456" lon="3.82216">
        <ele>43</ele>
        <time>2021-05-14T15:30:46Z</time>
      </trkpt>
      <trkpt lat="43.61452" lon="3.82218">
        <ele>43</ele>
        <time>2021-05-14T15:30:47Z</time>
      </trkpt>
      <trkpt lat="43.61446" lon="3.82221">
        <ele>43</ele>
        <time>2021-05-14T15:30:48Z</time>
      </trkpt>
      <trkpt lat="43.61442" lon="3.82224">
        <ele>43</ele>
        <time>2021-05-14T15:30:49Z</time>
      </trkpt>
      <trkpt lat="43.61438" lon="3.82227">
        <ele>43</ele>
        <time>2021-05-14T15:30:50Z</time>
      </trkpt>
      <trkpt lat="43.61435" lon="3.82229">
        <ele>43</ele>
        <time>2021-05-14T15:30:51Z</time>
      </trkpt>
      <trkpt lat="43.61432" lon="3.82231">
        <ele>43</ele>
        <time>2021-05-14T15:30:52Z</time>
      </trkpt>
      <trkpt lat="43.61429" lon="3.82233">
        <ele>43</ele>
        <time>2021-05-14T15:30:53Z</time>
      </trkpt>
      <trkpt lat="43.61426" lon="3.82235">
        <ele>43</ele>
        <time>2021-05-14T15:30:54Z</time>
      </trkpt>
      <trkpt lat="43.61424" lon="3.82237">
        <ele>43</ele>
        <time>2021-05-14T15:30:55Z</time>
      </trkpt>
      <trkpt lat="43.61421" lon="3.82239">
        <ele>43</ele>
        <time>2021-05-14T15:30:56Z</time>
      </trkpt>
      <trkpt lat="43.61419" lon="3.82241">
        <ele>43</ele>
        <time>2021-05-14T15:30:57Z</time>
      </trkpt>
      <trkpt lat="43.61416" lon="3.82243">
        <ele>43</ele>
        <time>2021-05-14T15:30:58Z</time>
      </trkpt>
      <trkpt lat="43.61413" lon="3.82246">
        <ele>45</ele>
        <time>2021-05-14T15:30:59Z</time>
      </trkpt>
      <trkpt lat="43.61411" lon="3.82248">
        <ele>45</ele>
        <time>2021-05-14T15:31:00Z</time>
      </trkpt>
      <trkpt lat="43.61408" lon="3.8225">
        <ele>45</ele>
        <time>2021-05-14T15:31:01Z</time>
      </trkpt>
      <trkpt lat="43.61405" lon="3.82252">
        <ele>45</ele>
        <time>2021-05-14T15:31:02Z</time>
      </trkpt>
      <trkpt lat="43.61403" lon="3.82255">
        <ele>45</ele>
        <time>2021-05-14T15:31:03Z</time>
      </trkpt>
      <trkpt lat="43.614" lon="3.82258">
        <ele>45</ele>
        <time>2021-05-14T15:31:04Z</time>
      </trkpt>
      <trkpt lat="43.61397" lon="3.82261">
        <ele>45</ele>
        <time>2021-05-14T15:31:05Z</time>
      </trkpt>
      <trkpt lat="43.61395" lon="3.82264">
        <ele>45</ele>
        <time>2021-05-14T15:31:06Z</time>
      </trkpt>
      <trkpt lat="43.61393" lon="3.82267">
        <ele>45</ele>
        <time>2021-05-14T15:31:07Z</time>
      </trkpt>
      <trkpt lat="43.61391" lon="3.8227">
        <ele>45</ele>
        <time>2021-05-14T15:31:08Z</time>
      </trkpt>
      <trkpt lat="43.61389" lon="3.82273">
        <ele>47</ele>
        <time>2021-05-14T15:31:09Z</time>
      </trkpt>
      <trkpt lat="43.61387" lon="3.82276">
        <ele>47</ele>
        <time>2021-05-14T15:31:10Z</time>
      </trkpt>
      <trkpt lat="43.61386" lon="3.82279">
        <ele>47</ele>
        <time>2021-05-14T15:31:11Z</time>
      </trkpt>
      <trkpt lat="43.61385" lon="3.82282">
        <ele>47</ele>
        <time>2021-05-14T15:31:12Z</time>
      </trkpt>
      <trkpt lat="43.61383" lon="3.82285">
        <ele>47</ele>
        <time>2021-05-14T15:31:13Z</time>
      </trkpt>
      <trkpt lat="43.61381" lon="3.82288">
        <ele>47</ele>
        <time>2021-05-14T15:31:14Z</time>
      </trkpt>
      <trkpt lat="43.61379" lon="3.8229">
        <ele>47</ele>
        <time>2021-05-14T15:31:15Z</time>
      </trkpt>
      <trkpt lat="43.61377" lon="3.82293">
        <ele>47</ele>
        <time>2021-05-14T15:31:16Z</time>
      </trkpt>
      <trkpt lat="43.61376" lon="3.82297">
        <ele>47</ele>
        <time>2021-05-14T15:31:17Z</time>
      </trkpt>
      <trkpt lat="43.61375" lon="3.823">
        <ele>47</ele>
        <time>2021-05-14T15:31:18Z</time>
      </trkpt>
      <trkpt lat="43.61374" lon="3.82304">
        <ele>50</ele>
        <time>2021-05-14T15:31:19Z</time>
      </trkpt>
      <trkpt lat="43.61373" lon="3.82308">
        <ele>50</ele>
        <time>2021-05-14T15:31:20Z</time>
      </trkpt>
      <trkpt lat="43.61373" lon="3.82312">
        <ele>50</ele>
        <time>2021-05-14T15:31:21Z</time>
      </trkpt>
      <trkpt lat="43.61373" lon="3.82316">
        <ele>50</ele>
        <time>2021-05-14T15:31:22Z</time>
      </trkpt>
      <trkpt lat="43.61373" lon="3.82319">
        <ele>50</ele>
        <time>2021-05-14T15:31:23Z</time>
      </trkpt>
      <trkpt lat="43.61372" lon="3.82323">
        <ele>50</ele>
        <time>2021-05-14T15:31:24Z</time>
      </trkpt>
      <trkpt lat="43.61372" lon="3.82327">
        <ele>50</ele>
        <time>2021-05-14T15:31:25Z</time>
      </trkpt>
      <trkpt lat="43.61373" lon="3.82331">
        <ele>50</ele>
        <time>2021-05-14T15:31:26Z</time>
      </trkpt>
      <trkpt lat="43.61373" lon="3.82335">
        <ele>50</ele>
        <time>2021-05-14T15:31:27Z</time>
      </trkpt>
      <trkpt lat="43.61374" lon="3.82339">
        <ele>50</ele>
        <time>2021-05-14T15:31:28Z</time>
      </trkpt>
      <trkpt lat="43.61374" lon="3.82344">
        <ele>51</ele>
        <time>2021-05-14T15:31:29Z</time>
      </trkpt>
      <trkpt lat="43.61373" lon="3.82347">
        <ele>51</ele>
        <time>2021-05-14T15:31:30Z</time>
      </trkpt>
      <trkpt lat="43.61371" lon="3.8235">
        <ele>51</ele>
        <time>2021-05-14T15:31:31Z</time>
      </trkpt>
      <trkpt lat="43.61369" lon="3.8235">
        <ele>51</ele>
        <time>2021-05-14T15:31:32Z</time>
      </trkpt>
      <trkpt lat="43.61367" lon="3.82349">
        <ele>51</ele>
        <time>2021-05-14T15:31:33Z</time>
      </trkpt>
      <trkpt lat="43.61365" lon="3.82348">
        <ele>51</ele>
        <time>2021-05-14T15:31:34Z</time>
      </trkpt>
      <trkpt lat="43.61363" lon="3.82347">
        <ele>51</ele>
        <time>2021-05-14T15:31:35Z</time>
      </trkpt>
      <trkpt lat="43.61361" lon="3.82346">
        <ele>51</ele>
        <time>2021-05-14T15:31:36Z</time>
      </trkpt>
      <trkpt lat="43.61359" lon="3.82345">
        <ele>51</ele>
        <time>2021-05-14T15:31:37Z</time>
      </trkpt>
      <trkpt lat="43.61357" lon="3.82345">
        <ele>51</ele>
        <time>2021-05-14T15:31:38Z</time>
      </trkpt>
      <trkpt lat="43.61355" lon="3.82344">
        <ele>52</ele>
        <time>2021-05-14T15:31:39Z</time>
      </trkpt>
      <trkpt lat="43.61352" lon="3.82343">
        <ele>52</ele>
        <time>2021-05-14T15:31:40Z</time>
      </trkpt>
      <trkpt lat="43.6135" lon="3.82341">
        <ele>52</ele>
        <time>2021-05-14T15:31:41Z</time>
      </trkpt>
      <trkpt lat="43.61347" lon="3.82339">
        <ele>52</ele>
        <time>2021-05-14T15:31:42Z</time>
      </trkpt>
      <trkpt lat="43.61344" lon="3.82337">
        <ele>52</ele>
        <time>2021-05-14T15:31:43Z</time>
      </trkpt>
      <trkpt lat="43.61342" lon="3.82335">
        <ele>52</ele>
        <time>2021-05-14T15:31:44Z</time>
      </trkpt>
      <trkpt lat="43.61339" lon="3.82334">
        <ele>52</ele>
        <time>2021-05-14T15:31:45Z</time>
      </trkpt>
      <trkpt lat="43.61337" lon="3.82335">
        <ele>52</ele>
        <time>2021-05-14T15:31:46Z</time>
      </trkpt>
      <trkpt lat="43.61335" lon="3.82337">
        <ele>52</ele>
        <time>2021-05-14T15:31:47Z</time>
      </trkpt>
      <trkpt lat="43.61334" lon="3.8234">
        <ele>52</ele>
        <time>2021-05-14T15:31:48Z</time>
      </trkpt>
      <trkpt lat="43.61333" lon="3.82343">
        <ele>54</ele>
        <time>2021-05-14T15:31:49Z</time>
      </trkpt>
      <trkpt lat="43.61332" lon="3.82347">
        <ele>54</ele>
        <time>2021-05-14T15:31:50Z</time>
      </trkpt>
      <trkpt lat="43.6133" lon="3.8235">
        <ele>54</ele>
        <time>2021-05-14T15:31:51Z</time>
      </trkpt>
      <trkpt lat="43.61327" lon="3.82352">
        <ele>54</ele>
        <time>2021-05-14T15:31:52Z</time>
      </trkpt>
      <trkpt lat="43.61325" lon="3.82353">
        <ele>54</ele>
        <time>2021-05-14T15:31:53Z</time>
      </trkpt>
      <trkpt lat="43.61321" lon="3.82354">
        <ele>54</ele>
        <time>2021-05-14T15:31:54Z</time>
      </trkpt>
      <trkpt lat="43.61318" lon="3.82357">
        <ele>54</ele>
        <time>2021-05-14T15:31:55Z</time>
      </trkpt>
      <trkpt lat="43.61314" lon="3.8236">
        <ele>54</ele>
        <time>2021-05-14T15:31:56Z</time>
      </trkpt>
      <trkpt lat="43.61311" lon="3.82362">
        <ele>54</ele>
        <time>2021-05-14T15:31:57Z</time>
      </trkpt>
      <trkpt lat="43.61309" lon="3.82364">
        <ele>54</ele>
        <time>2021-05-14T15:31:58Z</time>
      </trkpt>
      <trkpt lat="43.61309" lon="3.82368">
        <ele>53</ele>
        <time>2021-05-14T15:31:59Z</time>
      </trkpt>
      <trkpt lat="43.61309" lon="3.82371">
        <ele>53</ele>
        <time>2021-05-14T15:32:00Z</time>
      </trkpt>
      <trkpt lat="43.61309" lon="3.82376">
        <ele>53</ele>
        <time>2021-05-14T15:32:01Z</time>
      </trkpt>
      <trkpt lat="43.6131" lon="3.82379">
        <ele>53</ele>
        <time>2021-05-14T15:32:02Z</time>
      </trkpt>
      <trkpt lat="43.61311" lon="3.82384">
        <ele>53</ele>
        <time>2021-05-14T15:32:03Z</time>
      </trkpt>
      <trkpt lat="43.61311" lon="3.82388">
        <ele>53</ele>
        <time>2021-05-14T15:32:04Z</time>
      </trkpt>
      <trkpt lat="43.61312" lon="3.82392">
        <ele>53</ele>
        <time>2021-05-14T15:32:05Z</time>
      </trkpt>
      <trkpt lat="43.61312" lon="3.82396">
        <ele>53</ele>
        <time>2021-05-14T15:32:06Z</time>
      </trkpt>
      <trkpt lat="43.61312" lon="3.824">
        <ele>53</ele>
        <time>2021-05-14T15:32:07Z</time>
      </trkpt>
      <trkpt lat="43.61313" lon="3.82405">
        <ele>53</ele>
        <time>2021-05-14T15:32:08Z</time>
      </trkpt>
      <trkpt lat="43.61313" lon="3.82409">
        <ele>54</ele>
        <time>2021-05-14T15:32:09Z</time>
      </trkpt>
      <trkpt lat="43.61313" lon="3.82415">
        <ele>54</ele>
        <time>2021-05-14T15:32:10Z</time>
      </trkpt>
      <trkpt lat="43.61313" lon="3.8242">
        <ele>54</ele>
        <time>2021-05-14T15:32:11Z</time>
      </trkpt>
      <trkpt lat="43.61312" lon="3.82424">
        <ele>54</ele>
        <time>2021-05-14T15:32:12Z</time>
      </trkpt>
      <trkpt lat="43.61312" lon="3.82429">
        <ele>54</ele>
        <time>2021-05-14T15:32:13Z</time>
      </trkpt>
      <trkpt lat="43.61311" lon="3.82433">
        <ele>54</ele>
        <time>2021-05-14T15:32:14Z</time>
      </trkpt>
      <trkpt lat="43.6131" lon="3.82439">
        <ele>54</ele>
        <time>2021-05-14T15:32:15Z</time>
      </trkpt>
      <trkpt lat="43.61309" lon="3.82444">
        <ele>54</ele>
        <time>2021-05-14T15:32:16Z</time>
      </trkpt>
      <trkpt lat="43.61308" lon="3.82449">
        <ele>54</ele>
        <time>2021-05-14T15:32:17Z</time>
      </trkpt>
      <trkpt lat="43.61307" lon="3.82453">
        <ele>54</ele>
        <time>2021-05-14T15:32:18Z</time>
      </trkpt>
      <trkpt lat="43.61305" lon="3.82458">
        <ele>54</ele>
        <time>2021-05-14T15:32:19Z</time>
      </trkpt>
      <trkpt lat="43.61303" lon="3.82462">
        <ele>54</ele>
        <time>2021-05-14T15:32:20Z</time>
      </trkpt>
      <trkpt lat="43.61302" lon="3.82466">
        <ele>54</ele>
        <time>2021-05-14T15:32:21Z</time>
      </trkpt>
      <trkpt lat="43.613" lon="3.82471">
        <ele>54</ele>
        <time>2021-05-14T15:32:22Z</time>
      </trkpt>
      <trkpt lat="43.61298" lon="3.82475">
        <ele>54</ele>
        <time>2021-05-14T15:32:23Z</time>
      </trkpt>
      <trkpt lat="43.61296" lon="3.82479">
        <ele>54</ele>
        <time>2021-05-14T15:32:24Z</time>
      </trkpt>
      <trkpt lat="43.61295" lon="3.82483">
        <ele>54</ele>
        <time>2021-05-14T15:32:25Z</time>
      </trkpt>
      <trkpt lat="43.61293" lon="3.82486">
        <ele>54</ele>
        <time>2021-05-14T15:32:26Z</time>
      </trkpt>
      <trkpt lat="43.61291" lon="3.82489">
        <ele>54</ele>
        <time>2021-05-14T15:32:27Z</time>
      </trkpt>
      <trkpt lat="43.61288" lon="3.82492">
        <ele>54</ele>
        <time>2021-05-14T15:32:28Z</time>
      </trkpt>
      <trkpt lat="43.61286" lon="3.82496">
        <ele>55</ele>
        <time>2021-05-14T15:32:29Z</time>
      </trkpt>
      <trkpt lat="43.61283" lon="3.82499">
        <ele>55</ele>
        <time>2021-05-14T15:32:30Z</time>
      </trkpt>
      <trkpt lat="43.6128" lon="3.82502">
        <ele>55</ele>
        <time>2021-05-14T15:32:31Z</time>
      </trkpt>
      <trkpt lat="43.61278" lon="3.82504">
        <ele>55</ele>
        <time>2021-05-14T15:32:32Z</time>
      </trkpt>
      <trkpt lat="43.61275" lon="3.82507">
        <ele>55</ele>
        <time>2021-05-14T15:32:33Z</time>
      </trkpt>
      <trkpt lat="43.61272" lon="3.82509">
        <ele>55</ele>
        <time>2021-05-14T15:32:34Z</time>
      </trkpt>
      <trkpt lat="43.6127" lon="3.82512">
        <ele>55</ele>
        <time>2021-05-14T15:32:35Z</time>
      </trkpt>
      <trkpt lat="43.61268" lon="3.82514">
        <ele>55</ele>
        <time>2021-05-14T15:32:36Z</time>
      </trkpt>
      <trkpt lat="43.61266" lon="3.82516">
        <ele>55</ele>
        <time>2021-05-14T15:32:37Z</time>
      </trkpt>
      <trkpt lat="43.61264" lon="3.82517">
        <ele>55</ele>
        <time>2021-05-14T15:32:38Z</time>
      </trkpt>
      <trkpt lat="43.61258" lon="3.82517">
        <ele>56</ele>
        <time>2021-05-14T15:32:39Z</time>
      </trkpt>
      <trkpt lat="43.61254" lon="3.82518">
        <ele>56</ele>
        <time>2021-05-14T15:32:40Z</time>
      </trkpt>
      <trkpt lat="43.61252" lon="3.82519">
        <ele>56</ele>
        <time>2021-05-14T15:32:41Z</time>
      </trkpt>
      <trkpt lat="43.61249" lon="3.8252">
        <ele>56</ele>
        <time>2021-05-14T15:32:42Z</time>
      </trkpt>
      <trkpt lat="43.61246" lon="3.8252">
        <ele>56</ele>
        <time>2021-05-14T15:32:43Z</time>
      </trkpt>
      <trkpt lat="43.61243" lon="3.82522">
        <ele>56</ele>
        <time>2021-05-14T15:32:44Z</time>
      </trkpt>
      <trkpt lat="43.61241" lon="3.82525">
        <ele>56</ele>
        <time>2021-05-14T15:32:45Z</time>
      </trkpt>
      <trkpt lat="43.61238" lon="3.82528">
        <ele>56</ele>
        <time>2021-05-14T15:32:46Z</time>
      </trkpt>
      <trkpt lat="43.61234" lon="3.82532">
        <ele>56</ele>
        <time>2021-05-14T15:32:48Z</time>
      </trkpt>
      <trkpt lat="43.61232" lon="3.82533">
        <ele>56</ele>
        <time>2021-05-14T15:32:50Z</time>
      </trkpt>
      <trkpt lat="43.6123" lon="3.82535">
        <ele>56</ele>
        <time>2021-05-14T15:32:51Z</time>
      </trkpt>
      <trkpt lat="43.61226" lon="3.82537">
        <ele>56</ele>
        <time>2021-05-14T15:32:53Z</time>
      </trkpt>
      <trkpt lat="43.61224" lon="3.82539">
        <ele>56</ele>
        <time>2021-05-14T15:32:54Z</time>
      </trkpt>
      <trkpt lat="43.61223" lon="3.8254">
        <ele>56</ele>
        <time>2021-05-14T15:32:55Z</time>
      </trkpt>
      <trkpt lat="43.6122" lon="3.82542">
        <ele>56</ele>
        <time>2021-05-14T15:32:57Z</time>
      </trkpt>
      <trkpt lat="43.61218" lon="3.82543">
        <ele>56</ele>
        <time>2021-05-14T15:32:58Z</time>
      </trkpt>
      <trkpt lat="43.61214" lon="3.82544">
        <ele>57</ele>
        <time>2021-05-14T15:32:59Z</time>
      </trkpt>
      <trkpt lat="43.61213" lon="3.82545">
        <ele>57</ele>
        <time>2021-05-14T15:33:00Z</time>
      </trkpt>
      <trkpt lat="43.61211" lon="3.82547">
        <ele>57</ele>
        <time>2021-05-14T15:33:01Z</time>
      </trkpt>
      <trkpt lat="43.61209" lon="3.8255">
        <ele>57</ele>
        <time>2021-05-14T15:33:02Z</time>
      </trkpt>
      <trkpt lat="43.61207" lon="3.82553">
        <ele>57</ele>
        <time>2021-05-14T15:33:03Z</time>
      </trkpt>
      <trkpt lat="43.61205" lon="3.82558">
        <ele>57</ele>
        <time>2021-05-14T15:33:04Z</time>
      </trkpt>
      <trkpt lat="43.61203" lon="3.82564">
        <ele>57</ele>
        <time>2021-05-14T15:33:05Z</time>
      </trkpt>
      <trkpt lat="43.61201" lon="3.8257">
        <ele>57</ele>
        <time>2021-05-14T15:33:06Z</time>
      </trkpt>
      <trkpt lat="43.612" lon="3.82576">
        <ele>57</ele>
        <time>2021-05-14T15:33:07Z</time>
      </trkpt>
      <trkpt lat="43.61199" lon="3.82582">
        <ele>57</ele>
        <time>2021-05-14T15:33:08Z</time>
      </trkpt>
      <trkpt lat="43.61198" lon="3.82588">
        <ele>57</ele>
        <time>2021-05-14T15:33:10Z</time>
      </trkpt>
      <trkpt lat="43.61197" lon="3.82594">
        <ele>57</ele>
        <time>2021-05-14T15:33:11Z</time>
      </trkpt>
      <trkpt lat="43.61196" lon="3.82599">
        <ele>57</ele>
        <time>2021-05-14T15:33:12Z</time>
      </trkpt>
      <trkpt lat="43.61196" lon="3.82603">
        <ele>57</ele>
        <time>2021-05-14T15:33:13Z</time>
      </trkpt>
      <trkpt lat="43.61195" lon="3.82608">
        <ele>57</ele>
        <time>2021-05-14T15:33:14Z</time>
      </trkpt>
      <trkpt lat="43.61194" lon="3.82612">
        <ele>57</ele>
        <time>2021-05-14T15:33:15Z</time>
      </trkpt>
      <trkpt lat="43.61193" lon="3.82616">
        <ele>57</ele>
        <time>2021-05-14T15:33:16Z</time>
      </trkpt>
      <trkpt lat="43.61192" lon="3.82619">
        <ele>57</ele>
        <time>2021-05-14T15:33:17Z</time>
      </trkpt>
      <trkpt lat="43.61192" lon="3.82623">
        <ele>57</ele>
        <time>2021-05-14T15:33:18Z</time>
      </trkpt>
      <trkpt lat="43.61191" lon="3.82627">
        <ele>57</ele>
        <time>2021-05-14T15:33:19Z</time>
      </trkpt>
      <trkpt lat="43.61191" lon="3.82631">
        <ele>57</ele>
        <time>2021-05-14T15:33:20Z</time>
      </trkpt>
      <trkpt lat="43.61191" lon="3.82635">
        <ele>57</ele>
        <time>2021-05-14T15:33:21Z</time>
      </trkpt>
      <trkpt lat="43.6119" lon="3.82639">
        <ele>57</ele>
        <time>2021-05-14T15:33:22Z</time>
      </trkpt>
      <trkpt lat="43.61189" lon="3.82645">
        <ele>57</ele>
        <time>2021-05-14T15:33:23Z</time>
      </trkpt>
      <trkpt lat="43.61189" lon="3.8265">
        <ele>57</ele>
        <time>2021-05-14T15:33:24Z</time>
      </trkpt>
      <trkpt lat="43.61188" lon="3.82655">
        <ele>57</ele>
        <time>2021-05-14T15:33:25Z</time>
      </trkpt>
      <trkpt lat="43.61187" lon="3.8266">
        <ele>57</ele>
        <time>2021-05-14T15:33:26Z</time>
      </trkpt>
      <trkpt lat="43.61186" lon="3.82665">
        <ele>57</ele>
        <time>2021-05-14T15:33:27Z</time>
      </trkpt>
      <trkpt lat="43.61185" lon="3.8267">
        <ele>57</ele>
        <time>2021-05-14T15:33:28Z</time>
      </trkpt>
      <trkpt lat="43.61184" lon="3.82675">
        <ele>58</ele>
        <time>2021-05-14T15:33:29Z</time>
      </trkpt>
      <trkpt lat="43.61184" lon="3.8268">
        <ele>58</ele>
        <time>2021-05-14T15:33:30Z</time>
      </trkpt>
      <trkpt lat="43.61183" lon="3.82686">
        <ele>58</ele>
        <time>2021-05-14T15:33:31Z</time>
      </trkpt>
      <trkpt lat="43.61182" lon="3.82692">
        <ele>58</ele>
        <time>2021-05-14T15:33:32Z</time>
      </trkpt>
      <trkpt lat="43.61181" lon="3.82697">
        <ele>58</ele>
        <time>2021-05-14T15:33:33Z</time>
      </trkpt>
      <trkpt lat="43.61181" lon="3.82703">
        <ele>58</ele>
        <time>2021-05-14T15:33:34Z</time>
      </trkpt>
      <trkpt lat="43.61181" lon="3.82709">
        <ele>58</ele>
        <time>2021-05-14T15:33:35Z</time>
      </trkpt>
      <trkpt lat="43.6118" lon="3.82716">
        <ele>58</ele>
        <time>2021-05-14T15:33:36Z</time>
      </trkpt>
      <trkpt lat="43.61179" lon="3.82721">
        <ele>58</ele>
        <time>2021-05-14T15:33:37Z</time>
      </trkpt>
      <trkpt lat="43.61178" lon="3.82727">
        <ele>58</ele>
        <time>2021-05-14T15:33:38Z</time>
      </trkpt>
      <trkpt lat="43.61177" lon="3.82733">
        <ele>57</ele>
        <time>2021-05-14T15:33:39Z</time>
      </trkpt>
      <trkpt lat="43.61176" lon="3.82739">
        <ele>57</ele>
        <time>2021-05-14T15:33:40Z</time>
      </trkpt>
      <trkpt lat="43.61175" lon="3.82745">
        <ele>57</ele>
        <time>2021-05-14T15:33:41Z</time>
      </trkpt>
      <trkpt lat="43.61173" lon="3.82751">
        <ele>57</ele>
        <time>2021-05-14T15:33:42Z</time>
      </trkpt>
      <trkpt lat="43.61172" lon="3.82754">
        <ele>57</ele>
        <time>2021-05-14T15:33:43Z</time>
      </trkpt>
      <trkpt lat="43.61172" lon="3.82757">
        <ele>57</ele>
        <time>2021-05-14T15:33:46Z</time>
      </trkpt>
      <trkpt lat="43.61172" lon="3.82756">
        <ele>57</ele>
        <time>2021-05-14T15:33:50Z</time>
      </trkpt>
    </trkseg>
  </trk>
</gpx>